<?xml version="1.0" encoding="UTF-8"?>
<gpx version="1.1" creator="2bulu-scraper" xmlns="http://www.topografix.com/GPX/1/1">
  <metadata><name>峨眉山后山上前山下 07:16:03</name><desc>source: 2bulu.com trackId=84991213; exported 2026-09-01T16:07:27.734Z</desc>
    <bounds minlat="29.502748" minlon="103.303135" maxlat="29.583132" maxlon="103.464338"/>
    <link href="https://www.2bulu.com/track/t-lWopjVzh81Hp%252FR2KBg5Tzw%253D%253D.htm"><text>2bulu 源页面</text></link>
  </metadata>
  <wpt lat="29.458037" lon="103.259413"><ele>1590</ele><name>苦蒿坪民宿</name></wpt>
  <wpt lat="29.504438" lon="103.303245"><ele>2311</ele><name></name></wpt>
  <wpt lat="29.505008" lon="103.304497"><ele>2352</ele><name></name></wpt>
  <wpt lat="29.504987" lon="103.304603"><ele>2353</ele><name></name></wpt>
  <wpt lat="29.505033" lon="103.305078"><ele>2360</ele><name></name></wpt>
  <wpt lat="29.505033" lon="103.305078"><ele>2360</ele><name></name></wpt>
  <wpt lat="29.505013" lon="103.305153"><ele>2361</ele><name></name></wpt>
  <wpt lat="29.50502" lon="103.305122"><ele>2362</ele><name></name></wpt>
  <wpt lat="29.503522" lon="103.309495"><ele>2537</ele><name></name></wpt>
  <wpt lat="29.502883" lon="103.3116"><ele>2633</ele><name></name></wpt>
  <wpt lat="29.505953" lon="103.321175"><ele>2868</ele><name></name></wpt>
  <wpt lat="29.506922" lon="103.323472"><ele>2930</ele><name></name></wpt>
  <wpt lat="29.509928" lon="103.331333"><ele>3086</ele><name></name></wpt>
  <wpt lat="29.510518" lon="103.332518"><ele>3079</ele><name></name></wpt>
  <wpt lat="29.512588" lon="103.33265"><ele>3063</ele><name></name></wpt>
  <wpt lat="29.522753" lon="103.335167"><ele>3051</ele><name></name></wpt>
  <wpt lat="29.52288" lon="103.337203"><ele>3077</ele><name></name></wpt>
  <wpt lat="29.522947" lon="103.33722"><ele>3078</ele><name></name></wpt>
  <wpt lat="29.528703" lon="103.329697"><ele>2897</ele><name></name></wpt>
  <wpt lat="29.529555" lon="103.328025"><ele>2857</ele><name></name></wpt>
  <wpt lat="29.529547" lon="103.32817"><ele>2855</ele><name></name></wpt>
  <wpt lat="29.530303" lon="103.327103"><ele>2847</ele><name></name></wpt>
  <wpt lat="29.542322" lon="103.332122"><ele>2428</ele><name></name></wpt>
  <wpt lat="29.546692" lon="103.337172"><ele>2474</ele><name></name></wpt>
  <wpt lat="29.557222" lon="103.34365"><ele>2092</ele><name></name></wpt>
  <wpt lat="29.557678" lon="103.343987"><ele>2071</ele><name></name></wpt>
  <wpt lat="29.55838" lon="103.343742"><ele>2070</ele><name></name></wpt>
  <wpt lat="29.558355" lon="103.343712"><ele>2067</ele><name></name></wpt>
  <wpt lat="29.558476" lon="103.344156"><ele>2070</ele><name></name></wpt>
  <wpt lat="29.558825" lon="103.344313"><ele>2062</ele><name></name></wpt>
  <wpt lat="29.5607" lon="103.344772"><ele>1882</ele><name></name></wpt>
  <wpt lat="29.564136" lon="103.356473"><ele>1906</ele><name></name></wpt>
  <wpt lat="29.566158" lon="103.358147"><ele>1801</ele><name></name></wpt>
  <wpt lat="29.567937" lon="103.359563"><ele>1735</ele><name></name></wpt>
  <wpt lat="29.568253" lon="103.359755"><ele>1734</ele><name></name></wpt>
  <wpt lat="29.575178" lon="103.36532"><ele>1487</ele><name></name></wpt>
  <wpt lat="29.577505" lon="103.370912"><ele>1468</ele><name></name></wpt>
  <wpt lat="29.577756" lon="103.371228"><ele>1461</ele><name></name></wpt>
  <wpt lat="29.580117" lon="103.37342"><ele>1364</ele><name></name></wpt>
  <wpt lat="29.580695" lon="103.375372"><ele>1304</ele><name></name></wpt>
  <wpt lat="29.581358" lon="103.382871"><ele>999</ele><name></name></wpt>
  <wpt lat="29.581595" lon="103.381937"><ele>1018</ele><name></name></wpt>
  <wpt lat="29.57851" lon="103.389026"><ele>812</ele><name></name></wpt>
  <wpt lat="29.577003" lon="103.391372"><ele>785</ele><name></name></wpt>
  <wpt lat="29.574095" lon="103.392013"><ele>708</ele><name></name></wpt>
  <wpt lat="29.57407" lon="103.392005"><ele>706</ele><name></name></wpt>
  <wpt lat="29.573517" lon="103.392053"><ele>702</ele><name></name></wpt>
  <wpt lat="29.570555" lon="103.391455"><ele>717</ele><name></name></wpt>
  <wpt lat="29.568483" lon="103.390878"><ele>763</ele><name></name></wpt>
  <wpt lat="29.573661" lon="103.393523"><ele>726</ele><name></name></wpt>
  <wpt lat="29.571938" lon="103.400422"><ele>804</ele><name></name></wpt>
  <wpt lat="29.572036" lon="103.401254"><ele>785</ele><name></name></wpt>
  <wpt lat="29.566611" lon="103.407874"><ele>815</ele><name></name></wpt>
  <wpt lat="29.567692" lon="103.420288"><ele>892</ele><name></name></wpt>
  <wpt lat="29.56493" lon="103.425392"><ele>702</ele><name></name></wpt>
  <wpt lat="29.565047" lon="103.425863"><ele>702</ele><name></name></wpt>
  <wpt lat="29.565997" lon="103.435333"><ele>586</ele><name></name></wpt>
  <wpt lat="29.565746" lon="103.435252"><ele>581</ele><name></name></wpt>
  <wpt lat="29.569015" lon="103.440933"><ele>536</ele><name>来风亭</name></wpt>
  <wpt lat="29.56957" lon="103.440933"><ele>539</ele><name>报国寺红墙</name></wpt>
  <wpt lat="29.570618" lon="103.441365"><ele>545</ele><name>报国寺</name></wpt>
  <wpt lat="29.569763" lon="103.449905"><ele>493</ele><name>西南交通大学峨眉校区校门</name></wpt>
  <wpt lat="29.579358" lon="103.463913"><ele>459</ele><name>峨眉山站</name></wpt>
  <trk><name>峨眉山后山上前山下 07:16:03</name>
      <trkseg>
        <trkpt lat="29.504422" lon="103.3032"><ele>2310.9949</ele><time>2026-05-27T15:16:11.000Z</time></trkpt>
        <trkpt lat="29.504439" lon="103.303249"><ele>2310.769</ele><time>2026-05-27T15:16:23.000Z</time></trkpt>
        <trkpt lat="29.504466" lon="103.303292"><ele>2312.6262</ele><time>2026-05-27T15:16:43.000Z</time></trkpt>
        <trkpt lat="29.504518" lon="103.303292"><ele>2316.4438</ele><time>2026-05-27T15:16:53.000Z</time></trkpt>
        <trkpt lat="29.504563" lon="103.303294"><ele>2317.3142</ele><time>2026-05-27T15:17:00.000Z</time></trkpt>
        <trkpt lat="29.504611" lon="103.303277"><ele>2316.6814</ele><time>2026-05-27T15:17:06.000Z</time></trkpt>
        <trkpt lat="29.504656" lon="103.303267"><ele>2316.2542</ele><time>2026-05-27T15:17:28.000Z</time></trkpt>
        <trkpt lat="29.504672" lon="103.303215"><ele>2319.5916</ele><time>2026-05-27T15:19:01.000Z</time></trkpt>
        <trkpt lat="29.504718" lon="103.303215"><ele>2318.4395</ele><time>2026-05-27T15:19:26.000Z</time></trkpt>
        <trkpt lat="29.504765" lon="103.303201"><ele>2319.4878</ele><time>2026-05-27T15:20:13.000Z</time></trkpt>
        <trkpt lat="29.504809" lon="103.303179"><ele>2321.913</ele><time>2026-05-27T15:20:38.000Z</time></trkpt>
        <trkpt lat="29.504856" lon="103.303171"><ele>2321.664</ele><time>2026-05-27T15:20:46.000Z</time></trkpt>
        <trkpt lat="29.504901" lon="103.30315"><ele>2323.3018</ele><time>2026-05-27T15:20:54.000Z</time></trkpt>
        <trkpt lat="29.504948" lon="103.30314"><ele>2322.7725</ele><time>2026-05-27T15:21:06.000Z</time></trkpt>
        <trkpt lat="29.504999" lon="103.303135"><ele>2325.5547</ele><time>2026-05-27T15:21:15.000Z</time></trkpt>
        <trkpt lat="29.505049" lon="103.30315"><ele>2325.3577</ele><time>2026-05-27T15:21:23.000Z</time></trkpt>
        <trkpt lat="29.505092" lon="103.303165"><ele>2326.8574</ele><time>2026-05-27T15:21:31.000Z</time></trkpt>
        <trkpt lat="29.505128" lon="103.303199"><ele>2327.388</ele><time>2026-05-27T15:21:39.000Z</time></trkpt>
        <trkpt lat="29.505141" lon="103.303252"><ele>2327.8386</ele><time>2026-05-27T15:21:50.000Z</time></trkpt>
        <trkpt lat="29.505118" lon="103.303306"><ele>2333.2222</ele><time>2026-05-27T15:22:31.000Z</time></trkpt>
        <trkpt lat="29.505152" lon="103.30334"><ele>2331.5322</ele><time>2026-05-27T15:23:03.000Z</time></trkpt>
        <trkpt lat="29.505153" lon="103.303393"><ele>2334.331</ele><time>2026-05-27T15:23:31.000Z</time></trkpt>
        <trkpt lat="29.505153" lon="103.30345"><ele>2333.8105</ele><time>2026-05-27T15:23:37.000Z</time></trkpt>
        <trkpt lat="29.505193" lon="103.30349"><ele>2333.503</ele><time>2026-05-27T15:23:43.000Z</time></trkpt>
        <trkpt lat="29.505225" lon="103.303535"><ele>2333.504</ele><time>2026-05-27T15:23:49.000Z</time></trkpt>
        <trkpt lat="29.505256" lon="103.303572"><ele>2335.9285</ele><time>2026-05-27T15:23:58.000Z</time></trkpt>
        <trkpt lat="29.505303" lon="103.303583"><ele>2334.905</ele><time>2026-05-27T15:24:07.000Z</time></trkpt>
        <trkpt lat="29.505347" lon="103.303609"><ele>2336.1826</ele><time>2026-05-27T15:24:15.000Z</time></trkpt>
        <trkpt lat="29.505375" lon="103.303656"><ele>2338.1914</ele><time>2026-05-27T15:24:26.000Z</time></trkpt>
        <trkpt lat="29.5054" lon="103.303701"><ele>2340.2944</ele><time>2026-05-27T15:24:37.000Z</time></trkpt>
        <trkpt lat="29.505428" lon="103.303743"><ele>2342.1458</ele><time>2026-05-27T15:24:43.000Z</time></trkpt>
        <trkpt lat="29.505441" lon="103.303796"><ele>2341.2224</ele><time>2026-05-27T15:24:50.000Z</time></trkpt>
        <trkpt lat="29.505421" lon="103.303844"><ele>2341.3022</ele><time>2026-05-27T15:24:58.000Z</time></trkpt>
        <trkpt lat="29.505394" lon="103.303895"><ele>2341.6238</ele><time>2026-05-27T15:25:06.000Z</time></trkpt>
        <trkpt lat="29.505364" lon="103.303938"><ele>2341.7075</ele><time>2026-05-27T15:25:12.000Z</time></trkpt>
        <trkpt lat="29.505352" lon="103.30399"><ele>2341.4521</ele><time>2026-05-27T15:25:17.000Z</time></trkpt>
        <trkpt lat="29.505334" lon="103.304051"><ele>2341.6492</ele><time>2026-05-27T15:25:24.000Z</time></trkpt>
        <trkpt lat="29.505317" lon="103.304104"><ele>2343.8237</ele><time>2026-05-27T15:25:30.000Z</time></trkpt>
        <trkpt lat="29.505311" lon="103.304156"><ele>2345.6765</ele><time>2026-05-27T15:25:37.000Z</time></trkpt>
        <trkpt lat="29.505278" lon="103.304198"><ele>2348.8892</ele><time>2026-05-27T15:25:45.000Z</time></trkpt>
        <trkpt lat="29.505252" lon="103.30425"><ele>2346.9226</ele><time>2026-05-27T15:25:50.000Z</time></trkpt>
        <trkpt lat="29.505229" lon="103.304296"><ele>2348.9026</ele><time>2026-05-27T15:25:58.000Z</time></trkpt>
        <trkpt lat="29.505205" lon="103.304342"><ele>2350.236</ele><time>2026-05-27T15:26:05.000Z</time></trkpt>
        <trkpt lat="29.505177" lon="103.304391"><ele>2350.7415</ele><time>2026-05-27T15:26:13.000Z</time></trkpt>
        <trkpt lat="29.505138" lon="103.304424"><ele>2351.9949</ele><time>2026-05-27T15:26:27.000Z</time></trkpt>
        <trkpt lat="29.505092" lon="103.304451"><ele>2353.0615</ele><time>2026-05-27T15:26:34.000Z</time></trkpt>
        <trkpt lat="29.50505" lon="103.304472"><ele>2352.585</ele><time>2026-05-27T15:26:48.000Z</time></trkpt>
        <trkpt lat="29.505008" lon="103.304495"><ele>2351.8062</ele><time>2026-05-27T15:26:57.000Z</time></trkpt>
        <trkpt lat="29.505005" lon="103.304548"><ele>2353.27</ele><time>2026-05-27T15:27:42.000Z</time></trkpt>
        <trkpt lat="29.504992" lon="103.304597"><ele>2353.622</ele><time>2026-05-27T15:27:49.000Z</time></trkpt>
        <trkpt lat="29.504982" lon="103.304652"><ele>2354.2026</ele><time>2026-05-27T15:28:02.000Z</time></trkpt>
        <trkpt lat="29.505001" lon="103.304713"><ele>2354.4375</ele><time>2026-05-27T15:28:12.000Z</time></trkpt>
        <trkpt lat="29.504989" lon="103.304773"><ele>2355.9604</ele><time>2026-05-27T15:28:20.000Z</time></trkpt>
        <trkpt lat="29.504974" lon="103.304828"><ele>2358.018</ele><time>2026-05-27T15:28:31.000Z</time></trkpt>
        <trkpt lat="29.50499" lon="103.30488"><ele>2358.6409</ele><time>2026-05-27T15:28:40.000Z</time></trkpt>
        <trkpt lat="29.505035" lon="103.304911"><ele>2359.2139</ele><time>2026-05-27T15:28:49.000Z</time></trkpt>
        <trkpt lat="29.505043" lon="103.304962"><ele>2361.3376</ele><time>2026-05-27T15:28:58.000Z</time></trkpt>
        <trkpt lat="29.505043" lon="103.30502"><ele>2361.2124</ele><time>2026-05-27T15:29:11.000Z</time></trkpt>
        <trkpt lat="29.505034" lon="103.305074"><ele>2359.5708</ele><time>2026-05-27T15:31:15.000Z</time></trkpt>
        <trkpt lat="29.505026" lon="103.305125"><ele>2359.8008</ele><time>2026-05-27T15:41:47.000Z</time></trkpt>
        <trkpt lat="29.505071" lon="103.305133"><ele>2355.0122</ele><time>2026-05-27T15:45:09.000Z</time></trkpt>
        <trkpt lat="29.505025" lon="103.305132"><ele>2359.5156</ele><time>2026-05-27T15:46:07.000Z</time></trkpt>
        <trkpt lat="29.504997" lon="103.305174"><ele>2358.1946</ele><time>2026-05-27T15:47:40.000Z</time></trkpt>
        <trkpt lat="29.504959" lon="103.305211"><ele>2359.0325</ele><time>2026-05-27T15:47:50.000Z</time></trkpt>
        <trkpt lat="29.504921" lon="103.30524"><ele>2363.373</ele><time>2026-05-27T15:48:15.000Z</time></trkpt>
        <trkpt lat="29.504872" lon="103.305238"><ele>2363.2212</ele><time>2026-05-27T15:48:43.000Z</time></trkpt>
        <trkpt lat="29.504828" lon="103.305261"><ele>2363.5195</ele><time>2026-05-27T15:48:49.000Z</time></trkpt>
        <trkpt lat="29.504779" lon="103.305291"><ele>2364.088</ele><time>2026-05-27T15:48:57.000Z</time></trkpt>
        <trkpt lat="29.504749" lon="103.305338"><ele>2364.4934</ele><time>2026-05-27T15:49:04.000Z</time></trkpt>
        <trkpt lat="29.504744" lon="103.30539"><ele>2363.9656</ele><time>2026-05-27T15:49:08.000Z</time></trkpt>
        <trkpt lat="29.504747" lon="103.305448"><ele>2363.9448</ele><time>2026-05-27T15:49:13.000Z</time></trkpt>
        <trkpt lat="29.504763" lon="103.305506"><ele>2364.4724</ele><time>2026-05-27T15:49:20.000Z</time></trkpt>
        <trkpt lat="29.504757" lon="103.305564"><ele>2364.8557</ele><time>2026-05-27T15:49:27.000Z</time></trkpt>
        <trkpt lat="29.504728" lon="103.305604"><ele>2364.8318</ele><time>2026-05-27T15:49:36.000Z</time></trkpt>
        <trkpt lat="29.504701" lon="103.305647"><ele>2365.2185</ele><time>2026-05-27T15:49:42.000Z</time></trkpt>
        <trkpt lat="29.504675" lon="103.30569"><ele>2363.498</ele><time>2026-05-27T15:49:52.000Z</time></trkpt>
        <trkpt lat="29.504652" lon="103.305737"><ele>2361.8506</ele><time>2026-05-27T15:50:01.000Z</time></trkpt>
        <trkpt lat="29.504648" lon="103.305791"><ele>2361.3</ele><time>2026-05-27T15:50:06.000Z</time></trkpt>
        <trkpt lat="29.504648" lon="103.305845"><ele>2362.3306</ele><time>2026-05-27T15:50:15.000Z</time></trkpt>
        <trkpt lat="29.504639" lon="103.305898"><ele>2362.832</ele><time>2026-05-27T15:50:24.000Z</time></trkpt>
        <trkpt lat="29.504664" lon="103.305946"><ele>2367.1096</ele><time>2026-05-27T15:50:39.000Z</time></trkpt>
        <trkpt lat="29.504678" lon="103.305997"><ele>2369.6084</ele><time>2026-05-27T15:50:57.000Z</time></trkpt>
        <trkpt lat="29.504671" lon="103.306051"><ele>2373.3242</ele><time>2026-05-27T15:51:14.000Z</time></trkpt>
        <trkpt lat="29.504662" lon="103.306102"><ele>2375.1436</ele><time>2026-05-27T15:51:26.000Z</time></trkpt>
        <trkpt lat="29.50466" lon="103.306157"><ele>2373.866</ele><time>2026-05-27T15:51:34.000Z</time></trkpt>
        <trkpt lat="29.504632" lon="103.306198"><ele>2376.0735</ele><time>2026-05-27T15:53:49.000Z</time></trkpt>
        <trkpt lat="29.504616" lon="103.306253"><ele>2378.7463</ele><time>2026-05-27T15:54:05.000Z</time></trkpt>
        <trkpt lat="29.504591" lon="103.3063"><ele>2380.343</ele><time>2026-05-27T15:54:19.000Z</time></trkpt>
        <trkpt lat="29.504569" lon="103.306349"><ele>2383.7395</ele><time>2026-05-27T15:54:30.000Z</time></trkpt>
        <trkpt lat="29.50455" lon="103.306396"><ele>2384.9287</ele><time>2026-05-27T15:54:44.000Z</time></trkpt>
        <trkpt lat="29.504552" lon="103.306448"><ele>2385.497</ele><time>2026-05-27T15:55:04.000Z</time></trkpt>
        <trkpt lat="29.50451" lon="103.30647"><ele>2387.5518</ele><time>2026-05-27T15:55:15.000Z</time></trkpt>
        <trkpt lat="29.504467" lon="103.306492"><ele>2390.9292</ele><time>2026-05-27T15:55:23.000Z</time></trkpt>
        <trkpt lat="29.504433" lon="103.306529"><ele>2393.8616</ele><time>2026-05-27T15:55:38.000Z</time></trkpt>
        <trkpt lat="29.504381" lon="103.306535"><ele>2399.4226</ele><time>2026-05-27T15:56:03.000Z</time></trkpt>
        <trkpt lat="29.50434" lon="103.306565"><ele>2399.4377</ele><time>2026-05-27T15:56:20.000Z</time></trkpt>
        <trkpt lat="29.504335" lon="103.306618"><ele>2398.033</ele><time>2026-05-27T15:56:32.000Z</time></trkpt>
        <trkpt lat="29.504306" lon="103.306658"><ele>2401.6536</ele><time>2026-05-27T15:56:58.000Z</time></trkpt>
        <trkpt lat="29.504305" lon="103.30671"><ele>2400.7822</ele><time>2026-05-27T15:58:25.000Z</time></trkpt>
        <trkpt lat="29.50428" lon="103.306755"><ele>2403.625</ele><time>2026-05-27T16:02:16.000Z</time></trkpt>
        <trkpt lat="29.504247" lon="103.306797"><ele>2407.1587</ele><time>2026-05-27T16:02:30.000Z</time></trkpt>
        <trkpt lat="29.504204" lon="103.306824"><ele>2409.552</ele><time>2026-05-27T16:02:42.000Z</time></trkpt>
        <trkpt lat="29.504173" lon="103.306867"><ele>2414.175</ele><time>2026-05-27T16:02:56.000Z</time></trkpt>
        <trkpt lat="29.504139" lon="103.306915"><ele>2415.612</ele><time>2026-05-27T16:03:10.000Z</time></trkpt>
        <trkpt lat="29.504122" lon="103.30697"><ele>2417.3875</ele><time>2026-05-27T16:03:26.000Z</time></trkpt>
        <trkpt lat="29.504093" lon="103.307014"><ele>2421.47</ele><time>2026-05-27T16:03:47.000Z</time></trkpt>
        <trkpt lat="29.504087" lon="103.307069"><ele>2419.3596</ele><time>2026-05-27T16:04:21.000Z</time></trkpt>
        <trkpt lat="29.504071" lon="103.307119"><ele>2422.4377</ele><time>2026-05-27T16:04:37.000Z</time></trkpt>
        <trkpt lat="29.504058" lon="103.307171"><ele>2428.7573</ele><time>2026-05-27T16:04:57.000Z</time></trkpt>
        <trkpt lat="29.504038" lon="103.307218"><ele>2433.0042</ele><time>2026-05-27T16:05:12.000Z</time></trkpt>
        <trkpt lat="29.504009" lon="103.307267"><ele>2435.6643</ele><time>2026-05-27T16:05:27.000Z</time></trkpt>
        <trkpt lat="29.504002" lon="103.307321"><ele>2437.089</ele><time>2026-05-27T16:05:42.000Z</time></trkpt>
        <trkpt lat="29.503986" lon="103.307374"><ele>2437.6462</ele><time>2026-05-27T16:05:54.000Z</time></trkpt>
        <trkpt lat="29.503958" lon="103.307418"><ele>2443.7944</ele><time>2026-05-27T16:06:31.000Z</time></trkpt>
        <trkpt lat="29.503868" lon="103.30753"><ele>2450.3484</ele><time>2026-05-27T16:07:40.000Z</time></trkpt>
        <trkpt lat="29.503837" lon="103.307569"><ele>2452.6882</ele><time>2026-05-27T16:07:57.000Z</time></trkpt>
        <trkpt lat="29.503794" lon="103.307584"><ele>2457.4326</ele><time>2026-05-27T16:08:22.000Z</time></trkpt>
        <trkpt lat="29.503774" lon="103.307636"><ele>2459.762</ele><time>2026-05-27T16:08:35.000Z</time></trkpt>
        <trkpt lat="29.503763" lon="103.307696"><ele>2461.614</ele><time>2026-05-27T16:08:51.000Z</time></trkpt>
        <trkpt lat="29.503781" lon="103.307744"><ele>2461.4165</ele><time>2026-05-27T16:09:06.000Z</time></trkpt>
        <trkpt lat="29.503764" lon="103.307794"><ele>2468.4004</ele><time>2026-05-27T16:09:40.000Z</time></trkpt>
        <trkpt lat="29.503761" lon="103.307851"><ele>2468.067</ele><time>2026-05-27T16:09:58.000Z</time></trkpt>
        <trkpt lat="29.503761" lon="103.307902"><ele>2474.0564</ele><time>2026-05-27T16:10:20.000Z</time></trkpt>
        <trkpt lat="29.503767" lon="103.307956"><ele>2473.0598</ele><time>2026-05-27T16:10:33.000Z</time></trkpt>
        <trkpt lat="29.503756" lon="103.308014"><ele>2473.1624</ele><time>2026-05-27T16:10:41.000Z</time></trkpt>
        <trkpt lat="29.503717" lon="103.308042"><ele>2483.6992</ele><time>2026-05-27T16:11:29.000Z</time></trkpt>
        <trkpt lat="29.503684" lon="103.3081"><ele>2484.4749</ele><time>2026-05-27T16:11:37.000Z</time></trkpt>
        <trkpt lat="29.503673" lon="103.30815"><ele>2489.5903</ele><time>2026-05-27T16:12:14.000Z</time></trkpt>
        <trkpt lat="29.503662" lon="103.308202"><ele>2488.2302</ele><time>2026-05-27T16:12:29.000Z</time></trkpt>
        <trkpt lat="29.503644" lon="103.308254"><ele>2494.8154</ele><time>2026-05-27T16:12:52.000Z</time></trkpt>
        <trkpt lat="29.5036" lon="103.30827"><ele>2496.5066</ele><time>2026-05-27T16:13:50.000Z</time></trkpt>
        <trkpt lat="29.503554" lon="103.308276"><ele>2500.0898</ele><time>2026-05-27T16:14:12.000Z</time></trkpt>
        <trkpt lat="29.503509" lon="103.308301"><ele>2502.695</ele><time>2026-05-27T16:14:28.000Z</time></trkpt>
        <trkpt lat="29.503483" lon="103.308343"><ele>2502.4548</ele><time>2026-05-27T16:14:36.000Z</time></trkpt>
        <trkpt lat="29.50345" lon="103.308384"><ele>2504.6355</ele><time>2026-05-27T16:14:50.000Z</time></trkpt>
        <trkpt lat="29.503451" lon="103.308438"><ele>2505.0857</ele><time>2026-05-27T16:15:03.000Z</time></trkpt>
        <trkpt lat="29.503457" lon="103.30849"><ele>2505.218</ele><time>2026-05-27T16:15:13.000Z</time></trkpt>
        <trkpt lat="29.503456" lon="103.308543"><ele>2506.9756</ele><time>2026-05-27T16:20:47.000Z</time></trkpt>
        <trkpt lat="29.503492" lon="103.308581"><ele>2507.7837</ele><time>2026-05-27T16:20:59.000Z</time></trkpt>
        <trkpt lat="29.503519" lon="103.308627"><ele>2509.4136</ele><time>2026-05-27T16:21:11.000Z</time></trkpt>
        <trkpt lat="29.503527" lon="103.30868"><ele>2511.894</ele><time>2026-05-27T16:21:25.000Z</time></trkpt>
        <trkpt lat="29.503532" lon="103.308734"><ele>2513.9482</ele><time>2026-05-27T16:21:36.000Z</time></trkpt>
        <trkpt lat="29.503542" lon="103.308786"><ele>2513.208</ele><time>2026-05-27T16:21:47.000Z</time></trkpt>
        <trkpt lat="29.503552" lon="103.308838"><ele>2517.529</ele><time>2026-05-27T16:22:03.000Z</time></trkpt>
        <trkpt lat="29.503561" lon="103.308899"><ele>2517.6196</ele><time>2026-05-27T16:22:17.000Z</time></trkpt>
        <trkpt lat="29.503536" lon="103.308954"><ele>2522.3777</ele><time>2026-05-27T16:22:43.000Z</time></trkpt>
        <trkpt lat="29.503532" lon="103.309006"><ele>2522.9722</ele><time>2026-05-27T16:22:54.000Z</time></trkpt>
        <trkpt lat="29.503531" lon="103.309058"><ele>2526.1372</ele><time>2026-05-27T16:23:08.000Z</time></trkpt>
        <trkpt lat="29.503529" lon="103.30911"><ele>2528.1655</ele><time>2026-05-27T16:23:23.000Z</time></trkpt>
        <trkpt lat="29.503529" lon="103.309168"><ele>2532.5068</ele><time>2026-05-27T16:23:44.000Z</time></trkpt>
        <trkpt lat="29.503526" lon="103.309224"><ele>2534.8906</ele><time>2026-05-27T16:24:00.000Z</time></trkpt>
        <trkpt lat="29.503525" lon="103.30928"><ele>2533.476</ele><time>2026-05-27T16:24:06.000Z</time></trkpt>
        <trkpt lat="29.503519" lon="103.309334"><ele>2534.831</ele><time>2026-05-27T16:24:17.000Z</time></trkpt>
        <trkpt lat="29.503515" lon="103.30939"><ele>2534.0654</ele><time>2026-05-27T16:24:25.000Z</time></trkpt>
        <trkpt lat="29.503536" lon="103.30944"><ele>2536.7766</ele><time>2026-05-27T16:25:59.000Z</time></trkpt>
        <trkpt lat="29.503524" lon="103.309491"><ele>2536.9163</ele><time>2026-05-27T16:26:11.000Z</time></trkpt>
        <trkpt lat="29.503503" lon="103.30954"><ele>2538.9414</ele><time>2026-05-27T16:26:41.000Z</time></trkpt>
        <trkpt lat="29.503496" lon="103.309595"><ele>2540.5295</ele><time>2026-05-27T16:26:53.000Z</time></trkpt>
        <trkpt lat="29.5035" lon="103.309653"><ele>2542.4548</ele><time>2026-05-27T16:27:09.000Z</time></trkpt>
        <trkpt lat="29.503455" lon="103.309637"><ele>2548.0103</ele><time>2026-05-27T16:31:48.000Z</time></trkpt>
        <trkpt lat="29.503434" lon="103.309684"><ele>2549.3247</ele><time>2026-05-27T16:32:01.000Z</time></trkpt>
        <trkpt lat="29.503436" lon="103.309741"><ele>2549.9868</ele><time>2026-05-27T16:32:07.000Z</time></trkpt>
        <trkpt lat="29.503401" lon="103.309777"><ele>2552.9207</ele><time>2026-05-27T16:32:30.000Z</time></trkpt>
        <trkpt lat="29.50336" lon="103.309804"><ele>2559.6338</ele><time>2026-05-27T16:32:55.000Z</time></trkpt>
        <trkpt lat="29.503344" lon="103.309857"><ele>2559.36</ele><time>2026-05-27T16:33:05.000Z</time></trkpt>
        <trkpt lat="29.503345" lon="103.309923"><ele>2558.4998</ele><time>2026-05-27T16:33:16.000Z</time></trkpt>
        <trkpt lat="29.503376" lon="103.309967"><ele>2558.2178</ele><time>2026-05-27T16:33:25.000Z</time></trkpt>
        <trkpt lat="29.50339" lon="103.310018"><ele>2561.0542</ele><time>2026-05-27T16:33:31.000Z</time></trkpt>
        <trkpt lat="29.503401" lon="103.310074"><ele>2560.425</ele><time>2026-05-27T16:33:39.000Z</time></trkpt>
        <trkpt lat="29.50339" lon="103.310129"><ele>2559.963</ele><time>2026-05-27T16:33:45.000Z</time></trkpt>
        <trkpt lat="29.503371" lon="103.310176"><ele>2558.3203</ele><time>2026-05-27T16:33:52.000Z</time></trkpt>
        <trkpt lat="29.503339" lon="103.310213"><ele>2555.7478</ele><time>2026-05-27T16:33:57.000Z</time></trkpt>
        <trkpt lat="29.503373" lon="103.310255"><ele>2565.6855</ele><time>2026-05-27T16:34:08.000Z</time></trkpt>
        <trkpt lat="29.503377" lon="103.310314"><ele>2563.9136</ele><time>2026-05-27T16:34:13.000Z</time></trkpt>
        <trkpt lat="29.503404" lon="103.310356"><ele>2565.5725</ele><time>2026-05-27T16:34:21.000Z</time></trkpt>
        <trkpt lat="29.503437" lon="103.310397"><ele>2570.8926</ele><time>2026-05-27T16:34:38.000Z</time></trkpt>
        <trkpt lat="29.503464" lon="103.31044"><ele>2570.4958</ele><time>2026-05-27T16:34:47.000Z</time></trkpt>
        <trkpt lat="29.503495" lon="103.310481"><ele>2569.6555</ele><time>2026-05-27T16:34:58.000Z</time></trkpt>
        <trkpt lat="29.503514" lon="103.310532"><ele>2571.1382</ele><time>2026-05-27T16:35:07.000Z</time></trkpt>
        <trkpt lat="29.503497" lon="103.310583"><ele>2570.5698</ele><time>2026-05-27T16:35:21.000Z</time></trkpt>
        <trkpt lat="29.503538" lon="103.310613"><ele>2572.949</ele><time>2026-05-27T16:35:35.000Z</time></trkpt>
        <trkpt lat="29.503511" lon="103.310657"><ele>2573.396</ele><time>2026-05-27T16:35:49.000Z</time></trkpt>
        <trkpt lat="29.503517" lon="103.310709"><ele>2576.2239</ele><time>2026-05-27T16:35:59.000Z</time></trkpt>
        <trkpt lat="29.503501" lon="103.310765"><ele>2578.4768</ele><time>2026-05-27T16:36:12.000Z</time></trkpt>
        <trkpt lat="29.503469" lon="103.310802"><ele>2583.8496</ele><time>2026-05-27T16:36:37.000Z</time></trkpt>
        <trkpt lat="29.503425" lon="103.310825"><ele>2590.839</ele><time>2026-05-27T16:37:02.000Z</time></trkpt>
        <trkpt lat="29.503377" lon="103.31083"><ele>2590.652</ele><time>2026-05-27T16:37:16.000Z</time></trkpt>
        <trkpt lat="29.503338" lon="103.310861"><ele>2593.2603</ele><time>2026-05-27T16:37:29.000Z</time></trkpt>
        <trkpt lat="29.503309" lon="103.310903"><ele>2593.9333</ele><time>2026-05-27T16:37:38.000Z</time></trkpt>
        <trkpt lat="29.503266" lon="103.310934"><ele>2597.101</ele><time>2026-05-27T16:37:54.000Z</time></trkpt>
        <trkpt lat="29.503229" lon="103.310963"><ele>2602.1863</ele><time>2026-05-27T16:38:14.000Z</time></trkpt>
        <trkpt lat="29.503188" lon="103.310993"><ele>2603.057</ele><time>2026-05-27T16:38:27.000Z</time></trkpt>
        <trkpt lat="29.503152" lon="103.31103"><ele>2602.9502</ele><time>2026-05-27T16:38:50.000Z</time></trkpt>
        <trkpt lat="29.503115" lon="103.311061"><ele>2606.5105</ele><time>2026-05-27T16:39:05.000Z</time></trkpt>
        <trkpt lat="29.503078" lon="103.311094"><ele>2609.7056</ele><time>2026-05-27T16:39:15.000Z</time></trkpt>
        <trkpt lat="29.503072" lon="103.311147"><ele>2607.9124</ele><time>2026-05-27T16:39:24.000Z</time></trkpt>
        <trkpt lat="29.503048" lon="103.311192"><ele>2613.0051</ele><time>2026-05-27T16:39:40.000Z</time></trkpt>
        <trkpt lat="29.503036" lon="103.311244"><ele>2613.8982</ele><time>2026-05-27T16:39:57.000Z</time></trkpt>
        <trkpt lat="29.503005" lon="103.311287"><ele>2620.4666</ele><time>2026-05-27T16:40:33.000Z</time></trkpt>
        <trkpt lat="29.502986" lon="103.311335"><ele>2622.6172</ele><time>2026-05-27T16:40:46.000Z</time></trkpt>
        <trkpt lat="29.502978" lon="103.311387"><ele>2621.7178</ele><time>2026-05-27T16:40:58.000Z</time></trkpt>
        <trkpt lat="29.502951" lon="103.311434"><ele>2624.9666</ele><time>2026-05-27T16:41:18.000Z</time></trkpt>
        <trkpt lat="29.502948" lon="103.311501"><ele>2625.3423</ele><time>2026-05-27T16:41:34.000Z</time></trkpt>
        <trkpt lat="29.502888" lon="103.311545"><ele>2628.6045</ele><time>2026-05-27T16:41:51.000Z</time></trkpt>
        <trkpt lat="29.502876" lon="103.311596"><ele>2633.5044</ele><time>2026-05-27T16:42:43.000Z</time></trkpt>
        <trkpt lat="29.502869" lon="103.311649"><ele>2635.3975</ele><time>2026-05-27T16:43:40.000Z</time></trkpt>
        <trkpt lat="29.502854" lon="103.311701"><ele>2635.2434</ele><time>2026-05-27T16:43:53.000Z</time></trkpt>
        <trkpt lat="29.502869" lon="103.311751"><ele>2635.0352</ele><time>2026-05-27T16:44:24.000Z</time></trkpt>
        <trkpt lat="29.502861" lon="103.311804"><ele>2638.6301</ele><time>2026-05-27T16:44:48.000Z</time></trkpt>
        <trkpt lat="29.502848" lon="103.311858"><ele>2641.1208</ele><time>2026-05-27T16:45:01.000Z</time></trkpt>
        <trkpt lat="29.502842" lon="103.311909"><ele>2645.2634</ele><time>2026-05-27T16:45:14.000Z</time></trkpt>
        <trkpt lat="29.502853" lon="103.311963"><ele>2646.55</ele><time>2026-05-27T16:45:24.000Z</time></trkpt>
        <trkpt lat="29.502857" lon="103.312017"><ele>2645.2654</ele><time>2026-05-27T16:45:29.000Z</time></trkpt>
        <trkpt lat="29.502875" lon="103.312064"><ele>2646.9001</ele><time>2026-05-27T16:45:39.000Z</time></trkpt>
        <trkpt lat="29.502857" lon="103.312113"><ele>2648.0361</ele><time>2026-05-27T16:45:47.000Z</time></trkpt>
        <trkpt lat="29.502864" lon="103.312168"><ele>2652.9202</ele><time>2026-05-27T16:46:11.000Z</time></trkpt>
        <trkpt lat="29.502831" lon="103.312204"><ele>2653.293</ele><time>2026-05-27T16:46:31.000Z</time></trkpt>
        <trkpt lat="29.502817" lon="103.312255"><ele>2655.602</ele><time>2026-05-27T16:46:43.000Z</time></trkpt>
        <trkpt lat="29.502798" lon="103.312305"><ele>2654.3154</ele><time>2026-05-27T16:46:52.000Z</time></trkpt>
        <trkpt lat="29.502767" lon="103.312349"><ele>2654.0952</ele><time>2026-05-27T16:46:59.000Z</time></trkpt>
        <trkpt lat="29.502771" lon="103.312406"><ele>2656.1897</ele><time>2026-05-27T16:47:04.000Z</time></trkpt>
        <trkpt lat="29.50277" lon="103.312458"><ele>2658.3315</ele><time>2026-05-27T16:47:14.000Z</time></trkpt>
        <trkpt lat="29.502763" lon="103.31251"><ele>2659.8806</ele><time>2026-05-27T16:47:24.000Z</time></trkpt>
        <trkpt lat="29.502766" lon="103.312565"><ele>2660.815</ele><time>2026-05-27T16:47:46.000Z</time></trkpt>
        <trkpt lat="29.502748" lon="103.312631"><ele>2661.9995</ele><time>2026-05-27T16:47:56.000Z</time></trkpt>
        <trkpt lat="29.502757" lon="103.312684"><ele>2662.3723</ele><time>2026-05-27T16:48:03.000Z</time></trkpt>
        <trkpt lat="29.502773" lon="103.312737"><ele>2666.4165</ele><time>2026-05-27T16:48:17.000Z</time></trkpt>
        <trkpt lat="29.50276" lon="103.312788"><ele>2665.0562</ele><time>2026-05-27T16:48:26.000Z</time></trkpt>
        <trkpt lat="29.502773" lon="103.312841"><ele>2668.0554</ele><time>2026-05-27T16:48:34.000Z</time></trkpt>
        <trkpt lat="29.502784" lon="103.312899"><ele>2665.3633</ele><time>2026-05-27T16:48:44.000Z</time></trkpt>
        <trkpt lat="29.50278" lon="103.312955"><ele>2663.9146</ele><time>2026-05-27T16:48:51.000Z</time></trkpt>
        <trkpt lat="29.502806" lon="103.313006"><ele>2668.971</ele><time>2026-05-27T16:49:02.000Z</time></trkpt>
        <trkpt lat="29.502809" lon="103.31306"><ele>2671.6157</ele><time>2026-05-27T16:49:23.000Z</time></trkpt>
        <trkpt lat="29.502847" lon="103.313101"><ele>2672.2834</ele><time>2026-05-27T16:49:39.000Z</time></trkpt>
        <trkpt lat="29.5029" lon="103.313106"><ele>2681.873</ele><time>2026-05-27T16:49:53.000Z</time></trkpt>
        <trkpt lat="29.502944" lon="103.313129"><ele>2678.5144</ele><time>2026-05-27T16:50:02.000Z</time></trkpt>
        <trkpt lat="29.502987" lon="103.313149"><ele>2677.9604</ele><time>2026-05-27T16:50:20.000Z</time></trkpt>
        <trkpt lat="29.503039" lon="103.313148"><ele>2680.853</ele><time>2026-05-27T16:50:35.000Z</time></trkpt>
        <trkpt lat="29.503083" lon="103.31316"><ele>2680.4934</ele><time>2026-05-27T16:50:56.000Z</time></trkpt>
        <trkpt lat="29.503113" lon="103.313202"><ele>2685.622</ele><time>2026-05-27T16:51:14.000Z</time></trkpt>
        <trkpt lat="29.503154" lon="103.313229"><ele>2685.7341</ele><time>2026-05-27T16:51:29.000Z</time></trkpt>
        <trkpt lat="29.503198" lon="103.313216"><ele>2680.673</ele><time>2026-05-27T16:52:24.000Z</time></trkpt>
        <trkpt lat="29.503168" lon="103.313257"><ele>2681.3008</ele><time>2026-05-27T16:52:59.000Z</time></trkpt>
        <trkpt lat="29.503202" lon="103.313214"><ele>2680.5254</ele><time>2026-05-27T16:54:34.000Z</time></trkpt>
        <trkpt lat="29.503194" lon="103.313267"><ele>2684.1199</ele><time>2026-05-27T16:59:05.000Z</time></trkpt>
        <trkpt lat="29.503185" lon="103.313326"><ele>2687.7751</ele><time>2026-05-27T16:59:14.000Z</time></trkpt>
        <trkpt lat="29.503206" lon="103.313378"><ele>2688.28</ele><time>2026-05-27T16:59:22.000Z</time></trkpt>
        <trkpt lat="29.503219" lon="103.313428"><ele>2689.516</ele><time>2026-05-27T16:59:27.000Z</time></trkpt>
        <trkpt lat="29.503228" lon="103.313493"><ele>2689.7207</ele><time>2026-05-27T16:59:34.000Z</time></trkpt>
        <trkpt lat="29.503245" lon="103.313544"><ele>2690.4941</ele><time>2026-05-27T16:59:45.000Z</time></trkpt>
        <trkpt lat="29.503239" lon="103.313595"><ele>2694.618</ele><time>2026-05-27T16:59:54.000Z</time></trkpt>
        <trkpt lat="29.503238" lon="103.313654"><ele>2692.7856</ele><time>2026-05-27T17:00:03.000Z</time></trkpt>
        <trkpt lat="29.503239" lon="103.313709"><ele>2693.8826</ele><time>2026-05-27T17:00:12.000Z</time></trkpt>
        <trkpt lat="29.503233" lon="103.313773"><ele>2695.9963</ele><time>2026-05-27T17:00:34.000Z</time></trkpt>
        <trkpt lat="29.503223" lon="103.313825"><ele>2700.185</ele><time>2026-05-27T17:00:48.000Z</time></trkpt>
        <trkpt lat="29.503241" lon="103.31388"><ele>2702.1802</ele><time>2026-05-27T17:01:00.000Z</time></trkpt>
        <trkpt lat="29.503256" lon="103.313932"><ele>2708.7083</ele><time>2026-05-27T17:01:17.000Z</time></trkpt>
        <trkpt lat="29.50328" lon="103.313978"><ele>2708.7498</ele><time>2026-05-27T17:01:34.000Z</time></trkpt>
        <trkpt lat="29.503281" lon="103.314032"><ele>2708.8708</ele><time>2026-05-27T17:01:43.000Z</time></trkpt>
        <trkpt lat="29.503288" lon="103.314089"><ele>2710.204</ele><time>2026-05-27T17:01:55.000Z</time></trkpt>
        <trkpt lat="29.503311" lon="103.314141"><ele>2711.4622</ele><time>2026-05-27T17:02:12.000Z</time></trkpt>
        <trkpt lat="29.503318" lon="103.314197"><ele>2709.873</ele><time>2026-05-27T17:02:21.000Z</time></trkpt>
        <trkpt lat="29.503337" lon="103.314245"><ele>2713.282</ele><time>2026-05-27T17:02:36.000Z</time></trkpt>
        <trkpt lat="29.503378" lon="103.314272"><ele>2712.9934</ele><time>2026-05-27T17:02:48.000Z</time></trkpt>
        <trkpt lat="29.503422" lon="103.314288"><ele>2717.446</ele><time>2026-05-27T17:03:23.000Z</time></trkpt>
        <trkpt lat="29.50345" lon="103.314333"><ele>2716.4724</ele><time>2026-05-27T17:03:33.000Z</time></trkpt>
        <trkpt lat="29.50347" lon="103.31439"><ele>2715.5764</ele><time>2026-05-27T17:03:39.000Z</time></trkpt>
        <trkpt lat="29.503487" lon="103.31444"><ele>2716.4749</ele><time>2026-05-27T17:03:51.000Z</time></trkpt>
        <trkpt lat="29.503487" lon="103.314493"><ele>2716.5105</ele><time>2026-05-27T17:04:17.000Z</time></trkpt>
        <trkpt lat="29.503462" lon="103.314541"><ele>2717.316</ele><time>2026-05-27T17:04:26.000Z</time></trkpt>
        <trkpt lat="29.503467" lon="103.314595"><ele>2716.0522</ele><time>2026-05-27T17:04:32.000Z</time></trkpt>
        <trkpt lat="29.50347" lon="103.31465"><ele>2715.6692</ele><time>2026-05-27T17:04:38.000Z</time></trkpt>
        <trkpt lat="29.503492" lon="103.314703"><ele>2715.8755</ele><time>2026-05-27T17:04:43.000Z</time></trkpt>
        <trkpt lat="29.503509" lon="103.314754"><ele>2720.005</ele><time>2026-05-27T17:04:55.000Z</time></trkpt>
        <trkpt lat="29.503521" lon="103.314807"><ele>2720.1685</ele><time>2026-05-27T17:05:02.000Z</time></trkpt>
        <trkpt lat="29.503543" lon="103.314859"><ele>2717.8403</ele><time>2026-05-27T17:05:08.000Z</time></trkpt>
        <trkpt lat="29.503565" lon="103.314905"><ele>2719.1458</ele><time>2026-05-27T17:05:16.000Z</time></trkpt>
        <trkpt lat="29.503601" lon="103.314943"><ele>2723.1367</ele><time>2026-05-27T17:05:29.000Z</time></trkpt>
        <trkpt lat="29.503648" lon="103.314967"><ele>2722.7644</ele><time>2026-05-27T17:05:37.000Z</time></trkpt>
        <trkpt lat="29.50369" lon="103.314984"><ele>2724.696</ele><time>2026-05-27T17:05:46.000Z</time></trkpt>
        <trkpt lat="29.503736" lon="103.314994"><ele>2725.3972</ele><time>2026-05-27T17:05:52.000Z</time></trkpt>
        <trkpt lat="29.503781" lon="103.315012"><ele>2725.5203</ele><time>2026-05-27T17:06:10.000Z</time></trkpt>
        <trkpt lat="29.503803" lon="103.31506"><ele>2723.9802</ele><time>2026-05-27T17:06:22.000Z</time></trkpt>
        <trkpt lat="29.50384" lon="103.315095"><ele>2725.7546</ele><time>2026-05-27T17:06:34.000Z</time></trkpt>
        <trkpt lat="29.503883" lon="103.315122"><ele>2727.7334</ele><time>2026-05-27T17:06:45.000Z</time></trkpt>
        <trkpt lat="29.503932" lon="103.315126"><ele>2726.7473</ele><time>2026-05-27T17:07:19.000Z</time></trkpt>
        <trkpt lat="29.503972" lon="103.315154"><ele>2726.8948</ele><time>2026-05-27T17:08:10.000Z</time></trkpt>
        <trkpt lat="29.504015" lon="103.315173"><ele>2727.431</ele><time>2026-05-27T17:08:23.000Z</time></trkpt>
        <trkpt lat="29.504057" lon="103.315214"><ele>2727.975</ele><time>2026-05-27T17:08:34.000Z</time></trkpt>
        <trkpt lat="29.50409" lon="103.315257"><ele>2729.08</ele><time>2026-05-27T17:08:41.000Z</time></trkpt>
        <trkpt lat="29.504125" lon="103.315291"><ele>2732.4004</ele><time>2026-05-27T17:08:49.000Z</time></trkpt>
        <trkpt lat="29.504137" lon="103.315343"><ele>2733.0408</ele><time>2026-05-27T17:08:56.000Z</time></trkpt>
        <trkpt lat="29.504154" lon="103.315396"><ele>2730.34</ele><time>2026-05-27T17:09:07.000Z</time></trkpt>
        <trkpt lat="29.504181" lon="103.315438"><ele>2731.4827</ele><time>2026-05-27T17:09:15.000Z</time></trkpt>
        <trkpt lat="29.504212" lon="103.315487"><ele>2732.6477</ele><time>2026-05-27T17:09:22.000Z</time></trkpt>
        <trkpt lat="29.504253" lon="103.315508"><ele>2731.7163</ele><time>2026-05-27T17:09:28.000Z</time></trkpt>
        <trkpt lat="29.504281" lon="103.31555"><ele>2731.6543</ele><time>2026-05-27T17:09:33.000Z</time></trkpt>
        <trkpt lat="29.50429" lon="103.315608"><ele>2731.5276</ele><time>2026-05-27T17:09:42.000Z</time></trkpt>
        <trkpt lat="29.504312" lon="103.315663"><ele>2728.8188</ele><time>2026-05-27T17:09:57.000Z</time></trkpt>
        <trkpt lat="29.50433" lon="103.315715"><ele>2724.38</ele><time>2026-05-27T17:10:11.000Z</time></trkpt>
        <trkpt lat="29.504339" lon="103.315768"><ele>2724.4902</ele><time>2026-05-27T17:10:22.000Z</time></trkpt>
        <trkpt lat="29.504365" lon="103.315813"><ele>2723.0508</ele><time>2026-05-27T17:10:33.000Z</time></trkpt>
        <trkpt lat="29.504396" lon="103.315851"><ele>2720.4065</ele><time>2026-05-27T17:10:46.000Z</time></trkpt>
        <trkpt lat="29.504421" lon="103.315896"><ele>2717.7896</ele><time>2026-05-27T17:10:58.000Z</time></trkpt>
        <trkpt lat="29.504449" lon="103.315942"><ele>2716.382</ele><time>2026-05-27T17:11:06.000Z</time></trkpt>
        <trkpt lat="29.504474" lon="103.315986"><ele>2716.9783</ele><time>2026-05-27T17:11:12.000Z</time></trkpt>
        <trkpt lat="29.504474" lon="103.316041"><ele>2714.6135</ele><time>2026-05-27T17:11:18.000Z</time></trkpt>
        <trkpt lat="29.504505" lon="103.316082"><ele>2716.6426</ele><time>2026-05-27T17:11:24.000Z</time></trkpt>
        <trkpt lat="29.504526" lon="103.316129"><ele>2718.7532</ele><time>2026-05-27T17:11:32.000Z</time></trkpt>
        <trkpt lat="29.504565" lon="103.316157"><ele>2719.4255</ele><time>2026-05-27T17:11:39.000Z</time></trkpt>
        <trkpt lat="29.50461" lon="103.316187"><ele>2718.441</ele><time>2026-05-27T17:11:50.000Z</time></trkpt>
        <trkpt lat="29.504656" lon="103.316222"><ele>2721.371</ele><time>2026-05-27T17:12:03.000Z</time></trkpt>
        <trkpt lat="29.504695" lon="103.316255"><ele>2723.6843</ele><time>2026-05-27T17:12:15.000Z</time></trkpt>
        <trkpt lat="29.504736" lon="103.316277"><ele>2724.7446</ele><time>2026-05-27T17:12:26.000Z</time></trkpt>
        <trkpt lat="29.504778" lon="103.316318"><ele>2726.0347</ele><time>2026-05-27T17:12:46.000Z</time></trkpt>
        <trkpt lat="29.504814" lon="103.31635"><ele>2728.0967</ele><time>2026-05-27T17:13:00.000Z</time></trkpt>
        <trkpt lat="29.504857" lon="103.316378"><ele>2730.2854</ele><time>2026-05-27T17:13:22.000Z</time></trkpt>
        <trkpt lat="29.504903" lon="103.316385"><ele>2731.3655</ele><time>2026-05-27T17:13:38.000Z</time></trkpt>
        <trkpt lat="29.504949" lon="103.316412"><ele>2734.8108</ele><time>2026-05-27T17:13:53.000Z</time></trkpt>
        <trkpt lat="29.504996" lon="103.316401"><ele>2735.4402</ele><time>2026-05-27T17:14:23.000Z</time></trkpt>
        <trkpt lat="29.505033" lon="103.31637"><ele>2733.8157</ele><time>2026-05-27T17:15:14.000Z</time></trkpt>
        <trkpt lat="29.505068" lon="103.316405"><ele>2735.1958</ele><time>2026-05-27T17:15:45.000Z</time></trkpt>
        <trkpt lat="29.505102" lon="103.31644"><ele>2738.6384</ele><time>2026-05-27T17:15:58.000Z</time></trkpt>
        <trkpt lat="29.505143" lon="103.316464"><ele>2741.9746</ele><time>2026-05-27T17:16:08.000Z</time></trkpt>
        <trkpt lat="29.505182" lon="103.316492"><ele>2743.5447</ele><time>2026-05-27T17:16:16.000Z</time></trkpt>
        <trkpt lat="29.505226" lon="103.316525"><ele>2745.1072</ele><time>2026-05-27T17:16:23.000Z</time></trkpt>
        <trkpt lat="29.505253" lon="103.316576"><ele>2747.5505</ele><time>2026-05-27T17:18:51.000Z</time></trkpt>
        <trkpt lat="29.505266" lon="103.316629"><ele>2750.6555</ele><time>2026-05-27T17:19:04.000Z</time></trkpt>
        <trkpt lat="29.505282" lon="103.316678"><ele>2751.719</ele><time>2026-05-27T17:19:18.000Z</time></trkpt>
        <trkpt lat="29.505313" lon="103.31672"><ele>2752.8499</ele><time>2026-05-27T17:19:29.000Z</time></trkpt>
        <trkpt lat="29.505328" lon="103.316769"><ele>2755.236</ele><time>2026-05-27T17:19:45.000Z</time></trkpt>
        <trkpt lat="29.505307" lon="103.316817"><ele>2759.0347</ele><time>2026-05-27T17:20:27.000Z</time></trkpt>
        <trkpt lat="29.505302" lon="103.316876"><ele>2759.807</ele><time>2026-05-27T17:20:38.000Z</time></trkpt>
        <trkpt lat="29.505316" lon="103.316925"><ele>2760.545</ele><time>2026-05-27T17:20:48.000Z</time></trkpt>
        <trkpt lat="29.505356" lon="103.316952"><ele>2761.8677</ele><time>2026-05-27T17:21:41.000Z</time></trkpt>
        <trkpt lat="29.505365" lon="103.317004"><ele>2762.641</ele><time>2026-05-27T17:21:54.000Z</time></trkpt>
        <trkpt lat="29.505378" lon="103.317055"><ele>2760.8647</ele><time>2026-05-27T17:22:30.000Z</time></trkpt>
        <trkpt lat="29.505367" lon="103.317111"><ele>2762.1265</ele><time>2026-05-27T17:23:07.000Z</time></trkpt>
        <trkpt lat="29.505335" lon="103.317149"><ele>2766.9822</ele><time>2026-05-27T17:23:45.000Z</time></trkpt>
        <trkpt lat="29.505299" lon="103.317189"><ele>2771.6838</ele><time>2026-05-27T17:23:56.000Z</time></trkpt>
        <trkpt lat="29.505263" lon="103.317227"><ele>2773.998</ele><time>2026-05-27T17:24:19.000Z</time></trkpt>
        <trkpt lat="29.505249" lon="103.317276"><ele>2773.371</ele><time>2026-05-27T17:24:31.000Z</time></trkpt>
        <trkpt lat="29.505219" lon="103.317316"><ele>2777.1453</ele><time>2026-05-27T17:24:45.000Z</time></trkpt>
        <trkpt lat="29.505203" lon="103.317365"><ele>2781.9578</ele><time>2026-05-27T17:25:04.000Z</time></trkpt>
        <trkpt lat="29.505195" lon="103.317418"><ele>2784.4294</ele><time>2026-05-27T17:25:22.000Z</time></trkpt>
        <trkpt lat="29.505191" lon="103.317472"><ele>2784.6707</ele><time>2026-05-27T17:25:35.000Z</time></trkpt>
        <trkpt lat="29.505185" lon="103.317525"><ele>2786.2366</ele><time>2026-05-27T17:25:47.000Z</time></trkpt>
        <trkpt lat="29.505193" lon="103.317582"><ele>2788.1025</ele><time>2026-05-27T17:26:05.000Z</time></trkpt>
        <trkpt lat="29.5052" lon="103.317633"><ele>2788.0293</ele><time>2026-05-27T17:26:17.000Z</time></trkpt>
        <trkpt lat="29.505207" lon="103.317686"><ele>2789.275</ele><time>2026-05-27T17:26:32.000Z</time></trkpt>
        <trkpt lat="29.505219" lon="103.317739"><ele>2791.5886</ele><time>2026-05-27T17:26:43.000Z</time></trkpt>
        <trkpt lat="29.50523" lon="103.317797"><ele>2792.921</ele><time>2026-05-27T17:26:55.000Z</time></trkpt>
        <trkpt lat="29.505248" lon="103.317857"><ele>2793.3594</ele><time>2026-05-27T17:27:01.000Z</time></trkpt>
        <trkpt lat="29.505272" lon="103.317909"><ele>2791.446</ele><time>2026-05-27T17:27:10.000Z</time></trkpt>
        <trkpt lat="29.505254" lon="103.31796"><ele>2792.5947</ele><time>2026-05-27T17:27:28.000Z</time></trkpt>
        <trkpt lat="29.505246" lon="103.318019"><ele>2794.752</ele><time>2026-05-27T17:27:39.000Z</time></trkpt>
        <trkpt lat="29.505253" lon="103.318072"><ele>2798.3828</ele><time>2026-05-27T17:27:52.000Z</time></trkpt>
        <trkpt lat="29.50525" lon="103.31813"><ele>2799.2798</ele><time>2026-05-27T17:28:01.000Z</time></trkpt>
        <trkpt lat="29.505257" lon="103.318185"><ele>2798.164</ele><time>2026-05-27T17:28:10.000Z</time></trkpt>
        <trkpt lat="29.505276" lon="103.318234"><ele>2802.9023</ele><time>2026-05-27T17:28:22.000Z</time></trkpt>
        <trkpt lat="29.505286" lon="103.318288"><ele>2804.003</ele><time>2026-05-27T17:28:34.000Z</time></trkpt>
        <trkpt lat="29.505304" lon="103.318339"><ele>2804.0964</ele><time>2026-05-27T17:28:47.000Z</time></trkpt>
        <trkpt lat="29.505317" lon="103.318391"><ele>2810.0513</ele><time>2026-05-27T17:29:01.000Z</time></trkpt>
        <trkpt lat="29.505355" lon="103.318423"><ele>2812.4846</ele><time>2026-05-27T17:29:14.000Z</time></trkpt>
        <trkpt lat="29.505401" lon="103.318437"><ele>2810.351</ele><time>2026-05-27T17:29:45.000Z</time></trkpt>
        <trkpt lat="29.505422" lon="103.318488"><ele>2809.8774</ele><time>2026-05-27T17:30:00.000Z</time></trkpt>
        <trkpt lat="29.505467" lon="103.318497"><ele>2816.6274</ele><time>2026-05-27T17:30:15.000Z</time></trkpt>
        <trkpt lat="29.505511" lon="103.318526"><ele>2813.9653</ele><time>2026-05-27T17:30:20.000Z</time></trkpt>
        <trkpt lat="29.505547" lon="103.318568"><ele>2817.498</ele><time>2026-05-27T17:30:34.000Z</time></trkpt>
        <trkpt lat="29.505585" lon="103.318603"><ele>2819.209</ele><time>2026-05-27T17:30:51.000Z</time></trkpt>
        <trkpt lat="29.505601" lon="103.318654"><ele>2817.6724</ele><time>2026-05-27T17:31:04.000Z</time></trkpt>
        <trkpt lat="29.505628" lon="103.318709"><ele>2818.5083</ele><time>2026-05-27T17:31:12.000Z</time></trkpt>
        <trkpt lat="29.505668" lon="103.318749"><ele>2819.747</ele><time>2026-05-27T17:31:20.000Z</time></trkpt>
        <trkpt lat="29.505699" lon="103.318793"><ele>2820.6335</ele><time>2026-05-27T17:31:26.000Z</time></trkpt>
        <trkpt lat="29.505741" lon="103.318812"><ele>2818.738</ele><time>2026-05-27T17:31:32.000Z</time></trkpt>
        <trkpt lat="29.50575" lon="103.318866"><ele>2821.3054</ele><time>2026-05-27T17:31:45.000Z</time></trkpt>
        <trkpt lat="29.505775" lon="103.318916"><ele>2821.7168</ele><time>2026-05-27T17:31:52.000Z</time></trkpt>
        <trkpt lat="29.505801" lon="103.318965"><ele>2820.6865</ele><time>2026-05-27T17:32:04.000Z</time></trkpt>
        <trkpt lat="29.505842" lon="103.318998"><ele>2825.855</ele><time>2026-05-27T17:32:17.000Z</time></trkpt>
        <trkpt lat="29.505857" lon="103.319049"><ele>2825.439</ele><time>2026-05-27T17:32:27.000Z</time></trkpt>
        <trkpt lat="29.505893" lon="103.319091"><ele>2829.0703</ele><time>2026-05-27T17:32:47.000Z</time></trkpt>
        <trkpt lat="29.505901" lon="103.319146"><ele>2829.2307</ele><time>2026-05-27T17:32:56.000Z</time></trkpt>
        <trkpt lat="29.505915" lon="103.319197"><ele>2829.8757</ele><time>2026-05-27T17:33:05.000Z</time></trkpt>
        <trkpt lat="29.505935" lon="103.31925"><ele>2828.5166</ele><time>2026-05-27T17:33:13.000Z</time></trkpt>
        <trkpt lat="29.505972" lon="103.319281"><ele>2829.0654</ele><time>2026-05-27T17:33:21.000Z</time></trkpt>
        <trkpt lat="29.505988" lon="103.319337"><ele>2829.0386</ele><time>2026-05-27T17:33:32.000Z</time></trkpt>
        <trkpt lat="29.506008" lon="103.319387"><ele>2829.7666</ele><time>2026-05-27T17:33:42.000Z</time></trkpt>
        <trkpt lat="29.506007" lon="103.319446"><ele>2831.394</ele><time>2026-05-27T17:33:52.000Z</time></trkpt>
        <trkpt lat="29.506027" lon="103.319499"><ele>2832.059</ele><time>2026-05-27T17:33:58.000Z</time></trkpt>
        <trkpt lat="29.50604" lon="103.319549"><ele>2832.3328</ele><time>2026-05-27T17:34:03.000Z</time></trkpt>
        <trkpt lat="29.506029" lon="103.319604"><ele>2829.0198</ele><time>2026-05-27T17:34:12.000Z</time></trkpt>
        <trkpt lat="29.506041" lon="103.319654"><ele>2831.4497</ele><time>2026-05-27T17:34:18.000Z</time></trkpt>
        <trkpt lat="29.506053" lon="103.319708"><ele>2832.4697</ele><time>2026-05-27T17:34:24.000Z</time></trkpt>
        <trkpt lat="29.506059" lon="103.319761"><ele>2833.4749</ele><time>2026-05-27T17:34:30.000Z</time></trkpt>
        <trkpt lat="29.506072" lon="103.31982"><ele>2832.744</ele><time>2026-05-27T17:34:39.000Z</time></trkpt>
        <trkpt lat="29.506093" lon="103.319868"><ele>2832.5027</ele><time>2026-05-27T17:34:47.000Z</time></trkpt>
        <trkpt lat="29.506107" lon="103.319923"><ele>2829.7678</ele><time>2026-05-27T17:34:54.000Z</time></trkpt>
        <trkpt lat="29.506121" lon="103.319973"><ele>2831.5522</ele><time>2026-05-27T17:35:04.000Z</time></trkpt>
        <trkpt lat="29.50615" lon="103.320018"><ele>2831.7222</ele><time>2026-05-27T17:38:42.000Z</time></trkpt>
        <trkpt lat="29.506135" lon="103.320069"><ele>2833.9036</ele><time>2026-05-27T17:40:57.000Z</time></trkpt>
        <trkpt lat="29.506156" lon="103.320117"><ele>2834.4495</ele><time>2026-05-27T17:41:28.000Z</time></trkpt>
        <trkpt lat="29.506116" lon="103.320147"><ele>2835.8872</ele><time>2026-05-27T17:41:44.000Z</time></trkpt>
        <trkpt lat="29.506101" lon="103.320196"><ele>2838.112</ele><time>2026-05-27T17:42:02.000Z</time></trkpt>
        <trkpt lat="29.506087" lon="103.320253"><ele>2839.1233</ele><time>2026-05-27T17:42:14.000Z</time></trkpt>
        <trkpt lat="29.506041" lon="103.32027"><ele>2842.682</ele><time>2026-05-27T17:42:37.000Z</time></trkpt>
        <trkpt lat="29.506005" lon="103.320302"><ele>2842.602</ele><time>2026-05-27T17:42:48.000Z</time></trkpt>
        <trkpt lat="29.505973" lon="103.320341"><ele>2843.2485</ele><time>2026-05-27T17:42:57.000Z</time></trkpt>
        <trkpt lat="29.505953" lon="103.32039"><ele>2846.796</ele><time>2026-05-27T17:43:09.000Z</time></trkpt>
        <trkpt lat="29.505921" lon="103.320428"><ele>2847.8862</ele><time>2026-05-27T17:43:22.000Z</time></trkpt>
        <trkpt lat="29.505893" lon="103.320472"><ele>2851.351</ele><time>2026-05-27T17:43:39.000Z</time></trkpt>
        <trkpt lat="29.505855" lon="103.320501"><ele>2853.1777</ele><time>2026-05-27T17:43:56.000Z</time></trkpt>
        <trkpt lat="29.505834" lon="103.320547"><ele>2852.3853</ele><time>2026-05-27T17:44:04.000Z</time></trkpt>
        <trkpt lat="29.505822" lon="103.320601"><ele>2854.5605</ele><time>2026-05-27T17:44:12.000Z</time></trkpt>
        <trkpt lat="29.505848" lon="103.32065"><ele>2853.2407</ele><time>2026-05-27T17:44:24.000Z</time></trkpt>
        <trkpt lat="29.505863" lon="103.320702"><ele>2854.265</ele><time>2026-05-27T17:44:37.000Z</time></trkpt>
        <trkpt lat="29.505854" lon="103.320753"><ele>2856.7432</ele><time>2026-05-27T17:44:50.000Z</time></trkpt>
        <trkpt lat="29.505866" lon="103.320811"><ele>2857.8171</ele><time>2026-05-27T17:45:01.000Z</time></trkpt>
        <trkpt lat="29.505885" lon="103.32086"><ele>2859.502</ele><time>2026-05-27T17:45:36.000Z</time></trkpt>
        <trkpt lat="29.505876" lon="103.320912"><ele>2861.8574</ele><time>2026-05-27T17:45:47.000Z</time></trkpt>
        <trkpt lat="29.50589" lon="103.320964"><ele>2863.6968</ele><time>2026-05-27T17:45:58.000Z</time></trkpt>
        <trkpt lat="29.505907" lon="103.321016"><ele>2866.092</ele><time>2026-05-27T17:46:11.000Z</time></trkpt>
        <trkpt lat="29.50592" lon="103.321071"><ele>2864.509</ele><time>2026-05-27T17:46:20.000Z</time></trkpt>
        <trkpt lat="29.50593" lon="103.321124"><ele>2865.036</ele><time>2026-05-27T17:46:37.000Z</time></trkpt>
        <trkpt lat="29.505941" lon="103.321174"><ele>2865.8762</ele><time>2026-05-27T17:47:00.000Z</time></trkpt>
      </trkseg>
      <trkseg>
        <trkpt lat="29.505994" lon="103.321166"><ele>2862.6724</ele><time>2026-05-27T17:47:43.000Z</time></trkpt>
        <trkpt lat="29.505969" lon="103.321162"><ele>2863.3804</ele><time>2026-05-27T17:47:47.000Z</time></trkpt>
        <trkpt lat="29.505922" lon="103.321162"><ele>2868.1436</ele><time>2026-05-27T17:47:59.000Z</time></trkpt>
        <trkpt lat="29.505968" lon="103.321143"><ele>2867.7297</ele><time>2026-05-27T17:48:21.000Z</time></trkpt>
        <trkpt lat="29.506007" lon="103.321116"><ele>2872.412</ele><time>2026-05-27T17:49:12.000Z</time></trkpt>
        <trkpt lat="29.505963" lon="103.321128"><ele>2869.2625</ele><time>2026-05-27T17:49:46.000Z</time></trkpt>
        <trkpt lat="29.505918" lon="103.321156"><ele>2866.9797</ele><time>2026-05-27T17:50:36.000Z</time></trkpt>
        <trkpt lat="29.505907" lon="103.32121"><ele>2869.238</ele><time>2026-05-27T17:50:49.000Z</time></trkpt>
        <trkpt lat="29.505908" lon="103.321263"><ele>2870.965</ele><time>2026-05-27T17:51:02.000Z</time></trkpt>
        <trkpt lat="29.505909" lon="103.321324"><ele>2874.4207</ele><time>2026-05-27T17:51:31.000Z</time></trkpt>
        <trkpt lat="29.505924" lon="103.321377"><ele>2876.8923</ele><time>2026-05-27T17:51:47.000Z</time></trkpt>
        <trkpt lat="29.505961" lon="103.321411"><ele>2881.113</ele><time>2026-05-27T17:52:01.000Z</time></trkpt>
        <trkpt lat="29.506001" lon="103.321442"><ele>2880.2515</ele><time>2026-05-27T17:52:27.000Z</time></trkpt>
        <trkpt lat="29.506024" lon="103.321489"><ele>2887.0115</ele><time>2026-05-27T17:53:08.000Z</time></trkpt>
        <trkpt lat="29.505985" lon="103.321519"><ele>2885.7673</ele><time>2026-05-27T17:53:31.000Z</time></trkpt>
        <trkpt lat="29.50601" lon="103.321568"><ele>2888.2175</ele><time>2026-05-27T17:53:46.000Z</time></trkpt>
        <trkpt lat="29.506051" lon="103.321596"><ele>2887.0464</ele><time>2026-05-27T17:53:54.000Z</time></trkpt>
        <trkpt lat="29.506038" lon="103.321647"><ele>2894.294</ele><time>2026-05-27T17:54:20.000Z</time></trkpt>
        <trkpt lat="29.506084" lon="103.321657"><ele>2896.202</ele><time>2026-05-27T17:54:51.000Z</time></trkpt>
        <trkpt lat="29.506067" lon="103.321705"><ele>2897.8928</ele><time>2026-05-27T17:55:39.000Z</time></trkpt>
        <trkpt lat="29.50606" lon="103.321758"><ele>2899.0986</ele><time>2026-05-27T17:55:53.000Z</time></trkpt>
        <trkpt lat="29.506081" lon="103.321804"><ele>2902.816</ele><time>2026-05-27T17:56:12.000Z</time></trkpt>
        <trkpt lat="29.506104" lon="103.321857"><ele>2905.6672</ele><time>2026-05-27T17:56:32.000Z</time></trkpt>
        <trkpt lat="29.506145" lon="103.321884"><ele>2906.6755</ele><time>2026-05-27T17:56:46.000Z</time></trkpt>
        <trkpt lat="29.506149" lon="103.321938"><ele>2909.8071</ele><time>2026-05-27T17:57:16.000Z</time></trkpt>
        <trkpt lat="29.506163" lon="103.321987"><ele>2911.0999</ele><time>2026-05-27T17:57:54.000Z</time></trkpt>
        <trkpt lat="29.506184" lon="103.322037"><ele>2913.225</ele><time>2026-05-27T17:58:05.000Z</time></trkpt>
        <trkpt lat="29.506198" lon="103.32209"><ele>2914.9773</ele><time>2026-05-27T17:58:23.000Z</time></trkpt>
        <trkpt lat="29.506206" lon="103.322142"><ele>2918.5005</ele><time>2026-05-27T17:58:34.000Z</time></trkpt>
        <trkpt lat="29.506232" lon="103.322197"><ele>2916.9766</ele><time>2026-05-27T17:58:42.000Z</time></trkpt>
        <trkpt lat="29.50622" lon="103.322248"><ele>2919.4092</ele><time>2026-05-27T17:58:56.000Z</time></trkpt>
        <trkpt lat="29.506214" lon="103.322302"><ele>2916.6638</ele><time>2026-05-27T17:59:05.000Z</time></trkpt>
        <trkpt lat="29.506212" lon="103.322357"><ele>2915.546</ele><time>2026-05-27T17:59:18.000Z</time></trkpt>
        <trkpt lat="29.506196" lon="103.322406"><ele>2921.1814</ele><time>2026-05-27T17:59:33.000Z</time></trkpt>
        <trkpt lat="29.506179" lon="103.322459"><ele>2923.8462</ele><time>2026-05-27T17:59:45.000Z</time></trkpt>
        <trkpt lat="29.506203" lon="103.322504"><ele>2923.231</ele><time>2026-05-27T17:59:53.000Z</time></trkpt>
        <trkpt lat="29.506232" lon="103.322547"><ele>2923.0237</ele><time>2026-05-27T18:00:01.000Z</time></trkpt>
        <trkpt lat="29.506248" lon="103.322597"><ele>2925.9958</ele><time>2026-05-27T18:00:10.000Z</time></trkpt>
        <trkpt lat="29.506271" lon="103.322647"><ele>2927.9297</ele><time>2026-05-27T18:00:18.000Z</time></trkpt>
        <trkpt lat="29.506302" lon="103.322687"><ele>2925.9504</ele><time>2026-05-27T18:00:25.000Z</time></trkpt>
        <trkpt lat="29.50632" lon="103.322735"><ele>2930.0637</ele><time>2026-05-27T18:00:34.000Z</time></trkpt>
        <trkpt lat="29.506333" lon="103.322787"><ele>2931.3562</ele><time>2026-05-27T18:00:49.000Z</time></trkpt>
        <trkpt lat="29.506352" lon="103.322844"><ele>2931.8037</ele><time>2026-05-27T18:01:00.000Z</time></trkpt>
        <trkpt lat="29.506361" lon="103.322902"><ele>2933.892</ele><time>2026-05-27T18:01:09.000Z</time></trkpt>
        <trkpt lat="29.506396" lon="103.322934"><ele>2932.1077</ele><time>2026-05-27T18:01:25.000Z</time></trkpt>
        <trkpt lat="29.506426" lon="103.322977"><ele>2933.9456</ele><time>2026-05-27T18:02:04.000Z</time></trkpt>
        <trkpt lat="29.506454" lon="103.323033"><ele>2935.345</ele><time>2026-05-27T18:02:11.000Z</time></trkpt>
        <trkpt lat="29.506493" lon="103.32306"><ele>2934.5337</ele><time>2026-05-27T18:02:17.000Z</time></trkpt>
        <trkpt lat="29.506536" lon="103.323081"><ele>2933.867</ele><time>2026-05-27T18:02:23.000Z</time></trkpt>
        <trkpt lat="29.506581" lon="103.323102"><ele>2935.259</ele><time>2026-05-27T18:02:32.000Z</time></trkpt>
        <trkpt lat="29.506623" lon="103.323136"><ele>2937.8125</ele><time>2026-05-27T18:02:43.000Z</time></trkpt>
        <trkpt lat="29.506658" lon="103.323169"><ele>2937.7737</ele><time>2026-05-27T18:02:55.000Z</time></trkpt>
        <trkpt lat="29.506681" lon="103.323217"><ele>2940.5022</ele><time>2026-05-27T18:03:05.000Z</time></trkpt>
        <trkpt lat="29.506718" lon="103.323248"><ele>2939.572</ele><time>2026-05-27T18:03:11.000Z</time></trkpt>
        <trkpt lat="29.506759" lon="103.323276"><ele>2938.6892</ele><time>2026-05-27T18:03:19.000Z</time></trkpt>
        <trkpt lat="29.506804" lon="103.323278"><ele>2938.629</ele><time>2026-05-27T18:03:51.000Z</time></trkpt>
        <trkpt lat="29.506822" lon="103.323328"><ele>2938.1348</ele><time>2026-05-27T18:04:23.000Z</time></trkpt>
        <trkpt lat="29.506844" lon="103.323374"><ele>2936.816</ele><time>2026-05-27T18:04:39.000Z</time></trkpt>
        <trkpt lat="29.50685" lon="103.323429"><ele>2936.2537</ele><time>2026-05-27T18:04:51.000Z</time></trkpt>
        <trkpt lat="29.506886" lon="103.323463"><ele>2929.834</ele><time>2026-05-27T18:05:26.000Z</time></trkpt>
        <trkpt lat="29.506938" lon="103.323469"><ele>2930.302</ele><time>2026-05-27T18:06:03.000Z</time></trkpt>
        <trkpt lat="29.506957" lon="103.323525"><ele>2933.334</ele><time>2026-05-27T18:06:10.000Z</time></trkpt>
        <trkpt lat="29.506995" lon="103.323557"><ele>2933.0146</ele><time>2026-05-27T18:06:22.000Z</time></trkpt>
        <trkpt lat="29.507043" lon="103.32358"><ele>2933.412</ele><time>2026-05-27T18:06:29.000Z</time></trkpt>
        <trkpt lat="29.507096" lon="103.323595"><ele>2933.2207</ele><time>2026-05-27T18:06:35.000Z</time></trkpt>
        <trkpt lat="29.507146" lon="103.323601"><ele>2930.8792</ele><time>2026-05-27T18:06:44.000Z</time></trkpt>
        <trkpt lat="29.507193" lon="103.323586"><ele>2932.8635</ele><time>2026-05-27T18:07:34.000Z</time></trkpt>
        <trkpt lat="29.507243" lon="103.323599"><ele>2932.7454</ele><time>2026-05-27T18:08:10.000Z</time></trkpt>
        <trkpt lat="29.507259" lon="103.323652"><ele>2931.4663</ele><time>2026-05-27T18:08:22.000Z</time></trkpt>
        <trkpt lat="29.50728" lon="103.323701"><ele>2932.9136</ele><time>2026-05-27T18:08:30.000Z</time></trkpt>
        <trkpt lat="29.507307" lon="103.323743"><ele>2935.3765</ele><time>2026-05-27T18:08:38.000Z</time></trkpt>
        <trkpt lat="29.507343" lon="103.323775"><ele>2934.2617</ele><time>2026-05-27T18:08:50.000Z</time></trkpt>
        <trkpt lat="29.507341" lon="103.323828"><ele>2934.1394</ele><time>2026-05-27T18:09:01.000Z</time></trkpt>
        <trkpt lat="29.507344" lon="103.32388"><ele>2935.45</ele><time>2026-05-27T18:09:08.000Z</time></trkpt>
        <trkpt lat="29.507329" lon="103.323936"><ele>2935.982</ele><time>2026-05-27T18:09:18.000Z</time></trkpt>
        <trkpt lat="29.507316" lon="103.323994"><ele>2935.7334</ele><time>2026-05-27T18:09:25.000Z</time></trkpt>
        <trkpt lat="29.507325" lon="103.324045"><ele>2934.4375</ele><time>2026-05-27T18:09:35.000Z</time></trkpt>
        <trkpt lat="29.507331" lon="103.324099"><ele>2934.9285</ele><time>2026-05-27T18:09:47.000Z</time></trkpt>
        <trkpt lat="29.507285" lon="103.324126"><ele>2935.7617</ele><time>2026-05-27T18:09:56.000Z</time></trkpt>
        <trkpt lat="29.507267" lon="103.324182"><ele>2936.339</ele><time>2026-05-27T18:10:08.000Z</time></trkpt>
        <trkpt lat="29.507247" lon="103.324233"><ele>2938.0374</ele><time>2026-05-27T18:10:18.000Z</time></trkpt>
        <trkpt lat="29.507207" lon="103.324269"><ele>2939.9292</ele><time>2026-05-27T18:10:31.000Z</time></trkpt>
        <trkpt lat="29.507196" lon="103.32432"><ele>2940.7483</ele><time>2026-05-27T18:10:35.000Z</time></trkpt>
        <trkpt lat="29.507188" lon="103.324374"><ele>2938.4077</ele><time>2026-05-27T18:10:42.000Z</time></trkpt>
        <trkpt lat="29.507155" lon="103.324423"><ele>2937.7095</ele><time>2026-05-27T18:10:47.000Z</time></trkpt>
        <trkpt lat="29.507114" lon="103.324473"><ele>2939.774</ele><time>2026-05-27T18:10:54.000Z</time></trkpt>
        <trkpt lat="29.5071" lon="103.324532"><ele>2937.6848</ele><time>2026-05-27T18:11:02.000Z</time></trkpt>
        <trkpt lat="29.5071" lon="103.324584"><ele>2937.8657</ele><time>2026-05-27T18:11:09.000Z</time></trkpt>
        <trkpt lat="29.507129" lon="103.324631"><ele>2937.243</ele><time>2026-05-27T18:11:16.000Z</time></trkpt>
        <trkpt lat="29.507156" lon="103.324673"><ele>2935.6313</ele><time>2026-05-27T18:11:42.000Z</time></trkpt>
        <trkpt lat="29.507129" lon="103.324728"><ele>2937.1338</ele><time>2026-05-27T18:12:24.000Z</time></trkpt>
        <trkpt lat="29.507124" lon="103.324779"><ele>2937.473</ele><time>2026-05-27T18:13:13.000Z</time></trkpt>
        <trkpt lat="29.50712" lon="103.324834"><ele>2937.872</ele><time>2026-05-27T18:13:27.000Z</time></trkpt>
        <trkpt lat="29.507118" lon="103.324891"><ele>2937.691</ele><time>2026-05-27T18:13:36.000Z</time></trkpt>
        <trkpt lat="29.507099" lon="103.324942"><ele>2938.3433</ele><time>2026-05-27T18:13:45.000Z</time></trkpt>
        <trkpt lat="29.507098" lon="103.324999"><ele>2939.1758</ele><time>2026-05-27T18:13:53.000Z</time></trkpt>
        <trkpt lat="29.507106" lon="103.325057"><ele>2940.297</ele><time>2026-05-27T18:14:02.000Z</time></trkpt>
        <trkpt lat="29.507112" lon="103.325108"><ele>2940.2512</ele><time>2026-05-27T18:14:15.000Z</time></trkpt>
        <trkpt lat="29.507092" lon="103.325156"><ele>2941.1084</ele><time>2026-05-27T18:15:04.000Z</time></trkpt>
        <trkpt lat="29.507071" lon="103.325204"><ele>2943.7566</ele><time>2026-05-27T18:15:15.000Z</time></trkpt>
        <trkpt lat="29.507073" lon="103.325257"><ele>2943.0786</ele><time>2026-05-27T18:15:26.000Z</time></trkpt>
        <trkpt lat="29.507075" lon="103.325312"><ele>2944.4353</ele><time>2026-05-27T18:15:39.000Z</time></trkpt>
        <trkpt lat="29.507085" lon="103.325365"><ele>2945.7166</ele><time>2026-05-27T18:15:55.000Z</time></trkpt>
        <trkpt lat="29.507079" lon="103.32542"><ele>2947.655</ele><time>2026-05-27T18:16:17.000Z</time></trkpt>
        <trkpt lat="29.507072" lon="103.325473"><ele>2948.4832</ele><time>2026-05-27T18:16:27.000Z</time></trkpt>
        <trkpt lat="29.507093" lon="103.32553"><ele>2948.8064</ele><time>2026-05-27T18:16:55.000Z</time></trkpt>
        <trkpt lat="29.507137" lon="103.325556"><ele>2948.5442</ele><time>2026-05-27T18:17:33.000Z</time></trkpt>
        <trkpt lat="29.507188" lon="103.325557"><ele>2948.8171</ele><time>2026-05-27T18:17:40.000Z</time></trkpt>
        <trkpt lat="29.507233" lon="103.325572"><ele>2949.401</ele><time>2026-05-27T18:17:47.000Z</time></trkpt>
        <trkpt lat="29.507277" lon="103.325596"><ele>2949.5383</ele><time>2026-05-27T18:17:56.000Z</time></trkpt>
        <trkpt lat="29.507306" lon="103.325638"><ele>2951.796</ele><time>2026-05-27T18:18:08.000Z</time></trkpt>
        <trkpt lat="29.507349" lon="103.325666"><ele>2952.6504</ele><time>2026-05-27T18:18:22.000Z</time></trkpt>
        <trkpt lat="29.507386" lon="103.3257"><ele>2953.693</ele><time>2026-05-27T18:18:35.000Z</time></trkpt>
        <trkpt lat="29.507423" lon="103.325733"><ele>2954.702</ele><time>2026-05-27T18:18:56.000Z</time></trkpt>
        <trkpt lat="29.507453" lon="103.325772"><ele>2957.7117</ele><time>2026-05-27T18:21:48.000Z</time></trkpt>
        <trkpt lat="29.507499" lon="103.325793"><ele>2958.3904</ele><time>2026-05-27T18:21:59.000Z</time></trkpt>
        <trkpt lat="29.507538" lon="103.325822"><ele>2959.2368</ele><time>2026-05-27T18:22:13.000Z</time></trkpt>
        <trkpt lat="29.507567" lon="103.325863"><ele>2960.4673</ele><time>2026-05-27T18:22:33.000Z</time></trkpt>
        <trkpt lat="29.507589" lon="103.325909"><ele>2965.8083</ele><time>2026-05-27T18:22:56.000Z</time></trkpt>
        <trkpt lat="29.507625" lon="103.325944"><ele>2970.144</ele><time>2026-05-27T18:23:14.000Z</time></trkpt>
        <trkpt lat="29.507662" lon="103.325973"><ele>2969.823</ele><time>2026-05-27T18:23:33.000Z</time></trkpt>
        <trkpt lat="29.507705" lon="103.325954"><ele>2972.2842</ele><time>2026-05-27T18:24:13.000Z</time></trkpt>
        <trkpt lat="29.507728" lon="103.325999"><ele>2972.1433</ele><time>2026-05-27T18:25:04.000Z</time></trkpt>
        <trkpt lat="29.507728" lon="103.326055"><ele>2978.5452</ele><time>2026-05-27T18:25:36.000Z</time></trkpt>
        <trkpt lat="29.50775" lon="103.326108"><ele>2979.0066</ele><time>2026-05-27T18:25:47.000Z</time></trkpt>
        <trkpt lat="29.50775" lon="103.326166"><ele>2982.1064</ele><time>2026-05-27T18:27:21.000Z</time></trkpt>
        <trkpt lat="29.507704" lon="103.32618"><ele>2986.8445</ele><time>2026-05-27T18:27:44.000Z</time></trkpt>
        <trkpt lat="29.507679" lon="103.326225"><ele>2986.775</ele><time>2026-05-27T18:27:52.000Z</time></trkpt>
        <trkpt lat="29.507684" lon="103.326278"><ele>2985.48</ele><time>2026-05-27T18:28:00.000Z</time></trkpt>
        <trkpt lat="29.507654" lon="103.326323"><ele>2989.4038</ele><time>2026-05-27T18:28:39.000Z</time></trkpt>
        <trkpt lat="29.507609" lon="103.326333"><ele>2991.1501</ele><time>2026-05-27T18:29:10.000Z</time></trkpt>
        <trkpt lat="29.507566" lon="103.326353"><ele>2994.4875</ele><time>2026-05-27T18:29:23.000Z</time></trkpt>
        <trkpt lat="29.507524" lon="103.326386"><ele>2995.0898</ele><time>2026-05-27T18:29:33.000Z</time></trkpt>
        <trkpt lat="29.507485" lon="103.326412"><ele>2994.0132</ele><time>2026-05-27T18:29:49.000Z</time></trkpt>
        <trkpt lat="29.507442" lon="103.326434"><ele>2996.9438</ele><time>2026-05-27T18:30:00.000Z</time></trkpt>
        <trkpt lat="29.507402" lon="103.326476"><ele>2999.1064</ele><time>2026-05-27T18:30:14.000Z</time></trkpt>
        <trkpt lat="29.507409" lon="103.326532"><ele>2995.7378</ele><time>2026-05-27T18:30:38.000Z</time></trkpt>
        <trkpt lat="29.50738" lon="103.326492"><ele>2994.1064</ele><time>2026-05-27T18:33:07.000Z</time></trkpt>
        <trkpt lat="29.507391" lon="103.326548"><ele>2995.6255</ele><time>2026-05-27T18:36:15.000Z</time></trkpt>
        <trkpt lat="29.507354" lon="103.326578"><ele>2998.8157</ele><time>2026-05-27T18:37:12.000Z</time></trkpt>
        <trkpt lat="29.507343" lon="103.326629"><ele>2997.3687</ele><time>2026-05-27T18:37:24.000Z</time></trkpt>
        <trkpt lat="29.507312" lon="103.326672"><ele>3000.5852</ele><time>2026-05-27T18:37:41.000Z</time></trkpt>
        <trkpt lat="29.50725" lon="103.326679"><ele>3000.8542</ele><time>2026-05-27T18:37:50.000Z</time></trkpt>
        <trkpt lat="29.507202" lon="103.326696"><ele>3003.2783</ele><time>2026-05-27T18:37:57.000Z</time></trkpt>
        <trkpt lat="29.507156" lon="103.326709"><ele>3004.036</ele><time>2026-05-27T18:38:07.000Z</time></trkpt>
        <trkpt lat="29.507126" lon="103.32675"><ele>3003.9424</ele><time>2026-05-27T18:38:22.000Z</time></trkpt>
        <trkpt lat="29.507085" lon="103.326773"><ele>3004.9502</ele><time>2026-05-27T18:38:35.000Z</time></trkpt>
        <trkpt lat="29.50707" lon="103.326825"><ele>3006.9788</ele><time>2026-05-27T18:39:13.000Z</time></trkpt>
        <trkpt lat="29.507064" lon="103.326876"><ele>3007.9443</ele><time>2026-05-27T18:39:28.000Z</time></trkpt>
        <trkpt lat="29.507055" lon="103.326928"><ele>3010.7373</ele><time>2026-05-27T18:39:53.000Z</time></trkpt>
        <trkpt lat="29.507067" lon="103.326985"><ele>3013.7964</ele><time>2026-05-27T18:40:20.000Z</time></trkpt>
        <trkpt lat="29.50708" lon="103.32704"><ele>3013.3274</ele><time>2026-05-27T18:40:35.000Z</time></trkpt>
        <trkpt lat="29.507095" lon="103.327089"><ele>3015.6685</ele><time>2026-05-27T18:40:49.000Z</time></trkpt>
        <trkpt lat="29.507137" lon="103.327115"><ele>3014.752</ele><time>2026-05-27T18:41:04.000Z</time></trkpt>
        <trkpt lat="29.507173" lon="103.32715"><ele>3019.0332</ele><time>2026-05-27T18:41:24.000Z</time></trkpt>
        <trkpt lat="29.507211" lon="103.327183"><ele>3016.4895</ele><time>2026-05-27T18:41:34.000Z</time></trkpt>
        <trkpt lat="29.507244" lon="103.327219"><ele>3014.5972</ele><time>2026-05-27T18:41:42.000Z</time></trkpt>
        <trkpt lat="29.50727" lon="103.327269"><ele>3012.8113</ele><time>2026-05-27T18:41:51.000Z</time></trkpt>
        <trkpt lat="29.50731" lon="103.327295"><ele>3016.8257</ele><time>2026-05-27T18:42:01.000Z</time></trkpt>
        <trkpt lat="29.507344" lon="103.327336"><ele>3019.9207</ele><time>2026-05-27T18:42:12.000Z</time></trkpt>
        <trkpt lat="29.507386" lon="103.327357"><ele>3020.8179</ele><time>2026-05-27T18:42:19.000Z</time></trkpt>
        <trkpt lat="29.507426" lon="103.327396"><ele>3020.821</ele><time>2026-05-27T18:42:28.000Z</time></trkpt>
        <trkpt lat="29.507442" lon="103.327445"><ele>3022.7036</ele><time>2026-05-27T18:42:38.000Z</time></trkpt>
        <trkpt lat="29.507473" lon="103.327493"><ele>3022.0447</ele><time>2026-05-27T18:42:47.000Z</time></trkpt>
        <trkpt lat="29.507476" lon="103.327551"><ele>3018.231</ele><time>2026-05-27T18:42:55.000Z</time></trkpt>
        <trkpt lat="29.507478" lon="103.327609"><ele>3017.235</ele><time>2026-05-27T18:43:04.000Z</time></trkpt>
        <trkpt lat="29.507508" lon="103.327659"><ele>3016.5996</ele><time>2026-05-27T18:43:10.000Z</time></trkpt>
        <trkpt lat="29.507549" lon="103.327693"><ele>3019.5269</ele><time>2026-05-27T18:43:17.000Z</time></trkpt>
        <trkpt lat="29.507589" lon="103.327717"><ele>3016.3096</ele><time>2026-05-27T18:43:25.000Z</time></trkpt>
        <trkpt lat="29.507639" lon="103.327724"><ele>3020.847</ele><time>2026-05-27T18:43:42.000Z</time></trkpt>
        <trkpt lat="29.507684" lon="103.327688"><ele>3023.038</ele><time>2026-05-27T18:43:49.000Z</time></trkpt>
        <trkpt lat="29.507725" lon="103.327659"><ele>3022.222</ele><time>2026-05-27T18:43:57.000Z</time></trkpt>
        <trkpt lat="29.507747" lon="103.327607"><ele>3024.786</ele><time>2026-05-27T18:44:06.000Z</time></trkpt>
        <trkpt lat="29.507789" lon="103.327584"><ele>3024.6758</ele><time>2026-05-27T18:44:14.000Z</time></trkpt>
        <trkpt lat="29.507854" lon="103.327579"><ele>3020.3745</ele><time>2026-05-27T18:44:25.000Z</time></trkpt>
        <trkpt lat="29.507902" lon="103.327573"><ele>3017.98</ele><time>2026-05-27T18:44:33.000Z</time></trkpt>
        <trkpt lat="29.507945" lon="103.327596"><ele>3014.5884</ele><time>2026-05-27T18:44:40.000Z</time></trkpt>
        <trkpt lat="29.507984" lon="103.327627"><ele>3014.8428</ele><time>2026-05-27T18:44:46.000Z</time></trkpt>
        <trkpt lat="29.507981" lon="103.327682"><ele>3014.7852</ele><time>2026-05-27T18:44:53.000Z</time></trkpt>
        <trkpt lat="29.507983" lon="103.327739"><ele>3017.7039</ele><time>2026-05-27T18:45:19.000Z</time></trkpt>
        <trkpt lat="29.508" lon="103.327795"><ele>3017.845</ele><time>2026-05-27T18:45:25.000Z</time></trkpt>
        <trkpt lat="29.508025" lon="103.327844"><ele>3017.607</ele><time>2026-05-27T18:45:31.000Z</time></trkpt>
        <trkpt lat="29.508055" lon="103.327886"><ele>3018.387</ele><time>2026-05-27T18:45:41.000Z</time></trkpt>
        <trkpt lat="29.508073" lon="103.327945"><ele>3019.769</ele><time>2026-05-27T18:45:47.000Z</time></trkpt>
        <trkpt lat="29.508074" lon="103.328004"><ele>3021.769</ele><time>2026-05-27T18:45:59.000Z</time></trkpt>
        <trkpt lat="29.508111" lon="103.328034"><ele>3020.0024</ele><time>2026-05-27T18:46:05.000Z</time></trkpt>
        <trkpt lat="29.508144" lon="103.32808"><ele>3021.1118</ele><time>2026-05-27T18:46:14.000Z</time></trkpt>
        <trkpt lat="29.50819" lon="103.328116"><ele>3021.9207</ele><time>2026-05-27T18:46:26.000Z</time></trkpt>
        <trkpt lat="29.508229" lon="103.328152"><ele>3019.3508</ele><time>2026-05-27T18:46:36.000Z</time></trkpt>
        <trkpt lat="29.508265" lon="103.328187"><ele>3017.6782</ele><time>2026-05-27T18:46:46.000Z</time></trkpt>
        <trkpt lat="29.508303" lon="103.328221"><ele>3020.6177</ele><time>2026-05-27T18:47:03.000Z</time></trkpt>
        <trkpt lat="29.508324" lon="103.328268"><ele>3024.1658</ele><time>2026-05-27T18:47:12.000Z</time></trkpt>
        <trkpt lat="29.508347" lon="103.328316"><ele>3025.9849</ele><time>2026-05-27T18:47:24.000Z</time></trkpt>
        <trkpt lat="29.508392" lon="103.328336"><ele>3026.4026</ele><time>2026-05-27T18:47:40.000Z</time></trkpt>
        <trkpt lat="29.508431" lon="103.32831"><ele>3028.1206</ele><time>2026-05-27T18:47:47.000Z</time></trkpt>
        <trkpt lat="29.508476" lon="103.328318"><ele>3029.8882</ele><time>2026-05-27T18:47:54.000Z</time></trkpt>
        <trkpt lat="29.508525" lon="103.328325"><ele>3030.7344</ele><time>2026-05-27T18:48:02.000Z</time></trkpt>
        <trkpt lat="29.508575" lon="103.328338"><ele>3029.4224</ele><time>2026-05-27T18:48:09.000Z</time></trkpt>
        <trkpt lat="29.508625" lon="103.328336"><ele>3028.1702</ele><time>2026-05-27T18:48:18.000Z</time></trkpt>
        <trkpt lat="29.508669" lon="103.328351"><ele>3027.368</ele><time>2026-05-27T18:48:29.000Z</time></trkpt>
        <trkpt lat="29.508716" lon="103.328359"><ele>3026.8154</ele><time>2026-05-27T18:48:47.000Z</time></trkpt>
        <trkpt lat="29.508767" lon="103.32836"><ele>3026.5198</ele><time>2026-05-27T18:48:53.000Z</time></trkpt>
        <trkpt lat="29.508812" lon="103.328361"><ele>3025.4153</ele><time>2026-05-27T18:49:00.000Z</time></trkpt>
        <trkpt lat="29.508861" lon="103.328351"><ele>3025.6013</ele><time>2026-05-27T18:49:09.000Z</time></trkpt>
        <trkpt lat="29.508901" lon="103.328314"><ele>3025.1023</ele><time>2026-05-27T18:49:18.000Z</time></trkpt>
        <trkpt lat="29.508926" lon="103.328269"><ele>3024.228</ele><time>2026-05-27T18:49:28.000Z</time></trkpt>
        <trkpt lat="29.50897" lon="103.328251"><ele>3023.0842</ele><time>2026-05-27T18:49:36.000Z</time></trkpt>
        <trkpt lat="29.509006" lon="103.328217"><ele>3022.8618</ele><time>2026-05-27T18:49:44.000Z</time></trkpt>
        <trkpt lat="29.509029" lon="103.328171"><ele>3022.789</ele><time>2026-05-27T18:49:54.000Z</time></trkpt>
        <trkpt lat="29.509071" lon="103.32814"><ele>3023.8162</ele><time>2026-05-27T18:50:01.000Z</time></trkpt>
        <trkpt lat="29.509114" lon="103.32812"><ele>3022.2395</ele><time>2026-05-27T18:50:09.000Z</time></trkpt>
        <trkpt lat="29.509166" lon="103.328131"><ele>3020.6458</ele><time>2026-05-27T18:50:14.000Z</time></trkpt>
        <trkpt lat="29.50922" lon="103.328119"><ele>3021.4856</ele><time>2026-05-27T18:50:23.000Z</time></trkpt>
        <trkpt lat="29.509267" lon="103.328145"><ele>3022.4844</ele><time>2026-05-27T18:50:30.000Z</time></trkpt>
        <trkpt lat="29.509316" lon="103.328149"><ele>3020.5635</ele><time>2026-05-27T18:50:40.000Z</time></trkpt>
        <trkpt lat="29.509365" lon="103.328148"><ele>3019.95</ele><time>2026-05-27T18:50:52.000Z</time></trkpt>
        <trkpt lat="29.509412" lon="103.328131"><ele>3020.5847</ele><time>2026-05-27T18:51:02.000Z</time></trkpt>
        <trkpt lat="29.509459" lon="103.328133"><ele>3020.1028</ele><time>2026-05-27T18:51:09.000Z</time></trkpt>
        <trkpt lat="29.509509" lon="103.328149"><ele>3020.034</ele><time>2026-05-27T18:51:16.000Z</time></trkpt>
        <trkpt lat="29.509555" lon="103.328156"><ele>3019.228</ele><time>2026-05-27T18:51:26.000Z</time></trkpt>
        <trkpt lat="29.509598" lon="103.328171"><ele>3018.5786</ele><time>2026-05-27T18:51:33.000Z</time></trkpt>
        <trkpt lat="29.509647" lon="103.328185"><ele>3017.5542</ele><time>2026-05-27T18:51:44.000Z</time></trkpt>
        <trkpt lat="29.509692" lon="103.32821"><ele>3017.695</ele><time>2026-05-27T18:51:50.000Z</time></trkpt>
        <trkpt lat="29.50973" lon="103.328243"><ele>3017.8137</ele><time>2026-05-27T18:52:03.000Z</time></trkpt>
        <trkpt lat="29.509756" lon="103.328296"><ele>3016.2666</ele><time>2026-05-27T18:52:14.000Z</time></trkpt>
        <trkpt lat="29.509803" lon="103.328325"><ele>3016.0962</ele><time>2026-05-27T18:52:24.000Z</time></trkpt>
        <trkpt lat="29.509814" lon="103.328379"><ele>3017.8657</ele><time>2026-05-27T18:52:37.000Z</time></trkpt>
        <trkpt lat="29.509796" lon="103.328427"><ele>3021.5256</ele><time>2026-05-27T18:53:05.000Z</time></trkpt>
        <trkpt lat="29.509792" lon="103.328481"><ele>3024.4858</ele><time>2026-05-27T18:53:53.000Z</time></trkpt>
        <trkpt lat="29.509773" lon="103.328531"><ele>3026.0935</ele><time>2026-05-27T18:54:03.000Z</time></trkpt>
        <trkpt lat="29.509775" lon="103.328588"><ele>3024.6646</ele><time>2026-05-27T18:54:18.000Z</time></trkpt>
        <trkpt lat="29.509768" lon="103.328641"><ele>3025.9622</ele><time>2026-05-27T18:54:25.000Z</time></trkpt>
        <trkpt lat="29.509798" lon="103.328686"><ele>3027.4368</ele><time>2026-05-27T18:54:37.000Z</time></trkpt>
        <trkpt lat="29.509835" lon="103.328721"><ele>3027.687</ele><time>2026-05-27T18:54:47.000Z</time></trkpt>
        <trkpt lat="29.509868" lon="103.32877"><ele>3029.4902</ele><time>2026-05-27T18:54:57.000Z</time></trkpt>
        <trkpt lat="29.509907" lon="103.328803"><ele>3028.117</ele><time>2026-05-27T18:55:13.000Z</time></trkpt>
        <trkpt lat="29.509937" lon="103.32885"><ele>3030.044</ele><time>2026-05-27T18:55:35.000Z</time></trkpt>
        <trkpt lat="29.509937" lon="103.328903"><ele>3029.9348</ele><time>2026-05-27T18:55:50.000Z</time></trkpt>
        <trkpt lat="29.509957" lon="103.328954"><ele>3034.0083</ele><time>2026-05-27T18:56:40.000Z</time></trkpt>
        <trkpt lat="29.50998" lon="103.329"><ele>3035.1687</ele><time>2026-05-27T19:00:37.000Z</time></trkpt>
        <trkpt lat="29.509998" lon="103.329051"><ele>3032.7979</ele><time>2026-05-27T19:01:13.000Z</time></trkpt>
        <trkpt lat="29.51004" lon="103.329094"><ele>3034.215</ele><time>2026-05-27T19:01:24.000Z</time></trkpt>
        <trkpt lat="29.510082" lon="103.329129"><ele>3035.8457</ele><time>2026-05-27T19:01:34.000Z</time></trkpt>
        <trkpt lat="29.510119" lon="103.329162"><ele>3035.1592</ele><time>2026-05-27T19:01:47.000Z</time></trkpt>
        <trkpt lat="29.510159" lon="103.329192"><ele>3035.245</ele><time>2026-05-27T19:01:55.000Z</time></trkpt>
        <trkpt lat="29.510181" lon="103.329238"><ele>3037.5803</ele><time>2026-05-27T19:02:06.000Z</time></trkpt>
        <trkpt lat="29.510187" lon="103.32929"><ele>3040.8743</ele><time>2026-05-27T19:02:19.000Z</time></trkpt>
        <trkpt lat="29.510198" lon="103.329353"><ele>3041.7493</ele><time>2026-05-27T19:02:29.000Z</time></trkpt>
        <trkpt lat="29.510233" lon="103.329392"><ele>3039.3303</ele><time>2026-05-27T19:02:35.000Z</time></trkpt>
        <trkpt lat="29.510247" lon="103.329445"><ele>3040.0757</ele><time>2026-05-27T19:02:44.000Z</time></trkpt>
        <trkpt lat="29.510272" lon="103.329505"><ele>3040.2393</ele><time>2026-05-27T19:02:51.000Z</time></trkpt>
        <trkpt lat="29.5103" lon="103.329555"><ele>3038.7393</ele><time>2026-05-27T19:02:57.000Z</time></trkpt>
        <trkpt lat="29.510325" lon="103.329606"><ele>3038.5518</ele><time>2026-05-27T19:03:03.000Z</time></trkpt>
        <trkpt lat="29.510356" lon="103.329651"><ele>3041.286</ele><time>2026-05-27T19:03:10.000Z</time></trkpt>
        <trkpt lat="29.510378" lon="103.329702"><ele>3041.2034</ele><time>2026-05-27T19:03:15.000Z</time></trkpt>
        <trkpt lat="29.510412" lon="103.329737"><ele>3041.3647</ele><time>2026-05-27T19:03:22.000Z</time></trkpt>
        <trkpt lat="29.510457" lon="103.329757"><ele>3041.3257</ele><time>2026-05-27T19:03:29.000Z</time></trkpt>
        <trkpt lat="29.510485" lon="103.329803"><ele>3040.7317</ele><time>2026-05-27T19:03:41.000Z</time></trkpt>
        <trkpt lat="29.510505" lon="103.329854"><ele>3040.1726</ele><time>2026-05-27T19:03:48.000Z</time></trkpt>
        <trkpt lat="29.510541" lon="103.329898"><ele>3038.847</ele><time>2026-05-27T19:03:56.000Z</time></trkpt>
        <trkpt lat="29.510587" lon="103.329916"><ele>3036.1306</ele><time>2026-05-27T19:04:43.000Z</time></trkpt>
        <trkpt lat="29.510618" lon="103.329959"><ele>3036.7385</ele><time>2026-05-27T19:04:54.000Z</time></trkpt>
        <trkpt lat="29.510647" lon="103.330009"><ele>3036.1624</ele><time>2026-05-27T19:05:01.000Z</time></trkpt>
        <trkpt lat="29.510675" lon="103.330063"><ele>3036.0662</ele><time>2026-05-27T19:05:07.000Z</time></trkpt>
        <trkpt lat="29.510679" lon="103.330116"><ele>3035.5566</ele><time>2026-05-27T19:05:39.000Z</time></trkpt>
        <trkpt lat="29.510685" lon="103.330171"><ele>3035.5835</ele><time>2026-05-27T19:05:44.000Z</time></trkpt>
        <trkpt lat="29.510685" lon="103.330228"><ele>3037.7437</ele><time>2026-05-27T19:05:54.000Z</time></trkpt>
        <trkpt lat="29.510711" lon="103.33028"><ele>3040.0786</ele><time>2026-05-27T19:06:03.000Z</time></trkpt>
        <trkpt lat="29.510736" lon="103.330331"><ele>3043.046</ele><time>2026-05-27T19:06:14.000Z</time></trkpt>
        <trkpt lat="29.510743" lon="103.330385"><ele>3041.806</ele><time>2026-05-27T19:06:24.000Z</time></trkpt>
        <trkpt lat="29.510724" lon="103.330434"><ele>3044.477</ele><time>2026-05-27T19:06:37.000Z</time></trkpt>
        <trkpt lat="29.510682" lon="103.330453"><ele>3046.6853</ele><time>2026-05-27T19:06:48.000Z</time></trkpt>
        <trkpt lat="29.510653" lon="103.330497"><ele>3046.3376</ele><time>2026-05-27T19:06:59.000Z</time></trkpt>
        <trkpt lat="29.510637" lon="103.330548"><ele>3048.9714</ele><time>2026-05-27T19:07:11.000Z</time></trkpt>
        <trkpt lat="29.510616" lon="103.330599"><ele>3050.276</ele><time>2026-05-27T19:07:24.000Z</time></trkpt>
        <trkpt lat="29.510604" lon="103.330655"><ele>3051.4563</ele><time>2026-05-27T19:07:53.000Z</time></trkpt>
        <trkpt lat="29.510597" lon="103.330709"><ele>3053.339</ele><time>2026-05-27T19:08:08.000Z</time></trkpt>
        <trkpt lat="29.510558" lon="103.330745"><ele>3057.7354</ele><time>2026-05-27T19:08:38.000Z</time></trkpt>
        <trkpt lat="29.510513" lon="103.330757"><ele>3057.328</ele><time>2026-05-27T19:08:47.000Z</time></trkpt>
        <trkpt lat="29.510499" lon="103.330809"><ele>3058.6206</ele><time>2026-05-27T19:09:08.000Z</time></trkpt>
        <trkpt lat="29.510458" lon="103.330836"><ele>3063.6843</ele><time>2026-05-27T19:09:37.000Z</time></trkpt>
        <trkpt lat="29.510413" lon="103.330853"><ele>3066.5088</ele><time>2026-05-27T19:09:47.000Z</time></trkpt>
        <trkpt lat="29.510368" lon="103.330861"><ele>3067.6729</ele><time>2026-05-27T19:09:53.000Z</time></trkpt>
        <trkpt lat="29.510321" lon="103.330876"><ele>3065.5657</ele><time>2026-05-27T19:10:00.000Z</time></trkpt>
        <trkpt lat="29.510275" lon="103.330866"><ele>3067.5173</ele><time>2026-05-27T19:10:07.000Z</time></trkpt>
        <trkpt lat="29.510233" lon="103.330889"><ele>3067.056</ele><time>2026-05-27T19:10:14.000Z</time></trkpt>
        <trkpt lat="29.51019" lon="103.330906"><ele>3066.3647</ele><time>2026-05-27T19:10:20.000Z</time></trkpt>
        <trkpt lat="29.510146" lon="103.330928"><ele>3069.118</ele><time>2026-05-27T19:10:32.000Z</time></trkpt>
        <trkpt lat="29.51013" lon="103.330979"><ele>3067.739</ele><time>2026-05-27T19:10:47.000Z</time></trkpt>
        <trkpt lat="29.510126" lon="103.331032"><ele>3071.8997</ele><time>2026-05-27T19:10:55.000Z</time></trkpt>
        <trkpt lat="29.510091" lon="103.331072"><ele>3073.7866</ele><time>2026-05-27T19:11:15.000Z</time></trkpt>
        <trkpt lat="29.510044" lon="103.331092"><ele>3077.1252</ele><time>2026-05-27T19:11:26.000Z</time></trkpt>
        <trkpt lat="29.510031" lon="103.331149"><ele>3074.0535</ele><time>2026-05-27T19:11:41.000Z</time></trkpt>
        <trkpt lat="29.510011" lon="103.331196"><ele>3078.1106</ele><time>2026-05-27T19:12:11.000Z</time></trkpt>
        <trkpt lat="29.509981" lon="103.331241"><ele>3081.0942</ele><time>2026-05-27T19:12:21.000Z</time></trkpt>
        <trkpt lat="29.509951" lon="103.331284"><ele>3081.4968</ele><time>2026-05-27T19:12:27.000Z</time></trkpt>
        <trkpt lat="29.509928" lon="103.331333"><ele>3085.7837</ele><time>2026-05-27T19:12:44.000Z</time></trkpt>
        <trkpt lat="29.509951" lon="103.331379"><ele>3084.3162</ele><time>2026-05-27T19:13:29.000Z</time></trkpt>
        <trkpt lat="29.509964" lon="103.331435"><ele>3085.4631</ele><time>2026-05-27T19:14:13.000Z</time></trkpt>
        <trkpt lat="29.509966" lon="103.331488"><ele>3086.3384</ele><time>2026-05-27T19:14:22.000Z</time></trkpt>
        <trkpt lat="29.509961" lon="103.331545"><ele>3089.9734</ele><time>2026-05-27T19:14:31.000Z</time></trkpt>
        <trkpt lat="29.509977" lon="103.331598"><ele>3090.5251</ele><time>2026-05-27T19:14:42.000Z</time></trkpt>
        <trkpt lat="29.509991" lon="103.331655"><ele>3091.8928</ele><time>2026-05-27T19:14:54.000Z</time></trkpt>
        <trkpt lat="29.510019" lon="103.331699"><ele>3092.1191</ele><time>2026-05-27T19:15:19.000Z</time></trkpt>
        <trkpt lat="29.510044" lon="103.331748"><ele>3091.3354</ele><time>2026-05-27T19:19:36.000Z</time></trkpt>
        <trkpt lat="29.510071" lon="103.331792"><ele>3092.1724</ele><time>2026-05-27T19:19:56.000Z</time></trkpt>
        <trkpt lat="29.510061" lon="103.331852"><ele>3096.4927</ele><time>2026-05-27T19:20:13.000Z</time></trkpt>
        <trkpt lat="29.510066" lon="103.331909"><ele>3096.21</ele><time>2026-05-27T19:20:19.000Z</time></trkpt>
        <trkpt lat="29.510059" lon="103.331972"><ele>3097.125</ele><time>2026-05-27T19:20:32.000Z</time></trkpt>
        <trkpt lat="29.510047" lon="103.332023"><ele>3097.7686</ele><time>2026-05-27T19:20:38.000Z</time></trkpt>
        <trkpt lat="29.510082" lon="103.332058"><ele>3100.086</ele><time>2026-05-27T19:20:53.000Z</time></trkpt>
        <trkpt lat="29.510069" lon="103.332119"><ele>3100.1682</ele><time>2026-05-27T19:21:04.000Z</time></trkpt>
        <trkpt lat="29.510045" lon="103.332176"><ele>3102.3494</ele><time>2026-05-27T19:21:10.000Z</time></trkpt>
        <trkpt lat="29.510054" lon="103.332232"><ele>3102.2397</ele><time>2026-05-27T19:21:15.000Z</time></trkpt>
        <trkpt lat="29.510034" lon="103.332281"><ele>3101.3584</ele><time>2026-05-27T19:21:20.000Z</time></trkpt>
        <trkpt lat="29.510003" lon="103.332324"><ele>3101.0356</ele><time>2026-05-27T19:21:24.000Z</time></trkpt>
        <trkpt lat="29.509966" lon="103.332291"><ele>3102.6082</ele><time>2026-05-27T19:23:07.000Z</time></trkpt>
        <trkpt lat="29.50992" lon="103.332293"><ele>3102.0195</ele><time>2026-05-27T19:23:13.000Z</time></trkpt>
        <trkpt lat="29.50997" lon="103.332291"><ele>3101.9712</ele><time>2026-05-27T19:25:12.000Z</time></trkpt>
        <trkpt lat="29.510014" lon="103.332307"><ele>3102.8892</ele><time>2026-05-27T19:27:46.000Z</time></trkpt>
        <trkpt lat="29.509969" lon="103.332316"><ele>3102.9788</ele><time>2026-05-27T19:28:56.000Z</time></trkpt>
        <trkpt lat="29.510012" lon="103.332295"><ele>3104.418</ele><time>2026-05-27T19:30:58.000Z</time></trkpt>
        <trkpt lat="29.509962" lon="103.33231"><ele>3102.509</ele><time>2026-05-27T19:32:05.000Z</time></trkpt>
        <trkpt lat="29.509938" lon="103.332357"><ele>3102.1682</ele><time>2026-05-27T19:32:45.000Z</time></trkpt>
        <trkpt lat="29.509961" lon="103.332404"><ele>3101.2412</ele><time>2026-05-27T19:32:54.000Z</time></trkpt>
        <trkpt lat="29.510013" lon="103.332393"><ele>3102.1875</ele><time>2026-05-27T19:33:00.000Z</time></trkpt>
        <trkpt lat="29.510059" lon="103.332404"><ele>3101.1528</ele><time>2026-05-27T19:33:10.000Z</time></trkpt>
        <trkpt lat="29.510104" lon="103.332412"><ele>3093.6248</ele><time>2026-05-27T19:34:23.000Z</time></trkpt>
        <trkpt lat="29.510148" lon="103.332429"><ele>3091.3362</ele><time>2026-05-27T19:34:36.000Z</time></trkpt>
        <trkpt lat="29.510188" lon="103.332455"><ele>3095.1582</ele><time>2026-05-27T19:35:35.000Z</time></trkpt>
        <trkpt lat="29.510239" lon="103.33248"><ele>3092.0837</ele><time>2026-05-27T19:35:45.000Z</time></trkpt>
        <trkpt lat="29.510286" lon="103.332486"><ele>3088.8518</ele><time>2026-05-27T19:35:53.000Z</time></trkpt>
        <trkpt lat="29.510332" lon="103.332498"><ele>3085.46</ele><time>2026-05-27T19:36:01.000Z</time></trkpt>
        <trkpt lat="29.510377" lon="103.332516"><ele>3083.743</ele><time>2026-05-27T19:36:08.000Z</time></trkpt>
        <trkpt lat="29.510424" lon="103.332525"><ele>3083.3066</ele><time>2026-05-27T19:36:13.000Z</time></trkpt>
        <trkpt lat="29.510472" lon="103.332515"><ele>3080.0825</ele><time>2026-05-27T19:36:20.000Z</time></trkpt>
        <trkpt lat="29.510518" lon="103.332518"><ele>3078.8557</ele><time>2026-05-27T19:36:27.000Z</time></trkpt>
        <trkpt lat="29.510564" lon="103.332536"><ele>3081.7815</ele><time>2026-05-27T19:36:57.000Z</time></trkpt>
        <trkpt lat="29.510608" lon="103.332551"><ele>3080.9722</ele><time>2026-05-27T19:37:03.000Z</time></trkpt>
        <trkpt lat="29.510659" lon="103.332561"><ele>3079.8945</ele><time>2026-05-27T19:38:03.000Z</time></trkpt>
        <trkpt lat="29.510706" lon="103.332535"><ele>3079.4106</ele><time>2026-05-27T19:38:09.000Z</time></trkpt>
        <trkpt lat="29.510755" lon="103.332516"><ele>3079.9058</ele><time>2026-05-27T19:38:15.000Z</time></trkpt>
        <trkpt lat="29.510802" lon="103.332514"><ele>3077.9314</ele><time>2026-05-27T19:38:19.000Z</time></trkpt>
        <trkpt lat="29.510852" lon="103.332527"><ele>3080.7402</ele><time>2026-05-27T19:38:25.000Z</time></trkpt>
        <trkpt lat="29.510904" lon="103.332523"><ele>3081.3943</ele><time>2026-05-27T19:38:31.000Z</time></trkpt>
        <trkpt lat="29.510948" lon="103.332512"><ele>3083.4053</ele><time>2026-05-27T19:38:36.000Z</time></trkpt>
        <trkpt lat="29.510999" lon="103.332499"><ele>3083.7556</ele><time>2026-05-27T19:38:42.000Z</time></trkpt>
        <trkpt lat="29.511048" lon="103.332494"><ele>3083.6438</ele><time>2026-05-27T19:38:50.000Z</time></trkpt>
        <trkpt lat="29.5111" lon="103.332501"><ele>3085.1665</ele><time>2026-05-27T19:38:57.000Z</time></trkpt>
        <trkpt lat="29.51115" lon="103.332499"><ele>3085.231</ele><time>2026-05-27T19:39:02.000Z</time></trkpt>
        <trkpt lat="29.511197" lon="103.332481"><ele>3086.8582</ele><time>2026-05-27T19:39:07.000Z</time></trkpt>
        <trkpt lat="29.511242" lon="103.332461"><ele>3088.8005</ele><time>2026-05-27T19:39:13.000Z</time></trkpt>
        <trkpt lat="29.51129" lon="103.332466"><ele>3086.2607</ele><time>2026-05-27T19:39:19.000Z</time></trkpt>
        <trkpt lat="29.511345" lon="103.332458"><ele>3085.6543</ele><time>2026-05-27T19:39:24.000Z</time></trkpt>
        <trkpt lat="29.511394" lon="103.33245"><ele>3085.9614</ele><time>2026-05-27T19:39:30.000Z</time></trkpt>
        <trkpt lat="29.511444" lon="103.332443"><ele>3086.052</ele><time>2026-05-27T19:39:36.000Z</time></trkpt>
        <trkpt lat="29.511495" lon="103.332443"><ele>3085.7622</ele><time>2026-05-27T19:39:42.000Z</time></trkpt>
        <trkpt lat="29.511542" lon="103.332461"><ele>3086.0803</ele><time>2026-05-27T19:39:49.000Z</time></trkpt>
        <trkpt lat="29.511588" lon="103.332475"><ele>3084.9553</ele><time>2026-05-27T19:39:55.000Z</time></trkpt>
        <trkpt lat="29.511637" lon="103.332493"><ele>3085.078</ele><time>2026-05-27T19:40:04.000Z</time></trkpt>
        <trkpt lat="29.511685" lon="103.3325"><ele>3085.0256</ele><time>2026-05-27T19:40:11.000Z</time></trkpt>
        <trkpt lat="29.511734" lon="103.332503"><ele>3085.0305</ele><time>2026-05-27T19:40:18.000Z</time></trkpt>
        <trkpt lat="29.511781" lon="103.332517"><ele>3083.9976</ele><time>2026-05-27T19:40:24.000Z</time></trkpt>
        <trkpt lat="29.511829" lon="103.332522"><ele>3083.0898</ele><time>2026-05-27T19:40:30.000Z</time></trkpt>
        <trkpt lat="29.511873" lon="103.332548"><ele>3081.7542</ele><time>2026-05-27T19:40:39.000Z</time></trkpt>
        <trkpt lat="29.511913" lon="103.332584"><ele>3080.7007</ele><time>2026-05-27T19:40:47.000Z</time></trkpt>
        <trkpt lat="29.511944" lon="103.332625"><ele>3081.4338</ele><time>2026-05-27T19:42:18.000Z</time></trkpt>
        <trkpt lat="29.511981" lon="103.332654"><ele>3078.594</ele><time>2026-05-27T19:42:35.000Z</time></trkpt>
        <trkpt lat="29.512017" lon="103.332686"><ele>3076.8762</ele><time>2026-05-27T19:42:45.000Z</time></trkpt>
        <trkpt lat="29.512053" lon="103.33272"><ele>3076.5205</ele><time>2026-05-27T19:42:58.000Z</time></trkpt>
        <trkpt lat="29.512099" lon="103.332738"><ele>3076.8215</ele><time>2026-05-27T19:43:08.000Z</time></trkpt>
        <trkpt lat="29.512285" lon="103.332703"><ele>3073.396</ele><time>2026-05-27T19:48:18.000Z</time></trkpt>
        <trkpt lat="29.512332" lon="103.332704"><ele>3069.5288</ele><time>2026-05-27T19:48:36.000Z</time></trkpt>
        <trkpt lat="29.512383" lon="103.332713"><ele>3067.824</ele><time>2026-05-27T19:48:45.000Z</time></trkpt>
        <trkpt lat="29.51243" lon="103.332707"><ele>3066.6128</ele><time>2026-05-27T19:48:54.000Z</time></trkpt>
        <trkpt lat="29.512472" lon="103.332676"><ele>3065.7356</ele><time>2026-05-27T19:49:01.000Z</time></trkpt>
        <trkpt lat="29.512505" lon="103.33264"><ele>3063.976</ele><time>2026-05-27T19:49:08.000Z</time></trkpt>
        <trkpt lat="29.512553" lon="103.332648"><ele>3063.6863</ele><time>2026-05-27T19:49:17.000Z</time></trkpt>
        <trkpt lat="29.512595" lon="103.332667"><ele>3063.0303</ele><time>2026-05-27T19:49:24.000Z</time></trkpt>
        <trkpt lat="29.512638" lon="103.33264"><ele>3056.89</ele><time>2026-05-27T19:50:11.000Z</time></trkpt>
        <trkpt lat="29.512683" lon="103.332633"><ele>3058.5312</ele><time>2026-05-27T19:50:44.000Z</time></trkpt>
        <trkpt lat="29.51273" lon="103.33263"><ele>3058.4277</ele><time>2026-05-27T19:51:12.000Z</time></trkpt>
        <trkpt lat="29.512773" lon="103.332605"><ele>3053.131</ele><time>2026-05-27T19:52:14.000Z</time></trkpt>
        <trkpt lat="29.51282" lon="103.332594"><ele>3052.2476</ele><time>2026-05-27T19:52:23.000Z</time></trkpt>
        <trkpt lat="29.512867" lon="103.332582"><ele>3051.2236</ele><time>2026-05-27T19:52:30.000Z</time></trkpt>
        <trkpt lat="29.512869" lon="103.332528"><ele>3051.4683</ele><time>2026-05-27T19:52:36.000Z</time></trkpt>
        <trkpt lat="29.51288" lon="103.332473"><ele>3049.8015</ele><time>2026-05-27T19:52:47.000Z</time></trkpt>
        <trkpt lat="29.512924" lon="103.332451"><ele>3047.5771</ele><time>2026-05-27T19:52:57.000Z</time></trkpt>
        <trkpt lat="29.51296" lon="103.332418"><ele>3044.9512</ele><time>2026-05-27T19:53:04.000Z</time></trkpt>
        <trkpt lat="29.512982" lon="103.332372"><ele>3044.0303</ele><time>2026-05-27T19:53:13.000Z</time></trkpt>
        <trkpt lat="29.513021" lon="103.332334"><ele>3040.8003</ele><time>2026-05-27T19:53:22.000Z</time></trkpt>
        <trkpt lat="29.513067" lon="103.332309"><ele>3041.0547</ele><time>2026-05-27T19:53:31.000Z</time></trkpt>
        <trkpt lat="29.5131" lon="103.332273"><ele>3040.1804</ele><time>2026-05-27T19:53:37.000Z</time></trkpt>
        <trkpt lat="29.513069" lon="103.332227"><ele>3040.0352</ele><time>2026-05-27T19:53:43.000Z</time></trkpt>
        <trkpt lat="29.513042" lon="103.332181"><ele>3038.728</ele><time>2026-05-27T19:53:48.000Z</time></trkpt>
        <trkpt lat="29.51302" lon="103.332132"><ele>3036.846</ele><time>2026-05-27T19:53:54.000Z</time></trkpt>
        <trkpt lat="29.513002" lon="103.332081"><ele>3037.2937</ele><time>2026-05-27T19:54:00.000Z</time></trkpt>
        <trkpt lat="29.513009" lon="103.332028"><ele>3036.919</ele><time>2026-05-27T19:54:08.000Z</time></trkpt>
        <trkpt lat="29.51304" lon="103.33199"><ele>3035.6829</ele><time>2026-05-27T19:54:55.000Z</time></trkpt>
        <trkpt lat="29.513084" lon="103.331965"><ele>3034.8933</ele><time>2026-05-27T19:55:04.000Z</time></trkpt>
        <trkpt lat="29.513102" lon="103.331917"><ele>3034.4856</ele><time>2026-05-27T19:55:11.000Z</time></trkpt>
        <trkpt lat="29.513129" lon="103.331869"><ele>3030.5776</ele><time>2026-05-27T19:55:18.000Z</time></trkpt>
        <trkpt lat="29.513173" lon="103.331843"><ele>3029.9019</ele><time>2026-05-27T19:55:26.000Z</time></trkpt>
        <trkpt lat="29.513211" lon="103.331815"><ele>3032.6375</ele><time>2026-05-27T19:55:32.000Z</time></trkpt>
        <trkpt lat="29.513253" lon="103.331782"><ele>3031.1057</ele><time>2026-05-27T19:55:37.000Z</time></trkpt>
        <trkpt lat="29.513296" lon="103.331801"><ele>3029.2974</ele><time>2026-05-27T19:55:45.000Z</time></trkpt>
        <trkpt lat="29.513347" lon="103.331798"><ele>3034.9812</ele><time>2026-05-27T19:55:53.000Z</time></trkpt>
        <trkpt lat="29.513398" lon="103.331795"><ele>3036.4944</ele><time>2026-05-27T19:56:00.000Z</time></trkpt>
        <trkpt lat="29.513447" lon="103.331786"><ele>3032.8635</ele><time>2026-05-27T19:56:08.000Z</time></trkpt>
        <trkpt lat="29.513485" lon="103.331756"><ele>3033.075</ele><time>2026-05-27T19:56:13.000Z</time></trkpt>
        <trkpt lat="29.513506" lon="103.331708"><ele>3032.2295</ele><time>2026-05-27T19:56:17.000Z</time></trkpt>
        <trkpt lat="29.513546" lon="103.331684"><ele>3035.9136</ele><time>2026-05-27T19:56:23.000Z</time></trkpt>
        <trkpt lat="29.51359" lon="103.331658"><ele>3035.9978</ele><time>2026-05-27T19:56:32.000Z</time></trkpt>
        <trkpt lat="29.513597" lon="103.331597"><ele>3035.699</ele><time>2026-05-27T19:56:38.000Z</time></trkpt>
        <trkpt lat="29.513611" lon="103.331537"><ele>3037.397</ele><time>2026-05-27T19:56:45.000Z</time></trkpt>
        <trkpt lat="29.513617" lon="103.331482"><ele>3038.169</ele><time>2026-05-27T19:56:54.000Z</time></trkpt>
        <trkpt lat="29.513654" lon="103.331447"><ele>3039.3638</ele><time>2026-05-27T19:57:22.000Z</time></trkpt>
        <trkpt lat="29.513618" lon="103.331395"><ele>3038.9854</ele><time>2026-05-27T19:57:48.000Z</time></trkpt>
        <trkpt lat="29.513662" lon="103.331363"><ele>3037.3933</ele><time>2026-05-27T19:57:52.000Z</time></trkpt>
        <trkpt lat="29.513674" lon="103.331313"><ele>3037.2776</ele><time>2026-05-27T19:58:01.000Z</time></trkpt>
        <trkpt lat="29.513709" lon="103.331272"><ele>3040.472</ele><time>2026-05-27T19:58:08.000Z</time></trkpt>
        <trkpt lat="29.513752" lon="103.331247"><ele>3043.309</ele><time>2026-05-27T19:58:16.000Z</time></trkpt>
        <trkpt lat="29.513798" lon="103.331228"><ele>3039.6523</ele><time>2026-05-27T19:58:24.000Z</time></trkpt>
        <trkpt lat="29.513843" lon="103.331208"><ele>3038.5078</ele><time>2026-05-27T19:58:31.000Z</time></trkpt>
        <trkpt lat="29.513885" lon="103.331179"><ele>3038.4297</ele><time>2026-05-27T19:58:37.000Z</time></trkpt>
        <trkpt lat="29.513935" lon="103.331148"><ele>3038.5862</ele><time>2026-05-27T19:58:41.000Z</time></trkpt>
        <trkpt lat="29.513981" lon="103.331145"><ele>3036.5308</ele><time>2026-05-27T19:58:49.000Z</time></trkpt>
        <trkpt lat="29.51402" lon="103.331177"><ele>3036.378</ele><time>2026-05-27T19:58:54.000Z</time></trkpt>
        <trkpt lat="29.514063" lon="103.331164"><ele>3034.6885</ele><time>2026-05-27T19:59:00.000Z</time></trkpt>
        <trkpt lat="29.514111" lon="103.331159"><ele>3037.5881</ele><time>2026-05-27T19:59:05.000Z</time></trkpt>
        <trkpt lat="29.514161" lon="103.331153"><ele>3037.135</ele><time>2026-05-27T19:59:20.000Z</time></trkpt>
        <trkpt lat="29.514214" lon="103.331154"><ele>3039.6565</ele><time>2026-05-27T19:59:27.000Z</time></trkpt>
        <trkpt lat="29.514262" lon="103.331156"><ele>3040.5913</ele><time>2026-05-27T19:59:34.000Z</time></trkpt>
        <trkpt lat="29.514307" lon="103.331171"><ele>3040.5388</ele><time>2026-05-27T19:59:41.000Z</time></trkpt>
        <trkpt lat="29.514359" lon="103.331182"><ele>3041.7178</ele><time>2026-05-27T19:59:49.000Z</time></trkpt>
        <trkpt lat="29.514405" lon="103.331202"><ele>3036.9927</ele><time>2026-05-27T19:59:57.000Z</time></trkpt>
        <trkpt lat="29.514454" lon="103.331196"><ele>3039.1736</ele><time>2026-05-27T20:00:03.000Z</time></trkpt>
        <trkpt lat="29.514504" lon="103.331197"><ele>3038.7925</ele><time>2026-05-27T20:00:12.000Z</time></trkpt>
        <trkpt lat="29.514552" lon="103.331225"><ele>3036.1265</ele><time>2026-05-27T20:00:18.000Z</time></trkpt>
        <trkpt lat="29.514592" lon="103.331257"><ele>3039.3154</ele><time>2026-05-27T20:00:22.000Z</time></trkpt>
        <trkpt lat="29.514651" lon="103.331269"><ele>3041.2769</ele><time>2026-05-27T20:00:28.000Z</time></trkpt>
        <trkpt lat="29.514702" lon="103.331291"><ele>3040.313</ele><time>2026-05-27T20:00:32.000Z</time></trkpt>
        <trkpt lat="29.514731" lon="103.331338"><ele>3041.6956</ele><time>2026-05-27T20:00:37.000Z</time></trkpt>
        <trkpt lat="29.514763" lon="103.331375"><ele>3041.9802</ele><time>2026-05-27T20:00:44.000Z</time></trkpt>
        <trkpt lat="29.514796" lon="103.331418"><ele>3041.5376</ele><time>2026-05-27T20:00:49.000Z</time></trkpt>
        <trkpt lat="29.514845" lon="103.331441"><ele>3041.135</ele><time>2026-05-27T20:00:55.000Z</time></trkpt>
        <trkpt lat="29.514898" lon="103.331458"><ele>3041.4146</ele><time>2026-05-27T20:01:00.000Z</time></trkpt>
        <trkpt lat="29.514945" lon="103.33145"><ele>3039.8071</ele><time>2026-05-27T20:01:04.000Z</time></trkpt>
        <trkpt lat="29.514992" lon="103.33144"><ele>3039.748</ele><time>2026-05-27T20:01:18.000Z</time></trkpt>
        <trkpt lat="29.515042" lon="103.33143"><ele>3037.967</ele><time>2026-05-27T20:01:23.000Z</time></trkpt>
        <trkpt lat="29.515093" lon="103.331428"><ele>3037.4438</ele><time>2026-05-27T20:01:28.000Z</time></trkpt>
        <trkpt lat="29.515142" lon="103.331424"><ele>3036.2852</ele><time>2026-05-27T20:01:32.000Z</time></trkpt>
        <trkpt lat="29.515195" lon="103.331412"><ele>3036.1443</ele><time>2026-05-27T20:01:37.000Z</time></trkpt>
        <trkpt lat="29.515244" lon="103.331415"><ele>3037.8616</ele><time>2026-05-27T20:01:43.000Z</time></trkpt>
        <trkpt lat="29.515293" lon="103.331409"><ele>3041.6855</ele><time>2026-05-27T20:01:50.000Z</time></trkpt>
        <trkpt lat="29.51534" lon="103.331411"><ele>3043.826</ele><time>2026-05-27T20:01:56.000Z</time></trkpt>
        <trkpt lat="29.515393" lon="103.331411"><ele>3043.1099</ele><time>2026-05-27T20:02:01.000Z</time></trkpt>
        <trkpt lat="29.515443" lon="103.331413"><ele>3039.738</ele><time>2026-05-27T20:02:07.000Z</time></trkpt>
        <trkpt lat="29.515495" lon="103.331422"><ele>3040.7844</ele><time>2026-05-27T20:02:12.000Z</time></trkpt>
        <trkpt lat="29.515541" lon="103.331446"><ele>3042.6094</ele><time>2026-05-27T20:02:20.000Z</time></trkpt>
        <trkpt lat="29.515592" lon="103.331464"><ele>3040.806</ele><time>2026-05-27T20:02:25.000Z</time></trkpt>
        <trkpt lat="29.51564" lon="103.331478"><ele>3038.7747</ele><time>2026-05-27T20:02:29.000Z</time></trkpt>
        <trkpt lat="29.515686" lon="103.331521"><ele>3036.5635</ele><time>2026-05-27T20:02:34.000Z</time></trkpt>
        <trkpt lat="29.515717" lon="103.331564"><ele>3038.1096</ele><time>2026-05-27T20:02:41.000Z</time></trkpt>
        <trkpt lat="29.515764" lon="103.331555"><ele>3035.9246</ele><time>2026-05-27T20:02:56.000Z</time></trkpt>
        <trkpt lat="29.515792" lon="103.331514"><ele>3034.868</ele><time>2026-05-27T20:03:13.000Z</time></trkpt>
        <trkpt lat="29.515746" lon="103.331513"><ele>3034.083</ele><time>2026-05-27T20:03:56.000Z</time></trkpt>
        <trkpt lat="29.515779" lon="103.331554"><ele>3034.497</ele><time>2026-05-27T20:04:12.000Z</time></trkpt>
        <trkpt lat="29.515822" lon="103.331578"><ele>3035.413</ele><time>2026-05-27T20:04:18.000Z</time></trkpt>
        <trkpt lat="29.515844" lon="103.331627"><ele>3034.256</ele><time>2026-05-27T20:04:22.000Z</time></trkpt>
        <trkpt lat="29.515878" lon="103.331673"><ele>3037.597</ele><time>2026-05-27T20:04:29.000Z</time></trkpt>
        <trkpt lat="29.515915" lon="103.331719"><ele>3038.4292</ele><time>2026-05-27T20:04:35.000Z</time></trkpt>
        <trkpt lat="29.515945" lon="103.331765"><ele>3038.924</ele><time>2026-05-27T20:04:40.000Z</time></trkpt>
        <trkpt lat="29.515969" lon="103.331821"><ele>3037.6675</ele><time>2026-05-27T20:04:46.000Z</time></trkpt>
        <trkpt lat="29.515998" lon="103.331861"><ele>3038.0469</ele><time>2026-05-27T20:04:52.000Z</time></trkpt>
        <trkpt lat="29.516027" lon="103.331907"><ele>3038.3533</ele><time>2026-05-27T20:04:58.000Z</time></trkpt>
        <trkpt lat="29.516047" lon="103.33196"><ele>3039.3174</ele><time>2026-05-27T20:05:05.000Z</time></trkpt>
        <trkpt lat="29.516068" lon="103.332006"><ele>3041.337</ele><time>2026-05-27T20:05:14.000Z</time></trkpt>
        <trkpt lat="29.51609" lon="103.332056"><ele>3037.8555</ele><time>2026-05-27T20:05:30.000Z</time></trkpt>
        <trkpt lat="29.516113" lon="103.332102"><ele>3033.92</ele><time>2026-05-27T20:05:40.000Z</time></trkpt>
        <trkpt lat="29.516132" lon="103.332149"><ele>3032.1565</ele><time>2026-05-27T20:05:50.000Z</time></trkpt>
        <trkpt lat="29.516167" lon="103.332184"><ele>3032.2622</ele><time>2026-05-27T20:05:53.000Z</time></trkpt>
        <trkpt lat="29.516212" lon="103.332211"><ele>3032.4126</ele><time>2026-05-27T20:05:58.000Z</time></trkpt>
        <trkpt lat="29.516237" lon="103.332257"><ele>3034.208</ele><time>2026-05-27T20:06:01.000Z</time></trkpt>
        <trkpt lat="29.516268" lon="103.3323"><ele>3034.3728</ele><time>2026-05-27T20:06:09.000Z</time></trkpt>
        <trkpt lat="29.516282" lon="103.33235"><ele>3034.0417</ele><time>2026-05-27T20:06:12.000Z</time></trkpt>
        <trkpt lat="29.516308" lon="103.332393"><ele>3031.498</ele><time>2026-05-27T20:06:17.000Z</time></trkpt>
        <trkpt lat="29.516352" lon="103.332403"><ele>3033.531</ele><time>2026-05-27T20:06:27.000Z</time></trkpt>
        <trkpt lat="29.516376" lon="103.332464"><ele>3033.9976</ele><time>2026-05-27T20:06:32.000Z</time></trkpt>
        <trkpt lat="29.516403" lon="103.332514"><ele>3032.6882</ele><time>2026-05-27T20:06:38.000Z</time></trkpt>
        <trkpt lat="29.516419" lon="103.332564"><ele>3027.994</ele><time>2026-05-27T20:06:50.000Z</time></trkpt>
        <trkpt lat="29.516461" lon="103.33259"><ele>3027.5615</ele><time>2026-05-27T20:06:54.000Z</time></trkpt>
        <trkpt lat="29.516501" lon="103.332628"><ele>3029.627</ele><time>2026-05-27T20:07:00.000Z</time></trkpt>
        <trkpt lat="29.516515" lon="103.332679"><ele>3026.7058</ele><time>2026-05-27T20:07:11.000Z</time></trkpt>
        <trkpt lat="29.516549" lon="103.332728"><ele>3024.387</ele><time>2026-05-27T20:07:17.000Z</time></trkpt>
        <trkpt lat="29.516579" lon="103.332769"><ele>3024.9988</ele><time>2026-05-27T20:07:22.000Z</time></trkpt>
        <trkpt lat="29.516612" lon="103.332807"><ele>3024.2678</ele><time>2026-05-27T20:07:28.000Z</time></trkpt>
        <trkpt lat="29.516633" lon="103.332858"><ele>3020.9663</ele><time>2026-05-27T20:07:40.000Z</time></trkpt>
        <trkpt lat="29.516669" lon="103.332891"><ele>3021.0732</ele><time>2026-05-27T20:07:44.000Z</time></trkpt>
        <trkpt lat="29.516707" lon="103.332933"><ele>3018.024</ele><time>2026-05-27T20:07:51.000Z</time></trkpt>
        <trkpt lat="29.516744" lon="103.332975"><ele>3015.0212</ele><time>2026-05-27T20:07:58.000Z</time></trkpt>
        <trkpt lat="29.516787" lon="103.333002"><ele>3015.5615</ele><time>2026-05-27T20:08:06.000Z</time></trkpt>
        <trkpt lat="29.516835" lon="103.333028"><ele>3013.4753</ele><time>2026-05-27T20:08:11.000Z</time></trkpt>
        <trkpt lat="29.516878" lon="103.333046"><ele>3012.6086</ele><time>2026-05-27T20:08:15.000Z</time></trkpt>
        <trkpt lat="29.516919" lon="103.333073"><ele>3011.2346</ele><time>2026-05-27T20:08:19.000Z</time></trkpt>
        <trkpt lat="29.516963" lon="103.333097"><ele>3009.1533</ele><time>2026-05-27T20:08:24.000Z</time></trkpt>
        <trkpt lat="29.51702" lon="103.333096"><ele>3008.78</ele><time>2026-05-27T20:08:30.000Z</time></trkpt>
        <trkpt lat="29.517065" lon="103.333077"><ele>3007.5247</ele><time>2026-05-27T20:08:37.000Z</time></trkpt>
        <trkpt lat="29.51712" lon="103.333078"><ele>3009.7683</ele><time>2026-05-27T20:08:41.000Z</time></trkpt>
        <trkpt lat="29.517168" lon="103.333071"><ele>3009.7354</ele><time>2026-05-27T20:08:44.000Z</time></trkpt>
        <trkpt lat="29.517215" lon="103.333049"><ele>3009.9653</ele><time>2026-05-27T20:08:49.000Z</time></trkpt>
        <trkpt lat="29.517262" lon="103.333037"><ele>3010.4211</ele><time>2026-05-27T20:08:53.000Z</time></trkpt>
        <trkpt lat="29.517314" lon="103.333011"><ele>3011.7185</ele><time>2026-05-27T20:08:57.000Z</time></trkpt>
        <trkpt lat="29.517357" lon="103.332975"><ele>3011.8914</ele><time>2026-05-27T20:09:02.000Z</time></trkpt>
        <trkpt lat="29.517402" lon="103.332946"><ele>3013.5002</ele><time>2026-05-27T20:09:06.000Z</time></trkpt>
        <trkpt lat="29.51745" lon="103.33293"><ele>3012.9678</ele><time>2026-05-27T20:09:12.000Z</time></trkpt>
        <trkpt lat="29.517496" lon="103.332903"><ele>3014.6604</ele><time>2026-05-27T20:09:17.000Z</time></trkpt>
        <trkpt lat="29.51753" lon="103.332868"><ele>3015.667</ele><time>2026-05-27T20:09:23.000Z</time></trkpt>
        <trkpt lat="29.517566" lon="103.332835"><ele>3015.4612</ele><time>2026-05-27T20:09:29.000Z</time></trkpt>
        <trkpt lat="29.5176" lon="103.332795"><ele>3014.1333</ele><time>2026-05-27T20:09:35.000Z</time></trkpt>
        <trkpt lat="29.517621" lon="103.332748"><ele>3015.724</ele><time>2026-05-27T20:09:41.000Z</time></trkpt>
        <trkpt lat="29.517654" lon="103.3327"><ele>3016.148</ele><time>2026-05-27T20:09:47.000Z</time></trkpt>
        <trkpt lat="29.517694" lon="103.332668"><ele>3016.8943</ele><time>2026-05-27T20:09:52.000Z</time></trkpt>
        <trkpt lat="29.517728" lon="103.332631"><ele>3018.6765</ele><time>2026-05-27T20:09:56.000Z</time></trkpt>
        <trkpt lat="29.517776" lon="103.332602"><ele>3020.4841</ele><time>2026-05-27T20:10:02.000Z</time></trkpt>
        <trkpt lat="29.517817" lon="103.33256"><ele>3018.7275</ele><time>2026-05-27T20:10:06.000Z</time></trkpt>
        <trkpt lat="29.517842" lon="103.332516"><ele>3020.827</ele><time>2026-05-27T20:10:11.000Z</time></trkpt>
        <trkpt lat="29.517883" lon="103.33249"><ele>3018.432</ele><time>2026-05-27T20:10:15.000Z</time></trkpt>
        <trkpt lat="29.517928" lon="103.332487"><ele>3022.6924</ele><time>2026-05-27T20:10:23.000Z</time></trkpt>
        <trkpt lat="29.517967" lon="103.332454"><ele>3018.6287</ele><time>2026-05-27T20:10:27.000Z</time></trkpt>
        <trkpt lat="29.518009" lon="103.332423"><ele>3019.3174</ele><time>2026-05-27T20:10:33.000Z</time></trkpt>
        <trkpt lat="29.518061" lon="103.332406"><ele>3019.6038</ele><time>2026-05-27T20:10:40.000Z</time></trkpt>
        <trkpt lat="29.518107" lon="103.332414"><ele>3019.9963</ele><time>2026-05-27T20:10:47.000Z</time></trkpt>
        <trkpt lat="29.518161" lon="103.33242"><ele>3018.9944</ele><time>2026-05-27T20:10:53.000Z</time></trkpt>
        <trkpt lat="29.51821" lon="103.332427"><ele>3017.3716</ele><time>2026-05-27T20:10:59.000Z</time></trkpt>
        <trkpt lat="29.518253" lon="103.332454"><ele>3016.9487</ele><time>2026-05-27T20:11:05.000Z</time></trkpt>
        <trkpt lat="29.518284" lon="103.332495"><ele>3016.174</ele><time>2026-05-27T20:11:11.000Z</time></trkpt>
        <trkpt lat="29.5183" lon="103.332559"><ele>3017.8516</ele><time>2026-05-27T20:11:17.000Z</time></trkpt>
        <trkpt lat="29.51835" lon="103.332582"><ele>3016.5605</ele><time>2026-05-27T20:11:23.000Z</time></trkpt>
        <trkpt lat="29.518385" lon="103.332624"><ele>3017.0635</ele><time>2026-05-27T20:11:29.000Z</time></trkpt>
        <trkpt lat="29.518416" lon="103.332662"><ele>3015.3591</ele><time>2026-05-27T20:11:35.000Z</time></trkpt>
        <trkpt lat="29.518456" lon="103.332693"><ele>3015.971</ele><time>2026-05-27T20:11:39.000Z</time></trkpt>
        <trkpt lat="29.518492" lon="103.332731"><ele>3015.143</ele><time>2026-05-27T20:11:45.000Z</time></trkpt>
        <trkpt lat="29.518528" lon="103.332771"><ele>3015.012</ele><time>2026-05-27T20:11:49.000Z</time></trkpt>
        <trkpt lat="29.518566" lon="103.332811"><ele>3015.67</ele><time>2026-05-27T20:11:55.000Z</time></trkpt>
        <trkpt lat="29.518615" lon="103.332834"><ele>3014.9692</ele><time>2026-05-27T20:11:59.000Z</time></trkpt>
        <trkpt lat="29.518664" lon="103.332847"><ele>3014.062</ele><time>2026-05-27T20:12:02.000Z</time></trkpt>
        <trkpt lat="29.518708" lon="103.332873"><ele>3015.2913</ele><time>2026-05-27T20:12:07.000Z</time></trkpt>
        <trkpt lat="29.518757" lon="103.332898"><ele>3014.5967</ele><time>2026-05-27T20:12:14.000Z</time></trkpt>
        <trkpt lat="29.518804" lon="103.332906"><ele>3012.4548</ele><time>2026-05-27T20:12:22.000Z</time></trkpt>
        <trkpt lat="29.518853" lon="103.332915"><ele>3013.8245</ele><time>2026-05-27T20:12:30.000Z</time></trkpt>
        <trkpt lat="29.518897" lon="103.332945"><ele>3010.051</ele><time>2026-05-27T20:12:39.000Z</time></trkpt>
        <trkpt lat="29.518942" lon="103.332964"><ele>3007.6929</ele><time>2026-05-27T20:12:52.000Z</time></trkpt>
        <trkpt lat="29.518993" lon="103.332981"><ele>3008.7046</ele><time>2026-05-27T20:12:59.000Z</time></trkpt>
        <trkpt lat="29.519044" lon="103.332996"><ele>3006.8037</ele><time>2026-05-27T20:13:04.000Z</time></trkpt>
        <trkpt lat="29.519088" lon="103.333015"><ele>3007.0918</ele><time>2026-05-27T20:13:08.000Z</time></trkpt>
        <trkpt lat="29.519129" lon="103.33304"><ele>3011.6262</ele><time>2026-05-27T20:13:16.000Z</time></trkpt>
        <trkpt lat="29.519136" lon="103.333095"><ele>3011.446</ele><time>2026-05-27T20:13:27.000Z</time></trkpt>
        <trkpt lat="29.519143" lon="103.333147"><ele>3009.7751</ele><time>2026-05-27T20:13:36.000Z</time></trkpt>
        <trkpt lat="29.519155" lon="103.333206"><ele>3011.2537</ele><time>2026-05-27T20:13:46.000Z</time></trkpt>
        <trkpt lat="29.519164" lon="103.333257"><ele>3014.3691</ele><time>2026-05-27T20:13:55.000Z</time></trkpt>
        <trkpt lat="29.519177" lon="103.33331"><ele>3014.0398</ele><time>2026-05-27T20:14:05.000Z</time></trkpt>
        <trkpt lat="29.519185" lon="103.333368"><ele>3016.9878</ele><time>2026-05-27T20:14:13.000Z</time></trkpt>
        <trkpt lat="29.519225" lon="103.333395"><ele>3020.0645</ele><time>2026-05-27T20:14:28.000Z</time></trkpt>
        <trkpt lat="29.519253" lon="103.33335"><ele>3019.925</ele><time>2026-05-27T20:14:42.000Z</time></trkpt>
        <trkpt lat="29.519219" lon="103.333391"><ele>3017.2615</ele><time>2026-05-27T20:16:51.000Z</time></trkpt>
        <trkpt lat="29.51921" lon="103.333442"><ele>3017.712</ele><time>2026-05-27T20:17:01.000Z</time></trkpt>
        <trkpt lat="29.519253" lon="103.333463"><ele>3015.0764</ele><time>2026-05-27T20:17:09.000Z</time></trkpt>
        <trkpt lat="29.519298" lon="103.333477"><ele>3009.0215</ele><time>2026-05-27T20:17:22.000Z</time></trkpt>
        <trkpt lat="29.519342" lon="103.333509"><ele>3008.6453</ele><time>2026-05-27T20:17:33.000Z</time></trkpt>
        <trkpt lat="29.519389" lon="103.333532"><ele>3007.2046</ele><time>2026-05-27T20:17:44.000Z</time></trkpt>
        <trkpt lat="29.519436" lon="103.333555"><ele>3006.5642</ele><time>2026-05-27T20:18:54.000Z</time></trkpt>
        <trkpt lat="29.519487" lon="103.33357"><ele>3005.0833</ele><time>2026-05-27T20:19:01.000Z</time></trkpt>
        <trkpt lat="29.519527" lon="103.333598"><ele>3005.8042</ele><time>2026-05-27T20:19:09.000Z</time></trkpt>
        <trkpt lat="29.519556" lon="103.333642"><ele>3006.207</ele><time>2026-05-27T20:19:17.000Z</time></trkpt>
        <trkpt lat="29.519568" lon="103.333697"><ele>3001.7874</ele><time>2026-05-27T20:19:30.000Z</time></trkpt>
        <trkpt lat="29.519585" lon="103.33375"><ele>3001.8474</ele><time>2026-05-27T20:19:39.000Z</time></trkpt>
        <trkpt lat="29.519628" lon="103.333772"><ele>2997.4077</ele><time>2026-05-27T20:20:14.000Z</time></trkpt>
        <trkpt lat="29.519665" lon="103.333815"><ele>2994.0725</ele><time>2026-05-27T20:20:21.000Z</time></trkpt>
        <trkpt lat="29.519701" lon="103.33386"><ele>2991.7292</ele><time>2026-05-27T20:20:25.000Z</time></trkpt>
        <trkpt lat="29.519723" lon="103.333906"><ele>2992.9902</ele><time>2026-05-27T20:20:29.000Z</time></trkpt>
        <trkpt lat="29.519749" lon="103.333957"><ele>2991.9531</ele><time>2026-05-27T20:20:47.000Z</time></trkpt>
        <trkpt lat="29.519782" lon="103.33401"><ele>2996.2622</ele><time>2026-05-27T20:20:55.000Z</time></trkpt>
        <trkpt lat="29.519824" lon="103.334048"><ele>2995.5166</ele><time>2026-05-27T20:21:01.000Z</time></trkpt>
        <trkpt lat="29.519858" lon="103.334093"><ele>2993.412</ele><time>2026-05-27T20:21:06.000Z</time></trkpt>
        <trkpt lat="29.519887" lon="103.33414"><ele>2992.617</ele><time>2026-05-27T20:21:10.000Z</time></trkpt>
        <trkpt lat="29.519919" lon="103.334187"><ele>2993.156</ele><time>2026-05-27T20:21:15.000Z</time></trkpt>
        <trkpt lat="29.51996" lon="103.334217"><ele>2996.1458</ele><time>2026-05-27T20:21:21.000Z</time></trkpt>
        <trkpt lat="29.520012" lon="103.33425"><ele>2999.1948</ele><time>2026-05-27T20:21:29.000Z</time></trkpt>
        <trkpt lat="29.520054" lon="103.334278"><ele>3000.7368</ele><time>2026-05-27T20:21:36.000Z</time></trkpt>
        <trkpt lat="29.520098" lon="103.334298"><ele>3004.7974</ele><time>2026-05-27T20:21:48.000Z</time></trkpt>
        <trkpt lat="29.520143" lon="103.334318"><ele>3004.9355</ele><time>2026-05-27T20:21:56.000Z</time></trkpt>
        <trkpt lat="29.520187" lon="103.334346"><ele>3007.5942</ele><time>2026-05-27T20:22:07.000Z</time></trkpt>
        <trkpt lat="29.520231" lon="103.334364"><ele>3009.6108</ele><time>2026-05-27T20:23:05.000Z</time></trkpt>
        <trkpt lat="29.520273" lon="103.334395"><ele>3008.5168</ele><time>2026-05-27T20:23:16.000Z</time></trkpt>
        <trkpt lat="29.520319" lon="103.334404"><ele>3012.0427</ele><time>2026-05-27T20:23:30.000Z</time></trkpt>
        <trkpt lat="29.520362" lon="103.334424"><ele>3017.2358</ele><time>2026-05-27T20:23:40.000Z</time></trkpt>
        <trkpt lat="29.520408" lon="103.33444"><ele>3012.183</ele><time>2026-05-27T20:23:55.000Z</time></trkpt>
        <trkpt lat="29.520451" lon="103.334456"><ele>3012.653</ele><time>2026-05-27T20:24:05.000Z</time></trkpt>
        <trkpt lat="29.520498" lon="103.334442"><ele>3011.464</ele><time>2026-05-27T20:24:19.000Z</time></trkpt>
        <trkpt lat="29.520548" lon="103.334432"><ele>3012.4287</ele><time>2026-05-27T20:24:31.000Z</time></trkpt>
        <trkpt lat="29.520596" lon="103.334454"><ele>3012.966</ele><time>2026-05-27T20:24:37.000Z</time></trkpt>
        <trkpt lat="29.520641" lon="103.334463"><ele>3019.9111</ele><time>2026-05-27T20:24:53.000Z</time></trkpt>
        <trkpt lat="29.520689" lon="103.334477"><ele>3025.7498</ele><time>2026-05-27T20:25:24.000Z</time></trkpt>
        <trkpt lat="29.52072" lon="103.334531"><ele>3022.949</ele><time>2026-05-27T20:25:28.000Z</time></trkpt>
        <trkpt lat="29.520756" lon="103.334499"><ele>3023.4993</ele><time>2026-05-27T20:25:35.000Z</time></trkpt>
        <trkpt lat="29.520805" lon="103.334489"><ele>3022.5132</ele><time>2026-05-27T20:25:44.000Z</time></trkpt>
        <trkpt lat="29.520857" lon="103.334486"><ele>3023.1921</ele><time>2026-05-27T20:25:55.000Z</time></trkpt>
        <trkpt lat="29.520902" lon="103.334498"><ele>3021.3992</ele><time>2026-05-27T20:26:06.000Z</time></trkpt>
        <trkpt lat="29.520949" lon="103.334485"><ele>3020.207</ele><time>2026-05-27T20:26:15.000Z</time></trkpt>
        <trkpt lat="29.520994" lon="103.334452"><ele>3024.9026</ele><time>2026-05-27T20:26:27.000Z</time></trkpt>
        <trkpt lat="29.521035" lon="103.33442"><ele>3026.5603</ele><time>2026-05-27T20:26:39.000Z</time></trkpt>
        <trkpt lat="29.521088" lon="103.334412"><ele>3023.1292</ele><time>2026-05-27T20:26:45.000Z</time></trkpt>
        <trkpt lat="29.521136" lon="103.33442"><ele>3025.451</ele><time>2026-05-27T20:26:52.000Z</time></trkpt>
        <trkpt lat="29.521172" lon="103.334372"><ele>3030.1143</ele><time>2026-05-27T20:27:02.000Z</time></trkpt>
        <trkpt lat="29.521218" lon="103.334366"><ele>3025.4365</ele><time>2026-05-27T20:27:15.000Z</time></trkpt>
        <trkpt lat="29.521246" lon="103.33432"><ele>3031.1284</ele><time>2026-05-27T20:27:38.000Z</time></trkpt>
        <trkpt lat="29.521291" lon="103.334299"><ele>3030.801</ele><time>2026-05-27T20:27:51.000Z</time></trkpt>
        <trkpt lat="29.521338" lon="103.334282"><ele>3027.075</ele><time>2026-05-27T20:28:01.000Z</time></trkpt>
        <trkpt lat="29.521378" lon="103.334313"><ele>3032.7546</ele><time>2026-05-27T20:28:38.000Z</time></trkpt>
        <trkpt lat="29.521413" lon="103.33427"><ele>3028.6223</ele><time>2026-05-27T20:28:51.000Z</time></trkpt>
        <trkpt lat="29.521465" lon="103.334248"><ele>3028.8298</ele><time>2026-05-27T20:28:59.000Z</time></trkpt>
        <trkpt lat="29.5215" lon="103.334216"><ele>3029.0283</ele><time>2026-05-27T20:29:10.000Z</time></trkpt>
        <trkpt lat="29.521532" lon="103.334176"><ele>3034.7004</ele><time>2026-05-27T20:29:24.000Z</time></trkpt>
        <trkpt lat="29.521582" lon="103.334187"><ele>3032.1565</ele><time>2026-05-27T20:29:38.000Z</time></trkpt>
        <trkpt lat="29.521627" lon="103.334199"><ele>3037.9502</ele><time>2026-05-27T20:29:51.000Z</time></trkpt>
        <trkpt lat="29.52166" lon="103.334235"><ele>3039.9836</ele><time>2026-05-27T20:30:09.000Z</time></trkpt>
        <trkpt lat="29.521681" lon="103.334283"><ele>3042.4114</ele><time>2026-05-27T20:30:21.000Z</time></trkpt>
        <trkpt lat="29.521712" lon="103.334332"><ele>3043.6228</ele><time>2026-05-27T20:30:30.000Z</time></trkpt>
        <trkpt lat="29.521744" lon="103.334372"><ele>3046.5876</ele><time>2026-05-27T20:30:40.000Z</time></trkpt>
        <trkpt lat="29.52178" lon="103.334422"><ele>3049.35</ele><time>2026-05-27T20:30:47.000Z</time></trkpt>
        <trkpt lat="29.521817" lon="103.334459"><ele>3048.891</ele><time>2026-05-27T20:30:54.000Z</time></trkpt>
        <trkpt lat="29.521855" lon="103.334489"><ele>3049.8145</ele><time>2026-05-27T20:31:04.000Z</time></trkpt>
        <trkpt lat="29.521898" lon="103.334508"><ele>3048.9285</ele><time>2026-05-27T20:31:11.000Z</time></trkpt>
        <trkpt lat="29.521948" lon="103.334513"><ele>3047.4944</ele><time>2026-05-27T20:31:18.000Z</time></trkpt>
        <trkpt lat="29.521987" lon="103.334548"><ele>3048.1245</ele><time>2026-05-27T20:31:29.000Z</time></trkpt>
        <trkpt lat="29.52202" lon="103.334587"><ele>3049.5027</ele><time>2026-05-27T20:31:38.000Z</time></trkpt>
        <trkpt lat="29.522058" lon="103.334616"><ele>3050.454</ele><time>2026-05-27T20:31:43.000Z</time></trkpt>
        <trkpt lat="29.522099" lon="103.334651"><ele>3052.155</ele><time>2026-05-27T20:31:49.000Z</time></trkpt>
        <trkpt lat="29.522143" lon="103.334676"><ele>3051.956</ele><time>2026-05-27T20:31:55.000Z</time></trkpt>
        <trkpt lat="29.522185" lon="103.3347"><ele>3053.2122</ele><time>2026-05-27T20:32:03.000Z</time></trkpt>
        <trkpt lat="29.522226" lon="103.334674"><ele>3053.8909</ele><time>2026-05-27T20:32:19.000Z</time></trkpt>
        <trkpt lat="29.522268" lon="103.334704"><ele>3051.0151</ele><time>2026-05-27T20:33:04.000Z</time></trkpt>
        <trkpt lat="29.522315" lon="103.33471"><ele>3052.3247</ele><time>2026-05-27T20:34:15.000Z</time></trkpt>
        <trkpt lat="29.52236" lon="103.334717"><ele>3053.0762</ele><time>2026-05-27T20:34:21.000Z</time></trkpt>
        <trkpt lat="29.522408" lon="103.334726"><ele>3051.1882</ele><time>2026-05-27T20:34:57.000Z</time></trkpt>
        <trkpt lat="29.522456" lon="103.334748"><ele>3052.797</ele><time>2026-05-27T20:35:03.000Z</time></trkpt>
        <trkpt lat="29.522509" lon="103.334756"><ele>3050.1228</ele><time>2026-05-27T20:35:08.000Z</time></trkpt>
        <trkpt lat="29.522561" lon="103.334742"><ele>3051.2188</ele><time>2026-05-27T20:35:15.000Z</time></trkpt>
        <trkpt lat="29.522615" lon="103.33474"><ele>3050.9714</ele><time>2026-05-27T20:35:20.000Z</time></trkpt>
        <trkpt lat="29.522665" lon="103.334735"><ele>3050.0352</ele><time>2026-05-27T20:35:25.000Z</time></trkpt>
        <trkpt lat="29.522716" lon="103.334735"><ele>3047.1787</ele><time>2026-05-27T20:35:30.000Z</time></trkpt>
        <trkpt lat="29.522763" lon="103.334717"><ele>3047.496</ele><time>2026-05-27T20:35:36.000Z</time></trkpt>
        <trkpt lat="29.522821" lon="103.334712"><ele>3048.2534</ele><time>2026-05-27T20:35:41.000Z</time></trkpt>
        <trkpt lat="29.522877" lon="103.334704"><ele>3045.6772</ele><time>2026-05-27T20:35:47.000Z</time></trkpt>
        <trkpt lat="29.52293" lon="103.3347"><ele>3044.4988</ele><time>2026-05-27T20:35:51.000Z</time></trkpt>
        <trkpt lat="29.522882" lon="103.334728"><ele>3046.0435</ele><time>2026-05-27T20:36:28.000Z</time></trkpt>
        <trkpt lat="29.522827" lon="103.334748"><ele>3044.7737</ele><time>2026-05-27T20:36:37.000Z</time></trkpt>
        <trkpt lat="29.522787" lon="103.334776"><ele>3043.772</ele><time>2026-05-27T20:36:44.000Z</time></trkpt>
        <trkpt lat="29.522741" lon="103.334791"><ele>3043.3782</ele><time>2026-05-27T20:36:51.000Z</time></trkpt>
        <trkpt lat="29.52271" lon="103.334834"><ele>3044.3816</ele><time>2026-05-27T20:37:00.000Z</time></trkpt>
        <trkpt lat="29.522685" lon="103.334878"><ele>3048.384</ele><time>2026-05-27T20:37:48.000Z</time></trkpt>
        <trkpt lat="29.522677" lon="103.334931"><ele>3049.401</ele><time>2026-05-27T20:38:05.000Z</time></trkpt>
        <trkpt lat="29.522678" lon="103.33499"><ele>3047.5151</ele><time>2026-05-27T20:38:14.000Z</time></trkpt>
        <trkpt lat="29.522685" lon="103.335044"><ele>3048.9507</ele><time>2026-05-27T20:38:22.000Z</time></trkpt>
        <trkpt lat="29.522714" lon="103.335091"><ele>3049.303</ele><time>2026-05-27T20:38:34.000Z</time></trkpt>
        <trkpt lat="29.522732" lon="103.335139"><ele>3050.9832</ele><time>2026-05-27T20:38:42.000Z</time></trkpt>
        <trkpt lat="29.522749" lon="103.33519"><ele>3051.2263</ele><time>2026-05-27T20:38:56.000Z</time></trkpt>
        <trkpt lat="29.52278" lon="103.335228"><ele>3054.078</ele><time>2026-05-27T20:46:48.000Z</time></trkpt>
        <trkpt lat="29.522808" lon="103.335269"><ele>3056.8452</ele><time>2026-05-27T20:47:27.000Z</time></trkpt>
        <trkpt lat="29.522819" lon="103.335323"><ele>3056.0017</ele><time>2026-05-27T20:47:33.000Z</time></trkpt>
        <trkpt lat="29.522816" lon="103.335375"><ele>3058.2703</ele><time>2026-05-27T20:47:44.000Z</time></trkpt>
        <trkpt lat="29.522817" lon="103.335431"><ele>3062.1116</ele><time>2026-05-27T20:47:55.000Z</time></trkpt>
        <trkpt lat="29.522836" lon="103.335486"><ele>3060.958</ele><time>2026-05-27T20:48:03.000Z</time></trkpt>
        <trkpt lat="29.522864" lon="103.335527"><ele>3059.8608</ele><time>2026-05-27T20:48:20.000Z</time></trkpt>
        <trkpt lat="29.522851" lon="103.335585"><ele>3058.4753</ele><time>2026-05-27T20:52:11.000Z</time></trkpt>
        <trkpt lat="29.522843" lon="103.335643"><ele>3056.7798</ele><time>2026-05-27T20:52:21.000Z</time></trkpt>
        <trkpt lat="29.522829" lon="103.335694"><ele>3059.1423</ele><time>2026-05-27T20:52:33.000Z</time></trkpt>
        <trkpt lat="29.52284" lon="103.335745"><ele>3061.907</ele><time>2026-05-27T20:52:53.000Z</time></trkpt>
        <trkpt lat="29.522815" lon="103.335789"><ele>3059.5674</ele><time>2026-05-27T20:53:19.000Z</time></trkpt>
        <trkpt lat="29.522832" lon="103.335846"><ele>3064.1472</ele><time>2026-05-27T20:53:28.000Z</time></trkpt>
        <trkpt lat="29.52287" lon="103.335875"><ele>3066.8916</ele><time>2026-05-27T20:53:36.000Z</time></trkpt>
        <trkpt lat="29.522915" lon="103.33588"><ele>3068.2463</ele><time>2026-05-27T20:53:42.000Z</time></trkpt>
        <trkpt lat="29.522967" lon="103.33587"><ele>3070.118</ele><time>2026-05-27T20:53:50.000Z</time></trkpt>
        <trkpt lat="29.523013" lon="103.335878"><ele>3070.456</ele><time>2026-05-27T20:53:58.000Z</time></trkpt>
        <trkpt lat="29.523002" lon="103.33593"><ele>3066.5251</ele><time>2026-05-27T20:55:27.000Z</time></trkpt>
        <trkpt lat="29.522991" lon="103.335981"><ele>3066.4126</ele><time>2026-05-27T20:55:34.000Z</time></trkpt>
        <trkpt lat="29.523006" lon="103.336034"><ele>3066.841</ele><time>2026-05-27T20:55:40.000Z</time></trkpt>
        <trkpt lat="29.523023" lon="103.336084"><ele>3066.7568</ele><time>2026-05-27T20:55:45.000Z</time></trkpt>
        <trkpt lat="29.523042" lon="103.336137"><ele>3067.2803</ele><time>2026-05-27T20:55:50.000Z</time></trkpt>
        <trkpt lat="29.523045" lon="103.336191"><ele>3069.022</ele><time>2026-05-27T20:55:55.000Z</time></trkpt>
        <trkpt lat="29.523047" lon="103.336246"><ele>3070.8428</ele><time>2026-05-27T20:56:00.000Z</time></trkpt>
        <trkpt lat="29.523032" lon="103.336299"><ele>3070.9177</ele><time>2026-05-27T20:56:05.000Z</time></trkpt>
        <trkpt lat="29.523018" lon="103.336358"><ele>3070.0916</ele><time>2026-05-27T20:56:12.000Z</time></trkpt>
        <trkpt lat="29.522996" lon="103.336408"><ele>3069.8171</ele><time>2026-05-27T20:56:20.000Z</time></trkpt>
        <trkpt lat="29.522947" lon="103.336409"><ele>3068.1384</ele><time>2026-05-27T20:56:27.000Z</time></trkpt>
        <trkpt lat="29.522898" lon="103.336408"><ele>3069.276</ele><time>2026-05-27T20:56:35.000Z</time></trkpt>
        <trkpt lat="29.522845" lon="103.336406"><ele>3069.5364</ele><time>2026-05-27T20:56:42.000Z</time></trkpt>
        <trkpt lat="29.522798" lon="103.336409"><ele>3069.823</ele><time>2026-05-27T20:56:49.000Z</time></trkpt>
        <trkpt lat="29.522745" lon="103.336412"><ele>3075.302</ele><time>2026-05-27T20:56:56.000Z</time></trkpt>
        <trkpt lat="29.522722" lon="103.336361"><ele>3073.8347</ele><time>2026-05-27T20:57:10.000Z</time></trkpt>
        <trkpt lat="29.522729" lon="103.336306"><ele>3073.1606</ele><time>2026-05-27T20:57:16.000Z</time></trkpt>
        <trkpt lat="29.522732" lon="103.336248"><ele>3072.2625</ele><time>2026-05-27T20:57:22.000Z</time></trkpt>
        <trkpt lat="29.522728" lon="103.336194"><ele>3072.6426</ele><time>2026-05-27T20:57:28.000Z</time></trkpt>
        <trkpt lat="29.522735" lon="103.336135"><ele>3069.1946</ele><time>2026-05-27T20:57:35.000Z</time></trkpt>
        <trkpt lat="29.522763" lon="103.336087"><ele>3068.1152</ele><time>2026-05-27T20:57:44.000Z</time></trkpt>
        <trkpt lat="29.522811" lon="103.336087"><ele>3068.8752</ele><time>2026-05-27T20:57:51.000Z</time></trkpt>
        <trkpt lat="29.522863" lon="103.336078"><ele>3068.8623</ele><time>2026-05-27T20:57:58.000Z</time></trkpt>
        <trkpt lat="29.522918" lon="103.336074"><ele>3068.8052</ele><time>2026-05-27T20:58:05.000Z</time></trkpt>
        <trkpt lat="29.522967" lon="103.336074"><ele>3069.5947</ele><time>2026-05-27T20:58:11.000Z</time></trkpt>
        <trkpt lat="29.523001" lon="103.336113"><ele>3072.2966</ele><time>2026-05-27T20:58:17.000Z</time></trkpt>
        <trkpt lat="29.523034" lon="103.336153"><ele>3072.5093</ele><time>2026-05-27T20:58:23.000Z</time></trkpt>
        <trkpt lat="29.523054" lon="103.336201"><ele>3072.4329</ele><time>2026-05-27T20:58:30.000Z</time></trkpt>
        <trkpt lat="29.523053" lon="103.33626"><ele>3072.421</ele><time>2026-05-27T20:58:36.000Z</time></trkpt>
        <trkpt lat="29.523032" lon="103.336312"><ele>3072.4495</ele><time>2026-05-27T20:58:43.000Z</time></trkpt>
        <trkpt lat="29.523006" lon="103.336364"><ele>3070.6995</ele><time>2026-05-27T20:58:50.000Z</time></trkpt>
        <trkpt lat="29.522969" lon="103.3364"><ele>3069.719</ele><time>2026-05-27T20:58:57.000Z</time></trkpt>
        <trkpt lat="29.522923" lon="103.336411"><ele>3068.3813</ele><time>2026-05-27T20:59:05.000Z</time></trkpt>
        <trkpt lat="29.522876" lon="103.336409"><ele>3069.3599</ele><time>2026-05-27T20:59:12.000Z</time></trkpt>
        <trkpt lat="29.522826" lon="103.336408"><ele>3070.458</ele><time>2026-05-27T20:59:18.000Z</time></trkpt>
        <trkpt lat="29.52278" lon="103.336406"><ele>3074.1821</ele><time>2026-05-27T20:59:24.000Z</time></trkpt>
        <trkpt lat="29.522726" lon="103.336411"><ele>3075.5127</ele><time>2026-05-27T20:59:29.000Z</time></trkpt>
        <trkpt lat="29.522732" lon="103.336351"><ele>3069.989</ele><time>2026-05-27T20:59:40.000Z</time></trkpt>
        <trkpt lat="29.52275" lon="103.336303"><ele>3068.7104</ele><time>2026-05-27T20:59:45.000Z</time></trkpt>
        <trkpt lat="29.522763" lon="103.33625"><ele>3068.2805</ele><time>2026-05-27T20:59:51.000Z</time></trkpt>
        <trkpt lat="29.522767" lon="103.336188"><ele>3067.2725</ele><time>2026-05-27T20:59:57.000Z</time></trkpt>
        <trkpt lat="29.522775" lon="103.336133"><ele>3066.393</ele><time>2026-05-27T21:00:03.000Z</time></trkpt>
        <trkpt lat="29.522805" lon="103.336087"><ele>3065.939</ele><time>2026-05-27T21:00:11.000Z</time></trkpt>
        <trkpt lat="29.522849" lon="103.336075"><ele>3067.6343</ele><time>2026-05-27T21:00:17.000Z</time></trkpt>
        <trkpt lat="29.522902" lon="103.336062"><ele>3071.2522</ele><time>2026-05-27T21:00:25.000Z</time></trkpt>
        <trkpt lat="29.522946" lon="103.336075"><ele>3069.2583</ele><time>2026-05-27T21:00:29.000Z</time></trkpt>
        <trkpt lat="29.522991" lon="103.336098"><ele>3068.984</ele><time>2026-05-27T21:00:34.000Z</time></trkpt>
        <trkpt lat="29.523034" lon="103.336114"><ele>3068.5613</ele><time>2026-05-27T21:00:39.000Z</time></trkpt>
        <trkpt lat="29.523056" lon="103.336162"><ele>3069.3452</ele><time>2026-05-27T21:00:45.000Z</time></trkpt>
        <trkpt lat="29.523075" lon="103.336214"><ele>3070.3638</ele><time>2026-05-27T21:00:54.000Z</time></trkpt>
        <trkpt lat="29.523081" lon="103.33627"><ele>3068.491</ele><time>2026-05-27T21:01:01.000Z</time></trkpt>
        <trkpt lat="29.523071" lon="103.336332"><ele>3066.5513</ele><time>2026-05-27T21:01:06.000Z</time></trkpt>
        <trkpt lat="29.523063" lon="103.336383"><ele>3066.7993</ele><time>2026-05-27T21:01:12.000Z</time></trkpt>
        <trkpt lat="29.523029" lon="103.336418"><ele>3067.0537</ele><time>2026-05-27T21:01:19.000Z</time></trkpt>
        <trkpt lat="29.522984" lon="103.336439"><ele>3068.3303</ele><time>2026-05-27T21:01:26.000Z</time></trkpt>
        <trkpt lat="29.522932" lon="103.336445"><ele>3067.9644</ele><time>2026-05-27T21:01:32.000Z</time></trkpt>
        <trkpt lat="29.522886" lon="103.336426"><ele>3069.2334</ele><time>2026-05-27T21:01:37.000Z</time></trkpt>
        <trkpt lat="29.522839" lon="103.336418"><ele>3069.8196</ele><time>2026-05-27T21:01:43.000Z</time></trkpt>
        <trkpt lat="29.52279" lon="103.336413"><ele>3072.5518</ele><time>2026-05-27T21:01:50.000Z</time></trkpt>
        <trkpt lat="29.522744" lon="103.336403"><ele>3075.287</ele><time>2026-05-27T21:01:59.000Z</time></trkpt>
        <trkpt lat="29.522736" lon="103.336347"><ele>3075.9272</ele><time>2026-05-27T21:02:06.000Z</time></trkpt>
        <trkpt lat="29.522747" lon="103.336288"><ele>3070.5376</ele><time>2026-05-27T21:02:15.000Z</time></trkpt>
        <trkpt lat="29.522749" lon="103.33623"><ele>3070.4126</ele><time>2026-05-27T21:02:22.000Z</time></trkpt>
        <trkpt lat="29.522755" lon="103.336179"><ele>3069.194</ele><time>2026-05-27T21:02:29.000Z</time></trkpt>
        <trkpt lat="29.522754" lon="103.336118"><ele>3069.4553</ele><time>2026-05-27T21:02:36.000Z</time></trkpt>
        <trkpt lat="29.522775" lon="103.336069"><ele>3066.932</ele><time>2026-05-27T21:02:46.000Z</time></trkpt>
        <trkpt lat="29.522823" lon="103.336067"><ele>3066.812</ele><time>2026-05-27T21:02:58.000Z</time></trkpt>
        <trkpt lat="29.522868" lon="103.336072"><ele>3069.034</ele><time>2026-05-27T21:03:09.000Z</time></trkpt>
        <trkpt lat="29.522915" lon="103.336063"><ele>3069.3296</ele><time>2026-05-27T21:03:18.000Z</time></trkpt>
        <trkpt lat="29.522964" lon="103.336067"><ele>3069.1448</ele><time>2026-05-27T21:03:25.000Z</time></trkpt>
        <trkpt lat="29.52301" lon="103.336079"><ele>3066.6726</ele><time>2026-05-27T21:03:31.000Z</time></trkpt>
        <trkpt lat="29.523051" lon="103.336112"><ele>3066.348</ele><time>2026-05-27T21:03:39.000Z</time></trkpt>
        <trkpt lat="29.523086" lon="103.336149"><ele>3065.622</ele><time>2026-05-27T21:03:46.000Z</time></trkpt>
        <trkpt lat="29.523111" lon="103.336194"><ele>3065.442</ele><time>2026-05-27T21:03:54.000Z</time></trkpt>
        <trkpt lat="29.523131" lon="103.336256"><ele>3068.1587</ele><time>2026-05-27T21:04:01.000Z</time></trkpt>
        <trkpt lat="29.523162" lon="103.336296"><ele>3062.6199</ele><time>2026-05-27T21:04:13.000Z</time></trkpt>
        <trkpt lat="29.523191" lon="103.336338"><ele>3063.025</ele><time>2026-05-27T21:06:55.000Z</time></trkpt>
        <trkpt lat="29.523187" lon="103.336398"><ele>3063.9746</ele><time>2026-05-27T21:07:01.000Z</time></trkpt>
        <trkpt lat="29.523184" lon="103.33645"><ele>3064.4749</ele><time>2026-05-27T21:07:09.000Z</time></trkpt>
        <trkpt lat="29.523186" lon="103.33651"><ele>3063.859</ele><time>2026-05-27T21:07:17.000Z</time></trkpt>
        <trkpt lat="29.523208" lon="103.336564"><ele>3064.7756</ele><time>2026-05-27T21:07:26.000Z</time></trkpt>
        <trkpt lat="29.52319" lon="103.336615"><ele>3065.4446</ele><time>2026-05-27T21:07:38.000Z</time></trkpt>
        <trkpt lat="29.523173" lon="103.336666"><ele>3065.5874</ele><time>2026-05-27T21:07:43.000Z</time></trkpt>
        <trkpt lat="29.523162" lon="103.336725"><ele>3064.1726</ele><time>2026-05-27T21:07:50.000Z</time></trkpt>
        <trkpt lat="29.523182" lon="103.336775"><ele>3064.4277</ele><time>2026-05-27T21:07:58.000Z</time></trkpt>
        <trkpt lat="29.523172" lon="103.336826"><ele>3064.1597</ele><time>2026-05-27T21:08:19.000Z</time></trkpt>
        <trkpt lat="29.523128" lon="103.336864"><ele>3065.5713</ele><time>2026-05-27T21:08:26.000Z</time></trkpt>
        <trkpt lat="29.523095" lon="103.336902"><ele>3073.1272</ele><time>2026-05-27T21:08:45.000Z</time></trkpt>
        <trkpt lat="29.523069" lon="103.336945"><ele>3076.3096</ele><time>2026-05-27T21:08:52.000Z</time></trkpt>
        <trkpt lat="29.523078" lon="103.336997"><ele>3074.1423</ele><time>2026-05-27T21:08:59.000Z</time></trkpt>
        <trkpt lat="29.523083" lon="103.337049"><ele>3073.8005</ele><time>2026-05-27T21:09:09.000Z</time></trkpt>
        <trkpt lat="29.523072" lon="103.337102"><ele>3075.35</ele><time>2026-05-27T21:09:19.000Z</time></trkpt>
        <trkpt lat="29.523054" lon="103.337151"><ele>3071.9385</ele><time>2026-05-27T21:09:54.000Z</time></trkpt>
        <trkpt lat="29.523009" lon="103.337167"><ele>3073.751</ele><time>2026-05-27T21:10:09.000Z</time></trkpt>
        <trkpt lat="29.522964" lon="103.337181"><ele>3074.238</ele><time>2026-05-27T21:10:21.000Z</time></trkpt>
        <trkpt lat="29.522915" lon="103.337175"><ele>3076.433</ele><time>2026-05-27T21:10:34.000Z</time></trkpt>
        <trkpt lat="29.522873" lon="103.337211"><ele>3079.5474</ele><time>2026-05-27T21:10:46.000Z</time></trkpt>
        <trkpt lat="29.522823" lon="103.337194"><ele>3077.8489</ele><time>2026-05-27T21:11:50.000Z</time></trkpt>
        <trkpt lat="29.522874" lon="103.337199"><ele>3075.5112</ele><time>2026-05-27T21:16:27.000Z</time></trkpt>
        <trkpt lat="29.522921" lon="103.337206"><ele>3076.5854</ele><time>2026-05-27T21:16:37.000Z</time></trkpt>
        <trkpt lat="29.52292" lon="103.33715"><ele>3074.74</ele><time>2026-05-27T21:18:14.000Z</time></trkpt>
        <trkpt lat="29.522909" lon="103.337096"><ele>3076.7034</ele><time>2026-05-27T21:18:27.000Z</time></trkpt>
        <trkpt lat="29.5229" lon="103.33704"><ele>3076.446</ele><time>2026-05-27T21:18:44.000Z</time></trkpt>
        <trkpt lat="29.52291" lon="103.336989"><ele>3076.9194</ele><time>2026-05-27T21:18:52.000Z</time></trkpt>
        <trkpt lat="29.522922" lon="103.337041"><ele>3078.1438</ele><time>2026-05-27T21:19:21.000Z</time></trkpt>
        <trkpt lat="29.522925" lon="103.337097"><ele>3077.6096</ele><time>2026-05-27T21:19:31.000Z</time></trkpt>
        <trkpt lat="29.522933" lon="103.337149"><ele>3076.9653</ele><time>2026-05-27T21:19:37.000Z</time></trkpt>
        <trkpt lat="29.522958" lon="103.337194"><ele>3076.36</ele><time>2026-05-27T21:19:42.000Z</time></trkpt>
        <trkpt lat="29.523004" lon="103.337194"><ele>3074.649</ele><time>2026-05-27T21:19:52.000Z</time></trkpt>
        <trkpt lat="29.523051" lon="103.337179"><ele>3073.6577</ele><time>2026-05-27T21:20:02.000Z</time></trkpt>
        <trkpt lat="29.523093" lon="103.3372"><ele>3073.9106</ele><time>2026-05-27T21:20:10.000Z</time></trkpt>
        <trkpt lat="29.523136" lon="103.33717"><ele>3073.3843</ele><time>2026-05-27T21:20:18.000Z</time></trkpt>
        <trkpt lat="29.523176" lon="103.337133"><ele>3071.8093</ele><time>2026-05-27T21:20:30.000Z</time></trkpt>
        <trkpt lat="29.523167" lon="103.337074"><ele>3072.027</ele><time>2026-05-27T21:21:08.000Z</time></trkpt>
        <trkpt lat="29.523156" lon="103.337018"><ele>3067.728</ele><time>2026-05-27T21:21:23.000Z</time></trkpt>
        <trkpt lat="29.523148" lon="103.336967"><ele>3066.4817</ele><time>2026-05-27T21:21:30.000Z</time></trkpt>
        <trkpt lat="29.523132" lon="103.33691"><ele>3065.5144</ele><time>2026-05-27T21:21:39.000Z</time></trkpt>
        <trkpt lat="29.523149" lon="103.336856"><ele>3065.806</ele><time>2026-05-27T21:21:58.000Z</time></trkpt>
        <trkpt lat="29.523163" lon="103.336803"><ele>3062.3735</ele><time>2026-05-27T21:22:08.000Z</time></trkpt>
        <trkpt lat="29.523174" lon="103.336749"><ele>3062.2725</ele><time>2026-05-27T21:22:15.000Z</time></trkpt>
        <trkpt lat="29.523175" lon="103.336694"><ele>3062.016</ele><time>2026-05-27T21:22:22.000Z</time></trkpt>
        <trkpt lat="29.523151" lon="103.336643"><ele>3063.6638</ele><time>2026-05-27T21:22:41.000Z</time></trkpt>
        <trkpt lat="29.523137" lon="103.33659"><ele>3065.1694</ele><time>2026-05-27T21:22:47.000Z</time></trkpt>
        <trkpt lat="29.523155" lon="103.336542"><ele>3064.6062</ele><time>2026-05-27T21:22:54.000Z</time></trkpt>
        <trkpt lat="29.523169" lon="103.336482"><ele>3065.328</ele><time>2026-05-27T21:23:00.000Z</time></trkpt>
        <trkpt lat="29.523162" lon="103.336429"><ele>3065.5354</ele><time>2026-05-27T21:23:06.000Z</time></trkpt>
        <trkpt lat="29.523166" lon="103.336377"><ele>3065.8608</ele><time>2026-05-27T21:23:16.000Z</time></trkpt>
        <trkpt lat="29.523155" lon="103.336326"><ele>3065.575</ele><time>2026-05-27T21:23:24.000Z</time></trkpt>
        <trkpt lat="29.523161" lon="103.336274"><ele>3065.004</ele><time>2026-05-27T21:23:31.000Z</time></trkpt>
        <trkpt lat="29.523164" lon="103.33622"><ele>3064.7903</ele><time>2026-05-27T21:23:37.000Z</time></trkpt>
        <trkpt lat="29.523157" lon="103.336166"><ele>3063.6345</ele><time>2026-05-27T21:23:45.000Z</time></trkpt>
        <trkpt lat="29.523138" lon="103.336108"><ele>3062.0022</ele><time>2026-05-27T21:23:52.000Z</time></trkpt>
        <trkpt lat="29.523098" lon="103.336068"><ele>3064.5603</ele><time>2026-05-27T21:24:29.000Z</time></trkpt>
        <trkpt lat="29.523077" lon="103.33602"><ele>3063.7434</ele><time>2026-05-27T21:24:37.000Z</time></trkpt>
        <trkpt lat="29.523032" lon="103.335984"><ele>3065.4402</ele><time>2026-05-27T21:24:52.000Z</time></trkpt>
        <trkpt lat="29.522988" lon="103.335961"><ele>3065.606</ele><time>2026-05-27T21:24:57.000Z</time></trkpt>
        <trkpt lat="29.522943" lon="103.335963"><ele>3065.6287</ele><time>2026-05-27T21:25:03.000Z</time></trkpt>
        <trkpt lat="29.522893" lon="103.335967"><ele>3065.4226</ele><time>2026-05-27T21:25:09.000Z</time></trkpt>
        <trkpt lat="29.522849" lon="103.33598"><ele>3068.154</ele><time>2026-05-27T21:25:15.000Z</time></trkpt>
        <trkpt lat="29.522802" lon="103.335983"><ele>3069.0076</ele><time>2026-05-27T21:25:21.000Z</time></trkpt>
        <trkpt lat="29.522757" lon="103.335976"><ele>3069.6477</ele><time>2026-05-27T21:25:28.000Z</time></trkpt>
        <trkpt lat="29.522715" lon="103.335952"><ele>3068.6062</ele><time>2026-05-27T21:25:37.000Z</time></trkpt>
        <trkpt lat="29.522749" lon="103.335913"><ele>3065.2388</ele><time>2026-05-27T21:25:50.000Z</time></trkpt>
        <trkpt lat="29.522791" lon="103.335883"><ele>3067.3347</ele><time>2026-05-27T21:26:02.000Z</time></trkpt>
        <trkpt lat="29.522816" lon="103.335835"><ele>3068.786</ele><time>2026-05-27T21:26:15.000Z</time></trkpt>
        <trkpt lat="29.52281" lon="103.335775"><ele>3065.795</ele><time>2026-05-27T21:26:24.000Z</time></trkpt>
        <trkpt lat="29.522828" lon="103.335717"><ele>3062.173</ele><time>2026-05-27T21:26:34.000Z</time></trkpt>
        <trkpt lat="29.522821" lon="103.335653"><ele>3059.8</ele><time>2026-05-27T21:26:42.000Z</time></trkpt>
        <trkpt lat="29.522839" lon="103.335604"><ele>3059.0427</ele><time>2026-05-27T21:26:52.000Z</time></trkpt>
        <trkpt lat="29.522854" lon="103.335555"><ele>3057.1653</ele><time>2026-05-27T21:27:05.000Z</time></trkpt>
        <trkpt lat="29.522869" lon="103.335503"><ele>3055.1602</ele><time>2026-05-27T21:27:12.000Z</time></trkpt>
        <trkpt lat="29.522868" lon="103.335448"><ele>3055.9373</ele><time>2026-05-27T21:27:35.000Z</time></trkpt>
        <trkpt lat="29.52286" lon="103.335394"><ele>3055.1858</ele><time>2026-05-27T21:27:41.000Z</time></trkpt>
        <trkpt lat="29.522842" lon="103.335337"><ele>3055.8801</ele><time>2026-05-27T21:27:46.000Z</time></trkpt>
        <trkpt lat="29.522837" lon="103.335283"><ele>3054.6453</ele><time>2026-05-27T21:28:00.000Z</time></trkpt>
        <trkpt lat="29.522824" lon="103.335231"><ele>3053.4016</ele><time>2026-05-27T21:28:17.000Z</time></trkpt>
        <trkpt lat="29.522832" lon="103.335176"><ele>3052.3843</ele><time>2026-05-27T21:28:25.000Z</time></trkpt>
        <trkpt lat="29.522821" lon="103.335126"><ele>3050.6838</ele><time>2026-05-27T21:28:34.000Z</time></trkpt>
        <trkpt lat="29.522813" lon="103.335066"><ele>3047.0588</ele><time>2026-05-27T21:28:43.000Z</time></trkpt>
        <trkpt lat="29.522818" lon="103.335013"><ele>3046.382</ele><time>2026-05-27T21:28:51.000Z</time></trkpt>
        <trkpt lat="29.522818" lon="103.334958"><ele>3044.8054</ele><time>2026-05-27T21:29:01.000Z</time></trkpt>
        <trkpt lat="29.522807" lon="103.3349"><ele>3047.3164</ele><time>2026-05-27T21:29:08.000Z</time></trkpt>
        <trkpt lat="29.522785" lon="103.334854"><ele>3045.3406</ele><time>2026-05-27T21:29:15.000Z</time></trkpt>
        <trkpt lat="29.522812" lon="103.33481"><ele>3043.8892</ele><time>2026-05-27T21:29:24.000Z</time></trkpt>
        <trkpt lat="29.522858" lon="103.334811"><ele>3042.936</ele><time>2026-05-27T21:29:31.000Z</time></trkpt>
        <trkpt lat="29.522902" lon="103.334799"><ele>3042.432</ele><time>2026-05-27T21:29:41.000Z</time></trkpt>
        <trkpt lat="29.522948" lon="103.334799"><ele>3040.8877</ele><time>2026-05-27T21:29:49.000Z</time></trkpt>
        <trkpt lat="29.522991" lon="103.334767"><ele>3040.373</ele><time>2026-05-27T21:30:03.000Z</time></trkpt>
        <trkpt lat="29.523036" lon="103.334785"><ele>3042.6406</ele><time>2026-05-27T21:30:08.000Z</time></trkpt>
        <trkpt lat="29.523082" lon="103.334794"><ele>3041.2566</ele><time>2026-05-27T21:30:15.000Z</time></trkpt>
        <trkpt lat="29.523133" lon="103.334787"><ele>3038.803</ele><time>2026-05-27T21:30:24.000Z</time></trkpt>
        <trkpt lat="29.523175" lon="103.334808"><ele>3036.3005</ele><time>2026-05-27T21:30:31.000Z</time></trkpt>
        <trkpt lat="29.523225" lon="103.334825"><ele>3036.318</ele><time>2026-05-27T21:30:37.000Z</time></trkpt>
        <trkpt lat="29.523269" lon="103.334842"><ele>3036.903</ele><time>2026-05-27T21:30:42.000Z</time></trkpt>
        <trkpt lat="29.523313" lon="103.33486"><ele>3037.6775</ele><time>2026-05-27T21:30:48.000Z</time></trkpt>
        <trkpt lat="29.523362" lon="103.334872"><ele>3037.4539</ele><time>2026-05-27T21:30:54.000Z</time></trkpt>
        <trkpt lat="29.523412" lon="103.334886"><ele>3037.231</ele><time>2026-05-27T21:30:59.000Z</time></trkpt>
        <trkpt lat="29.523465" lon="103.334902"><ele>3036.2654</ele><time>2026-05-27T21:31:04.000Z</time></trkpt>
        <trkpt lat="29.52351" lon="103.334924"><ele>3035.3035</ele><time>2026-05-27T21:31:10.000Z</time></trkpt>
        <trkpt lat="29.523555" lon="103.334937"><ele>3033.4626</ele><time>2026-05-27T21:31:23.000Z</time></trkpt>
        <trkpt lat="29.523598" lon="103.334956"><ele>3034.1338</ele><time>2026-05-27T21:31:30.000Z</time></trkpt>
        <trkpt lat="29.523646" lon="103.33495"><ele>3032.4656</ele><time>2026-05-27T21:31:41.000Z</time></trkpt>
        <trkpt lat="29.523693" lon="103.334948"><ele>3033.0337</ele><time>2026-05-27T21:31:47.000Z</time></trkpt>
        <trkpt lat="29.523739" lon="103.334948"><ele>3032.7043</ele><time>2026-05-27T21:31:53.000Z</time></trkpt>
        <trkpt lat="29.523785" lon="103.33494"><ele>3033.7217</ele><time>2026-05-27T21:31:58.000Z</time></trkpt>
        <trkpt lat="29.523828" lon="103.334963"><ele>3032.113</ele><time>2026-05-27T21:32:04.000Z</time></trkpt>
        <trkpt lat="29.523873" lon="103.334972"><ele>3032.719</ele><time>2026-05-27T21:32:09.000Z</time></trkpt>
        <trkpt lat="29.523917" lon="103.33499"><ele>3032.987</ele><time>2026-05-27T21:32:14.000Z</time></trkpt>
        <trkpt lat="29.523969" lon="103.334988"><ele>3033.881</ele><time>2026-05-27T21:32:22.000Z</time></trkpt>
        <trkpt lat="29.524017" lon="103.334977"><ele>3032.0154</ele><time>2026-05-27T21:32:30.000Z</time></trkpt>
        <trkpt lat="29.524064" lon="103.334994"><ele>3032.9111</ele><time>2026-05-27T21:32:35.000Z</time></trkpt>
        <trkpt lat="29.524114" lon="103.335005"><ele>3031.7197</ele><time>2026-05-27T21:32:40.000Z</time></trkpt>
        <trkpt lat="29.524157" lon="103.334991"><ele>3032.3599</ele><time>2026-05-27T21:32:45.000Z</time></trkpt>
        <trkpt lat="29.524207" lon="103.334968"><ele>3034.473</ele><time>2026-05-27T21:32:51.000Z</time></trkpt>
        <trkpt lat="29.524256" lon="103.334965"><ele>3035.1877</ele><time>2026-05-27T21:32:56.000Z</time></trkpt>
        <trkpt lat="29.524309" lon="103.334959"><ele>3036.8425</ele><time>2026-05-27T21:33:01.000Z</time></trkpt>
        <trkpt lat="29.524362" lon="103.334946"><ele>3039.3928</ele><time>2026-05-27T21:33:07.000Z</time></trkpt>
        <trkpt lat="29.524419" lon="103.334945"><ele>3039.2844</ele><time>2026-05-27T21:33:13.000Z</time></trkpt>
        <trkpt lat="29.524468" lon="103.334946"><ele>3037.1233</ele><time>2026-05-27T21:33:18.000Z</time></trkpt>
        <trkpt lat="29.524509" lon="103.334916"><ele>3036.1404</ele><time>2026-05-27T21:33:23.000Z</time></trkpt>
        <trkpt lat="29.524557" lon="103.334903"><ele>3034.284</ele><time>2026-05-27T21:33:29.000Z</time></trkpt>
        <trkpt lat="29.524607" lon="103.334912"><ele>3030.4768</ele><time>2026-05-27T21:33:36.000Z</time></trkpt>
        <trkpt lat="29.524653" lon="103.33492"><ele>3029.2407</ele><time>2026-05-27T21:33:41.000Z</time></trkpt>
        <trkpt lat="29.524688" lon="103.334958"><ele>3029.5476</ele><time>2026-05-27T21:33:50.000Z</time></trkpt>
        <trkpt lat="29.524733" lon="103.33497"><ele>3031.0444</ele><time>2026-05-27T21:33:55.000Z</time></trkpt>
        <trkpt lat="29.524778" lon="103.334975"><ele>3033.064</ele><time>2026-05-27T21:34:05.000Z</time></trkpt>
        <trkpt lat="29.524793" lon="103.335046"><ele>3032.8171</ele><time>2026-05-27T21:34:20.000Z</time></trkpt>
        <trkpt lat="29.524768" lon="103.334986"><ele>3032.5247</ele><time>2026-05-27T21:34:24.000Z</time></trkpt>
        <trkpt lat="29.524747" lon="103.334923"><ele>3032.3408</ele><time>2026-05-27T21:34:27.000Z</time></trkpt>
        <trkpt lat="29.524806" lon="103.334819"><ele>3032.1597</ele><time>2026-05-27T21:34:33.000Z</time></trkpt>
        <trkpt lat="29.524818" lon="103.334913"><ele>3031.7415</ele><time>2026-05-27T21:34:40.000Z</time></trkpt>
        <trkpt lat="29.524809" lon="103.335052"><ele>3030.8079</ele><time>2026-05-27T21:34:41.000Z</time></trkpt>
        <trkpt lat="29.524821" lon="103.334959"><ele>3032.2686</ele><time>2026-05-27T21:35:41.000Z</time></trkpt>
        <trkpt lat="29.524844" lon="103.335042"><ele>3032.3997</ele><time>2026-05-27T21:35:49.000Z</time></trkpt>
        <trkpt lat="29.524839" lon="103.335102"><ele>3032.0422</ele><time>2026-05-27T21:35:52.000Z</time></trkpt>
        <trkpt lat="29.524802" lon="103.335148"><ele>3033.042</ele><time>2026-05-27T21:35:55.000Z</time></trkpt>
        <trkpt lat="29.524801" lon="103.335093"><ele>3032.834</ele><time>2026-05-27T21:35:57.000Z</time></trkpt>
        <trkpt lat="29.524778" lon="103.335203"><ele>3033.3335</ele><time>2026-05-27T21:36:03.000Z</time></trkpt>
        <trkpt lat="29.524763" lon="103.335271"><ele>3033.7031</ele><time>2026-05-27T21:36:04.000Z</time></trkpt>
        <trkpt lat="29.524779" lon="103.335199"><ele>3032.8596</ele><time>2026-05-27T21:36:18.000Z</time></trkpt>
        <trkpt lat="29.524675" lon="103.335192"><ele>3033.5427</ele><time>2026-05-27T21:36:21.000Z</time></trkpt>
        <trkpt lat="29.524631" lon="103.335168"><ele>3033.6633</ele><time>2026-05-27T21:36:27.000Z</time></trkpt>
        <trkpt lat="29.524676" lon="103.335185"><ele>3033.1592</ele><time>2026-05-27T21:36:41.000Z</time></trkpt>
        <trkpt lat="29.524682" lon="103.335278"><ele>3032.6284</ele><time>2026-05-27T21:38:53.000Z</time></trkpt>
        <trkpt lat="29.52481" lon="103.33493"><ele>3034.477</ele><time>2026-05-27T21:39:00.000Z</time></trkpt>
        <trkpt lat="29.52478" lon="103.33489"><ele>3029.9954</ele><time>2026-05-27T21:39:19.000Z</time></trkpt>
        <trkpt lat="29.524738" lon="103.334849"><ele>3026.819</ele><time>2026-05-27T21:39:27.000Z</time></trkpt>
        <trkpt lat="29.524742" lon="103.334793"><ele>3027.024</ele><time>2026-05-27T21:39:37.000Z</time></trkpt>
        <trkpt lat="29.524787" lon="103.33482"><ele>3023.0466</ele><time>2026-05-27T21:39:59.000Z</time></trkpt>
        <trkpt lat="29.524847" lon="103.334818"><ele>3021.728</ele><time>2026-05-27T21:40:05.000Z</time></trkpt>
        <trkpt lat="29.524896" lon="103.33481"><ele>3026.1724</ele><time>2026-05-27T21:40:12.000Z</time></trkpt>
        <trkpt lat="29.524945" lon="103.334802"><ele>3027.0112</ele><time>2026-05-27T21:40:20.000Z</time></trkpt>
        <trkpt lat="29.524989" lon="103.334815"><ele>3027.745</ele><time>2026-05-27T21:40:25.000Z</time></trkpt>
        <trkpt lat="29.525027" lon="103.334851"><ele>3024.5232</ele><time>2026-05-27T21:40:32.000Z</time></trkpt>
        <trkpt lat="29.525075" lon="103.334843"><ele>3023.3638</ele><time>2026-05-27T21:40:41.000Z</time></trkpt>
        <trkpt lat="29.525105" lon="103.334795"><ele>3018.6758</ele><time>2026-05-27T21:41:09.000Z</time></trkpt>
        <trkpt lat="29.525124" lon="103.334844"><ele>3020.5583</ele><time>2026-05-27T21:41:33.000Z</time></trkpt>
        <trkpt lat="29.525167" lon="103.334822"><ele>3020.729</ele><time>2026-05-27T21:42:22.000Z</time></trkpt>
        <trkpt lat="29.525205" lon="103.334789"><ele>3017.7478</ele><time>2026-05-27T21:42:31.000Z</time></trkpt>
        <trkpt lat="29.525244" lon="103.33476"><ele>3019.3833</ele><time>2026-05-27T21:42:39.000Z</time></trkpt>
        <trkpt lat="29.525289" lon="103.334738"><ele>3017.1355</ele><time>2026-05-27T21:42:48.000Z</time></trkpt>
        <trkpt lat="29.525329" lon="103.334707"><ele>3015.409</ele><time>2026-05-27T21:42:54.000Z</time></trkpt>
        <trkpt lat="29.525366" lon="103.33467"><ele>3016.145</ele><time>2026-05-27T21:43:00.000Z</time></trkpt>
        <trkpt lat="29.525397" lon="103.334631"><ele>3015.2275</ele><time>2026-05-27T21:43:04.000Z</time></trkpt>
        <trkpt lat="29.525419" lon="103.334579"><ele>3013.1223</ele><time>2026-05-27T21:43:15.000Z</time></trkpt>
        <trkpt lat="29.525447" lon="103.334538"><ele>3010.5815</ele><time>2026-05-27T21:43:20.000Z</time></trkpt>
        <trkpt lat="29.525486" lon="103.3345"><ele>3006.9768</ele><time>2026-05-27T21:43:28.000Z</time></trkpt>
        <trkpt lat="29.52551" lon="103.334454"><ele>3005.103</ele><time>2026-05-27T21:43:34.000Z</time></trkpt>
        <trkpt lat="29.525551" lon="103.334415"><ele>3005.8657</ele><time>2026-05-27T21:43:40.000Z</time></trkpt>
        <trkpt lat="29.525586" lon="103.334381"><ele>3007.2595</ele><time>2026-05-27T21:43:46.000Z</time></trkpt>
        <trkpt lat="29.525613" lon="103.334338"><ele>3006.927</ele><time>2026-05-27T21:43:52.000Z</time></trkpt>
        <trkpt lat="29.525639" lon="103.334288"><ele>3005.8777</ele><time>2026-05-27T21:43:58.000Z</time></trkpt>
        <trkpt lat="29.525655" lon="103.334238"><ele>3004.7058</ele><time>2026-05-27T21:44:08.000Z</time></trkpt>
        <trkpt lat="29.525689" lon="103.334192"><ele>3003.5737</ele><time>2026-05-27T21:44:17.000Z</time></trkpt>
        <trkpt lat="29.525731" lon="103.33416"><ele>3002.5876</ele><time>2026-05-27T21:44:28.000Z</time></trkpt>
        <trkpt lat="29.525766" lon="103.334126"><ele>2999.605</ele><time>2026-05-27T21:44:37.000Z</time></trkpt>
        <trkpt lat="29.525809" lon="103.334108"><ele>2998.5552</ele><time>2026-05-27T21:44:42.000Z</time></trkpt>
        <trkpt lat="29.525849" lon="103.334083"><ele>2998.837</ele><time>2026-05-27T21:44:47.000Z</time></trkpt>
        <trkpt lat="29.525884" lon="103.334048"><ele>2999.6328</ele><time>2026-05-27T21:44:52.000Z</time></trkpt>
        <trkpt lat="29.52593" lon="103.334023"><ele>3000.0796</ele><time>2026-05-27T21:45:02.000Z</time></trkpt>
        <trkpt lat="29.525978" lon="103.334024"><ele>3002.3713</ele><time>2026-05-27T21:45:14.000Z</time></trkpt>
        <trkpt lat="29.526021" lon="103.334003"><ele>3000.2888</ele><time>2026-05-27T21:45:32.000Z</time></trkpt>
        <trkpt lat="29.526052" lon="103.333956"><ele>2997.038</ele><time>2026-05-27T21:45:41.000Z</time></trkpt>
        <trkpt lat="29.526085" lon="103.333908"><ele>2994.393</ele><time>2026-05-27T21:45:50.000Z</time></trkpt>
        <trkpt lat="29.526139" lon="103.333901"><ele>2994.4082</ele><time>2026-05-27T21:45:57.000Z</time></trkpt>
        <trkpt lat="29.526182" lon="103.333887"><ele>2993.1494</ele><time>2026-05-27T21:46:03.000Z</time></trkpt>
        <trkpt lat="29.526227" lon="103.333867"><ele>2994.1697</ele><time>2026-05-27T21:46:11.000Z</time></trkpt>
        <trkpt lat="29.526262" lon="103.333836"><ele>2992.9966</ele><time>2026-05-27T21:46:18.000Z</time></trkpt>
        <trkpt lat="29.526303" lon="103.333805"><ele>2989.6104</ele><time>2026-05-27T21:46:25.000Z</time></trkpt>
        <trkpt lat="29.526344" lon="103.333778"><ele>2990.3699</ele><time>2026-05-27T21:46:30.000Z</time></trkpt>
        <trkpt lat="29.526391" lon="103.333752"><ele>2990.6804</ele><time>2026-05-27T21:46:36.000Z</time></trkpt>
        <trkpt lat="29.526437" lon="103.333715"><ele>2988.4636</ele><time>2026-05-27T21:46:42.000Z</time></trkpt>
        <trkpt lat="29.526468" lon="103.333677"><ele>2987.308</ele><time>2026-05-27T21:46:47.000Z</time></trkpt>
        <trkpt lat="29.526515" lon="103.333649"><ele>2987.5964</ele><time>2026-05-27T21:46:53.000Z</time></trkpt>
        <trkpt lat="29.526562" lon="103.333636"><ele>2984.874</ele><time>2026-05-27T21:46:59.000Z</time></trkpt>
        <trkpt lat="29.526609" lon="103.333625"><ele>2985.9814</ele><time>2026-05-27T21:47:05.000Z</time></trkpt>
        <trkpt lat="29.526643" lon="103.333591"><ele>2985.8167</ele><time>2026-05-27T21:47:10.000Z</time></trkpt>
        <trkpt lat="29.52669" lon="103.333568"><ele>2986.753</ele><time>2026-05-27T21:47:17.000Z</time></trkpt>
        <trkpt lat="29.526738" lon="103.333578"><ele>2986.1606</ele><time>2026-05-27T21:47:27.000Z</time></trkpt>
        <trkpt lat="29.526782" lon="103.333556"><ele>2983.3008</ele><time>2026-05-27T21:47:35.000Z</time></trkpt>
        <trkpt lat="29.526821" lon="103.333524"><ele>2979.4893</ele><time>2026-05-27T21:47:45.000Z</time></trkpt>
        <trkpt lat="29.526869" lon="103.333546"><ele>2978.6362</ele><time>2026-05-27T21:47:53.000Z</time></trkpt>
        <trkpt lat="29.526921" lon="103.333527"><ele>2978.6091</ele><time>2026-05-27T21:47:59.000Z</time></trkpt>
        <trkpt lat="29.526975" lon="103.333518"><ele>2978.5393</ele><time>2026-05-27T21:48:04.000Z</time></trkpt>
        <trkpt lat="29.52701" lon="103.333484"><ele>2973.3164</ele><time>2026-05-27T21:48:14.000Z</time></trkpt>
        <trkpt lat="29.527057" lon="103.333444"><ele>2970.8367</ele><time>2026-05-27T21:48:19.000Z</time></trkpt>
        <trkpt lat="29.527107" lon="103.333412"><ele>2971.1555</ele><time>2026-05-27T21:48:24.000Z</time></trkpt>
        <trkpt lat="29.527137" lon="103.333369"><ele>2971.3281</ele><time>2026-05-27T21:48:31.000Z</time></trkpt>
        <trkpt lat="29.527158" lon="103.33332"><ele>2970.0361</ele><time>2026-05-27T21:48:35.000Z</time></trkpt>
        <trkpt lat="29.527164" lon="103.333266"><ele>2969.273</ele><time>2026-05-27T21:48:40.000Z</time></trkpt>
        <trkpt lat="29.527179" lon="103.333211"><ele>2965.6875</ele><time>2026-05-27T21:48:46.000Z</time></trkpt>
        <trkpt lat="29.527153" lon="103.333152"><ele>2964.5288</ele><time>2026-05-27T21:48:50.000Z</time></trkpt>
        <trkpt lat="29.527129" lon="103.333097"><ele>2963.9846</ele><time>2026-05-27T21:48:55.000Z</time></trkpt>
        <trkpt lat="29.527141" lon="103.33304"><ele>2963.9883</ele><time>2026-05-27T21:49:00.000Z</time></trkpt>
        <trkpt lat="29.52712" lon="103.332977"><ele>2961.5747</ele><time>2026-05-27T21:49:05.000Z</time></trkpt>
        <trkpt lat="29.527113" lon="103.332919"><ele>2963.044</ele><time>2026-05-27T21:49:11.000Z</time></trkpt>
        <trkpt lat="29.527136" lon="103.332866"><ele>2961.6177</ele><time>2026-05-27T21:49:16.000Z</time></trkpt>
        <trkpt lat="29.52715" lon="103.332812"><ele>2957.6482</ele><time>2026-05-27T21:49:22.000Z</time></trkpt>
        <trkpt lat="29.527163" lon="103.332758"><ele>2956.7</ele><time>2026-05-27T21:49:26.000Z</time></trkpt>
        <trkpt lat="29.527154" lon="103.332692"><ele>2957.171</ele><time>2026-05-27T21:49:32.000Z</time></trkpt>
        <trkpt lat="29.527139" lon="103.332637"><ele>2956.5464</ele><time>2026-05-27T21:49:35.000Z</time></trkpt>
        <trkpt lat="29.527125" lon="103.332574"><ele>2957.5442</ele><time>2026-05-27T21:49:39.000Z</time></trkpt>
        <trkpt lat="29.527102" lon="103.332527"><ele>2956.5225</ele><time>2026-05-27T21:49:43.000Z</time></trkpt>
        <trkpt lat="29.527122" lon="103.332476"><ele>2954.046</ele><time>2026-05-27T21:49:53.000Z</time></trkpt>
        <trkpt lat="29.527161" lon="103.332434"><ele>2954.6755</ele><time>2026-05-27T21:49:59.000Z</time></trkpt>
        <trkpt lat="29.527179" lon="103.33238"><ele>2954.6926</ele><time>2026-05-27T21:50:10.000Z</time></trkpt>
        <trkpt lat="29.527204" lon="103.332335"><ele>2955.1702</ele><time>2026-05-27T21:50:20.000Z</time></trkpt>
        <trkpt lat="29.527237" lon="103.33237"><ele>2952.6992</ele><time>2026-05-27T21:50:29.000Z</time></trkpt>
        <trkpt lat="29.527288" lon="103.332393"><ele>2956.097</ele><time>2026-05-27T21:50:35.000Z</time></trkpt>
        <trkpt lat="29.527282" lon="103.33245"><ele>2955.5732</ele><time>2026-05-27T21:50:41.000Z</time></trkpt>
        <trkpt lat="29.527246" lon="103.33249"><ele>2956.407</ele><time>2026-05-27T21:50:44.000Z</time></trkpt>
        <trkpt lat="29.527307" lon="103.332514"><ele>2957.671</ele><time>2026-05-27T21:50:46.000Z</time></trkpt>
        <trkpt lat="29.52736" lon="103.332534"><ele>2958.909</ele><time>2026-05-27T21:50:55.000Z</time></trkpt>
        <trkpt lat="29.527412" lon="103.332551"><ele>2956.7112</ele><time>2026-05-27T21:51:23.000Z</time></trkpt>
        <trkpt lat="29.527472" lon="103.332557"><ele>2955.7542</ele><time>2026-05-27T21:51:29.000Z</time></trkpt>
        <trkpt lat="29.527517" lon="103.332548"><ele>2942.5317</ele><time>2026-05-27T21:51:46.000Z</time></trkpt>
        <trkpt lat="29.527548" lon="103.332505"><ele>2942.1333</ele><time>2026-05-27T21:51:53.000Z</time></trkpt>
        <trkpt lat="29.527581" lon="103.332464"><ele>2945.0173</ele><time>2026-05-27T21:52:00.000Z</time></trkpt>
        <trkpt lat="29.527602" lon="103.332416"><ele>2944.6562</ele><time>2026-05-27T21:52:03.000Z</time></trkpt>
        <trkpt lat="29.527564" lon="103.33238"><ele>2949.08</ele><time>2026-05-27T21:52:13.000Z</time></trkpt>
        <trkpt lat="29.527575" lon="103.332439"><ele>2944.1304</ele><time>2026-05-27T21:52:18.000Z</time></trkpt>
        <trkpt lat="29.527549" lon="103.332482"><ele>2945.4158</ele><time>2026-05-27T21:52:23.000Z</time></trkpt>
        <trkpt lat="29.527552" lon="103.332416"><ele>2943.8735</ele><time>2026-05-27T21:52:32.000Z</time></trkpt>
        <trkpt lat="29.527582" lon="103.332376"><ele>2946.035</ele><time>2026-05-27T21:52:37.000Z</time></trkpt>
        <trkpt lat="29.527598" lon="103.332315"><ele>2944.551</ele><time>2026-05-27T21:52:48.000Z</time></trkpt>
        <trkpt lat="29.527573" lon="103.332263"><ele>2945.5427</ele><time>2026-05-27T21:52:53.000Z</time></trkpt>
        <trkpt lat="29.527565" lon="103.332212"><ele>2943.098</ele><time>2026-05-27T21:53:00.000Z</time></trkpt>
        <trkpt lat="29.52758" lon="103.33216"><ele>2940.182</ele><time>2026-05-27T21:53:10.000Z</time></trkpt>
        <trkpt lat="29.527628" lon="103.332156"><ele>2942.8247</ele><time>2026-05-27T21:53:16.000Z</time></trkpt>
        <trkpt lat="29.527663" lon="103.332115"><ele>2938.4192</ele><time>2026-05-27T21:53:31.000Z</time></trkpt>
        <trkpt lat="29.527706" lon="103.332093"><ele>2937.5923</ele><time>2026-05-27T21:53:40.000Z</time></trkpt>
        <trkpt lat="29.527727" lon="103.332046"><ele>2932.9746</ele><time>2026-05-27T21:53:55.000Z</time></trkpt>
        <trkpt lat="29.527743" lon="103.331988"><ele>2931.745</ele><time>2026-05-27T21:54:03.000Z</time></trkpt>
        <trkpt lat="29.527765" lon="103.331931"><ele>2928.8914</ele><time>2026-05-27T21:54:09.000Z</time></trkpt>
        <trkpt lat="29.527774" lon="103.331879"><ele>2927.3303</ele><time>2026-05-27T21:54:13.000Z</time></trkpt>
        <trkpt lat="29.527771" lon="103.331817"><ele>2926.4377</ele><time>2026-05-27T21:54:17.000Z</time></trkpt>
        <trkpt lat="29.52775" lon="103.331759"><ele>2929.4958</ele><time>2026-05-27T21:54:22.000Z</time></trkpt>
        <trkpt lat="29.52778" lon="103.331706"><ele>2931.003</ele><time>2026-05-27T21:54:25.000Z</time></trkpt>
        <trkpt lat="29.52781" lon="103.331653"><ele>2931.581</ele><time>2026-05-27T21:54:28.000Z</time></trkpt>
        <trkpt lat="29.527837" lon="103.331604"><ele>2929.7002</ele><time>2026-05-27T21:54:32.000Z</time></trkpt>
        <trkpt lat="29.52787" lon="103.331568"><ele>2931.7915</ele><time>2026-05-27T21:54:48.000Z</time></trkpt>
        <trkpt lat="29.52787" lon="103.33151"><ele>2930.983</ele><time>2026-05-27T21:54:55.000Z</time></trkpt>
        <trkpt lat="29.527875" lon="103.331453"><ele>2928.4238</ele><time>2026-05-27T21:55:01.000Z</time></trkpt>
        <trkpt lat="29.527907" lon="103.331415"><ele>2926.4365</ele><time>2026-05-27T21:55:08.000Z</time></trkpt>
        <trkpt lat="29.527952" lon="103.331388"><ele>2925.2349</ele><time>2026-05-27T21:55:17.000Z</time></trkpt>
        <trkpt lat="29.527992" lon="103.331357"><ele>2925.2952</ele><time>2026-05-27T21:55:26.000Z</time></trkpt>
        <trkpt lat="29.528041" lon="103.33132"><ele>2923.297</ele><time>2026-05-27T21:55:34.000Z</time></trkpt>
        <trkpt lat="29.528072" lon="103.331271"><ele>2922.8735</ele><time>2026-05-27T21:55:43.000Z</time></trkpt>
        <trkpt lat="29.528095" lon="103.331225"><ele>2924.6968</ele><time>2026-05-27T21:55:51.000Z</time></trkpt>
        <trkpt lat="29.528117" lon="103.331172"><ele>2922.742</ele><time>2026-05-27T21:55:56.000Z</time></trkpt>
        <trkpt lat="29.528133" lon="103.331122"><ele>2921.4094</ele><time>2026-05-27T21:56:03.000Z</time></trkpt>
        <trkpt lat="29.528172" lon="103.331089"><ele>2920.716</ele><time>2026-05-27T21:56:09.000Z</time></trkpt>
        <trkpt lat="29.528195" lon="103.331037"><ele>2918.4866</ele><time>2026-05-27T21:56:18.000Z</time></trkpt>
        <trkpt lat="29.528217" lon="103.33099"><ele>2918.7922</ele><time>2026-05-27T21:56:25.000Z</time></trkpt>
        <trkpt lat="29.528236" lon="103.330938"><ele>2917.2126</ele><time>2026-05-27T21:56:31.000Z</time></trkpt>
        <trkpt lat="29.528248" lon="103.330886"><ele>2913.6804</ele><time>2026-05-27T21:56:41.000Z</time></trkpt>
        <trkpt lat="29.52829" lon="103.33084"><ele>2914.206</ele><time>2026-05-27T21:56:47.000Z</time></trkpt>
        <trkpt lat="29.528323" lon="103.330804"><ele>2911.1084</ele><time>2026-05-27T21:56:59.000Z</time></trkpt>
        <trkpt lat="29.528336" lon="103.330748"><ele>2908.7761</ele><time>2026-05-27T21:57:09.000Z</time></trkpt>
        <trkpt lat="29.52837" lon="103.330709"><ele>2907.6646</ele><time>2026-05-27T21:57:19.000Z</time></trkpt>
        <trkpt lat="29.528392" lon="103.330658"><ele>2904.0054</ele><time>2026-05-27T21:57:36.000Z</time></trkpt>
        <trkpt lat="29.528395" lon="103.330605"><ele>2901.8474</ele><time>2026-05-27T21:57:46.000Z</time></trkpt>
        <trkpt lat="29.52843" lon="103.330563"><ele>2899.9636</ele><time>2026-05-27T21:57:54.000Z</time></trkpt>
        <trkpt lat="29.528414" lon="103.330507"><ele>2900.8389</ele><time>2026-05-27T21:58:00.000Z</time></trkpt>
        <trkpt lat="29.528416" lon="103.330454"><ele>2902.1692</ele><time>2026-05-27T21:58:04.000Z</time></trkpt>
        <trkpt lat="29.528392" lon="103.330407"><ele>2903.3074</ele><time>2026-05-27T21:58:10.000Z</time></trkpt>
        <trkpt lat="29.528375" lon="103.330357"><ele>2904.1458</ele><time>2026-05-27T21:58:15.000Z</time></trkpt>
        <trkpt lat="29.528375" lon="103.330305"><ele>2902.4495</ele><time>2026-05-27T21:58:20.000Z</time></trkpt>
        <trkpt lat="29.528401" lon="103.330249"><ele>2901.063</ele><time>2026-05-27T21:58:23.000Z</time></trkpt>
        <trkpt lat="29.528439" lon="103.330215"><ele>2898.4902</ele><time>2026-05-27T21:58:28.000Z</time></trkpt>
        <trkpt lat="29.528472" lon="103.330179"><ele>2899.1675</ele><time>2026-05-27T21:58:33.000Z</time></trkpt>
        <trkpt lat="29.528516" lon="103.330156"><ele>2897.7021</ele><time>2026-05-27T21:58:38.000Z</time></trkpt>
        <trkpt lat="29.528545" lon="103.330108"><ele>2897.478</ele><time>2026-05-27T21:58:44.000Z</time></trkpt>
        <trkpt lat="29.528581" lon="103.330074"><ele>2898.895</ele><time>2026-05-27T21:58:49.000Z</time></trkpt>
        <trkpt lat="29.528624" lon="103.330043"><ele>2900.4944</ele><time>2026-05-27T21:58:55.000Z</time></trkpt>
        <trkpt lat="29.528649" lon="103.329994"><ele>2900.5293</ele><time>2026-05-27T21:59:05.000Z</time></trkpt>
        <trkpt lat="29.528655" lon="103.329941"><ele>2900.5422</ele><time>2026-05-27T21:59:10.000Z</time></trkpt>
        <trkpt lat="29.528664" lon="103.329881"><ele>2896.3135</ele><time>2026-05-27T21:59:15.000Z</time></trkpt>
        <trkpt lat="29.528688" lon="103.329824"><ele>2894.9214</ele><time>2026-05-27T21:59:22.000Z</time></trkpt>
        <trkpt lat="29.528713" lon="103.329766"><ele>2896.7114</ele><time>2026-05-27T21:59:28.000Z</time></trkpt>
        <trkpt lat="29.528704" lon="103.329695"><ele>2897.011</ele><time>2026-05-27T21:59:37.000Z</time></trkpt>
        <trkpt lat="29.528681" lon="103.329638"><ele>2896.6946</ele><time>2026-05-27T21:59:51.000Z</time></trkpt>
        <trkpt lat="29.528686" lon="103.329575"><ele>2895.596</ele><time>2026-05-27T22:00:01.000Z</time></trkpt>
        <trkpt lat="29.528698" lon="103.329523"><ele>2896.7393</ele><time>2026-05-27T22:00:07.000Z</time></trkpt>
        <trkpt lat="29.528707" lon="103.32947"><ele>2896.8445</ele><time>2026-05-27T22:00:15.000Z</time></trkpt>
        <trkpt lat="29.528721" lon="103.329411"><ele>2899.0076</ele><time>2026-05-27T22:00:21.000Z</time></trkpt>
        <trkpt lat="29.528755" lon="103.329365"><ele>2892.4275</ele><time>2026-05-27T22:00:33.000Z</time></trkpt>
        <trkpt lat="29.528773" lon="103.329312"><ele>2891.557</ele><time>2026-05-27T22:00:44.000Z</time></trkpt>
        <trkpt lat="29.5288" lon="103.329266"><ele>2891.749</ele><time>2026-05-27T22:00:51.000Z</time></trkpt>
        <trkpt lat="29.528839" lon="103.329233"><ele>2890.1714</ele><time>2026-05-27T22:01:10.000Z</time></trkpt>
        <trkpt lat="29.528885" lon="103.329215"><ele>2890.7756</ele><time>2026-05-27T22:01:20.000Z</time></trkpt>
        <trkpt lat="29.528911" lon="103.329171"><ele>2891.6091</ele><time>2026-05-27T22:01:27.000Z</time></trkpt>
        <trkpt lat="29.528937" lon="103.329116"><ele>2890.7236</ele><time>2026-05-27T22:01:33.000Z</time></trkpt>
        <trkpt lat="29.528966" lon="103.329064"><ele>2891.2412</ele><time>2026-05-27T22:01:38.000Z</time></trkpt>
        <trkpt lat="29.529004" lon="103.329036"><ele>2888.4094</ele><time>2026-05-27T22:01:43.000Z</time></trkpt>
        <trkpt lat="29.529041" lon="103.329"><ele>2888.8167</ele><time>2026-05-27T22:01:48.000Z</time></trkpt>
        <trkpt lat="29.529067" lon="103.328951"><ele>2886.8052</ele><time>2026-05-27T22:01:53.000Z</time></trkpt>
        <trkpt lat="29.52909" lon="103.328898"><ele>2882.3354</ele><time>2026-05-27T22:02:00.000Z</time></trkpt>
        <trkpt lat="29.529094" lon="103.328839"><ele>2877.453</ele><time>2026-05-27T22:02:10.000Z</time></trkpt>
        <trkpt lat="29.529093" lon="103.32878"><ele>2878.8716</ele><time>2026-05-27T22:02:17.000Z</time></trkpt>
        <trkpt lat="29.529106" lon="103.328721"><ele>2880.101</ele><time>2026-05-27T22:02:25.000Z</time></trkpt>
        <trkpt lat="29.529128" lon="103.328674"><ele>2878.852</ele><time>2026-05-27T22:02:32.000Z</time></trkpt>
        <trkpt lat="29.529155" lon="103.328625"><ele>2876.7292</ele><time>2026-05-27T22:02:40.000Z</time></trkpt>
        <trkpt lat="29.529178" lon="103.328578"><ele>2875.5134</ele><time>2026-05-27T22:02:49.000Z</time></trkpt>
        <trkpt lat="29.529191" lon="103.328519"><ele>2873.0957</ele><time>2026-05-27T22:03:02.000Z</time></trkpt>
        <trkpt lat="29.529217" lon="103.328473"><ele>2872.489</ele><time>2026-05-27T22:03:13.000Z</time></trkpt>
        <trkpt lat="29.529227" lon="103.328421"><ele>2869.7817</ele><time>2026-05-27T22:03:25.000Z</time></trkpt>
        <trkpt lat="29.529236" lon="103.328371"><ele>2868.4001</ele><time>2026-05-27T22:03:33.000Z</time></trkpt>
        <trkpt lat="29.529252" lon="103.328321"><ele>2866.26</ele><time>2026-05-27T22:03:45.000Z</time></trkpt>
        <trkpt lat="29.529273" lon="103.328271"><ele>2864.602</ele><time>2026-05-27T22:03:55.000Z</time></trkpt>
        <trkpt lat="29.529279" lon="103.328219"><ele>2864.3047</ele><time>2026-05-27T22:04:04.000Z</time></trkpt>
        <trkpt lat="29.529277" lon="103.328158"><ele>2861.8232</ele><time>2026-05-27T22:04:15.000Z</time></trkpt>
        <trkpt lat="29.529279" lon="103.328103"><ele>2860.27</ele><time>2026-05-27T22:04:24.000Z</time></trkpt>
        <trkpt lat="29.529295" lon="103.328051"><ele>2858.5444</ele><time>2026-05-27T22:04:32.000Z</time></trkpt>
        <trkpt lat="29.529325" lon="103.328005"><ele>2858.151</ele><time>2026-05-27T22:04:42.000Z</time></trkpt>
        <trkpt lat="29.529343" lon="103.327957"><ele>2858.38</ele><time>2026-05-27T22:04:50.000Z</time></trkpt>
        <trkpt lat="29.529354" lon="103.327902"><ele>2855.8716</ele><time>2026-05-27T22:04:58.000Z</time></trkpt>
        <trkpt lat="29.529401" lon="103.327851"><ele>2858.2183</ele><time>2026-05-27T22:05:05.000Z</time></trkpt>
        <trkpt lat="29.529445" lon="103.327842"><ele>2856.1377</ele><time>2026-05-27T22:05:20.000Z</time></trkpt>
        <trkpt lat="29.529486" lon="103.327873"><ele>2858.5923</ele><time>2026-05-27T22:05:25.000Z</time></trkpt>
        <trkpt lat="29.529532" lon="103.327881"><ele>2858.2227</ele><time>2026-05-27T22:05:31.000Z</time></trkpt>
        <trkpt lat="29.529581" lon="103.32788"><ele>2857.3987</ele><time>2026-05-27T22:05:37.000Z</time></trkpt>
        <trkpt lat="29.529573" lon="103.327939"><ele>2855.7507</ele><time>2026-05-27T22:06:03.000Z</time></trkpt>
        <trkpt lat="29.529561" lon="103.327996"><ele>2857.0435</ele><time>2026-05-27T22:06:08.000Z</time></trkpt>
        <trkpt lat="29.529551" lon="103.328053"><ele>2855.4604</ele><time>2026-05-27T22:06:23.000Z</time></trkpt>
        <trkpt lat="29.529553" lon="103.328104"><ele>2854.3284</ele><time>2026-05-27T22:06:30.000Z</time></trkpt>
        <trkpt lat="29.529546" lon="103.328165"><ele>2855.716</ele><time>2026-05-27T22:06:36.000Z</time></trkpt>
        <trkpt lat="29.52956" lon="103.328214"><ele>2856.105</ele><time>2026-05-27T22:07:25.000Z</time></trkpt>
        <trkpt lat="29.52958" lon="103.328166"><ele>2854.0713</ele><time>2026-05-27T22:14:22.000Z</time></trkpt>
        <trkpt lat="29.529591" lon="103.328109"><ele>2852.7273</ele><time>2026-05-27T22:14:32.000Z</time></trkpt>
        <trkpt lat="29.529589" lon="103.328051"><ele>2852.4246</ele><time>2026-05-27T22:14:38.000Z</time></trkpt>
        <trkpt lat="29.529585" lon="103.327991"><ele>2851.8333</ele><time>2026-05-27T22:14:45.000Z</time></trkpt>
        <trkpt lat="29.529601" lon="103.327935"><ele>2852.7637</ele><time>2026-05-27T22:14:52.000Z</time></trkpt>
        <trkpt lat="29.52961" lon="103.327881"><ele>2850.6633</ele><time>2026-05-27T22:15:09.000Z</time></trkpt>
        <trkpt lat="29.529644" lon="103.327845"><ele>2853.0852</ele><time>2026-05-27T22:15:19.000Z</time></trkpt>
        <trkpt lat="29.52969" lon="103.327861"><ele>2854.2134</ele><time>2026-05-27T22:15:25.000Z</time></trkpt>
        <trkpt lat="29.529741" lon="103.327867"><ele>2857.2837</ele><time>2026-05-27T22:15:32.000Z</time></trkpt>
        <trkpt lat="29.529784" lon="103.327851"><ele>2856.5537</ele><time>2026-05-27T22:16:12.000Z</time></trkpt>
        <trkpt lat="29.529812" lon="103.327802"><ele>2856.6445</ele><time>2026-05-27T22:16:35.000Z</time></trkpt>
        <trkpt lat="29.529837" lon="103.327753"><ele>2855.2915</ele><time>2026-05-27T22:16:45.000Z</time></trkpt>
        <trkpt lat="29.529868" lon="103.327706"><ele>2853.7192</ele><time>2026-05-27T22:16:55.000Z</time></trkpt>
        <trkpt lat="29.529884" lon="103.327654"><ele>2851.9526</ele><time>2026-05-27T22:17:06.000Z</time></trkpt>
        <trkpt lat="29.529908" lon="103.327605"><ele>2852.3538</ele><time>2026-05-27T22:17:14.000Z</time></trkpt>
        <trkpt lat="29.529935" lon="103.327558"><ele>2855.0583</ele><time>2026-05-27T22:17:21.000Z</time></trkpt>
        <trkpt lat="29.52996" lon="103.327508"><ele>2853.8884</ele><time>2026-05-27T22:17:27.000Z</time></trkpt>
        <trkpt lat="29.529989" lon="103.327458"><ele>2852.7266</ele><time>2026-05-27T22:17:33.000Z</time></trkpt>
        <trkpt lat="29.530026" lon="103.327422"><ele>2852.7893</ele><time>2026-05-27T22:17:40.000Z</time></trkpt>
        <trkpt lat="29.530052" lon="103.327379"><ele>2853.3928</ele><time>2026-05-27T22:17:46.000Z</time></trkpt>
        <trkpt lat="29.530086" lon="103.32733"><ele>2851.139</ele><time>2026-05-27T22:17:51.000Z</time></trkpt>
        <trkpt lat="29.530128" lon="103.327294"><ele>2851.0544</ele><time>2026-05-27T22:17:56.000Z</time></trkpt>
        <trkpt lat="29.530164" lon="103.327256"><ele>2849.7917</ele><time>2026-05-27T22:18:03.000Z</time></trkpt>
        <trkpt lat="29.530202" lon="103.327223"><ele>2849.2986</ele><time>2026-05-27T22:18:10.000Z</time></trkpt>
        <trkpt lat="29.530238" lon="103.327184"><ele>2849.1445</ele><time>2026-05-27T22:18:17.000Z</time></trkpt>
        <trkpt lat="29.53028" lon="103.327157"><ele>2850.7664</ele><time>2026-05-27T22:18:25.000Z</time></trkpt>
        <trkpt lat="29.530302" lon="103.327111"><ele>2848.012</ele><time>2026-05-27T22:18:41.000Z</time></trkpt>
        <trkpt lat="29.530346" lon="103.327098"><ele>2846.0276</ele><time>2026-05-27T22:19:01.000Z</time></trkpt>
        <trkpt lat="29.530395" lon="103.327092"><ele>2844.5852</ele><time>2026-05-27T22:19:07.000Z</time></trkpt>
        <trkpt lat="29.530445" lon="103.327085"><ele>2845.6128</ele><time>2026-05-27T22:19:15.000Z</time></trkpt>
        <trkpt lat="29.530491" lon="103.327086"><ele>2844.893</ele><time>2026-05-27T22:19:28.000Z</time></trkpt>
        <trkpt lat="29.530539" lon="103.327067"><ele>2844.6753</ele><time>2026-05-27T22:19:35.000Z</time></trkpt>
        <trkpt lat="29.530585" lon="103.327053"><ele>2844.3333</ele><time>2026-05-27T22:19:44.000Z</time></trkpt>
        <trkpt lat="29.530627" lon="103.327021"><ele>2842.3958</ele><time>2026-05-27T22:20:03.000Z</time></trkpt>
        <trkpt lat="29.53067" lon="103.32699"><ele>2837.4238</ele><time>2026-05-27T22:20:16.000Z</time></trkpt>
        <trkpt lat="29.530717" lon="103.326968"><ele>2837.0662</ele><time>2026-05-27T22:20:30.000Z</time></trkpt>
        <trkpt lat="29.530757" lon="103.326943"><ele>2832.6172</ele><time>2026-05-27T22:20:42.000Z</time></trkpt>
        <trkpt lat="29.5308" lon="103.326912"><ele>2829.0881</ele><time>2026-05-27T22:20:50.000Z</time></trkpt>
        <trkpt lat="29.530841" lon="103.326935"><ele>2828.209</ele><time>2026-05-27T22:21:15.000Z</time></trkpt>
        <trkpt lat="29.530856" lon="103.326983"><ele>2822.6167</ele><time>2026-05-27T22:21:27.000Z</time></trkpt>
        <trkpt lat="29.530883" lon="103.327025"><ele>2820.924</ele><time>2026-05-27T22:21:34.000Z</time></trkpt>
        <trkpt lat="29.530924" lon="103.32706"><ele>2818.5225</ele><time>2026-05-27T22:21:46.000Z</time></trkpt>
        <trkpt lat="29.530975" lon="103.327082"><ele>2818.1587</ele><time>2026-05-27T22:21:55.000Z</time></trkpt>
        <trkpt lat="29.53102" lon="103.327087"><ele>2816.0867</ele><time>2026-05-27T22:22:02.000Z</time></trkpt>
        <trkpt lat="29.531058" lon="103.327058"><ele>2816.771</ele><time>2026-05-27T22:23:03.000Z</time></trkpt>
        <trkpt lat="29.531093" lon="103.327091"><ele>2817.1418</ele><time>2026-05-27T22:24:01.000Z</time></trkpt>
        <trkpt lat="29.531126" lon="103.327133"><ele>2819.9695</ele><time>2026-05-27T22:25:16.000Z</time></trkpt>
        <trkpt lat="29.531168" lon="103.32716"><ele>2820.5671</ele><time>2026-05-27T22:25:21.000Z</time></trkpt>
        <trkpt lat="29.531203" lon="103.327195"><ele>2818.249</ele><time>2026-05-27T22:25:27.000Z</time></trkpt>
        <trkpt lat="29.531214" lon="103.32725"><ele>2815.493</ele><time>2026-05-27T22:25:35.000Z</time></trkpt>
        <trkpt lat="29.531229" lon="103.327301"><ele>2811.9495</ele><time>2026-05-27T22:25:46.000Z</time></trkpt>
        <trkpt lat="29.531222" lon="103.327355"><ele>2808.1084</ele><time>2026-05-27T22:26:06.000Z</time></trkpt>
        <trkpt lat="29.531211" lon="103.327406"><ele>2805.8706</ele><time>2026-05-27T22:26:24.000Z</time></trkpt>
        <trkpt lat="29.531223" lon="103.327456"><ele>2805.754</ele><time>2026-05-27T22:26:34.000Z</time></trkpt>
        <trkpt lat="29.531222" lon="103.327516"><ele>2805.5696</ele><time>2026-05-27T22:26:42.000Z</time></trkpt>
        <trkpt lat="29.531239" lon="103.327572"><ele>2804.9883</ele><time>2026-05-27T22:26:46.000Z</time></trkpt>
        <trkpt lat="29.531245" lon="103.327628"><ele>2806.7456</ele><time>2026-05-27T22:26:52.000Z</time></trkpt>
        <trkpt lat="29.531261" lon="103.327679"><ele>2803.4468</ele><time>2026-05-27T22:26:57.000Z</time></trkpt>
        <trkpt lat="29.53126" lon="103.327731"><ele>2798.9033</ele><time>2026-05-27T22:27:06.000Z</time></trkpt>
        <trkpt lat="29.531262" lon="103.327784"><ele>2799.5269</ele><time>2026-05-27T22:27:13.000Z</time></trkpt>
        <trkpt lat="29.531263" lon="103.327842"><ele>2796.876</ele><time>2026-05-27T22:27:22.000Z</time></trkpt>
        <trkpt lat="29.531279" lon="103.327892"><ele>2796.8838</ele><time>2026-05-27T22:27:28.000Z</time></trkpt>
        <trkpt lat="29.531283" lon="103.327949"><ele>2794.2576</ele><time>2026-05-27T22:27:38.000Z</time></trkpt>
        <trkpt lat="29.531285" lon="103.32801"><ele>2789.3801</ele><time>2026-05-27T22:27:49.000Z</time></trkpt>
        <trkpt lat="29.531298" lon="103.328067"><ele>2790.261</ele><time>2026-05-27T22:27:57.000Z</time></trkpt>
        <trkpt lat="29.531285" lon="103.328124"><ele>2788.1287</ele><time>2026-05-27T22:28:04.000Z</time></trkpt>
        <trkpt lat="29.531276" lon="103.328187"><ele>2785.7446</ele><time>2026-05-27T22:28:11.000Z</time></trkpt>
        <trkpt lat="29.531275" lon="103.328243"><ele>2785.9102</ele><time>2026-05-27T22:28:16.000Z</time></trkpt>
        <trkpt lat="29.531264" lon="103.328297"><ele>2786.3591</ele><time>2026-05-27T22:28:21.000Z</time></trkpt>
        <trkpt lat="29.5313" lon="103.328267"><ele>2782.6467</ele><time>2026-05-27T22:30:58.000Z</time></trkpt>
        <trkpt lat="29.531296" lon="103.328321"><ele>2785.6748</ele><time>2026-05-27T22:32:36.000Z</time></trkpt>
        <trkpt lat="29.531299" lon="103.328268"><ele>2786.6455</ele><time>2026-05-27T22:33:13.000Z</time></trkpt>
        <trkpt lat="29.531298" lon="103.328325"><ele>2782.4343</ele><time>2026-05-27T22:41:20.000Z</time></trkpt>
        <trkpt lat="29.531284" lon="103.328377"><ele>2782.4329</ele><time>2026-05-27T22:41:25.000Z</time></trkpt>
        <trkpt lat="29.531279" lon="103.328429"><ele>2781.2068</ele><time>2026-05-27T22:41:31.000Z</time></trkpt>
        <trkpt lat="29.531255" lon="103.328476"><ele>2780.1296</ele><time>2026-05-27T22:41:37.000Z</time></trkpt>
        <trkpt lat="29.531251" lon="103.328529"><ele>2781.084</ele><time>2026-05-27T22:41:55.000Z</time></trkpt>
        <trkpt lat="29.531237" lon="103.328587"><ele>2782.162</ele><time>2026-05-27T22:42:04.000Z</time></trkpt>
        <trkpt lat="29.531235" lon="103.328642"><ele>2784.5076</ele><time>2026-05-27T22:42:09.000Z</time></trkpt>
        <trkpt lat="29.531209" lon="103.328699"><ele>2783.4556</ele><time>2026-05-27T22:42:15.000Z</time></trkpt>
        <trkpt lat="29.531214" lon="103.328752"><ele>2785.0164</ele><time>2026-05-27T22:42:21.000Z</time></trkpt>
        <trkpt lat="29.531197" lon="103.328812"><ele>2787.2068</ele><time>2026-05-27T22:42:26.000Z</time></trkpt>
        <trkpt lat="29.531184" lon="103.328865"><ele>2780.8064</ele><time>2026-05-27T22:42:34.000Z</time></trkpt>
        <trkpt lat="29.531162" lon="103.328912"><ele>2778.8276</ele><time>2026-05-27T22:42:39.000Z</time></trkpt>
        <trkpt lat="29.531143" lon="103.328962"><ele>2778.456</ele><time>2026-05-27T22:42:43.000Z</time></trkpt>
        <trkpt lat="29.531124" lon="103.32902"><ele>2776.7124</ele><time>2026-05-27T22:42:48.000Z</time></trkpt>
        <trkpt lat="29.531123" lon="103.329075"><ele>2772.3167</ele><time>2026-05-27T22:42:55.000Z</time></trkpt>
        <trkpt lat="29.531136" lon="103.329134"><ele>2771.3933</ele><time>2026-05-27T22:43:00.000Z</time></trkpt>
        <trkpt lat="29.531126" lon="103.329201"><ele>2770.9583</ele><time>2026-05-27T22:43:05.000Z</time></trkpt>
        <trkpt lat="29.531132" lon="103.329263"><ele>2770.1025</ele><time>2026-05-27T22:43:11.000Z</time></trkpt>
        <trkpt lat="29.531135" lon="103.329324"><ele>2769.541</ele><time>2026-05-27T22:43:18.000Z</time></trkpt>
        <trkpt lat="29.531135" lon="103.329385"><ele>2766.0476</ele><time>2026-05-27T22:43:25.000Z</time></trkpt>
        <trkpt lat="29.531134" lon="103.329437"><ele>2766.2197</ele><time>2026-05-27T22:43:28.000Z</time></trkpt>
        <trkpt lat="29.531138" lon="103.329493"><ele>2764.5347</ele><time>2026-05-27T22:43:33.000Z</time></trkpt>
        <trkpt lat="29.531161" lon="103.329557"><ele>2766.2952</ele><time>2026-05-27T22:43:38.000Z</time></trkpt>
        <trkpt lat="29.53118" lon="103.329608"><ele>2761.869</ele><time>2026-05-27T22:43:46.000Z</time></trkpt>
        <trkpt lat="29.531213" lon="103.329658"><ele>2755.9138</ele><time>2026-05-27T22:43:57.000Z</time></trkpt>
        <trkpt lat="29.531241" lon="103.329703"><ele>2749.9128</ele><time>2026-05-27T22:44:09.000Z</time></trkpt>
        <trkpt lat="29.531271" lon="103.329746"><ele>2746.887</ele><time>2026-05-27T22:44:19.000Z</time></trkpt>
        <trkpt lat="29.531295" lon="103.329792"><ele>2745.2073</ele><time>2026-05-27T22:44:28.000Z</time></trkpt>
        <trkpt lat="29.531334" lon="103.329828"><ele>2744.5417</ele><time>2026-05-27T22:44:35.000Z</time></trkpt>
        <trkpt lat="29.531344" lon="103.329882"><ele>2738.5183</ele><time>2026-05-27T22:44:54.000Z</time></trkpt>
        <trkpt lat="29.531388" lon="103.329907"><ele>2738.3665</ele><time>2026-05-27T22:45:02.000Z</time></trkpt>
        <trkpt lat="29.531433" lon="103.329935"><ele>2739.4456</ele><time>2026-05-27T22:45:12.000Z</time></trkpt>
        <trkpt lat="29.531451" lon="103.329984"><ele>2733.5188</ele><time>2026-05-27T22:45:26.000Z</time></trkpt>
        <trkpt lat="29.53149" lon="103.330023"><ele>2729.0764</ele><time>2026-05-27T22:45:45.000Z</time></trkpt>
        <trkpt lat="29.53153" lon="103.330053"><ele>2724.7173</ele><time>2026-05-27T22:45:57.000Z</time></trkpt>
        <trkpt lat="29.531579" lon="103.330065"><ele>2719.1082</ele><time>2026-05-27T22:46:10.000Z</time></trkpt>
        <trkpt lat="29.531631" lon="103.330061"><ele>2720.672</ele><time>2026-05-27T22:46:26.000Z</time></trkpt>
        <trkpt lat="29.531676" lon="103.330083"><ele>2718.372</ele><time>2026-05-27T22:46:32.000Z</time></trkpt>
        <trkpt lat="29.531714" lon="103.330114"><ele>2714.2344</ele><time>2026-05-27T22:46:39.000Z</time></trkpt>
        <trkpt lat="29.531757" lon="103.330141"><ele>2710.9087</ele><time>2026-05-27T22:46:47.000Z</time></trkpt>
        <trkpt lat="29.531803" lon="103.330175"><ele>2709.6406</ele><time>2026-05-27T22:46:55.000Z</time></trkpt>
        <trkpt lat="29.531838" lon="103.330212"><ele>2708.3298</ele><time>2026-05-27T22:47:02.000Z</time></trkpt>
        <trkpt lat="29.531861" lon="103.330256"><ele>2708.5325</ele><time>2026-05-27T22:47:15.000Z</time></trkpt>
        <trkpt lat="29.531899" lon="103.330292"><ele>2706.4724</ele><time>2026-05-27T22:47:24.000Z</time></trkpt>
        <trkpt lat="29.53194" lon="103.330315"><ele>2704.5437</ele><time>2026-05-27T22:47:35.000Z</time></trkpt>
        <trkpt lat="29.531998" lon="103.330322"><ele>2703.9065</ele><time>2026-05-27T22:47:47.000Z</time></trkpt>
        <trkpt lat="29.532045" lon="103.330319"><ele>2701.5176</ele><time>2026-05-27T22:48:00.000Z</time></trkpt>
        <trkpt lat="29.532092" lon="103.330309"><ele>2698.4504</ele><time>2026-05-27T22:48:10.000Z</time></trkpt>
        <trkpt lat="29.53214" lon="103.330311"><ele>2696.894</ele><time>2026-05-27T22:48:26.000Z</time></trkpt>
        <trkpt lat="29.532185" lon="103.33031"><ele>2694.8872</ele><time>2026-05-27T22:48:34.000Z</time></trkpt>
        <trkpt lat="29.532233" lon="103.330311"><ele>2693.0718</ele><time>2026-05-27T22:48:46.000Z</time></trkpt>
        <trkpt lat="29.532204" lon="103.330353"><ele>2690.927</ele><time>2026-05-27T22:49:03.000Z</time></trkpt>
        <trkpt lat="29.532183" lon="103.330403"><ele>2692.7986</ele><time>2026-05-27T22:49:14.000Z</time></trkpt>
        <trkpt lat="29.532149" lon="103.330437"><ele>2691.5144</ele><time>2026-05-27T22:49:23.000Z</time></trkpt>
        <trkpt lat="29.532129" lon="103.330486"><ele>2686.9624</ele><time>2026-05-27T22:49:33.000Z</time></trkpt>
        <trkpt lat="29.532157" lon="103.330533"><ele>2685.621</ele><time>2026-05-27T22:49:43.000Z</time></trkpt>
        <trkpt lat="29.532162" lon="103.330586"><ele>2682.969</ele><time>2026-05-27T22:50:05.000Z</time></trkpt>
        <trkpt lat="29.532159" lon="103.330643"><ele>2683.241</ele><time>2026-05-27T22:50:13.000Z</time></trkpt>
        <trkpt lat="29.532144" lon="103.330698"><ele>2678.5452</ele><time>2026-05-27T22:50:26.000Z</time></trkpt>
        <trkpt lat="29.53216" lon="103.330757"><ele>2676.4495</ele><time>2026-05-27T22:50:31.000Z</time></trkpt>
        <trkpt lat="29.532167" lon="103.330812"><ele>2674.2021</ele><time>2026-05-27T22:50:35.000Z</time></trkpt>
        <trkpt lat="29.532168" lon="103.330869"><ele>2674.3306</ele><time>2026-05-27T22:50:40.000Z</time></trkpt>
        <trkpt lat="29.532191" lon="103.330923"><ele>2671.626</ele><time>2026-05-27T22:50:44.000Z</time></trkpt>
        <trkpt lat="29.53216" lon="103.330963"><ele>2670.7715</ele><time>2026-05-27T22:50:49.000Z</time></trkpt>
        <trkpt lat="29.532149" lon="103.33102"><ele>2669.7212</ele><time>2026-05-27T22:50:58.000Z</time></trkpt>
        <trkpt lat="29.532163" lon="103.33107"><ele>2669.2107</ele><time>2026-05-27T22:51:04.000Z</time></trkpt>
        <trkpt lat="29.532156" lon="103.331125"><ele>2669.799</ele><time>2026-05-27T22:51:10.000Z</time></trkpt>
        <trkpt lat="29.532166" lon="103.331181"><ele>2670.1064</ele><time>2026-05-27T22:51:16.000Z</time></trkpt>
        <trkpt lat="29.532194" lon="103.331238"><ele>2669.5422</ele><time>2026-05-27T22:51:24.000Z</time></trkpt>
        <trkpt lat="29.532195" lon="103.331294"><ele>2665.7893</ele><time>2026-05-27T22:51:37.000Z</time></trkpt>
        <trkpt lat="29.532189" lon="103.331354"><ele>2660.982</ele><time>2026-05-27T22:51:45.000Z</time></trkpt>
        <trkpt lat="29.532198" lon="103.331411"><ele>2659.176</ele><time>2026-05-27T22:51:51.000Z</time></trkpt>
        <trkpt lat="29.532227" lon="103.331453"><ele>2661.4202</ele><time>2026-05-27T22:51:58.000Z</time></trkpt>
        <trkpt lat="29.53223" lon="103.331401"><ele>2655.797</ele><time>2026-05-27T22:52:11.000Z</time></trkpt>
        <trkpt lat="29.532266" lon="103.331367"><ele>2656.264</ele><time>2026-05-27T22:52:16.000Z</time></trkpt>
        <trkpt lat="29.532284" lon="103.331319"><ele>2652.4346</ele><time>2026-05-27T22:52:30.000Z</time></trkpt>
        <trkpt lat="29.532315" lon="103.331281"><ele>2651.957</ele><time>2026-05-27T22:52:39.000Z</time></trkpt>
        <trkpt lat="29.532339" lon="103.331236"><ele>2649.7861</ele><time>2026-05-27T22:52:49.000Z</time></trkpt>
        <trkpt lat="29.532363" lon="103.33128"><ele>2651.685</ele><time>2026-05-27T22:53:04.000Z</time></trkpt>
        <trkpt lat="29.532384" lon="103.331329"><ele>2651.9414</ele><time>2026-05-27T22:53:13.000Z</time></trkpt>
        <trkpt lat="29.532392" lon="103.331386"><ele>2652.3792</ele><time>2026-05-27T22:53:20.000Z</time></trkpt>
        <trkpt lat="29.532427" lon="103.331423"><ele>2650.9236</ele><time>2026-05-27T22:53:32.000Z</time></trkpt>
        <trkpt lat="29.532446" lon="103.33147"><ele>2647.276</ele><time>2026-05-27T22:53:43.000Z</time></trkpt>
        <trkpt lat="29.532463" lon="103.331519"><ele>2645.8691</ele><time>2026-05-27T22:53:56.000Z</time></trkpt>
        <trkpt lat="29.532472" lon="103.331573"><ele>2643.7703</ele><time>2026-05-27T22:54:08.000Z</time></trkpt>
        <trkpt lat="29.532461" lon="103.331628"><ele>2643.4045</ele><time>2026-05-27T22:54:19.000Z</time></trkpt>
        <trkpt lat="29.532498" lon="103.331663"><ele>2640.8005</ele><time>2026-05-27T22:54:34.000Z</time></trkpt>
        <trkpt lat="29.532505" lon="103.331717"><ele>2639.032</ele><time>2026-05-27T22:54:47.000Z</time></trkpt>
        <trkpt lat="29.532511" lon="103.331769"><ele>2641.2725</ele><time>2026-05-27T22:55:00.000Z</time></trkpt>
        <trkpt lat="29.532524" lon="103.33182"><ele>2638.433</ele><time>2026-05-27T22:55:17.000Z</time></trkpt>
        <trkpt lat="29.532565" lon="103.331848"><ele>2638.557</ele><time>2026-05-27T22:55:26.000Z</time></trkpt>
        <trkpt lat="29.532606" lon="103.331876"><ele>2633.6646</ele><time>2026-05-27T22:55:39.000Z</time></trkpt>
        <trkpt lat="29.532633" lon="103.331921"><ele>2630.7612</ele><time>2026-05-27T22:55:53.000Z</time></trkpt>
        <trkpt lat="29.53263" lon="103.331977"><ele>2622.041</ele><time>2026-05-27T22:56:11.000Z</time></trkpt>
        <trkpt lat="29.532656" lon="103.332021"><ele>2620.886</ele><time>2026-05-27T22:56:19.000Z</time></trkpt>
        <trkpt lat="29.532676" lon="103.332072"><ele>2614.729</ele><time>2026-05-27T22:56:37.000Z</time></trkpt>
        <trkpt lat="29.532717" lon="103.332096"><ele>2617.488</ele><time>2026-05-27T22:56:49.000Z</time></trkpt>
        <trkpt lat="29.532752" lon="103.33213"><ele>2618.7896</ele><time>2026-05-27T22:56:56.000Z</time></trkpt>
        <trkpt lat="29.532779" lon="103.332178"><ele>2616.0068</ele><time>2026-05-27T22:57:08.000Z</time></trkpt>
        <trkpt lat="29.532815" lon="103.332223"><ele>2614.7712</ele><time>2026-05-27T22:57:17.000Z</time></trkpt>
        <trkpt lat="29.532853" lon="103.332258"><ele>2609.6143</ele><time>2026-05-27T22:57:32.000Z</time></trkpt>
        <trkpt lat="29.532889" lon="103.33229"><ele>2607.602</ele><time>2026-05-27T22:57:44.000Z</time></trkpt>
        <trkpt lat="29.532913" lon="103.332348"><ele>2608.1348</ele><time>2026-05-27T22:57:52.000Z</time></trkpt>
        <trkpt lat="29.532937" lon="103.332399"><ele>2608.674</ele><time>2026-05-27T22:58:01.000Z</time></trkpt>
        <trkpt lat="29.532974" lon="103.332428"><ele>2607.402</ele><time>2026-05-27T22:58:08.000Z</time></trkpt>
        <trkpt lat="29.533015" lon="103.332467"><ele>2608.0928</ele><time>2026-05-27T22:58:21.000Z</time></trkpt>
        <trkpt lat="29.533043" lon="103.332516"><ele>2605.7285</ele><time>2026-05-27T22:58:32.000Z</time></trkpt>
        <trkpt lat="29.533088" lon="103.332548"><ele>2604.179</ele><time>2026-05-27T22:58:38.000Z</time></trkpt>
        <trkpt lat="29.533125" lon="103.332582"><ele>2601.4622</ele><time>2026-05-27T22:58:48.000Z</time></trkpt>
        <trkpt lat="29.533152" lon="103.332623"><ele>2600.169</ele><time>2026-05-27T22:58:57.000Z</time></trkpt>
        <trkpt lat="29.533195" lon="103.332642"><ele>2598.1072</ele><time>2026-05-27T22:59:11.000Z</time></trkpt>
        <trkpt lat="29.53323" lon="103.332683"><ele>2597.6199</ele><time>2026-05-27T22:59:19.000Z</time></trkpt>
        <trkpt lat="29.533267" lon="103.332716"><ele>2597.674</ele><time>2026-05-27T22:59:28.000Z</time></trkpt>
        <trkpt lat="29.533301" lon="103.33275"><ele>2599.0771</ele><time>2026-05-27T22:59:39.000Z</time></trkpt>
        <trkpt lat="29.533343" lon="103.332782"><ele>2599.7605</ele><time>2026-05-27T22:59:46.000Z</time></trkpt>
        <trkpt lat="29.533386" lon="103.332811"><ele>2596.2065</ele><time>2026-05-27T22:59:57.000Z</time></trkpt>
        <trkpt lat="29.533415" lon="103.332852"><ele>2593.2173</ele><time>2026-05-27T23:00:13.000Z</time></trkpt>
        <trkpt lat="29.533462" lon="103.33286"><ele>2588.747</ele><time>2026-05-27T23:00:27.000Z</time></trkpt>
        <trkpt lat="29.533507" lon="103.332888"><ele>2582.2214</ele><time>2026-05-27T23:00:44.000Z</time></trkpt>
        <trkpt lat="29.53354" lon="103.332928"><ele>2582.5273</ele><time>2026-05-27T23:00:57.000Z</time></trkpt>
        <trkpt lat="29.533573" lon="103.332965"><ele>2579.4475</ele><time>2026-05-27T23:01:08.000Z</time></trkpt>
        <trkpt lat="29.533615" lon="103.332994"><ele>2580.4087</ele><time>2026-05-27T23:01:17.000Z</time></trkpt>
        <trkpt lat="29.533659" lon="103.333027"><ele>2582.3179</ele><time>2026-05-27T23:01:26.000Z</time></trkpt>
        <trkpt lat="29.53369" lon="103.333069"><ele>2576.196</ele><time>2026-05-27T23:01:37.000Z</time></trkpt>
        <trkpt lat="29.533718" lon="103.333113"><ele>2575.7327</ele><time>2026-05-27T23:01:48.000Z</time></trkpt>
        <trkpt lat="29.533738" lon="103.333162"><ele>2571.8987</ele><time>2026-05-27T23:02:04.000Z</time></trkpt>
        <trkpt lat="29.533761" lon="103.333212"><ele>2571.6719</ele><time>2026-05-27T23:02:21.000Z</time></trkpt>
        <trkpt lat="29.533811" lon="103.333222"><ele>2575.071</ele><time>2026-05-27T23:02:29.000Z</time></trkpt>
        <trkpt lat="29.533865" lon="103.333242"><ele>2572.9158</ele><time>2026-05-27T23:02:38.000Z</time></trkpt>
        <trkpt lat="29.533912" lon="103.333262"><ele>2558.957</ele><time>2026-05-27T23:03:08.000Z</time></trkpt>
        <trkpt lat="29.53396" lon="103.333235"><ele>2555.1726</ele><time>2026-05-27T23:03:31.000Z</time></trkpt>
        <trkpt lat="29.534009" lon="103.33324"><ele>2556.8818</ele><time>2026-05-27T23:03:41.000Z</time></trkpt>
        <trkpt lat="29.534053" lon="103.333256"><ele>2556.755</ele><time>2026-05-27T23:03:44.000Z</time></trkpt>
        <trkpt lat="29.534103" lon="103.333267"><ele>2556.8926</ele><time>2026-05-27T23:03:48.000Z</time></trkpt>
        <trkpt lat="29.534144" lon="103.333241"><ele>2554.326</ele><time>2026-05-27T23:03:55.000Z</time></trkpt>
        <trkpt lat="29.53419" lon="103.333214"><ele>2553.5132</ele><time>2026-05-27T23:04:07.000Z</time></trkpt>
        <trkpt lat="29.534232" lon="103.333188"><ele>2550.5293</ele><time>2026-05-27T23:04:14.000Z</time></trkpt>
        <trkpt lat="29.53428" lon="103.333169"><ele>2548.0095</ele><time>2026-05-27T23:04:23.000Z</time></trkpt>
        <trkpt lat="29.534318" lon="103.333135"><ele>2547.4077</ele><time>2026-05-27T23:04:36.000Z</time></trkpt>
        <trkpt lat="29.534349" lon="103.333177"><ele>2547.7966</ele><time>2026-05-27T23:04:51.000Z</time></trkpt>
        <trkpt lat="29.534394" lon="103.333185"><ele>2547.4802</ele><time>2026-05-27T23:04:57.000Z</time></trkpt>
        <trkpt lat="29.534436" lon="103.333164"><ele>2542.4272</ele><time>2026-05-27T23:05:12.000Z</time></trkpt>
        <trkpt lat="29.53448" lon="103.333133"><ele>2541.0674</ele><time>2026-05-27T23:05:22.000Z</time></trkpt>
        <trkpt lat="29.534527" lon="103.333119"><ele>2541.6958</ele><time>2026-05-27T23:05:36.000Z</time></trkpt>
        <trkpt lat="29.534573" lon="103.333118"><ele>2543.407</ele><time>2026-05-27T23:05:44.000Z</time></trkpt>
        <trkpt lat="29.534615" lon="103.333094"><ele>2540.561</ele><time>2026-05-27T23:05:53.000Z</time></trkpt>
        <trkpt lat="29.534659" lon="103.333083"><ele>2535.639</ele><time>2026-05-27T23:06:09.000Z</time></trkpt>
        <trkpt lat="29.534705" lon="103.333072"><ele>2534.0713</ele><time>2026-05-27T23:06:16.000Z</time></trkpt>
        <trkpt lat="29.534751" lon="103.333055"><ele>2533.013</ele><time>2026-05-27T23:06:24.000Z</time></trkpt>
        <trkpt lat="29.534796" lon="103.333032"><ele>2531.1777</ele><time>2026-05-27T23:06:38.000Z</time></trkpt>
        <trkpt lat="29.53483" lon="103.332988"><ele>2527.11</ele><time>2026-05-27T23:06:57.000Z</time></trkpt>
        <trkpt lat="29.534873" lon="103.333007"><ele>2528.0403</ele><time>2026-05-27T23:07:17.000Z</time></trkpt>
        <trkpt lat="29.534906" lon="103.333044"><ele>2530.2214</ele><time>2026-05-27T23:07:24.000Z</time></trkpt>
        <trkpt lat="29.53493" lon="103.333094"><ele>2535.2146</ele><time>2026-05-27T23:07:33.000Z</time></trkpt>
        <trkpt lat="29.534973" lon="103.333137"><ele>2536.3772</ele><time>2026-05-27T23:07:42.000Z</time></trkpt>
        <trkpt lat="29.535015" lon="103.333163"><ele>2536.292</ele><time>2026-05-27T23:07:46.000Z</time></trkpt>
        <trkpt lat="29.535057" lon="103.333191"><ele>2535.6633</ele><time>2026-05-27T23:07:50.000Z</time></trkpt>
        <trkpt lat="29.534889" lon="103.333004"><ele>2533.7961</ele><time>2026-05-27T23:08:03.000Z</time></trkpt>
        <trkpt lat="29.534853" lon="103.332965"><ele>2554.8577</ele><time>2026-05-27T23:08:15.000Z</time></trkpt>
        <trkpt lat="29.534895" lon="103.333009"><ele>2533.7961</ele><time>2026-05-27T23:08:38.000Z</time></trkpt>
        <trkpt lat="29.534878" lon="103.332997"><ele>2533.6711</ele><time>2026-05-27T23:08:55.000Z</time></trkpt>
        <trkpt lat="29.534938" lon="103.333039"><ele>2533.787</ele><time>2026-05-27T23:10:43.000Z</time></trkpt>
        <trkpt lat="29.534913" lon="103.333025"><ele>2533.8389</ele><time>2026-05-27T23:10:49.000Z</time></trkpt>
        <trkpt lat="29.53486" lon="103.332986"><ele>2533.6711</ele><time>2026-05-27T23:10:55.000Z</time></trkpt>
        <trkpt lat="29.534909" lon="103.333021"><ele>2533.805</ele><time>2026-05-27T23:12:06.000Z</time></trkpt>
        <trkpt lat="29.534866" lon="103.332991"><ele>2533.6711</ele><time>2026-05-27T23:12:12.000Z</time></trkpt>
        <trkpt lat="29.534911" lon="103.333023"><ele>2533.7961</ele><time>2026-05-27T23:12:24.000Z</time></trkpt>
        <trkpt lat="29.534894" lon="103.333008"><ele>2533.814</ele><time>2026-05-27T23:12:54.000Z</time></trkpt>
        <trkpt lat="29.534897" lon="103.333064"><ele>2533.9019</ele><time>2026-05-27T23:13:17.000Z</time></trkpt>
        <trkpt lat="29.534915" lon="103.333025"><ele>2533.7615</ele><time>2026-05-27T23:13:36.000Z</time></trkpt>
        <trkpt lat="29.534882" lon="103.332958"><ele>2526.278</ele><time>2026-05-27T23:13:46.000Z</time></trkpt>
        <trkpt lat="29.534967" lon="103.332938"><ele>2538.729</ele><time>2026-05-27T23:14:00.000Z</time></trkpt>
        <trkpt lat="29.534914" lon="103.332931"><ele>2537.5854</ele><time>2026-05-27T23:14:05.000Z</time></trkpt>
        <trkpt lat="29.534962" lon="103.332901"><ele>2530.1904</ele><time>2026-05-27T23:14:16.000Z</time></trkpt>
        <trkpt lat="29.534996" lon="103.332865"><ele>2529.1921</ele><time>2026-05-27T23:14:23.000Z</time></trkpt>
        <trkpt lat="29.535054" lon="103.33288"><ele>2530.6953</ele><time>2026-05-27T23:14:34.000Z</time></trkpt>
        <trkpt lat="29.535088" lon="103.332915"><ele>2527.823</ele><time>2026-05-27T23:14:39.000Z</time></trkpt>
        <trkpt lat="29.535134" lon="103.33292"><ele>2529.3904</ele><time>2026-05-27T23:15:38.000Z</time></trkpt>
        <trkpt lat="29.535135" lon="103.33298"><ele>2528.6877</ele><time>2026-05-27T23:16:06.000Z</time></trkpt>
        <trkpt lat="29.535137" lon="103.333042"><ele>2527.286</ele><time>2026-05-27T23:16:11.000Z</time></trkpt>
        <trkpt lat="29.535152" lon="103.333092"><ele>2525.816</ele><time>2026-05-27T23:16:19.000Z</time></trkpt>
        <trkpt lat="29.535182" lon="103.333138"><ele>2525.769</ele><time>2026-05-27T23:16:26.000Z</time></trkpt>
        <trkpt lat="29.535201" lon="103.333186"><ele>2522.6636</ele><time>2026-05-27T23:16:36.000Z</time></trkpt>
        <trkpt lat="29.535208" lon="103.333246"><ele>2521.9338</ele><time>2026-05-27T23:16:48.000Z</time></trkpt>
        <trkpt lat="29.535246" lon="103.33328"><ele>2519.0488</ele><time>2026-05-27T23:16:57.000Z</time></trkpt>
        <trkpt lat="29.535259" lon="103.333332"><ele>2513.6978</ele><time>2026-05-27T23:17:08.000Z</time></trkpt>
        <trkpt lat="29.535289" lon="103.333379"><ele>2513.1492</ele><time>2026-05-27T23:17:16.000Z</time></trkpt>
        <trkpt lat="29.535284" lon="103.333436"><ele>2511.2231</ele><time>2026-05-27T23:17:25.000Z</time></trkpt>
        <trkpt lat="29.535316" lon="103.333481"><ele>2509.9666</ele><time>2026-05-27T23:17:34.000Z</time></trkpt>
        <trkpt lat="29.535335" lon="103.333547"><ele>2509.2522</ele><time>2026-05-27T23:17:44.000Z</time></trkpt>
        <trkpt lat="29.535369" lon="103.333587"><ele>2509.7896</ele><time>2026-05-27T23:17:51.000Z</time></trkpt>
        <trkpt lat="29.535395" lon="103.33363"><ele>2511.2424</ele><time>2026-05-27T23:17:58.000Z</time></trkpt>
        <trkpt lat="29.535415" lon="103.333692"><ele>2510.4648</ele><time>2026-05-27T23:18:02.000Z</time></trkpt>
        <trkpt lat="29.535432" lon="103.333752"><ele>2510.9329</ele><time>2026-05-27T23:18:06.000Z</time></trkpt>
        <trkpt lat="29.535461" lon="103.333798"><ele>2511.1934</ele><time>2026-05-27T23:18:10.000Z</time></trkpt>
        <trkpt lat="29.535504" lon="103.333834"><ele>2510.31</ele><time>2026-05-27T23:18:14.000Z</time></trkpt>
        <trkpt lat="29.535545" lon="103.33386"><ele>2508.4739</ele><time>2026-05-27T23:18:20.000Z</time></trkpt>
        <trkpt lat="29.535587" lon="103.333906"><ele>2508.158</ele><time>2026-05-27T23:18:28.000Z</time></trkpt>
        <trkpt lat="29.535615" lon="103.333955"><ele>2505.2383</ele><time>2026-05-27T23:18:39.000Z</time></trkpt>
        <trkpt lat="29.535639" lon="103.333999"><ele>2503.6116</ele><time>2026-05-27T23:18:47.000Z</time></trkpt>
        <trkpt lat="29.535656" lon="103.334048"><ele>2504.9668</ele><time>2026-05-27T23:18:53.000Z</time></trkpt>
        <trkpt lat="29.535694" lon="103.334077"><ele>2502.843</ele><time>2026-05-27T23:19:00.000Z</time></trkpt>
        <trkpt lat="29.535737" lon="103.334104"><ele>2502.5847</ele><time>2026-05-27T23:19:04.000Z</time></trkpt>
        <trkpt lat="29.535778" lon="103.33413"><ele>2503.0361</ele><time>2026-05-27T23:19:09.000Z</time></trkpt>
        <trkpt lat="29.535828" lon="103.334157"><ele>2502.8186</ele><time>2026-05-27T23:19:14.000Z</time></trkpt>
        <trkpt lat="29.535871" lon="103.334188"><ele>2503.1458</ele><time>2026-05-27T23:19:20.000Z</time></trkpt>
        <trkpt lat="29.535911" lon="103.334214"><ele>2503.63</ele><time>2026-05-27T23:19:29.000Z</time></trkpt>
        <trkpt lat="29.535955" lon="103.334234"><ele>2501.7341</ele><time>2026-05-27T23:19:37.000Z</time></trkpt>
        <trkpt lat="29.536007" lon="103.334238"><ele>2498.4148</ele><time>2026-05-27T23:19:43.000Z</time></trkpt>
        <trkpt lat="29.536047" lon="103.334263"><ele>2497.1797</ele><time>2026-05-27T23:19:51.000Z</time></trkpt>
        <trkpt lat="29.536086" lon="103.33429"><ele>2495.3374</ele><time>2026-05-27T23:20:00.000Z</time></trkpt>
        <trkpt lat="29.536118" lon="103.334327"><ele>2493.2522</ele><time>2026-05-27T23:20:09.000Z</time></trkpt>
        <trkpt lat="29.536163" lon="103.33435"><ele>2491.6274</ele><time>2026-05-27T23:20:15.000Z</time></trkpt>
        <trkpt lat="29.536207" lon="103.334376"><ele>2492.0251</ele><time>2026-05-27T23:20:20.000Z</time></trkpt>
        <trkpt lat="29.536246" lon="103.334411"><ele>2489.9863</ele><time>2026-05-27T23:20:28.000Z</time></trkpt>
        <trkpt lat="29.536294" lon="103.334425"><ele>2488.9812</ele><time>2026-05-27T23:20:35.000Z</time></trkpt>
        <trkpt lat="29.536339" lon="103.334452"><ele>2489.8406</ele><time>2026-05-27T23:20:43.000Z</time></trkpt>
        <trkpt lat="29.536384" lon="103.334432"><ele>2484.0955</ele><time>2026-05-27T23:21:01.000Z</time></trkpt>
        <trkpt lat="29.536429" lon="103.334419"><ele>2484.7195</ele><time>2026-05-27T23:21:06.000Z</time></trkpt>
        <trkpt lat="29.536479" lon="103.33441"><ele>2485.0596</ele><time>2026-05-27T23:21:13.000Z</time></trkpt>
        <trkpt lat="29.536507" lon="103.334366"><ele>2483.8245</ele><time>2026-05-27T23:21:21.000Z</time></trkpt>
        <trkpt lat="29.536562" lon="103.334362"><ele>2484.966</ele><time>2026-05-27T23:21:28.000Z</time></trkpt>
        <trkpt lat="29.536606" lon="103.334389"><ele>2487.2512</ele><time>2026-05-27T23:21:36.000Z</time></trkpt>
        <trkpt lat="29.536647" lon="103.334411"><ele>2490.3677</ele><time>2026-05-27T23:21:45.000Z</time></trkpt>
        <trkpt lat="29.536697" lon="103.334407"><ele>2490.4683</ele><time>2026-05-27T23:21:52.000Z</time></trkpt>
        <trkpt lat="29.536745" lon="103.334395"><ele>2488.8818</ele><time>2026-05-27T23:21:57.000Z</time></trkpt>
        <trkpt lat="29.536802" lon="103.334394"><ele>2489.482</ele><time>2026-05-27T23:22:02.000Z</time></trkpt>
        <trkpt lat="29.536845" lon="103.334377"><ele>2487.2114</ele><time>2026-05-27T23:22:09.000Z</time></trkpt>
        <trkpt lat="29.536886" lon="103.334354"><ele>2482.3625</ele><time>2026-05-27T23:22:18.000Z</time></trkpt>
        <trkpt lat="29.53694" lon="103.334338"><ele>2482.014</ele><time>2026-05-27T23:22:25.000Z</time></trkpt>
        <trkpt lat="29.536984" lon="103.334327"><ele>2480.527</ele><time>2026-05-27T23:22:33.000Z</time></trkpt>
        <trkpt lat="29.537033" lon="103.334304"><ele>2479.7146</ele><time>2026-05-27T23:22:42.000Z</time></trkpt>
        <trkpt lat="29.537071" lon="103.334274"><ele>2476.607</ele><time>2026-05-27T23:22:58.000Z</time></trkpt>
        <trkpt lat="29.537108" lon="103.334241"><ele>2475.6396</ele><time>2026-05-27T23:23:08.000Z</time></trkpt>
        <trkpt lat="29.537149" lon="103.334219"><ele>2474.6929</ele><time>2026-05-27T23:23:18.000Z</time></trkpt>
        <trkpt lat="29.537195" lon="103.334197"><ele>2474.0056</ele><time>2026-05-27T23:23:26.000Z</time></trkpt>
        <trkpt lat="29.537241" lon="103.33417"><ele>2474.9692</ele><time>2026-05-27T23:23:32.000Z</time></trkpt>
        <trkpt lat="29.537229" lon="103.334119"><ele>2471.3787</ele><time>2026-05-27T23:23:39.000Z</time></trkpt>
        <trkpt lat="29.537255" lon="103.334076"><ele>2471.169</ele><time>2026-05-27T23:23:50.000Z</time></trkpt>
        <trkpt lat="29.53728" lon="103.334028"><ele>2469.4832</ele><time>2026-05-27T23:24:08.000Z</time></trkpt>
        <trkpt lat="29.537301" lon="103.333982"><ele>2468.006</ele><time>2026-05-27T23:24:23.000Z</time></trkpt>
        <trkpt lat="29.537319" lon="103.333929"><ele>2467.6875</ele><time>2026-05-27T23:24:39.000Z</time></trkpt>
        <trkpt lat="29.537341" lon="103.333883"><ele>2467.9692</ele><time>2026-05-27T23:24:50.000Z</time></trkpt>
        <trkpt lat="29.53739" lon="103.333868"><ele>2470.1565</ele><time>2026-05-27T23:25:00.000Z</time></trkpt>
        <trkpt lat="29.537433" lon="103.333847"><ele>2471.221</ele><time>2026-05-27T23:25:08.000Z</time></trkpt>
        <trkpt lat="29.537479" lon="103.333854"><ele>2471.629</ele><time>2026-05-27T23:25:15.000Z</time></trkpt>
        <trkpt lat="29.537524" lon="103.333866"><ele>2470.3757</ele><time>2026-05-27T23:25:22.000Z</time></trkpt>
        <trkpt lat="29.537573" lon="103.333865"><ele>2466.9287</ele><time>2026-05-27T23:25:29.000Z</time></trkpt>
        <trkpt lat="29.537613" lon="103.333837"><ele>2462.3672</ele><time>2026-05-27T23:25:36.000Z</time></trkpt>
        <trkpt lat="29.537652" lon="103.333808"><ele>2460.8362</ele><time>2026-05-27T23:25:44.000Z</time></trkpt>
        <trkpt lat="29.537704" lon="103.333783"><ele>2461.7402</ele><time>2026-05-27T23:25:54.000Z</time></trkpt>
        <trkpt lat="29.537744" lon="103.333747"><ele>2461.6177</ele><time>2026-05-27T23:26:02.000Z</time></trkpt>
        <trkpt lat="29.537775" lon="103.333706"><ele>2459.281</ele><time>2026-05-27T23:26:11.000Z</time></trkpt>
        <trkpt lat="29.537812" lon="103.333671"><ele>2459.8752</ele><time>2026-05-27T23:26:20.000Z</time></trkpt>
        <trkpt lat="29.537852" lon="103.333645"><ele>2461.2896</ele><time>2026-05-27T23:26:26.000Z</time></trkpt>
        <trkpt lat="29.537893" lon="103.333613"><ele>2462.6443</ele><time>2026-05-27T23:26:34.000Z</time></trkpt>
        <trkpt lat="29.537937" lon="103.33358"><ele>2462.439</ele><time>2026-05-27T23:26:41.000Z</time></trkpt>
        <trkpt lat="29.537985" lon="103.33357"><ele>2464.8599</ele><time>2026-05-27T23:26:47.000Z</time></trkpt>
        <trkpt lat="29.53803" lon="103.333553"><ele>2461.717</ele><time>2026-05-27T23:26:53.000Z</time></trkpt>
        <trkpt lat="29.538075" lon="103.333529"><ele>2461.3223</ele><time>2026-05-27T23:26:59.000Z</time></trkpt>
        <trkpt lat="29.538121" lon="103.333508"><ele>2460.0999</ele><time>2026-05-27T23:27:05.000Z</time></trkpt>
        <trkpt lat="29.538165" lon="103.333485"><ele>2458.5283</ele><time>2026-05-27T23:27:11.000Z</time></trkpt>
        <trkpt lat="29.538205" lon="103.333449"><ele>2458.483</ele><time>2026-05-27T23:27:17.000Z</time></trkpt>
        <trkpt lat="29.53824" lon="103.333403"><ele>2457.3716</ele><time>2026-05-27T23:27:23.000Z</time></trkpt>
        <trkpt lat="29.538285" lon="103.333379"><ele>2457.4885</ele><time>2026-05-27T23:27:29.000Z</time></trkpt>
        <trkpt lat="29.538332" lon="103.333346"><ele>2456.0063</ele><time>2026-05-27T23:27:35.000Z</time></trkpt>
        <trkpt lat="29.538362" lon="103.333302"><ele>2454.566</ele><time>2026-05-27T23:27:42.000Z</time></trkpt>
        <trkpt lat="29.538409" lon="103.333285"><ele>2455.0137</ele><time>2026-05-27T23:27:52.000Z</time></trkpt>
        <trkpt lat="29.538455" lon="103.333298"><ele>2456.214</ele><time>2026-05-27T23:28:01.000Z</time></trkpt>
        <trkpt lat="29.538502" lon="103.33329"><ele>2455.896</ele><time>2026-05-27T23:28:08.000Z</time></trkpt>
        <trkpt lat="29.538553" lon="103.333278"><ele>2454.5066</ele><time>2026-05-27T23:28:13.000Z</time></trkpt>
        <trkpt lat="29.538602" lon="103.333279"><ele>2454.4756</ele><time>2026-05-27T23:28:18.000Z</time></trkpt>
        <trkpt lat="29.538654" lon="103.333273"><ele>2455.1147</ele><time>2026-05-27T23:28:29.000Z</time></trkpt>
        <trkpt lat="29.538698" lon="103.33325"><ele>2455.6445</ele><time>2026-05-27T23:28:36.000Z</time></trkpt>
        <trkpt lat="29.538745" lon="103.333236"><ele>2455.1277</ele><time>2026-05-27T23:28:41.000Z</time></trkpt>
        <trkpt lat="29.538796" lon="103.333215"><ele>2453.849</ele><time>2026-05-27T23:28:47.000Z</time></trkpt>
        <trkpt lat="29.538838" lon="103.333195"><ele>2453.1216</ele><time>2026-05-27T23:28:51.000Z</time></trkpt>
        <trkpt lat="29.53888" lon="103.333173"><ele>2452.4036</ele><time>2026-05-27T23:28:56.000Z</time></trkpt>
        <trkpt lat="29.538927" lon="103.333146"><ele>2451.6594</ele><time>2026-05-27T23:29:01.000Z</time></trkpt>
        <trkpt lat="29.538964" lon="103.333116"><ele>2452.5737</ele><time>2026-05-27T23:29:07.000Z</time></trkpt>
        <trkpt lat="29.539007" lon="103.333094"><ele>2450.0034</ele><time>2026-05-27T23:29:12.000Z</time></trkpt>
        <trkpt lat="29.539048" lon="103.333066"><ele>2447.8</ele><time>2026-05-27T23:29:17.000Z</time></trkpt>
        <trkpt lat="29.539088" lon="103.333037"><ele>2448.0156</ele><time>2026-05-27T23:29:21.000Z</time></trkpt>
        <trkpt lat="29.539129" lon="103.332997"><ele>2449.1921</ele><time>2026-05-27T23:29:26.000Z</time></trkpt>
        <trkpt lat="29.539167" lon="103.332963"><ele>2450.472</ele><time>2026-05-27T23:29:32.000Z</time></trkpt>
        <trkpt lat="29.539195" lon="103.332915"><ele>2449.8955</ele><time>2026-05-27T23:29:39.000Z</time></trkpt>
        <trkpt lat="29.539239" lon="103.332899"><ele>2449.08</ele><time>2026-05-27T23:29:45.000Z</time></trkpt>
        <trkpt lat="29.539282" lon="103.332881"><ele>2448.2485</ele><time>2026-05-27T23:29:50.000Z</time></trkpt>
        <trkpt lat="29.539323" lon="103.332856"><ele>2448.973</ele><time>2026-05-27T23:29:56.000Z</time></trkpt>
        <trkpt lat="29.539352" lon="103.332808"><ele>2447.7126</ele><time>2026-05-27T23:30:05.000Z</time></trkpt>
        <trkpt lat="29.539383" lon="103.332769"><ele>2444.4324</ele><time>2026-05-27T23:30:11.000Z</time></trkpt>
        <trkpt lat="29.539415" lon="103.332722"><ele>2444.614</ele><time>2026-05-27T23:30:19.000Z</time></trkpt>
        <trkpt lat="29.53945" lon="103.332689"><ele>2443.758</ele><time>2026-05-27T23:30:25.000Z</time></trkpt>
        <trkpt lat="29.53949" lon="103.332665"><ele>2442.8838</ele><time>2026-05-27T23:30:34.000Z</time></trkpt>
        <trkpt lat="29.539521" lon="103.332627"><ele>2438.9966</ele><time>2026-05-27T23:30:45.000Z</time></trkpt>
        <trkpt lat="29.539556" lon="103.332591"><ele>2438.5803</ele><time>2026-05-27T23:30:58.000Z</time></trkpt>
        <trkpt lat="29.539604" lon="103.332565"><ele>2436.6277</ele><time>2026-05-27T23:31:07.000Z</time></trkpt>
        <trkpt lat="29.539638" lon="103.332531"><ele>2435.7473</ele><time>2026-05-27T23:31:19.000Z</time></trkpt>
        <trkpt lat="29.539682" lon="103.332508"><ele>2435.7844</ele><time>2026-05-27T23:31:29.000Z</time></trkpt>
        <trkpt lat="29.53972" lon="103.332473"><ele>2435.449</ele><time>2026-05-27T23:31:35.000Z</time></trkpt>
        <trkpt lat="29.539762" lon="103.332447"><ele>2433.5015</ele><time>2026-05-27T23:31:55.000Z</time></trkpt>
        <trkpt lat="29.539796" lon="103.33241"><ele>2434.3728</ele><time>2026-05-27T23:32:10.000Z</time></trkpt>
        <trkpt lat="29.539835" lon="103.332366"><ele>2433.6042</ele><time>2026-05-27T23:32:18.000Z</time></trkpt>
        <trkpt lat="29.539881" lon="103.332346"><ele>2433.3162</ele><time>2026-05-27T23:32:23.000Z</time></trkpt>
        <trkpt lat="29.539928" lon="103.332321"><ele>2433.446</ele><time>2026-05-27T23:32:28.000Z</time></trkpt>
        <trkpt lat="29.539973" lon="103.332291"><ele>2436.723</ele><time>2026-05-27T23:32:34.000Z</time></trkpt>
        <trkpt lat="29.540023" lon="103.332285"><ele>2434.1877</ele><time>2026-05-27T23:32:42.000Z</time></trkpt>
        <trkpt lat="29.540066" lon="103.332266"><ele>2431.9604</ele><time>2026-05-27T23:32:47.000Z</time></trkpt>
        <trkpt lat="29.540111" lon="103.332228"><ele>2430.4578</ele><time>2026-05-27T23:32:53.000Z</time></trkpt>
        <trkpt lat="29.540163" lon="103.332208"><ele>2430.283</ele><time>2026-05-27T23:33:00.000Z</time></trkpt>
        <trkpt lat="29.540184" lon="103.33216"><ele>2429.6206</ele><time>2026-05-27T23:33:05.000Z</time></trkpt>
        <trkpt lat="29.540228" lon="103.332133"><ele>2429.3933</ele><time>2026-05-27T23:33:11.000Z</time></trkpt>
        <trkpt lat="29.540268" lon="103.332099"><ele>2431.0427</ele><time>2026-05-27T23:33:21.000Z</time></trkpt>
        <trkpt lat="29.540291" lon="103.332054"><ele>2430.2976</ele><time>2026-05-27T23:33:28.000Z</time></trkpt>
        <trkpt lat="29.540337" lon="103.332046"><ele>2431.3264</ele><time>2026-05-27T23:33:34.000Z</time></trkpt>
        <trkpt lat="29.540377" lon="103.332009"><ele>2431.3286</ele><time>2026-05-27T23:33:42.000Z</time></trkpt>
        <trkpt lat="29.540423" lon="103.331981"><ele>2431.5132</ele><time>2026-05-27T23:33:51.000Z</time></trkpt>
        <trkpt lat="29.540468" lon="103.331953"><ele>2432.5608</ele><time>2026-05-27T23:33:57.000Z</time></trkpt>
        <trkpt lat="29.540517" lon="103.331942"><ele>2430.2007</ele><time>2026-05-27T23:34:03.000Z</time></trkpt>
        <trkpt lat="29.540556" lon="103.331915"><ele>2427.9478</ele><time>2026-05-27T23:34:09.000Z</time></trkpt>
        <trkpt lat="29.540604" lon="103.33189"><ele>2427.023</ele><time>2026-05-27T23:34:15.000Z</time></trkpt>
        <trkpt lat="29.540639" lon="103.331855"><ele>2425.2996</ele><time>2026-05-27T23:34:20.000Z</time></trkpt>
        <trkpt lat="29.540683" lon="103.33183"><ele>2424.0515</ele><time>2026-05-27T23:34:27.000Z</time></trkpt>
        <trkpt lat="29.540725" lon="103.331811"><ele>2426.0156</ele><time>2026-05-27T23:34:35.000Z</time></trkpt>
        <trkpt lat="29.540773" lon="103.331811"><ele>2430.8542</ele><time>2026-05-27T23:34:41.000Z</time></trkpt>
        <trkpt lat="29.540826" lon="103.331815"><ele>2427.7366</ele><time>2026-05-27T23:34:52.000Z</time></trkpt>
        <trkpt lat="29.540872" lon="103.331835"><ele>2427.1594</ele><time>2026-05-27T23:34:56.000Z</time></trkpt>
        <trkpt lat="29.540909" lon="103.331866"><ele>2426.0125</ele><time>2026-05-27T23:35:02.000Z</time></trkpt>
        <trkpt lat="29.540956" lon="103.331879"><ele>2426.1208</ele><time>2026-05-27T23:35:08.000Z</time></trkpt>
        <trkpt lat="29.541" lon="103.331894"><ele>2426.0908</ele><time>2026-05-27T23:35:19.000Z</time></trkpt>
        <trkpt lat="29.541047" lon="103.331882"><ele>2425.1248</ele><time>2026-05-27T23:35:26.000Z</time></trkpt>
        <trkpt lat="29.541093" lon="103.331873"><ele>2421.2844</ele><time>2026-05-27T23:35:39.000Z</time></trkpt>
        <trkpt lat="29.541144" lon="103.331851"><ele>2420.6714</ele><time>2026-05-27T23:35:46.000Z</time></trkpt>
        <trkpt lat="29.541191" lon="103.331852"><ele>2422.2205</ele><time>2026-05-27T23:35:54.000Z</time></trkpt>
        <trkpt lat="29.541242" lon="103.33186"><ele>2420.374</ele><time>2026-05-27T23:36:01.000Z</time></trkpt>
        <trkpt lat="29.54129" lon="103.331871"><ele>2418.4539</ele><time>2026-05-27T23:36:06.000Z</time></trkpt>
        <trkpt lat="29.541346" lon="103.331867"><ele>2418.4663</ele><time>2026-05-27T23:36:11.000Z</time></trkpt>
        <trkpt lat="29.541391" lon="103.331863"><ele>2419.915</ele><time>2026-05-27T23:36:16.000Z</time></trkpt>
        <trkpt lat="29.541441" lon="103.331844"><ele>2421.5398</ele><time>2026-05-27T23:36:22.000Z</time></trkpt>
        <trkpt lat="29.54149" lon="103.33185"><ele>2421.868</ele><time>2026-05-27T23:36:28.000Z</time></trkpt>
        <trkpt lat="29.541512" lon="103.331802"><ele>2426.2996</ele><time>2026-05-27T23:36:45.000Z</time></trkpt>
        <trkpt lat="29.541558" lon="103.331794"><ele>2425.1084</ele><time>2026-05-27T23:36:53.000Z</time></trkpt>
        <trkpt lat="29.541604" lon="103.331774"><ele>2423.3926</ele><time>2026-05-27T23:36:59.000Z</time></trkpt>
        <trkpt lat="29.541656" lon="103.331781"><ele>2420.162</ele><time>2026-05-27T23:37:07.000Z</time></trkpt>
        <trkpt lat="29.541702" lon="103.331769"><ele>2420.4834</ele><time>2026-05-27T23:37:13.000Z</time></trkpt>
        <trkpt lat="29.541748" lon="103.331764"><ele>2421.786</ele><time>2026-05-27T23:37:19.000Z</time></trkpt>
        <trkpt lat="29.5418" lon="103.331772"><ele>2420.9204</ele><time>2026-05-27T23:37:27.000Z</time></trkpt>
        <trkpt lat="29.541844" lon="103.331787"><ele>2418.8625</ele><time>2026-05-27T23:37:40.000Z</time></trkpt>
        <trkpt lat="29.541841" lon="103.33184"><ele>2415.9744</ele><time>2026-05-27T23:37:48.000Z</time></trkpt>
        <trkpt lat="29.541818" lon="103.331886"><ele>2415.839</ele><time>2026-05-27T23:37:54.000Z</time></trkpt>
        <trkpt lat="29.54179" lon="103.331929"><ele>2418.2205</ele><time>2026-05-27T23:38:00.000Z</time></trkpt>
        <trkpt lat="29.541746" lon="103.331956"><ele>2419.6724</ele><time>2026-05-27T23:38:05.000Z</time></trkpt>
        <trkpt lat="29.541753" lon="103.332009"><ele>2420.8628</ele><time>2026-05-27T23:38:09.000Z</time></trkpt>
        <trkpt lat="29.541733" lon="103.332062"><ele>2422.216</ele><time>2026-05-27T23:38:14.000Z</time></trkpt>
        <trkpt lat="29.541745" lon="103.332112"><ele>2421.6123</ele><time>2026-05-27T23:38:29.000Z</time></trkpt>
        <trkpt lat="29.541791" lon="103.33211"><ele>2420.5293</ele><time>2026-05-27T23:38:34.000Z</time></trkpt>
        <trkpt lat="29.541841" lon="103.33213"><ele>2420.4194</ele><time>2026-05-27T23:38:40.000Z</time></trkpt>
        <trkpt lat="29.541891" lon="103.332129"><ele>2419.7568</ele><time>2026-05-27T23:38:45.000Z</time></trkpt>
        <trkpt lat="29.541941" lon="103.332131"><ele>2418.7034</ele><time>2026-05-27T23:38:50.000Z</time></trkpt>
        <trkpt lat="29.541996" lon="103.332139"><ele>2420.197</ele><time>2026-05-27T23:38:57.000Z</time></trkpt>
        <trkpt lat="29.542052" lon="103.332135"><ele>2421.7366</ele><time>2026-05-27T23:39:04.000Z</time></trkpt>
        <trkpt lat="29.542087" lon="103.332098"><ele>2423.5352</ele><time>2026-05-27T23:39:09.000Z</time></trkpt>
        <trkpt lat="29.542087" lon="103.332044"><ele>2424.5647</ele><time>2026-05-27T23:39:16.000Z</time></trkpt>
        <trkpt lat="29.542127" lon="103.332074"><ele>2428.8616</ele><time>2026-05-27T23:39:53.000Z</time></trkpt>
        <trkpt lat="29.542172" lon="103.332086"><ele>2429.563</ele><time>2026-05-27T23:40:02.000Z</time></trkpt>
        <trkpt lat="29.54222" lon="103.332069"><ele>2426.9087</ele><time>2026-05-27T23:40:11.000Z</time></trkpt>
        <trkpt lat="29.542272" lon="103.332074"><ele>2425.5889</ele><time>2026-05-27T23:40:18.000Z</time></trkpt>
        <trkpt lat="29.542311" lon="103.332107"><ele>2427.9639</ele><time>2026-05-27T23:40:25.000Z</time></trkpt>
        <trkpt lat="29.542362" lon="103.332125"><ele>2427.2324</ele><time>2026-05-27T23:40:54.000Z</time></trkpt>
        <trkpt lat="29.542383" lon="103.332176"><ele>2429.6074</ele><time>2026-05-27T23:41:10.000Z</time></trkpt>
        <trkpt lat="29.542361" lon="103.332226"><ele>2429.208</ele><time>2026-05-27T23:41:17.000Z</time></trkpt>
        <trkpt lat="29.542404" lon="103.332244"><ele>2426.7546</ele><time>2026-05-27T23:43:03.000Z</time></trkpt>
        <trkpt lat="29.542443" lon="103.332212"><ele>2427.5974</ele><time>2026-05-27T23:43:57.000Z</time></trkpt>
        <trkpt lat="29.542474" lon="103.332252"><ele>2429.458</ele><time>2026-05-27T23:44:07.000Z</time></trkpt>
        <trkpt lat="29.542495" lon="103.332305"><ele>2431.6274</ele><time>2026-05-27T23:44:12.000Z</time></trkpt>
        <trkpt lat="29.542506" lon="103.332357"><ele>2435.513</ele><time>2026-05-27T23:44:16.000Z</time></trkpt>
        <trkpt lat="29.542525" lon="103.332415"><ele>2434.412</ele><time>2026-05-27T23:44:20.000Z</time></trkpt>
        <trkpt lat="29.542556" lon="103.33246"><ele>2433.3635</ele><time>2026-05-27T23:44:28.000Z</time></trkpt>
        <trkpt lat="29.542584" lon="103.332502"><ele>2435.2617</ele><time>2026-05-27T23:44:34.000Z</time></trkpt>
        <trkpt lat="29.542577" lon="103.332559"><ele>2431.7556</ele><time>2026-05-27T23:44:40.000Z</time></trkpt>
        <trkpt lat="29.542573" lon="103.332611"><ele>2430.1467</ele><time>2026-05-27T23:44:45.000Z</time></trkpt>
        <trkpt lat="29.542588" lon="103.332671"><ele>2427.4646</ele><time>2026-05-27T23:44:50.000Z</time></trkpt>
        <trkpt lat="29.542629" lon="103.332694"><ele>2433.4763</ele><time>2026-05-27T23:46:00.000Z</time></trkpt>
        <trkpt lat="29.542663" lon="103.332728"><ele>2434.6606</ele><time>2026-05-27T23:52:12.000Z</time></trkpt>
        <trkpt lat="29.542703" lon="103.332759"><ele>2435.361</ele><time>2026-05-27T23:59:07.000Z</time></trkpt>
        <trkpt lat="29.542753" lon="103.332762"><ele>2438.1157</ele><time>2026-05-27T23:59:13.000Z</time></trkpt>
        <trkpt lat="29.542792" lon="103.332814"><ele>2437.3447</ele><time>2026-05-27T23:59:22.000Z</time></trkpt>
        <trkpt lat="29.542803" lon="103.332864"><ele>2436.1104</ele><time>2026-05-27T23:59:29.000Z</time></trkpt>
        <trkpt lat="29.542826" lon="103.332926"><ele>2436.976</ele><time>2026-05-27T23:59:36.000Z</time></trkpt>
        <trkpt lat="29.542863" lon="103.332963"><ele>2437.9792</ele><time>2026-05-27T23:59:43.000Z</time></trkpt>
        <trkpt lat="29.5429" lon="103.333007"><ele>2438.129</ele><time>2026-05-27T23:59:49.000Z</time></trkpt>
        <trkpt lat="29.542955" lon="103.333009"><ele>2436.6016</ele><time>2026-05-27T23:59:56.000Z</time></trkpt>
        <trkpt lat="29.542988" lon="103.333055"><ele>2432.4407</ele><time>2026-05-28T00:00:03.000Z</time></trkpt>
        <trkpt lat="29.54304" lon="103.333072"><ele>2433.0708</ele><time>2026-05-28T00:00:09.000Z</time></trkpt>
        <trkpt lat="29.543086" lon="103.333057"><ele>2430.765</ele><time>2026-05-28T00:00:15.000Z</time></trkpt>
        <trkpt lat="29.543141" lon="103.333065"><ele>2427.8738</ele><time>2026-05-28T00:00:23.000Z</time></trkpt>
        <trkpt lat="29.543188" lon="103.333067"><ele>2425.879</ele><time>2026-05-28T00:00:28.000Z</time></trkpt>
        <trkpt lat="29.54323" lon="103.333099"><ele>2425.1338</ele><time>2026-05-28T00:00:34.000Z</time></trkpt>
        <trkpt lat="29.54324" lon="103.333155"><ele>2425.4944</ele><time>2026-05-28T00:00:40.000Z</time></trkpt>
        <trkpt lat="29.54326" lon="103.333203"><ele>2428.3315</ele><time>2026-05-28T00:00:46.000Z</time></trkpt>
        <trkpt lat="29.543296" lon="103.333245"><ele>2429.2412</ele><time>2026-05-28T00:00:55.000Z</time></trkpt>
        <trkpt lat="29.543319" lon="103.333292"><ele>2431.3052</ele><time>2026-05-28T00:00:59.000Z</time></trkpt>
        <trkpt lat="29.543346" lon="103.33334"><ele>2429.0347</ele><time>2026-05-28T00:01:04.000Z</time></trkpt>
        <trkpt lat="29.543345" lon="103.333392"><ele>2427.967</ele><time>2026-05-28T00:01:11.000Z</time></trkpt>
        <trkpt lat="29.543377" lon="103.33344"><ele>2428.537</ele><time>2026-05-28T00:01:17.000Z</time></trkpt>
        <trkpt lat="29.543385" lon="103.333501"><ele>2431.215</ele><time>2026-05-28T00:01:23.000Z</time></trkpt>
        <trkpt lat="29.543396" lon="103.333556"><ele>2433.7883</ele><time>2026-05-28T00:01:30.000Z</time></trkpt>
        <trkpt lat="29.543416" lon="103.333603"><ele>2434.294</ele><time>2026-05-28T00:01:37.000Z</time></trkpt>
        <trkpt lat="29.54343" lon="103.333652"><ele>2436.39</ele><time>2026-05-28T00:01:43.000Z</time></trkpt>
        <trkpt lat="29.543459" lon="103.333705"><ele>2436.8394</ele><time>2026-05-28T00:01:49.000Z</time></trkpt>
        <trkpt lat="29.543492" lon="103.333748"><ele>2436.4187</ele><time>2026-05-28T00:01:54.000Z</time></trkpt>
        <trkpt lat="29.543521" lon="103.333791"><ele>2437.808</ele><time>2026-05-28T00:01:59.000Z</time></trkpt>
        <trkpt lat="29.543561" lon="103.333827"><ele>2439.063</ele><time>2026-05-28T00:02:04.000Z</time></trkpt>
        <trkpt lat="29.543596" lon="103.33387"><ele>2439.2744</ele><time>2026-05-28T00:02:11.000Z</time></trkpt>
        <trkpt lat="29.543634" lon="103.333904"><ele>2440.2039</ele><time>2026-05-28T00:02:18.000Z</time></trkpt>
        <trkpt lat="29.543667" lon="103.333945"><ele>2438.2246</ele><time>2026-05-28T00:02:24.000Z</time></trkpt>
        <trkpt lat="29.5437" lon="103.333981"><ele>2437.1191</ele><time>2026-05-28T00:02:30.000Z</time></trkpt>
        <trkpt lat="29.543747" lon="103.334013"><ele>2434.2395</ele><time>2026-05-28T00:02:37.000Z</time></trkpt>
        <trkpt lat="29.543804" lon="103.334006"><ele>2434.7466</ele><time>2026-05-28T00:02:43.000Z</time></trkpt>
        <trkpt lat="29.543857" lon="103.333983"><ele>2435.2236</ele><time>2026-05-28T00:02:49.000Z</time></trkpt>
        <trkpt lat="29.543904" lon="103.333964"><ele>2434.8398</ele><time>2026-05-28T00:02:55.000Z</time></trkpt>
        <trkpt lat="29.543955" lon="103.333989"><ele>2434.841</ele><time>2026-05-28T00:03:01.000Z</time></trkpt>
        <trkpt lat="29.54399" lon="103.334026"><ele>2435.8982</ele><time>2026-05-28T00:03:05.000Z</time></trkpt>
        <trkpt lat="29.544031" lon="103.334066"><ele>2435.461</ele><time>2026-05-28T00:03:11.000Z</time></trkpt>
        <trkpt lat="29.544063" lon="103.334103"><ele>2436.0986</ele><time>2026-05-28T00:03:15.000Z</time></trkpt>
        <trkpt lat="29.544102" lon="103.334139"><ele>2435.8662</ele><time>2026-05-28T00:03:19.000Z</time></trkpt>
        <trkpt lat="29.544146" lon="103.334173"><ele>2434.8667</ele><time>2026-05-28T00:03:23.000Z</time></trkpt>
        <trkpt lat="29.544181" lon="103.334207"><ele>2435.699</ele><time>2026-05-28T00:03:27.000Z</time></trkpt>
        <trkpt lat="29.544225" lon="103.334218"><ele>2435.1055</ele><time>2026-05-28T00:03:32.000Z</time></trkpt>
        <trkpt lat="29.544266" lon="103.334194"><ele>2434.5552</ele><time>2026-05-28T00:03:36.000Z</time></trkpt>
        <trkpt lat="29.544319" lon="103.334214"><ele>2432.534</ele><time>2026-05-28T00:03:44.000Z</time></trkpt>
        <trkpt lat="29.544367" lon="103.334238"><ele>2430.6658</ele><time>2026-05-28T00:03:53.000Z</time></trkpt>
        <trkpt lat="29.544415" lon="103.33426"><ele>2431.4832</ele><time>2026-05-28T00:03:57.000Z</time></trkpt>
        <trkpt lat="29.544459" lon="103.334276"><ele>2432.4805</ele><time>2026-05-28T00:04:00.000Z</time></trkpt>
        <trkpt lat="29.544513" lon="103.334292"><ele>2433.6653</ele><time>2026-05-28T00:04:05.000Z</time></trkpt>
        <trkpt lat="29.544561" lon="103.334309"><ele>2435.7388</ele><time>2026-05-28T00:04:10.000Z</time></trkpt>
        <trkpt lat="29.544615" lon="103.334333"><ele>2435.0356</ele><time>2026-05-28T00:04:15.000Z</time></trkpt>
        <trkpt lat="29.544667" lon="103.334323"><ele>2439.1465</ele><time>2026-05-28T00:04:20.000Z</time></trkpt>
        <trkpt lat="29.544719" lon="103.3343"><ele>2438.5178</ele><time>2026-05-28T00:04:26.000Z</time></trkpt>
        <trkpt lat="29.54477" lon="103.334272"><ele>2439.9233</ele><time>2026-05-28T00:04:31.000Z</time></trkpt>
        <trkpt lat="29.544812" lon="103.33424"><ele>2439.3276</ele><time>2026-05-28T00:04:35.000Z</time></trkpt>
        <trkpt lat="29.544853" lon="103.3342"><ele>2439.5122</ele><time>2026-05-28T00:04:39.000Z</time></trkpt>
        <trkpt lat="29.544904" lon="103.334175"><ele>2438.0234</ele><time>2026-05-28T00:04:44.000Z</time></trkpt>
        <trkpt lat="29.544949" lon="103.334148"><ele>2439.3167</ele><time>2026-05-28T00:04:48.000Z</time></trkpt>
        <trkpt lat="29.544997" lon="103.334153"><ele>2441.4138</ele><time>2026-05-28T00:04:51.000Z</time></trkpt>
        <trkpt lat="29.545044" lon="103.334162"><ele>2441.0693</ele><time>2026-05-28T00:04:55.000Z</time></trkpt>
        <trkpt lat="29.545094" lon="103.334162"><ele>2444.5986</ele><time>2026-05-28T00:05:03.000Z</time></trkpt>
        <trkpt lat="29.545149" lon="103.334153"><ele>2445.9202</ele><time>2026-05-28T00:05:10.000Z</time></trkpt>
        <trkpt lat="29.545198" lon="103.33415"><ele>2445.7244</ele><time>2026-05-28T00:05:16.000Z</time></trkpt>
        <trkpt lat="29.545246" lon="103.334174"><ele>2443.2688</ele><time>2026-05-28T00:05:21.000Z</time></trkpt>
        <trkpt lat="29.545281" lon="103.334208"><ele>2444.2195</ele><time>2026-05-28T00:05:27.000Z</time></trkpt>
        <trkpt lat="29.545321" lon="103.334239"><ele>2446.0093</ele><time>2026-05-28T00:05:35.000Z</time></trkpt>
        <trkpt lat="29.545361" lon="103.33427"><ele>2447.9644</ele><time>2026-05-28T00:05:42.000Z</time></trkpt>
        <trkpt lat="29.545404" lon="103.334295"><ele>2448.2715</ele><time>2026-05-28T00:05:47.000Z</time></trkpt>
        <trkpt lat="29.545446" lon="103.334323"><ele>2448.953</ele><time>2026-05-28T00:05:51.000Z</time></trkpt>
        <trkpt lat="29.545483" lon="103.334363"><ele>2449.5376</ele><time>2026-05-28T00:05:56.000Z</time></trkpt>
        <trkpt lat="29.545516" lon="103.334404"><ele>2445.7024</ele><time>2026-05-28T00:06:03.000Z</time></trkpt>
        <trkpt lat="29.545563" lon="103.334441"><ele>2436.5776</ele><time>2026-05-28T00:06:19.000Z</time></trkpt>
        <trkpt lat="29.545606" lon="103.334475"><ele>2435.08</ele><time>2026-05-28T00:06:24.000Z</time></trkpt>
        <trkpt lat="29.545642" lon="103.334512"><ele>2434.6772</ele><time>2026-05-28T00:06:30.000Z</time></trkpt>
        <trkpt lat="29.545692" lon="103.334557"><ele>2434.411</ele><time>2026-05-28T00:06:38.000Z</time></trkpt>
        <trkpt lat="29.545736" lon="103.334577"><ele>2433.9607</ele><time>2026-05-28T00:06:44.000Z</time></trkpt>
        <trkpt lat="29.545773" lon="103.33461"><ele>2437.9932</ele><time>2026-05-28T00:06:48.000Z</time></trkpt>
        <trkpt lat="29.545824" lon="103.334624"><ele>2438.3352</ele><time>2026-05-28T00:06:53.000Z</time></trkpt>
        <trkpt lat="29.545873" lon="103.334659"><ele>2437.4263</ele><time>2026-05-28T00:06:57.000Z</time></trkpt>
        <trkpt lat="29.545899" lon="103.334704"><ele>2442.3596</ele><time>2026-05-28T00:07:03.000Z</time></trkpt>
        <trkpt lat="29.545919" lon="103.334752"><ele>2445.334</ele><time>2026-05-28T00:07:08.000Z</time></trkpt>
        <trkpt lat="29.545937" lon="103.334802"><ele>2447.8105</ele><time>2026-05-28T00:07:15.000Z</time></trkpt>
        <trkpt lat="29.545975" lon="103.334836"><ele>2451.9453</ele><time>2026-05-28T00:07:23.000Z</time></trkpt>
        <trkpt lat="29.546022" lon="103.334834"><ele>2449.7642</ele><time>2026-05-28T00:07:29.000Z</time></trkpt>
        <trkpt lat="29.546075" lon="103.334842"><ele>2451.671</ele><time>2026-05-28T00:07:38.000Z</time></trkpt>
        <trkpt lat="29.546111" lon="103.334875"><ele>2450.2244</ele><time>2026-05-28T00:07:44.000Z</time></trkpt>
        <trkpt lat="29.546157" lon="103.334878"><ele>2450.8354</ele><time>2026-05-28T00:07:50.000Z</time></trkpt>
        <trkpt lat="29.546208" lon="103.334876"><ele>2450.0325</ele><time>2026-05-28T00:07:55.000Z</time></trkpt>
        <trkpt lat="29.546254" lon="103.33487"><ele>2449.5957</ele><time>2026-05-28T00:07:59.000Z</time></trkpt>
        <trkpt lat="29.5463" lon="103.334846"><ele>2449.0906</ele><time>2026-05-28T00:08:07.000Z</time></trkpt>
        <trkpt lat="29.546345" lon="103.334861"><ele>2449.9539</ele><time>2026-05-28T00:08:17.000Z</time></trkpt>
        <trkpt lat="29.546391" lon="103.334861"><ele>2449.311</ele><time>2026-05-28T00:08:29.000Z</time></trkpt>
        <trkpt lat="29.546439" lon="103.334878"><ele>2444.9692</ele><time>2026-05-28T00:08:41.000Z</time></trkpt>
        <trkpt lat="29.546485" lon="103.334867"><ele>2446.2793</ele><time>2026-05-28T00:08:50.000Z</time></trkpt>
        <trkpt lat="29.546528" lon="103.33489"><ele>2446.3518</ele><time>2026-05-28T00:08:55.000Z</time></trkpt>
        <trkpt lat="29.546577" lon="103.334896"><ele>2444.6335</ele><time>2026-05-28T00:09:00.000Z</time></trkpt>
        <trkpt lat="29.546609" lon="103.33494"><ele>2440.015</ele><time>2026-05-28T00:09:06.000Z</time></trkpt>
        <trkpt lat="29.546617" lon="103.334995"><ele>2436.9177</ele><time>2026-05-28T00:09:12.000Z</time></trkpt>
        <trkpt lat="29.546662" lon="103.335026"><ele>2437.5735</ele><time>2026-05-28T00:09:16.000Z</time></trkpt>
        <trkpt lat="29.546705" lon="103.335044"><ele>2437.7378</ele><time>2026-05-28T00:09:21.000Z</time></trkpt>
        <trkpt lat="29.546747" lon="103.335067"><ele>2443.0276</ele><time>2026-05-28T00:09:30.000Z</time></trkpt>
        <trkpt lat="29.546782" lon="103.335101"><ele>2445.299</ele><time>2026-05-28T00:09:40.000Z</time></trkpt>
        <trkpt lat="29.546792" lon="103.335153"><ele>2448.6846</ele><time>2026-05-28T00:09:50.000Z</time></trkpt>
        <trkpt lat="29.546816" lon="103.335202"><ele>2449.7827</ele><time>2026-05-28T00:09:57.000Z</time></trkpt>
        <trkpt lat="29.54685" lon="103.335239"><ele>2447.297</ele><time>2026-05-28T00:10:06.000Z</time></trkpt>
        <trkpt lat="29.54685" lon="103.335292"><ele>2448.028</ele><time>2026-05-28T00:10:16.000Z</time></trkpt>
        <trkpt lat="29.546832" lon="103.335343"><ele>2446.3787</ele><time>2026-05-28T00:10:24.000Z</time></trkpt>
        <trkpt lat="29.546837" lon="103.335403"><ele>2443.7</ele><time>2026-05-28T00:10:31.000Z</time></trkpt>
        <trkpt lat="29.546832" lon="103.335455"><ele>2440.5652</ele><time>2026-05-28T00:10:37.000Z</time></trkpt>
        <trkpt lat="29.54681" lon="103.335509"><ele>2441.6013</ele><time>2026-05-28T00:10:42.000Z</time></trkpt>
        <trkpt lat="29.546779" lon="103.335556"><ele>2446.7322</ele><time>2026-05-28T00:10:50.000Z</time></trkpt>
        <trkpt lat="29.546743" lon="103.335607"><ele>2445.443</ele><time>2026-05-28T00:10:56.000Z</time></trkpt>
        <trkpt lat="29.546713" lon="103.33565"><ele>2442.359</ele><time>2026-05-28T00:11:00.000Z</time></trkpt>
        <trkpt lat="29.5467" lon="103.335703"><ele>2442.1836</ele><time>2026-05-28T00:11:06.000Z</time></trkpt>
        <trkpt lat="29.546733" lon="103.335746"><ele>2444.0862</ele><time>2026-05-28T00:11:12.000Z</time></trkpt>
        <trkpt lat="29.54671" lon="103.335793"><ele>2447.3147</ele><time>2026-05-28T00:11:17.000Z</time></trkpt>
        <trkpt lat="29.5467" lon="103.335851"><ele>2445.663</ele><time>2026-05-28T00:11:23.000Z</time></trkpt>
        <trkpt lat="29.546681" lon="103.335898"><ele>2442.9497</ele><time>2026-05-28T00:11:28.000Z</time></trkpt>
        <trkpt lat="29.546659" lon="103.335954"><ele>2442.561</ele><time>2026-05-28T00:11:33.000Z</time></trkpt>
        <trkpt lat="29.546672" lon="103.33601"><ele>2440.5132</ele><time>2026-05-28T00:11:44.000Z</time></trkpt>
        <trkpt lat="29.546671" lon="103.336062"><ele>2441.8208</ele><time>2026-05-28T00:11:56.000Z</time></trkpt>
        <trkpt lat="29.546637" lon="103.336114"><ele>2443.3325</ele><time>2026-05-28T00:12:04.000Z</time></trkpt>
        <trkpt lat="29.546614" lon="103.336163"><ele>2441.4783</ele><time>2026-05-28T00:12:12.000Z</time></trkpt>
        <trkpt lat="29.546568" lon="103.336184"><ele>2445.9434</ele><time>2026-05-28T00:12:20.000Z</time></trkpt>
        <trkpt lat="29.54654" lon="103.336231"><ele>2446.3323</ele><time>2026-05-28T00:12:30.000Z</time></trkpt>
        <trkpt lat="29.546516" lon="103.336276"><ele>2449.2483</ele><time>2026-05-28T00:12:39.000Z</time></trkpt>
        <trkpt lat="29.546544" lon="103.336319"><ele>2455.7979</ele><time>2026-05-28T00:15:04.000Z</time></trkpt>
        <trkpt lat="29.546548" lon="103.336371"><ele>2456.7188</ele><time>2026-05-28T00:15:11.000Z</time></trkpt>
        <trkpt lat="29.546552" lon="103.336434"><ele>2457.3926</ele><time>2026-05-28T00:15:18.000Z</time></trkpt>
        <trkpt lat="29.54654" lon="103.336488"><ele>2456.4607</ele><time>2026-05-28T00:15:27.000Z</time></trkpt>
        <trkpt lat="29.546511" lon="103.33653"><ele>2457.0642</ele><time>2026-05-28T00:15:33.000Z</time></trkpt>
        <trkpt lat="29.546488" lon="103.336586"><ele>2455.353</ele><time>2026-05-28T00:15:42.000Z</time></trkpt>
        <trkpt lat="29.546471" lon="103.336636"><ele>2454.321</ele><time>2026-05-28T00:15:54.000Z</time></trkpt>
        <trkpt lat="29.546442" lon="103.33668"><ele>2453.0366</ele><time>2026-05-28T00:16:01.000Z</time></trkpt>
        <trkpt lat="29.546444" lon="103.336733"><ele>2456.7458</ele><time>2026-05-28T00:16:12.000Z</time></trkpt>
        <trkpt lat="29.546431" lon="103.336788"><ele>2462.2195</ele><time>2026-05-28T00:16:33.000Z</time></trkpt>
        <trkpt lat="29.546463" lon="103.336837"><ele>2463.6072</ele><time>2026-05-28T00:16:44.000Z</time></trkpt>
        <trkpt lat="29.546509" lon="103.336844"><ele>2464.1812</ele><time>2026-05-28T00:16:57.000Z</time></trkpt>
        <trkpt lat="29.546495" lon="103.336894"><ele>2470.403</ele><time>2026-05-28T00:17:31.000Z</time></trkpt>
        <trkpt lat="29.546517" lon="103.33694"><ele>2472.0776</ele><time>2026-05-28T00:17:40.000Z</time></trkpt>
        <trkpt lat="29.546528" lon="103.336991"><ele>2472.044</ele><time>2026-05-28T00:18:06.000Z</time></trkpt>
        <trkpt lat="29.546552" lon="103.337035"><ele>2470.5955</ele><time>2026-05-28T00:18:42.000Z</time></trkpt>
        <trkpt lat="29.546589" lon="103.337067"><ele>2470.7153</ele><time>2026-05-28T00:19:26.000Z</time></trkpt>
        <trkpt lat="29.546616" lon="103.33711"><ele>2469.7183</ele><time>2026-05-28T00:19:31.000Z</time></trkpt>
        <trkpt lat="29.546647" lon="103.337151"><ele>2469.1357</ele><time>2026-05-28T00:19:35.000Z</time></trkpt>
        <trkpt lat="29.546691" lon="103.337174"><ele>2472.9585</ele><time>2026-05-28T00:19:47.000Z</time></trkpt>
        <trkpt lat="29.546662" lon="103.33722"><ele>2472.2075</ele><time>2026-05-28T00:20:23.000Z</time></trkpt>
        <trkpt lat="29.546669" lon="103.337168"><ele>2469.928</ele><time>2026-05-28T00:20:31.000Z</time></trkpt>
        <trkpt lat="29.546685" lon="103.337117"><ele>2474.0852</ele><time>2026-05-28T00:20:42.000Z</time></trkpt>
        <trkpt lat="29.546639" lon="103.337124"><ele>2470.647</ele><time>2026-05-28T00:21:39.000Z</time></trkpt>
        <trkpt lat="29.546625" lon="103.337181"><ele>2472.1052</ele><time>2026-05-28T00:22:43.000Z</time></trkpt>
        <trkpt lat="29.546642" lon="103.33713"><ele>2469.0205</ele><time>2026-05-28T00:23:30.000Z</time></trkpt>
        <trkpt lat="29.546655" lon="103.33718"><ele>2470.9177</ele><time>2026-05-28T00:27:07.000Z</time></trkpt>
        <trkpt lat="29.546655" lon="103.337249"><ele>2468.9963</ele><time>2026-05-28T00:27:16.000Z</time></trkpt>
        <trkpt lat="29.546648" lon="103.337309"><ele>2466.91</ele><time>2026-05-28T00:27:22.000Z</time></trkpt>
        <trkpt lat="29.546626" lon="103.337357"><ele>2467.7312</ele><time>2026-05-28T00:27:26.000Z</time></trkpt>
        <trkpt lat="29.546586" lon="103.337395"><ele>2466.5276</ele><time>2026-05-28T00:27:32.000Z</time></trkpt>
        <trkpt lat="29.546572" lon="103.337447"><ele>2465.1086</ele><time>2026-05-28T00:27:37.000Z</time></trkpt>
        <trkpt lat="29.54655" lon="103.337496"><ele>2464.6887</ele><time>2026-05-28T00:27:42.000Z</time></trkpt>
        <trkpt lat="29.546511" lon="103.337525"><ele>2464.9524</ele><time>2026-05-28T00:27:46.000Z</time></trkpt>
        <trkpt lat="29.546484" lon="103.337577"><ele>2466.8647</ele><time>2026-05-28T00:27:51.000Z</time></trkpt>
        <trkpt lat="29.546463" lon="103.337628"><ele>2467.0046</ele><time>2026-05-28T00:27:55.000Z</time></trkpt>
        <trkpt lat="29.546439" lon="103.337677"><ele>2466.1716</ele><time>2026-05-28T00:27:58.000Z</time></trkpt>
        <trkpt lat="29.546406" lon="103.337725"><ele>2463.7651</ele><time>2026-05-28T00:28:04.000Z</time></trkpt>
        <trkpt lat="29.546395" lon="103.33778"><ele>2462.8135</ele><time>2026-05-28T00:28:09.000Z</time></trkpt>
        <trkpt lat="29.546385" lon="103.337831"><ele>2463.1902</ele><time>2026-05-28T00:28:14.000Z</time></trkpt>
        <trkpt lat="29.546355" lon="103.337881"><ele>2462.0112</ele><time>2026-05-28T00:28:19.000Z</time></trkpt>
        <trkpt lat="29.546337" lon="103.33793"><ele>2464.6487</ele><time>2026-05-28T00:28:25.000Z</time></trkpt>
        <trkpt lat="29.546307" lon="103.337975"><ele>2468.6433</ele><time>2026-05-28T00:28:31.000Z</time></trkpt>
        <trkpt lat="29.546277" lon="103.338027"><ele>2468.189</ele><time>2026-05-28T00:28:35.000Z</time></trkpt>
        <trkpt lat="29.546247" lon="103.338068"><ele>2467.4812</ele><time>2026-05-28T00:28:39.000Z</time></trkpt>
        <trkpt lat="29.546244" lon="103.338121"><ele>2464.3516</ele><time>2026-05-28T00:28:47.000Z</time></trkpt>
        <trkpt lat="29.546209" lon="103.338161"><ele>2460.667</ele><time>2026-05-28T00:28:55.000Z</time></trkpt>
        <trkpt lat="29.546174" lon="103.338198"><ele>2456.7422</ele><time>2026-05-28T00:29:04.000Z</time></trkpt>
        <trkpt lat="29.546169" lon="103.338259"><ele>2454.1658</ele><time>2026-05-28T00:29:14.000Z</time></trkpt>
        <trkpt lat="29.546159" lon="103.338316"><ele>2451.8975</ele><time>2026-05-28T00:29:21.000Z</time></trkpt>
        <trkpt lat="29.546174" lon="103.338374"><ele>2450.169</ele><time>2026-05-28T00:29:29.000Z</time></trkpt>
        <trkpt lat="29.546172" lon="103.33843"><ele>2450.1357</ele><time>2026-05-28T00:29:36.000Z</time></trkpt>
        <trkpt lat="29.546189" lon="103.33848"><ele>2449.0173</ele><time>2026-05-28T00:29:44.000Z</time></trkpt>
        <trkpt lat="29.546212" lon="103.338527"><ele>2448.8943</ele><time>2026-05-28T00:29:51.000Z</time></trkpt>
        <trkpt lat="29.546245" lon="103.338569"><ele>2450.5393</ele><time>2026-05-28T00:29:56.000Z</time></trkpt>
        <trkpt lat="29.546272" lon="103.338613"><ele>2450.1902</ele><time>2026-05-28T00:29:59.000Z</time></trkpt>
        <trkpt lat="29.546312" lon="103.338646"><ele>2450.1458</ele><time>2026-05-28T00:30:05.000Z</time></trkpt>
        <trkpt lat="29.546344" lon="103.338684"><ele>2452.0818</ele><time>2026-05-28T00:30:10.000Z</time></trkpt>
        <trkpt lat="29.546359" lon="103.338744"><ele>2452.1985</ele><time>2026-05-28T00:30:17.000Z</time></trkpt>
        <trkpt lat="29.546368" lon="103.338801"><ele>2450.2258</ele><time>2026-05-28T00:30:28.000Z</time></trkpt>
        <trkpt lat="29.546403" lon="103.338842"><ele>2444.675</ele><time>2026-05-28T00:30:46.000Z</time></trkpt>
        <trkpt lat="29.546454" lon="103.338852"><ele>2440.4888</ele><time>2026-05-28T00:30:57.000Z</time></trkpt>
        <trkpt lat="29.546496" lon="103.338887"><ele>2439.5466</ele><time>2026-05-28T00:31:08.000Z</time></trkpt>
        <trkpt lat="29.546517" lon="103.338934"><ele>2434.6775</ele><time>2026-05-28T00:31:46.000Z</time></trkpt>
        <trkpt lat="29.546531" lon="103.338985"><ele>2433.5818</ele><time>2026-05-28T00:31:59.000Z</time></trkpt>
        <trkpt lat="29.546561" lon="103.339024"><ele>2431.3362</ele><time>2026-05-28T00:32:09.000Z</time></trkpt>
        <trkpt lat="29.546594" lon="103.339062"><ele>2427.9058</ele><time>2026-05-28T00:32:17.000Z</time></trkpt>
        <trkpt lat="29.546625" lon="103.339104"><ele>2429.4087</ele><time>2026-05-28T00:32:23.000Z</time></trkpt>
        <trkpt lat="29.546665" lon="103.339143"><ele>2429.2957</ele><time>2026-05-28T00:32:30.000Z</time></trkpt>
        <trkpt lat="29.546685" lon="103.339193"><ele>2428.3704</ele><time>2026-05-28T00:32:39.000Z</time></trkpt>
        <trkpt lat="29.546706" lon="103.339239"><ele>2424.0046</ele><time>2026-05-28T00:32:49.000Z</time></trkpt>
        <trkpt lat="29.546726" lon="103.339288"><ele>2420.167</ele><time>2026-05-28T00:32:59.000Z</time></trkpt>
        <trkpt lat="29.54677" lon="103.339323"><ele>2418.8342</ele><time>2026-05-28T00:33:09.000Z</time></trkpt>
        <trkpt lat="29.546802" lon="103.339364"><ele>2419.03</ele><time>2026-05-28T00:33:16.000Z</time></trkpt>
        <trkpt lat="29.54685" lon="103.33938"><ele>2416.0576</ele><time>2026-05-28T00:33:21.000Z</time></trkpt>
        <trkpt lat="29.546884" lon="103.339416"><ele>2410.0254</ele><time>2026-05-28T00:33:41.000Z</time></trkpt>
        <trkpt lat="29.546912" lon="103.339462"><ele>2405.069</ele><time>2026-05-28T00:33:57.000Z</time></trkpt>
        <trkpt lat="29.546922" lon="103.339517"><ele>2406.4314</ele><time>2026-05-28T00:34:05.000Z</time></trkpt>
        <trkpt lat="29.546905" lon="103.339569"><ele>2405.6196</ele><time>2026-05-28T00:34:17.000Z</time></trkpt>
        <trkpt lat="29.546919" lon="103.339618"><ele>2402.9062</ele><time>2026-05-28T00:34:30.000Z</time></trkpt>
        <trkpt lat="29.546967" lon="103.339663"><ele>2400.8806</ele><time>2026-05-28T00:34:47.000Z</time></trkpt>
        <trkpt lat="29.547001" lon="103.339697"><ele>2396.9812</ele><time>2026-05-28T00:35:04.000Z</time></trkpt>
        <trkpt lat="29.547037" lon="103.339731"><ele>2390.6514</ele><time>2026-05-28T00:35:18.000Z</time></trkpt>
        <trkpt lat="29.547059" lon="103.339779"><ele>2387.692</ele><time>2026-05-28T00:35:29.000Z</time></trkpt>
        <trkpt lat="29.54708" lon="103.339829"><ele>2387.0256</ele><time>2026-05-28T00:35:36.000Z</time></trkpt>
        <trkpt lat="29.547106" lon="103.339876"><ele>2385.6914</ele><time>2026-05-28T00:35:44.000Z</time></trkpt>
        <trkpt lat="29.547107" lon="103.339928"><ele>2386.9648</ele><time>2026-05-28T00:35:53.000Z</time></trkpt>
        <trkpt lat="29.547082" lon="103.339972"><ele>2380.4155</ele><time>2026-05-28T00:36:07.000Z</time></trkpt>
        <trkpt lat="29.547064" lon="103.340025"><ele>2376.6758</ele><time>2026-05-28T00:36:23.000Z</time></trkpt>
        <trkpt lat="29.547092" lon="103.340067"><ele>2374.683</ele><time>2026-05-28T00:36:35.000Z</time></trkpt>
        <trkpt lat="29.547118" lon="103.340112"><ele>2374.066</ele><time>2026-05-28T00:36:49.000Z</time></trkpt>
        <trkpt lat="29.547142" lon="103.340156"><ele>2374.4028</ele><time>2026-05-28T00:37:03.000Z</time></trkpt>
        <trkpt lat="29.547101" lon="103.340196"><ele>2368.9587</ele><time>2026-05-28T00:37:31.000Z</time></trkpt>
        <trkpt lat="29.547057" lon="103.340252"><ele>2365.4492</ele><time>2026-05-28T00:37:45.000Z</time></trkpt>
        <trkpt lat="29.547011" lon="103.340285"><ele>2366.1777</ele><time>2026-05-28T00:38:01.000Z</time></trkpt>
        <trkpt lat="29.547057" lon="103.340285"><ele>2369.4478</ele><time>2026-05-28T00:38:07.000Z</time></trkpt>
        <trkpt lat="29.547074" lon="103.340333"><ele>2362.4807</ele><time>2026-05-28T00:38:22.000Z</time></trkpt>
        <trkpt lat="29.547107" lon="103.340381"><ele>2362.6575</ele><time>2026-05-28T00:38:37.000Z</time></trkpt>
        <trkpt lat="29.54713" lon="103.340438"><ele>2359.3455</ele><time>2026-05-28T00:38:48.000Z</time></trkpt>
        <trkpt lat="29.547134" lon="103.340494"><ele>2355.876</ele><time>2026-05-28T00:38:55.000Z</time></trkpt>
        <trkpt lat="29.547143" lon="103.340551"><ele>2354.2505</ele><time>2026-05-28T00:39:06.000Z</time></trkpt>
        <trkpt lat="29.54714" lon="103.340603"><ele>2354.0112</ele><time>2026-05-28T00:39:15.000Z</time></trkpt>
        <trkpt lat="29.54717" lon="103.340652"><ele>2354.9045</ele><time>2026-05-28T00:39:20.000Z</time></trkpt>
        <trkpt lat="29.547208" lon="103.340686"><ele>2356.4026</ele><time>2026-05-28T00:39:24.000Z</time></trkpt>
        <trkpt lat="29.547239" lon="103.340725"><ele>2357.253</ele><time>2026-05-28T00:39:30.000Z</time></trkpt>
        <trkpt lat="29.547248" lon="103.340778"><ele>2357.0598</ele><time>2026-05-28T00:39:37.000Z</time></trkpt>
        <trkpt lat="29.54725" lon="103.34083"><ele>2356.9712</ele><time>2026-05-28T00:39:41.000Z</time></trkpt>
        <trkpt lat="29.547251" lon="103.340889"><ele>2355.811</ele><time>2026-05-28T00:39:47.000Z</time></trkpt>
        <trkpt lat="29.547272" lon="103.340936"><ele>2353.1804</ele><time>2026-05-28T00:39:50.000Z</time></trkpt>
        <trkpt lat="29.547331" lon="103.340985"><ele>2352.4285</ele><time>2026-05-28T00:39:54.000Z</time></trkpt>
        <trkpt lat="29.547373" lon="103.341012"><ele>2353.9329</ele><time>2026-05-28T00:39:57.000Z</time></trkpt>
        <trkpt lat="29.54741" lon="103.341041"><ele>2352.1729</ele><time>2026-05-28T00:40:08.000Z</time></trkpt>
        <trkpt lat="29.547443" lon="103.341078"><ele>2350.8982</ele><time>2026-05-28T00:40:21.000Z</time></trkpt>
        <trkpt lat="29.547489" lon="103.341092"><ele>2347.0596</ele><time>2026-05-28T00:40:34.000Z</time></trkpt>
        <trkpt lat="29.547539" lon="103.34111"><ele>2343.9602</ele><time>2026-05-28T00:40:43.000Z</time></trkpt>
        <trkpt lat="29.547582" lon="103.341144"><ele>2343.329</ele><time>2026-05-28T00:40:56.000Z</time></trkpt>
        <trkpt lat="29.547629" lon="103.341122"><ele>2341.6313</ele><time>2026-05-28T00:41:02.000Z</time></trkpt>
        <trkpt lat="29.547676" lon="103.341128"><ele>2337.7856</ele><time>2026-05-28T00:41:12.000Z</time></trkpt>
        <trkpt lat="29.547723" lon="103.341147"><ele>2332.769</ele><time>2026-05-28T00:41:19.000Z</time></trkpt>
        <trkpt lat="29.547768" lon="103.341171"><ele>2331.6455</ele><time>2026-05-28T00:41:25.000Z</time></trkpt>
        <trkpt lat="29.547816" lon="103.341186"><ele>2330.9946</ele><time>2026-05-28T00:41:29.000Z</time></trkpt>
        <trkpt lat="29.547865" lon="103.341196"><ele>2333.7822</ele><time>2026-05-28T00:41:36.000Z</time></trkpt>
        <trkpt lat="29.547906" lon="103.341225"><ele>2335.37</ele><time>2026-05-28T00:41:42.000Z</time></trkpt>
        <trkpt lat="29.547951" lon="103.34127"><ele>2336.5593</ele><time>2026-05-28T00:41:45.000Z</time></trkpt>
        <trkpt lat="29.547995" lon="103.341289"><ele>2335.8987</ele><time>2026-05-28T00:41:51.000Z</time></trkpt>
        <trkpt lat="29.548048" lon="103.341281"><ele>2335.1423</ele><time>2026-05-28T00:41:56.000Z</time></trkpt>
        <trkpt lat="29.5481" lon="103.341286"><ele>2334.535</ele><time>2026-05-28T00:42:02.000Z</time></trkpt>
        <trkpt lat="29.548151" lon="103.341281"><ele>2334.666</ele><time>2026-05-28T00:42:07.000Z</time></trkpt>
        <trkpt lat="29.548197" lon="103.341284"><ele>2334.6023</ele><time>2026-05-28T00:42:12.000Z</time></trkpt>
        <trkpt lat="29.548243" lon="103.341297"><ele>2335.1353</ele><time>2026-05-28T00:42:19.000Z</time></trkpt>
        <trkpt lat="29.548295" lon="103.341284"><ele>2334.3416</ele><time>2026-05-28T00:42:27.000Z</time></trkpt>
        <trkpt lat="29.548341" lon="103.341273"><ele>2333.2983</ele><time>2026-05-28T00:42:34.000Z</time></trkpt>
        <trkpt lat="29.548391" lon="103.341293"><ele>2329.9858</ele><time>2026-05-28T00:42:43.000Z</time></trkpt>
        <trkpt lat="29.548442" lon="103.341305"><ele>2322.5764</ele><time>2026-05-28T00:43:11.000Z</time></trkpt>
        <trkpt lat="29.548489" lon="103.341287"><ele>2318.048</ele><time>2026-05-28T00:43:24.000Z</time></trkpt>
        <trkpt lat="29.548535" lon="103.34128"><ele>2316.8965</ele><time>2026-05-28T00:43:33.000Z</time></trkpt>
        <trkpt lat="29.548585" lon="103.341281"><ele>2318.7107</ele><time>2026-05-28T00:43:39.000Z</time></trkpt>
        <trkpt lat="29.54863" lon="103.341262"><ele>2315.1812</ele><time>2026-05-28T00:43:52.000Z</time></trkpt>
        <trkpt lat="29.548676" lon="103.341255"><ele>2316.0427</ele><time>2026-05-28T00:44:00.000Z</time></trkpt>
        <trkpt lat="29.548721" lon="103.341254"><ele>2315.9612</ele><time>2026-05-28T00:44:06.000Z</time></trkpt>
        <trkpt lat="29.548769" lon="103.341276"><ele>2315.511</ele><time>2026-05-28T00:44:15.000Z</time></trkpt>
        <trkpt lat="29.548813" lon="103.341252"><ele>2314.1084</ele><time>2026-05-28T00:44:26.000Z</time></trkpt>
        <trkpt lat="29.548858" lon="103.341233"><ele>2308.202</ele><time>2026-05-28T00:44:41.000Z</time></trkpt>
        <trkpt lat="29.548905" lon="103.341225"><ele>2304.0154</ele><time>2026-05-28T00:45:02.000Z</time></trkpt>
        <trkpt lat="29.548953" lon="103.341247"><ele>2299.6172</ele><time>2026-05-28T00:45:18.000Z</time></trkpt>
        <trkpt lat="29.548997" lon="103.341262"><ele>2297.26</ele><time>2026-05-28T00:45:24.000Z</time></trkpt>
        <trkpt lat="29.549042" lon="103.341277"><ele>2296.868</ele><time>2026-05-28T00:45:27.000Z</time></trkpt>
        <trkpt lat="29.549092" lon="103.34127"><ele>2295.9978</ele><time>2026-05-28T00:45:32.000Z</time></trkpt>
        <trkpt lat="29.549137" lon="103.341267"><ele>2291.657</ele><time>2026-05-28T00:45:41.000Z</time></trkpt>
        <trkpt lat="29.549107" lon="103.341317"><ele>2290.317</ele><time>2026-05-28T00:45:49.000Z</time></trkpt>
        <trkpt lat="29.54914" lon="103.341357"><ele>2291.8772</ele><time>2026-05-28T00:45:59.000Z</time></trkpt>
        <trkpt lat="29.549177" lon="103.341398"><ele>2292.2278</ele><time>2026-05-28T00:46:07.000Z</time></trkpt>
        <trkpt lat="29.54922" lon="103.341413"><ele>2289.9553</ele><time>2026-05-28T00:46:19.000Z</time></trkpt>
        <trkpt lat="29.549253" lon="103.341449"><ele>2286.3887</ele><time>2026-05-28T00:46:31.000Z</time></trkpt>
        <trkpt lat="29.549263" lon="103.341503"><ele>2285.3447</ele><time>2026-05-28T00:46:42.000Z</time></trkpt>
        <trkpt lat="29.549269" lon="103.341559"><ele>2284.5508</ele><time>2026-05-28T00:46:50.000Z</time></trkpt>
        <trkpt lat="29.549283" lon="103.341613"><ele>2284.0867</ele><time>2026-05-28T00:46:56.000Z</time></trkpt>
        <trkpt lat="29.549295" lon="103.341666"><ele>2283.0667</ele><time>2026-05-28T00:47:03.000Z</time></trkpt>
        <trkpt lat="29.549305" lon="103.341722"><ele>2281.9565</ele><time>2026-05-28T00:47:09.000Z</time></trkpt>
        <trkpt lat="29.549314" lon="103.341774"><ele>2281.7861</ele><time>2026-05-28T00:47:14.000Z</time></trkpt>
        <trkpt lat="29.549328" lon="103.341834"><ele>2281.5498</ele><time>2026-05-28T00:47:21.000Z</time></trkpt>
        <trkpt lat="29.549342" lon="103.341892"><ele>2281.8113</ele><time>2026-05-28T00:47:27.000Z</time></trkpt>
        <trkpt lat="29.549369" lon="103.341935"><ele>2283.6113</ele><time>2026-05-28T00:47:33.000Z</time></trkpt>
        <trkpt lat="29.549393" lon="103.34198"><ele>2283.1743</ele><time>2026-05-28T00:47:38.000Z</time></trkpt>
        <trkpt lat="29.549392" lon="103.34204"><ele>2282.6514</ele><time>2026-05-28T00:47:43.000Z</time></trkpt>
        <trkpt lat="29.549399" lon="103.342094"><ele>2283.089</ele><time>2026-05-28T00:47:48.000Z</time></trkpt>
        <trkpt lat="29.549415" lon="103.342154"><ele>2283.0608</ele><time>2026-05-28T00:47:53.000Z</time></trkpt>
        <trkpt lat="29.549425" lon="103.342206"><ele>2283.1992</ele><time>2026-05-28T00:48:01.000Z</time></trkpt>
        <trkpt lat="29.549449" lon="103.342252"><ele>2283.55</ele><time>2026-05-28T00:48:08.000Z</time></trkpt>
        <trkpt lat="29.549475" lon="103.3423"><ele>2283.9612</ele><time>2026-05-28T00:48:13.000Z</time></trkpt>
        <trkpt lat="29.549513" lon="103.342342"><ele>2283.1125</ele><time>2026-05-28T00:48:19.000Z</time></trkpt>
        <trkpt lat="29.549551" lon="103.342379"><ele>2282.6594</ele><time>2026-05-28T00:48:24.000Z</time></trkpt>
        <trkpt lat="29.549587" lon="103.342413"><ele>2282.8926</ele><time>2026-05-28T00:48:30.000Z</time></trkpt>
        <trkpt lat="29.549621" lon="103.342449"><ele>2281.914</ele><time>2026-05-28T00:48:36.000Z</time></trkpt>
        <trkpt lat="29.549655" lon="103.342486"><ele>2280.5212</ele><time>2026-05-28T00:48:41.000Z</time></trkpt>
        <trkpt lat="29.549688" lon="103.34253"><ele>2280.451</ele><time>2026-05-28T00:48:47.000Z</time></trkpt>
        <trkpt lat="29.549723" lon="103.342574"><ele>2280.6836</ele><time>2026-05-28T00:48:52.000Z</time></trkpt>
        <trkpt lat="29.549756" lon="103.34262"><ele>2279.3523</ele><time>2026-05-28T00:48:58.000Z</time></trkpt>
        <trkpt lat="29.549788" lon="103.342663"><ele>2278.8323</ele><time>2026-05-28T00:49:03.000Z</time></trkpt>
        <trkpt lat="29.549821" lon="103.342705"><ele>2279.0881</ele><time>2026-05-28T00:49:09.000Z</time></trkpt>
        <trkpt lat="29.549855" lon="103.342745"><ele>2279.2341</ele><time>2026-05-28T00:49:15.000Z</time></trkpt>
        <trkpt lat="29.549872" lon="103.342796"><ele>2278.7195</ele><time>2026-05-28T00:49:21.000Z</time></trkpt>
        <trkpt lat="29.549901" lon="103.342842"><ele>2277.7173</ele><time>2026-05-28T00:49:27.000Z</time></trkpt>
        <trkpt lat="29.549935" lon="103.342878"><ele>2276.69</ele><time>2026-05-28T00:49:32.000Z</time></trkpt>
        <trkpt lat="29.54995" lon="103.342935"><ele>2276.425</ele><time>2026-05-28T00:49:38.000Z</time></trkpt>
        <trkpt lat="29.54997" lon="103.342994"><ele>2276.5784</ele><time>2026-05-28T00:49:43.000Z</time></trkpt>
        <trkpt lat="29.549992" lon="103.343047"><ele>2277.9692</ele><time>2026-05-28T00:49:49.000Z</time></trkpt>
        <trkpt lat="29.550022" lon="103.343098"><ele>2278.1404</ele><time>2026-05-28T00:49:54.000Z</time></trkpt>
        <trkpt lat="29.550053" lon="103.34315"><ele>2277.4387</ele><time>2026-05-28T00:49:59.000Z</time></trkpt>
        <trkpt lat="29.550081" lon="103.343198"><ele>2278.3674</ele><time>2026-05-28T00:50:07.000Z</time></trkpt>
        <trkpt lat="29.550104" lon="103.343249"><ele>2277.6594</ele><time>2026-05-28T00:50:12.000Z</time></trkpt>
        <trkpt lat="29.550136" lon="103.343288"><ele>2276.4922</ele><time>2026-05-28T00:50:17.000Z</time></trkpt>
        <trkpt lat="29.550175" lon="103.343319"><ele>2278.824</ele><time>2026-05-28T00:50:22.000Z</time></trkpt>
        <trkpt lat="29.550206" lon="103.343365"><ele>2279.9856</ele><time>2026-05-28T00:50:30.000Z</time></trkpt>
        <trkpt lat="29.550238" lon="103.343409"><ele>2276.7344</ele><time>2026-05-28T00:50:36.000Z</time></trkpt>
        <trkpt lat="29.550267" lon="103.343452"><ele>2275.4226</ele><time>2026-05-28T00:50:40.000Z</time></trkpt>
        <trkpt lat="29.550296" lon="103.343498"><ele>2276.8647</ele><time>2026-05-28T00:50:45.000Z</time></trkpt>
        <trkpt lat="29.550316" lon="103.34355"><ele>2275.2925</ele><time>2026-05-28T00:50:51.000Z</time></trkpt>
        <trkpt lat="29.550329" lon="103.3436"><ele>2275.4565</ele><time>2026-05-28T00:50:56.000Z</time></trkpt>
        <trkpt lat="29.550354" lon="103.343647"><ele>2275.7488</ele><time>2026-05-28T00:51:02.000Z</time></trkpt>
        <trkpt lat="29.550379" lon="103.343692"><ele>2277.819</ele><time>2026-05-28T00:51:10.000Z</time></trkpt>
        <trkpt lat="29.550407" lon="103.343733"><ele>2279.7168</ele><time>2026-05-28T00:51:15.000Z</time></trkpt>
        <trkpt lat="29.550447" lon="103.343758"><ele>2279.85</ele><time>2026-05-28T00:51:19.000Z</time></trkpt>
        <trkpt lat="29.550483" lon="103.343799"><ele>2279.9314</ele><time>2026-05-28T00:51:24.000Z</time></trkpt>
        <trkpt lat="29.550522" lon="103.343827"><ele>2279.6968</ele><time>2026-05-28T00:51:29.000Z</time></trkpt>
        <trkpt lat="29.550547" lon="103.343872"><ele>2280.0164</ele><time>2026-05-28T00:51:35.000Z</time></trkpt>
        <trkpt lat="29.550568" lon="103.343927"><ele>2280.4578</ele><time>2026-05-28T00:51:40.000Z</time></trkpt>
        <trkpt lat="29.550604" lon="103.343964"><ele>2280.7502</ele><time>2026-05-28T00:51:45.000Z</time></trkpt>
        <trkpt lat="29.550637" lon="103.344001"><ele>2280.0073</ele><time>2026-05-28T00:51:50.000Z</time></trkpt>
        <trkpt lat="29.550683" lon="103.344029"><ele>2278.1648</ele><time>2026-05-28T00:51:56.000Z</time></trkpt>
        <trkpt lat="29.550732" lon="103.344032"><ele>2277.0312</ele><time>2026-05-28T00:52:04.000Z</time></trkpt>
        <trkpt lat="29.55077" lon="103.344062"><ele>2276.5151</ele><time>2026-05-28T00:52:10.000Z</time></trkpt>
        <trkpt lat="29.550772" lon="103.344114"><ele>2276.5735</ele><time>2026-05-28T00:52:20.000Z</time></trkpt>
        <trkpt lat="29.550804" lon="103.344156"><ele>2276.4304</ele><time>2026-05-28T00:52:25.000Z</time></trkpt>
        <trkpt lat="29.550846" lon="103.344183"><ele>2277.0708</ele><time>2026-05-28T00:52:33.000Z</time></trkpt>
        <trkpt lat="29.550894" lon="103.344183"><ele>2275.4175</ele><time>2026-05-28T00:52:41.000Z</time></trkpt>
        <trkpt lat="29.550935" lon="103.344209"><ele>2276.3394</ele><time>2026-05-28T00:52:45.000Z</time></trkpt>
        <trkpt lat="29.550986" lon="103.344208"><ele>2279.122</ele><time>2026-05-28T00:52:52.000Z</time></trkpt>
        <trkpt lat="29.551034" lon="103.344195"><ele>2277.9338</ele><time>2026-05-28T00:52:57.000Z</time></trkpt>
        <trkpt lat="29.551077" lon="103.344221"><ele>2276.3433</ele><time>2026-05-28T00:53:01.000Z</time></trkpt>
        <trkpt lat="29.551116" lon="103.344256"><ele>2274.2979</ele><time>2026-05-28T00:53:07.000Z</time></trkpt>
        <trkpt lat="29.55116" lon="103.34429"><ele>2272.9272</ele><time>2026-05-28T00:53:13.000Z</time></trkpt>
        <trkpt lat="29.551207" lon="103.344295"><ele>2271.8784</ele><time>2026-05-28T00:53:19.000Z</time></trkpt>
        <trkpt lat="29.55125" lon="103.344282"><ele>2271.1228</ele><time>2026-05-28T00:53:24.000Z</time></trkpt>
        <trkpt lat="29.551302" lon="103.344289"><ele>2271.265</ele><time>2026-05-28T00:53:30.000Z</time></trkpt>
        <trkpt lat="29.551347" lon="103.344285"><ele>2273.2095</ele><time>2026-05-28T00:53:39.000Z</time></trkpt>
        <trkpt lat="29.551391" lon="103.344305"><ele>2276.189</ele><time>2026-05-28T00:53:54.000Z</time></trkpt>
        <trkpt lat="29.551435" lon="103.344294"><ele>2277.009</ele><time>2026-05-28T00:54:00.000Z</time></trkpt>
        <trkpt lat="29.551486" lon="103.344306"><ele>2278.3816</ele><time>2026-05-28T00:54:06.000Z</time></trkpt>
        <trkpt lat="29.551531" lon="103.344314"><ele>2280.6414</ele><time>2026-05-28T00:54:14.000Z</time></trkpt>
        <trkpt lat="29.55157" lon="103.344344"><ele>2279.266</ele><time>2026-05-28T00:54:22.000Z</time></trkpt>
        <trkpt lat="29.551613" lon="103.344374"><ele>2283.1094</ele><time>2026-05-28T00:54:40.000Z</time></trkpt>
        <trkpt lat="29.551654" lon="103.344404"><ele>2280.5938</ele><time>2026-05-28T00:54:48.000Z</time></trkpt>
        <trkpt lat="29.551701" lon="103.344418"><ele>2280.9363</ele><time>2026-05-28T00:54:52.000Z</time></trkpt>
        <trkpt lat="29.551709" lon="103.344475"><ele>2280.661</ele><time>2026-05-28T00:54:59.000Z</time></trkpt>
        <trkpt lat="29.551742" lon="103.344512"><ele>2280.6536</ele><time>2026-05-28T00:55:05.000Z</time></trkpt>
        <trkpt lat="29.551772" lon="103.344556"><ele>2279.0464</ele><time>2026-05-28T00:55:11.000Z</time></trkpt>
        <trkpt lat="29.551796" lon="103.344602"><ele>2278.9805</ele><time>2026-05-28T00:55:19.000Z</time></trkpt>
        <trkpt lat="29.551823" lon="103.344649"><ele>2278.1875</ele><time>2026-05-28T00:55:26.000Z</time></trkpt>
        <trkpt lat="29.551853" lon="103.344688"><ele>2277.4211</ele><time>2026-05-28T00:55:30.000Z</time></trkpt>
        <trkpt lat="29.551873" lon="103.344736"><ele>2277.8801</ele><time>2026-05-28T00:55:35.000Z</time></trkpt>
        <trkpt lat="29.551895" lon="103.344788"><ele>2277.4385</ele><time>2026-05-28T00:55:42.000Z</time></trkpt>
        <trkpt lat="29.551924" lon="103.344835"><ele>2279.1213</ele><time>2026-05-28T00:55:48.000Z</time></trkpt>
        <trkpt lat="29.551975" lon="103.344858"><ele>2279.2683</ele><time>2026-05-28T00:55:56.000Z</time></trkpt>
        <trkpt lat="29.551991" lon="103.344916"><ele>2278.9854</ele><time>2026-05-28T00:56:02.000Z</time></trkpt>
        <trkpt lat="29.552022" lon="103.344961"><ele>2279.9807</ele><time>2026-05-28T00:56:08.000Z</time></trkpt>
        <trkpt lat="29.552051" lon="103.345003"><ele>2279.8245</ele><time>2026-05-28T00:56:19.000Z</time></trkpt>
        <trkpt lat="29.552042" lon="103.345058"><ele>2278.9607</ele><time>2026-05-28T00:56:26.000Z</time></trkpt>
        <trkpt lat="29.552051" lon="103.345108"><ele>2282.559</ele><time>2026-05-28T00:56:33.000Z</time></trkpt>
        <trkpt lat="29.552091" lon="103.345134"><ele>2281.6458</ele><time>2026-05-28T00:56:39.000Z</time></trkpt>
        <trkpt lat="29.552134" lon="103.345159"><ele>2283.576</ele><time>2026-05-28T00:56:53.000Z</time></trkpt>
        <trkpt lat="29.552179" lon="103.345192"><ele>2281.7383</ele><time>2026-05-28T00:57:17.000Z</time></trkpt>
        <trkpt lat="29.55223" lon="103.345198"><ele>2282.5857</ele><time>2026-05-28T00:57:25.000Z</time></trkpt>
        <trkpt lat="29.552281" lon="103.345195"><ele>2282.7034</ele><time>2026-05-28T00:57:31.000Z</time></trkpt>
        <trkpt lat="29.552331" lon="103.34521"><ele>2283.7954</ele><time>2026-05-28T00:57:35.000Z</time></trkpt>
        <trkpt lat="29.552374" lon="103.34524"><ele>2285.0945</ele><time>2026-05-28T00:57:41.000Z</time></trkpt>
        <trkpt lat="29.55241" lon="103.345282"><ele>2284.4116</ele><time>2026-05-28T00:57:50.000Z</time></trkpt>
        <trkpt lat="29.552456" lon="103.345302"><ele>2282.2124</ele><time>2026-05-28T00:57:57.000Z</time></trkpt>
        <trkpt lat="29.552474" lon="103.345354"><ele>2280.5022</ele><time>2026-05-28T00:58:09.000Z</time></trkpt>
        <trkpt lat="29.55246" lon="103.345411"><ele>2279.7812</ele><time>2026-05-28T00:58:16.000Z</time></trkpt>
        <trkpt lat="29.552459" lon="103.345464"><ele>2280.0771</ele><time>2026-05-28T00:58:21.000Z</time></trkpt>
        <trkpt lat="29.552477" lon="103.345523"><ele>2277.9558</ele><time>2026-05-28T00:58:27.000Z</time></trkpt>
        <trkpt lat="29.552512" lon="103.345556"><ele>2280.9404</ele><time>2026-05-28T00:58:32.000Z</time></trkpt>
        <trkpt lat="29.552559" lon="103.345544"><ele>2284.474</ele><time>2026-05-28T00:58:42.000Z</time></trkpt>
        <trkpt lat="29.552609" lon="103.345538"><ele>2284.9038</ele><time>2026-05-28T00:58:53.000Z</time></trkpt>
        <trkpt lat="29.552658" lon="103.345522"><ele>2285.3665</ele><time>2026-05-28T00:59:01.000Z</time></trkpt>
        <trkpt lat="29.552704" lon="103.345516"><ele>2284.1072</ele><time>2026-05-28T00:59:07.000Z</time></trkpt>
        <trkpt lat="29.552751" lon="103.345496"><ele>2285.329</ele><time>2026-05-28T00:59:13.000Z</time></trkpt>
        <trkpt lat="29.552798" lon="103.345512"><ele>2284.358</ele><time>2026-05-28T00:59:19.000Z</time></trkpt>
        <trkpt lat="29.552846" lon="103.345525"><ele>2283.8833</ele><time>2026-05-28T00:59:26.000Z</time></trkpt>
        <trkpt lat="29.552899" lon="103.345513"><ele>2282.6863</ele><time>2026-05-28T00:59:32.000Z</time></trkpt>
        <trkpt lat="29.552949" lon="103.345523"><ele>2281.1917</ele><time>2026-05-28T00:59:37.000Z</time></trkpt>
        <trkpt lat="29.552989" lon="103.345492"><ele>2281.1028</ele><time>2026-05-28T00:59:43.000Z</time></trkpt>
        <trkpt lat="29.55304" lon="103.345477"><ele>2281.631</ele><time>2026-05-28T00:59:48.000Z</time></trkpt>
        <trkpt lat="29.553085" lon="103.345466"><ele>2280.1106</ele><time>2026-05-28T00:59:53.000Z</time></trkpt>
        <trkpt lat="29.553137" lon="103.345466"><ele>2278.3594</ele><time>2026-05-28T01:00:00.000Z</time></trkpt>
        <trkpt lat="29.553186" lon="103.345464"><ele>2276.3137</ele><time>2026-05-28T01:00:07.000Z</time></trkpt>
        <trkpt lat="29.55323" lon="103.345473"><ele>2273.8806</ele><time>2026-05-28T01:00:12.000Z</time></trkpt>
        <trkpt lat="29.553276" lon="103.345472"><ele>2273.8174</ele><time>2026-05-28T01:00:19.000Z</time></trkpt>
        <trkpt lat="29.553323" lon="103.345477"><ele>2275.6936</ele><time>2026-05-28T01:00:26.000Z</time></trkpt>
        <trkpt lat="29.553362" lon="103.345448"><ele>2277.0193</ele><time>2026-05-28T01:00:32.000Z</time></trkpt>
        <trkpt lat="29.553407" lon="103.345431"><ele>2276.698</ele><time>2026-05-28T01:00:41.000Z</time></trkpt>
        <trkpt lat="29.553439" lon="103.345388"><ele>2274.8362</ele><time>2026-05-28T01:00:53.000Z</time></trkpt>
        <trkpt lat="29.553486" lon="103.345379"><ele>2275.4304</ele><time>2026-05-28T01:01:02.000Z</time></trkpt>
        <trkpt lat="29.553531" lon="103.345369"><ele>2276.0613</ele><time>2026-05-28T01:01:08.000Z</time></trkpt>
        <trkpt lat="29.553575" lon="103.345381"><ele>2274.855</ele><time>2026-05-28T01:01:14.000Z</time></trkpt>
        <trkpt lat="29.553622" lon="103.34539"><ele>2271.8003</ele><time>2026-05-28T01:01:20.000Z</time></trkpt>
        <trkpt lat="29.553672" lon="103.345382"><ele>2271.1921</ele><time>2026-05-28T01:01:28.000Z</time></trkpt>
        <trkpt lat="29.553721" lon="103.345385"><ele>2269.7668</ele><time>2026-05-28T01:01:35.000Z</time></trkpt>
        <trkpt lat="29.553767" lon="103.345385"><ele>2268.478</ele><time>2026-05-28T01:01:45.000Z</time></trkpt>
        <trkpt lat="29.553809" lon="103.345405"><ele>2266.1475</ele><time>2026-05-28T01:01:52.000Z</time></trkpt>
        <trkpt lat="29.553851" lon="103.345424"><ele>2263.2747</ele><time>2026-05-28T01:02:03.000Z</time></trkpt>
        <trkpt lat="29.553892" lon="103.345453"><ele>2262.2637</ele><time>2026-05-28T01:02:11.000Z</time></trkpt>
        <trkpt lat="29.553937" lon="103.34547"><ele>2261.4946</ele><time>2026-05-28T01:02:22.000Z</time></trkpt>
        <trkpt lat="29.55398" lon="103.345497"><ele>2260.1113</ele><time>2026-05-28T01:02:28.000Z</time></trkpt>
        <trkpt lat="29.554021" lon="103.345519"><ele>2258.5825</ele><time>2026-05-28T01:02:37.000Z</time></trkpt>
        <trkpt lat="29.55406" lon="103.345553"><ele>2256.4907</ele><time>2026-05-28T01:02:46.000Z</time></trkpt>
        <trkpt lat="29.554102" lon="103.345572"><ele>2254.438</ele><time>2026-05-28T01:02:56.000Z</time></trkpt>
        <trkpt lat="29.554151" lon="103.345569"><ele>2254.4321</ele><time>2026-05-28T01:03:04.000Z</time></trkpt>
        <trkpt lat="29.5542" lon="103.345564"><ele>2251.8882</ele><time>2026-05-28T01:03:19.000Z</time></trkpt>
        <trkpt lat="29.55424" lon="103.345539"><ele>2249.4067</ele><time>2026-05-28T01:03:32.000Z</time></trkpt>
        <trkpt lat="29.554285" lon="103.345522"><ele>2249.2034</ele><time>2026-05-28T01:03:47.000Z</time></trkpt>
        <trkpt lat="29.554325" lon="103.345495"><ele>2246.812</ele><time>2026-05-28T01:04:03.000Z</time></trkpt>
        <trkpt lat="29.554374" lon="103.345482"><ele>2245.5422</ele><time>2026-05-28T01:04:14.000Z</time></trkpt>
        <trkpt lat="29.554421" lon="103.345462"><ele>2244.528</ele><time>2026-05-28T01:04:26.000Z</time></trkpt>
        <trkpt lat="29.554471" lon="103.345459"><ele>2241.79</ele><time>2026-05-28T01:04:36.000Z</time></trkpt>
        <trkpt lat="29.554522" lon="103.345442"><ele>2239.9658</ele><time>2026-05-28T01:04:45.000Z</time></trkpt>
        <trkpt lat="29.55457" lon="103.345448"><ele>2233.2458</ele><time>2026-05-28T01:05:11.000Z</time></trkpt>
        <trkpt lat="29.554615" lon="103.345435"><ele>2232.471</ele><time>2026-05-28T01:05:23.000Z</time></trkpt>
        <trkpt lat="29.554661" lon="103.345436"><ele>2231.0957</ele><time>2026-05-28T01:05:33.000Z</time></trkpt>
        <trkpt lat="29.554709" lon="103.345428"><ele>2226.487</ele><time>2026-05-28T01:05:43.000Z</time></trkpt>
        <trkpt lat="29.554744" lon="103.34539"><ele>2226.2903</ele><time>2026-05-28T01:05:55.000Z</time></trkpt>
        <trkpt lat="29.554782" lon="103.345357"><ele>2226.755</ele><time>2026-05-28T01:06:05.000Z</time></trkpt>
        <trkpt lat="29.554825" lon="103.345341"><ele>2230.4934</ele><time>2026-05-28T01:06:38.000Z</time></trkpt>
        <trkpt lat="29.554866" lon="103.345308"><ele>2223.366</ele><time>2026-05-28T01:07:22.000Z</time></trkpt>
        <trkpt lat="29.554898" lon="103.345267"><ele>2221.2534</ele><time>2026-05-28T01:07:35.000Z</time></trkpt>
        <trkpt lat="29.554934" lon="103.345234"><ele>2218.2239</ele><time>2026-05-28T01:07:44.000Z</time></trkpt>
        <trkpt lat="29.554979" lon="103.345225"><ele>2215.9634</ele><time>2026-05-28T01:07:53.000Z</time></trkpt>
        <trkpt lat="29.555031" lon="103.345227"><ele>2216.2563</ele><time>2026-05-28T01:08:02.000Z</time></trkpt>
        <trkpt lat="29.555076" lon="103.345212"><ele>2214.4055</ele><time>2026-05-28T01:08:11.000Z</time></trkpt>
        <trkpt lat="29.555124" lon="103.345219"><ele>2214.2249</ele><time>2026-05-28T01:08:17.000Z</time></trkpt>
        <trkpt lat="29.555171" lon="103.345203"><ele>2216.1885</ele><time>2026-05-28T01:08:23.000Z</time></trkpt>
        <trkpt lat="29.555218" lon="103.345185"><ele>2215.5825</ele><time>2026-05-28T01:08:29.000Z</time></trkpt>
        <trkpt lat="29.555256" lon="103.345155"><ele>2217.4753</ele><time>2026-05-28T01:08:34.000Z</time></trkpt>
        <trkpt lat="29.555269" lon="103.345104"><ele>2213.3064</ele><time>2026-05-28T01:08:40.000Z</time></trkpt>
        <trkpt lat="29.555297" lon="103.345055"><ele>2208.0823</ele><time>2026-05-28T01:08:47.000Z</time></trkpt>
        <trkpt lat="29.555349" lon="103.345056"><ele>2205.976</ele><time>2026-05-28T01:08:55.000Z</time></trkpt>
        <trkpt lat="29.555382" lon="103.345092"><ele>2206.652</ele><time>2026-05-28T01:09:03.000Z</time></trkpt>
        <trkpt lat="29.555381" lon="103.345148"><ele>2202.6775</ele><time>2026-05-28T01:09:12.000Z</time></trkpt>
        <trkpt lat="29.55542" lon="103.345181"><ele>2200.518</ele><time>2026-05-28T01:09:25.000Z</time></trkpt>
        <trkpt lat="29.555465" lon="103.34519"><ele>2202.2124</ele><time>2026-05-28T01:09:33.000Z</time></trkpt>
        <trkpt lat="29.555503" lon="103.345155"><ele>2198.8381</ele><time>2026-05-28T01:09:46.000Z</time></trkpt>
        <trkpt lat="29.555542" lon="103.345116"><ele>2193.699</ele><time>2026-05-28T01:09:56.000Z</time></trkpt>
        <trkpt lat="29.555588" lon="103.345114"><ele>2188.102</ele><time>2026-05-28T01:10:08.000Z</time></trkpt>
        <trkpt lat="29.555619" lon="103.345073"><ele>2187.008</ele><time>2026-05-28T01:10:18.000Z</time></trkpt>
        <trkpt lat="29.555648" lon="103.345027"><ele>2182.9692</ele><time>2026-05-28T01:10:30.000Z</time></trkpt>
        <trkpt lat="29.555703" lon="103.34501"><ele>2181.6863</ele><time>2026-05-28T01:10:58.000Z</time></trkpt>
        <trkpt lat="29.555742" lon="103.345047"><ele>2179.7886</ele><time>2026-05-28T01:11:12.000Z</time></trkpt>
        <trkpt lat="29.55579" lon="103.345041"><ele>2179.8303</ele><time>2026-05-28T01:11:24.000Z</time></trkpt>
        <trkpt lat="29.555837" lon="103.345032"><ele>2178.8843</ele><time>2026-05-28T01:11:35.000Z</time></trkpt>
        <trkpt lat="29.55588" lon="103.345014"><ele>2176.6367</ele><time>2026-05-28T01:11:47.000Z</time></trkpt>
        <trkpt lat="29.555916" lon="103.344978"><ele>2176.5164</ele><time>2026-05-28T01:11:53.000Z</time></trkpt>
        <trkpt lat="29.555945" lon="103.344931"><ele>2174.4094</ele><time>2026-05-28T01:12:01.000Z</time></trkpt>
        <trkpt lat="29.555987" lon="103.344898"><ele>2169.5037</ele><time>2026-05-28T01:12:10.000Z</time></trkpt>
        <trkpt lat="29.556019" lon="103.344858"><ele>2165.694</ele><time>2026-05-28T01:12:21.000Z</time></trkpt>
        <trkpt lat="29.556044" lon="103.344812"><ele>2162.114</ele><time>2026-05-28T01:12:33.000Z</time></trkpt>
        <trkpt lat="29.556056" lon="103.344755"><ele>2159.1206</ele><time>2026-05-28T01:12:41.000Z</time></trkpt>
        <trkpt lat="29.556067" lon="103.344702"><ele>2158.4763</ele><time>2026-05-28T01:12:51.000Z</time></trkpt>
        <trkpt lat="29.556093" lon="103.344659"><ele>2156.712</ele><time>2026-05-28T01:13:00.000Z</time></trkpt>
        <trkpt lat="29.556123" lon="103.344616"><ele>2154.5322</ele><time>2026-05-28T01:13:09.000Z</time></trkpt>
        <trkpt lat="29.556158" lon="103.344578"><ele>2152.7212</ele><time>2026-05-28T01:13:24.000Z</time></trkpt>
        <trkpt lat="29.556198" lon="103.344543"><ele>2153.8474</ele><time>2026-05-28T01:13:30.000Z</time></trkpt>
        <trkpt lat="29.556234" lon="103.3445"><ele>2153.5159</ele><time>2026-05-28T01:13:38.000Z</time></trkpt>
        <trkpt lat="29.556261" lon="103.344458"><ele>2150.7954</ele><time>2026-05-28T01:13:47.000Z</time></trkpt>
        <trkpt lat="29.556301" lon="103.344432"><ele>2150.1428</ele><time>2026-05-28T01:13:56.000Z</time></trkpt>
        <trkpt lat="29.556323" lon="103.344385"><ele>2147.9824</ele><time>2026-05-28T01:14:10.000Z</time></trkpt>
        <trkpt lat="29.55634" lon="103.344334"><ele>2144.7634</ele><time>2026-05-28T01:14:19.000Z</time></trkpt>
        <trkpt lat="29.556384" lon="103.344305"><ele>2142.9104</ele><time>2026-05-28T01:14:32.000Z</time></trkpt>
        <trkpt lat="29.556432" lon="103.34428"><ele>2146.4238</ele><time>2026-05-28T01:14:45.000Z</time></trkpt>
        <trkpt lat="29.556471" lon="103.34425"><ele>2144.5886</ele><time>2026-05-28T01:14:54.000Z</time></trkpt>
        <trkpt lat="29.556496" lon="103.344197"><ele>2139.6602</ele><time>2026-05-28T01:15:05.000Z</time></trkpt>
        <trkpt lat="29.556525" lon="103.344156"><ele>2138.671</ele><time>2026-05-28T01:15:18.000Z</time></trkpt>
        <trkpt lat="29.55657" lon="103.344141"><ele>2135.4548</ele><time>2026-05-28T01:15:29.000Z</time></trkpt>
        <trkpt lat="29.556591" lon="103.344092"><ele>2133.7727</ele><time>2026-05-28T01:15:42.000Z</time></trkpt>
        <trkpt lat="29.55661" lon="103.344044"><ele>2129.1055</ele><time>2026-05-28T01:15:55.000Z</time></trkpt>
        <trkpt lat="29.556638" lon="103.343999"><ele>2123.0762</ele><time>2026-05-28T01:16:19.000Z</time></trkpt>
        <trkpt lat="29.556631" lon="103.343948"><ele>2119.418</ele><time>2026-05-28T01:16:28.000Z</time></trkpt>
        <trkpt lat="29.556658" lon="103.343904"><ele>2114.8835</ele><time>2026-05-28T01:16:53.000Z</time></trkpt>
        <trkpt lat="29.556692" lon="103.343862"><ele>2113.5862</ele><time>2026-05-28T01:17:15.000Z</time></trkpt>
        <trkpt lat="29.556722" lon="103.343818"><ele>2111.5295</ele><time>2026-05-28T01:17:28.000Z</time></trkpt>
        <trkpt lat="29.55676" lon="103.343789"><ele>2108.7227</ele><time>2026-05-28T01:17:39.000Z</time></trkpt>
        <trkpt lat="29.556807" lon="103.343745"><ele>2107.4155</ele><time>2026-05-28T01:17:56.000Z</time></trkpt>
        <trkpt lat="29.556835" lon="103.343788"><ele>2108.3748</ele><time>2026-05-28T01:18:07.000Z</time></trkpt>
        <trkpt lat="29.55688" lon="103.343809"><ele>2107.8813</ele><time>2026-05-28T01:18:18.000Z</time></trkpt>
        <trkpt lat="29.556922" lon="103.343779"><ele>2104.7222</ele><time>2026-05-28T01:18:27.000Z</time></trkpt>
        <trkpt lat="29.556969" lon="103.343752"><ele>2102.4038</ele><time>2026-05-28T01:18:33.000Z</time></trkpt>
        <trkpt lat="29.557018" lon="103.343739"><ele>2102.155</ele><time>2026-05-28T01:18:39.000Z</time></trkpt>
        <trkpt lat="29.557063" lon="103.343718"><ele>2100.9094</ele><time>2026-05-28T01:18:49.000Z</time></trkpt>
        <trkpt lat="29.557106" lon="103.343689"><ele>2096.9006</ele><time>2026-05-28T01:19:03.000Z</time></trkpt>
        <trkpt lat="29.55715" lon="103.343675"><ele>2094.628</ele><time>2026-05-28T01:19:21.000Z</time></trkpt>
        <trkpt lat="29.557197" lon="103.343648"><ele>2090.8235</ele><time>2026-05-28T01:19:41.000Z</time></trkpt>
        <trkpt lat="29.557232" lon="103.343683"><ele>2090.8813</ele><time>2026-05-28T01:20:11.000Z</time></trkpt>
        <trkpt lat="29.557283" lon="103.34368"><ele>2082.696</ele><time>2026-05-28T01:20:58.000Z</time></trkpt>
        <trkpt lat="29.557328" lon="103.343679"><ele>2079.5637</ele><time>2026-05-28T01:21:50.000Z</time></trkpt>
        <trkpt lat="29.557374" lon="103.343694"><ele>2077.1338</ele><time>2026-05-28T01:22:15.000Z</time></trkpt>
        <trkpt lat="29.557422" lon="103.343701"><ele>2074.7393</ele><time>2026-05-28T01:22:44.000Z</time></trkpt>
        <trkpt lat="29.557459" lon="103.343741"><ele>2071.4038</ele><time>2026-05-28T01:22:52.000Z</time></trkpt>
        <trkpt lat="29.557515" lon="103.343749"><ele>2071.7346</ele><time>2026-05-28T01:22:58.000Z</time></trkpt>
        <trkpt lat="29.55757" lon="103.343749"><ele>2075.6328</ele><time>2026-05-28T01:23:26.000Z</time></trkpt>
        <trkpt lat="29.557579" lon="103.343804"><ele>2074.0588</ele><time>2026-05-28T01:24:30.000Z</time></trkpt>
        <trkpt lat="29.557561" lon="103.343855"><ele>2074.4573</ele><time>2026-05-28T01:24:34.000Z</time></trkpt>
        <trkpt lat="29.557568" lon="103.343915"><ele>2075.2134</ele><time>2026-05-28T01:24:40.000Z</time></trkpt>
        <trkpt lat="29.557589" lon="103.343962"><ele>2078.0718</ele><time>2026-05-28T01:24:50.000Z</time></trkpt>
        <trkpt lat="29.557625" lon="103.344003"><ele>2082.8647</ele><time>2026-05-28T01:25:00.000Z</time></trkpt>
        <trkpt lat="29.557639" lon="103.34406"><ele>2083.0728</ele><time>2026-05-28T01:25:08.000Z</time></trkpt>
        <trkpt lat="29.557689" lon="103.344052"><ele>2082.4888</ele><time>2026-05-28T01:25:57.000Z</time></trkpt>
        <trkpt lat="29.557732" lon="103.34403"><ele>2079.13</ele><time>2026-05-28T01:26:07.000Z</time></trkpt>
        <trkpt lat="29.557767" lon="103.344065"><ele>2076.3157</ele><time>2026-05-28T01:26:14.000Z</time></trkpt>
        <trkpt lat="29.557744" lon="103.343993"><ele>2072.5076</ele><time>2026-05-28T01:26:21.000Z</time></trkpt>
        <trkpt lat="29.557643" lon="103.343967"><ele>2069.8547</ele><time>2026-05-28T01:26:30.000Z</time></trkpt>
        <trkpt lat="29.557737" lon="103.344"><ele>2066.6309</ele><time>2026-05-28T01:26:53.000Z</time></trkpt>
        <trkpt lat="29.557793" lon="103.343988"><ele>2065.4023</ele><time>2026-05-28T01:26:58.000Z</time></trkpt>
        <trkpt lat="29.557832" lon="103.344031"><ele>2065.7957</ele><time>2026-05-28T01:27:03.000Z</time></trkpt>
        <trkpt lat="29.557864" lon="103.344077"><ele>2065.6719</ele><time>2026-05-28T01:27:06.000Z</time></trkpt>
        <trkpt lat="29.557908" lon="103.344094"><ele>2065.3755</ele><time>2026-05-28T01:27:11.000Z</time></trkpt>
        <trkpt lat="29.558035" lon="103.344009"><ele>2067.9</ele><time>2026-05-28T01:27:24.000Z</time></trkpt>
        <trkpt lat="29.558116" lon="103.344042"><ele>2067.9158</ele><time>2026-05-28T01:27:30.000Z</time></trkpt>
        <trkpt lat="29.55821" lon="103.344068"><ele>2068.0225</ele><time>2026-05-28T01:27:36.000Z</time></trkpt>
        <trkpt lat="29.558209" lon="103.344086"><ele>2074.0818</ele><time>2026-05-28T01:27:56.000Z</time></trkpt>
        <trkpt lat="29.558157" lon="103.344039"><ele>2070.8545</ele><time>2026-05-28T01:28:00.000Z</time></trkpt>
        <trkpt lat="29.558174" lon="103.343981"><ele>2065.5955</ele><time>2026-05-28T01:28:25.000Z</time></trkpt>
        <trkpt lat="29.558223" lon="103.344015"><ele>2066.1501</ele><time>2026-05-28T01:28:28.000Z</time></trkpt>
        <trkpt lat="29.558276" lon="103.344052"><ele>2067.263</ele><time>2026-05-28T01:28:31.000Z</time></trkpt>
        <trkpt lat="29.558335" lon="103.344102"><ele>2066.9697</ele><time>2026-05-28T01:28:50.000Z</time></trkpt>
        <trkpt lat="29.558463" lon="103.344112"><ele>2066.8179</ele><time>2026-05-28T01:28:58.000Z</time></trkpt>
        <trkpt lat="29.558412" lon="103.344094"><ele>2061.7563</ele><time>2026-05-28T01:29:46.000Z</time></trkpt>
        <trkpt lat="29.558378" lon="103.344057"><ele>2062.9214</ele><time>2026-05-28T01:29:49.000Z</time></trkpt>
        <trkpt lat="29.558287" lon="103.344031"><ele>2064.0544</ele><time>2026-05-28T01:29:54.000Z</time></trkpt>
        <trkpt lat="29.55808" lon="103.344041"><ele>2065.7153</ele><time>2026-05-28T01:30:32.000Z</time></trkpt>
        <trkpt lat="29.558037" lon="103.344025"><ele>2065.9216</ele><time>2026-05-28T01:30:33.000Z</time></trkpt>
        <trkpt lat="29.557991" lon="103.344029"><ele>2065.6045</ele><time>2026-05-28T01:30:38.000Z</time></trkpt>
        <trkpt lat="29.55792" lon="103.344049"><ele>2065.1953</ele><time>2026-05-28T01:30:42.000Z</time></trkpt>
        <trkpt lat="29.557865" lon="103.344066"><ele>2064.6003</ele><time>2026-05-28T01:30:45.000Z</time></trkpt>
        <trkpt lat="29.557797" lon="103.344037"><ele>2068.4807</ele><time>2026-05-28T01:31:03.000Z</time></trkpt>
        <trkpt lat="29.557639" lon="103.343909"><ele>2069.0334</ele><time>2026-05-28T01:31:27.000Z</time></trkpt>
        <trkpt lat="29.557729" lon="103.34393"><ele>2063.9453</ele><time>2026-05-28T01:31:36.000Z</time></trkpt>
        <trkpt lat="29.55775" lon="103.343871"><ele>2064.6091</ele><time>2026-05-28T01:31:39.000Z</time></trkpt>
        <trkpt lat="29.557746" lon="103.343817"><ele>2064.6611</ele><time>2026-05-28T01:31:42.000Z</time></trkpt>
        <trkpt lat="29.557798" lon="103.343805"><ele>2064.4297</ele><time>2026-05-28T01:31:43.000Z</time></trkpt>
        <trkpt lat="29.557849" lon="103.343801"><ele>2068.708</ele><time>2026-05-28T01:31:47.000Z</time></trkpt>
        <trkpt lat="29.557886" lon="103.343833"><ele>2070.1262</ele><time>2026-05-28T01:31:57.000Z</time></trkpt>
        <trkpt lat="29.557973" lon="103.343823"><ele>2064.8208</ele><time>2026-05-28T01:32:18.000Z</time></trkpt>
        <trkpt lat="29.557699" lon="103.343895"><ele>2069.4817</ele><time>2026-05-28T01:33:10.000Z</time></trkpt>
        <trkpt lat="29.557742" lon="103.343954"><ele>2068.6187</ele><time>2026-05-28T01:37:22.000Z</time></trkpt>
        <trkpt lat="29.557698" lon="103.343894"><ele>2070.2722</ele><time>2026-05-28T01:37:46.000Z</time></trkpt>
        <trkpt lat="29.557653" lon="103.343842"><ele>2071.5786</ele><time>2026-05-28T01:37:52.000Z</time></trkpt>
        <trkpt lat="29.557697" lon="103.343893"><ele>2069.9263</ele><time>2026-05-28T01:37:58.000Z</time></trkpt>
        <trkpt lat="29.557633" lon="103.34384"><ele>2070.6453</ele><time>2026-05-28T01:38:21.000Z</time></trkpt>
        <trkpt lat="29.557698" lon="103.343894"><ele>2069.7722</ele><time>2026-05-28T01:38:33.000Z</time></trkpt>
        <trkpt lat="29.557682" lon="103.343901"><ele>2069.3333</ele><time>2026-05-28T01:38:39.000Z</time></trkpt>
        <trkpt lat="29.557628" lon="103.34388"><ele>2070.5479</ele><time>2026-05-28T01:38:45.000Z</time></trkpt>
        <trkpt lat="29.557876" lon="103.34393"><ele>2065.6123</ele><time>2026-05-28T01:39:03.000Z</time></trkpt>
        <trkpt lat="29.557851" lon="103.343878"><ele>2063.956</ele><time>2026-05-28T01:39:15.000Z</time></trkpt>
        <trkpt lat="29.557859" lon="103.343936"><ele>2064.894</ele><time>2026-05-28T01:39:20.000Z</time></trkpt>
        <trkpt lat="29.557869" lon="103.344002"><ele>2062.807</ele><time>2026-05-28T01:39:22.000Z</time></trkpt>
        <trkpt lat="29.557888" lon="103.344062"><ele>2064.954</ele><time>2026-05-28T01:39:26.000Z</time></trkpt>
        <trkpt lat="29.557929" lon="103.344101"><ele>2067.9028</ele><time>2026-05-28T01:39:35.000Z</time></trkpt>
        <trkpt lat="29.558" lon="103.344038"><ele>2067.839</ele><time>2026-05-28T01:39:43.000Z</time></trkpt>
        <trkpt lat="29.558185" lon="103.344063"><ele>2068.0208</ele><time>2026-05-28T01:39:55.000Z</time></trkpt>
        <trkpt lat="29.558262" lon="103.34406"><ele>2068.0208</ele><time>2026-05-28T01:40:00.000Z</time></trkpt>
        <trkpt lat="29.558271" lon="103.344079"><ele>2069.1052</ele><time>2026-05-28T01:42:38.000Z</time></trkpt>
        <trkpt lat="29.558347" lon="103.344098"><ele>2068.9934</ele><time>2026-05-28T01:43:08.000Z</time></trkpt>
        <trkpt lat="29.558145" lon="103.344051"><ele>2068.0305</ele><time>2026-05-28T01:43:50.000Z</time></trkpt>
        <trkpt lat="29.558211" lon="103.343981"><ele>2068.743</ele><time>2026-05-28T01:44:03.000Z</time></trkpt>
        <trkpt lat="29.558135" lon="103.343966"><ele>2067.594</ele><time>2026-05-28T01:44:08.000Z</time></trkpt>
        <trkpt lat="29.558046" lon="103.343961"><ele>2068.21</ele><time>2026-05-28T01:44:14.000Z</time></trkpt>
        <trkpt lat="29.557942" lon="103.343972"><ele>2067.8606</ele><time>2026-05-28T01:44:20.000Z</time></trkpt>
        <trkpt lat="29.558005" lon="103.343986"><ele>2065.7024</ele><time>2026-05-28T01:44:28.000Z</time></trkpt>
        <trkpt lat="29.557789" lon="103.344109"><ele>2058.2727</ele><time>2026-05-28T01:44:34.000Z</time></trkpt>
        <trkpt lat="29.557756" lon="103.344213"><ele>2057.2615</ele><time>2026-05-28T01:44:36.000Z</time></trkpt>
        <trkpt lat="29.557708" lon="103.344346"><ele>2054.4216</ele><time>2026-05-28T01:44:37.000Z</time></trkpt>
        <trkpt lat="29.557665" lon="103.344383"><ele>2054.66</ele><time>2026-05-28T01:44:38.000Z</time></trkpt>
        <trkpt lat="29.557972" lon="103.344086"><ele>2053.3787</ele><time>2026-05-28T01:44:45.000Z</time></trkpt>
        <trkpt lat="29.557749" lon="103.344297"><ele>2053.1736</ele><time>2026-05-28T01:44:46.000Z</time></trkpt>
        <trkpt lat="29.557854" lon="103.343958"><ele>2068.4124</ele><time>2026-05-28T01:45:14.000Z</time></trkpt>
        <trkpt lat="29.557798" lon="103.343939"><ele>2068.5703</ele><time>2026-05-28T01:45:20.000Z</time></trkpt>
        <trkpt lat="29.557795" lon="103.343941"><ele>2068.5674</ele><time>2026-05-28T01:45:32.000Z</time></trkpt>
        <trkpt lat="29.557841" lon="103.343953"><ele>2068.5352</ele><time>2026-05-28T01:45:38.000Z</time></trkpt>
        <trkpt lat="29.557753" lon="103.343933"><ele>2068.5505</ele><time>2026-05-28T01:46:02.000Z</time></trkpt>
        <trkpt lat="29.557829" lon="103.343947"><ele>2068.5588</ele><time>2026-05-28T01:46:14.000Z</time></trkpt>
        <trkpt lat="29.557752" lon="103.343929"><ele>2068.5325</ele><time>2026-05-28T01:46:44.000Z</time></trkpt>
        <trkpt lat="29.557811" lon="103.34394"><ele>2068.56</ele><time>2026-05-28T01:46:56.000Z</time></trkpt>
        <trkpt lat="29.557938" lon="103.343998"><ele>2068.6433</ele><time>2026-05-28T01:47:08.000Z</time></trkpt>
        <trkpt lat="29.55782" lon="103.343942"><ele>2068.6033</ele><time>2026-05-28T01:47:26.000Z</time></trkpt>
        <trkpt lat="29.55787" lon="103.343962"><ele>2068.5403</ele><time>2026-05-28T01:47:32.000Z</time></trkpt>
        <trkpt lat="29.5578" lon="103.343945"><ele>2068.5315</ele><time>2026-05-28T01:47:44.000Z</time></trkpt>
        <trkpt lat="29.557809" lon="103.343947"><ele>2068.5596</ele><time>2026-05-28T01:47:50.000Z</time></trkpt>
        <trkpt lat="29.557985" lon="103.343995"><ele>2068.41</ele><time>2026-05-28T01:48:14.000Z</time></trkpt>
        <trkpt lat="29.55791" lon="103.343972"><ele>2068.1416</ele><time>2026-05-28T01:48:20.000Z</time></trkpt>
        <trkpt lat="29.558056" lon="103.344037"><ele>2067.98</ele><time>2026-05-28T01:48:32.000Z</time></trkpt>
        <trkpt lat="29.558175" lon="103.344059"><ele>2068.4246</ele><time>2026-05-28T01:48:44.000Z</time></trkpt>
        <trkpt lat="29.558186" lon="103.344051"><ele>2081.0166</ele><time>2026-05-28T01:48:57.000Z</time></trkpt>
        <trkpt lat="29.558144" lon="103.344053"><ele>2080.884</ele><time>2026-05-28T01:48:59.000Z</time></trkpt>
        <trkpt lat="29.558189" lon="103.344099"><ele>2078.4792</ele><time>2026-05-28T01:49:04.000Z</time></trkpt>
        <trkpt lat="29.558237" lon="103.344112"><ele>2074.4294</ele><time>2026-05-28T01:49:09.000Z</time></trkpt>
        <trkpt lat="29.55825" lon="103.344062"><ele>2070.0557</ele><time>2026-05-28T01:49:13.000Z</time></trkpt>
        <trkpt lat="29.558317" lon="103.344041"><ele>2068.2947</ele><time>2026-05-28T01:49:18.000Z</time></trkpt>
        <trkpt lat="29.558363" lon="103.344039"><ele>2067.3496</ele><time>2026-05-28T01:49:27.000Z</time></trkpt>
        <trkpt lat="29.558377" lon="103.343989"><ele>2066.6387</ele><time>2026-05-28T01:49:33.000Z</time></trkpt>
        <trkpt lat="29.558312" lon="103.343936"><ele>2065.4287</ele><time>2026-05-28T01:49:41.000Z</time></trkpt>
        <trkpt lat="29.558349" lon="103.343982"><ele>2065.7761</ele><time>2026-05-28T01:49:48.000Z</time></trkpt>
        <trkpt lat="29.558303" lon="103.343995"><ele>2066.5593</ele><time>2026-05-28T01:50:04.000Z</time></trkpt>
        <trkpt lat="29.558256" lon="103.34401"><ele>2067.1006</ele><time>2026-05-28T01:50:10.000Z</time></trkpt>
        <trkpt lat="29.558199" lon="103.344062"><ele>2066.7207</ele><time>2026-05-28T01:50:12.000Z</time></trkpt>
        <trkpt lat="29.558275" lon="103.34404"><ele>2066.4438</ele><time>2026-05-28T01:50:15.000Z</time></trkpt>
        <trkpt lat="29.558234" lon="103.344016"><ele>2066.2092</ele><time>2026-05-28T01:50:19.000Z</time></trkpt>
        <trkpt lat="29.558321" lon="103.344137"><ele>2066.985</ele><time>2026-05-28T01:50:26.000Z</time></trkpt>
        <trkpt lat="29.558128" lon="103.344142"><ele>2065.0684</ele><time>2026-05-28T01:50:48.000Z</time></trkpt>
        <trkpt lat="29.558018" lon="103.344131"><ele>2064.2742</ele><time>2026-05-28T01:50:49.000Z</time></trkpt>
        <trkpt lat="29.557971" lon="103.344218"><ele>2062.8682</ele><time>2026-05-28T01:50:51.000Z</time></trkpt>
        <trkpt lat="29.557834" lon="103.343941"><ele>2068.6287</ele><time>2026-05-28T01:51:46.000Z</time></trkpt>
        <trkpt lat="29.557886" lon="103.343965"><ele>2068.5337</ele><time>2026-05-28T01:51:52.000Z</time></trkpt>
        <trkpt lat="29.557755" lon="103.343923"><ele>2068.5205</ele><time>2026-05-28T01:52:04.000Z</time></trkpt>
        <trkpt lat="29.557802" lon="103.34393"><ele>2068.51</ele><time>2026-05-28T01:52:10.000Z</time></trkpt>
        <trkpt lat="29.557861" lon="103.343957"><ele>2068.5627</ele><time>2026-05-28T01:52:22.000Z</time></trkpt>
        <trkpt lat="29.557805" lon="103.343938"><ele>2068.607</ele><time>2026-05-28T01:52:34.000Z</time></trkpt>
        <trkpt lat="29.557859" lon="103.343953"><ele>2068.6492</ele><time>2026-05-28T01:52:40.000Z</time></trkpt>
        <trkpt lat="29.557982" lon="103.344008"><ele>2068.4475</ele><time>2026-05-28T01:53:28.000Z</time></trkpt>
        <trkpt lat="29.557924" lon="103.343999"><ele>2068.545</ele><time>2026-05-28T01:53:40.000Z</time></trkpt>
        <trkpt lat="29.55785" lon="103.343983"><ele>2068.521</ele><time>2026-05-28T01:53:52.000Z</time></trkpt>
        <trkpt lat="29.557986" lon="103.344009"><ele>2068.5535</ele><time>2026-05-28T01:54:04.000Z</time></trkpt>
        <trkpt lat="29.55786" lon="103.343986"><ele>2068.4954</ele><time>2026-05-28T01:54:16.000Z</time></trkpt>
        <trkpt lat="29.557794" lon="103.343965"><ele>2068.5247</ele><time>2026-05-28T01:54:22.000Z</time></trkpt>
        <trkpt lat="29.557876" lon="103.343982"><ele>2068.5195</ele><time>2026-05-28T01:54:28.000Z</time></trkpt>
        <trkpt lat="29.557929" lon="103.343995"><ele>2068.5513</ele><time>2026-05-28T01:54:34.000Z</time></trkpt>
        <trkpt lat="29.557987" lon="103.344009"><ele>2068.4553</ele><time>2026-05-28T01:54:46.000Z</time></trkpt>
        <trkpt lat="29.557958" lon="103.344001"><ele>2068.411</ele><time>2026-05-28T01:55:04.000Z</time></trkpt>
        <trkpt lat="29.557879" lon="103.343982"><ele>2068.5044</ele><time>2026-05-28T01:55:16.000Z</time></trkpt>
        <trkpt lat="29.558058" lon="103.344028"><ele>2068.5557</ele><time>2026-05-28T01:55:28.000Z</time></trkpt>
        <trkpt lat="29.558006" lon="103.344014"><ele>2068.4421</ele><time>2026-05-28T01:55:40.000Z</time></trkpt>
        <trkpt lat="29.55794" lon="103.343998"><ele>2068.5242</ele><time>2026-05-28T01:55:52.000Z</time></trkpt>
        <trkpt lat="29.557794" lon="103.343965"><ele>2068.5166</ele><time>2026-05-28T01:56:10.000Z</time></trkpt>
        <trkpt lat="29.557849" lon="103.343982"><ele>2068.48</ele><time>2026-05-28T01:56:16.000Z</time></trkpt>
        <trkpt lat="29.557913" lon="103.343992"><ele>2068.5127</ele><time>2026-05-28T01:56:46.000Z</time></trkpt>
        <trkpt lat="29.557842" lon="103.343981"><ele>2068.5205</ele><time>2026-05-28T01:56:58.000Z</time></trkpt>
        <trkpt lat="29.558001" lon="103.344013"><ele>2068.5059</ele><time>2026-05-28T01:57:10.000Z</time></trkpt>
        <trkpt lat="29.557856" lon="103.343985"><ele>2068.5427</ele><time>2026-05-28T01:57:22.000Z</time></trkpt>
        <trkpt lat="29.557891" lon="103.343985"><ele>2068.4277</ele><time>2026-05-28T01:57:58.000Z</time></trkpt>
        <trkpt lat="29.557941" lon="103.343997"><ele>2068.464</ele><time>2026-05-28T01:58:09.000Z</time></trkpt>
        <trkpt lat="29.557914" lon="103.343991"><ele>2068.4563</ele><time>2026-05-28T01:58:15.000Z</time></trkpt>
        <trkpt lat="29.557963" lon="103.344002"><ele>2068.479</ele><time>2026-05-28T01:59:20.000Z</time></trkpt>
        <trkpt lat="29.557792" lon="103.343959"><ele>2068.525</ele><time>2026-05-28T01:59:42.000Z</time></trkpt>
        <trkpt lat="29.557955" lon="103.344001"><ele>2068.5928</ele><time>2026-05-28T01:59:55.000Z</time></trkpt>
        <trkpt lat="29.557903" lon="103.343987"><ele>2068.4736</ele><time>2026-05-28T02:00:07.000Z</time></trkpt>
        <trkpt lat="29.557829" lon="103.343969"><ele>2068.5083</ele><time>2026-05-28T02:00:13.000Z</time></trkpt>
        <trkpt lat="29.55801" lon="103.344015"><ele>2068.479</ele><time>2026-05-28T02:01:18.000Z</time></trkpt>
        <trkpt lat="29.557979" lon="103.344008"><ele>2068.4475</ele><time>2026-05-28T02:01:36.000Z</time></trkpt>
        <trkpt lat="29.557986" lon="103.344009"><ele>2068.4534</ele><time>2026-05-28T02:01:42.000Z</time></trkpt>
        <trkpt lat="29.557884" lon="103.343984"><ele>2068.48</ele><time>2026-05-28T02:02:12.000Z</time></trkpt>
        <trkpt lat="29.55794" lon="103.344003"><ele>2068.4739</ele><time>2026-05-28T02:02:24.000Z</time></trkpt>
        <trkpt lat="29.557955" lon="103.344006"><ele>2068.4814</ele><time>2026-05-28T02:02:37.000Z</time></trkpt>
        <trkpt lat="29.557902" lon="103.343992"><ele>2068.4907</ele><time>2026-05-28T02:02:49.000Z</time></trkpt>
        <trkpt lat="29.557971" lon="103.344008"><ele>2068.4639</ele><time>2026-05-28T02:03:01.000Z</time></trkpt>
        <trkpt lat="29.55803" lon="103.344021"><ele>2068.444</ele><time>2026-05-28T02:03:19.000Z</time></trkpt>
        <trkpt lat="29.557992" lon="103.344011"><ele>2068.4587</ele><time>2026-05-28T02:03:37.000Z</time></trkpt>
        <trkpt lat="29.55788" lon="103.343982"><ele>2068.5012</ele><time>2026-05-28T02:04:13.000Z</time></trkpt>
        <trkpt lat="29.55794" lon="103.343997"><ele>2068.5198</ele><time>2026-05-28T02:04:19.000Z</time></trkpt>
        <trkpt lat="29.55786" lon="103.343981"><ele>2068.5105</ele><time>2026-05-28T02:04:31.000Z</time></trkpt>
        <trkpt lat="29.557878" lon="103.343981"><ele>2068.514</ele><time>2026-05-28T02:05:07.000Z</time></trkpt>
        <trkpt lat="29.557839" lon="103.343971"><ele>2068.5007</ele><time>2026-05-28T02:05:25.000Z</time></trkpt>
        <trkpt lat="29.557917" lon="103.343996"><ele>2068.5154</ele><time>2026-05-28T02:05:56.000Z</time></trkpt>
        <trkpt lat="29.557873" lon="103.343981"><ele>2068.5222</ele><time>2026-05-28T02:06:20.000Z</time></trkpt>
        <trkpt lat="29.557872" lon="103.343981"><ele>2068.479</ele><time>2026-05-28T02:06:50.000Z</time></trkpt>
        <trkpt lat="29.557947" lon="103.344001"><ele>2068.517</ele><time>2026-05-28T02:07:02.000Z</time></trkpt>
        <trkpt lat="29.557856" lon="103.343976"><ele>2068.5125</ele><time>2026-05-28T02:07:14.000Z</time></trkpt>
        <trkpt lat="29.557882" lon="103.343977"><ele>2068.5112</ele><time>2026-05-28T02:08:12.000Z</time></trkpt>
        <trkpt lat="29.557837" lon="103.343971"><ele>2068.5186</ele><time>2026-05-28T02:12:29.000Z</time></trkpt>
        <trkpt lat="29.557892" lon="103.343988"><ele>2068.5146</ele><time>2026-05-28T02:13:40.000Z</time></trkpt>
      </trkseg>
      <trkseg>
        <trkpt lat="29.558479" lon="103.343944"><ele>2071.7249</ele><time>2026-05-28T15:38:54.000Z</time></trkpt>
        <trkpt lat="29.55852" lon="103.343914"><ele>2069.972</ele><time>2026-05-28T15:39:08.000Z</time></trkpt>
        <trkpt lat="29.558503" lon="103.34386"><ele>2070.9937</ele><time>2026-05-28T15:39:39.000Z</time></trkpt>
        <trkpt lat="29.558474" lon="103.343816"><ele>2068.9426</ele><time>2026-05-28T15:39:51.000Z</time></trkpt>
        <trkpt lat="29.558444" lon="103.343771"><ele>2069.4521</ele><time>2026-05-28T15:39:57.000Z</time></trkpt>
        <trkpt lat="29.558405" lon="103.343736"><ele>2069.3403</ele><time>2026-05-28T15:40:03.000Z</time></trkpt>
        <trkpt lat="29.558357" lon="103.343731"><ele>2066.1155</ele><time>2026-05-28T15:40:37.000Z</time></trkpt>
        <trkpt lat="29.558317" lon="103.343701"><ele>2066.9668</ele><time>2026-05-28T15:41:13.000Z</time></trkpt>
        <trkpt lat="29.558357" lon="103.343729"><ele>2068.0454</ele><time>2026-05-28T15:41:35.000Z</time></trkpt>
        <trkpt lat="29.55839" lon="103.343769"><ele>2069.5095</ele><time>2026-05-28T15:41:41.000Z</time></trkpt>
        <trkpt lat="29.558425" lon="103.343819"><ele>2066.9246</ele><time>2026-05-28T15:42:05.000Z</time></trkpt>
        <trkpt lat="29.558448" lon="103.343867"><ele>2067.2847</ele><time>2026-05-28T15:42:11.000Z</time></trkpt>
        <trkpt lat="29.558485" lon="103.343899"><ele>2069.85</ele><time>2026-05-28T15:42:17.000Z</time></trkpt>
        <trkpt lat="29.558509" lon="103.343952"><ele>2071.4465</ele><time>2026-05-28T15:42:22.000Z</time></trkpt>
        <trkpt lat="29.558536" lon="103.343996"><ele>2071.8833</ele><time>2026-05-28T15:42:27.000Z</time></trkpt>
        <trkpt lat="29.558491" lon="103.343979"><ele>2070.826</ele><time>2026-05-28T15:43:04.000Z</time></trkpt>
        <trkpt lat="29.558471" lon="103.344031"><ele>2069.7583</ele><time>2026-05-28T15:43:19.000Z</time></trkpt>
        <trkpt lat="29.558458" lon="103.344091"><ele>2070.299</ele><time>2026-05-28T15:43:24.000Z</time></trkpt>
        <trkpt lat="29.55843" lon="103.344138"><ele>2070.9658</ele><time>2026-05-28T15:43:49.000Z</time></trkpt>
        <trkpt lat="29.558476" lon="103.344156"><ele>2069.9038</ele><time>2026-05-28T15:44:01.000Z</time></trkpt>
        <trkpt lat="29.558521" lon="103.344168"><ele>2067.2554</ele><time>2026-05-28T15:45:27.000Z</time></trkpt>
        <trkpt lat="29.558565" lon="103.344177"><ele>2066.5662</ele><time>2026-05-28T15:45:38.000Z</time></trkpt>
        <trkpt lat="29.558608" lon="103.344203"><ele>2065.4075</ele><time>2026-05-28T15:45:46.000Z</time></trkpt>
        <trkpt lat="29.558633" lon="103.34426"><ele>2063.0005</ele><time>2026-05-28T15:45:54.000Z</time></trkpt>
        <trkpt lat="29.558682" lon="103.344263"><ele>2060.382</ele><time>2026-05-28T15:45:58.000Z</time></trkpt>
        <trkpt lat="29.558729" lon="103.344248"><ele>2064.0334</ele><time>2026-05-28T15:46:03.000Z</time></trkpt>
        <trkpt lat="29.558775" lon="103.344239"><ele>2059.173</ele><time>2026-05-28T15:46:53.000Z</time></trkpt>
        <trkpt lat="29.558762" lon="103.344301"><ele>2059.7207</ele><time>2026-05-28T15:46:59.000Z</time></trkpt>
        <trkpt lat="29.558801" lon="103.344269"><ele>2059.7002</ele><time>2026-05-28T15:47:56.000Z</time></trkpt>
        <trkpt lat="29.558825" lon="103.344313"><ele>2062.4485</ele><time>2026-05-28T15:48:16.000Z</time></trkpt>
        <trkpt lat="29.558823" lon="103.34426"><ele>2059.2869</ele><time>2026-05-28T15:50:25.000Z</time></trkpt>
        <trkpt lat="29.55881" lon="103.344312"><ele>2060.2012</ele><time>2026-05-28T15:52:26.000Z</time></trkpt>
        <trkpt lat="29.558779" lon="103.344363"><ele>2060.8044</ele><time>2026-05-28T15:54:38.000Z</time></trkpt>
        <trkpt lat="29.558822" lon="103.344339"><ele>2059.873</ele><time>2026-05-28T15:57:29.000Z</time></trkpt>
        <trkpt lat="29.558867" lon="103.344343"><ele>2060.7397</ele><time>2026-05-28T15:57:45.000Z</time></trkpt>
        <trkpt lat="29.55887" lon="103.34429"><ele>2055.572</ele><time>2026-05-28T15:59:57.000Z</time></trkpt>
        <trkpt lat="29.558887" lon="103.344242"><ele>2054.0278</ele><time>2026-05-28T16:00:09.000Z</time></trkpt>
        <trkpt lat="29.558883" lon="103.344189"><ele>2051.6755</ele><time>2026-05-28T16:00:18.000Z</time></trkpt>
        <trkpt lat="29.558873" lon="103.344135"><ele>2049.3408</ele><time>2026-05-28T16:00:25.000Z</time></trkpt>
        <trkpt lat="29.558868" lon="103.344078"><ele>2047.6052</ele><time>2026-05-28T16:00:37.000Z</time></trkpt>
        <trkpt lat="29.558895" lon="103.344127"><ele>2046.5134</ele><time>2026-05-28T16:00:54.000Z</time></trkpt>
        <trkpt lat="29.558902" lon="103.344066"><ele>2043.9902</ele><time>2026-05-28T16:01:04.000Z</time></trkpt>
        <trkpt lat="29.558894" lon="103.344006"><ele>2044.6356</ele><time>2026-05-28T16:01:09.000Z</time></trkpt>
        <trkpt lat="29.558906" lon="103.343953"><ele>2047.3812</ele><time>2026-05-28T16:01:13.000Z</time></trkpt>
        <trkpt lat="29.558898" lon="103.343901"><ele>2045.8647</ele><time>2026-05-28T16:01:17.000Z</time></trkpt>
        <trkpt lat="29.558902" lon="103.343835"><ele>2046.9586</ele><time>2026-05-28T16:01:21.000Z</time></trkpt>
        <trkpt lat="29.558911" lon="103.343783"><ele>2047.5997</ele><time>2026-05-28T16:01:26.000Z</time></trkpt>
        <trkpt lat="29.558949" lon="103.343753"><ele>2042.2118</ele><time>2026-05-28T16:02:29.000Z</time></trkpt>
        <trkpt lat="29.558988" lon="103.343717"><ele>2040.9395</ele><time>2026-05-28T16:02:36.000Z</time></trkpt>
        <trkpt lat="29.559001" lon="103.343667"><ele>2039.0248</ele><time>2026-05-28T16:02:47.000Z</time></trkpt>
        <trkpt lat="29.559044" lon="103.343691"><ele>2033.0077</ele><time>2026-05-28T16:03:06.000Z</time></trkpt>
        <trkpt lat="29.559093" lon="103.343706"><ele>2031.3601</ele><time>2026-05-28T16:03:19.000Z</time></trkpt>
        <trkpt lat="29.559132" lon="103.343737"><ele>2028.9272</ele><time>2026-05-28T16:03:32.000Z</time></trkpt>
        <trkpt lat="29.559145" lon="103.343787"><ele>2025.7787</ele><time>2026-05-28T16:03:48.000Z</time></trkpt>
        <trkpt lat="29.559171" lon="103.343833"><ele>2022.586</ele><time>2026-05-28T16:04:02.000Z</time></trkpt>
        <trkpt lat="29.559212" lon="103.34381"><ele>2021.047</ele><time>2026-05-28T16:04:12.000Z</time></trkpt>
        <trkpt lat="29.559237" lon="103.343765"><ele>2019.3126</ele><time>2026-05-28T16:04:19.000Z</time></trkpt>
        <trkpt lat="29.559272" lon="103.343732"><ele>2018.503</ele><time>2026-05-28T16:04:30.000Z</time></trkpt>
        <trkpt lat="29.559262" lon="103.343677"><ele>2016.3297</ele><time>2026-05-28T16:04:39.000Z</time></trkpt>
        <trkpt lat="29.559278" lon="103.343625"><ele>2010.5629</ele><time>2026-05-28T16:04:55.000Z</time></trkpt>
        <trkpt lat="29.559319" lon="103.343597"><ele>2009.6593</ele><time>2026-05-28T16:05:07.000Z</time></trkpt>
        <trkpt lat="29.559361" lon="103.343619"><ele>2005.547</ele><time>2026-05-28T16:05:23.000Z</time></trkpt>
        <trkpt lat="29.559407" lon="103.343622"><ele>2004.2546</ele><time>2026-05-28T16:05:36.000Z</time></trkpt>
        <trkpt lat="29.559444" lon="103.343584"><ele>2002.4381</ele><time>2026-05-28T16:05:47.000Z</time></trkpt>
        <trkpt lat="29.559487" lon="103.343561"><ele>2003.3678</ele><time>2026-05-28T16:06:02.000Z</time></trkpt>
        <trkpt lat="29.55951" lon="103.343513"><ele>2001.2932</ele><time>2026-05-28T16:06:18.000Z</time></trkpt>
        <trkpt lat="29.559539" lon="103.343556"><ele>1995.4131</ele><time>2026-05-28T16:06:36.000Z</time></trkpt>
        <trkpt lat="29.559573" lon="103.343593"><ele>1992.7023</ele><time>2026-05-28T16:06:47.000Z</time></trkpt>
        <trkpt lat="29.559616" lon="103.343618"><ele>1989.8743</ele><time>2026-05-28T16:06:59.000Z</time></trkpt>
        <trkpt lat="29.559649" lon="103.343578"><ele>1987.712</ele><time>2026-05-28T16:07:09.000Z</time></trkpt>
        <trkpt lat="29.559654" lon="103.343526"><ele>1986.3164</ele><time>2026-05-28T16:07:16.000Z</time></trkpt>
        <trkpt lat="29.559702" lon="103.343526"><ele>1978.614</ele><time>2026-05-28T16:07:36.000Z</time></trkpt>
        <trkpt lat="29.559727" lon="103.343571"><ele>1977.1272</ele><time>2026-05-28T16:07:44.000Z</time></trkpt>
        <trkpt lat="29.559752" lon="103.343617"><ele>1976.1498</ele><time>2026-05-28T16:07:55.000Z</time></trkpt>
        <trkpt lat="29.559777" lon="103.343662"><ele>1975.5686</ele><time>2026-05-28T16:08:04.000Z</time></trkpt>
        <trkpt lat="29.559815" lon="103.343702"><ele>1973.0833</ele><time>2026-05-28T16:08:23.000Z</time></trkpt>
        <trkpt lat="29.559851" lon="103.343736"><ele>1973.172</ele><time>2026-05-28T16:08:35.000Z</time></trkpt>
        <trkpt lat="29.559893" lon="103.343757"><ele>1969.004</ele><time>2026-05-28T16:08:49.000Z</time></trkpt>
        <trkpt lat="29.559932" lon="103.343784"><ele>1964.724</ele><time>2026-05-28T16:09:01.000Z</time></trkpt>
        <trkpt lat="29.559973" lon="103.343832"><ele>1962.7073</ele><time>2026-05-28T16:09:12.000Z</time></trkpt>
        <trkpt lat="29.560009" lon="103.343867"><ele>1961.3383</ele><time>2026-05-28T16:09:22.000Z</time></trkpt>
        <trkpt lat="29.560033" lon="103.34382"><ele>1957.6371</ele><time>2026-05-28T16:10:52.000Z</time></trkpt>
        <trkpt lat="29.560011" lon="103.34377"><ele>1954.5302</ele><time>2026-05-28T16:11:53.000Z</time></trkpt>
        <trkpt lat="29.56003" lon="103.343828"><ele>1955.1733</ele><time>2026-05-28T16:12:20.000Z</time></trkpt>
        <trkpt lat="29.560057" lon="103.343871"><ele>1957.548</ele><time>2026-05-28T16:13:27.000Z</time></trkpt>
        <trkpt lat="29.560098" lon="103.343895"><ele>1956.0819</ele><time>2026-05-28T16:13:37.000Z</time></trkpt>
        <trkpt lat="29.560117" lon="103.343944"><ele>1952.752</ele><time>2026-05-28T16:13:50.000Z</time></trkpt>
        <trkpt lat="29.560082" lon="103.343977"><ele>1948.4479</ele><time>2026-05-28T16:14:07.000Z</time></trkpt>
        <trkpt lat="29.560057" lon="103.344039"><ele>1945.7222</ele><time>2026-05-28T16:14:21.000Z</time></trkpt>
        <trkpt lat="29.560088" lon="103.344083"><ele>1947.4202</ele><time>2026-05-28T16:14:30.000Z</time></trkpt>
        <trkpt lat="29.560053" lon="103.344116"><ele>1939.5747</ele><time>2026-05-28T16:15:00.000Z</time></trkpt>
        <trkpt lat="29.560021" lon="103.344167"><ele>1936.813</ele><time>2026-05-28T16:15:12.000Z</time></trkpt>
        <trkpt lat="29.560058" lon="103.3442"><ele>1935.7528</ele><time>2026-05-28T16:15:20.000Z</time></trkpt>
        <trkpt lat="29.560091" lon="103.34424"><ele>1936.4761</ele><time>2026-05-28T16:15:25.000Z</time></trkpt>
        <trkpt lat="29.560134" lon="103.344262"><ele>1933.4646</ele><time>2026-05-28T16:15:35.000Z</time></trkpt>
        <trkpt lat="29.56018" lon="103.344258"><ele>1929.2388</ele><time>2026-05-28T16:15:48.000Z</time></trkpt>
        <trkpt lat="29.560151" lon="103.344301"><ele>1922.8827</ele><time>2026-05-28T16:16:07.000Z</time></trkpt>
        <trkpt lat="29.560145" lon="103.344354"><ele>1921.7439</ele><time>2026-05-28T16:16:19.000Z</time></trkpt>
        <trkpt lat="29.56018" lon="103.344388"><ele>1918.7511</ele><time>2026-05-28T16:16:31.000Z</time></trkpt>
        <trkpt lat="29.5602" lon="103.344441"><ele>1917.3381</ele><time>2026-05-28T16:16:45.000Z</time></trkpt>
        <trkpt lat="29.56023" lon="103.34448"><ele>1916.1805</ele><time>2026-05-28T16:16:55.000Z</time></trkpt>
        <trkpt lat="29.560274" lon="103.3445"><ele>1916.1138</ele><time>2026-05-28T16:17:05.000Z</time></trkpt>
        <trkpt lat="29.560314" lon="103.34453"><ele>1908.6954</ele><time>2026-05-28T16:17:23.000Z</time></trkpt>
        <trkpt lat="29.560359" lon="103.344551"><ele>1907.5742</ele><time>2026-05-28T16:17:32.000Z</time></trkpt>
        <trkpt lat="29.560394" lon="103.344586"><ele>1905.8444</ele><time>2026-05-28T16:17:42.000Z</time></trkpt>
        <trkpt lat="29.560427" lon="103.344624"><ele>1903.5919</ele><time>2026-05-28T16:17:54.000Z</time></trkpt>
        <trkpt lat="29.560469" lon="103.344646"><ele>1899.8949</ele><time>2026-05-28T16:18:08.000Z</time></trkpt>
        <trkpt lat="29.560515" lon="103.34465"><ele>1895.5712</ele><time>2026-05-28T16:18:21.000Z</time></trkpt>
        <trkpt lat="29.560558" lon="103.344678"><ele>1894.2037</ele><time>2026-05-28T16:18:32.000Z</time></trkpt>
        <trkpt lat="29.560605" lon="103.344676"><ele>1888.1799</ele><time>2026-05-28T16:18:48.000Z</time></trkpt>
        <trkpt lat="29.560643" lon="103.344709"><ele>1886.6335</ele><time>2026-05-28T16:19:00.000Z</time></trkpt>
        <trkpt lat="29.560677" lon="103.344746"><ele>1886.4604</ele><time>2026-05-28T16:23:58.000Z</time></trkpt>
        <trkpt lat="29.560716" lon="103.344777"><ele>1882.6038</ele><time>2026-05-28T16:24:18.000Z</time></trkpt>
        <trkpt lat="29.560706" lon="103.344829"><ele>1881.4705</ele><time>2026-05-28T16:25:04.000Z</time></trkpt>
        <trkpt lat="29.560712" lon="103.344881"><ele>1876.4346</ele><time>2026-05-28T16:25:15.000Z</time></trkpt>
        <trkpt lat="29.560751" lon="103.344915"><ele>1874.7272</ele><time>2026-05-28T16:25:27.000Z</time></trkpt>
        <trkpt lat="29.560789" lon="103.344948"><ele>1873.2587</ele><time>2026-05-28T16:25:40.000Z</time></trkpt>
        <trkpt lat="29.560807" lon="103.344899"><ele>1869.8876</ele><time>2026-05-28T16:25:48.000Z</time></trkpt>
        <trkpt lat="29.560828" lon="103.344947"><ele>1867.2234</ele><time>2026-05-28T16:26:08.000Z</time></trkpt>
        <trkpt lat="29.560835" lon="103.345"><ele>1864.1672</ele><time>2026-05-28T16:26:22.000Z</time></trkpt>
        <trkpt lat="29.560858" lon="103.345046"><ele>1861.0544</ele><time>2026-05-28T16:26:38.000Z</time></trkpt>
        <trkpt lat="29.560897" lon="103.345075"><ele>1857.2124</ele><time>2026-05-28T16:27:07.000Z</time></trkpt>
        <trkpt lat="29.560943" lon="103.345077"><ele>1857.0591</ele><time>2026-05-28T16:27:25.000Z</time></trkpt>
        <trkpt lat="29.56098" lon="103.345048"><ele>1854.4302</ele><time>2026-05-28T16:27:53.000Z</time></trkpt>
        <trkpt lat="29.561009" lon="103.345008"><ele>1851.5125</ele><time>2026-05-28T16:28:32.000Z</time></trkpt>
        <trkpt lat="29.561051" lon="103.344984"><ele>1847.2402</ele><time>2026-05-28T16:28:59.000Z</time></trkpt>
        <trkpt lat="29.561068" lon="103.345035"><ele>1843.5171</ele><time>2026-05-28T16:29:29.000Z</time></trkpt>
        <trkpt lat="29.561115" lon="103.345044"><ele>1841.346</ele><time>2026-05-28T16:29:48.000Z</time></trkpt>
        <trkpt lat="29.561158" lon="103.345066"><ele>1837.1895</ele><time>2026-05-28T16:30:09.000Z</time></trkpt>
        <trkpt lat="29.561205" lon="103.345077"><ele>1833.3171</ele><time>2026-05-28T16:30:32.000Z</time></trkpt>
        <trkpt lat="29.561206" lon="103.345131"><ele>1831.8834</ele><time>2026-05-28T16:31:03.000Z</time></trkpt>
        <trkpt lat="29.561234" lon="103.345174"><ele>1827.6819</ele><time>2026-05-28T16:31:36.000Z</time></trkpt>
        <trkpt lat="29.561274" lon="103.345207"><ele>1825.386</ele><time>2026-05-28T16:31:57.000Z</time></trkpt>
        <trkpt lat="29.561317" lon="103.345225"><ele>1822.1089</ele><time>2026-05-28T16:32:20.000Z</time></trkpt>
        <trkpt lat="29.561343" lon="103.345271"><ele>1818.8047</ele><time>2026-05-28T16:32:36.000Z</time></trkpt>
        <trkpt lat="29.561376" lon="103.345319"><ele>1814.9962</ele><time>2026-05-28T16:33:02.000Z</time></trkpt>
        <trkpt lat="29.561403" lon="103.345363"><ele>1815.2434</ele><time>2026-05-28T16:33:09.000Z</time></trkpt>
        <trkpt lat="29.561439" lon="103.345404"><ele>1814.9229</ele><time>2026-05-28T16:33:15.000Z</time></trkpt>
        <trkpt lat="29.561464" lon="103.345451"><ele>1815.4658</ele><time>2026-05-28T16:33:23.000Z</time></trkpt>
        <trkpt lat="29.561489" lon="103.345495"><ele>1816.6302</ele><time>2026-05-28T16:33:31.000Z</time></trkpt>
        <trkpt lat="29.561525" lon="103.345532"><ele>1817.7728</ele><time>2026-05-28T16:33:39.000Z</time></trkpt>
        <trkpt lat="29.561567" lon="103.345562"><ele>1817.6143</ele><time>2026-05-28T16:33:49.000Z</time></trkpt>
        <trkpt lat="29.561598" lon="103.3456"><ele>1817.8389</ele><time>2026-05-28T16:33:59.000Z</time></trkpt>
        <trkpt lat="29.561641" lon="103.34562"><ele>1818.977</ele><time>2026-05-28T16:34:07.000Z</time></trkpt>
        <trkpt lat="29.561689" lon="103.345633"><ele>1818.787</ele><time>2026-05-28T16:34:14.000Z</time></trkpt>
        <trkpt lat="29.561744" lon="103.345642"><ele>1819.2596</ele><time>2026-05-28T16:34:22.000Z</time></trkpt>
        <trkpt lat="29.561793" lon="103.345635"><ele>1817.1763</ele><time>2026-05-28T16:34:28.000Z</time></trkpt>
        <trkpt lat="29.561849" lon="103.345616"><ele>1816.5377</ele><time>2026-05-28T16:34:33.000Z</time></trkpt>
        <trkpt lat="29.561896" lon="103.345614"><ele>1816.4529</ele><time>2026-05-28T16:34:40.000Z</time></trkpt>
        <trkpt lat="29.561943" lon="103.345616"><ele>1816.9053</ele><time>2026-05-28T16:34:47.000Z</time></trkpt>
        <trkpt lat="29.561989" lon="103.345616"><ele>1815.1129</ele><time>2026-05-28T16:34:58.000Z</time></trkpt>
        <trkpt lat="29.562041" lon="103.34563"><ele>1815.881</ele><time>2026-05-28T16:35:21.000Z</time></trkpt>
        <trkpt lat="29.562051" lon="103.345681"><ele>1815.9252</ele><time>2026-05-28T16:35:44.000Z</time></trkpt>
        <trkpt lat="29.56207" lon="103.345729"><ele>1814.5784</ele><time>2026-05-28T16:35:52.000Z</time></trkpt>
        <trkpt lat="29.562111" lon="103.345752"><ele>1814.1289</ele><time>2026-05-28T16:35:58.000Z</time></trkpt>
        <trkpt lat="29.562148" lon="103.345783"><ele>1814.0911</ele><time>2026-05-28T16:36:04.000Z</time></trkpt>
        <trkpt lat="29.562178" lon="103.345833"><ele>1813.7416</ele><time>2026-05-28T16:36:13.000Z</time></trkpt>
        <trkpt lat="29.56219" lon="103.345885"><ele>1813.7844</ele><time>2026-05-28T16:36:19.000Z</time></trkpt>
        <trkpt lat="29.562213" lon="103.345936"><ele>1814.0931</ele><time>2026-05-28T16:36:28.000Z</time></trkpt>
        <trkpt lat="29.562234" lon="103.345985"><ele>1815.3003</ele><time>2026-05-28T16:36:36.000Z</time></trkpt>
        <trkpt lat="29.562241" lon="103.34604"><ele>1814.5822</ele><time>2026-05-28T16:36:43.000Z</time></trkpt>
        <trkpt lat="29.562259" lon="103.346088"><ele>1816.0599</ele><time>2026-05-28T16:36:50.000Z</time></trkpt>
        <trkpt lat="29.562289" lon="103.346128"><ele>1816.2487</ele><time>2026-05-28T16:36:55.000Z</time></trkpt>
        <trkpt lat="29.562321" lon="103.346165"><ele>1816.0228</ele><time>2026-05-28T16:37:04.000Z</time></trkpt>
        <trkpt lat="29.562356" lon="103.346202"><ele>1816.725</ele><time>2026-05-28T16:37:12.000Z</time></trkpt>
        <trkpt lat="29.562393" lon="103.346231"><ele>1817.9198</ele><time>2026-05-28T16:37:20.000Z</time></trkpt>
        <trkpt lat="29.562429" lon="103.346277"><ele>1817.6981</ele><time>2026-05-28T16:37:29.000Z</time></trkpt>
        <trkpt lat="29.562464" lon="103.346309"><ele>1820.0646</ele><time>2026-05-28T16:37:36.000Z</time></trkpt>
        <trkpt lat="29.562494" lon="103.346352"><ele>1820.1008</ele><time>2026-05-28T16:37:44.000Z</time></trkpt>
        <trkpt lat="29.562534" lon="103.346382"><ele>1819.5266</ele><time>2026-05-28T16:37:54.000Z</time></trkpt>
        <trkpt lat="29.56257" lon="103.346419"><ele>1821.1648</ele><time>2026-05-28T16:38:05.000Z</time></trkpt>
        <trkpt lat="29.562609" lon="103.34645"><ele>1821.6259</ele><time>2026-05-28T16:38:14.000Z</time></trkpt>
        <trkpt lat="29.562643" lon="103.346488"><ele>1822.483</ele><time>2026-05-28T16:38:24.000Z</time></trkpt>
        <trkpt lat="29.562689" lon="103.3465"><ele>1820.3173</ele><time>2026-05-28T16:38:32.000Z</time></trkpt>
        <trkpt lat="29.562734" lon="103.346518"><ele>1820.0242</ele><time>2026-05-28T16:38:39.000Z</time></trkpt>
        <trkpt lat="29.562778" lon="103.346537"><ele>1820.8763</ele><time>2026-05-28T16:38:46.000Z</time></trkpt>
        <trkpt lat="29.562813" lon="103.346578"><ele>1820.2823</ele><time>2026-05-28T16:38:53.000Z</time></trkpt>
        <trkpt lat="29.562846" lon="103.346626"><ele>1820.0336</ele><time>2026-05-28T16:39:02.000Z</time></trkpt>
        <trkpt lat="29.56288" lon="103.346667"><ele>1821.9894</ele><time>2026-05-28T16:39:11.000Z</time></trkpt>
        <trkpt lat="29.56291" lon="103.346705"><ele>1821.6287</ele><time>2026-05-28T16:39:19.000Z</time></trkpt>
        <trkpt lat="29.562944" lon="103.346754"><ele>1819.1031</ele><time>2026-05-28T16:39:27.000Z</time></trkpt>
        <trkpt lat="29.56298" lon="103.346792"><ele>1820.9321</ele><time>2026-05-28T16:39:36.000Z</time></trkpt>
        <trkpt lat="29.563012" lon="103.346831"><ele>1822.0605</ele><time>2026-05-28T16:39:47.000Z</time></trkpt>
        <trkpt lat="29.563037" lon="103.346874"><ele>1825.4252</ele><time>2026-05-28T16:40:03.000Z</time></trkpt>
        <trkpt lat="29.563062" lon="103.346919"><ele>1826.0175</ele><time>2026-05-28T16:40:17.000Z</time></trkpt>
        <trkpt lat="29.563095" lon="103.346956"><ele>1827.3851</ele><time>2026-05-28T16:40:26.000Z</time></trkpt>
        <trkpt lat="29.563131" lon="103.346994"><ele>1830.0514</ele><time>2026-05-28T16:40:36.000Z</time></trkpt>
        <trkpt lat="29.563168" lon="103.347035"><ele>1829.8284</ele><time>2026-05-28T16:40:44.000Z</time></trkpt>
        <trkpt lat="29.563196" lon="103.34708"><ele>1830.3394</ele><time>2026-05-28T16:40:51.000Z</time></trkpt>
        <trkpt lat="29.563233" lon="103.347114"><ele>1828.2634</ele><time>2026-05-28T16:40:57.000Z</time></trkpt>
        <trkpt lat="29.563269" lon="103.347147"><ele>1826.8373</ele><time>2026-05-28T16:41:04.000Z</time></trkpt>
        <trkpt lat="29.563305" lon="103.347178"><ele>1826.6588</ele><time>2026-05-28T16:41:11.000Z</time></trkpt>
        <trkpt lat="29.563345" lon="103.347208"><ele>1828.3009</ele><time>2026-05-28T16:41:19.000Z</time></trkpt>
        <trkpt lat="29.563383" lon="103.347237"><ele>1826.1154</ele><time>2026-05-28T16:41:25.000Z</time></trkpt>
        <trkpt lat="29.563422" lon="103.347269"><ele>1826.9078</ele><time>2026-05-28T16:41:34.000Z</time></trkpt>
        <trkpt lat="29.563452" lon="103.347313"><ele>1826.804</ele><time>2026-05-28T16:41:44.000Z</time></trkpt>
        <trkpt lat="29.56348" lon="103.347364"><ele>1824.3191</ele><time>2026-05-28T16:41:54.000Z</time></trkpt>
        <trkpt lat="29.563507" lon="103.347417"><ele>1825.7048</ele><time>2026-05-28T16:42:02.000Z</time></trkpt>
        <trkpt lat="29.563514" lon="103.347475"><ele>1826.526</ele><time>2026-05-28T16:42:10.000Z</time></trkpt>
        <trkpt lat="29.563534" lon="103.347526"><ele>1827.2705</ele><time>2026-05-28T16:42:20.000Z</time></trkpt>
        <trkpt lat="29.563532" lon="103.347579"><ele>1828.6732</ele><time>2026-05-28T16:42:36.000Z</time></trkpt>
        <trkpt lat="29.563548" lon="103.347632"><ele>1829.583</ele><time>2026-05-28T16:42:49.000Z</time></trkpt>
        <trkpt lat="29.563551" lon="103.347685"><ele>1833.0934</ele><time>2026-05-28T16:43:02.000Z</time></trkpt>
        <trkpt lat="29.563545" lon="103.347737"><ele>1833.463</ele><time>2026-05-28T16:43:09.000Z</time></trkpt>
        <trkpt lat="29.563535" lon="103.34779"><ele>1832.6184</ele><time>2026-05-28T16:43:19.000Z</time></trkpt>
        <trkpt lat="29.563538" lon="103.347847"><ele>1832.516</ele><time>2026-05-28T16:43:31.000Z</time></trkpt>
        <trkpt lat="29.563523" lon="103.347903"><ele>1833.3177</ele><time>2026-05-28T16:43:49.000Z</time></trkpt>
        <trkpt lat="29.5635" lon="103.347954"><ele>1836.9482</ele><time>2026-05-28T16:44:01.000Z</time></trkpt>
        <trkpt lat="29.563471" lon="103.347995"><ele>1835.7303</ele><time>2026-05-28T16:44:11.000Z</time></trkpt>
        <trkpt lat="29.563437" lon="103.348034"><ele>1839.7784</ele><time>2026-05-28T16:44:22.000Z</time></trkpt>
        <trkpt lat="29.563424" lon="103.348084"><ele>1841.025</ele><time>2026-05-28T16:44:30.000Z</time></trkpt>
        <trkpt lat="29.563399" lon="103.348129"><ele>1837.1997</ele><time>2026-05-28T16:44:38.000Z</time></trkpt>
        <trkpt lat="29.563375" lon="103.348177"><ele>1838.3895</ele><time>2026-05-28T16:44:45.000Z</time></trkpt>
        <trkpt lat="29.563363" lon="103.348227"><ele>1837.391</ele><time>2026-05-28T16:44:54.000Z</time></trkpt>
        <trkpt lat="29.563326" lon="103.348257"><ele>1837.5168</ele><time>2026-05-28T16:45:03.000Z</time></trkpt>
        <trkpt lat="29.563289" lon="103.34829"><ele>1836.4286</ele><time>2026-05-28T16:45:10.000Z</time></trkpt>
        <trkpt lat="29.563259" lon="103.348334"><ele>1835.7445</ele><time>2026-05-28T16:45:18.000Z</time></trkpt>
        <trkpt lat="29.563245" lon="103.348386"><ele>1835.6511</ele><time>2026-05-28T16:45:26.000Z</time></trkpt>
        <trkpt lat="29.563214" lon="103.348433"><ele>1833.2556</ele><time>2026-05-28T16:45:35.000Z</time></trkpt>
        <trkpt lat="29.56321" lon="103.348489"><ele>1835.9263</ele><time>2026-05-28T16:45:41.000Z</time></trkpt>
        <trkpt lat="29.563203" lon="103.348549"><ele>1835.9956</ele><time>2026-05-28T16:45:49.000Z</time></trkpt>
        <trkpt lat="29.563214" lon="103.348602"><ele>1836.7345</ele><time>2026-05-28T16:45:56.000Z</time></trkpt>
        <trkpt lat="29.563206" lon="103.348656"><ele>1837.3937</ele><time>2026-05-28T16:46:02.000Z</time></trkpt>
        <trkpt lat="29.563198" lon="103.348713"><ele>1835.1936</ele><time>2026-05-28T16:46:10.000Z</time></trkpt>
        <trkpt lat="29.563223" lon="103.34876"><ele>1834.2478</ele><time>2026-05-28T16:46:16.000Z</time></trkpt>
        <trkpt lat="29.563231" lon="103.348817"><ele>1833.8629</ele><time>2026-05-28T16:46:22.000Z</time></trkpt>
        <trkpt lat="29.563223" lon="103.348869"><ele>1833.2473</ele><time>2026-05-28T16:46:29.000Z</time></trkpt>
        <trkpt lat="29.563209" lon="103.348921"><ele>1834.9365</ele><time>2026-05-28T16:46:37.000Z</time></trkpt>
        <trkpt lat="29.5632" lon="103.348978"><ele>1834.0017</ele><time>2026-05-28T16:46:47.000Z</time></trkpt>
        <trkpt lat="29.563192" lon="103.349032"><ele>1833.6675</ele><time>2026-05-28T16:46:54.000Z</time></trkpt>
        <trkpt lat="29.563177" lon="103.349088"><ele>1830.9115</ele><time>2026-05-28T16:47:00.000Z</time></trkpt>
        <trkpt lat="29.563197" lon="103.349137"><ele>1829.8131</ele><time>2026-05-28T16:47:08.000Z</time></trkpt>
        <trkpt lat="29.563173" lon="103.349181"><ele>1827.9889</ele><time>2026-05-28T16:47:17.000Z</time></trkpt>
        <trkpt lat="29.563154" lon="103.34923"><ele>1828.3301</ele><time>2026-05-28T16:47:24.000Z</time></trkpt>
        <trkpt lat="29.563121" lon="103.349271"><ele>1828.0844</ele><time>2026-05-28T16:47:32.000Z</time></trkpt>
        <trkpt lat="29.563094" lon="103.349321"><ele>1829.3054</ele><time>2026-05-28T16:47:39.000Z</time></trkpt>
        <trkpt lat="29.563088" lon="103.349376"><ele>1829.0421</ele><time>2026-05-28T16:47:45.000Z</time></trkpt>
        <trkpt lat="29.563073" lon="103.349425"><ele>1827.6649</ele><time>2026-05-28T16:47:52.000Z</time></trkpt>
        <trkpt lat="29.563055" lon="103.349475"><ele>1827.3019</ele><time>2026-05-28T16:48:01.000Z</time></trkpt>
        <trkpt lat="29.563025" lon="103.349518"><ele>1828.7588</ele><time>2026-05-28T16:48:09.000Z</time></trkpt>
        <trkpt lat="29.562996" lon="103.349564"><ele>1827.4841</ele><time>2026-05-28T16:48:18.000Z</time></trkpt>
        <trkpt lat="29.562983" lon="103.349615"><ele>1828.7852</ele><time>2026-05-28T16:48:28.000Z</time></trkpt>
        <trkpt lat="29.562952" lon="103.349661"><ele>1829.2743</ele><time>2026-05-28T16:48:37.000Z</time></trkpt>
        <trkpt lat="29.562929" lon="103.349708"><ele>1828.6461</ele><time>2026-05-28T16:48:44.000Z</time></trkpt>
        <trkpt lat="29.562909" lon="103.349772"><ele>1827.3948</ele><time>2026-05-28T16:48:52.000Z</time></trkpt>
        <trkpt lat="29.562885" lon="103.349816"><ele>1827.1108</ele><time>2026-05-28T16:49:03.000Z</time></trkpt>
        <trkpt lat="29.562876" lon="103.349873"><ele>1828.3771</ele><time>2026-05-28T16:49:12.000Z</time></trkpt>
        <trkpt lat="29.562884" lon="103.349928"><ele>1827.7911</ele><time>2026-05-28T16:49:20.000Z</time></trkpt>
        <trkpt lat="29.562877" lon="103.349984"><ele>1824.4963</ele><time>2026-05-28T16:49:28.000Z</time></trkpt>
        <trkpt lat="29.562862" lon="103.350037"><ele>1826.4977</ele><time>2026-05-28T16:49:42.000Z</time></trkpt>
        <trkpt lat="29.562839" lon="103.350089"><ele>1827.1898</ele><time>2026-05-28T16:49:50.000Z</time></trkpt>
        <trkpt lat="29.562838" lon="103.350148"><ele>1828.842</ele><time>2026-05-28T16:49:59.000Z</time></trkpt>
        <trkpt lat="29.5628" lon="103.350179"><ele>1823.2358</ele><time>2026-05-28T16:50:06.000Z</time></trkpt>
        <trkpt lat="29.562794" lon="103.350237"><ele>1826.6931</ele><time>2026-05-28T16:50:16.000Z</time></trkpt>
        <trkpt lat="29.562786" lon="103.350292"><ele>1828.1349</ele><time>2026-05-28T16:50:26.000Z</time></trkpt>
        <trkpt lat="29.562813" lon="103.350336"><ele>1835.0261</ele><time>2026-05-28T16:50:32.000Z</time></trkpt>
        <trkpt lat="29.56282" lon="103.350392"><ele>1833.9039</ele><time>2026-05-28T16:50:46.000Z</time></trkpt>
        <trkpt lat="29.562794" lon="103.35044"><ele>1831.6743</ele><time>2026-05-28T16:50:53.000Z</time></trkpt>
        <trkpt lat="29.562793" lon="103.350493"><ele>1834.0941</ele><time>2026-05-28T16:51:01.000Z</time></trkpt>
        <trkpt lat="29.56276" lon="103.35054"><ele>1829.8694</ele><time>2026-05-28T16:51:13.000Z</time></trkpt>
        <trkpt lat="29.562783" lon="103.35059"><ele>1832.3788</ele><time>2026-05-28T16:51:18.000Z</time></trkpt>
        <trkpt lat="29.562779" lon="103.350645"><ele>1835.959</ele><time>2026-05-28T16:51:23.000Z</time></trkpt>
        <trkpt lat="29.56279" lon="103.350707"><ele>1833.7601</ele><time>2026-05-28T16:51:30.000Z</time></trkpt>
        <trkpt lat="29.562794" lon="103.350761"><ele>1832.51</ele><time>2026-05-28T16:51:41.000Z</time></trkpt>
        <trkpt lat="29.562833" lon="103.350795"><ele>1834.7019</ele><time>2026-05-28T16:51:50.000Z</time></trkpt>
        <trkpt lat="29.562877" lon="103.350823"><ele>1833.2888</ele><time>2026-05-28T16:53:56.000Z</time></trkpt>
        <trkpt lat="29.5629" lon="103.350872"><ele>1830.5806</ele><time>2026-05-28T16:54:01.000Z</time></trkpt>
        <trkpt lat="29.562922" lon="103.350925"><ele>1831.3188</ele><time>2026-05-28T16:54:29.000Z</time></trkpt>
        <trkpt lat="29.562945" lon="103.35098"><ele>1832.3171</ele><time>2026-05-28T16:54:36.000Z</time></trkpt>
        <trkpt lat="29.562953" lon="103.351032"><ele>1832.302</ele><time>2026-05-28T16:54:43.000Z</time></trkpt>
        <trkpt lat="29.562968" lon="103.351082"><ele>1831.4722</ele><time>2026-05-28T16:54:49.000Z</time></trkpt>
        <trkpt lat="29.562981" lon="103.351134"><ele>1832.316</ele><time>2026-05-28T16:54:54.000Z</time></trkpt>
        <trkpt lat="29.562997" lon="103.351187"><ele>1833.8866</ele><time>2026-05-28T16:55:00.000Z</time></trkpt>
        <trkpt lat="29.563006" lon="103.351242"><ele>1838.7888</ele><time>2026-05-28T16:55:10.000Z</time></trkpt>
        <trkpt lat="29.562996" lon="103.351297"><ele>1839.9323</ele><time>2026-05-28T16:55:18.000Z</time></trkpt>
        <trkpt lat="29.562975" lon="103.351345"><ele>1836.5217</ele><time>2026-05-28T16:55:24.000Z</time></trkpt>
        <trkpt lat="29.562958" lon="103.351399"><ele>1838.0095</ele><time>2026-05-28T16:55:30.000Z</time></trkpt>
        <trkpt lat="29.56293" lon="103.35145"><ele>1839.498</ele><time>2026-05-28T16:55:35.000Z</time></trkpt>
        <trkpt lat="29.56294" lon="103.351505"><ele>1842.8837</ele><time>2026-05-28T16:55:43.000Z</time></trkpt>
        <trkpt lat="29.56296" lon="103.351556"><ele>1845.6887</ele><time>2026-05-28T16:55:53.000Z</time></trkpt>
        <trkpt lat="29.562974" lon="103.351612"><ele>1847.5</ele><time>2026-05-28T16:56:02.000Z</time></trkpt>
        <trkpt lat="29.562988" lon="103.35167"><ele>1846.0613</ele><time>2026-05-28T16:56:08.000Z</time></trkpt>
        <trkpt lat="29.562982" lon="103.351721"><ele>1847.9851</ele><time>2026-05-28T16:56:14.000Z</time></trkpt>
        <trkpt lat="29.562987" lon="103.351779"><ele>1851.1523</ele><time>2026-05-28T16:56:23.000Z</time></trkpt>
        <trkpt lat="29.562991" lon="103.351832"><ele>1850.9894</ele><time>2026-05-28T16:56:30.000Z</time></trkpt>
        <trkpt lat="29.563007" lon="103.35188"><ele>1850.9548</ele><time>2026-05-28T16:56:35.000Z</time></trkpt>
        <trkpt lat="29.56302" lon="103.351942"><ele>1850.6891</ele><time>2026-05-28T16:56:41.000Z</time></trkpt>
        <trkpt lat="29.563041" lon="103.351993"><ele>1849.8264</ele><time>2026-05-28T16:56:46.000Z</time></trkpt>
        <trkpt lat="29.563055" lon="103.352046"><ele>1848.2556</ele><time>2026-05-28T16:56:51.000Z</time></trkpt>
        <trkpt lat="29.563067" lon="103.352102"><ele>1847.782</ele><time>2026-05-28T16:56:56.000Z</time></trkpt>
        <trkpt lat="29.563087" lon="103.352162"><ele>1848.1796</ele><time>2026-05-28T16:57:01.000Z</time></trkpt>
        <trkpt lat="29.563097" lon="103.352218"><ele>1850.6073</ele><time>2026-05-28T16:57:06.000Z</time></trkpt>
        <trkpt lat="29.563118" lon="103.352268"><ele>1849.5559</ele><time>2026-05-28T16:57:11.000Z</time></trkpt>
        <trkpt lat="29.563122" lon="103.35232"><ele>1849.676</ele><time>2026-05-28T16:57:15.000Z</time></trkpt>
        <trkpt lat="29.563126" lon="103.352377"><ele>1848.7584</ele><time>2026-05-28T16:57:21.000Z</time></trkpt>
        <trkpt lat="29.563087" lon="103.352415"><ele>1848.2612</ele><time>2026-05-28T16:58:57.000Z</time></trkpt>
        <trkpt lat="29.563066" lon="103.352463"><ele>1850.3793</ele><time>2026-05-28T16:59:06.000Z</time></trkpt>
        <trkpt lat="29.56304" lon="103.352508"><ele>1854.4773</ele><time>2026-05-28T16:59:17.000Z</time></trkpt>
        <trkpt lat="29.563013" lon="103.352554"><ele>1856.5092</ele><time>2026-05-28T16:59:27.000Z</time></trkpt>
        <trkpt lat="29.563003" lon="103.352616"><ele>1852.5836</ele><time>2026-05-28T16:59:35.000Z</time></trkpt>
        <trkpt lat="29.56298" lon="103.352665"><ele>1854.3906</ele><time>2026-05-28T16:59:48.000Z</time></trkpt>
        <trkpt lat="29.562952" lon="103.35271"><ele>1858.5677</ele><time>2026-05-28T17:00:03.000Z</time></trkpt>
        <trkpt lat="29.562922" lon="103.352753"><ele>1861.0034</ele><time>2026-05-28T17:00:14.000Z</time></trkpt>
        <trkpt lat="29.562913" lon="103.352807"><ele>1863.1527</ele><time>2026-05-28T17:00:25.000Z</time></trkpt>
        <trkpt lat="29.562915" lon="103.352869"><ele>1866.6724</ele><time>2026-05-28T17:00:41.000Z</time></trkpt>
        <trkpt lat="29.562938" lon="103.352919"><ele>1866.6882</ele><time>2026-05-28T17:00:50.000Z</time></trkpt>
        <trkpt lat="29.562941" lon="103.352971"><ele>1866.8416</ele><time>2026-05-28T17:00:55.000Z</time></trkpt>
        <trkpt lat="29.562961" lon="103.35302"><ele>1867.5265</ele><time>2026-05-28T17:00:59.000Z</time></trkpt>
        <trkpt lat="29.562985" lon="103.353066"><ele>1870.799</ele><time>2026-05-28T17:01:04.000Z</time></trkpt>
        <trkpt lat="29.56301" lon="103.353121"><ele>1872.6785</ele><time>2026-05-28T17:01:11.000Z</time></trkpt>
        <trkpt lat="29.563017" lon="103.353175"><ele>1869.6211</ele><time>2026-05-28T17:01:18.000Z</time></trkpt>
        <trkpt lat="29.563044" lon="103.35322"><ele>1869.3131</ele><time>2026-05-28T17:01:40.000Z</time></trkpt>
        <trkpt lat="29.563046" lon="103.353272"><ele>1869.6387</ele><time>2026-05-28T17:01:50.000Z</time></trkpt>
        <trkpt lat="29.563057" lon="103.353324"><ele>1869.9653</ele><time>2026-05-28T17:04:50.000Z</time></trkpt>
        <trkpt lat="29.563068" lon="103.353374"><ele>1870.9293</ele><time>2026-05-28T17:05:04.000Z</time></trkpt>
        <trkpt lat="29.563085" lon="103.353425"><ele>1875.3496</ele><time>2026-05-28T17:05:16.000Z</time></trkpt>
        <trkpt lat="29.56307" lon="103.353476"><ele>1876.005</ele><time>2026-05-28T17:05:27.000Z</time></trkpt>
        <trkpt lat="29.563058" lon="103.353529"><ele>1876.1497</ele><time>2026-05-28T17:06:07.000Z</time></trkpt>
        <trkpt lat="29.563047" lon="103.353582"><ele>1877.3353</ele><time>2026-05-28T17:06:28.000Z</time></trkpt>
        <trkpt lat="29.563051" lon="103.353639"><ele>1877.6604</ele><time>2026-05-28T17:06:33.000Z</time></trkpt>
        <trkpt lat="29.563067" lon="103.35369"><ele>1876.4711</ele><time>2026-05-28T17:06:39.000Z</time></trkpt>
        <trkpt lat="29.563088" lon="103.353737"><ele>1877.3507</ele><time>2026-05-28T17:06:44.000Z</time></trkpt>
        <trkpt lat="29.56311" lon="103.353797"><ele>1877.5029</ele><time>2026-05-28T17:06:50.000Z</time></trkpt>
        <trkpt lat="29.563108" lon="103.353857"><ele>1878.7988</ele><time>2026-05-28T17:06:56.000Z</time></trkpt>
        <trkpt lat="29.563117" lon="103.353917"><ele>1879.5297</ele><time>2026-05-28T17:07:02.000Z</time></trkpt>
        <trkpt lat="29.563137" lon="103.353964"><ele>1877.4491</ele><time>2026-05-28T17:07:06.000Z</time></trkpt>
        <trkpt lat="29.563157" lon="103.354012"><ele>1875.7269</ele><time>2026-05-28T17:07:11.000Z</time></trkpt>
        <trkpt lat="29.563188" lon="103.354054"><ele>1874.5958</ele><time>2026-05-28T17:07:16.000Z</time></trkpt>
        <trkpt lat="29.563206" lon="103.354112"><ele>1876.768</ele><time>2026-05-28T17:07:23.000Z</time></trkpt>
        <trkpt lat="29.563215" lon="103.354172"><ele>1878.8353</ele><time>2026-05-28T17:07:30.000Z</time></trkpt>
        <trkpt lat="29.563232" lon="103.354234"><ele>1879.8254</ele><time>2026-05-28T17:07:36.000Z</time></trkpt>
        <trkpt lat="29.563236" lon="103.354292"><ele>1880.9661</ele><time>2026-05-28T17:07:42.000Z</time></trkpt>
        <trkpt lat="29.563246" lon="103.354345"><ele>1880.1445</ele><time>2026-05-28T17:07:49.000Z</time></trkpt>
        <trkpt lat="29.563261" lon="103.354397"><ele>1880.0219</ele><time>2026-05-28T17:07:54.000Z</time></trkpt>
        <trkpt lat="29.563285" lon="103.354457"><ele>1879.6091</ele><time>2026-05-28T17:08:01.000Z</time></trkpt>
        <trkpt lat="29.563316" lon="103.354499"><ele>1879.6709</ele><time>2026-05-28T17:08:06.000Z</time></trkpt>
        <trkpt lat="29.563354" lon="103.35455"><ele>1880.3442</ele><time>2026-05-28T17:08:11.000Z</time></trkpt>
        <trkpt lat="29.563393" lon="103.354586"><ele>1878.5522</ele><time>2026-05-28T17:08:16.000Z</time></trkpt>
        <trkpt lat="29.563441" lon="103.354614"><ele>1877.5688</ele><time>2026-05-28T17:08:20.000Z</time></trkpt>
        <trkpt lat="29.563473" lon="103.35466"><ele>1878.2299</ele><time>2026-05-28T17:08:26.000Z</time></trkpt>
        <trkpt lat="29.563489" lon="103.354715"><ele>1878.3439</ele><time>2026-05-28T17:08:32.000Z</time></trkpt>
        <trkpt lat="29.563506" lon="103.354764"><ele>1876.6798</ele><time>2026-05-28T17:08:37.000Z</time></trkpt>
        <trkpt lat="29.563536" lon="103.354812"><ele>1876.4072</ele><time>2026-05-28T17:08:42.000Z</time></trkpt>
        <trkpt lat="29.563572" lon="103.354846"><ele>1876.1769</ele><time>2026-05-28T17:08:47.000Z</time></trkpt>
        <trkpt lat="29.563601" lon="103.354888"><ele>1876.4667</ele><time>2026-05-28T17:08:51.000Z</time></trkpt>
        <trkpt lat="29.563638" lon="103.354932"><ele>1876.872</ele><time>2026-05-28T17:08:56.000Z</time></trkpt>
        <trkpt lat="29.563678" lon="103.35496"><ele>1875.7478</ele><time>2026-05-28T17:09:01.000Z</time></trkpt>
        <trkpt lat="29.563714" lon="103.355012"><ele>1876.0892</ele><time>2026-05-28T17:09:08.000Z</time></trkpt>
        <trkpt lat="29.563751" lon="103.35505"><ele>1875.7589</ele><time>2026-05-28T17:09:14.000Z</time></trkpt>
        <trkpt lat="29.563784" lon="103.355097"><ele>1877.681</ele><time>2026-05-28T17:09:19.000Z</time></trkpt>
        <trkpt lat="29.56382" lon="103.355144"><ele>1877.5244</ele><time>2026-05-28T17:09:27.000Z</time></trkpt>
        <trkpt lat="29.563849" lon="103.355189"><ele>1878.8033</ele><time>2026-05-28T17:09:35.000Z</time></trkpt>
        <trkpt lat="29.563878" lon="103.35523"><ele>1879.1436</ele><time>2026-05-28T17:09:41.000Z</time></trkpt>
        <trkpt lat="29.563889" lon="103.355294"><ele>1880.895</ele><time>2026-05-28T17:09:51.000Z</time></trkpt>
        <trkpt lat="29.563905" lon="103.355343"><ele>1883.3693</ele><time>2026-05-28T17:10:00.000Z</time></trkpt>
        <trkpt lat="29.563899" lon="103.355401"><ele>1882.562</ele><time>2026-05-28T17:10:08.000Z</time></trkpt>
        <trkpt lat="29.563915" lon="103.355454"><ele>1884.4542</ele><time>2026-05-28T17:10:19.000Z</time></trkpt>
        <trkpt lat="29.563936" lon="103.355508"><ele>1886.5374</ele><time>2026-05-28T17:10:32.000Z</time></trkpt>
        <trkpt lat="29.563947" lon="103.355565"><ele>1889.2461</ele><time>2026-05-28T17:10:41.000Z</time></trkpt>
        <trkpt lat="29.563951" lon="103.355624"><ele>1894.4708</ele><time>2026-05-28T17:10:53.000Z</time></trkpt>
        <trkpt lat="29.563965" lon="103.355678"><ele>1893.5608</ele><time>2026-05-28T17:11:02.000Z</time></trkpt>
        <trkpt lat="29.563975" lon="103.355729"><ele>1893.9932</ele><time>2026-05-28T17:11:14.000Z</time></trkpt>
        <trkpt lat="29.563987" lon="103.355783"><ele>1893.7803</ele><time>2026-05-28T17:11:24.000Z</time></trkpt>
        <trkpt lat="29.563993" lon="103.355835"><ele>1892.7155</ele><time>2026-05-28T17:11:35.000Z</time></trkpt>
        <trkpt lat="29.563997" lon="103.355893"><ele>1897.0195</ele><time>2026-05-28T17:11:49.000Z</time></trkpt>
        <trkpt lat="29.56401" lon="103.355943"><ele>1899.311</ele><time>2026-05-28T17:11:58.000Z</time></trkpt>
        <trkpt lat="29.564019" lon="103.355997"><ele>1900.1112</ele><time>2026-05-28T17:12:06.000Z</time></trkpt>
        <trkpt lat="29.564022" lon="103.356053"><ele>1900.7888</ele><time>2026-05-28T17:12:13.000Z</time></trkpt>
        <trkpt lat="29.564047" lon="103.356097"><ele>1900.5477</ele><time>2026-05-28T17:12:26.000Z</time></trkpt>
        <trkpt lat="29.564069" lon="103.356148"><ele>1901.5452</ele><time>2026-05-28T17:12:38.000Z</time></trkpt>
        <trkpt lat="29.564085" lon="103.356201"><ele>1904.1439</ele><time>2026-05-28T17:12:47.000Z</time></trkpt>
        <trkpt lat="29.564089" lon="103.356254"><ele>1903.6769</ele><time>2026-05-28T17:13:20.000Z</time></trkpt>
        <trkpt lat="29.564079" lon="103.356317"><ele>1903.3053</ele><time>2026-05-28T17:13:29.000Z</time></trkpt>
        <trkpt lat="29.564095" lon="103.35637"><ele>1907.094</ele><time>2026-05-28T17:13:39.000Z</time></trkpt>
        <trkpt lat="29.564108" lon="103.356423"><ele>1908.5496</ele><time>2026-05-28T17:13:55.000Z</time></trkpt>
        <trkpt lat="29.564133" lon="103.356466"><ele>1911.5741</ele><time>2026-05-28T17:14:40.000Z</time></trkpt>
        <trkpt lat="29.564088" lon="103.356459"><ele>1909.9163</ele><time>2026-05-28T17:18:45.000Z</time></trkpt>
        <trkpt lat="29.564048" lon="103.356485"><ele>1911.489</ele><time>2026-05-28T17:19:47.000Z</time></trkpt>
        <trkpt lat="29.564005" lon="103.356507"><ele>1910.2762</ele><time>2026-05-28T17:21:09.000Z</time></trkpt>
        <trkpt lat="29.563958" lon="103.356525"><ele>1910.436</ele><time>2026-05-28T17:21:24.000Z</time></trkpt>
        <trkpt lat="29.563912" lon="103.356517"><ele>1910.9786</ele><time>2026-05-28T17:21:30.000Z</time></trkpt>
        <trkpt lat="29.563865" lon="103.356523"><ele>1911.1958</ele><time>2026-05-28T17:21:38.000Z</time></trkpt>
        <trkpt lat="29.563805" lon="103.356528"><ele>1914.5785</ele><time>2026-05-28T17:21:58.000Z</time></trkpt>
        <trkpt lat="29.563757" lon="103.356518"><ele>1911.3687</ele><time>2026-05-28T17:22:04.000Z</time></trkpt>
        <trkpt lat="29.563805" lon="103.356521"><ele>1909.7722</ele><time>2026-05-28T17:23:22.000Z</time></trkpt>
        <trkpt lat="29.563867" lon="103.356524"><ele>1909.5256</ele><time>2026-05-28T17:24:05.000Z</time></trkpt>
        <trkpt lat="29.563914" lon="103.356536"><ele>1911.2557</ele><time>2026-05-28T17:24:11.000Z</time></trkpt>
        <trkpt lat="29.563967" lon="103.356527"><ele>1911.4954</ele><time>2026-05-28T17:24:17.000Z</time></trkpt>
        <trkpt lat="29.564014" lon="103.356529"><ele>1912.9115</ele><time>2026-05-28T17:24:25.000Z</time></trkpt>
        <trkpt lat="29.564051" lon="103.356498"><ele>1912.3644</ele><time>2026-05-28T17:24:37.000Z</time></trkpt>
        <trkpt lat="29.564098" lon="103.356487"><ele>1910.1965</ele><time>2026-05-28T17:24:54.000Z</time></trkpt>
        <trkpt lat="29.564141" lon="103.356469"><ele>1908.0062</ele><time>2026-05-28T17:25:05.000Z</time></trkpt>
        <trkpt lat="29.564185" lon="103.356452"><ele>1906.4031</ele><time>2026-05-28T17:25:14.000Z</time></trkpt>
        <trkpt lat="29.564136" lon="103.356473"><ele>1905.948</ele><time>2026-05-28T17:25:45.000Z</time></trkpt>
        <trkpt lat="29.564178" lon="103.356453"><ele>1907.2528</ele><time>2026-05-28T17:26:16.000Z</time></trkpt>
        <trkpt lat="29.564226" lon="103.356435"><ele>1904.2477</ele><time>2026-05-28T17:26:25.000Z</time></trkpt>
        <trkpt lat="29.564273" lon="103.356423"><ele>1904.3912</ele><time>2026-05-28T17:26:37.000Z</time></trkpt>
        <trkpt lat="29.564309" lon="103.356382"><ele>1900.0671</ele><time>2026-05-28T17:26:48.000Z</time></trkpt>
        <trkpt lat="29.564336" lon="103.35634"><ele>1899.3837</ele><time>2026-05-28T17:26:57.000Z</time></trkpt>
        <trkpt lat="29.56436" lon="103.356294"><ele>1897.1741</ele><time>2026-05-28T17:27:07.000Z</time></trkpt>
        <trkpt lat="29.564367" lon="103.356239"><ele>1897.8237</ele><time>2026-05-28T17:27:16.000Z</time></trkpt>
        <trkpt lat="29.564365" lon="103.356184"><ele>1895.8302</ele><time>2026-05-28T17:27:23.000Z</time></trkpt>
        <trkpt lat="29.564414" lon="103.356196"><ele>1890.688</ele><time>2026-05-28T17:27:52.000Z</time></trkpt>
        <trkpt lat="29.564462" lon="103.356211"><ele>1888.4882</ele><time>2026-05-28T17:27:58.000Z</time></trkpt>
        <trkpt lat="29.564477" lon="103.356161"><ele>1886.0505</ele><time>2026-05-28T17:28:08.000Z</time></trkpt>
        <trkpt lat="29.564497" lon="103.356114"><ele>1882.4856</ele><time>2026-05-28T17:28:19.000Z</time></trkpt>
        <trkpt lat="29.564525" lon="103.356064"><ele>1881.008</ele><time>2026-05-28T17:28:36.000Z</time></trkpt>
        <trkpt lat="29.564571" lon="103.356071"><ele>1878.9338</ele><time>2026-05-28T17:28:51.000Z</time></trkpt>
        <trkpt lat="29.564605" lon="103.356109"><ele>1876.6987</ele><time>2026-05-28T17:29:04.000Z</time></trkpt>
        <trkpt lat="29.564606" lon="103.356172"><ele>1874.4703</ele><time>2026-05-28T17:29:11.000Z</time></trkpt>
        <trkpt lat="29.564644" lon="103.356205"><ele>1875.06</ele><time>2026-05-28T17:29:18.000Z</time></trkpt>
        <trkpt lat="29.56467" lon="103.356253"><ele>1873.765</ele><time>2026-05-28T17:29:25.000Z</time></trkpt>
        <trkpt lat="29.564692" lon="103.356303"><ele>1874.6243</ele><time>2026-05-28T17:29:31.000Z</time></trkpt>
        <trkpt lat="29.564723" lon="103.356346"><ele>1872.8688</ele><time>2026-05-28T17:29:37.000Z</time></trkpt>
        <trkpt lat="29.564738" lon="103.356401"><ele>1873.1892</ele><time>2026-05-28T17:29:46.000Z</time></trkpt>
        <trkpt lat="29.56477" lon="103.356449"><ele>1870.3116</ele><time>2026-05-28T17:29:55.000Z</time></trkpt>
        <trkpt lat="29.564813" lon="103.356486"><ele>1867.8107</ele><time>2026-05-28T17:30:06.000Z</time></trkpt>
        <trkpt lat="29.564858" lon="103.356511"><ele>1867.1506</ele><time>2026-05-28T17:30:13.000Z</time></trkpt>
        <trkpt lat="29.56489" lon="103.35656"><ele>1865.987</ele><time>2026-05-28T17:30:20.000Z</time></trkpt>
        <trkpt lat="29.564917" lon="103.356611"><ele>1863.1965</ele><time>2026-05-28T17:30:27.000Z</time></trkpt>
        <trkpt lat="29.564964" lon="103.356625"><ele>1863.4154</ele><time>2026-05-28T17:30:32.000Z</time></trkpt>
        <trkpt lat="29.565017" lon="103.356643"><ele>1862.3368</ele><time>2026-05-28T17:30:38.000Z</time></trkpt>
        <trkpt lat="29.565059" lon="103.356667"><ele>1860.328</ele><time>2026-05-28T17:30:43.000Z</time></trkpt>
        <trkpt lat="29.565101" lon="103.356688"><ele>1857.308</ele><time>2026-05-28T17:30:55.000Z</time></trkpt>
        <trkpt lat="29.565147" lon="103.356695"><ele>1854.8738</ele><time>2026-05-28T17:31:06.000Z</time></trkpt>
        <trkpt lat="29.565169" lon="103.35674"><ele>1854.6173</ele><time>2026-05-28T17:31:18.000Z</time></trkpt>
        <trkpt lat="29.5652" lon="103.356778"><ele>1854.8574</ele><time>2026-05-28T17:31:25.000Z</time></trkpt>
        <trkpt lat="29.565246" lon="103.356803"><ele>1853.962</ele><time>2026-05-28T17:31:32.000Z</time></trkpt>
        <trkpt lat="29.565294" lon="103.356803"><ele>1851.451</ele><time>2026-05-28T17:31:39.000Z</time></trkpt>
        <trkpt lat="29.56534" lon="103.35683"><ele>1848.9341</ele><time>2026-05-28T17:31:49.000Z</time></trkpt>
        <trkpt lat="29.565382" lon="103.356863"><ele>1848.4358</ele><time>2026-05-28T17:32:03.000Z</time></trkpt>
        <trkpt lat="29.56541" lon="103.356909"><ele>1843.6207</ele><time>2026-05-28T17:32:19.000Z</time></trkpt>
        <trkpt lat="29.56542" lon="103.356962"><ele>1840.7721</ele><time>2026-05-28T17:32:30.000Z</time></trkpt>
        <trkpt lat="29.565438" lon="103.357011"><ele>1839.4647</ele><time>2026-05-28T17:32:39.000Z</time></trkpt>
        <trkpt lat="29.565463" lon="103.357055"><ele>1836.6918</ele><time>2026-05-28T17:32:48.000Z</time></trkpt>
        <trkpt lat="29.565486" lon="103.357103"><ele>1835.7782</ele><time>2026-05-28T17:32:57.000Z</time></trkpt>
        <trkpt lat="29.565512" lon="103.357147"><ele>1834.5784</ele><time>2026-05-28T17:33:04.000Z</time></trkpt>
        <trkpt lat="29.565547" lon="103.357182"><ele>1831.2037</ele><time>2026-05-28T17:33:15.000Z</time></trkpt>
        <trkpt lat="29.565572" lon="103.357225"><ele>1829.6012</ele><time>2026-05-28T17:33:25.000Z</time></trkpt>
        <trkpt lat="29.56559" lon="103.357273"><ele>1830.0505</ele><time>2026-05-28T17:33:30.000Z</time></trkpt>
        <trkpt lat="29.565611" lon="103.357319"><ele>1829.703</ele><time>2026-05-28T17:33:41.000Z</time></trkpt>
        <trkpt lat="29.565647" lon="103.357358"><ele>1829.3447</ele><time>2026-05-28T17:33:47.000Z</time></trkpt>
        <trkpt lat="29.565685" lon="103.357386"><ele>1829.6865</ele><time>2026-05-28T17:33:51.000Z</time></trkpt>
        <trkpt lat="29.565728" lon="103.357407"><ele>1827.0891</ele><time>2026-05-28T17:33:57.000Z</time></trkpt>
        <trkpt lat="29.56577" lon="103.357441"><ele>1826.0726</ele><time>2026-05-28T17:34:04.000Z</time></trkpt>
        <trkpt lat="29.565812" lon="103.35747"><ele>1825.6494</ele><time>2026-05-28T17:34:13.000Z</time></trkpt>
        <trkpt lat="29.565855" lon="103.35749"><ele>1824.1902</ele><time>2026-05-28T17:34:28.000Z</time></trkpt>
        <trkpt lat="29.565884" lon="103.357531"><ele>1822.4666</ele><time>2026-05-28T17:34:45.000Z</time></trkpt>
        <trkpt lat="29.565928" lon="103.357559"><ele>1819.7899</ele><time>2026-05-28T17:35:02.000Z</time></trkpt>
        <trkpt lat="29.565955" lon="103.357601"><ele>1818.9398</ele><time>2026-05-28T17:35:12.000Z</time></trkpt>
        <trkpt lat="29.565971" lon="103.357653"><ele>1817.7616</ele><time>2026-05-28T17:35:21.000Z</time></trkpt>
        <trkpt lat="29.565988" lon="103.357708"><ele>1814.264</ele><time>2026-05-28T17:35:32.000Z</time></trkpt>
        <trkpt lat="29.565995" lon="103.357761"><ele>1814.9379</ele><time>2026-05-28T17:35:39.000Z</time></trkpt>
        <trkpt lat="29.566001" lon="103.357817"><ele>1812.459</ele><time>2026-05-28T17:35:47.000Z</time></trkpt>
        <trkpt lat="29.56602" lon="103.357872"><ele>1810.7296</ele><time>2026-05-28T17:35:56.000Z</time></trkpt>
        <trkpt lat="29.566037" lon="103.357926"><ele>1807.6929</ele><time>2026-05-28T17:36:05.000Z</time></trkpt>
        <trkpt lat="29.56607" lon="103.357963"><ele>1807.1069</ele><time>2026-05-28T17:36:12.000Z</time></trkpt>
        <trkpt lat="29.566095" lon="103.358014"><ele>1806.0708</ele><time>2026-05-28T17:36:21.000Z</time></trkpt>
        <trkpt lat="29.566107" lon="103.358066"><ele>1803.5762</ele><time>2026-05-28T17:36:29.000Z</time></trkpt>
        <trkpt lat="29.566134" lon="103.358111"><ele>1801.7891</ele><time>2026-05-28T17:36:39.000Z</time></trkpt>
        <trkpt lat="29.566169" lon="103.358146"><ele>1801.6136</ele><time>2026-05-28T17:38:24.000Z</time></trkpt>
        <trkpt lat="29.566183" lon="103.358199"><ele>1798.9099</ele><time>2026-05-28T17:38:34.000Z</time></trkpt>
        <trkpt lat="29.566187" lon="103.358253"><ele>1797.5845</ele><time>2026-05-28T17:38:43.000Z</time></trkpt>
        <trkpt lat="29.566194" lon="103.358306"><ele>1794.0303</ele><time>2026-05-28T17:38:58.000Z</time></trkpt>
        <trkpt lat="29.566188" lon="103.358361"><ele>1792.0997</ele><time>2026-05-28T17:39:13.000Z</time></trkpt>
        <trkpt lat="29.566186" lon="103.358414"><ele>1792.7207</ele><time>2026-05-28T17:39:18.000Z</time></trkpt>
        <trkpt lat="29.566181" lon="103.358468"><ele>1789.4175</ele><time>2026-05-28T17:40:03.000Z</time></trkpt>
        <trkpt lat="29.566176" lon="103.358522"><ele>1790.376</ele><time>2026-05-28T17:40:10.000Z</time></trkpt>
        <trkpt lat="29.56618" lon="103.358576"><ele>1790.5807</ele><time>2026-05-28T17:40:19.000Z</time></trkpt>
        <trkpt lat="29.566197" lon="103.358627"><ele>1788.6599</ele><time>2026-05-28T17:40:27.000Z</time></trkpt>
        <trkpt lat="29.56622" lon="103.358676"><ele>1786.9114</ele><time>2026-05-28T17:40:34.000Z</time></trkpt>
        <trkpt lat="29.566239" lon="103.358727"><ele>1784.5065</ele><time>2026-05-28T17:40:42.000Z</time></trkpt>
        <trkpt lat="29.56626" lon="103.358778"><ele>1781.4352</ele><time>2026-05-28T17:40:49.000Z</time></trkpt>
        <trkpt lat="29.566293" lon="103.358818"><ele>1779.1667</ele><time>2026-05-28T17:40:58.000Z</time></trkpt>
        <trkpt lat="29.56632" lon="103.358863"><ele>1776.4097</ele><time>2026-05-28T17:41:07.000Z</time></trkpt>
        <trkpt lat="29.566362" lon="103.358906"><ele>1775.4591</ele><time>2026-05-28T17:41:15.000Z</time></trkpt>
        <trkpt lat="29.566402" lon="103.358934"><ele>1775.238</ele><time>2026-05-28T17:41:24.000Z</time></trkpt>
        <trkpt lat="29.566444" lon="103.358956"><ele>1773.42</ele><time>2026-05-28T17:41:33.000Z</time></trkpt>
        <trkpt lat="29.566476" lon="103.358999"><ele>1774.0829</ele><time>2026-05-28T17:41:40.000Z</time></trkpt>
        <trkpt lat="29.566511" lon="103.359033"><ele>1773.3982</ele><time>2026-05-28T17:41:49.000Z</time></trkpt>
        <trkpt lat="29.566559" lon="103.359061"><ele>1772.1157</ele><time>2026-05-28T17:41:58.000Z</time></trkpt>
        <trkpt lat="29.566604" lon="103.359095"><ele>1769.5658</ele><time>2026-05-28T17:42:06.000Z</time></trkpt>
        <trkpt lat="29.566646" lon="103.359124"><ele>1769.4675</ele><time>2026-05-28T17:42:12.000Z</time></trkpt>
        <trkpt lat="29.566683" lon="103.359169"><ele>1766.574</ele><time>2026-05-28T17:42:19.000Z</time></trkpt>
        <trkpt lat="29.566722" lon="103.359208"><ele>1765.8202</ele><time>2026-05-28T17:42:27.000Z</time></trkpt>
        <trkpt lat="29.566764" lon="103.359233"><ele>1765.9729</ele><time>2026-05-28T17:42:32.000Z</time></trkpt>
        <trkpt lat="29.566805" lon="103.359273"><ele>1765.2626</ele><time>2026-05-28T17:42:39.000Z</time></trkpt>
        <trkpt lat="29.566841" lon="103.359305"><ele>1766.2377</ele><time>2026-05-28T17:42:45.000Z</time></trkpt>
        <trkpt lat="29.566865" lon="103.359353"><ele>1763.7001</ele><time>2026-05-28T17:42:51.000Z</time></trkpt>
        <trkpt lat="29.566913" lon="103.359368"><ele>1764.5724</ele><time>2026-05-28T17:42:57.000Z</time></trkpt>
        <trkpt lat="29.56696" lon="103.359376"><ele>1762.7283</ele><time>2026-05-28T17:43:05.000Z</time></trkpt>
        <trkpt lat="29.56701" lon="103.35939"><ele>1759.5642</ele><time>2026-05-28T17:43:15.000Z</time></trkpt>
        <trkpt lat="29.567056" lon="103.359411"><ele>1760.0037</ele><time>2026-05-28T17:43:27.000Z</time></trkpt>
        <trkpt lat="29.567107" lon="103.359422"><ele>1757.0209</ele><time>2026-05-28T17:43:38.000Z</time></trkpt>
        <trkpt lat="29.56715" lon="103.35945"><ele>1755.9945</ele><time>2026-05-28T17:43:46.000Z</time></trkpt>
        <trkpt lat="29.567191" lon="103.359476"><ele>1754.3293</ele><time>2026-05-28T17:43:59.000Z</time></trkpt>
        <trkpt lat="29.567237" lon="103.35948"><ele>1755.2253</ele><time>2026-05-28T17:44:08.000Z</time></trkpt>
        <trkpt lat="29.567284" lon="103.359481"><ele>1753.5728</ele><time>2026-05-28T17:44:17.000Z</time></trkpt>
        <trkpt lat="29.567316" lon="103.359444"><ele>1751.4153</ele><time>2026-05-28T17:44:52.000Z</time></trkpt>
        <trkpt lat="29.567363" lon="103.35945"><ele>1749.01</ele><time>2026-05-28T17:47:39.000Z</time></trkpt>
        <trkpt lat="29.567407" lon="103.359466"><ele>1749.7289</ele><time>2026-05-28T17:47:44.000Z</time></trkpt>
        <trkpt lat="29.56745" lon="103.359442"><ele>1747.5505</ele><time>2026-05-28T17:47:49.000Z</time></trkpt>
        <trkpt lat="29.567501" lon="103.35942"><ele>1744.719</ele><time>2026-05-28T17:47:55.000Z</time></trkpt>
        <trkpt lat="29.567547" lon="103.359436"><ele>1740.9642</ele><time>2026-05-28T17:48:01.000Z</time></trkpt>
        <trkpt lat="29.567592" lon="103.359436"><ele>1741.5747</ele><time>2026-05-28T17:48:06.000Z</time></trkpt>
        <trkpt lat="29.567636" lon="103.35946"><ele>1741.5304</ele><time>2026-05-28T17:48:12.000Z</time></trkpt>
        <trkpt lat="29.567677" lon="103.359484"><ele>1741.6068</ele><time>2026-05-28T17:48:17.000Z</time></trkpt>
        <trkpt lat="29.567719" lon="103.359513"><ele>1741.6233</ele><time>2026-05-28T17:48:21.000Z</time></trkpt>
        <trkpt lat="29.567769" lon="103.359528"><ele>1738.6483</ele><time>2026-05-28T17:48:25.000Z</time></trkpt>
        <trkpt lat="29.567806" lon="103.359571"><ele>1737.2911</ele><time>2026-05-28T17:48:31.000Z</time></trkpt>
        <trkpt lat="29.567855" lon="103.359582"><ele>1737.1199</ele><time>2026-05-28T17:48:35.000Z</time></trkpt>
        <trkpt lat="29.567901" lon="103.359574"><ele>1734.3334</ele><time>2026-05-28T17:48:45.000Z</time></trkpt>
        <trkpt lat="29.567946" lon="103.359562"><ele>1734.7765</ele><time>2026-05-28T17:48:54.000Z</time></trkpt>
        <trkpt lat="29.567998" lon="103.359549"><ele>1734.2905</ele><time>2026-05-28T17:48:59.000Z</time></trkpt>
        <trkpt lat="29.568048" lon="103.35954"><ele>1732.6082</ele><time>2026-05-28T17:49:08.000Z</time></trkpt>
        <trkpt lat="29.568096" lon="103.359534"><ele>1733.1044</ele><time>2026-05-28T17:49:14.000Z</time></trkpt>
        <trkpt lat="29.568142" lon="103.359549"><ele>1732.9836</ele><time>2026-05-28T17:49:21.000Z</time></trkpt>
        <trkpt lat="29.56817" lon="103.359593"><ele>1733.9425</ele><time>2026-05-28T17:49:25.000Z</time></trkpt>
        <trkpt lat="29.568188" lon="103.359647"><ele>1734.1178</ele><time>2026-05-28T17:49:30.000Z</time></trkpt>
        <trkpt lat="29.568221" lon="103.359682"><ele>1734.3738</ele><time>2026-05-28T17:49:34.000Z</time></trkpt>
        <trkpt lat="29.568232" lon="103.359735"><ele>1733.8949</ele><time>2026-05-28T17:49:49.000Z</time></trkpt>
        <trkpt lat="29.568178" lon="103.359755"><ele>1734.2748</ele><time>2026-05-28T17:50:25.000Z</time></trkpt>
        <trkpt lat="29.568132" lon="103.359765"><ele>1734.8992</ele><time>2026-05-28T17:50:31.000Z</time></trkpt>
        <trkpt lat="29.568218" lon="103.359748"><ele>1738.4504</ele><time>2026-05-28T17:50:48.000Z</time></trkpt>
        <trkpt lat="29.56826" lon="103.359726"><ele>1736.3875</ele><time>2026-05-28T17:51:11.000Z</time></trkpt>
        <trkpt lat="29.568314" lon="103.359721"><ele>1734.6437</ele><time>2026-05-28T17:51:16.000Z</time></trkpt>
        <trkpt lat="29.568371" lon="103.359713"><ele>1734.3624</ele><time>2026-05-28T17:51:21.000Z</time></trkpt>
        <trkpt lat="29.568418" lon="103.359698"><ele>1734.1505</ele><time>2026-05-28T17:51:25.000Z</time></trkpt>
        <trkpt lat="29.568467" lon="103.359689"><ele>1734.7992</ele><time>2026-05-28T17:51:29.000Z</time></trkpt>
        <trkpt lat="29.568518" lon="103.359692"><ele>1732.4369</ele><time>2026-05-28T17:52:01.000Z</time></trkpt>
        <trkpt lat="29.56857" lon="103.35968"><ele>1733.5577</ele><time>2026-05-28T17:52:09.000Z</time></trkpt>
        <trkpt lat="29.568622" lon="103.359672"><ele>1733.0266</ele><time>2026-05-28T17:52:16.000Z</time></trkpt>
        <trkpt lat="29.568669" lon="103.359669"><ele>1734.0933</ele><time>2026-05-28T17:52:21.000Z</time></trkpt>
        <trkpt lat="29.568705" lon="103.359701"><ele>1733.9149</ele><time>2026-05-28T17:52:39.000Z</time></trkpt>
        <trkpt lat="29.568737" lon="103.359743"><ele>1728.8169</ele><time>2026-05-28T17:53:13.000Z</time></trkpt>
        <trkpt lat="29.568745" lon="103.359799"><ele>1730.0383</ele><time>2026-05-28T17:53:20.000Z</time></trkpt>
        <trkpt lat="29.568745" lon="103.35985"><ele>1730.8159</ele><time>2026-05-28T17:53:23.000Z</time></trkpt>
        <trkpt lat="29.568733" lon="103.359909"><ele>1730.3688</ele><time>2026-05-28T17:53:27.000Z</time></trkpt>
        <trkpt lat="29.568745" lon="103.359978"><ele>1730.2196</ele><time>2026-05-28T17:53:31.000Z</time></trkpt>
        <trkpt lat="29.568751" lon="103.360033"><ele>1729.6918</ele><time>2026-05-28T17:53:36.000Z</time></trkpt>
        <trkpt lat="29.568777" lon="103.360087"><ele>1730.2307</ele><time>2026-05-28T17:53:41.000Z</time></trkpt>
        <trkpt lat="29.568794" lon="103.36014"><ele>1729.0596</ele><time>2026-05-28T17:53:46.000Z</time></trkpt>
        <trkpt lat="29.568809" lon="103.360198"><ele>1726.761</ele><time>2026-05-28T17:53:54.000Z</time></trkpt>
        <trkpt lat="29.568839" lon="103.360252"><ele>1726.1682</ele><time>2026-05-28T17:54:00.000Z</time></trkpt>
        <trkpt lat="29.568872" lon="103.36029"><ele>1725.1986</ele><time>2026-05-28T17:54:07.000Z</time></trkpt>
        <trkpt lat="29.568917" lon="103.360326"><ele>1723.9894</ele><time>2026-05-28T17:54:12.000Z</time></trkpt>
        <trkpt lat="29.568958" lon="103.360349"><ele>1723.4557</ele><time>2026-05-28T17:54:16.000Z</time></trkpt>
        <trkpt lat="29.569002" lon="103.360377"><ele>1719.6393</ele><time>2026-05-28T17:54:21.000Z</time></trkpt>
        <trkpt lat="29.569038" lon="103.36041"><ele>1720.3558</ele><time>2026-05-28T17:54:25.000Z</time></trkpt>
        <trkpt lat="29.569081" lon="103.360432"><ele>1721.6926</ele><time>2026-05-28T17:54:30.000Z</time></trkpt>
        <trkpt lat="29.569115" lon="103.360475"><ele>1722.4838</ele><time>2026-05-28T17:54:34.000Z</time></trkpt>
        <trkpt lat="29.56915" lon="103.360514"><ele>1720.2516</ele><time>2026-05-28T17:54:41.000Z</time></trkpt>
        <trkpt lat="29.569183" lon="103.360556"><ele>1718.2411</ele><time>2026-05-28T17:54:48.000Z</time></trkpt>
        <trkpt lat="29.569221" lon="103.3606"><ele>1717.6088</ele><time>2026-05-28T17:54:54.000Z</time></trkpt>
        <trkpt lat="29.569267" lon="103.360627"><ele>1717.1041</ele><time>2026-05-28T17:54:59.000Z</time></trkpt>
        <trkpt lat="29.569312" lon="103.360667"><ele>1718.2926</ele><time>2026-05-28T17:55:04.000Z</time></trkpt>
        <trkpt lat="29.569359" lon="103.360686"><ele>1717.9851</ele><time>2026-05-28T17:55:10.000Z</time></trkpt>
        <trkpt lat="29.569398" lon="103.36072"><ele>1717.8019</ele><time>2026-05-28T17:55:16.000Z</time></trkpt>
        <trkpt lat="29.569433" lon="103.360763"><ele>1717.4951</ele><time>2026-05-28T17:55:24.000Z</time></trkpt>
        <trkpt lat="29.56947" lon="103.360796"><ele>1716.5948</ele><time>2026-05-28T17:55:28.000Z</time></trkpt>
        <trkpt lat="29.569525" lon="103.360815"><ele>1715.7745</ele><time>2026-05-28T17:55:32.000Z</time></trkpt>
        <trkpt lat="29.56957" lon="103.360836"><ele>1714.7677</ele><time>2026-05-28T17:55:36.000Z</time></trkpt>
        <trkpt lat="29.569613" lon="103.360867"><ele>1713.2609</ele><time>2026-05-28T17:55:40.000Z</time></trkpt>
        <trkpt lat="29.569642" lon="103.360912"><ele>1711.7909</ele><time>2026-05-28T17:55:45.000Z</time></trkpt>
        <trkpt lat="29.569677" lon="103.360951"><ele>1711.5188</ele><time>2026-05-28T17:55:49.000Z</time></trkpt>
        <trkpt lat="29.569709" lon="103.36099"><ele>1710.9099</ele><time>2026-05-28T17:55:53.000Z</time></trkpt>
        <trkpt lat="29.569754" lon="103.361013"><ele>1710.9479</ele><time>2026-05-28T17:55:58.000Z</time></trkpt>
        <trkpt lat="29.569799" lon="103.361043"><ele>1710.6273</ele><time>2026-05-28T17:56:04.000Z</time></trkpt>
        <trkpt lat="29.569843" lon="103.361063"><ele>1711.3289</ele><time>2026-05-28T17:56:09.000Z</time></trkpt>
        <trkpt lat="29.56989" lon="103.361061"><ele>1709.897</ele><time>2026-05-28T17:56:15.000Z</time></trkpt>
        <trkpt lat="29.569921" lon="103.361099"><ele>1706.7137</ele><time>2026-05-28T17:56:23.000Z</time></trkpt>
        <trkpt lat="29.569951" lon="103.361143"><ele>1704.8036</ele><time>2026-05-28T17:56:33.000Z</time></trkpt>
        <trkpt lat="29.569993" lon="103.361178"><ele>1702.3383</ele><time>2026-05-28T17:56:42.000Z</time></trkpt>
        <trkpt lat="29.570032" lon="103.361209"><ele>1703.5399</ele><time>2026-05-28T17:56:51.000Z</time></trkpt>
        <trkpt lat="29.57008" lon="103.361215"><ele>1702.3959</ele><time>2026-05-28T17:56:56.000Z</time></trkpt>
        <trkpt lat="29.570128" lon="103.361201"><ele>1698.6807</ele><time>2026-05-28T17:57:19.000Z</time></trkpt>
        <trkpt lat="29.570176" lon="103.361199"><ele>1697.4734</ele><time>2026-05-28T17:57:46.000Z</time></trkpt>
        <trkpt lat="29.570225" lon="103.361221"><ele>1699.5157</ele><time>2026-05-28T17:57:50.000Z</time></trkpt>
        <trkpt lat="29.570265" lon="103.361248"><ele>1701.1099</ele><time>2026-05-28T17:57:55.000Z</time></trkpt>
        <trkpt lat="29.57031" lon="103.361273"><ele>1700.655</ele><time>2026-05-28T17:58:00.000Z</time></trkpt>
        <trkpt lat="29.570356" lon="103.361305"><ele>1702.4224</ele><time>2026-05-28T17:58:05.000Z</time></trkpt>
        <trkpt lat="29.570395" lon="103.361336"><ele>1702.84</ele><time>2026-05-28T17:58:09.000Z</time></trkpt>
        <trkpt lat="29.570451" lon="103.361363"><ele>1704.72</ele><time>2026-05-28T17:58:15.000Z</time></trkpt>
        <trkpt lat="29.570496" lon="103.36138"><ele>1704.2843</ele><time>2026-05-28T17:58:21.000Z</time></trkpt>
        <trkpt lat="29.570538" lon="103.361403"><ele>1705.2181</ele><time>2026-05-28T17:58:26.000Z</time></trkpt>
        <trkpt lat="29.570587" lon="103.361416"><ele>1704.95</ele><time>2026-05-28T17:58:31.000Z</time></trkpt>
        <trkpt lat="29.570634" lon="103.361429"><ele>1704.3724</ele><time>2026-05-28T17:58:36.000Z</time></trkpt>
        <trkpt lat="29.570681" lon="103.361437"><ele>1702.2546</ele><time>2026-05-28T17:58:41.000Z</time></trkpt>
        <trkpt lat="29.570726" lon="103.361449"><ele>1700.753</ele><time>2026-05-28T17:58:46.000Z</time></trkpt>
        <trkpt lat="29.570773" lon="103.361469"><ele>1700.7153</ele><time>2026-05-28T17:58:52.000Z</time></trkpt>
        <trkpt lat="29.570824" lon="103.361483"><ele>1698.5731</ele><time>2026-05-28T17:58:59.000Z</time></trkpt>
        <trkpt lat="29.570863" lon="103.361507"><ele>1698.5911</ele><time>2026-05-28T17:59:05.000Z</time></trkpt>
        <trkpt lat="29.570907" lon="103.361526"><ele>1698.0139</ele><time>2026-05-28T17:59:11.000Z</time></trkpt>
        <trkpt lat="29.570951" lon="103.361558"><ele>1696.6776</ele><time>2026-05-28T17:59:19.000Z</time></trkpt>
        <trkpt lat="29.57099" lon="103.361586"><ele>1695.9469</ele><time>2026-05-28T17:59:26.000Z</time></trkpt>
        <trkpt lat="29.571036" lon="103.361619"><ele>1694.3024</ele><time>2026-05-28T17:59:34.000Z</time></trkpt>
        <trkpt lat="29.571075" lon="103.361646"><ele>1693.8552</ele><time>2026-05-28T17:59:41.000Z</time></trkpt>
        <trkpt lat="29.571116" lon="103.361673"><ele>1693.7313</ele><time>2026-05-28T17:59:48.000Z</time></trkpt>
        <trkpt lat="29.571164" lon="103.361698"><ele>1691.2229</ele><time>2026-05-28T17:59:56.000Z</time></trkpt>
        <trkpt lat="29.571208" lon="103.361724"><ele>1691.2473</ele><time>2026-05-28T18:00:02.000Z</time></trkpt>
        <trkpt lat="29.571255" lon="103.361743"><ele>1692.3065</ele><time>2026-05-28T18:00:08.000Z</time></trkpt>
        <trkpt lat="29.571308" lon="103.361743"><ele>1694.2946</ele><time>2026-05-28T18:00:23.000Z</time></trkpt>
        <trkpt lat="29.571358" lon="103.361749"><ele>1696.0603</ele><time>2026-05-28T18:00:29.000Z</time></trkpt>
        <trkpt lat="29.571408" lon="103.36176"><ele>1695.8058</ele><time>2026-05-28T18:00:34.000Z</time></trkpt>
        <trkpt lat="29.571456" lon="103.361785"><ele>1694.5964</ele><time>2026-05-28T18:00:39.000Z</time></trkpt>
        <trkpt lat="29.571499" lon="103.361804"><ele>1694.1694</ele><time>2026-05-28T18:00:44.000Z</time></trkpt>
        <trkpt lat="29.571544" lon="103.361838"><ele>1692.8112</ele><time>2026-05-28T18:00:48.000Z</time></trkpt>
        <trkpt lat="29.571584" lon="103.361881"><ele>1695.8604</ele><time>2026-05-28T18:00:52.000Z</time></trkpt>
        <trkpt lat="29.571629" lon="103.36191"><ele>1694.9696</ele><time>2026-05-28T18:00:56.000Z</time></trkpt>
        <trkpt lat="29.571675" lon="103.361909"><ele>1695.7357</ele><time>2026-05-28T18:01:00.000Z</time></trkpt>
        <trkpt lat="29.571723" lon="103.361897"><ele>1694.2089</ele><time>2026-05-28T18:01:04.000Z</time></trkpt>
        <trkpt lat="29.571772" lon="103.361874"><ele>1694.3402</ele><time>2026-05-28T18:01:09.000Z</time></trkpt>
        <trkpt lat="29.57182" lon="103.361854"><ele>1692.3167</ele><time>2026-05-28T18:01:18.000Z</time></trkpt>
        <trkpt lat="29.571866" lon="103.361838"><ele>1688.7479</ele><time>2026-05-28T18:01:30.000Z</time></trkpt>
        <trkpt lat="29.571912" lon="103.361846"><ele>1688.2384</ele><time>2026-05-28T18:01:40.000Z</time></trkpt>
        <trkpt lat="29.57196" lon="103.361836"><ele>1686.4148</ele><time>2026-05-28T18:01:52.000Z</time></trkpt>
        <trkpt lat="29.572005" lon="103.361852"><ele>1684.9512</ele><time>2026-05-28T18:02:01.000Z</time></trkpt>
        <trkpt lat="29.57205" lon="103.361837"><ele>1681.1771</ele><time>2026-05-28T18:02:14.000Z</time></trkpt>
        <trkpt lat="29.572098" lon="103.361843"><ele>1680.119</ele><time>2026-05-28T18:02:24.000Z</time></trkpt>
        <trkpt lat="29.572143" lon="103.361833"><ele>1678.9193</ele><time>2026-05-28T18:02:30.000Z</time></trkpt>
        <trkpt lat="29.572192" lon="103.361824"><ele>1676.7333</ele><time>2026-05-28T18:02:38.000Z</time></trkpt>
        <trkpt lat="29.572237" lon="103.36182"><ele>1674.601</ele><time>2026-05-28T18:02:50.000Z</time></trkpt>
        <trkpt lat="29.57227" lon="103.361782"><ele>1674.4434</ele><time>2026-05-28T18:03:03.000Z</time></trkpt>
        <trkpt lat="29.572317" lon="103.361781"><ele>1673.3539</ele><time>2026-05-28T18:03:11.000Z</time></trkpt>
        <trkpt lat="29.572351" lon="103.361747"><ele>1671.1936</ele><time>2026-05-28T18:03:22.000Z</time></trkpt>
        <trkpt lat="29.572351" lon="103.361683"><ele>1669.1451</ele><time>2026-05-28T18:04:07.000Z</time></trkpt>
        <trkpt lat="29.572388" lon="103.361722"><ele>1667.712</ele><time>2026-05-28T18:04:29.000Z</time></trkpt>
        <trkpt lat="29.572439" lon="103.361711"><ele>1662.4907</ele><time>2026-05-28T18:05:28.000Z</time></trkpt>
        <trkpt lat="29.57243" lon="103.361652"><ele>1661.3772</ele><time>2026-05-28T18:09:50.000Z</time></trkpt>
        <trkpt lat="29.572459" lon="103.361695"><ele>1660.931</ele><time>2026-05-28T18:14:48.000Z</time></trkpt>
        <trkpt lat="29.572507" lon="103.361691"><ele>1657.1649</ele><time>2026-05-28T18:14:59.000Z</time></trkpt>
        <trkpt lat="29.572555" lon="103.361665"><ele>1656.532</ele><time>2026-05-28T18:15:22.000Z</time></trkpt>
        <trkpt lat="29.572604" lon="103.361664"><ele>1655.5533</ele><time>2026-05-28T18:15:29.000Z</time></trkpt>
        <trkpt lat="29.572656" lon="103.361654"><ele>1656.556</ele><time>2026-05-28T18:15:34.000Z</time></trkpt>
        <trkpt lat="29.572702" lon="103.361655"><ele>1654.0283</ele><time>2026-05-28T18:15:39.000Z</time></trkpt>
        <trkpt lat="29.572753" lon="103.361642"><ele>1654.3073</ele><time>2026-05-28T18:15:43.000Z</time></trkpt>
        <trkpt lat="29.572803" lon="103.361629"><ele>1657.3323</ele><time>2026-05-28T18:15:48.000Z</time></trkpt>
        <trkpt lat="29.572851" lon="103.361624"><ele>1657.7583</ele><time>2026-05-28T18:15:53.000Z</time></trkpt>
        <trkpt lat="29.572897" lon="103.361634"><ele>1657.4163</ele><time>2026-05-28T18:15:56.000Z</time></trkpt>
        <trkpt lat="29.57294" lon="103.361655"><ele>1655.1929</ele><time>2026-05-28T18:16:00.000Z</time></trkpt>
        <trkpt lat="29.572985" lon="103.361686"><ele>1652.6646</ele><time>2026-05-28T18:16:06.000Z</time></trkpt>
        <trkpt lat="29.573033" lon="103.361703"><ele>1652.2775</ele><time>2026-05-28T18:16:10.000Z</time></trkpt>
        <trkpt lat="29.573064" lon="103.361744"><ele>1649.377</ele><time>2026-05-28T18:16:16.000Z</time></trkpt>
        <trkpt lat="29.573104" lon="103.361775"><ele>1647.2548</ele><time>2026-05-28T18:16:21.000Z</time></trkpt>
        <trkpt lat="29.573138" lon="103.361811"><ele>1647.6826</ele><time>2026-05-28T18:16:27.000Z</time></trkpt>
        <trkpt lat="29.573181" lon="103.361843"><ele>1646.6997</ele><time>2026-05-28T18:16:33.000Z</time></trkpt>
        <trkpt lat="29.573217" lon="103.361876"><ele>1645.2736</ele><time>2026-05-28T18:16:40.000Z</time></trkpt>
        <trkpt lat="29.573257" lon="103.361905"><ele>1644.8585</ele><time>2026-05-28T18:16:48.000Z</time></trkpt>
        <trkpt lat="29.573308" lon="103.361934"><ele>1645.5927</ele><time>2026-05-28T18:16:59.000Z</time></trkpt>
        <trkpt lat="29.573357" lon="103.361951"><ele>1642.6534</ele><time>2026-05-28T18:17:12.000Z</time></trkpt>
        <trkpt lat="29.573397" lon="103.361977"><ele>1640.3939</ele><time>2026-05-28T18:17:26.000Z</time></trkpt>
        <trkpt lat="29.573434" lon="103.362007"><ele>1634.7832</ele><time>2026-05-28T18:17:41.000Z</time></trkpt>
        <trkpt lat="29.573473" lon="103.362035"><ele>1631.3734</ele><time>2026-05-28T18:17:52.000Z</time></trkpt>
        <trkpt lat="29.573512" lon="103.362063"><ele>1628.8008</ele><time>2026-05-28T18:17:59.000Z</time></trkpt>
        <trkpt lat="29.573531" lon="103.362111"><ele>1626.2256</ele><time>2026-05-28T18:18:14.000Z</time></trkpt>
        <trkpt lat="29.573559" lon="103.362156"><ele>1624.6498</ele><time>2026-05-28T18:18:23.000Z</time></trkpt>
        <trkpt lat="29.573599" lon="103.362192"><ele>1621.3507</ele><time>2026-05-28T18:18:33.000Z</time></trkpt>
        <trkpt lat="29.573636" lon="103.362227"><ele>1621.4421</ele><time>2026-05-28T18:18:45.000Z</time></trkpt>
        <trkpt lat="29.573681" lon="103.362244"><ele>1620.772</ele><time>2026-05-28T18:18:59.000Z</time></trkpt>
        <trkpt lat="29.573713" lon="103.362283"><ele>1619.026</ele><time>2026-05-28T18:19:07.000Z</time></trkpt>
        <trkpt lat="29.573749" lon="103.362317"><ele>1617.3313</ele><time>2026-05-28T18:19:15.000Z</time></trkpt>
        <trkpt lat="29.573789" lon="103.362349"><ele>1617.1759</ele><time>2026-05-28T18:19:23.000Z</time></trkpt>
        <trkpt lat="29.573832" lon="103.36238"><ele>1616.6338</ele><time>2026-05-28T18:19:29.000Z</time></trkpt>
        <trkpt lat="29.573877" lon="103.362416"><ele>1616.5084</ele><time>2026-05-28T18:19:37.000Z</time></trkpt>
        <trkpt lat="29.573907" lon="103.362463"><ele>1614.7443</ele><time>2026-05-28T18:19:45.000Z</time></trkpt>
        <trkpt lat="29.573932" lon="103.362511"><ele>1612.5927</ele><time>2026-05-28T18:19:53.000Z</time></trkpt>
        <trkpt lat="29.573982" lon="103.362534"><ele>1611.644</ele><time>2026-05-28T18:20:01.000Z</time></trkpt>
        <trkpt lat="29.574036" lon="103.362537"><ele>1610.1115</ele><time>2026-05-28T18:20:07.000Z</time></trkpt>
        <trkpt lat="29.574085" lon="103.362548"><ele>1608.5681</ele><time>2026-05-28T18:20:13.000Z</time></trkpt>
        <trkpt lat="29.574137" lon="103.36255"><ele>1607.7175</ele><time>2026-05-28T18:20:17.000Z</time></trkpt>
        <trkpt lat="29.574183" lon="103.362542"><ele>1607.0948</ele><time>2026-05-28T18:20:22.000Z</time></trkpt>
        <trkpt lat="29.574232" lon="103.362521"><ele>1605.202</ele><time>2026-05-28T18:20:29.000Z</time></trkpt>
        <trkpt lat="29.574285" lon="103.362527"><ele>1604.1375</ele><time>2026-05-28T18:20:36.000Z</time></trkpt>
        <trkpt lat="29.574329" lon="103.362502"><ele>1605.5206</ele><time>2026-05-28T18:20:56.000Z</time></trkpt>
        <trkpt lat="29.574384" lon="103.362523"><ele>1606.5691</ele><time>2026-05-28T18:21:00.000Z</time></trkpt>
        <trkpt lat="29.574431" lon="103.362537"><ele>1606.8944</ele><time>2026-05-28T18:21:04.000Z</time></trkpt>
        <trkpt lat="29.574483" lon="103.362531"><ele>1604.9183</ele><time>2026-05-28T18:21:10.000Z</time></trkpt>
        <trkpt lat="29.574526" lon="103.362511"><ele>1606.5823</ele><time>2026-05-28T18:21:16.000Z</time></trkpt>
        <trkpt lat="29.574573" lon="103.362493"><ele>1608.554</ele><time>2026-05-28T18:21:21.000Z</time></trkpt>
        <trkpt lat="29.574624" lon="103.362489"><ele>1607.8541</ele><time>2026-05-28T18:21:26.000Z</time></trkpt>
        <trkpt lat="29.574676" lon="103.362465"><ele>1607.4707</ele><time>2026-05-28T18:21:32.000Z</time></trkpt>
        <trkpt lat="29.574723" lon="103.362454"><ele>1606.5734</ele><time>2026-05-28T18:21:39.000Z</time></trkpt>
        <trkpt lat="29.574771" lon="103.362446"><ele>1603.4694</ele><time>2026-05-28T18:21:51.000Z</time></trkpt>
        <trkpt lat="29.574814" lon="103.362472"><ele>1598.613</ele><time>2026-05-28T18:22:01.000Z</time></trkpt>
        <trkpt lat="29.574835" lon="103.36252"><ele>1597.8635</ele><time>2026-05-28T18:22:09.000Z</time></trkpt>
        <trkpt lat="29.574868" lon="103.362556"><ele>1597.3564</ele><time>2026-05-28T18:22:15.000Z</time></trkpt>
        <trkpt lat="29.574885" lon="103.362613"><ele>1595.8467</ele><time>2026-05-28T18:22:23.000Z</time></trkpt>
        <trkpt lat="29.57492" lon="103.362652"><ele>1599.1445</ele><time>2026-05-28T18:22:44.000Z</time></trkpt>
        <trkpt lat="29.574895" lon="103.362703"><ele>1595.3041</ele><time>2026-05-28T18:23:22.000Z</time></trkpt>
        <trkpt lat="29.574867" lon="103.362748"><ele>1595.3619</ele><time>2026-05-28T18:23:30.000Z</time></trkpt>
        <trkpt lat="29.574841" lon="103.362794"><ele>1598.5039</ele><time>2026-05-28T18:23:39.000Z</time></trkpt>
        <trkpt lat="29.574802" lon="103.362833"><ele>1595.6711</ele><time>2026-05-28T18:23:51.000Z</time></trkpt>
        <trkpt lat="29.574764" lon="103.362878"><ele>1594.0352</ele><time>2026-05-28T18:24:05.000Z</time></trkpt>
        <trkpt lat="29.574733" lon="103.362917"><ele>1594.6558</ele><time>2026-05-28T18:24:17.000Z</time></trkpt>
        <trkpt lat="29.574684" lon="103.362918"><ele>1591.8795</ele><time>2026-05-28T18:24:23.000Z</time></trkpt>
        <trkpt lat="29.574635" lon="103.362941"><ele>1590.0378</ele><time>2026-05-28T18:24:30.000Z</time></trkpt>
        <trkpt lat="29.574612" lon="103.36299"><ele>1590.0297</ele><time>2026-05-28T18:24:36.000Z</time></trkpt>
        <trkpt lat="29.574622" lon="103.36305"><ele>1589.0117</ele><time>2026-05-28T18:24:42.000Z</time></trkpt>
        <trkpt lat="29.574622" lon="103.36311"><ele>1586.4164</ele><time>2026-05-28T18:24:49.000Z</time></trkpt>
        <trkpt lat="29.574618" lon="103.363162"><ele>1585.9584</ele><time>2026-05-28T18:25:00.000Z</time></trkpt>
        <trkpt lat="29.57461" lon="103.363214"><ele>1580.061</ele><time>2026-05-28T18:25:27.000Z</time></trkpt>
        <trkpt lat="29.574622" lon="103.363264"><ele>1576.1554</ele><time>2026-05-28T18:25:41.000Z</time></trkpt>
        <trkpt lat="29.574605" lon="103.363314"><ele>1574.5118</ele><time>2026-05-28T18:25:50.000Z</time></trkpt>
        <trkpt lat="29.57461" lon="103.363379"><ele>1572.7482</ele><time>2026-05-28T18:25:59.000Z</time></trkpt>
        <trkpt lat="29.574618" lon="103.363437"><ele>1571.8838</ele><time>2026-05-28T18:26:05.000Z</time></trkpt>
        <trkpt lat="29.574617" lon="103.363495"><ele>1569.8749</ele><time>2026-05-28T18:26:23.000Z</time></trkpt>
        <trkpt lat="29.574629" lon="103.363547"><ele>1570.4902</ele><time>2026-05-28T18:26:29.000Z</time></trkpt>
        <trkpt lat="29.574622" lon="103.363599"><ele>1568.7832</ele><time>2026-05-28T18:26:36.000Z</time></trkpt>
        <trkpt lat="29.574633" lon="103.363652"><ele>1569.944</ele><time>2026-05-28T18:26:43.000Z</time></trkpt>
        <trkpt lat="29.57462" lon="103.363702"><ele>1568.0001</ele><time>2026-05-28T18:26:54.000Z</time></trkpt>
        <trkpt lat="29.574568" lon="103.363693"><ele>1564.6381</ele><time>2026-05-28T18:27:15.000Z</time></trkpt>
        <trkpt lat="29.574522" lon="103.363684"><ele>1564.1573</ele><time>2026-05-28T18:27:24.000Z</time></trkpt>
        <trkpt lat="29.574471" lon="103.363689"><ele>1562.4652</ele><time>2026-05-28T18:27:36.000Z</time></trkpt>
        <trkpt lat="29.574429" lon="103.363719"><ele>1561.778</ele><time>2026-05-28T18:27:47.000Z</time></trkpt>
        <trkpt lat="29.574386" lon="103.363751"><ele>1558.19</ele><time>2026-05-28T18:28:00.000Z</time></trkpt>
        <trkpt lat="29.574398" lon="103.363803"><ele>1556.8394</ele><time>2026-05-28T18:28:09.000Z</time></trkpt>
        <trkpt lat="29.574411" lon="103.363857"><ele>1552.7217</ele><time>2026-05-28T18:28:18.000Z</time></trkpt>
        <trkpt lat="29.574433" lon="103.363903"><ele>1546.7911</ele><time>2026-05-28T18:28:31.000Z</time></trkpt>
        <trkpt lat="29.57444" lon="103.363957"><ele>1544.8607</ele><time>2026-05-28T18:28:43.000Z</time></trkpt>
        <trkpt lat="29.574434" lon="103.364016"><ele>1543.898</ele><time>2026-05-28T18:28:50.000Z</time></trkpt>
        <trkpt lat="29.574452" lon="103.364068"><ele>1543.0061</ele><time>2026-05-28T18:28:55.000Z</time></trkpt>
        <trkpt lat="29.574468" lon="103.364119"><ele>1542.557</ele><time>2026-05-28T18:28:59.000Z</time></trkpt>
        <trkpt lat="29.57451" lon="103.364156"><ele>1543.3644</ele><time>2026-05-28T18:29:04.000Z</time></trkpt>
        <trkpt lat="29.57454" lon="103.364196"><ele>1540.8485</ele><time>2026-05-28T18:29:12.000Z</time></trkpt>
        <trkpt lat="29.574583" lon="103.364232"><ele>1539.1993</ele><time>2026-05-28T18:29:18.000Z</time></trkpt>
        <trkpt lat="29.574627" lon="103.364266"><ele>1538.8378</ele><time>2026-05-28T18:29:23.000Z</time></trkpt>
        <trkpt lat="29.574661" lon="103.364311"><ele>1539.1676</ele><time>2026-05-28T18:29:29.000Z</time></trkpt>
        <trkpt lat="29.574692" lon="103.364353"><ele>1537.4152</ele><time>2026-05-28T18:29:36.000Z</time></trkpt>
        <trkpt lat="29.574675" lon="103.364406"><ele>1535.2654</ele><time>2026-05-28T18:29:47.000Z</time></trkpt>
        <trkpt lat="29.574682" lon="103.364463"><ele>1534.0789</ele><time>2026-05-28T18:29:56.000Z</time></trkpt>
        <trkpt lat="29.574705" lon="103.364511"><ele>1531.7822</ele><time>2026-05-28T18:30:06.000Z</time></trkpt>
        <trkpt lat="29.574748" lon="103.364537"><ele>1528.986</ele><time>2026-05-28T18:30:19.000Z</time></trkpt>
        <trkpt lat="29.574781" lon="103.364577"><ele>1525.4518</ele><time>2026-05-28T18:30:32.000Z</time></trkpt>
        <trkpt lat="29.574815" lon="103.364616"><ele>1521.0398</ele><time>2026-05-28T18:30:53.000Z</time></trkpt>
        <trkpt lat="29.574835" lon="103.364662"><ele>1517.3584</ele><time>2026-05-28T18:31:08.000Z</time></trkpt>
        <trkpt lat="29.57486" lon="103.364706"><ele>1514.1605</ele><time>2026-05-28T18:31:21.000Z</time></trkpt>
        <trkpt lat="29.574894" lon="103.364745"><ele>1512.5741</ele><time>2026-05-28T18:31:32.000Z</time></trkpt>
        <trkpt lat="29.574921" lon="103.364788"><ele>1511.3654</ele><time>2026-05-28T18:31:39.000Z</time></trkpt>
        <trkpt lat="29.574951" lon="103.364828"><ele>1507.1055</ele><time>2026-05-28T18:31:52.000Z</time></trkpt>
        <trkpt lat="29.574977" lon="103.364877"><ele>1501.582</ele><time>2026-05-28T18:32:05.000Z</time></trkpt>
        <trkpt lat="29.574995" lon="103.364929"><ele>1497.8795</ele><time>2026-05-28T18:32:17.000Z</time></trkpt>
        <trkpt lat="29.575" lon="103.36499"><ele>1496.4248</ele><time>2026-05-28T18:32:25.000Z</time></trkpt>
        <trkpt lat="29.574996" lon="103.365043"><ele>1496.5535</ele><time>2026-05-28T18:32:30.000Z</time></trkpt>
        <trkpt lat="29.575025" lon="103.365091"><ele>1495.3739</ele><time>2026-05-28T18:32:37.000Z</time></trkpt>
        <trkpt lat="29.575038" lon="103.365144"><ele>1494.4094</ele><time>2026-05-28T18:32:44.000Z</time></trkpt>
        <trkpt lat="29.575087" lon="103.36518"><ele>1495.1793</ele><time>2026-05-28T18:32:51.000Z</time></trkpt>
        <trkpt lat="29.575129" lon="103.365217"><ele>1493.3148</ele><time>2026-05-28T18:33:02.000Z</time></trkpt>
        <trkpt lat="29.575165" lon="103.365249"><ele>1492.309</ele><time>2026-05-28T18:33:12.000Z</time></trkpt>
        <trkpt lat="29.575176" lon="103.365312"><ele>1488.5784</ele><time>2026-05-28T18:34:05.000Z</time></trkpt>
        <trkpt lat="29.575223" lon="103.365321"><ele>1483.3619</ele><time>2026-05-28T18:36:05.000Z</time></trkpt>
        <trkpt lat="29.575268" lon="103.365359"><ele>1480.4229</ele><time>2026-05-28T18:36:17.000Z</time></trkpt>
        <trkpt lat="29.575294" lon="103.365405"><ele>1481.7681</ele><time>2026-05-28T18:36:24.000Z</time></trkpt>
        <trkpt lat="29.575343" lon="103.365423"><ele>1480.124</ele><time>2026-05-28T18:36:36.000Z</time></trkpt>
        <trkpt lat="29.575386" lon="103.365448"><ele>1473.4648</ele><time>2026-05-28T18:36:55.000Z</time></trkpt>
        <trkpt lat="29.575406" lon="103.365495"><ele>1472.4598</ele><time>2026-05-28T18:37:04.000Z</time></trkpt>
        <trkpt lat="29.575449" lon="103.365513"><ele>1467.7733</ele><time>2026-05-28T18:40:14.000Z</time></trkpt>
        <trkpt lat="29.575497" lon="103.365536"><ele>1468.018</ele><time>2026-05-28T18:40:25.000Z</time></trkpt>
        <trkpt lat="29.575541" lon="103.365556"><ele>1470.8038</ele><time>2026-05-28T18:40:35.000Z</time></trkpt>
        <trkpt lat="29.575581" lon="103.36558"><ele>1466.138</ele><time>2026-05-28T18:40:47.000Z</time></trkpt>
        <trkpt lat="29.575599" lon="103.365629"><ele>1464.9855</ele><time>2026-05-28T18:40:57.000Z</time></trkpt>
        <trkpt lat="29.575638" lon="103.365671"><ele>1466.1621</ele><time>2026-05-28T18:41:05.000Z</time></trkpt>
        <trkpt lat="29.575683" lon="103.36568"><ele>1465.0579</ele><time>2026-05-28T18:41:30.000Z</time></trkpt>
        <trkpt lat="29.575726" lon="103.365698"><ele>1464.3795</ele><time>2026-05-28T18:41:39.000Z</time></trkpt>
        <trkpt lat="29.57574" lon="103.365748"><ele>1464.3812</ele><time>2026-05-28T18:41:50.000Z</time></trkpt>
        <trkpt lat="29.575772" lon="103.365786"><ele>1467.7402</ele><time>2026-05-28T18:43:28.000Z</time></trkpt>
        <trkpt lat="29.575817" lon="103.365813"><ele>1465.2059</ele><time>2026-05-28T18:46:15.000Z</time></trkpt>
        <trkpt lat="29.575858" lon="103.365842"><ele>1466.736</ele><time>2026-05-28T18:46:23.000Z</time></trkpt>
        <trkpt lat="29.575907" lon="103.36584"><ele>1469.1698</ele><time>2026-05-28T18:46:32.000Z</time></trkpt>
        <trkpt lat="29.575948" lon="103.365868"><ele>1471.695</ele><time>2026-05-28T18:46:39.000Z</time></trkpt>
        <trkpt lat="29.575984" lon="103.365902"><ele>1470.65</ele><time>2026-05-28T18:46:47.000Z</time></trkpt>
        <trkpt lat="29.576039" lon="103.36593"><ele>1468.7175</ele><time>2026-05-28T18:46:57.000Z</time></trkpt>
        <trkpt lat="29.576076" lon="103.365961"><ele>1474.9736</ele><time>2026-05-28T18:47:08.000Z</time></trkpt>
        <trkpt lat="29.576112" lon="103.366002"><ele>1480.192</ele><time>2026-05-28T18:47:23.000Z</time></trkpt>
        <trkpt lat="29.576134" lon="103.366054"><ele>1483.9762</ele><time>2026-05-28T18:47:32.000Z</time></trkpt>
        <trkpt lat="29.57618" lon="103.366081"><ele>1481.7909</ele><time>2026-05-28T18:47:52.000Z</time></trkpt>
        <trkpt lat="29.576229" lon="103.366109"><ele>1478.3379</ele><time>2026-05-28T18:48:00.000Z</time></trkpt>
        <trkpt lat="29.576221" lon="103.366166"><ele>1479.4677</ele><time>2026-05-28T18:48:09.000Z</time></trkpt>
        <trkpt lat="29.576217" lon="103.366218"><ele>1488.6982</ele><time>2026-05-28T18:48:25.000Z</time></trkpt>
        <trkpt lat="29.576218" lon="103.36628"><ele>1488.1775</ele><time>2026-05-28T18:48:38.000Z</time></trkpt>
        <trkpt lat="29.576222" lon="103.366336"><ele>1493.1775</ele><time>2026-05-28T18:48:48.000Z</time></trkpt>
        <trkpt lat="29.576241" lon="103.366395"><ele>1497.6174</ele><time>2026-05-28T18:48:59.000Z</time></trkpt>
        <trkpt lat="29.576267" lon="103.366439"><ele>1501.6095</ele><time>2026-05-28T18:49:09.000Z</time></trkpt>
        <trkpt lat="29.576285" lon="103.366493"><ele>1501.1685</ele><time>2026-05-28T18:49:21.000Z</time></trkpt>
        <trkpt lat="29.576318" lon="103.366529"><ele>1499.773</ele><time>2026-05-28T18:49:28.000Z</time></trkpt>
        <trkpt lat="29.576338" lon="103.366586"><ele>1499.8113</ele><time>2026-05-28T18:49:33.000Z</time></trkpt>
        <trkpt lat="29.57636" lon="103.366634"><ele>1499.0621</ele><time>2026-05-28T18:49:36.000Z</time></trkpt>
        <trkpt lat="29.576385" lon="103.366692"><ele>1498.7466</ele><time>2026-05-28T18:49:40.000Z</time></trkpt>
        <trkpt lat="29.576405" lon="103.366744"><ele>1497.582</ele><time>2026-05-28T18:49:43.000Z</time></trkpt>
        <trkpt lat="29.576438" lon="103.366795"><ele>1500.0894</ele><time>2026-05-28T18:49:49.000Z</time></trkpt>
        <trkpt lat="29.576477" lon="103.366825"><ele>1499.5599</ele><time>2026-05-28T18:49:54.000Z</time></trkpt>
        <trkpt lat="29.576516" lon="103.366855"><ele>1498.7932</ele><time>2026-05-28T18:49:58.000Z</time></trkpt>
        <trkpt lat="29.576551" lon="103.366899"><ele>1498.5806</ele><time>2026-05-28T18:50:04.000Z</time></trkpt>
        <trkpt lat="29.576579" lon="103.366946"><ele>1499.8285</ele><time>2026-05-28T18:50:09.000Z</time></trkpt>
        <trkpt lat="29.576622" lon="103.366983"><ele>1501.6418</ele><time>2026-05-28T18:50:14.000Z</time></trkpt>
        <trkpt lat="29.57665" lon="103.367029"><ele>1499.474</ele><time>2026-05-28T18:50:19.000Z</time></trkpt>
        <trkpt lat="29.576674" lon="103.36708"><ele>1498.1843</ele><time>2026-05-28T18:50:25.000Z</time></trkpt>
        <trkpt lat="29.576692" lon="103.367134"><ele>1500.1827</ele><time>2026-05-28T18:50:33.000Z</time></trkpt>
        <trkpt lat="29.576716" lon="103.367193"><ele>1500.5222</ele><time>2026-05-28T18:50:37.000Z</time></trkpt>
        <trkpt lat="29.576734" lon="103.367241"><ele>1497.7842</ele><time>2026-05-28T18:50:41.000Z</time></trkpt>
        <trkpt lat="29.576771" lon="103.367283"><ele>1501.3887</ele><time>2026-05-28T18:50:46.000Z</time></trkpt>
        <trkpt lat="29.576803" lon="103.367325"><ele>1496.0283</ele><time>2026-05-28T18:50:51.000Z</time></trkpt>
        <trkpt lat="29.576846" lon="103.367346"><ele>1493.7748</ele><time>2026-05-28T18:50:56.000Z</time></trkpt>
        <trkpt lat="29.576894" lon="103.367327"><ele>1503.1868</ele><time>2026-05-28T18:51:00.000Z</time></trkpt>
        <trkpt lat="29.576928" lon="103.367363"><ele>1502.4705</ele><time>2026-05-28T18:51:07.000Z</time></trkpt>
        <trkpt lat="29.576963" lon="103.367405"><ele>1500.5497</ele><time>2026-05-28T18:51:12.000Z</time></trkpt>
        <trkpt lat="29.577" lon="103.367449"><ele>1504.5177</ele><time>2026-05-28T18:51:27.000Z</time></trkpt>
        <trkpt lat="29.577025" lon="103.367493"><ele>1504.4833</ele><time>2026-05-28T18:51:33.000Z</time></trkpt>
        <trkpt lat="29.577054" lon="103.36755"><ele>1502.4908</ele><time>2026-05-28T18:51:39.000Z</time></trkpt>
        <trkpt lat="29.577096" lon="103.367585"><ele>1500.1365</ele><time>2026-05-28T18:51:45.000Z</time></trkpt>
        <trkpt lat="29.577108" lon="103.367637"><ele>1500.4519</ele><time>2026-05-28T18:51:49.000Z</time></trkpt>
        <trkpt lat="29.577159" lon="103.367668"><ele>1501.9042</ele><time>2026-05-28T18:51:57.000Z</time></trkpt>
        <trkpt lat="29.577202" lon="103.367697"><ele>1507.1046</ele><time>2026-05-28T18:52:08.000Z</time></trkpt>
        <trkpt lat="29.577216" lon="103.367752"><ele>1507.4382</ele><time>2026-05-28T18:52:24.000Z</time></trkpt>
        <trkpt lat="29.577205" lon="103.367805"><ele>1503.6387</ele><time>2026-05-28T18:52:56.000Z</time></trkpt>
        <trkpt lat="29.577183" lon="103.367857"><ele>1504.0502</ele><time>2026-05-28T18:53:11.000Z</time></trkpt>
        <trkpt lat="29.577181" lon="103.36791"><ele>1502.6677</ele><time>2026-05-28T18:53:24.000Z</time></trkpt>
        <trkpt lat="29.577154" lon="103.367957"><ele>1501.6483</ele><time>2026-05-28T18:53:36.000Z</time></trkpt>
        <trkpt lat="29.57712" lon="103.367995"><ele>1501.6687</ele><time>2026-05-28T18:53:48.000Z</time></trkpt>
        <trkpt lat="29.577081" lon="103.368028"><ele>1501.9779</ele><time>2026-05-28T18:54:05.000Z</time></trkpt>
        <trkpt lat="29.577053" lon="103.368075"><ele>1502.2379</ele><time>2026-05-28T18:54:17.000Z</time></trkpt>
        <trkpt lat="29.57703" lon="103.368125"><ele>1498.1277</ele><time>2026-05-28T18:54:27.000Z</time></trkpt>
        <trkpt lat="29.577022" lon="103.368178"><ele>1493.8445</ele><time>2026-05-28T18:54:44.000Z</time></trkpt>
        <trkpt lat="29.577005" lon="103.36823"><ele>1495.2428</ele><time>2026-05-28T18:54:52.000Z</time></trkpt>
        <trkpt lat="29.576995" lon="103.368287"><ele>1493.5293</ele><time>2026-05-28T18:55:01.000Z</time></trkpt>
        <trkpt lat="29.576996" lon="103.368348"><ele>1489.9915</ele><time>2026-05-28T18:55:07.000Z</time></trkpt>
        <trkpt lat="29.57698" lon="103.368397"><ele>1484.1912</ele><time>2026-05-28T18:55:16.000Z</time></trkpt>
        <trkpt lat="29.57697" lon="103.368454"><ele>1481.0142</ele><time>2026-05-28T18:55:23.000Z</time></trkpt>
        <trkpt lat="29.576963" lon="103.368509"><ele>1481.2329</ele><time>2026-05-28T18:55:28.000Z</time></trkpt>
        <trkpt lat="29.57696" lon="103.368563"><ele>1478.5713</ele><time>2026-05-28T18:55:34.000Z</time></trkpt>
        <trkpt lat="29.576944" lon="103.368615"><ele>1480.0981</ele><time>2026-05-28T18:55:39.000Z</time></trkpt>
        <trkpt lat="29.576943" lon="103.368668"><ele>1479.083</ele><time>2026-05-28T18:55:45.000Z</time></trkpt>
        <trkpt lat="29.576936" lon="103.36872"><ele>1480.714</ele><time>2026-05-28T18:55:59.000Z</time></trkpt>
        <trkpt lat="29.576944" lon="103.368774"><ele>1478.85</ele><time>2026-05-28T18:56:04.000Z</time></trkpt>
        <trkpt lat="29.576934" lon="103.368834"><ele>1480.6602</ele><time>2026-05-28T18:56:19.000Z</time></trkpt>
        <trkpt lat="29.576934" lon="103.368897"><ele>1479.7036</ele><time>2026-05-28T18:56:26.000Z</time></trkpt>
        <trkpt lat="29.576941" lon="103.368956"><ele>1476.7299</ele><time>2026-05-28T18:56:36.000Z</time></trkpt>
        <trkpt lat="29.576932" lon="103.369012"><ele>1477.6401</ele><time>2026-05-28T18:56:43.000Z</time></trkpt>
        <trkpt lat="29.576929" lon="103.369071"><ele>1476.4406</ele><time>2026-05-28T18:56:49.000Z</time></trkpt>
        <trkpt lat="29.576921" lon="103.369129"><ele>1475.1287</ele><time>2026-05-28T18:56:55.000Z</time></trkpt>
        <trkpt lat="29.576909" lon="103.36918"><ele>1474.4465</ele><time>2026-05-28T18:57:01.000Z</time></trkpt>
        <trkpt lat="29.576914" lon="103.369238"><ele>1474.3845</ele><time>2026-05-28T18:57:09.000Z</time></trkpt>
        <trkpt lat="29.576915" lon="103.369293"><ele>1474.0636</ele><time>2026-05-28T18:57:16.000Z</time></trkpt>
        <trkpt lat="29.576919" lon="103.369347"><ele>1473.8901</ele><time>2026-05-28T18:57:22.000Z</time></trkpt>
        <trkpt lat="29.576919" lon="103.369416"><ele>1474.202</ele><time>2026-05-28T18:57:28.000Z</time></trkpt>
        <trkpt lat="29.576939" lon="103.369472"><ele>1474.6265</ele><time>2026-05-28T18:57:33.000Z</time></trkpt>
        <trkpt lat="29.576928" lon="103.369522"><ele>1473.9949</ele><time>2026-05-28T18:57:37.000Z</time></trkpt>
        <trkpt lat="29.576938" lon="103.369578"><ele>1471.3463</ele><time>2026-05-28T18:57:43.000Z</time></trkpt>
        <trkpt lat="29.576923" lon="103.369634"><ele>1471.4443</ele><time>2026-05-28T18:57:47.000Z</time></trkpt>
        <trkpt lat="29.576918" lon="103.369689"><ele>1470.9816</ele><time>2026-05-28T18:57:52.000Z</time></trkpt>
        <trkpt lat="29.576929" lon="103.369745"><ele>1471.6113</ele><time>2026-05-28T18:57:56.000Z</time></trkpt>
        <trkpt lat="29.576933" lon="103.3698"><ele>1471.0702</ele><time>2026-05-28T18:58:01.000Z</time></trkpt>
        <trkpt lat="29.576936" lon="103.36986"><ele>1468.7742</ele><time>2026-05-28T18:58:07.000Z</time></trkpt>
        <trkpt lat="29.576937" lon="103.369914"><ele>1468.7242</ele><time>2026-05-28T18:58:14.000Z</time></trkpt>
        <trkpt lat="29.576933" lon="103.369966"><ele>1469.5012</ele><time>2026-05-28T18:58:21.000Z</time></trkpt>
        <trkpt lat="29.576944" lon="103.370022"><ele>1469.0824</ele><time>2026-05-28T18:58:28.000Z</time></trkpt>
        <trkpt lat="29.576979" lon="103.370068"><ele>1471.0375</ele><time>2026-05-28T18:58:37.000Z</time></trkpt>
        <trkpt lat="29.577011" lon="103.37012"><ele>1470.6411</ele><time>2026-05-28T18:58:43.000Z</time></trkpt>
        <trkpt lat="29.577039" lon="103.370165"><ele>1471.2683</ele><time>2026-05-28T18:58:48.000Z</time></trkpt>
        <trkpt lat="29.57705" lon="103.370228"><ele>1469.1637</ele><time>2026-05-28T18:58:53.000Z</time></trkpt>
        <trkpt lat="29.577073" lon="103.370287"><ele>1470.0406</ele><time>2026-05-28T18:58:58.000Z</time></trkpt>
        <trkpt lat="29.577104" lon="103.370342"><ele>1469.8287</ele><time>2026-05-28T18:59:03.000Z</time></trkpt>
        <trkpt lat="29.57714" lon="103.370376"><ele>1465.4684</ele><time>2026-05-28T18:59:32.000Z</time></trkpt>
        <trkpt lat="29.577178" lon="103.37041"><ele>1467.2936</ele><time>2026-05-28T18:59:56.000Z</time></trkpt>
        <trkpt lat="29.577217" lon="103.370438"><ele>1470.4337</ele><time>2026-05-28T19:00:00.000Z</time></trkpt>
        <trkpt lat="29.577257" lon="103.370469"><ele>1472.5957</ele><time>2026-05-28T19:00:10.000Z</time></trkpt>
        <trkpt lat="29.577299" lon="103.370513"><ele>1471.5134</ele><time>2026-05-28T19:00:16.000Z</time></trkpt>
        <trkpt lat="29.577308" lon="103.370572"><ele>1468.0127</ele><time>2026-05-28T19:00:23.000Z</time></trkpt>
        <trkpt lat="29.577349" lon="103.370614"><ele>1467.9076</ele><time>2026-05-28T19:00:29.000Z</time></trkpt>
        <trkpt lat="29.577392" lon="103.370649"><ele>1469.4799</ele><time>2026-05-28T19:00:43.000Z</time></trkpt>
        <trkpt lat="29.577433" lon="103.37069"><ele>1468.5391</ele><time>2026-05-28T19:00:49.000Z</time></trkpt>
        <trkpt lat="29.577459" lon="103.37074"><ele>1467.0184</ele><time>2026-05-28T19:00:57.000Z</time></trkpt>
        <trkpt lat="29.577441" lon="103.370792"><ele>1467.025</ele><time>2026-05-28T19:01:06.000Z</time></trkpt>
        <trkpt lat="29.577423" lon="103.370842"><ele>1468.1392</ele><time>2026-05-28T19:01:13.000Z</time></trkpt>
        <trkpt lat="29.577451" lon="103.370904"><ele>1469.1895</ele><time>2026-05-28T19:01:20.000Z</time></trkpt>
        <trkpt lat="29.57749" lon="103.370935"><ele>1469.838</ele><time>2026-05-28T19:01:27.000Z</time></trkpt>
        <trkpt lat="29.57753" lon="103.370895"><ele>1466.667</ele><time>2026-05-28T19:03:50.000Z</time></trkpt>
        <trkpt lat="29.577496" lon="103.370931"><ele>1470.5066</ele><time>2026-05-28T19:04:43.000Z</time></trkpt>
        <trkpt lat="29.577452" lon="103.370901"><ele>1467.4879</ele><time>2026-05-28T19:08:01.000Z</time></trkpt>
        <trkpt lat="29.577406" lon="103.370887"><ele>1466.1464</ele><time>2026-05-28T19:08:29.000Z</time></trkpt>
        <trkpt lat="29.57744" lon="103.370852"><ele>1464.9258</ele><time>2026-05-28T19:08:44.000Z</time></trkpt>
        <trkpt lat="29.577429" lon="103.370902"><ele>1467.9838</ele><time>2026-05-28T19:08:57.000Z</time></trkpt>
        <trkpt lat="29.57748" lon="103.370929"><ele>1468.6946</ele><time>2026-05-28T19:09:22.000Z</time></trkpt>
        <trkpt lat="29.57744" lon="103.370955"><ele>1469.3762</ele><time>2026-05-28T19:11:22.000Z</time></trkpt>
        <trkpt lat="29.577399" lon="103.37099"><ele>1467.9214</ele><time>2026-05-28T19:11:26.000Z</time></trkpt>
        <trkpt lat="29.577349" lon="103.370988"><ele>1467.7329</ele><time>2026-05-28T19:11:57.000Z</time></trkpt>
        <trkpt lat="29.577393" lon="103.371008"><ele>1466.7438</ele><time>2026-05-28T19:12:57.000Z</time></trkpt>
        <trkpt lat="29.577438" lon="103.371026"><ele>1467.2206</ele><time>2026-05-28T19:13:16.000Z</time></trkpt>
        <trkpt lat="29.577483" lon="103.371052"><ele>1467.778</ele><time>2026-05-28T19:13:21.000Z</time></trkpt>
        <trkpt lat="29.577529" lon="103.371064"><ele>1465.3955</ele><time>2026-05-28T19:13:30.000Z</time></trkpt>
        <trkpt lat="29.577572" lon="103.371092"><ele>1466.3611</ele><time>2026-05-28T19:13:37.000Z</time></trkpt>
        <trkpt lat="29.577623" lon="103.371093"><ele>1466.503</ele><time>2026-05-28T19:14:28.000Z</time></trkpt>
        <trkpt lat="29.577671" lon="103.371107"><ele>1463.1014</ele><time>2026-05-28T19:14:43.000Z</time></trkpt>
        <trkpt lat="29.577689" lon="103.371156"><ele>1459.4489</ele><time>2026-05-28T19:15:43.000Z</time></trkpt>
        <trkpt lat="29.577728" lon="103.371184"><ele>1460.5209</ele><time>2026-05-28T19:15:50.000Z</time></trkpt>
        <trkpt lat="29.577756" lon="103.371228"><ele>1460.5264</ele><time>2026-05-28T19:16:00.000Z</time></trkpt>
        <trkpt lat="29.577804" lon="103.371216"><ele>1457.373</ele><time>2026-05-28T19:16:38.000Z</time></trkpt>
        <trkpt lat="29.577816" lon="103.371273"><ele>1456.5743</ele><time>2026-05-28T19:17:52.000Z</time></trkpt>
        <trkpt lat="29.577843" lon="103.371325"><ele>1457.2948</ele><time>2026-05-28T19:18:03.000Z</time></trkpt>
        <trkpt lat="29.577882" lon="103.371357"><ele>1454.5765</ele><time>2026-05-28T19:18:15.000Z</time></trkpt>
        <trkpt lat="29.577925" lon="103.371374"><ele>1453.287</ele><time>2026-05-28T19:18:26.000Z</time></trkpt>
        <trkpt lat="29.577971" lon="103.371392"><ele>1449.207</ele><time>2026-05-28T19:18:37.000Z</time></trkpt>
        <trkpt lat="29.578009" lon="103.371423"><ele>1447.1786</ele><time>2026-05-28T19:18:49.000Z</time></trkpt>
        <trkpt lat="29.578054" lon="103.371439"><ele>1443.4951</ele><time>2026-05-28T19:19:01.000Z</time></trkpt>
        <trkpt lat="29.578092" lon="103.371471"><ele>1443.073</ele><time>2026-05-28T19:19:09.000Z</time></trkpt>
        <trkpt lat="29.578115" lon="103.371516"><ele>1441.7529</ele><time>2026-05-28T19:19:19.000Z</time></trkpt>
        <trkpt lat="29.578147" lon="103.37156"><ele>1440.1659</ele><time>2026-05-28T19:19:30.000Z</time></trkpt>
        <trkpt lat="29.578194" lon="103.371566"><ele>1438.0461</ele><time>2026-05-28T19:19:46.000Z</time></trkpt>
        <trkpt lat="29.578231" lon="103.371601"><ele>1435.1202</ele><time>2026-05-28T19:19:54.000Z</time></trkpt>
        <trkpt lat="29.578274" lon="103.371626"><ele>1434.5171</ele><time>2026-05-28T19:20:04.000Z</time></trkpt>
        <trkpt lat="29.578312" lon="103.371659"><ele>1434.0842</ele><time>2026-05-28T19:20:12.000Z</time></trkpt>
        <trkpt lat="29.578346" lon="103.371707"><ele>1431.4546</ele><time>2026-05-28T19:20:18.000Z</time></trkpt>
        <trkpt lat="29.578374" lon="103.37175"><ele>1429.192</ele><time>2026-05-28T19:20:24.000Z</time></trkpt>
        <trkpt lat="29.578404" lon="103.3718"><ele>1429.0651</ele><time>2026-05-28T19:20:33.000Z</time></trkpt>
        <trkpt lat="29.578422" lon="103.371849"><ele>1428.0084</ele><time>2026-05-28T19:20:39.000Z</time></trkpt>
        <trkpt lat="29.578449" lon="103.371891"><ele>1426.4191</ele><time>2026-05-28T19:20:48.000Z</time></trkpt>
        <trkpt lat="29.578471" lon="103.371938"><ele>1428.1135</ele><time>2026-05-28T19:20:59.000Z</time></trkpt>
        <trkpt lat="29.578506" lon="103.371984"><ele>1426.7715</ele><time>2026-05-28T19:21:10.000Z</time></trkpt>
        <trkpt lat="29.578546" lon="103.372014"><ele>1424.7194</ele><time>2026-05-28T19:21:18.000Z</time></trkpt>
        <trkpt lat="29.578586" lon="103.37204"><ele>1421.376</ele><time>2026-05-28T19:21:32.000Z</time></trkpt>
        <trkpt lat="29.578625" lon="103.372073"><ele>1419.6266</ele><time>2026-05-28T19:21:45.000Z</time></trkpt>
        <trkpt lat="29.578647" lon="103.372119"><ele>1418.441</ele><time>2026-05-28T19:21:53.000Z</time></trkpt>
        <trkpt lat="29.578668" lon="103.372174"><ele>1419.6123</ele><time>2026-05-28T19:22:00.000Z</time></trkpt>
        <trkpt lat="29.578707" lon="103.372213"><ele>1420.051</ele><time>2026-05-28T19:22:05.000Z</time></trkpt>
        <trkpt lat="29.578742" lon="103.372246"><ele>1421.2367</ele><time>2026-05-28T19:22:09.000Z</time></trkpt>
        <trkpt lat="29.578786" lon="103.372277"><ele>1421.0245</ele><time>2026-05-28T19:22:14.000Z</time></trkpt>
        <trkpt lat="29.57883" lon="103.372301"><ele>1421.867</ele><time>2026-05-28T19:22:21.000Z</time></trkpt>
        <trkpt lat="29.578875" lon="103.37233"><ele>1420.41</ele><time>2026-05-28T19:22:28.000Z</time></trkpt>
        <trkpt lat="29.578916" lon="103.372362"><ele>1418.8778</ele><time>2026-05-28T19:22:39.000Z</time></trkpt>
        <trkpt lat="29.578955" lon="103.372393"><ele>1415.1625</ele><time>2026-05-28T19:22:51.000Z</time></trkpt>
        <trkpt lat="29.578986" lon="103.372432"><ele>1413.5917</ele><time>2026-05-28T19:23:00.000Z</time></trkpt>
        <trkpt lat="29.579005" lon="103.372485"><ele>1414.0126</ele><time>2026-05-28T19:23:11.000Z</time></trkpt>
        <trkpt lat="29.579044" lon="103.37251"><ele>1415.328</ele><time>2026-05-28T19:23:17.000Z</time></trkpt>
        <trkpt lat="29.579095" lon="103.372496"><ele>1413.3529</ele><time>2026-05-28T19:23:22.000Z</time></trkpt>
        <trkpt lat="29.579147" lon="103.372494"><ele>1411.2625</ele><time>2026-05-28T19:23:28.000Z</time></trkpt>
        <trkpt lat="29.579197" lon="103.37252"><ele>1408.931</ele><time>2026-05-28T19:23:35.000Z</time></trkpt>
        <trkpt lat="29.57923" lon="103.372559"><ele>1404.7137</ele><time>2026-05-28T19:23:45.000Z</time></trkpt>
        <trkpt lat="29.579274" lon="103.372582"><ele>1404.1013</ele><time>2026-05-28T19:23:53.000Z</time></trkpt>
        <trkpt lat="29.579312" lon="103.372618"><ele>1403.2638</ele><time>2026-05-28T19:24:03.000Z</time></trkpt>
        <trkpt lat="29.579348" lon="103.372663"><ele>1401.5625</ele><time>2026-05-28T19:24:10.000Z</time></trkpt>
        <trkpt lat="29.579375" lon="103.372711"><ele>1400.2236</ele><time>2026-05-28T19:24:21.000Z</time></trkpt>
        <trkpt lat="29.579408" lon="103.372757"><ele>1399.859</ele><time>2026-05-28T19:24:28.000Z</time></trkpt>
        <trkpt lat="29.579435" lon="103.372802"><ele>1399.2281</ele><time>2026-05-28T19:24:35.000Z</time></trkpt>
        <trkpt lat="29.57948" lon="103.372832"><ele>1398.9359</ele><time>2026-05-28T19:24:45.000Z</time></trkpt>
        <trkpt lat="29.57953" lon="103.372842"><ele>1396.3491</ele><time>2026-05-28T19:24:51.000Z</time></trkpt>
        <trkpt lat="29.579576" lon="103.372823"><ele>1395.3655</ele><time>2026-05-28T19:25:00.000Z</time></trkpt>
        <trkpt lat="29.579621" lon="103.372836"><ele>1394.2302</ele><time>2026-05-28T19:25:09.000Z</time></trkpt>
        <trkpt lat="29.579639" lon="103.372888"><ele>1393.3314</ele><time>2026-05-28T19:25:23.000Z</time></trkpt>
        <trkpt lat="29.579675" lon="103.372932"><ele>1388.9875</ele><time>2026-05-28T19:25:36.000Z</time></trkpt>
        <trkpt lat="29.57972" lon="103.372957"><ele>1386.0438</ele><time>2026-05-28T19:25:47.000Z</time></trkpt>
        <trkpt lat="29.579751" lon="103.373004"><ele>1382.538</ele><time>2026-05-28T19:26:04.000Z</time></trkpt>
        <trkpt lat="29.579777" lon="103.373047"><ele>1379.1099</ele><time>2026-05-28T19:26:21.000Z</time></trkpt>
        <trkpt lat="29.579793" lon="103.373097"><ele>1377.5533</ele><time>2026-05-28T19:26:33.000Z</time></trkpt>
        <trkpt lat="29.579829" lon="103.373131"><ele>1374.6696</ele><time>2026-05-28T19:26:42.000Z</time></trkpt>
        <trkpt lat="29.579869" lon="103.37316"><ele>1371.8643</ele><time>2026-05-28T19:26:52.000Z</time></trkpt>
        <trkpt lat="29.579908" lon="103.373193"><ele>1371.2252</ele><time>2026-05-28T19:27:09.000Z</time></trkpt>
        <trkpt lat="29.579947" lon="103.373224"><ele>1369.5704</ele><time>2026-05-28T19:27:20.000Z</time></trkpt>
        <trkpt lat="29.57998" lon="103.373259"><ele>1367.6241</ele><time>2026-05-28T19:27:30.000Z</time></trkpt>
        <trkpt lat="29.580008" lon="103.373305"><ele>1367.5386</ele><time>2026-05-28T19:27:43.000Z</time></trkpt>
        <trkpt lat="29.580035" lon="103.373347"><ele>1365.618</ele><time>2026-05-28T19:27:53.000Z</time></trkpt>
        <trkpt lat="29.580077" lon="103.373381"><ele>1364.3917</ele><time>2026-05-28T19:28:03.000Z</time></trkpt>
        <trkpt lat="29.580106" lon="103.373424"><ele>1365.072</ele><time>2026-05-28T19:28:12.000Z</time></trkpt>
        <trkpt lat="29.580147" lon="103.373452"><ele>1362.4055</ele><time>2026-05-28T19:28:45.000Z</time></trkpt>
        <trkpt lat="29.580185" lon="103.373487"><ele>1360.5721</ele><time>2026-05-28T19:28:49.000Z</time></trkpt>
        <trkpt lat="29.580214" lon="103.373532"><ele>1358.649</ele><time>2026-05-28T19:28:55.000Z</time></trkpt>
        <trkpt lat="29.580248" lon="103.373575"><ele>1356.7621</ele><time>2026-05-28T19:29:00.000Z</time></trkpt>
        <trkpt lat="29.58028" lon="103.373615"><ele>1356.8503</ele><time>2026-05-28T19:29:05.000Z</time></trkpt>
        <trkpt lat="29.580321" lon="103.373653"><ele>1356.4716</ele><time>2026-05-28T19:29:10.000Z</time></trkpt>
        <trkpt lat="29.580358" lon="103.373688"><ele>1356.2566</ele><time>2026-05-28T19:29:17.000Z</time></trkpt>
        <trkpt lat="29.580397" lon="103.373713"><ele>1355.5763</ele><time>2026-05-28T19:29:50.000Z</time></trkpt>
        <trkpt lat="29.58044" lon="103.373744"><ele>1358.7866</ele><time>2026-05-28T19:30:02.000Z</time></trkpt>
        <trkpt lat="29.58047" lon="103.373783"><ele>1356.3064</ele><time>2026-05-28T19:30:50.000Z</time></trkpt>
        <trkpt lat="29.58051" lon="103.373808"><ele>1357.191</ele><time>2026-05-28T19:31:09.000Z</time></trkpt>
        <trkpt lat="29.580557" lon="103.37383"><ele>1354.0308</ele><time>2026-05-28T19:31:25.000Z</time></trkpt>
        <trkpt lat="29.580577" lon="103.373876"><ele>1349.3075</ele><time>2026-05-28T19:31:36.000Z</time></trkpt>
        <trkpt lat="29.580599" lon="103.373922"><ele>1347.6913</ele><time>2026-05-28T19:31:44.000Z</time></trkpt>
        <trkpt lat="29.580632" lon="103.37396"><ele>1348.1224</ele><time>2026-05-28T19:31:52.000Z</time></trkpt>
        <trkpt lat="29.580652" lon="103.374009"><ele>1349.6243</ele><time>2026-05-28T19:32:03.000Z</time></trkpt>
        <trkpt lat="29.58067" lon="103.374059"><ele>1348.2642</ele><time>2026-05-28T19:32:20.000Z</time></trkpt>
        <trkpt lat="29.580667" lon="103.374116"><ele>1350.2804</ele><time>2026-05-28T19:32:33.000Z</time></trkpt>
        <trkpt lat="29.580665" lon="103.374168"><ele>1349.6145</ele><time>2026-05-28T19:32:44.000Z</time></trkpt>
        <trkpt lat="29.580665" lon="103.374219"><ele>1348.0664</ele><time>2026-05-28T19:32:55.000Z</time></trkpt>
        <trkpt lat="29.580667" lon="103.374278"><ele>1345.9069</ele><time>2026-05-28T19:33:09.000Z</time></trkpt>
        <trkpt lat="29.580657" lon="103.374331"><ele>1346.1832</ele><time>2026-05-28T19:33:19.000Z</time></trkpt>
        <trkpt lat="29.580671" lon="103.374389"><ele>1345.6232</ele><time>2026-05-28T19:33:29.000Z</time></trkpt>
        <trkpt lat="29.580711" lon="103.374429"><ele>1344.1656</ele><time>2026-05-28T19:33:44.000Z</time></trkpt>
        <trkpt lat="29.580754" lon="103.37441"><ele>1330.7588</ele><time>2026-05-28T19:35:00.000Z</time></trkpt>
        <trkpt lat="29.580709" lon="103.374424"><ele>1343.9686</ele><time>2026-05-28T19:36:44.000Z</time></trkpt>
        <trkpt lat="29.580676" lon="103.374387"><ele>1341.5222</ele><time>2026-05-28T19:38:41.000Z</time></trkpt>
        <trkpt lat="29.580713" lon="103.374429"><ele>1339.6228</ele><time>2026-05-28T19:40:12.000Z</time></trkpt>
        <trkpt lat="29.580692" lon="103.374484"><ele>1345.0563</ele><time>2026-05-28T19:41:25.000Z</time></trkpt>
        <trkpt lat="29.580671" lon="103.374532"><ele>1342.8522</ele><time>2026-05-28T19:41:37.000Z</time></trkpt>
        <trkpt lat="29.58067" lon="103.374589"><ele>1337.8342</ele><time>2026-05-28T19:41:56.000Z</time></trkpt>
        <trkpt lat="29.58067" lon="103.374641"><ele>1334.1118</ele><time>2026-05-28T19:42:09.000Z</time></trkpt>
        <trkpt lat="29.580662" lon="103.374693"><ele>1332.4764</ele><time>2026-05-28T19:42:24.000Z</time></trkpt>
        <trkpt lat="29.580673" lon="103.374744"><ele>1331.2108</ele><time>2026-05-28T19:42:41.000Z</time></trkpt>
        <trkpt lat="29.580684" lon="103.374797"><ele>1328.4823</ele><time>2026-05-28T19:42:59.000Z</time></trkpt>
        <trkpt lat="29.580693" lon="103.374859"><ele>1328.6885</ele><time>2026-05-28T19:43:09.000Z</time></trkpt>
        <trkpt lat="29.580719" lon="103.374908"><ele>1323.0588</ele><time>2026-05-28T19:43:28.000Z</time></trkpt>
        <trkpt lat="29.580734" lon="103.374959"><ele>1321.8513</ele><time>2026-05-28T19:43:42.000Z</time></trkpt>
        <trkpt lat="29.580728" lon="103.37501"><ele>1319.2438</ele><time>2026-05-28T19:43:55.000Z</time></trkpt>
        <trkpt lat="29.580718" lon="103.375064"><ele>1316.4453</ele><time>2026-05-28T19:44:12.000Z</time></trkpt>
        <trkpt lat="29.580711" lon="103.375119"><ele>1315.0981</ele><time>2026-05-28T19:44:26.000Z</time></trkpt>
        <trkpt lat="29.580708" lon="103.375171"><ele>1311.9154</ele><time>2026-05-28T19:44:41.000Z</time></trkpt>
        <trkpt lat="29.580702" lon="103.375223"><ele>1309.7161</ele><time>2026-05-28T19:44:58.000Z</time></trkpt>
        <trkpt lat="29.580692" lon="103.375275"><ele>1308.9318</ele><time>2026-05-28T19:45:08.000Z</time></trkpt>
        <trkpt lat="29.580683" lon="103.375328"><ele>1306.2756</ele><time>2026-05-28T19:45:21.000Z</time></trkpt>
        <trkpt lat="29.580677" lon="103.375385"><ele>1305.9154</ele><time>2026-05-28T19:45:28.000Z</time></trkpt>
        <trkpt lat="29.580632" lon="103.375388"><ele>1298.0833</ele><time>2026-05-28T19:46:04.000Z</time></trkpt>
        <trkpt lat="29.580582" lon="103.375381"><ele>1300.3237</ele><time>2026-05-28T19:46:15.000Z</time></trkpt>
        <trkpt lat="29.58053" lon="103.375393"><ele>1299.249</ele><time>2026-05-28T19:46:26.000Z</time></trkpt>
        <trkpt lat="29.580487" lon="103.375425"><ele>1301.0206</ele><time>2026-05-28T19:46:37.000Z</time></trkpt>
        <trkpt lat="29.580445" lon="103.37545"><ele>1299.4962</ele><time>2026-05-28T19:46:47.000Z</time></trkpt>
        <trkpt lat="29.580415" lon="103.375491"><ele>1292.5673</ele><time>2026-05-28T19:47:02.000Z</time></trkpt>
        <trkpt lat="29.580373" lon="103.375512"><ele>1288.5441</ele><time>2026-05-28T19:47:13.000Z</time></trkpt>
        <trkpt lat="29.580329" lon="103.375532"><ele>1284.1012</ele><time>2026-05-28T19:47:53.000Z</time></trkpt>
        <trkpt lat="29.580277" lon="103.375521"><ele>1285.655</ele><time>2026-05-28T19:48:03.000Z</time></trkpt>
        <trkpt lat="29.58023" lon="103.375525"><ele>1284.2108</ele><time>2026-05-28T19:48:18.000Z</time></trkpt>
        <trkpt lat="29.580185" lon="103.375526"><ele>1283.2783</ele><time>2026-05-28T19:48:37.000Z</time></trkpt>
        <trkpt lat="29.580141" lon="103.375504"><ele>1277.4103</ele><time>2026-05-28T19:48:53.000Z</time></trkpt>
        <trkpt lat="29.580098" lon="103.375465"><ele>1273.594</ele><time>2026-05-28T19:49:02.000Z</time></trkpt>
        <trkpt lat="29.58008" lon="103.375515"><ele>1267.8387</ele><time>2026-05-28T19:49:15.000Z</time></trkpt>
        <trkpt lat="29.580036" lon="103.375537"><ele>1266.5792</ele><time>2026-05-28T19:49:30.000Z</time></trkpt>
        <trkpt lat="29.579995" lon="103.375562"><ele>1261.5605</ele><time>2026-05-28T19:49:43.000Z</time></trkpt>
        <trkpt lat="29.579958" lon="103.375595"><ele>1261.6748</ele><time>2026-05-28T19:49:50.000Z</time></trkpt>
        <trkpt lat="29.579923" lon="103.375627"><ele>1262.0522</ele><time>2026-05-28T19:49:58.000Z</time></trkpt>
        <trkpt lat="29.579877" lon="103.375646"><ele>1260.3567</ele><time>2026-05-28T19:50:06.000Z</time></trkpt>
        <trkpt lat="29.579853" lon="103.375701"><ele>1257.7521</ele><time>2026-05-28T19:50:17.000Z</time></trkpt>
        <trkpt lat="29.57987" lon="103.375749"><ele>1258.1007</ele><time>2026-05-28T19:50:23.000Z</time></trkpt>
        <trkpt lat="29.579873" lon="103.375802"><ele>1260.2191</ele><time>2026-05-28T19:50:31.000Z</time></trkpt>
        <trkpt lat="29.579886" lon="103.375856"><ele>1261.685</ele><time>2026-05-28T19:50:36.000Z</time></trkpt>
        <trkpt lat="29.579891" lon="103.375913"><ele>1262.8613</ele><time>2026-05-28T19:50:40.000Z</time></trkpt>
        <trkpt lat="29.579897" lon="103.375965"><ele>1262.1614</ele><time>2026-05-28T19:50:45.000Z</time></trkpt>
        <trkpt lat="29.579925" lon="103.376006"><ele>1255.1213</ele><time>2026-05-28T19:50:52.000Z</time></trkpt>
        <trkpt lat="29.579959" lon="103.376049"><ele>1251.8763</ele><time>2026-05-28T19:50:56.000Z</time></trkpt>
        <trkpt lat="29.579977" lon="103.376107"><ele>1250.558</ele><time>2026-05-28T19:51:01.000Z</time></trkpt>
        <trkpt lat="29.579995" lon="103.376158"><ele>1249.2876</ele><time>2026-05-28T19:51:06.000Z</time></trkpt>
        <trkpt lat="29.580022" lon="103.376206"><ele>1249.1028</ele><time>2026-05-28T19:51:12.000Z</time></trkpt>
        <trkpt lat="29.58004" lon="103.376264"><ele>1248.1716</ele><time>2026-05-28T19:51:18.000Z</time></trkpt>
        <trkpt lat="29.580059" lon="103.376313"><ele>1246.9833</ele><time>2026-05-28T19:51:29.000Z</time></trkpt>
        <trkpt lat="29.580101" lon="103.376294"><ele>1243.8936</ele><time>2026-05-28T19:51:44.000Z</time></trkpt>
        <trkpt lat="29.580148" lon="103.376288"><ele>1241.6772</ele><time>2026-05-28T19:51:56.000Z</time></trkpt>
        <trkpt lat="29.580198" lon="103.376304"><ele>1243.0876</ele><time>2026-05-28T19:52:05.000Z</time></trkpt>
        <trkpt lat="29.580246" lon="103.376314"><ele>1244.4575</ele><time>2026-05-28T19:52:11.000Z</time></trkpt>
        <trkpt lat="29.580289" lon="103.376333"><ele>1250.3401</ele><time>2026-05-28T19:52:38.000Z</time></trkpt>
        <trkpt lat="29.58033" lon="103.376357"><ele>1251.4375</ele><time>2026-05-28T19:52:46.000Z</time></trkpt>
        <trkpt lat="29.580375" lon="103.37634"><ele>1249.6825</ele><time>2026-05-28T19:53:16.000Z</time></trkpt>
        <trkpt lat="29.580423" lon="103.376334"><ele>1247.0743</ele><time>2026-05-28T19:53:26.000Z</time></trkpt>
        <trkpt lat="29.580469" lon="103.37632"><ele>1244.9855</ele><time>2026-05-28T19:53:32.000Z</time></trkpt>
        <trkpt lat="29.580517" lon="103.376315"><ele>1244.8264</ele><time>2026-05-28T19:53:39.000Z</time></trkpt>
        <trkpt lat="29.580567" lon="103.376289"><ele>1243.8456</ele><time>2026-05-28T19:53:46.000Z</time></trkpt>
        <trkpt lat="29.580614" lon="103.376281"><ele>1245.0691</ele><time>2026-05-28T19:53:53.000Z</time></trkpt>
        <trkpt lat="29.580659" lon="103.37626"><ele>1241.502</ele><time>2026-05-28T19:54:01.000Z</time></trkpt>
        <trkpt lat="29.580706" lon="103.376247"><ele>1240.2612</ele><time>2026-05-28T19:54:09.000Z</time></trkpt>
        <trkpt lat="29.580757" lon="103.376238"><ele>1238.613</ele><time>2026-05-28T19:54:19.000Z</time></trkpt>
        <trkpt lat="29.580807" lon="103.376231"><ele>1238.9208</ele><time>2026-05-28T19:54:27.000Z</time></trkpt>
        <trkpt lat="29.58085" lon="103.376215"><ele>1239.0769</ele><time>2026-05-28T19:54:41.000Z</time></trkpt>
        <trkpt lat="29.580897" lon="103.376193"><ele>1238.1222</ele><time>2026-05-28T19:54:47.000Z</time></trkpt>
        <trkpt lat="29.580943" lon="103.376183"><ele>1235.9578</ele><time>2026-05-28T19:55:03.000Z</time></trkpt>
        <trkpt lat="29.580991" lon="103.376165"><ele>1235.6803</ele><time>2026-05-28T19:55:16.000Z</time></trkpt>
        <trkpt lat="29.581004" lon="103.376216"><ele>1232.357</ele><time>2026-05-28T19:55:29.000Z</time></trkpt>
        <trkpt lat="29.580988" lon="103.376275"><ele>1229.0293</ele><time>2026-05-28T19:55:52.000Z</time></trkpt>
        <trkpt lat="29.580978" lon="103.376326"><ele>1225.717</ele><time>2026-05-28T19:56:07.000Z</time></trkpt>
        <trkpt lat="29.58094" lon="103.376355"><ele>1224.0679</ele><time>2026-05-28T19:56:40.000Z</time></trkpt>
        <trkpt lat="29.580962" lon="103.376401"><ele>1222.1465</ele><time>2026-05-28T19:57:21.000Z</time></trkpt>
        <trkpt lat="29.581009" lon="103.376421"><ele>1219.1244</ele><time>2026-05-28T19:57:39.000Z</time></trkpt>
        <trkpt lat="29.581054" lon="103.376442"><ele>1214.493</ele><time>2026-05-28T19:57:57.000Z</time></trkpt>
        <trkpt lat="29.581092" lon="103.376471"><ele>1211.167</ele><time>2026-05-28T19:58:14.000Z</time></trkpt>
        <trkpt lat="29.581119" lon="103.37643"><ele>1209.2292</ele><time>2026-05-28T19:58:45.000Z</time></trkpt>
        <trkpt lat="29.581158" lon="103.376402"><ele>1205.905</ele><time>2026-05-28T19:58:57.000Z</time></trkpt>
        <trkpt lat="29.581196" lon="103.376437"><ele>1202.8817</ele><time>2026-05-28T19:59:07.000Z</time></trkpt>
        <trkpt lat="29.581239" lon="103.376471"><ele>1201.2241</ele><time>2026-05-28T19:59:19.000Z</time></trkpt>
        <trkpt lat="29.581246" lon="103.376417"><ele>1197.0885</ele><time>2026-05-28T19:59:37.000Z</time></trkpt>
        <trkpt lat="29.581263" lon="103.376367"><ele>1196.3783</ele><time>2026-05-28T19:59:53.000Z</time></trkpt>
        <trkpt lat="29.58131" lon="103.376349"><ele>1194.7474</ele><time>2026-05-28T20:00:10.000Z</time></trkpt>
        <trkpt lat="29.581359" lon="103.376342"><ele>1192.738</ele><time>2026-05-28T20:00:21.000Z</time></trkpt>
        <trkpt lat="29.581406" lon="103.376334"><ele>1189.7816</ele><time>2026-05-28T20:00:40.000Z</time></trkpt>
        <trkpt lat="29.581452" lon="103.376334"><ele>1187.3232</ele><time>2026-05-28T20:00:55.000Z</time></trkpt>
        <trkpt lat="29.581499" lon="103.376326"><ele>1185.4564</ele><time>2026-05-28T20:01:17.000Z</time></trkpt>
        <trkpt lat="29.581543" lon="103.376304"><ele>1183.7845</ele><time>2026-05-28T20:01:37.000Z</time></trkpt>
        <trkpt lat="29.581594" lon="103.376301"><ele>1180.7407</ele><time>2026-05-28T20:02:10.000Z</time></trkpt>
        <trkpt lat="29.581644" lon="103.376298"><ele>1177.8821</ele><time>2026-05-28T20:02:28.000Z</time></trkpt>
        <trkpt lat="29.58168" lon="103.376264"><ele>1174.5566</ele><time>2026-05-28T20:02:40.000Z</time></trkpt>
        <trkpt lat="29.581724" lon="103.376247"><ele>1172.7112</ele><time>2026-05-28T20:02:50.000Z</time></trkpt>
        <trkpt lat="29.581764" lon="103.376223"><ele>1169.2994</ele><time>2026-05-28T20:03:03.000Z</time></trkpt>
        <trkpt lat="29.581811" lon="103.376228"><ele>1167.1084</ele><time>2026-05-28T20:03:24.000Z</time></trkpt>
        <trkpt lat="29.581812" lon="103.376283"><ele>1163.8304</ele><time>2026-05-28T20:03:39.000Z</time></trkpt>
        <trkpt lat="29.581806" lon="103.376337"><ele>1161.1588</ele><time>2026-05-28T20:03:52.000Z</time></trkpt>
        <trkpt lat="29.581778" lon="103.376377"><ele>1160.4948</ele><time>2026-05-28T20:04:02.000Z</time></trkpt>
        <trkpt lat="29.581777" lon="103.376429"><ele>1157.7249</ele><time>2026-05-28T20:04:14.000Z</time></trkpt>
        <trkpt lat="29.581794" lon="103.376479"><ele>1155.9744</ele><time>2026-05-28T20:05:01.000Z</time></trkpt>
        <trkpt lat="29.581832" lon="103.376511"><ele>1152.978</ele><time>2026-05-28T20:05:29.000Z</time></trkpt>
        <trkpt lat="29.58188" lon="103.376515"><ele>1150.5974</ele><time>2026-05-28T20:05:54.000Z</time></trkpt>
        <trkpt lat="29.581926" lon="103.376518"><ele>1146.3197</ele><time>2026-05-28T20:06:17.000Z</time></trkpt>
        <trkpt lat="29.581974" lon="103.376529"><ele>1143.9052</ele><time>2026-05-28T20:06:32.000Z</time></trkpt>
        <trkpt lat="29.58202" lon="103.376541"><ele>1142.6919</ele><time>2026-05-28T20:06:43.000Z</time></trkpt>
        <trkpt lat="29.58206" lon="103.376567"><ele>1139.3396</ele><time>2026-05-28T20:07:02.000Z</time></trkpt>
        <trkpt lat="29.582038" lon="103.376612"><ele>1135.2327</ele><time>2026-05-28T20:07:33.000Z</time></trkpt>
        <trkpt lat="29.582048" lon="103.376662"><ele>1132.4102</ele><time>2026-05-28T20:07:58.000Z</time></trkpt>
        <trkpt lat="29.582056" lon="103.376715"><ele>1132.0428</ele><time>2026-05-28T20:08:15.000Z</time></trkpt>
        <trkpt lat="29.582072" lon="103.376764"><ele>1130.3466</ele><time>2026-05-28T20:08:29.000Z</time></trkpt>
        <trkpt lat="29.582117" lon="103.376747"><ele>1128.1144</ele><time>2026-05-28T20:08:47.000Z</time></trkpt>
        <trkpt lat="29.582157" lon="103.376773"><ele>1124.1499</ele><time>2026-05-28T20:09:05.000Z</time></trkpt>
        <trkpt lat="29.582144" lon="103.376829"><ele>1120.3677</ele><time>2026-05-28T20:09:25.000Z</time></trkpt>
        <trkpt lat="29.582134" lon="103.376882"><ele>1114.9098</ele><time>2026-05-28T20:09:43.000Z</time></trkpt>
        <trkpt lat="29.582148" lon="103.376935"><ele>1116.2422</ele><time>2026-05-28T20:09:54.000Z</time></trkpt>
        <trkpt lat="29.582143" lon="103.376988"><ele>1114.5115</ele><time>2026-05-28T20:10:11.000Z</time></trkpt>
        <trkpt lat="29.582147" lon="103.377039"><ele>1114.5767</ele><time>2026-05-28T20:10:27.000Z</time></trkpt>
        <trkpt lat="29.582153" lon="103.377093"><ele>1112.0692</ele><time>2026-05-28T20:10:45.000Z</time></trkpt>
        <trkpt lat="29.582157" lon="103.377146"><ele>1108.9191</ele><time>2026-05-28T20:11:00.000Z</time></trkpt>
        <trkpt lat="29.582204" lon="103.377142"><ele>1107.3356</ele><time>2026-05-28T20:11:14.000Z</time></trkpt>
        <trkpt lat="29.582251" lon="103.377136"><ele>1105.8588</ele><time>2026-05-28T20:11:32.000Z</time></trkpt>
        <trkpt lat="29.582234" lon="103.377186"><ele>1101.9677</ele><time>2026-05-28T20:16:42.000Z</time></trkpt>
        <trkpt lat="29.582258" lon="103.377238"><ele>1097.6134</ele><time>2026-05-28T20:16:52.000Z</time></trkpt>
        <trkpt lat="29.582294" lon="103.37727"><ele>1095.902</ele><time>2026-05-28T20:17:02.000Z</time></trkpt>
        <trkpt lat="29.58233" lon="103.377305"><ele>1093.9227</ele><time>2026-05-28T20:17:10.000Z</time></trkpt>
        <trkpt lat="29.58236" lon="103.377344"><ele>1088.6515</ele><time>2026-05-28T20:17:25.000Z</time></trkpt>
        <trkpt lat="29.582388" lon="103.377391"><ele>1088.6267</ele><time>2026-05-28T20:17:34.000Z</time></trkpt>
        <trkpt lat="29.582431" lon="103.377412"><ele>1087.5459</ele><time>2026-05-28T20:17:43.000Z</time></trkpt>
        <trkpt lat="29.582413" lon="103.377461"><ele>1087.602</ele><time>2026-05-28T20:18:01.000Z</time></trkpt>
        <trkpt lat="29.582402" lon="103.377515"><ele>1084.1505</ele><time>2026-05-28T20:18:20.000Z</time></trkpt>
        <trkpt lat="29.582378" lon="103.377565"><ele>1082.3871</ele><time>2026-05-28T20:18:34.000Z</time></trkpt>
        <trkpt lat="29.58239" lon="103.377615"><ele>1081.65</ele><time>2026-05-28T20:18:41.000Z</time></trkpt>
        <trkpt lat="29.582392" lon="103.37767"><ele>1079.0015</ele><time>2026-05-28T20:18:51.000Z</time></trkpt>
        <trkpt lat="29.582401" lon="103.377736"><ele>1077.3638</ele><time>2026-05-28T20:18:58.000Z</time></trkpt>
        <trkpt lat="29.582408" lon="103.377792"><ele>1076.2103</ele><time>2026-05-28T20:19:04.000Z</time></trkpt>
        <trkpt lat="29.582428" lon="103.377842"><ele>1073.354</ele><time>2026-05-28T20:19:14.000Z</time></trkpt>
        <trkpt lat="29.582409" lon="103.3779"><ele>1073.6089</ele><time>2026-05-28T20:19:18.000Z</time></trkpt>
        <trkpt lat="29.5824" lon="103.377955"><ele>1072.5095</ele><time>2026-05-28T20:19:23.000Z</time></trkpt>
        <trkpt lat="29.582427" lon="103.378"><ele>1071.041</ele><time>2026-05-28T20:19:30.000Z</time></trkpt>
        <trkpt lat="29.582426" lon="103.378053"><ele>1067.9265</ele><time>2026-05-28T20:19:40.000Z</time></trkpt>
        <trkpt lat="29.58243" lon="103.378109"><ele>1064.5598</ele><time>2026-05-28T20:19:50.000Z</time></trkpt>
        <trkpt lat="29.582445" lon="103.37816"><ele>1062.3251</ele><time>2026-05-28T20:20:04.000Z</time></trkpt>
        <trkpt lat="29.582462" lon="103.378211"><ele>1062.969</ele><time>2026-05-28T20:20:14.000Z</time></trkpt>
        <trkpt lat="29.582469" lon="103.378264"><ele>1059.089</ele><time>2026-05-28T20:20:24.000Z</time></trkpt>
        <trkpt lat="29.582488" lon="103.378312"><ele>1058.9305</ele><time>2026-05-28T20:20:33.000Z</time></trkpt>
        <trkpt lat="29.582528" lon="103.378335"><ele>1059.2407</ele><time>2026-05-28T20:20:43.000Z</time></trkpt>
        <trkpt lat="29.582555" lon="103.37838"><ele>1055.4796</ele><time>2026-05-28T20:21:02.000Z</time></trkpt>
        <trkpt lat="29.582602" lon="103.378385"><ele>1056.9425</ele><time>2026-05-28T20:21:10.000Z</time></trkpt>
        <trkpt lat="29.582655" lon="103.378409"><ele>1059.3757</ele><time>2026-05-28T20:21:19.000Z</time></trkpt>
        <trkpt lat="29.58269" lon="103.378448"><ele>1058.6025</ele><time>2026-05-28T20:21:26.000Z</time></trkpt>
        <trkpt lat="29.582734" lon="103.378475"><ele>1054.207</ele><time>2026-05-28T20:21:35.000Z</time></trkpt>
        <trkpt lat="29.582769" lon="103.378511"><ele>1047.7644</ele><time>2026-05-28T20:21:40.000Z</time></trkpt>
        <trkpt lat="29.582797" lon="103.378554"><ele>1048.4264</ele><time>2026-05-28T20:21:45.000Z</time></trkpt>
        <trkpt lat="29.582833" lon="103.378589"><ele>1044.1844</ele><time>2026-05-28T20:21:57.000Z</time></trkpt>
        <trkpt lat="29.582851" lon="103.378642"><ele>1041.6554</ele><time>2026-05-28T20:22:08.000Z</time></trkpt>
        <trkpt lat="29.582899" lon="103.378626"><ele>1037.5662</ele><time>2026-05-28T20:22:19.000Z</time></trkpt>
        <trkpt lat="29.582939" lon="103.378663"><ele>1034.3932</ele><time>2026-05-28T20:22:32.000Z</time></trkpt>
        <trkpt lat="29.582978" lon="103.3787"><ele>1029.2642</ele><time>2026-05-28T20:22:44.000Z</time></trkpt>
        <trkpt lat="29.583007" lon="103.378753"><ele>1025.9033</ele><time>2026-05-28T20:22:58.000Z</time></trkpt>
        <trkpt lat="29.583017" lon="103.378807"><ele>1022.71173</ele><time>2026-05-28T20:23:11.000Z</time></trkpt>
        <trkpt lat="29.583024" lon="103.37886"><ele>1023.44574</ele><time>2026-05-28T20:23:18.000Z</time></trkpt>
        <trkpt lat="29.583021" lon="103.378915"><ele>1024.8025</ele><time>2026-05-28T20:23:32.000Z</time></trkpt>
        <trkpt lat="29.583007" lon="103.378965"><ele>1026.2378</ele><time>2026-05-28T20:23:47.000Z</time></trkpt>
        <trkpt lat="29.583016" lon="103.379016"><ele>1026.4728</ele><time>2026-05-28T20:23:53.000Z</time></trkpt>
        <trkpt lat="29.582987" lon="103.37907"><ele>1025.5144</ele><time>2026-05-28T20:23:59.000Z</time></trkpt>
        <trkpt lat="29.582966" lon="103.379123"><ele>1025.4987</ele><time>2026-05-28T20:24:05.000Z</time></trkpt>
        <trkpt lat="29.582944" lon="103.379169"><ele>1025.3077</ele><time>2026-05-28T20:24:11.000Z</time></trkpt>
        <trkpt lat="29.582914" lon="103.379209"><ele>1023.7825</ele><time>2026-05-28T20:24:20.000Z</time></trkpt>
        <trkpt lat="29.582883" lon="103.379252"><ele>1022.572</ele><time>2026-05-28T20:24:29.000Z</time></trkpt>
        <trkpt lat="29.582848" lon="103.379289"><ele>1020.6161</ele><time>2026-05-28T20:24:38.000Z</time></trkpt>
        <trkpt lat="29.582802" lon="103.379294"><ele>1021.2428</ele><time>2026-05-28T20:24:48.000Z</time></trkpt>
        <trkpt lat="29.582738" lon="103.379316"><ele>1023.3036</ele><time>2026-05-28T20:24:53.000Z</time></trkpt>
        <trkpt lat="29.582705" lon="103.379352"><ele>1024.5911</ele><time>2026-05-28T20:25:00.000Z</time></trkpt>
        <trkpt lat="29.582691" lon="103.379414"><ele>1023.4069</ele><time>2026-05-28T20:25:06.000Z</time></trkpt>
        <trkpt lat="29.582716" lon="103.379457"><ele>1018.9512</ele><time>2026-05-28T20:25:15.000Z</time></trkpt>
        <trkpt lat="29.582739" lon="103.379506"><ele>1017.60614</ele><time>2026-05-28T20:25:21.000Z</time></trkpt>
        <trkpt lat="29.582719" lon="103.379554"><ele>1014.89386</ele><time>2026-05-28T20:25:39.000Z</time></trkpt>
        <trkpt lat="29.582766" lon="103.379571"><ele>1013.0706</ele><time>2026-05-28T20:25:57.000Z</time></trkpt>
        <trkpt lat="29.582814" lon="103.379556"><ele>1013.8049</ele><time>2026-05-28T20:26:03.000Z</time></trkpt>
        <trkpt lat="29.582863" lon="103.379548"><ele>1014.2205</ele><time>2026-05-28T20:26:09.000Z</time></trkpt>
        <trkpt lat="29.582906" lon="103.379518"><ele>1013.6712</ele><time>2026-05-28T20:26:23.000Z</time></trkpt>
        <trkpt lat="29.582945" lon="103.37949"><ele>1013.82007</ele><time>2026-05-28T20:26:33.000Z</time></trkpt>
        <trkpt lat="29.582989" lon="103.37947"><ele>1014.8307</ele><time>2026-05-28T20:27:13.000Z</time></trkpt>
        <trkpt lat="29.582977" lon="103.379521"><ele>1014.2883</ele><time>2026-05-28T20:27:34.000Z</time></trkpt>
        <trkpt lat="29.582945" lon="103.379558"><ele>1015.6551</ele><time>2026-05-28T20:27:43.000Z</time></trkpt>
        <trkpt lat="29.58296" lon="103.379611"><ele>1014.1837</ele><time>2026-05-28T20:27:57.000Z</time></trkpt>
        <trkpt lat="29.582995" lon="103.379655"><ele>1010.5985</ele><time>2026-05-28T20:28:10.000Z</time></trkpt>
        <trkpt lat="29.582981" lon="103.379712"><ele>1006.8278</ele><time>2026-05-28T20:28:17.000Z</time></trkpt>
        <trkpt lat="29.582977" lon="103.379771"><ele>1004.65796</ele><time>2026-05-28T20:28:22.000Z</time></trkpt>
        <trkpt lat="29.582996" lon="103.37982"><ele>1002.7771</ele><time>2026-05-28T20:28:28.000Z</time></trkpt>
        <trkpt lat="29.583013" lon="103.379871"><ele>1001.19855</ele><time>2026-05-28T20:28:33.000Z</time></trkpt>
        <trkpt lat="29.583063" lon="103.379901"><ele>1000.37317</ele><time>2026-05-28T20:28:38.000Z</time></trkpt>
        <trkpt lat="29.583095" lon="103.379945"><ele>999.58545</ele><time>2026-05-28T20:28:44.000Z</time></trkpt>
        <trkpt lat="29.583132" lon="103.379979"><ele>1000.29095</ele><time>2026-05-28T20:29:04.000Z</time></trkpt>
        <trkpt lat="29.583109" lon="103.380029"><ele>999.869</ele><time>2026-05-28T20:29:11.000Z</time></trkpt>
        <trkpt lat="29.583075" lon="103.380079"><ele>999.38043</ele><time>2026-05-28T20:29:17.000Z</time></trkpt>
        <trkpt lat="29.583049" lon="103.380124"><ele>998.92535</ele><time>2026-05-28T20:29:24.000Z</time></trkpt>
        <trkpt lat="29.583023" lon="103.380182"><ele>998.75574</ele><time>2026-05-28T20:29:30.000Z</time></trkpt>
        <trkpt lat="29.582996" lon="103.380224"><ele>998.49805</ele><time>2026-05-28T20:29:38.000Z</time></trkpt>
        <trkpt lat="29.582965" lon="103.380274"><ele>998.39374</ele><time>2026-05-28T20:29:45.000Z</time></trkpt>
        <trkpt lat="29.58293" lon="103.380308"><ele>997.6929</ele><time>2026-05-28T20:29:52.000Z</time></trkpt>
        <trkpt lat="29.582908" lon="103.380369"><ele>997.66406</ele><time>2026-05-28T20:29:58.000Z</time></trkpt>
        <trkpt lat="29.582898" lon="103.380422"><ele>999.2408</ele><time>2026-05-28T20:30:05.000Z</time></trkpt>
        <trkpt lat="29.582861" lon="103.380464"><ele>997.7488</ele><time>2026-05-28T20:30:11.000Z</time></trkpt>
        <trkpt lat="29.582839" lon="103.380514"><ele>996.08093</ele><time>2026-05-28T20:30:17.000Z</time></trkpt>
        <trkpt lat="29.582814" lon="103.380563"><ele>994.4567</ele><time>2026-05-28T20:30:23.000Z</time></trkpt>
        <trkpt lat="29.582808" lon="103.380616"><ele>995.48663</ele><time>2026-05-28T20:30:28.000Z</time></trkpt>
        <trkpt lat="29.582797" lon="103.380667"><ele>995.50446</ele><time>2026-05-28T20:30:33.000Z</time></trkpt>
        <trkpt lat="29.582782" lon="103.380721"><ele>996.1008</ele><time>2026-05-28T20:30:39.000Z</time></trkpt>
        <trkpt lat="29.582773" lon="103.38078"><ele>995.40045</ele><time>2026-05-28T20:30:45.000Z</time></trkpt>
        <trkpt lat="29.582757" lon="103.380834"><ele>995.2149</ele><time>2026-05-28T20:30:51.000Z</time></trkpt>
        <trkpt lat="29.582747" lon="103.380899"><ele>995.05206</ele><time>2026-05-28T20:30:57.000Z</time></trkpt>
        <trkpt lat="29.582764" lon="103.380953"><ele>994.83215</ele><time>2026-05-28T20:31:02.000Z</time></trkpt>
        <trkpt lat="29.582772" lon="103.38101"><ele>996.1672</ele><time>2026-05-28T20:31:07.000Z</time></trkpt>
        <trkpt lat="29.582801" lon="103.381059"><ele>996.4375</ele><time>2026-05-28T20:31:12.000Z</time></trkpt>
        <trkpt lat="29.582803" lon="103.381111"><ele>997.5521</ele><time>2026-05-28T20:31:21.000Z</time></trkpt>
        <trkpt lat="29.582852" lon="103.381125"><ele>1003.8872</ele><time>2026-05-28T20:37:00.000Z</time></trkpt>
        <trkpt lat="29.582808" lon="103.381108"><ele>1000.90485</ele><time>2026-05-28T20:49:20.000Z</time></trkpt>
        <trkpt lat="29.582772" lon="103.381146"><ele>998.28656</ele><time>2026-05-28T20:49:27.000Z</time></trkpt>
        <trkpt lat="29.582747" lon="103.381199"><ele>998.2537</ele><time>2026-05-28T20:49:47.000Z</time></trkpt>
        <trkpt lat="29.582717" lon="103.381241"><ele>998.002</ele><time>2026-05-28T20:49:53.000Z</time></trkpt>
        <trkpt lat="29.582688" lon="103.381284"><ele>998.7966</ele><time>2026-05-28T20:49:58.000Z</time></trkpt>
        <trkpt lat="29.582657" lon="103.381326"><ele>998.70734</ele><time>2026-05-28T20:50:03.000Z</time></trkpt>
        <trkpt lat="29.582633" lon="103.381374"><ele>998.2747</ele><time>2026-05-28T20:50:16.000Z</time></trkpt>
        <trkpt lat="29.582599" lon="103.381417"><ele>997.9061</ele><time>2026-05-28T20:50:22.000Z</time></trkpt>
        <trkpt lat="29.582583" lon="103.381466"><ele>997.4492</ele><time>2026-05-28T20:50:28.000Z</time></trkpt>
        <trkpt lat="29.58256" lon="103.381514"><ele>997.5845</ele><time>2026-05-28T20:50:35.000Z</time></trkpt>
        <trkpt lat="29.582528" lon="103.381555"><ele>998.5441</ele><time>2026-05-28T20:50:41.000Z</time></trkpt>
        <trkpt lat="29.582505" lon="103.38161"><ele>998.1321</ele><time>2026-05-28T20:50:46.000Z</time></trkpt>
        <trkpt lat="29.582487" lon="103.381664"><ele>997.389</ele><time>2026-05-28T20:50:52.000Z</time></trkpt>
        <trkpt lat="29.582442" lon="103.381682"><ele>999.0554</ele><time>2026-05-28T20:51:03.000Z</time></trkpt>
        <trkpt lat="29.582434" lon="103.381739"><ele>998.53284</ele><time>2026-05-28T20:51:27.000Z</time></trkpt>
        <trkpt lat="29.582394" lon="103.381772"><ele>997.8268</ele><time>2026-05-28T20:51:32.000Z</time></trkpt>
        <trkpt lat="29.582369" lon="103.381816"><ele>998.0926</ele><time>2026-05-28T20:51:35.000Z</time></trkpt>
        <trkpt lat="29.582335" lon="103.381854"><ele>998.551</ele><time>2026-05-28T20:51:39.000Z</time></trkpt>
        <trkpt lat="29.582293" lon="103.381878"><ele>998.2718</ele><time>2026-05-28T20:51:46.000Z</time></trkpt>
        <trkpt lat="29.582247" lon="103.381891"><ele>998.38245</ele><time>2026-05-28T20:51:51.000Z</time></trkpt>
        <trkpt lat="29.582213" lon="103.381934"><ele>1000.0957</ele><time>2026-05-28T20:51:57.000Z</time></trkpt>
        <trkpt lat="29.582187" lon="103.381979"><ele>1001.59576</ele><time>2026-05-28T20:52:02.000Z</time></trkpt>
        <trkpt lat="29.582186" lon="103.382036"><ele>1000.8215</ele><time>2026-05-28T20:52:18.000Z</time></trkpt>
        <trkpt lat="29.582141" lon="103.382053"><ele>998.30817</ele><time>2026-05-28T20:52:23.000Z</time></trkpt>
        <trkpt lat="29.58213" lon="103.38211"><ele>999.06116</ele><time>2026-05-28T20:52:30.000Z</time></trkpt>
        <trkpt lat="29.5821" lon="103.38216"><ele>998.65765</ele><time>2026-05-28T20:52:37.000Z</time></trkpt>
        <trkpt lat="29.582077" lon="103.382213"><ele>999.35114</ele><time>2026-05-28T20:52:42.000Z</time></trkpt>
        <trkpt lat="29.582093" lon="103.382267"><ele>1000.7447</ele><time>2026-05-28T20:52:50.000Z</time></trkpt>
        <trkpt lat="29.582092" lon="103.382268"><ele>1000.57666</ele><time>2026-05-28T20:52:51.000Z</time></trkpt>
        <trkpt lat="29.582018" lon="103.382236"><ele>1000.2146</ele><time>2026-05-28T20:52:55.000Z</time></trkpt>
        <trkpt lat="29.582115" lon="103.382169"><ele>1002.1713</ele><time>2026-05-28T20:57:23.000Z</time></trkpt>
        <trkpt lat="29.582078" lon="103.382189"><ele>1001.22974</ele><time>2026-05-28T20:57:28.000Z</time></trkpt>
        <trkpt lat="29.582098" lon="103.382238"><ele>989.6076</ele><time>2026-05-28T20:58:08.000Z</time></trkpt>
        <trkpt lat="29.582072" lon="103.382303"><ele>991.7097</ele><time>2026-05-28T20:58:17.000Z</time></trkpt>
        <trkpt lat="29.582047" lon="103.382348"><ele>991.1585</ele><time>2026-05-28T20:58:24.000Z</time></trkpt>
        <trkpt lat="29.582023" lon="103.382394"><ele>991.17426</ele><time>2026-05-28T20:58:27.000Z</time></trkpt>
        <trkpt lat="29.582004" lon="103.382449"><ele>992.5077</ele><time>2026-05-28T20:58:32.000Z</time></trkpt>
        <trkpt lat="29.58198" lon="103.382493"><ele>994.0126</ele><time>2026-05-28T20:58:37.000Z</time></trkpt>
        <trkpt lat="29.581947" lon="103.382539"><ele>994.2672</ele><time>2026-05-28T20:58:45.000Z</time></trkpt>
        <trkpt lat="29.581957" lon="103.382603"><ele>994.512</ele><time>2026-05-28T20:58:50.000Z</time></trkpt>
        <trkpt lat="29.581974" lon="103.382661"><ele>994.89844</ele><time>2026-05-28T20:58:54.000Z</time></trkpt>
        <trkpt lat="29.58194" lon="103.382713"><ele>994.7257</ele><time>2026-05-28T20:59:03.000Z</time></trkpt>
        <trkpt lat="29.581898" lon="103.382734"><ele>994.42914</ele><time>2026-05-28T20:59:05.000Z</time></trkpt>
        <trkpt lat="29.581895" lon="103.382793"><ele>994.5273</ele><time>2026-05-28T20:59:07.000Z</time></trkpt>
        <trkpt lat="29.581903" lon="103.382846"><ele>989.8468</ele><time>2026-05-28T20:59:13.000Z</time></trkpt>
        <trkpt lat="29.581904" lon="103.382898"><ele>987.93384</ele><time>2026-05-28T20:59:22.000Z</time></trkpt>
        <trkpt lat="29.581895" lon="103.382952"><ele>984.5322</ele><time>2026-05-28T20:59:32.000Z</time></trkpt>
        <trkpt lat="29.581905" lon="103.383004"><ele>983.3332</ele><time>2026-05-28T20:59:40.000Z</time></trkpt>
        <trkpt lat="29.581898" lon="103.383056"><ele>982.719</ele><time>2026-05-28T20:59:59.000Z</time></trkpt>
        <trkpt lat="29.581922" lon="103.383105"><ele>982.2895</ele><time>2026-05-28T21:00:05.000Z</time></trkpt>
        <trkpt lat="29.581935" lon="103.383157"><ele>980.61615</ele><time>2026-05-28T21:00:12.000Z</time></trkpt>
        <trkpt lat="29.581924" lon="103.383208"><ele>979.9828</ele><time>2026-05-28T21:00:18.000Z</time></trkpt>
        <trkpt lat="29.581904" lon="103.383257"><ele>980.3722</ele><time>2026-05-28T21:00:24.000Z</time></trkpt>
        <trkpt lat="29.581873" lon="103.383298"><ele>979.8787</ele><time>2026-05-28T21:00:30.000Z</time></trkpt>
        <trkpt lat="29.581839" lon="103.383335"><ele>980.75903</ele><time>2026-05-28T21:00:35.000Z</time></trkpt>
        <trkpt lat="29.581806" lon="103.383383"><ele>980.05304</ele><time>2026-05-28T21:00:40.000Z</time></trkpt>
        <trkpt lat="29.581768" lon="103.383421"><ele>980.58826</ele><time>2026-05-28T21:00:45.000Z</time></trkpt>
        <trkpt lat="29.58173" lon="103.383459"><ele>980.87024</ele><time>2026-05-28T21:00:51.000Z</time></trkpt>
        <trkpt lat="29.581702" lon="103.383503"><ele>981.03546</ele><time>2026-05-28T21:00:57.000Z</time></trkpt>
        <trkpt lat="29.581668" lon="103.383545"><ele>982.084</ele><time>2026-05-28T21:01:03.000Z</time></trkpt>
        <trkpt lat="29.581641" lon="103.383592"><ele>980.5131</ele><time>2026-05-28T21:01:08.000Z</time></trkpt>
        <trkpt lat="29.581621" lon="103.383644"><ele>979.45135</ele><time>2026-05-28T21:01:13.000Z</time></trkpt>
        <trkpt lat="29.581588" lon="103.383688"><ele>978.85596</ele><time>2026-05-28T21:01:19.000Z</time></trkpt>
        <trkpt lat="29.581541" lon="103.383704"><ele>978.95557</ele><time>2026-05-28T21:01:25.000Z</time></trkpt>
        <trkpt lat="29.581498" lon="103.383728"><ele>978.4166</ele><time>2026-05-28T21:01:32.000Z</time></trkpt>
        <trkpt lat="29.581454" lon="103.383746"><ele>977.6736</ele><time>2026-05-28T21:01:44.000Z</time></trkpt>
        <trkpt lat="29.581434" lon="103.383698"><ele>978.9024</ele><time>2026-05-28T21:01:58.000Z</time></trkpt>
        <trkpt lat="29.581443" lon="103.383646"><ele>978.2067</ele><time>2026-05-28T21:02:26.000Z</time></trkpt>
        <trkpt lat="29.581454" lon="103.383595"><ele>981.9035</ele><time>2026-05-28T21:02:37.000Z</time></trkpt>
        <trkpt lat="29.58144" lon="103.383546"><ele>985.2683</ele><time>2026-05-28T21:02:50.000Z</time></trkpt>
        <trkpt lat="29.581425" lon="103.383494"><ele>986.6112</ele><time>2026-05-28T21:03:05.000Z</time></trkpt>
        <trkpt lat="29.581436" lon="103.383441"><ele>988.79846</ele><time>2026-05-28T21:03:19.000Z</time></trkpt>
        <trkpt lat="29.581428" lon="103.383383"><ele>989.99066</ele><time>2026-05-28T21:03:30.000Z</time></trkpt>
        <trkpt lat="29.581393" lon="103.383346"><ele>989.79126</ele><time>2026-05-28T21:03:36.000Z</time></trkpt>
        <trkpt lat="29.581358" lon="103.3833"><ele>991.5666</ele><time>2026-05-28T21:03:46.000Z</time></trkpt>
        <trkpt lat="29.581369" lon="103.383249"><ele>989.6165</ele><time>2026-05-28T21:03:52.000Z</time></trkpt>
        <trkpt lat="29.581383" lon="103.383191"><ele>987.4302</ele><time>2026-05-28T21:03:58.000Z</time></trkpt>
        <trkpt lat="29.581385" lon="103.383129"><ele>985.8192</ele><time>2026-05-28T21:04:10.000Z</time></trkpt>
        <trkpt lat="29.58137" lon="103.383079"><ele>993.3784</ele><time>2026-05-28T21:04:29.000Z</time></trkpt>
        <trkpt lat="29.581373" lon="103.383026"><ele>994.09735</ele><time>2026-05-28T21:04:46.000Z</time></trkpt>
        <trkpt lat="29.581373" lon="103.382974"><ele>997.33734</ele><time>2026-05-28T21:04:58.000Z</time></trkpt>
        <trkpt lat="29.581376" lon="103.382923"><ele>996.63135</ele><time>2026-05-28T21:05:09.000Z</time></trkpt>
        <trkpt lat="29.581358" lon="103.382871"><ele>998.6022</ele><time>2026-05-28T21:05:21.000Z</time></trkpt>
        <trkpt lat="29.581321" lon="103.382839"><ele>1008.2546</ele><time>2026-05-28T21:05:57.000Z</time></trkpt>
        <trkpt lat="29.581351" lon="103.382878"><ele>1006.2004</ele><time>2026-05-28T21:09:43.000Z</time></trkpt>
        <trkpt lat="29.581354" lon="103.382826"><ele>1009.1782</ele><time>2026-05-28T21:17:36.000Z</time></trkpt>
        <trkpt lat="29.581368" lon="103.382776"><ele>1012.6167</ele><time>2026-05-28T21:19:50.000Z</time></trkpt>
        <trkpt lat="29.581393" lon="103.382728"><ele>1003.7927</ele><time>2026-05-28T21:20:18.000Z</time></trkpt>
        <trkpt lat="29.581365" lon="103.382684"><ele>1005.1338</ele><time>2026-05-28T21:20:25.000Z</time></trkpt>
        <trkpt lat="29.581342" lon="103.382636"><ele>1006.70624</ele><time>2026-05-28T21:20:30.000Z</time></trkpt>
        <trkpt lat="29.581308" lon="103.382597"><ele>1013.0997</ele><time>2026-05-28T21:20:57.000Z</time></trkpt>
        <trkpt lat="29.581346" lon="103.382563"><ele>1017.0828</ele><time>2026-05-28T21:21:12.000Z</time></trkpt>
        <trkpt lat="29.581383" lon="103.382528"><ele>1018.1067</ele><time>2026-05-28T21:21:19.000Z</time></trkpt>
        <trkpt lat="29.581416" lon="103.382489"><ele>1018.84503</ele><time>2026-05-28T21:21:44.000Z</time></trkpt>
        <trkpt lat="29.581429" lon="103.382435"><ele>1018.95764</ele><time>2026-05-28T21:22:07.000Z</time></trkpt>
        <trkpt lat="29.581451" lon="103.382389"><ele>1016.63806</ele><time>2026-05-28T21:22:13.000Z</time></trkpt>
        <trkpt lat="29.581441" lon="103.382336"><ele>1015.06146</ele><time>2026-05-28T21:22:18.000Z</time></trkpt>
        <trkpt lat="29.581423" lon="103.382287"><ele>1016.8732</ele><time>2026-05-28T21:22:26.000Z</time></trkpt>
        <trkpt lat="29.581457" lon="103.38225"><ele>1017.10394</ele><time>2026-05-28T21:22:40.000Z</time></trkpt>
        <trkpt lat="29.581482" lon="103.382204"><ele>1017.44745</ele><time>2026-05-28T21:22:48.000Z</time></trkpt>
        <trkpt lat="29.581484" lon="103.38215"><ele>1017.8052</ele><time>2026-05-28T21:22:59.000Z</time></trkpt>
        <trkpt lat="29.581499" lon="103.382099"><ele>1018.15656</ele><time>2026-05-28T21:23:04.000Z</time></trkpt>
        <trkpt lat="29.581528" lon="103.382049"><ele>1016.6256</ele><time>2026-05-28T21:23:11.000Z</time></trkpt>
        <trkpt lat="29.581544" lon="103.382"><ele>1017.6488</ele><time>2026-05-28T21:23:17.000Z</time></trkpt>
        <trkpt lat="29.581579" lon="103.381967"><ele>1016.9411</ele><time>2026-05-28T21:23:24.000Z</time></trkpt>
        <trkpt lat="29.581612" lon="103.381918"><ele>1018.57654</ele><time>2026-05-28T21:23:34.000Z</time></trkpt>
        <trkpt lat="29.581644" lon="103.381875"><ele>1018.51135</ele><time>2026-05-28T21:23:40.000Z</time></trkpt>
        <trkpt lat="29.581684" lon="103.381844"><ele>1018.8002</ele><time>2026-05-28T21:24:00.000Z</time></trkpt>
        <trkpt lat="29.581683" lon="103.381779"><ele>1020.82574</ele><time>2026-05-28T21:24:17.000Z</time></trkpt>
        <trkpt lat="29.581703" lon="103.381731"><ele>1020.5043</ele><time>2026-05-28T21:24:24.000Z</time></trkpt>
        <trkpt lat="29.581743" lon="103.381705"><ele>1017.59845</ele><time>2026-05-28T21:24:43.000Z</time></trkpt>
        <trkpt lat="29.581773" lon="103.381662"><ele>1018.2211</ele><time>2026-05-28T21:24:54.000Z</time></trkpt>
        <trkpt lat="29.581792" lon="103.381605"><ele>1019.41187</ele><time>2026-05-28T21:25:14.000Z</time></trkpt>
        <trkpt lat="29.581838" lon="103.381626"><ele>1021.39606</ele><time>2026-05-28T21:25:51.000Z</time></trkpt>
        <trkpt lat="29.581861" lon="103.381578"><ele>1022.23944</ele><time>2026-05-28T21:26:55.000Z</time></trkpt>
        <trkpt lat="29.581902" lon="103.381549"><ele>1022.9102</ele><time>2026-05-28T21:27:02.000Z</time></trkpt>
        <trkpt lat="29.581916" lon="103.381499"><ele>1028.3397</ele><time>2026-05-28T21:27:16.000Z</time></trkpt>
        <trkpt lat="29.581957" lon="103.381525"><ele>1028.8936</ele><time>2026-05-28T21:27:34.000Z</time></trkpt>
        <trkpt lat="29.581958" lon="103.381465"><ele>1028.1624</ele><time>2026-05-28T21:27:37.000Z</time></trkpt>
        <trkpt lat="29.581796" lon="103.38128"><ele>1024.1259</ele><time>2026-05-28T21:27:58.000Z</time></trkpt>
        <trkpt lat="29.581868" lon="103.380937"><ele>1023.6341</ele><time>2026-05-28T21:28:16.000Z</time></trkpt>
        <trkpt lat="29.5819" lon="103.381047"><ele>1028.0078</ele><time>2026-05-28T21:28:24.000Z</time></trkpt>
        <trkpt lat="29.581877" lon="103.3811"><ele>1028.9092</ele><time>2026-05-28T21:28:39.000Z</time></trkpt>
        <trkpt lat="29.581832" lon="103.381127"><ele>1026.624</ele><time>2026-05-28T21:28:57.000Z</time></trkpt>
        <trkpt lat="29.581885" lon="103.381166"><ele>1026.1381</ele><time>2026-05-28T21:29:04.000Z</time></trkpt>
        <trkpt lat="29.581909" lon="103.381489"><ele>1024.6711</ele><time>2026-05-28T21:29:09.000Z</time></trkpt>
        <trkpt lat="29.581924" lon="103.38144"><ele>1027.4856</ele><time>2026-05-28T21:29:29.000Z</time></trkpt>
        <trkpt lat="29.581958" lon="103.381391"><ele>1028.21</ele><time>2026-05-28T21:29:38.000Z</time></trkpt>
        <trkpt lat="29.581928" lon="103.380991"><ele>1027.0337</ele><time>2026-05-28T21:29:51.000Z</time></trkpt>
        <trkpt lat="29.581924" lon="103.381046"><ele>1027.4984</ele><time>2026-05-28T21:29:52.000Z</time></trkpt>
        <trkpt lat="29.58191" lon="103.381098"><ele>1028.5165</ele><time>2026-05-28T21:29:56.000Z</time></trkpt>
        <trkpt lat="29.581903" lon="103.381151"><ele>1027.5618</ele><time>2026-05-28T21:29:59.000Z</time></trkpt>
        <trkpt lat="29.581948" lon="103.381147"><ele>1033.2526</ele><time>2026-05-28T21:30:05.000Z</time></trkpt>
        <trkpt lat="29.58199" lon="103.38118"><ele>1042.8428</ele><time>2026-05-28T21:30:35.000Z</time></trkpt>
        <trkpt lat="29.581992" lon="103.381115"><ele>1031.628</ele><time>2026-05-28T21:31:03.000Z</time></trkpt>
        <trkpt lat="29.581766" lon="103.380857"><ele>1030.4506</ele><time>2026-05-28T21:31:10.000Z</time></trkpt>
        <trkpt lat="29.581814" lon="103.380847"><ele>1030.4723</ele><time>2026-05-28T21:31:12.000Z</time></trkpt>
        <trkpt lat="29.581837" lon="103.380798"><ele>1029.1296</ele><time>2026-05-28T21:31:16.000Z</time></trkpt>
        <trkpt lat="29.581815" lon="103.38086"><ele>1029.0917</ele><time>2026-05-28T21:31:18.000Z</time></trkpt>
        <trkpt lat="29.581857" lon="103.380835"><ele>1028.4642</ele><time>2026-05-28T21:31:20.000Z</time></trkpt>
        <trkpt lat="29.581894" lon="103.38079"><ele>1027.6005</ele><time>2026-05-28T21:31:23.000Z</time></trkpt>
        <trkpt lat="29.581904" lon="103.380686"><ele>1029.0515</ele><time>2026-05-28T21:31:46.000Z</time></trkpt>
        <trkpt lat="29.581954" lon="103.380684"><ele>1026.6282</ele><time>2026-05-28T21:31:51.000Z</time></trkpt>
        <trkpt lat="29.581951" lon="103.380632"><ele>1029.8651</ele><time>2026-05-28T21:32:07.000Z</time></trkpt>
        <trkpt lat="29.581966" lon="103.380683"><ele>1032.6547</ele><time>2026-05-28T21:32:27.000Z</time></trkpt>
        <trkpt lat="29.581952" lon="103.380629"><ele>1033.066</ele><time>2026-05-28T21:32:51.000Z</time></trkpt>
        <trkpt lat="29.581948" lon="103.380697"><ele>1030.0535</ele><time>2026-05-28T21:33:12.000Z</time></trkpt>
        <trkpt lat="29.581909" lon="103.380725"><ele>1028.2357</ele><time>2026-05-28T21:33:20.000Z</time></trkpt>
        <trkpt lat="29.58187" lon="103.380767"><ele>1026.6729</ele><time>2026-05-28T21:33:25.000Z</time></trkpt>
        <trkpt lat="29.581909" lon="103.380795"><ele>1025.9755</ele><time>2026-05-28T21:33:36.000Z</time></trkpt>
        <trkpt lat="29.581907" lon="103.380848"><ele>1025.8778</ele><time>2026-05-28T21:33:39.000Z</time></trkpt>
        <trkpt lat="29.581947" lon="103.380877"><ele>1027.2042</ele><time>2026-05-28T21:33:42.000Z</time></trkpt>
        <trkpt lat="29.581945" lon="103.380939"><ele>1028.7891</ele><time>2026-05-28T21:33:47.000Z</time></trkpt>
        <trkpt lat="29.581923" lon="103.380992"><ele>1031.8363</ele><time>2026-05-28T21:33:52.000Z</time></trkpt>
        <trkpt lat="29.581911" lon="103.38105"><ele>1032.1241</ele><time>2026-05-28T21:33:59.000Z</time></trkpt>
        <trkpt lat="29.5819" lon="103.381108"><ele>1031.9677</ele><time>2026-05-28T21:34:06.000Z</time></trkpt>
        <trkpt lat="29.581948" lon="103.381121"><ele>1033.2393</ele><time>2026-05-28T21:34:10.000Z</time></trkpt>
        <trkpt lat="29.582001" lon="103.381139"><ele>1032.6053</ele><time>2026-05-28T21:34:15.000Z</time></trkpt>
        <trkpt lat="29.582048" lon="103.381154"><ele>1030.901</ele><time>2026-05-28T21:34:20.000Z</time></trkpt>
        <trkpt lat="29.582093" lon="103.381144"><ele>1030.5259</ele><time>2026-05-28T21:34:24.000Z</time></trkpt>
        <trkpt lat="29.582143" lon="103.381144"><ele>1029.1195</ele><time>2026-05-28T21:34:28.000Z</time></trkpt>
        <trkpt lat="29.582151" lon="103.381205"><ele>1024.9951</ele><time>2026-05-28T21:34:32.000Z</time></trkpt>
        <trkpt lat="29.582152" lon="103.381264"><ele>1023.7332</ele><time>2026-05-28T21:34:36.000Z</time></trkpt>
        <trkpt lat="29.582136" lon="103.38132"><ele>1023.56177</ele><time>2026-05-28T21:34:40.000Z</time></trkpt>
        <trkpt lat="29.582113" lon="103.381372"><ele>1024.0333</ele><time>2026-05-28T21:34:45.000Z</time></trkpt>
        <trkpt lat="29.582071" lon="103.381391"><ele>1024.8739</ele><time>2026-05-28T21:34:51.000Z</time></trkpt>
        <trkpt lat="29.582025" lon="103.381394"><ele>1025.7811</ele><time>2026-05-28T21:34:55.000Z</time></trkpt>
        <trkpt lat="29.581981" lon="103.381409"><ele>1026.5187</ele><time>2026-05-28T21:34:59.000Z</time></trkpt>
        <trkpt lat="29.581935" lon="103.381416"><ele>1027.9994</ele><time>2026-05-28T21:35:05.000Z</time></trkpt>
        <trkpt lat="29.581897" lon="103.381447"><ele>1029.4819</ele><time>2026-05-28T21:35:14.000Z</time></trkpt>
        <trkpt lat="29.581862" lon="103.381486"><ele>1029.501</ele><time>2026-05-28T21:35:25.000Z</time></trkpt>
        <trkpt lat="29.581813" lon="103.381459"><ele>1030.1643</ele><time>2026-05-28T21:35:31.000Z</time></trkpt>
        <trkpt lat="29.58177" lon="103.381492"><ele>1031.5697</ele><time>2026-05-28T21:35:37.000Z</time></trkpt>
        <trkpt lat="29.581738" lon="103.381531"><ele>1033.4655</ele><time>2026-05-28T21:35:42.000Z</time></trkpt>
        <trkpt lat="29.581711" lon="103.381577"><ele>1033.1216</ele><time>2026-05-28T21:35:45.000Z</time></trkpt>
        <trkpt lat="29.581681" lon="103.381629"><ele>1035.7385</ele><time>2026-05-28T21:35:49.000Z</time></trkpt>
        <trkpt lat="29.581667" lon="103.381686"><ele>1033.1913</ele><time>2026-05-28T21:35:52.000Z</time></trkpt>
        <trkpt lat="29.581652" lon="103.381737"><ele>1030.4048</ele><time>2026-05-28T21:35:55.000Z</time></trkpt>
        <trkpt lat="29.581641" lon="103.381788"><ele>1027.1304</ele><time>2026-05-28T21:35:58.000Z</time></trkpt>
        <trkpt lat="29.58162" lon="103.381836"><ele>1024.5001</ele><time>2026-05-28T21:36:01.000Z</time></trkpt>
        <trkpt lat="29.581602" lon="103.381892"><ele>1021.9628</ele><time>2026-05-28T21:36:05.000Z</time></trkpt>
        <trkpt lat="29.58158" lon="103.381942"><ele>1020.9777</ele><time>2026-05-28T21:36:08.000Z</time></trkpt>
        <trkpt lat="29.581558" lon="103.381995"><ele>1018.9803</ele><time>2026-05-28T21:36:12.000Z</time></trkpt>
        <trkpt lat="29.58153" lon="103.382053"><ele>1017.56415</ele><time>2026-05-28T21:36:16.000Z</time></trkpt>
        <trkpt lat="29.581505" lon="103.382107"><ele>1016.7989</ele><time>2026-05-28T21:36:20.000Z</time></trkpt>
        <trkpt lat="29.581461" lon="103.382155"><ele>1013.39136</ele><time>2026-05-28T21:36:27.000Z</time></trkpt>
        <trkpt lat="29.581433" lon="103.382205"><ele>1013.8582</ele><time>2026-05-28T21:36:33.000Z</time></trkpt>
        <trkpt lat="29.581386" lon="103.382219"><ele>1015.17755</ele><time>2026-05-28T21:36:44.000Z</time></trkpt>
        <trkpt lat="29.581337" lon="103.382203"><ele>1016.4045</ele><time>2026-05-28T21:36:50.000Z</time></trkpt>
        <trkpt lat="29.581284" lon="103.382202"><ele>1020.61115</ele><time>2026-05-28T21:36:55.000Z</time></trkpt>
        <trkpt lat="29.581249" lon="103.382236"><ele>1022.97705</ele><time>2026-05-28T21:37:00.000Z</time></trkpt>
        <trkpt lat="29.581226" lon="103.382291"><ele>1024.2637</ele><time>2026-05-28T21:37:05.000Z</time></trkpt>
        <trkpt lat="29.581242" lon="103.382345"><ele>1026.5375</ele><time>2026-05-28T21:37:10.000Z</time></trkpt>
        <trkpt lat="29.581281" lon="103.382383"><ele>1024.1211</ele><time>2026-05-28T21:37:16.000Z</time></trkpt>
        <trkpt lat="29.581324" lon="103.382411"><ele>1020.8599</ele><time>2026-05-28T21:37:21.000Z</time></trkpt>
        <trkpt lat="29.581367" lon="103.382453"><ele>1020.46173</ele><time>2026-05-28T21:37:26.000Z</time></trkpt>
        <trkpt lat="29.581373" lon="103.382511"><ele>1021.6237</ele><time>2026-05-28T21:37:35.000Z</time></trkpt>
        <trkpt lat="29.581325" lon="103.382534"><ele>1021.91187</ele><time>2026-05-28T21:37:43.000Z</time></trkpt>
        <trkpt lat="29.581285" lon="103.382561"><ele>1020.86816</ele><time>2026-05-28T21:37:48.000Z</time></trkpt>
        <trkpt lat="29.581257" lon="103.382513"><ele>1015.15155</ele><time>2026-05-28T21:38:01.000Z</time></trkpt>
        <trkpt lat="29.581231" lon="103.382466"><ele>1014.906</ele><time>2026-05-28T21:38:06.000Z</time></trkpt>
        <trkpt lat="29.58119" lon="103.382439"><ele>1015.0876</ele><time>2026-05-28T21:38:14.000Z</time></trkpt>
        <trkpt lat="29.581192" lon="103.382382"><ele>1011.66437</ele><time>2026-05-28T21:38:24.000Z</time></trkpt>
        <trkpt lat="29.581201" lon="103.382328"><ele>1012.0014</ele><time>2026-05-28T21:38:29.000Z</time></trkpt>
        <trkpt lat="29.581168" lon="103.382279"><ele>1011.0123</ele><time>2026-05-28T21:38:35.000Z</time></trkpt>
        <trkpt lat="29.581128" lon="103.382254"><ele>1010.809</ele><time>2026-05-28T21:38:40.000Z</time></trkpt>
        <trkpt lat="29.581087" lon="103.382223"><ele>1010.43286</ele><time>2026-05-28T21:38:46.000Z</time></trkpt>
        <trkpt lat="29.581047" lon="103.382175"><ele>1011.7925</ele><time>2026-05-28T21:38:55.000Z</time></trkpt>
        <trkpt lat="29.581" lon="103.382149"><ele>1010.9609</ele><time>2026-05-28T21:39:01.000Z</time></trkpt>
        <trkpt lat="29.581032" lon="103.38219"><ele>1011.835</ele><time>2026-05-28T21:39:10.000Z</time></trkpt>
        <trkpt lat="29.581005" lon="103.382235"><ele>1012.75</ele><time>2026-05-28T21:40:10.000Z</time></trkpt>
        <trkpt lat="29.580988" lon="103.382181"><ele>1012.775</ele><time>2026-05-28T21:40:15.000Z</time></trkpt>
        <trkpt lat="29.581029" lon="103.382213"><ele>1014.3359</ele><time>2026-05-28T21:40:24.000Z</time></trkpt>
        <trkpt lat="29.581075" lon="103.382234"><ele>1014.58997</ele><time>2026-05-28T21:40:27.000Z</time></trkpt>
        <trkpt lat="29.581114" lon="103.382193"><ele>1014.1081</ele><time>2026-05-28T21:41:00.000Z</time></trkpt>
        <trkpt lat="29.581163" lon="103.38219"><ele>1014.7364</ele><time>2026-05-28T21:41:05.000Z</time></trkpt>
        <trkpt lat="29.581207" lon="103.382166"><ele>1014.0979</ele><time>2026-05-28T21:41:10.000Z</time></trkpt>
        <trkpt lat="29.581255" lon="103.382162"><ele>1014.6136</ele><time>2026-05-28T21:41:15.000Z</time></trkpt>
        <trkpt lat="29.581308" lon="103.382173"><ele>1015.5883</ele><time>2026-05-28T21:41:20.000Z</time></trkpt>
        <trkpt lat="29.581361" lon="103.38218"><ele>1019.763</ele><time>2026-05-28T21:41:28.000Z</time></trkpt>
        <trkpt lat="29.581397" lon="103.382137"><ele>1020.551</ele><time>2026-05-28T21:41:32.000Z</time></trkpt>
        <trkpt lat="29.581429" lon="103.3821"><ele>1019.14905</ele><time>2026-05-28T21:41:43.000Z</time></trkpt>
        <trkpt lat="29.581396" lon="103.382149"><ele>1016.01556</ele><time>2026-05-28T21:42:00.000Z</time></trkpt>
        <trkpt lat="29.58137" lon="103.382197"><ele>1015.5412</ele><time>2026-05-28T21:42:03.000Z</time></trkpt>
        <trkpt lat="29.581316" lon="103.3822"><ele>1016.3494</ele><time>2026-05-28T21:42:10.000Z</time></trkpt>
        <trkpt lat="29.581266" lon="103.382199"><ele>1018.0881</ele><time>2026-05-28T21:42:15.000Z</time></trkpt>
        <trkpt lat="29.581251" lon="103.382132"><ele>1019.54047</ele><time>2026-05-28T21:42:21.000Z</time></trkpt>
        <trkpt lat="29.581271" lon="103.382072"><ele>1017.635</ele><time>2026-05-28T21:42:25.000Z</time></trkpt>
        <trkpt lat="29.581275" lon="103.382014"><ele>1016.8921</ele><time>2026-05-28T21:42:29.000Z</time></trkpt>
        <trkpt lat="29.581252" lon="103.381962"><ele>1016.528</ele><time>2026-05-28T21:42:33.000Z</time></trkpt>
        <trkpt lat="29.581218" lon="103.382006"><ele>1014.935</ele><time>2026-05-28T21:42:49.000Z</time></trkpt>
        <trkpt lat="29.581218" lon="103.382064"><ele>1014.5808</ele><time>2026-05-28T21:42:55.000Z</time></trkpt>
        <trkpt lat="29.581193" lon="103.382115"><ele>1014.39355</ele><time>2026-05-28T21:43:03.000Z</time></trkpt>
        <trkpt lat="29.581146" lon="103.382153"><ele>1013.93567</ele><time>2026-05-28T21:43:09.000Z</time></trkpt>
        <trkpt lat="29.58109" lon="103.382167"><ele>1008.39374</ele><time>2026-05-28T21:43:40.000Z</time></trkpt>
        <trkpt lat="29.58114" lon="103.382148"><ele>1016.22864</ele><time>2026-05-28T21:45:11.000Z</time></trkpt>
        <trkpt lat="29.581092" lon="103.382137"><ele>1008.2658</ele><time>2026-05-28T21:45:50.000Z</time></trkpt>
        <trkpt lat="29.581111" lon="103.382189"><ele>1011.10236</ele><time>2026-05-28T21:46:44.000Z</time></trkpt>
        <trkpt lat="29.58114" lon="103.382239"><ele>1012.4598</ele><time>2026-05-28T21:46:50.000Z</time></trkpt>
        <trkpt lat="29.581157" lon="103.38229"><ele>1012.71277</ele><time>2026-05-28T21:46:57.000Z</time></trkpt>
        <trkpt lat="29.5812" lon="103.38232"><ele>1011.7125</ele><time>2026-05-28T21:47:19.000Z</time></trkpt>
        <trkpt lat="29.581238" lon="103.382355"><ele>1011.2096</ele><time>2026-05-28T21:47:27.000Z</time></trkpt>
        <trkpt lat="29.581277" lon="103.382383"><ele>1009.8596</ele><time>2026-05-28T21:47:48.000Z</time></trkpt>
        <trkpt lat="29.581323" lon="103.382405"><ele>1011.8884</ele><time>2026-05-28T21:47:54.000Z</time></trkpt>
        <trkpt lat="29.581356" lon="103.382444"><ele>1014.57227</ele><time>2026-05-28T21:47:59.000Z</time></trkpt>
        <trkpt lat="29.581354" lon="103.382505"><ele>1015.2095</ele><time>2026-05-28T21:48:07.000Z</time></trkpt>
        <trkpt lat="29.581329" lon="103.382557"><ele>1016.62067</ele><time>2026-05-28T21:48:13.000Z</time></trkpt>
        <trkpt lat="29.581313" lon="103.382606"><ele>1016.6373</ele><time>2026-05-28T21:48:17.000Z</time></trkpt>
        <trkpt lat="29.581323" lon="103.382664"><ele>1007.98505</ele><time>2026-05-28T21:48:38.000Z</time></trkpt>
        <trkpt lat="29.581313" lon="103.382728"><ele>1006.05</ele><time>2026-05-28T21:48:45.000Z</time></trkpt>
        <trkpt lat="29.581305" lon="103.382789"><ele>1007.2467</ele><time>2026-05-28T21:48:51.000Z</time></trkpt>
        <trkpt lat="29.581303" lon="103.382853"><ele>1004.4016</ele><time>2026-05-28T21:48:58.000Z</time></trkpt>
        <trkpt lat="29.581342" lon="103.382888"><ele>1005.3998</ele><time>2026-05-28T21:49:15.000Z</time></trkpt>
        <trkpt lat="29.581327" lon="103.382938"><ele>1004.04926</ele><time>2026-05-28T21:49:24.000Z</time></trkpt>
        <trkpt lat="29.581316" lon="103.382991"><ele>1006.3851</ele><time>2026-05-28T21:49:33.000Z</time></trkpt>
        <trkpt lat="29.581329" lon="103.383045"><ele>1007.5659</ele><time>2026-05-28T21:49:41.000Z</time></trkpt>
        <trkpt lat="29.581347" lon="103.383093"><ele>1003.5726</ele><time>2026-05-28T21:49:53.000Z</time></trkpt>
        <trkpt lat="29.581346" lon="103.383146"><ele>1002.6787</ele><time>2026-05-28T21:50:14.000Z</time></trkpt>
        <trkpt lat="29.581358" lon="103.383198"><ele>1001.688</ele><time>2026-05-28T21:50:29.000Z</time></trkpt>
        <trkpt lat="29.581361" lon="103.383253"><ele>999.0964</ele><time>2026-05-28T21:50:46.000Z</time></trkpt>
        <trkpt lat="29.58138" lon="103.383301"><ele>994.1523</ele><time>2026-05-28T21:51:08.000Z</time></trkpt>
        <trkpt lat="29.581376" lon="103.383366"><ele>995.1607</ele><time>2026-05-28T21:51:13.000Z</time></trkpt>
        <trkpt lat="29.581387" lon="103.383432"><ele>989.2379</ele><time>2026-05-28T21:51:33.000Z</time></trkpt>
        <trkpt lat="29.581422" lon="103.383399"><ele>986.8541</ele><time>2026-05-28T21:51:54.000Z</time></trkpt>
        <trkpt lat="29.581406" lon="103.383457"><ele>987.2366</ele><time>2026-05-28T21:52:21.000Z</time></trkpt>
        <trkpt lat="29.581399" lon="103.38351"><ele>987.2168</ele><time>2026-05-28T21:52:34.000Z</time></trkpt>
        <trkpt lat="29.581416" lon="103.383564"><ele>988.4385</ele><time>2026-05-28T21:52:42.000Z</time></trkpt>
        <trkpt lat="29.581412" lon="103.383617"><ele>987.887</ele><time>2026-05-28T21:52:51.000Z</time></trkpt>
        <trkpt lat="29.581403" lon="103.383681"><ele>986.4338</ele><time>2026-05-28T21:53:02.000Z</time></trkpt>
        <trkpt lat="29.581405" lon="103.38374"><ele>987.6971</ele><time>2026-05-28T21:53:07.000Z</time></trkpt>
        <trkpt lat="29.581442" lon="103.383772"><ele>985.95685</ele><time>2026-05-28T21:53:12.000Z</time></trkpt>
        <trkpt lat="29.581473" lon="103.383816"><ele>984.3156</ele><time>2026-05-28T21:53:19.000Z</time></trkpt>
        <trkpt lat="29.581516" lon="103.383866"><ele>976.21204</ele><time>2026-05-28T21:54:17.000Z</time></trkpt>
        <trkpt lat="29.581512" lon="103.383918"><ele>975.11694</ele><time>2026-05-28T21:55:14.000Z</time></trkpt>
        <trkpt lat="29.581529" lon="103.38397"><ele>977.04834</ele><time>2026-05-28T21:55:47.000Z</time></trkpt>
        <trkpt lat="29.581522" lon="103.384025"><ele>976.9139</ele><time>2026-05-28T21:55:52.000Z</time></trkpt>
        <trkpt lat="29.581538" lon="103.384075"><ele>973.0489</ele><time>2026-05-28T21:55:57.000Z</time></trkpt>
        <trkpt lat="29.581544" lon="103.384136"><ele>972.5859</ele><time>2026-05-28T21:56:02.000Z</time></trkpt>
        <trkpt lat="29.581591" lon="103.38416"><ele>970.7626</ele><time>2026-05-28T21:56:12.000Z</time></trkpt>
        <trkpt lat="29.581604" lon="103.384209"><ele>969.38135</ele><time>2026-05-28T21:56:18.000Z</time></trkpt>
        <trkpt lat="29.581633" lon="103.384253"><ele>968.7698</ele><time>2026-05-28T21:56:30.000Z</time></trkpt>
        <trkpt lat="29.5816" lon="103.384295"><ele>964.48846</ele><time>2026-05-28T21:56:43.000Z</time></trkpt>
        <trkpt lat="29.58156" lon="103.384329"><ele>962.5052</ele><time>2026-05-28T21:56:49.000Z</time></trkpt>
        <trkpt lat="29.581538" lon="103.384374"><ele>961.2773</ele><time>2026-05-28T21:56:58.000Z</time></trkpt>
        <trkpt lat="29.581492" lon="103.384376"><ele>963.24554</ele><time>2026-05-28T21:57:30.000Z</time></trkpt>
        <trkpt lat="29.581447" lon="103.384359"><ele>967.72437</ele><time>2026-05-28T21:57:48.000Z</time></trkpt>
        <trkpt lat="29.581394" lon="103.384383"><ele>967.64154</ele><time>2026-05-28T21:58:12.000Z</time></trkpt>
        <trkpt lat="29.581365" lon="103.384341"><ele>966.12317</ele><time>2026-05-28T21:58:29.000Z</time></trkpt>
        <trkpt lat="29.581321" lon="103.384316"><ele>961.1663</ele><time>2026-05-28T21:58:40.000Z</time></trkpt>
        <trkpt lat="29.581274" lon="103.384322"><ele>957.86444</ele><time>2026-05-28T21:58:49.000Z</time></trkpt>
        <trkpt lat="29.581249" lon="103.384279"><ele>957.26746</ele><time>2026-05-28T21:58:59.000Z</time></trkpt>
        <trkpt lat="29.5812" lon="103.384279"><ele>955.29126</ele><time>2026-05-28T21:59:13.000Z</time></trkpt>
        <trkpt lat="29.581164" lon="103.384245"><ele>955.7576</ele><time>2026-05-28T21:59:19.000Z</time></trkpt>
        <trkpt lat="29.581111" lon="103.384236"><ele>954.621</ele><time>2026-05-28T21:59:28.000Z</time></trkpt>
        <trkpt lat="29.581072" lon="103.384209"><ele>947.1673</ele><time>2026-05-28T21:59:40.000Z</time></trkpt>
        <trkpt lat="29.581029" lon="103.384188"><ele>945.4941</ele><time>2026-05-28T21:59:49.000Z</time></trkpt>
        <trkpt lat="29.58098" lon="103.384179"><ele>942.6809</ele><time>2026-05-28T21:59:58.000Z</time></trkpt>
        <trkpt lat="29.580935" lon="103.384161"><ele>941.666</ele><time>2026-05-28T22:00:05.000Z</time></trkpt>
        <trkpt lat="29.580889" lon="103.384167"><ele>940.5252</ele><time>2026-05-28T22:00:10.000Z</time></trkpt>
        <trkpt lat="29.580846" lon="103.384185"><ele>941.18555</ele><time>2026-05-28T22:00:18.000Z</time></trkpt>
        <trkpt lat="29.580806" lon="103.384227"><ele>942.29333</ele><time>2026-05-28T22:00:24.000Z</time></trkpt>
        <trkpt lat="29.580787" lon="103.384276"><ele>937.6711</ele><time>2026-05-28T22:00:35.000Z</time></trkpt>
        <trkpt lat="29.580747" lon="103.384308"><ele>933.91425</ele><time>2026-05-28T22:00:46.000Z</time></trkpt>
        <trkpt lat="29.580726" lon="103.384362"><ele>929.49426</ele><time>2026-05-28T22:00:57.000Z</time></trkpt>
        <trkpt lat="29.580695" lon="103.384415"><ele>926.94507</ele><time>2026-05-28T22:01:05.000Z</time></trkpt>
        <trkpt lat="29.580653" lon="103.384451"><ele>923.0412</ele><time>2026-05-28T22:01:40.000Z</time></trkpt>
        <trkpt lat="29.580618" lon="103.384495"><ele>922.3795</ele><time>2026-05-28T22:01:46.000Z</time></trkpt>
        <trkpt lat="29.580589" lon="103.384537"><ele>921.9636</ele><time>2026-05-28T22:02:00.000Z</time></trkpt>
        <trkpt lat="29.580546" lon="103.38456"><ele>923.5088</ele><time>2026-05-28T22:02:05.000Z</time></trkpt>
        <trkpt lat="29.580524" lon="103.384609"><ele>921.03204</ele><time>2026-05-28T22:02:12.000Z</time></trkpt>
        <trkpt lat="29.580492" lon="103.384655"><ele>919.69354</ele><time>2026-05-28T22:02:19.000Z</time></trkpt>
        <trkpt lat="29.580462" lon="103.384694"><ele>917.6894</ele><time>2026-05-28T22:02:25.000Z</time></trkpt>
        <trkpt lat="29.58043" lon="103.384745"><ele>915.4316</ele><time>2026-05-28T22:02:33.000Z</time></trkpt>
        <trkpt lat="29.580384" lon="103.384768"><ele>914.2297</ele><time>2026-05-28T22:02:38.000Z</time></trkpt>
        <trkpt lat="29.580343" lon="103.384814"><ele>913.5807</ele><time>2026-05-28T22:02:45.000Z</time></trkpt>
        <trkpt lat="29.580316" lon="103.384864"><ele>912.8564</ele><time>2026-05-28T22:02:51.000Z</time></trkpt>
        <trkpt lat="29.580299" lon="103.384916"><ele>910.78436</ele><time>2026-05-28T22:02:59.000Z</time></trkpt>
        <trkpt lat="29.580266" lon="103.384965"><ele>908.7048</ele><time>2026-05-28T22:03:06.000Z</time></trkpt>
        <trkpt lat="29.580236" lon="103.385009"><ele>908.6846</ele><time>2026-05-28T22:03:12.000Z</time></trkpt>
        <trkpt lat="29.580204" lon="103.385055"><ele>907.7095</ele><time>2026-05-28T22:03:18.000Z</time></trkpt>
        <trkpt lat="29.58017" lon="103.385107"><ele>907.4636</ele><time>2026-05-28T22:03:22.000Z</time></trkpt>
        <trkpt lat="29.580133" lon="103.385142"><ele>909.0241</ele><time>2026-05-28T22:03:26.000Z</time></trkpt>
        <trkpt lat="29.580102" lon="103.385191"><ele>909.90656</ele><time>2026-05-28T22:03:30.000Z</time></trkpt>
        <trkpt lat="29.580059" lon="103.385216"><ele>908.4096</ele><time>2026-05-28T22:03:38.000Z</time></trkpt>
        <trkpt lat="29.580027" lon="103.385256"><ele>904.2996</ele><time>2026-05-28T22:03:45.000Z</time></trkpt>
        <trkpt lat="29.579993" lon="103.385298"><ele>897.72565</ele><time>2026-05-28T22:03:55.000Z</time></trkpt>
        <trkpt lat="29.579949" lon="103.385317"><ele>890.6852</ele><time>2026-05-28T22:04:04.000Z</time></trkpt>
        <trkpt lat="29.579912" lon="103.385348"><ele>888.17456</ele><time>2026-05-28T22:04:14.000Z</time></trkpt>
        <trkpt lat="29.579872" lon="103.385384"><ele>890.2913</ele><time>2026-05-28T22:04:20.000Z</time></trkpt>
        <trkpt lat="29.579851" lon="103.385432"><ele>891.68646</ele><time>2026-05-28T22:04:33.000Z</time></trkpt>
        <trkpt lat="29.579809" lon="103.385464"><ele>891.78406</ele><time>2026-05-28T22:04:49.000Z</time></trkpt>
        <trkpt lat="29.579757" lon="103.385469"><ele>891.8191</ele><time>2026-05-28T22:04:55.000Z</time></trkpt>
        <trkpt lat="29.579706" lon="103.385482"><ele>891.56287</ele><time>2026-05-28T22:05:02.000Z</time></trkpt>
        <trkpt lat="29.579672" lon="103.385524"><ele>888.8549</ele><time>2026-05-28T22:05:37.000Z</time></trkpt>
        <trkpt lat="29.579652" lon="103.385575"><ele>888.1024</ele><time>2026-05-28T22:05:48.000Z</time></trkpt>
        <trkpt lat="29.579632" lon="103.385629"><ele>885.0276</ele><time>2026-05-28T22:05:55.000Z</time></trkpt>
        <trkpt lat="29.579633" lon="103.385681"><ele>883.6255</ele><time>2026-05-28T22:06:09.000Z</time></trkpt>
        <trkpt lat="29.579595" lon="103.38571"><ele>883.4119</ele><time>2026-05-28T22:06:15.000Z</time></trkpt>
        <trkpt lat="29.579578" lon="103.385758"><ele>881.81824</ele><time>2026-05-28T22:06:21.000Z</time></trkpt>
        <trkpt lat="29.57956" lon="103.385815"><ele>878.08563</ele><time>2026-05-28T22:06:28.000Z</time></trkpt>
        <trkpt lat="29.579534" lon="103.385863"><ele>875.8256</ele><time>2026-05-28T22:06:35.000Z</time></trkpt>
        <trkpt lat="29.579498" lon="103.385897"><ele>871.3257</ele><time>2026-05-28T22:06:47.000Z</time></trkpt>
        <trkpt lat="29.579479" lon="103.385946"><ele>871.41876</ele><time>2026-05-28T22:06:52.000Z</time></trkpt>
        <trkpt lat="29.579466" lon="103.385996"><ele>871.1027</ele><time>2026-05-28T22:06:57.000Z</time></trkpt>
        <trkpt lat="29.579466" lon="103.386052"><ele>871.7353</ele><time>2026-05-28T22:07:06.000Z</time></trkpt>
        <trkpt lat="29.579451" lon="103.38611"><ele>868.20496</ele><time>2026-05-28T22:07:21.000Z</time></trkpt>
        <trkpt lat="29.579441" lon="103.386167"><ele>866.35614</ele><time>2026-05-28T22:07:33.000Z</time></trkpt>
        <trkpt lat="29.579446" lon="103.386226"><ele>863.7557</ele><time>2026-05-28T22:07:45.000Z</time></trkpt>
        <trkpt lat="29.579444" lon="103.386283"><ele>863.9039</ele><time>2026-05-28T22:07:51.000Z</time></trkpt>
        <trkpt lat="29.579438" lon="103.386337"><ele>864.0012</ele><time>2026-05-28T22:08:02.000Z</time></trkpt>
        <trkpt lat="29.579431" lon="103.386391"><ele>860.9312</ele><time>2026-05-28T22:08:11.000Z</time></trkpt>
        <trkpt lat="29.579426" lon="103.38645"><ele>857.3456</ele><time>2026-05-28T22:08:23.000Z</time></trkpt>
        <trkpt lat="29.579395" lon="103.386495"><ele>856.4318</ele><time>2026-05-28T22:08:31.000Z</time></trkpt>
        <trkpt lat="29.579412" lon="103.386549"><ele>862.9327</ele><time>2026-05-28T22:08:52.000Z</time></trkpt>
        <trkpt lat="29.57939" lon="103.386601"><ele>862.9163</ele><time>2026-05-28T22:08:59.000Z</time></trkpt>
        <trkpt lat="29.579372" lon="103.386648"><ele>862.3378</ele><time>2026-05-28T22:09:07.000Z</time></trkpt>
        <trkpt lat="29.579316" lon="103.386678"><ele>863.62854</ele><time>2026-05-28T22:09:14.000Z</time></trkpt>
        <trkpt lat="29.57932" lon="103.386731"><ele>859.395</ele><time>2026-05-28T22:09:28.000Z</time></trkpt>
        <trkpt lat="29.579283" lon="103.38676"><ele>858.56506</ele><time>2026-05-28T22:09:36.000Z</time></trkpt>
        <trkpt lat="29.579269" lon="103.386822"><ele>856.272</ele><time>2026-05-28T22:10:04.000Z</time></trkpt>
        <trkpt lat="29.579235" lon="103.386862"><ele>856.064</ele><time>2026-05-28T22:10:09.000Z</time></trkpt>
        <trkpt lat="29.57919" lon="103.386889"><ele>855.4053</ele><time>2026-05-28T22:10:11.000Z</time></trkpt>
        <trkpt lat="29.579183" lon="103.386941"><ele>846.51135</ele><time>2026-05-28T22:10:26.000Z</time></trkpt>
        <trkpt lat="29.579138" lon="103.386989"><ele>840.96326</ele><time>2026-05-28T22:10:35.000Z</time></trkpt>
        <trkpt lat="29.579105" lon="103.38704"><ele>842.192</ele><time>2026-05-28T22:10:50.000Z</time></trkpt>
        <trkpt lat="29.579081" lon="103.38709"><ele>842.9872</ele><time>2026-05-28T22:10:56.000Z</time></trkpt>
        <trkpt lat="29.579054" lon="103.387133"><ele>843.02997</ele><time>2026-05-28T22:11:01.000Z</time></trkpt>
        <trkpt lat="29.579036" lon="103.387192"><ele>843.41876</ele><time>2026-05-28T22:11:06.000Z</time></trkpt>
        <trkpt lat="29.579031" lon="103.387258"><ele>843.7244</ele><time>2026-05-28T22:11:11.000Z</time></trkpt>
        <trkpt lat="29.579028" lon="103.387314"><ele>842.28235</ele><time>2026-05-28T22:11:16.000Z</time></trkpt>
        <trkpt lat="29.579024" lon="103.387374"><ele>842.18646</ele><time>2026-05-28T22:11:21.000Z</time></trkpt>
        <trkpt lat="29.579011" lon="103.387423"><ele>841.6567</ele><time>2026-05-28T22:11:24.000Z</time></trkpt>
        <trkpt lat="29.578995" lon="103.387481"><ele>837.73596</ele><time>2026-05-28T22:11:28.000Z</time></trkpt>
        <trkpt lat="29.578994" lon="103.387544"><ele>835.8102</ele><time>2026-05-28T22:11:33.000Z</time></trkpt>
        <trkpt lat="29.578991" lon="103.387601"><ele>835.54297</ele><time>2026-05-28T22:11:37.000Z</time></trkpt>
        <trkpt lat="29.578988" lon="103.387666"><ele>833.36536</ele><time>2026-05-28T22:11:42.000Z</time></trkpt>
        <trkpt lat="29.578988" lon="103.387721"><ele>831.7958</ele><time>2026-05-28T22:11:46.000Z</time></trkpt>
        <trkpt lat="29.579009" lon="103.387773"><ele>830.29535</ele><time>2026-05-28T22:11:52.000Z</time></trkpt>
        <trkpt lat="29.579012" lon="103.387839"><ele>830.7331</ele><time>2026-05-28T22:11:57.000Z</time></trkpt>
        <trkpt lat="29.579012" lon="103.387892"><ele>828.87024</ele><time>2026-05-28T22:12:04.000Z</time></trkpt>
        <trkpt lat="29.57901" lon="103.387944"><ele>826.6334</ele><time>2026-05-28T22:12:13.000Z</time></trkpt>
        <trkpt lat="29.579012" lon="103.388002"><ele>826.3105</ele><time>2026-05-28T22:12:21.000Z</time></trkpt>
        <trkpt lat="29.579016" lon="103.388054"><ele>825.0275</ele><time>2026-05-28T22:12:25.000Z</time></trkpt>
        <trkpt lat="29.579015" lon="103.388113"><ele>824.32996</ele><time>2026-05-28T22:12:31.000Z</time></trkpt>
        <trkpt lat="29.579044" lon="103.388168"><ele>822.74524</ele><time>2026-05-28T22:12:39.000Z</time></trkpt>
        <trkpt lat="29.579033" lon="103.388219"><ele>823.37354</ele><time>2026-05-28T22:12:44.000Z</time></trkpt>
        <trkpt lat="29.579014" lon="103.388268"><ele>822.7259</ele><time>2026-05-28T22:12:54.000Z</time></trkpt>
        <trkpt lat="29.578985" lon="103.388312"><ele>823.3464</ele><time>2026-05-28T22:13:11.000Z</time></trkpt>
        <trkpt lat="29.578992" lon="103.388367"><ele>823.0556</ele><time>2026-05-28T22:13:18.000Z</time></trkpt>
        <trkpt lat="29.57902" lon="103.38841"><ele>822.2582</ele><time>2026-05-28T22:13:22.000Z</time></trkpt>
        <trkpt lat="29.579022" lon="103.388463"><ele>819.54974</ele><time>2026-05-28T22:13:26.000Z</time></trkpt>
        <trkpt lat="29.579025" lon="103.388517"><ele>818.9131</ele><time>2026-05-28T22:13:32.000Z</time></trkpt>
        <trkpt lat="29.579034" lon="103.388575"><ele>821.70233</ele><time>2026-05-28T22:13:52.000Z</time></trkpt>
        <trkpt lat="29.579011" lon="103.38862"><ele>818.93915</ele><time>2026-05-28T22:14:10.000Z</time></trkpt>
        <trkpt lat="29.578972" lon="103.388655"><ele>817.0763</ele><time>2026-05-28T22:14:18.000Z</time></trkpt>
        <trkpt lat="29.578929" lon="103.38869"><ele>813.5999</ele><time>2026-05-28T22:14:24.000Z</time></trkpt>
        <trkpt lat="29.57889" lon="103.388717"><ele>814.01624</ele><time>2026-05-28T22:14:29.000Z</time></trkpt>
        <trkpt lat="29.578852" lon="103.388748"><ele>813.6897</ele><time>2026-05-28T22:14:34.000Z</time></trkpt>
        <trkpt lat="29.578809" lon="103.388781"><ele>812.3932</ele><time>2026-05-28T22:14:42.000Z</time></trkpt>
        <trkpt lat="29.578759" lon="103.388794"><ele>813.6086</ele><time>2026-05-28T22:14:48.000Z</time></trkpt>
        <trkpt lat="29.578717" lon="103.388816"><ele>813.421</ele><time>2026-05-28T22:14:53.000Z</time></trkpt>
        <trkpt lat="29.578663" lon="103.388823"><ele>811.52704</ele><time>2026-05-28T22:14:57.000Z</time></trkpt>
        <trkpt lat="29.578614" lon="103.388833"><ele>810.4235</ele><time>2026-05-28T22:15:01.000Z</time></trkpt>
        <trkpt lat="29.578563" lon="103.388846"><ele>809.9972</ele><time>2026-05-28T22:15:06.000Z</time></trkpt>
        <trkpt lat="29.578515" lon="103.388868"><ele>810.9915</ele><time>2026-05-28T22:15:13.000Z</time></trkpt>
        <trkpt lat="29.578506" lon="103.38892"><ele>808.4967</ele><time>2026-05-28T22:15:29.000Z</time></trkpt>
        <trkpt lat="29.578508" lon="103.388974"><ele>810.17236</ele><time>2026-05-28T22:15:40.000Z</time></trkpt>
        <trkpt lat="29.57851" lon="103.389026"><ele>812.12744</ele><time>2026-05-28T22:15:54.000Z</time></trkpt>
        <trkpt lat="29.578495" lon="103.389081"><ele>812.10077</ele><time>2026-05-28T22:16:02.000Z</time></trkpt>
        <trkpt lat="29.578537" lon="103.389109"><ele>814.6734</ele><time>2026-05-28T22:16:47.000Z</time></trkpt>
        <trkpt lat="29.578584" lon="103.389126"><ele>816.5183</ele><time>2026-05-28T22:17:05.000Z</time></trkpt>
        <trkpt lat="29.57863" lon="103.389116"><ele>816.4851</ele><time>2026-05-28T22:17:08.000Z</time></trkpt>
        <trkpt lat="29.57866" lon="103.389166"><ele>813.74744</ele><time>2026-05-28T22:17:12.000Z</time></trkpt>
        <trkpt lat="29.578613" lon="103.389157"><ele>811.247</ele><time>2026-05-28T22:17:48.000Z</time></trkpt>
        <trkpt lat="29.578579" lon="103.389118"><ele>811.66473</ele><time>2026-05-28T22:17:54.000Z</time></trkpt>
        <trkpt lat="29.57853" lon="103.389101"><ele>810.90436</ele><time>2026-05-28T22:17:57.000Z</time></trkpt>
        <trkpt lat="29.578485" lon="103.38908"><ele>809.6652</ele><time>2026-05-28T22:18:03.000Z</time></trkpt>
        <trkpt lat="29.578495" lon="103.389142"><ele>808.5854</ele><time>2026-05-28T22:18:09.000Z</time></trkpt>
        <trkpt lat="29.578498" lon="103.389195"><ele>808.35187</ele><time>2026-05-28T22:18:15.000Z</time></trkpt>
        <trkpt lat="29.578486" lon="103.38914"><ele>811.4459</ele><time>2026-05-28T22:18:26.000Z</time></trkpt>
        <trkpt lat="29.578464" lon="103.389095"><ele>812.4281</ele><time>2026-05-28T22:18:47.000Z</time></trkpt>
        <trkpt lat="29.578426" lon="103.389064"><ele>807.26776</ele><time>2026-05-28T22:18:57.000Z</time></trkpt>
        <trkpt lat="29.578381" lon="103.389084"><ele>808.371</ele><time>2026-05-28T22:19:03.000Z</time></trkpt>
        <trkpt lat="29.578374" lon="103.389139"><ele>808.46796</ele><time>2026-05-28T22:19:11.000Z</time></trkpt>
        <trkpt lat="29.578387" lon="103.3892"><ele>808.18243</ele><time>2026-05-28T22:19:21.000Z</time></trkpt>
        <trkpt lat="29.578411" lon="103.38926"><ele>808.57025</ele><time>2026-05-28T22:19:27.000Z</time></trkpt>
        <trkpt lat="29.578427" lon="103.38931"><ele>811.01575</ele><time>2026-05-28T22:19:34.000Z</time></trkpt>
        <trkpt lat="29.578469" lon="103.389343"><ele>811.8984</ele><time>2026-05-28T22:19:41.000Z</time></trkpt>
        <trkpt lat="29.578489" lon="103.389402"><ele>810.98236</ele><time>2026-05-28T22:19:47.000Z</time></trkpt>
        <trkpt lat="29.57848" lon="103.389466"><ele>810.69604</ele><time>2026-05-28T22:19:52.000Z</time></trkpt>
        <trkpt lat="29.578501" lon="103.389514"><ele>811.8119</ele><time>2026-05-28T22:20:06.000Z</time></trkpt>
        <trkpt lat="29.578522" lon="103.389567"><ele>809.57745</ele><time>2026-05-28T22:20:14.000Z</time></trkpt>
        <trkpt lat="29.578528" lon="103.389621"><ele>808.6968</ele><time>2026-05-28T22:20:24.000Z</time></trkpt>
        <trkpt lat="29.57854" lon="103.389678"><ele>808.4336</ele><time>2026-05-28T22:20:31.000Z</time></trkpt>
        <trkpt lat="29.578539" lon="103.389735"><ele>809.127</ele><time>2026-05-28T22:20:38.000Z</time></trkpt>
        <trkpt lat="29.578521" lon="103.389784"><ele>807.5187</ele><time>2026-05-28T22:20:46.000Z</time></trkpt>
        <trkpt lat="29.578496" lon="103.389829"><ele>806.00366</ele><time>2026-05-28T22:20:52.000Z</time></trkpt>
        <trkpt lat="29.578499" lon="103.389897"><ele>807.8443</ele><time>2026-05-28T22:21:33.000Z</time></trkpt>
        <trkpt lat="29.578475" lon="103.389946"><ele>810.8779</ele><time>2026-05-28T22:21:43.000Z</time></trkpt>
        <trkpt lat="29.578451" lon="103.389996"><ele>814.6932</ele><time>2026-05-28T22:21:51.000Z</time></trkpt>
        <trkpt lat="29.578434" lon="103.39006"><ele>814.7122</ele><time>2026-05-28T22:21:57.000Z</time></trkpt>
        <trkpt lat="29.578408" lon="103.390109"><ele>811.66223</ele><time>2026-05-28T22:22:05.000Z</time></trkpt>
        <trkpt lat="29.578376" lon="103.390158"><ele>807.0827</ele><time>2026-05-28T22:22:11.000Z</time></trkpt>
        <trkpt lat="29.578366" lon="103.390215"><ele>805.4756</ele><time>2026-05-28T22:22:16.000Z</time></trkpt>
        <trkpt lat="29.578332" lon="103.390258"><ele>806.76166</ele><time>2026-05-28T22:22:20.000Z</time></trkpt>
        <trkpt lat="29.578304" lon="103.390301"><ele>807.6273</ele><time>2026-05-28T22:22:24.000Z</time></trkpt>
        <trkpt lat="29.578269" lon="103.390348"><ele>808.49976</ele><time>2026-05-28T22:22:30.000Z</time></trkpt>
        <trkpt lat="29.578263" lon="103.390401"><ele>803.90955</ele><time>2026-05-28T22:22:37.000Z</time></trkpt>
        <trkpt lat="29.578232" lon="103.390446"><ele>804.41785</ele><time>2026-05-28T22:22:42.000Z</time></trkpt>
        <trkpt lat="29.578225" lon="103.390506"><ele>807.04364</ele><time>2026-05-28T22:22:51.000Z</time></trkpt>
        <trkpt lat="29.578233" lon="103.390563"><ele>809.8927</ele><time>2026-05-28T22:23:00.000Z</time></trkpt>
        <trkpt lat="29.57821" lon="103.390612"><ele>810.135</ele><time>2026-05-28T22:23:05.000Z</time></trkpt>
        <trkpt lat="29.578183" lon="103.390656"><ele>811.01935</ele><time>2026-05-28T22:23:11.000Z</time></trkpt>
        <trkpt lat="29.578148" lon="103.390703"><ele>810.3664</ele><time>2026-05-28T22:23:15.000Z</time></trkpt>
        <trkpt lat="29.578123" lon="103.39076"><ele>810.7282</ele><time>2026-05-28T22:23:21.000Z</time></trkpt>
        <trkpt lat="29.578089" lon="103.390801"><ele>810.0365</ele><time>2026-05-28T22:23:26.000Z</time></trkpt>
        <trkpt lat="29.578066" lon="103.39085"><ele>812.47687</ele><time>2026-05-28T22:23:42.000Z</time></trkpt>
        <trkpt lat="29.578043" lon="103.390898"><ele>817.7412</ele><time>2026-05-28T22:23:57.000Z</time></trkpt>
        <trkpt lat="29.577992" lon="103.390918"><ele>815.17316</ele><time>2026-05-28T22:24:06.000Z</time></trkpt>
        <trkpt lat="29.577954" lon="103.390968"><ele>813.3314</ele><time>2026-05-28T22:24:10.000Z</time></trkpt>
        <trkpt lat="29.577934" lon="103.391015"><ele>802.7306</ele><time>2026-05-28T22:24:17.000Z</time></trkpt>
        <trkpt lat="29.577926" lon="103.391074"><ele>797.8733</ele><time>2026-05-28T22:24:22.000Z</time></trkpt>
        <trkpt lat="29.577907" lon="103.391127"><ele>796.3346</ele><time>2026-05-28T22:24:25.000Z</time></trkpt>
        <trkpt lat="29.577871" lon="103.391092"><ele>793.37787</ele><time>2026-05-28T22:24:55.000Z</time></trkpt>
        <trkpt lat="29.577824" lon="103.391086"><ele>791.32074</ele><time>2026-05-28T22:25:05.000Z</time></trkpt>
        <trkpt lat="29.577769" lon="103.39107"><ele>791.062</ele><time>2026-05-28T22:25:14.000Z</time></trkpt>
        <trkpt lat="29.577724" lon="103.391056"><ele>789.4635</ele><time>2026-05-28T22:25:23.000Z</time></trkpt>
        <trkpt lat="29.577676" lon="103.391043"><ele>788.8064</ele><time>2026-05-28T22:25:36.000Z</time></trkpt>
        <trkpt lat="29.577633" lon="103.391021"><ele>790.0037</ele><time>2026-05-28T22:25:46.000Z</time></trkpt>
        <trkpt lat="29.577583" lon="103.391015"><ele>785.96924</ele><time>2026-05-28T22:25:57.000Z</time></trkpt>
        <trkpt lat="29.577533" lon="103.391007"><ele>785.22815</ele><time>2026-05-28T22:26:07.000Z</time></trkpt>
        <trkpt lat="29.577489" lon="103.390992"><ele>781.3667</ele><time>2026-05-28T22:26:14.000Z</time></trkpt>
        <trkpt lat="29.577447" lon="103.390961"><ele>779.9526</ele><time>2026-05-28T22:26:19.000Z</time></trkpt>
        <trkpt lat="29.577396" lon="103.390951"><ele>779.3554</ele><time>2026-05-28T22:26:26.000Z</time></trkpt>
        <trkpt lat="29.57735" lon="103.39094"><ele>778.3222</ele><time>2026-05-28T22:26:32.000Z</time></trkpt>
        <trkpt lat="29.577297" lon="103.390941"><ele>778.03906</ele><time>2026-05-28T22:26:36.000Z</time></trkpt>
        <trkpt lat="29.577254" lon="103.390961"><ele>777.2495</ele><time>2026-05-28T22:26:43.000Z</time></trkpt>
        <trkpt lat="29.577212" lon="103.390994"><ele>777.93604</ele><time>2026-05-28T22:26:53.000Z</time></trkpt>
        <trkpt lat="29.577169" lon="103.391017"><ele>780.16925</ele><time>2026-05-28T22:27:01.000Z</time></trkpt>
        <trkpt lat="29.57714" lon="103.391068"><ele>779.6168</ele><time>2026-05-28T22:27:07.000Z</time></trkpt>
        <trkpt lat="29.57712" lon="103.391118"><ele>780.16394</ele><time>2026-05-28T22:27:15.000Z</time></trkpt>
        <trkpt lat="29.577099" lon="103.391166"><ele>778.3029</ele><time>2026-05-28T22:27:20.000Z</time></trkpt>
        <trkpt lat="29.577071" lon="103.391209"><ele>780.8068</ele><time>2026-05-28T22:27:26.000Z</time></trkpt>
        <trkpt lat="29.577043" lon="103.391252"><ele>780.4497</ele><time>2026-05-28T22:27:33.000Z</time></trkpt>
        <trkpt lat="29.577021" lon="103.391304"><ele>783.19354</ele><time>2026-05-28T22:27:41.000Z</time></trkpt>
        <trkpt lat="29.576992" lon="103.391346"><ele>784.6405</ele><time>2026-05-28T22:27:47.000Z</time></trkpt>
        <trkpt lat="29.576977" lon="103.391401"><ele>781.3612</ele><time>2026-05-28T22:27:58.000Z</time></trkpt>
        <trkpt lat="29.576959" lon="103.39145"><ele>779.18805</ele><time>2026-05-28T22:28:05.000Z</time></trkpt>
        <trkpt lat="29.576948" lon="103.391509"><ele>778.7501</ele><time>2026-05-28T22:28:10.000Z</time></trkpt>
        <trkpt lat="29.576926" lon="103.391566"><ele>775.713</ele><time>2026-05-28T22:28:16.000Z</time></trkpt>
        <trkpt lat="29.576875" lon="103.391611"><ele>776.5441</ele><time>2026-05-28T22:28:20.000Z</time></trkpt>
        <trkpt lat="29.576842" lon="103.391667"><ele>776.776</ele><time>2026-05-28T22:28:25.000Z</time></trkpt>
        <trkpt lat="29.576808" lon="103.391717"><ele>775.4207</ele><time>2026-05-28T22:28:28.000Z</time></trkpt>
        <trkpt lat="29.576788" lon="103.39177"><ele>775.8293</ele><time>2026-05-28T22:28:34.000Z</time></trkpt>
        <trkpt lat="29.576744" lon="103.391821"><ele>775.6882</ele><time>2026-05-28T22:28:39.000Z</time></trkpt>
        <trkpt lat="29.576715" lon="103.391862"><ele>774.62555</ele><time>2026-05-28T22:28:44.000Z</time></trkpt>
        <trkpt lat="29.576678" lon="103.391897"><ele>771.27795</ele><time>2026-05-28T22:28:49.000Z</time></trkpt>
        <trkpt lat="29.576625" lon="103.391908"><ele>768.34717</ele><time>2026-05-28T22:28:54.000Z</time></trkpt>
        <trkpt lat="29.576573" lon="103.391931"><ele>763.70935</ele><time>2026-05-28T22:29:00.000Z</time></trkpt>
        <trkpt lat="29.576524" lon="103.391942"><ele>762.84186</ele><time>2026-05-28T22:29:04.000Z</time></trkpt>
        <trkpt lat="29.576477" lon="103.391967"><ele>761.7386</ele><time>2026-05-28T22:29:09.000Z</time></trkpt>
        <trkpt lat="29.576426" lon="103.391971"><ele>760.14124</ele><time>2026-05-28T22:29:13.000Z</time></trkpt>
        <trkpt lat="29.576375" lon="103.39196"><ele>756.86346</ele><time>2026-05-28T22:29:18.000Z</time></trkpt>
        <trkpt lat="29.576331" lon="103.391978"><ele>753.8374</ele><time>2026-05-28T22:29:24.000Z</time></trkpt>
        <trkpt lat="29.57629" lon="103.391954"><ele>750.7755</ele><time>2026-05-28T22:29:29.000Z</time></trkpt>
        <trkpt lat="29.576241" lon="103.391944"><ele>750.8334</ele><time>2026-05-28T22:29:34.000Z</time></trkpt>
        <trkpt lat="29.576187" lon="103.391945"><ele>747.711</ele><time>2026-05-28T22:29:40.000Z</time></trkpt>
        <trkpt lat="29.576146" lon="103.391923"><ele>745.0025</ele><time>2026-05-28T22:29:51.000Z</time></trkpt>
        <trkpt lat="29.576094" lon="103.391911"><ele>743.9828</ele><time>2026-05-28T22:29:59.000Z</time></trkpt>
        <trkpt lat="29.576047" lon="103.391892"><ele>744.4606</ele><time>2026-05-28T22:30:04.000Z</time></trkpt>
        <trkpt lat="29.575996" lon="103.39187"><ele>743.49554</ele><time>2026-05-28T22:30:10.000Z</time></trkpt>
        <trkpt lat="29.575951" lon="103.391861"><ele>743.5414</ele><time>2026-05-28T22:30:16.000Z</time></trkpt>
        <trkpt lat="29.575903" lon="103.391877"><ele>742.077</ele><time>2026-05-28T22:30:22.000Z</time></trkpt>
        <trkpt lat="29.575856" lon="103.391879"><ele>740.4749</ele><time>2026-05-28T22:30:32.000Z</time></trkpt>
        <trkpt lat="29.575813" lon="103.39191"><ele>737.9179</ele><time>2026-05-28T22:30:42.000Z</time></trkpt>
        <trkpt lat="29.575761" lon="103.39192"><ele>734.735</ele><time>2026-05-28T22:30:56.000Z</time></trkpt>
        <trkpt lat="29.575713" lon="103.391908"><ele>732.76526</ele><time>2026-05-28T22:31:08.000Z</time></trkpt>
        <trkpt lat="29.575669" lon="103.391888"><ele>732.57623</ele><time>2026-05-28T22:31:14.000Z</time></trkpt>
        <trkpt lat="29.575613" lon="103.391876"><ele>731.5916</ele><time>2026-05-28T22:31:20.000Z</time></trkpt>
        <trkpt lat="29.575566" lon="103.391864"><ele>729.44543</ele><time>2026-05-28T22:31:26.000Z</time></trkpt>
        <trkpt lat="29.575519" lon="103.391857"><ele>728.8239</ele><time>2026-05-28T22:31:32.000Z</time></trkpt>
        <trkpt lat="29.57547" lon="103.391844"><ele>729.73224</ele><time>2026-05-28T22:31:38.000Z</time></trkpt>
        <trkpt lat="29.575422" lon="103.391845"><ele>726.4281</ele><time>2026-05-28T22:31:44.000Z</time></trkpt>
        <trkpt lat="29.575372" lon="103.391866"><ele>725.37354</ele><time>2026-05-28T22:31:49.000Z</time></trkpt>
        <trkpt lat="29.575327" lon="103.39188"><ele>725.68787</ele><time>2026-05-28T22:31:55.000Z</time></trkpt>
        <trkpt lat="29.575286" lon="103.391911"><ele>723.225</ele><time>2026-05-28T22:32:02.000Z</time></trkpt>
        <trkpt lat="29.575243" lon="103.391939"><ele>722.6632</ele><time>2026-05-28T22:32:08.000Z</time></trkpt>
        <trkpt lat="29.575198" lon="103.391969"><ele>719.15173</ele><time>2026-05-28T22:32:14.000Z</time></trkpt>
        <trkpt lat="29.575159" lon="103.392008"><ele>718.72394</ele><time>2026-05-28T22:32:18.000Z</time></trkpt>
        <trkpt lat="29.575115" lon="103.392038"><ele>716.3229</ele><time>2026-05-28T22:32:23.000Z</time></trkpt>
        <trkpt lat="29.575073" lon="103.392063"><ele>719.51404</ele><time>2026-05-28T22:32:27.000Z</time></trkpt>
        <trkpt lat="29.57502" lon="103.392069"><ele>715.7839</ele><time>2026-05-28T22:32:36.000Z</time></trkpt>
        <trkpt lat="29.574975" lon="103.392098"><ele>715.43225</ele><time>2026-05-28T22:32:42.000Z</time></trkpt>
        <trkpt lat="29.574935" lon="103.392131"><ele>714.8943</ele><time>2026-05-28T22:32:50.000Z</time></trkpt>
        <trkpt lat="29.574888" lon="103.392154"><ele>714.4798</ele><time>2026-05-28T22:32:57.000Z</time></trkpt>
        <trkpt lat="29.574845" lon="103.392137"><ele>710.806</ele><time>2026-05-28T22:33:03.000Z</time></trkpt>
        <trkpt lat="29.574793" lon="103.392145"><ele>707.5856</ele><time>2026-05-28T22:33:08.000Z</time></trkpt>
        <trkpt lat="29.574742" lon="103.392151"><ele>704.2767</ele><time>2026-05-28T22:33:15.000Z</time></trkpt>
        <trkpt lat="29.574697" lon="103.392162"><ele>705.0334</ele><time>2026-05-28T22:33:18.000Z</time></trkpt>
        <trkpt lat="29.574651" lon="103.39217"><ele>705.7001</ele><time>2026-05-28T22:33:23.000Z</time></trkpt>
        <trkpt lat="29.5746" lon="103.392169"><ele>704.2013</ele><time>2026-05-28T22:33:29.000Z</time></trkpt>
        <trkpt lat="29.574547" lon="103.392174"><ele>700.45074</ele><time>2026-05-28T22:33:36.000Z</time></trkpt>
        <trkpt lat="29.574501" lon="103.392173"><ele>699.85657</ele><time>2026-05-28T22:33:42.000Z</time></trkpt>
        <trkpt lat="29.574453" lon="103.392166"><ele>700.6917</ele><time>2026-05-28T22:33:55.000Z</time></trkpt>
        <trkpt lat="29.57443" lon="103.392212"><ele>696.67896</ele><time>2026-05-28T22:34:16.000Z</time></trkpt>
        <trkpt lat="29.574477" lon="103.392235"><ele>702.7334</ele><time>2026-05-28T22:34:53.000Z</time></trkpt>
        <trkpt lat="29.574529" lon="103.392218"><ele>705.3244</ele><time>2026-05-28T22:35:04.000Z</time></trkpt>
        <trkpt lat="29.574506" lon="103.392166"><ele>702.3985</ele><time>2026-05-28T22:35:47.000Z</time></trkpt>
        <trkpt lat="29.574457" lon="103.392174"><ele>701.5682</ele><time>2026-05-28T22:35:58.000Z</time></trkpt>
        <trkpt lat="29.574408" lon="103.392185"><ele>701.7551</ele><time>2026-05-28T22:36:10.000Z</time></trkpt>
        <trkpt lat="29.574358" lon="103.392208"><ele>698.7606</ele><time>2026-05-28T22:36:18.000Z</time></trkpt>
        <trkpt lat="29.57431" lon="103.392226"><ele>698.32495</ele><time>2026-05-28T22:36:27.000Z</time></trkpt>
        <trkpt lat="29.574264" lon="103.392216"><ele>696.7953</ele><time>2026-05-28T22:36:47.000Z</time></trkpt>
        <trkpt lat="29.574223" lon="103.392269"><ele>698.6709</ele><time>2026-05-28T22:36:54.000Z</time></trkpt>
        <trkpt lat="29.574261" lon="103.392336"><ele>700.2612</ele><time>2026-05-28T22:37:00.000Z</time></trkpt>
        <trkpt lat="29.574266" lon="103.392284"><ele>702.3786</ele><time>2026-05-28T22:37:04.000Z</time></trkpt>
        <trkpt lat="29.574287" lon="103.392234"><ele>702.3439</ele><time>2026-05-28T22:37:07.000Z</time></trkpt>
        <trkpt lat="29.574277" lon="103.392183"><ele>699.93854</ele><time>2026-05-28T22:37:11.000Z</time></trkpt>
        <trkpt lat="29.574221" lon="103.392177"><ele>697.8298</ele><time>2026-05-28T22:37:14.000Z</time></trkpt>
        <trkpt lat="29.574177" lon="103.392159"><ele>701.0045</ele><time>2026-05-28T22:37:27.000Z</time></trkpt>
        <trkpt lat="29.574142" lon="103.39212"><ele>701.0506</ele><time>2026-05-28T22:37:55.000Z</time></trkpt>
        <trkpt lat="29.574143" lon="103.392065"><ele>698.7511</ele><time>2026-05-28T22:38:46.000Z</time></trkpt>
        <trkpt lat="29.574106" lon="103.392025"><ele>699.4215</ele><time>2026-05-28T22:39:02.000Z</time></trkpt>
        <trkpt lat="29.574066" lon="103.391999"><ele>704.5872</ele><time>2026-05-28T22:45:43.000Z</time></trkpt>
        <trkpt lat="29.57411" lon="103.392058"><ele>709.162</ele><time>2026-05-28T22:48:09.000Z</time></trkpt>
        <trkpt lat="29.574154" lon="103.392093"><ele>707.68097</ele><time>2026-05-28T22:48:13.000Z</time></trkpt>
        <trkpt lat="29.57412" lon="103.392055"><ele>707.91125</ele><time>2026-05-28T22:48:20.000Z</time></trkpt>
        <trkpt lat="29.574114" lon="103.392113"><ele>708.5314</ele><time>2026-05-28T22:48:27.000Z</time></trkpt>
        <trkpt lat="29.574125" lon="103.392172"><ele>707.751</ele><time>2026-05-28T22:48:34.000Z</time></trkpt>
        <trkpt lat="29.573958" lon="103.392022"><ele>707.03345</ele><time>2026-05-28T22:48:37.000Z</time></trkpt>
        <trkpt lat="29.574018" lon="103.392041"><ele>708.07043</ele><time>2026-05-28T22:48:40.000Z</time></trkpt>
        <trkpt lat="29.574057" lon="103.392074"><ele>709.8279</ele><time>2026-05-28T22:48:47.000Z</time></trkpt>
        <trkpt lat="29.57401" lon="103.392086"><ele>709.1247</ele><time>2026-05-28T22:48:59.000Z</time></trkpt>
        <trkpt lat="29.573973" lon="103.392052"><ele>710.0473</ele><time>2026-05-28T22:49:06.000Z</time></trkpt>
        <trkpt lat="29.574" lon="103.392095"><ele>710.77655</ele><time>2026-05-28T22:49:12.000Z</time></trkpt>
        <trkpt lat="29.57398" lon="103.392047"><ele>711.16815</ele><time>2026-05-28T22:49:21.000Z</time></trkpt>
        <trkpt lat="29.57393" lon="103.391976"><ele>712.09125</ele><time>2026-05-28T22:49:24.000Z</time></trkpt>
        <trkpt lat="29.573928" lon="103.392127"><ele>711.4253</ele><time>2026-05-28T22:49:25.000Z</time></trkpt>
        <trkpt lat="29.573929" lon="103.392212"><ele>710.8749</ele><time>2026-05-28T22:49:26.000Z</time></trkpt>
        <trkpt lat="29.574074" lon="103.391997"><ele>709.492</ele><time>2026-05-28T22:49:38.000Z</time></trkpt>
        <trkpt lat="29.574092" lon="103.392074"><ele>710.1308</ele><time>2026-05-28T22:49:42.000Z</time></trkpt>
        <trkpt lat="29.574057" lon="103.392041"><ele>710.66675</ele><time>2026-05-28T22:50:05.000Z</time></trkpt>
        <trkpt lat="29.5741" lon="103.392056"><ele>703.8964</ele><time>2026-05-28T22:50:27.000Z</time></trkpt>
        <trkpt lat="29.574063" lon="103.39209"><ele>699.07935</ele><time>2026-05-28T22:51:14.000Z</time></trkpt>
        <trkpt lat="29.574013" lon="103.39208"><ele>699.9242</ele><time>2026-05-28T22:51:21.000Z</time></trkpt>
        <trkpt lat="29.573974" lon="103.392113"><ele>698.68933</ele><time>2026-05-28T22:51:30.000Z</time></trkpt>
        <trkpt lat="29.573928" lon="103.392128"><ele>696.66614</ele><time>2026-05-28T22:51:38.000Z</time></trkpt>
        <trkpt lat="29.573883" lon="103.392147"><ele>699.1881</ele><time>2026-05-28T22:51:43.000Z</time></trkpt>
        <trkpt lat="29.573835" lon="103.392165"><ele>698.70374</ele><time>2026-05-28T22:51:48.000Z</time></trkpt>
        <trkpt lat="29.573798" lon="103.392124"><ele>701.1621</ele><time>2026-05-28T22:51:53.000Z</time></trkpt>
        <trkpt lat="29.573749" lon="103.392095"><ele>701.5001</ele><time>2026-05-28T22:51:59.000Z</time></trkpt>
        <trkpt lat="29.573707" lon="103.39206"><ele>700.2287</ele><time>2026-05-28T22:52:03.000Z</time></trkpt>
        <trkpt lat="29.57367" lon="103.392024"><ele>698.5081</ele><time>2026-05-28T22:52:08.000Z</time></trkpt>
        <trkpt lat="29.573628" lon="103.392002"><ele>696.511</ele><time>2026-05-28T22:52:12.000Z</time></trkpt>
        <trkpt lat="29.57358" lon="103.39199"><ele>696.8155</ele><time>2026-05-28T22:52:18.000Z</time></trkpt>
        <trkpt lat="29.57353" lon="103.391989"><ele>698.2175</ele><time>2026-05-28T22:52:25.000Z</time></trkpt>
        <trkpt lat="29.573514" lon="103.392042"><ele>701.9932</ele><time>2026-05-28T22:52:35.000Z</time></trkpt>
        <trkpt lat="29.573499" lon="103.391991"><ele>707.5013</ele><time>2026-05-28T22:53:07.000Z</time></trkpt>
        <trkpt lat="29.573524" lon="103.391946"><ele>709.04803</ele><time>2026-05-28T22:53:15.000Z</time></trkpt>
        <trkpt lat="29.573476" lon="103.391938"><ele>711.7031</ele><time>2026-05-28T22:53:24.000Z</time></trkpt>
        <trkpt lat="29.573426" lon="103.391924"><ele>711.719</ele><time>2026-05-28T22:53:28.000Z</time></trkpt>
        <trkpt lat="29.573368" lon="103.391915"><ele>713.47375</ele><time>2026-05-28T22:53:34.000Z</time></trkpt>
        <trkpt lat="29.573322" lon="103.391907"><ele>717.88525</ele><time>2026-05-28T22:53:43.000Z</time></trkpt>
        <trkpt lat="29.57327" lon="103.391908"><ele>719.49335</ele><time>2026-05-28T22:53:47.000Z</time></trkpt>
        <trkpt lat="29.573215" lon="103.391902"><ele>722.93945</ele><time>2026-05-28T22:53:54.000Z</time></trkpt>
        <trkpt lat="29.573157" lon="103.391887"><ele>721.074</ele><time>2026-05-28T22:53:58.000Z</time></trkpt>
        <trkpt lat="29.573101" lon="103.39189"><ele>721.8609</ele><time>2026-05-28T22:54:03.000Z</time></trkpt>
        <trkpt lat="29.573054" lon="103.391906"><ele>721.93115</ele><time>2026-05-28T22:54:07.000Z</time></trkpt>
        <trkpt lat="29.57301" lon="103.391892"><ele>721.2629</ele><time>2026-05-28T22:54:11.000Z</time></trkpt>
        <trkpt lat="29.572967" lon="103.391918"><ele>721.76807</ele><time>2026-05-28T22:54:16.000Z</time></trkpt>
        <trkpt lat="29.572912" lon="103.391928"><ele>721.46387</ele><time>2026-05-28T22:54:21.000Z</time></trkpt>
        <trkpt lat="29.572859" lon="103.39194"><ele>720.49493</ele><time>2026-05-28T22:54:27.000Z</time></trkpt>
        <trkpt lat="29.572813" lon="103.39194"><ele>723.6218</ele><time>2026-05-28T22:54:32.000Z</time></trkpt>
        <trkpt lat="29.572768" lon="103.391924"><ele>725.32465</ele><time>2026-05-28T22:54:35.000Z</time></trkpt>
        <trkpt lat="29.572714" lon="103.391918"><ele>725.5775</ele><time>2026-05-28T22:54:39.000Z</time></trkpt>
        <trkpt lat="29.572716" lon="103.391973"><ele>727.9791</ele><time>2026-05-28T22:54:48.000Z</time></trkpt>
        <trkpt lat="29.572671" lon="103.391964"><ele>727.0845</ele><time>2026-05-28T22:54:55.000Z</time></trkpt>
        <trkpt lat="29.572628" lon="103.392011"><ele>727.8681</ele><time>2026-05-28T22:55:01.000Z</time></trkpt>
        <trkpt lat="29.572562" lon="103.392036"><ele>728.50714</ele><time>2026-05-28T22:55:07.000Z</time></trkpt>
        <trkpt lat="29.572519" lon="103.392013"><ele>734.0808</ele><time>2026-05-28T22:55:10.000Z</time></trkpt>
        <trkpt lat="29.572476" lon="103.391989"><ele>731.94147</ele><time>2026-05-28T22:55:13.000Z</time></trkpt>
        <trkpt lat="29.572445" lon="103.391938"><ele>728.6087</ele><time>2026-05-28T22:55:16.000Z</time></trkpt>
        <trkpt lat="29.572417" lon="103.391895"><ele>727.2013</ele><time>2026-05-28T22:55:20.000Z</time></trkpt>
        <trkpt lat="29.572373" lon="103.391862"><ele>726.40784</ele><time>2026-05-28T22:55:26.000Z</time></trkpt>
        <trkpt lat="29.572323" lon="103.391867"><ele>725.5509</ele><time>2026-05-28T22:55:32.000Z</time></trkpt>
        <trkpt lat="29.572269" lon="103.391846"><ele>725.9934</ele><time>2026-05-28T22:55:36.000Z</time></trkpt>
        <trkpt lat="29.572223" lon="103.391809"><ele>725.5102</ele><time>2026-05-28T22:55:42.000Z</time></trkpt>
        <trkpt lat="29.572177" lon="103.391814"><ele>726.57086</ele><time>2026-05-28T22:55:47.000Z</time></trkpt>
        <trkpt lat="29.572121" lon="103.391805"><ele>724.4077</ele><time>2026-05-28T22:55:53.000Z</time></trkpt>
        <trkpt lat="29.572078" lon="103.391787"><ele>722.7909</ele><time>2026-05-28T22:55:57.000Z</time></trkpt>
        <trkpt lat="29.572034" lon="103.391801"><ele>725.1876</ele><time>2026-05-28T22:56:04.000Z</time></trkpt>
        <trkpt lat="29.571981" lon="103.391812"><ele>724.25543</ele><time>2026-05-28T22:56:43.000Z</time></trkpt>
        <trkpt lat="29.571936" lon="103.391796"><ele>724.3271</ele><time>2026-05-28T22:56:57.000Z</time></trkpt>
        <trkpt lat="29.571887" lon="103.391793"><ele>720.7755</ele><time>2026-05-28T22:57:16.000Z</time></trkpt>
        <trkpt lat="29.571838" lon="103.391787"><ele>720.4796</ele><time>2026-05-28T22:57:23.000Z</time></trkpt>
        <trkpt lat="29.571792" lon="103.39179"><ele>719.85815</ele><time>2026-05-28T22:57:30.000Z</time></trkpt>
        <trkpt lat="29.571746" lon="103.391805"><ele>721.7813</ele><time>2026-05-28T22:57:35.000Z</time></trkpt>
        <trkpt lat="29.5717" lon="103.391799"><ele>722.488</ele><time>2026-05-28T22:57:40.000Z</time></trkpt>
        <trkpt lat="29.571649" lon="103.391796"><ele>721.816</ele><time>2026-05-28T22:57:45.000Z</time></trkpt>
        <trkpt lat="29.571596" lon="103.391786"><ele>721.85626</ele><time>2026-05-28T22:57:51.000Z</time></trkpt>
        <trkpt lat="29.571543" lon="103.391785"><ele>721.5533</ele><time>2026-05-28T22:57:56.000Z</time></trkpt>
        <trkpt lat="29.571498" lon="103.391762"><ele>720.1799</ele><time>2026-05-28T22:58:01.000Z</time></trkpt>
        <trkpt lat="29.571455" lon="103.391727"><ele>717.86127</ele><time>2026-05-28T22:58:06.000Z</time></trkpt>
        <trkpt lat="29.571412" lon="103.391704"><ele>717.9469</ele><time>2026-05-28T22:58:10.000Z</time></trkpt>
        <trkpt lat="29.571363" lon="103.391701"><ele>717.10223</ele><time>2026-05-28T22:58:13.000Z</time></trkpt>
        <trkpt lat="29.571312" lon="103.391684"><ele>715.17224</ele><time>2026-05-28T22:58:17.000Z</time></trkpt>
        <trkpt lat="29.571253" lon="103.39169"><ele>714.4683</ele><time>2026-05-28T22:58:21.000Z</time></trkpt>
        <trkpt lat="29.5712" lon="103.391704"><ele>713.10547</ele><time>2026-05-28T22:58:25.000Z</time></trkpt>
        <trkpt lat="29.571153" lon="103.391701"><ele>710.6039</ele><time>2026-05-28T22:58:30.000Z</time></trkpt>
        <trkpt lat="29.571106" lon="103.391688"><ele>709.6443</ele><time>2026-05-28T22:58:34.000Z</time></trkpt>
        <trkpt lat="29.571057" lon="103.391681"><ele>709.5165</ele><time>2026-05-28T22:58:39.000Z</time></trkpt>
        <trkpt lat="29.571" lon="103.391679"><ele>710.0084</ele><time>2026-05-28T22:58:43.000Z</time></trkpt>
        <trkpt lat="29.570947" lon="103.391652"><ele>708.33124</ele><time>2026-05-28T22:58:47.000Z</time></trkpt>
        <trkpt lat="29.570916" lon="103.391613"><ele>708.97925</ele><time>2026-05-28T22:58:52.000Z</time></trkpt>
        <trkpt lat="29.570887" lon="103.391573"><ele>715.71027</ele><time>2026-05-28T22:59:09.000Z</time></trkpt>
        <trkpt lat="29.570838" lon="103.391575"><ele>718.30566</ele><time>2026-05-28T22:59:24.000Z</time></trkpt>
        <trkpt lat="29.570795" lon="103.391594"><ele>716.516</ele><time>2026-05-28T22:59:30.000Z</time></trkpt>
        <trkpt lat="29.570764" lon="103.391639"><ele>716.9557</ele><time>2026-05-28T22:59:35.000Z</time></trkpt>
        <trkpt lat="29.570719" lon="103.391622"><ele>715.91034</ele><time>2026-05-28T22:59:43.000Z</time></trkpt>
        <trkpt lat="29.570672" lon="103.391612"><ele>714.4087</ele><time>2026-05-28T22:59:57.000Z</time></trkpt>
        <trkpt lat="29.570637" lon="103.391579"><ele>719.98584</ele><time>2026-05-28T23:00:21.000Z</time></trkpt>
        <trkpt lat="29.570597" lon="103.391538"><ele>721.6137</ele><time>2026-05-28T23:00:26.000Z</time></trkpt>
        <trkpt lat="29.570566" lon="103.391494"><ele>718.96606</ele><time>2026-05-28T23:00:33.000Z</time></trkpt>
        <trkpt lat="29.570555" lon="103.391437"><ele>717.6366</ele><time>2026-05-28T23:00:44.000Z</time></trkpt>
        <trkpt lat="29.570505" lon="103.391432"><ele>720.3757</ele><time>2026-05-28T23:00:48.000Z</time></trkpt>
        <trkpt lat="29.570446" lon="103.391433"><ele>720.7417</ele><time>2026-05-28T23:00:50.000Z</time></trkpt>
        <trkpt lat="29.570399" lon="103.391432"><ele>721.96906</ele><time>2026-05-28T23:00:53.000Z</time></trkpt>
        <trkpt lat="29.570349" lon="103.391429"><ele>722.19055</ele><time>2026-05-28T23:00:56.000Z</time></trkpt>
        <trkpt lat="29.570301" lon="103.391433"><ele>722.5438</ele><time>2026-05-28T23:00:58.000Z</time></trkpt>
        <trkpt lat="29.57025" lon="103.391431"><ele>723.8606</ele><time>2026-05-28T23:01:01.000Z</time></trkpt>
        <trkpt lat="29.570198" lon="103.39142"><ele>723.3318</ele><time>2026-05-28T23:01:04.000Z</time></trkpt>
        <trkpt lat="29.57014" lon="103.391424"><ele>723.4483</ele><time>2026-05-28T23:01:07.000Z</time></trkpt>
        <trkpt lat="29.570088" lon="103.391407"><ele>724.44684</ele><time>2026-05-28T23:01:10.000Z</time></trkpt>
        <trkpt lat="29.570039" lon="103.39137"><ele>726.5572</ele><time>2026-05-28T23:01:13.000Z</time></trkpt>
        <trkpt lat="29.569974" lon="103.391349"><ele>728.2941</ele><time>2026-05-28T23:01:17.000Z</time></trkpt>
        <trkpt lat="29.569926" lon="103.391332"><ele>730.2444</ele><time>2026-05-28T23:01:20.000Z</time></trkpt>
        <trkpt lat="29.569914" lon="103.391256"><ele>731.95526</ele><time>2026-05-28T23:01:24.000Z</time></trkpt>
        <trkpt lat="29.569919" lon="103.391193"><ele>733.15485</ele><time>2026-05-28T23:01:26.000Z</time></trkpt>
        <trkpt lat="29.569912" lon="103.391142"><ele>735.50714</ele><time>2026-05-28T23:01:29.000Z</time></trkpt>
        <trkpt lat="29.569869" lon="103.391111"><ele>736.7446</ele><time>2026-05-28T23:01:35.000Z</time></trkpt>
        <trkpt lat="29.569831" lon="103.391078"><ele>737.3386</ele><time>2026-05-28T23:01:41.000Z</time></trkpt>
        <trkpt lat="29.569778" lon="103.391075"><ele>738.2897</ele><time>2026-05-28T23:01:45.000Z</time></trkpt>
        <trkpt lat="29.569728" lon="103.391074"><ele>738.7831</ele><time>2026-05-28T23:01:50.000Z</time></trkpt>
        <trkpt lat="29.569682" lon="103.391056"><ele>735.0999</ele><time>2026-05-28T23:01:59.000Z</time></trkpt>
        <trkpt lat="29.569635" lon="103.391041"><ele>733.9133</ele><time>2026-05-28T23:02:05.000Z</time></trkpt>
        <trkpt lat="29.56962" lon="103.391095"><ele>734.23157</ele><time>2026-05-28T23:02:10.000Z</time></trkpt>
        <trkpt lat="29.569644" lon="103.39105"><ele>740.48596</ele><time>2026-05-28T23:02:41.000Z</time></trkpt>
        <trkpt lat="29.569613" lon="103.390989"><ele>743.247</ele><time>2026-05-28T23:02:57.000Z</time></trkpt>
        <trkpt lat="29.569589" lon="103.390944"><ele>740.7014</ele><time>2026-05-28T23:03:01.000Z</time></trkpt>
        <trkpt lat="29.569571" lon="103.390885"><ele>740.05743</ele><time>2026-05-28T23:03:04.000Z</time></trkpt>
        <trkpt lat="29.569543" lon="103.390839"><ele>739.05804</ele><time>2026-05-28T23:03:12.000Z</time></trkpt>
        <trkpt lat="29.569509" lon="103.390883"><ele>733.8145</ele><time>2026-05-28T23:03:21.000Z</time></trkpt>
        <trkpt lat="29.569487" lon="103.390929"><ele>732.87463</ele><time>2026-05-28T23:03:33.000Z</time></trkpt>
        <trkpt lat="29.569441" lon="103.390958"><ele>726.7796</ele><time>2026-05-28T23:03:44.000Z</time></trkpt>
        <trkpt lat="29.569383" lon="103.390964"><ele>724.0335</ele><time>2026-05-28T23:03:52.000Z</time></trkpt>
        <trkpt lat="29.569346" lon="103.390998"><ele>725.17206</ele><time>2026-05-28T23:03:56.000Z</time></trkpt>
        <trkpt lat="29.569353" lon="103.390934"><ele>731.1968</ele><time>2026-05-28T23:04:17.000Z</time></trkpt>
        <trkpt lat="29.569303" lon="103.390941"><ele>731.6495</ele><time>2026-05-28T23:04:19.000Z</time></trkpt>
        <trkpt lat="29.569255" lon="103.390962"><ele>733.16235</ele><time>2026-05-28T23:04:24.000Z</time></trkpt>
        <trkpt lat="29.569208" lon="103.390979"><ele>733.8876</ele><time>2026-05-28T23:04:28.000Z</time></trkpt>
        <trkpt lat="29.569167" lon="103.391008"><ele>728.9597</ele><time>2026-05-28T23:05:10.000Z</time></trkpt>
        <trkpt lat="29.56912" lon="103.391011"><ele>714.3028</ele><time>2026-05-28T23:05:31.000Z</time></trkpt>
        <trkpt lat="29.569074" lon="103.391043"><ele>708.89215</ele><time>2026-05-28T23:05:35.000Z</time></trkpt>
        <trkpt lat="29.569029" lon="103.391073"><ele>707.2766</ele><time>2026-05-28T23:05:39.000Z</time></trkpt>
        <trkpt lat="29.568982" lon="103.391075"><ele>705.06506</ele><time>2026-05-28T23:05:43.000Z</time></trkpt>
        <trkpt lat="29.568942" lon="103.391113"><ele>702.7806</ele><time>2026-05-28T23:05:48.000Z</time></trkpt>
        <trkpt lat="29.568929" lon="103.391173"><ele>700.20654</ele><time>2026-05-28T23:05:52.000Z</time></trkpt>
        <trkpt lat="29.568959" lon="103.391226"><ele>698.0141</ele><time>2026-05-28T23:05:54.000Z</time></trkpt>
        <trkpt lat="29.568905" lon="103.391239"><ele>694.919</ele><time>2026-05-28T23:05:59.000Z</time></trkpt>
        <trkpt lat="29.568861" lon="103.391213"><ele>694.0181</ele><time>2026-05-28T23:06:16.000Z</time></trkpt>
        <trkpt lat="29.568816" lon="103.391211"><ele>691.49097</ele><time>2026-05-28T23:06:31.000Z</time></trkpt>
        <trkpt lat="29.568766" lon="103.391212"><ele>692.34705</ele><time>2026-05-28T23:06:40.000Z</time></trkpt>
        <trkpt lat="29.568721" lon="103.391221"><ele>693.26337</ele><time>2026-05-28T23:06:45.000Z</time></trkpt>
        <trkpt lat="29.568675" lon="103.391211"><ele>691.3002</ele><time>2026-05-28T23:06:58.000Z</time></trkpt>
        <trkpt lat="29.56863" lon="103.391203"><ele>690.82</ele><time>2026-05-28T23:07:04.000Z</time></trkpt>
        <trkpt lat="29.568585" lon="103.391206"><ele>691.881</ele><time>2026-05-28T23:07:07.000Z</time></trkpt>
        <trkpt lat="29.568562" lon="103.391151"><ele>691.1487</ele><time>2026-05-28T23:07:10.000Z</time></trkpt>
        <trkpt lat="29.568562" lon="103.391098"><ele>692.9397</ele><time>2026-05-28T23:07:17.000Z</time></trkpt>
        <trkpt lat="29.568555" lon="103.391044"><ele>693.20056</ele><time>2026-05-28T23:07:19.000Z</time></trkpt>
        <trkpt lat="29.568511" lon="103.391012"><ele>705.6424</ele><time>2026-05-28T23:07:31.000Z</time></trkpt>
        <trkpt lat="29.568503" lon="103.390944"><ele>714.48364</ele><time>2026-05-28T23:07:35.000Z</time></trkpt>
        <trkpt lat="29.56847" lon="103.390888"><ele>731.59064</ele><time>2026-05-28T23:07:38.000Z</time></trkpt>
        <trkpt lat="29.568418" lon="103.390863"><ele>739.75116</ele><time>2026-05-28T23:07:41.000Z</time></trkpt>
        <trkpt lat="29.56837" lon="103.390838"><ele>749.0547</ele><time>2026-05-28T23:07:46.000Z</time></trkpt>
        <trkpt lat="29.568417" lon="103.390837"><ele>753.7753</ele><time>2026-05-28T23:07:53.000Z</time></trkpt>
        <trkpt lat="29.568463" lon="103.390844"><ele>755.07104</ele><time>2026-05-28T23:07:56.000Z</time></trkpt>
        <trkpt lat="29.568487" lon="103.390904"><ele>758.9722</ele><time>2026-05-28T23:08:06.000Z</time></trkpt>
        <trkpt lat="29.568463" lon="103.390965"><ele>760.9143</ele><time>2026-05-28T23:08:12.000Z</time></trkpt>
        <trkpt lat="29.56846" lon="103.391028"><ele>760.2857</ele><time>2026-05-28T23:08:18.000Z</time></trkpt>
        <trkpt lat="29.568436" lon="103.391071"><ele>762.29755</ele><time>2026-05-28T23:08:23.000Z</time></trkpt>
        <trkpt lat="29.568413" lon="103.391024"><ele>767.3597</ele><time>2026-05-28T23:08:40.000Z</time></trkpt>
        <trkpt lat="29.568403" lon="103.390958"><ele>768.9137</ele><time>2026-05-28T23:08:55.000Z</time></trkpt>
        <trkpt lat="29.568447" lon="103.390942"><ele>767.701</ele><time>2026-05-28T23:09:01.000Z</time></trkpt>
        <trkpt lat="29.568496" lon="103.3909"><ele>766.5204</ele><time>2026-05-28T23:09:09.000Z</time></trkpt>
        <trkpt lat="29.568465" lon="103.390856"><ele>763.6035</ele><time>2026-05-28T23:09:33.000Z</time></trkpt>
        <trkpt lat="29.568425" lon="103.390881"><ele>763.1797</ele><time>2026-05-28T23:09:36.000Z</time></trkpt>
        <trkpt lat="29.568383" lon="103.390903"><ele>762.5442</ele><time>2026-05-28T23:09:39.000Z</time></trkpt>
        <trkpt lat="29.56843" lon="103.390886"><ele>760.42096</ele><time>2026-05-28T23:09:53.000Z</time></trkpt>
        <trkpt lat="29.568487" lon="103.390875"><ele>760.888</ele><time>2026-05-28T23:10:03.000Z</time></trkpt>
        <trkpt lat="29.568532" lon="103.390857"><ele>760.8816</ele><time>2026-05-28T23:10:10.000Z</time></trkpt>
        <trkpt lat="29.568579" lon="103.390867"><ele>760.7651</ele><time>2026-05-28T23:10:24.000Z</time></trkpt>
        <trkpt lat="29.568596" lon="103.390917"><ele>760.2999</ele><time>2026-05-28T23:10:33.000Z</time></trkpt>
        <trkpt lat="29.568637" lon="103.390941"><ele>756.98303</ele><time>2026-05-28T23:10:46.000Z</time></trkpt>
        <trkpt lat="29.568688" lon="103.390935"><ele>756.9329</ele><time>2026-05-28T23:10:49.000Z</time></trkpt>
        <trkpt lat="29.56874" lon="103.390941"><ele>757.9783</ele><time>2026-05-28T23:10:55.000Z</time></trkpt>
        <trkpt lat="29.568788" lon="103.390885"><ele>758.8242</ele><time>2026-05-28T23:11:02.000Z</time></trkpt>
        <trkpt lat="29.568831" lon="103.390913"><ele>756.05255</ele><time>2026-05-28T23:11:08.000Z</time></trkpt>
        <trkpt lat="29.568865" lon="103.390967"><ele>756.1375</ele><time>2026-05-28T23:11:12.000Z</time></trkpt>
        <trkpt lat="29.568915" lon="103.390967"><ele>756.08386</ele><time>2026-05-28T23:11:15.000Z</time></trkpt>
        <trkpt lat="29.568964" lon="103.390944"><ele>755.6677</ele><time>2026-05-28T23:11:22.000Z</time></trkpt>
        <trkpt lat="29.568995" lon="103.390991"><ele>753.2558</ele><time>2026-05-28T23:11:27.000Z</time></trkpt>
        <trkpt lat="29.569028" lon="103.39104"><ele>752.5178</ele><time>2026-05-28T23:11:30.000Z</time></trkpt>
        <trkpt lat="29.569006" lon="103.391101"><ele>748.3516</ele><time>2026-05-28T23:11:34.000Z</time></trkpt>
        <trkpt lat="29.569013" lon="103.391153"><ele>737.0468</ele><time>2026-05-28T23:11:54.000Z</time></trkpt>
        <trkpt lat="29.56906" lon="103.391154"><ele>740.2481</ele><time>2026-05-28T23:12:26.000Z</time></trkpt>
        <trkpt lat="29.569084" lon="103.391103"><ele>735.31805</ele><time>2026-05-28T23:12:45.000Z</time></trkpt>
        <trkpt lat="29.569133" lon="103.391094"><ele>732.2971</ele><time>2026-05-28T23:12:53.000Z</time></trkpt>
        <trkpt lat="29.569184" lon="103.391098"><ele>730.7089</ele><time>2026-05-28T23:12:57.000Z</time></trkpt>
        <trkpt lat="29.569232" lon="103.391081"><ele>728.0858</ele><time>2026-05-28T23:13:04.000Z</time></trkpt>
        <trkpt lat="29.569279" lon="103.391063"><ele>726.8881</ele><time>2026-05-28T23:13:29.000Z</time></trkpt>
        <trkpt lat="29.569322" lon="103.39108"><ele>726.386</ele><time>2026-05-28T23:13:35.000Z</time></trkpt>
        <trkpt lat="29.569362" lon="103.391108"><ele>728.2137</ele><time>2026-05-28T23:13:43.000Z</time></trkpt>
        <trkpt lat="29.56941" lon="103.391087"><ele>729.4649</ele><time>2026-05-28T23:13:48.000Z</time></trkpt>
        <trkpt lat="29.569458" lon="103.391065"><ele>730.30273</ele><time>2026-05-28T23:13:56.000Z</time></trkpt>
        <trkpt lat="29.569512" lon="103.391044"><ele>731.0918</ele><time>2026-05-28T23:14:12.000Z</time></trkpt>
        <trkpt lat="29.569565" lon="103.391036"><ele>731.34973</ele><time>2026-05-28T23:14:18.000Z</time></trkpt>
        <trkpt lat="29.569625" lon="103.391025"><ele>731.43036</ele><time>2026-05-28T23:14:23.000Z</time></trkpt>
        <trkpt lat="29.569667" lon="103.391069"><ele>731.5525</ele><time>2026-05-28T23:14:26.000Z</time></trkpt>
        <trkpt lat="29.569695" lon="103.391119"><ele>728.69946</ele><time>2026-05-28T23:14:30.000Z</time></trkpt>
        <trkpt lat="29.569755" lon="103.391113"><ele>731.2185</ele><time>2026-05-28T23:14:34.000Z</time></trkpt>
        <trkpt lat="29.569807" lon="103.391127"><ele>732.0851</ele><time>2026-05-28T23:14:39.000Z</time></trkpt>
        <trkpt lat="29.569857" lon="103.39113"><ele>732.64264</ele><time>2026-05-28T23:14:42.000Z</time></trkpt>
        <trkpt lat="29.569911" lon="103.391108"><ele>733.74506</ele><time>2026-05-28T23:14:46.000Z</time></trkpt>
        <trkpt lat="29.56996" lon="103.391088"><ele>736.6335</ele><time>2026-05-28T23:14:51.000Z</time></trkpt>
        <trkpt lat="29.569989" lon="103.391132"><ele>738.1957</ele><time>2026-05-28T23:14:58.000Z</time></trkpt>
        <trkpt lat="29.570027" lon="103.391163"><ele>739.1243</ele><time>2026-05-28T23:15:02.000Z</time></trkpt>
        <trkpt lat="29.570066" lon="103.391189"><ele>733.6786</ele><time>2026-05-28T23:15:10.000Z</time></trkpt>
        <trkpt lat="29.570117" lon="103.391199"><ele>728.947</ele><time>2026-05-28T23:15:18.000Z</time></trkpt>
        <trkpt lat="29.570166" lon="103.391221"><ele>727.82166</ele><time>2026-05-28T23:15:23.000Z</time></trkpt>
        <trkpt lat="29.570207" lon="103.391254"><ele>726.5145</ele><time>2026-05-28T23:15:27.000Z</time></trkpt>
        <trkpt lat="29.570241" lon="103.391299"><ele>724.8405</ele><time>2026-05-28T23:15:31.000Z</time></trkpt>
        <trkpt lat="29.570282" lon="103.391321"><ele>722.1786</ele><time>2026-05-28T23:15:33.000Z</time></trkpt>
        <trkpt lat="29.570295" lon="103.391376"><ele>720.9981</ele><time>2026-05-28T23:15:35.000Z</time></trkpt>
        <trkpt lat="29.570342" lon="103.39138"><ele>718.9951</ele><time>2026-05-28T23:15:38.000Z</time></trkpt>
        <trkpt lat="29.570386" lon="103.391361"><ele>718.10815</ele><time>2026-05-28T23:15:40.000Z</time></trkpt>
        <trkpt lat="29.570438" lon="103.391345"><ele>718.5589</ele><time>2026-05-28T23:15:43.000Z</time></trkpt>
        <trkpt lat="29.570488" lon="103.391335"><ele>718.9453</ele><time>2026-05-28T23:15:45.000Z</time></trkpt>
        <trkpt lat="29.57052" lon="103.391374"><ele>719.9435</ele><time>2026-05-28T23:15:50.000Z</time></trkpt>
        <trkpt lat="29.57055" lon="103.39142"><ele>719.5514</ele><time>2026-05-28T23:15:53.000Z</time></trkpt>
        <trkpt lat="29.570588" lon="103.391449"><ele>718.08575</ele><time>2026-05-28T23:15:57.000Z</time></trkpt>
        <trkpt lat="29.570598" lon="103.391517"><ele>716.02496</ele><time>2026-05-28T23:16:01.000Z</time></trkpt>
        <trkpt lat="29.570611" lon="103.391571"><ele>714.54236</ele><time>2026-05-28T23:16:05.000Z</time></trkpt>
        <trkpt lat="29.570649" lon="103.391605"><ele>715.8934</ele><time>2026-05-28T23:16:11.000Z</time></trkpt>
        <trkpt lat="29.570701" lon="103.39159"><ele>715.7306</ele><time>2026-05-28T23:16:24.000Z</time></trkpt>
        <trkpt lat="29.570745" lon="103.391616"><ele>715.66113</ele><time>2026-05-28T23:16:30.000Z</time></trkpt>
        <trkpt lat="29.570787" lon="103.391637"><ele>716.7848</ele><time>2026-05-28T23:16:33.000Z</time></trkpt>
        <trkpt lat="29.570816" lon="103.391687"><ele>720.1607</ele><time>2026-05-28T23:16:38.000Z</time></trkpt>
        <trkpt lat="29.57085" lon="103.391731"><ele>720.6527</ele><time>2026-05-28T23:16:47.000Z</time></trkpt>
        <trkpt lat="29.570904" lon="103.391717"><ele>717.34735</ele><time>2026-05-28T23:16:52.000Z</time></trkpt>
        <trkpt lat="29.570956" lon="103.391725"><ele>715.4586</ele><time>2026-05-28T23:16:57.000Z</time></trkpt>
        <trkpt lat="29.571001" lon="103.391749"><ele>715.3371</ele><time>2026-05-28T23:17:02.000Z</time></trkpt>
        <trkpt lat="29.571049" lon="103.39177"><ele>714.2813</ele><time>2026-05-28T23:17:08.000Z</time></trkpt>
        <trkpt lat="29.571101" lon="103.391786"><ele>712.64294</ele><time>2026-05-28T23:17:13.000Z</time></trkpt>
        <trkpt lat="29.571146" lon="103.391797"><ele>712.19653</ele><time>2026-05-28T23:17:17.000Z</time></trkpt>
        <trkpt lat="29.571204" lon="103.391818"><ele>713.102</ele><time>2026-05-28T23:17:21.000Z</time></trkpt>
        <trkpt lat="29.571252" lon="103.391815"><ele>712.61163</ele><time>2026-05-28T23:17:24.000Z</time></trkpt>
        <trkpt lat="29.571309" lon="103.391797"><ele>712.01764</ele><time>2026-05-28T23:17:30.000Z</time></trkpt>
        <trkpt lat="29.571348" lon="103.391766"><ele>709.4895</ele><time>2026-05-28T23:17:39.000Z</time></trkpt>
        <trkpt lat="29.57139" lon="103.391744"><ele>708.3655</ele><time>2026-05-28T23:17:46.000Z</time></trkpt>
        <trkpt lat="29.571438" lon="103.39174"><ele>708.6579</ele><time>2026-05-28T23:17:51.000Z</time></trkpt>
        <trkpt lat="29.571496" lon="103.391743"><ele>709.5736</ele><time>2026-05-28T23:17:56.000Z</time></trkpt>
        <trkpt lat="29.571551" lon="103.391748"><ele>712.3995</ele><time>2026-05-28T23:18:03.000Z</time></trkpt>
        <trkpt lat="29.571596" lon="103.391763"><ele>713.0813</ele><time>2026-05-28T23:18:07.000Z</time></trkpt>
        <trkpt lat="29.571638" lon="103.391795"><ele>713.1794</ele><time>2026-05-28T23:18:11.000Z</time></trkpt>
        <trkpt lat="29.571689" lon="103.391807"><ele>714.0132</ele><time>2026-05-28T23:18:15.000Z</time></trkpt>
        <trkpt lat="29.571737" lon="103.391836"><ele>715.34503</ele><time>2026-05-28T23:18:19.000Z</time></trkpt>
        <trkpt lat="29.571786" lon="103.39185"><ele>718.9868</ele><time>2026-05-28T23:18:25.000Z</time></trkpt>
        <trkpt lat="29.571824" lon="103.391806"><ele>712.4578</ele><time>2026-05-28T23:18:36.000Z</time></trkpt>
        <trkpt lat="29.571878" lon="103.391786"><ele>711.98926</ele><time>2026-05-28T23:18:40.000Z</time></trkpt>
        <trkpt lat="29.571949" lon="103.391761"><ele>714.2222</ele><time>2026-05-28T23:18:43.000Z</time></trkpt>
        <trkpt lat="29.571991" lon="103.391798"><ele>717.28076</ele><time>2026-05-28T23:18:48.000Z</time></trkpt>
        <trkpt lat="29.572026" lon="103.391845"><ele>721.9255</ele><time>2026-05-28T23:18:53.000Z</time></trkpt>
        <trkpt lat="29.572082" lon="103.391842"><ele>720.98706</ele><time>2026-05-28T23:18:58.000Z</time></trkpt>
        <trkpt lat="29.572128" lon="103.39184"><ele>724.51666</ele><time>2026-05-28T23:19:02.000Z</time></trkpt>
        <trkpt lat="29.572186" lon="103.391849"><ele>725.3725</ele><time>2026-05-28T23:19:07.000Z</time></trkpt>
        <trkpt lat="29.572231" lon="103.391881"><ele>727.0142</ele><time>2026-05-28T23:19:14.000Z</time></trkpt>
        <trkpt lat="29.572276" lon="103.39188"><ele>726.8907</ele><time>2026-05-28T23:19:19.000Z</time></trkpt>
        <trkpt lat="29.572333" lon="103.391869"><ele>725.22754</ele><time>2026-05-28T23:19:23.000Z</time></trkpt>
        <trkpt lat="29.572379" lon="103.391856"><ele>722.6127</ele><time>2026-05-28T23:19:27.000Z</time></trkpt>
        <trkpt lat="29.572407" lon="103.391901"><ele>725.90076</ele><time>2026-05-28T23:19:38.000Z</time></trkpt>
        <trkpt lat="29.572457" lon="103.391918"><ele>721.7084</ele><time>2026-05-28T23:19:50.000Z</time></trkpt>
        <trkpt lat="29.572506" lon="103.391922"><ele>720.7072</ele><time>2026-05-28T23:19:54.000Z</time></trkpt>
        <trkpt lat="29.572555" lon="103.391946"><ele>721.4446</ele><time>2026-05-28T23:19:59.000Z</time></trkpt>
        <trkpt lat="29.57261" lon="103.39196"><ele>723.449</ele><time>2026-05-28T23:20:04.000Z</time></trkpt>
        <trkpt lat="29.572664" lon="103.39198"><ele>724.5838</ele><time>2026-05-28T23:20:09.000Z</time></trkpt>
        <trkpt lat="29.572706" lon="103.391939"><ele>723.74585</ele><time>2026-05-28T23:20:15.000Z</time></trkpt>
        <trkpt lat="29.57272" lon="103.391991"><ele>722.9453</ele><time>2026-05-28T23:20:23.000Z</time></trkpt>
        <trkpt lat="29.572762" lon="103.392038"><ele>723.15283</ele><time>2026-05-28T23:20:30.000Z</time></trkpt>
        <trkpt lat="29.572818" lon="103.392053"><ele>725.7759</ele><time>2026-05-28T23:20:36.000Z</time></trkpt>
        <trkpt lat="29.572868" lon="103.392055"><ele>725.6919</ele><time>2026-05-28T23:20:40.000Z</time></trkpt>
        <trkpt lat="29.572914" lon="103.392046"><ele>725.5634</ele><time>2026-05-28T23:20:44.000Z</time></trkpt>
        <trkpt lat="29.572959" lon="103.392028"><ele>725.968</ele><time>2026-05-28T23:20:48.000Z</time></trkpt>
        <trkpt lat="29.573007" lon="103.391985"><ele>727.6713</ele><time>2026-05-28T23:20:52.000Z</time></trkpt>
        <trkpt lat="29.573032" lon="103.391927"><ele>726.0629</ele><time>2026-05-28T23:20:55.000Z</time></trkpt>
        <trkpt lat="29.573081" lon="103.391901"><ele>724.67316</ele><time>2026-05-28T23:20:59.000Z</time></trkpt>
        <trkpt lat="29.573142" lon="103.391897"><ele>724.1103</ele><time>2026-05-28T23:21:04.000Z</time></trkpt>
        <trkpt lat="29.573177" lon="103.39194"><ele>724.88654</ele><time>2026-05-28T23:21:07.000Z</time></trkpt>
        <trkpt lat="29.573229" lon="103.39195"><ele>722.4562</ele><time>2026-05-28T23:21:14.000Z</time></trkpt>
        <trkpt lat="29.573277" lon="103.391935"><ele>721.62646</ele><time>2026-05-28T23:21:19.000Z</time></trkpt>
        <trkpt lat="29.573321" lon="103.391958"><ele>719.20764</ele><time>2026-05-28T23:21:27.000Z</time></trkpt>
        <trkpt lat="29.573368" lon="103.391966"><ele>719.21423</ele><time>2026-05-28T23:21:30.000Z</time></trkpt>
        <trkpt lat="29.573419" lon="103.391973"><ele>718.04425</ele><time>2026-05-28T23:21:35.000Z</time></trkpt>
        <trkpt lat="29.573464" lon="103.391993"><ele>717.1457</ele><time>2026-05-28T23:21:40.000Z</time></trkpt>
        <trkpt lat="29.573481" lon="103.392041"><ele>716.9556</ele><time>2026-05-28T23:21:45.000Z</time></trkpt>
        <trkpt lat="29.57353" lon="103.392054"><ele>716.0217</ele><time>2026-05-28T23:21:51.000Z</time></trkpt>
        <trkpt lat="29.573575" lon="103.392063"><ele>712.50806</ele><time>2026-05-28T23:21:56.000Z</time></trkpt>
        <trkpt lat="29.573627" lon="103.392071"><ele>706.90576</ele><time>2026-05-28T23:22:03.000Z</time></trkpt>
        <trkpt lat="29.573677" lon="103.392067"><ele>698.47986</ele><time>2026-05-28T23:22:13.000Z</time></trkpt>
        <trkpt lat="29.57372" lon="103.392098"><ele>696.95996</ele><time>2026-05-28T23:22:18.000Z</time></trkpt>
        <trkpt lat="29.57374" lon="103.392144"><ele>695.6195</ele><time>2026-05-28T23:22:22.000Z</time></trkpt>
        <trkpt lat="29.573777" lon="103.392183"><ele>694.4645</ele><time>2026-05-28T23:22:27.000Z</time></trkpt>
        <trkpt lat="29.573802" lon="103.392234"><ele>693.17554</ele><time>2026-05-28T23:22:33.000Z</time></trkpt>
        <trkpt lat="29.573855" lon="103.392253"><ele>697.0872</ele><time>2026-05-28T23:22:41.000Z</time></trkpt>
        <trkpt lat="29.573897" lon="103.392277"><ele>700.50775</ele><time>2026-05-28T23:22:47.000Z</time></trkpt>
        <trkpt lat="29.573944" lon="103.392249"><ele>699.1807</ele><time>2026-05-28T23:22:51.000Z</time></trkpt>
        <trkpt lat="29.573984" lon="103.392196"><ele>698.4487</ele><time>2026-05-28T23:22:54.000Z</time></trkpt>
        <trkpt lat="29.574035" lon="103.392156"><ele>696.1205</ele><time>2026-05-28T23:22:57.000Z</time></trkpt>
        <trkpt lat="29.574078" lon="103.392136"><ele>694.7968</ele><time>2026-05-28T23:23:00.000Z</time></trkpt>
        <trkpt lat="29.574122" lon="103.392162"><ele>694.14087</ele><time>2026-05-28T23:23:06.000Z</time></trkpt>
        <trkpt lat="29.574172" lon="103.392192"><ele>693.2251</ele><time>2026-05-28T23:23:12.000Z</time></trkpt>
        <trkpt lat="29.574218" lon="103.392214"><ele>693.9951</ele><time>2026-05-28T23:23:22.000Z</time></trkpt>
        <trkpt lat="29.574249" lon="103.392271"><ele>693.11957</ele><time>2026-05-28T23:23:28.000Z</time></trkpt>
        <trkpt lat="29.574207" lon="103.392306"><ele>693.9038</ele><time>2026-05-28T23:23:30.000Z</time></trkpt>
        <trkpt lat="29.574205" lon="103.392361"><ele>694.3798</ele><time>2026-05-28T23:23:35.000Z</time></trkpt>
        <trkpt lat="29.5742" lon="103.392416"><ele>693.05994</ele><time>2026-05-28T23:23:39.000Z</time></trkpt>
        <trkpt lat="29.574176" lon="103.39247"><ele>694.72</ele><time>2026-05-28T23:24:45.000Z</time></trkpt>
        <trkpt lat="29.57415" lon="103.392512"><ele>695.133</ele><time>2026-05-28T23:24:50.000Z</time></trkpt>
        <trkpt lat="29.574096" lon="103.392477"><ele>696.7425</ele><time>2026-05-28T23:25:47.000Z</time></trkpt>
        <trkpt lat="29.574082" lon="103.392529"><ele>700.4384</ele><time>2026-05-28T23:25:59.000Z</time></trkpt>
        <trkpt lat="29.574089" lon="103.392581"><ele>703.0531</ele><time>2026-05-28T23:26:08.000Z</time></trkpt>
        <trkpt lat="29.574095" lon="103.392633"><ele>700.1644</ele><time>2026-05-28T23:26:13.000Z</time></trkpt>
        <trkpt lat="29.574123" lon="103.392674"><ele>704.7409</ele><time>2026-05-28T23:26:18.000Z</time></trkpt>
        <trkpt lat="29.574119" lon="103.392732"><ele>703.44116</ele><time>2026-05-28T23:26:24.000Z</time></trkpt>
        <trkpt lat="29.574139" lon="103.392786"><ele>707.56323</ele><time>2026-05-28T23:26:36.000Z</time></trkpt>
        <trkpt lat="29.574111" lon="103.392832"><ele>710.5885</ele><time>2026-05-28T23:26:43.000Z</time></trkpt>
        <trkpt lat="29.574111" lon="103.392891"><ele>707.7022</ele><time>2026-05-28T23:26:48.000Z</time></trkpt>
        <trkpt lat="29.574061" lon="103.392917"><ele>708.32666</ele><time>2026-05-28T23:26:56.000Z</time></trkpt>
        <trkpt lat="29.574082" lon="103.392981"><ele>712.0396</ele><time>2026-05-28T23:27:01.000Z</time></trkpt>
        <trkpt lat="29.574047" lon="103.393014"><ele>715.86804</ele><time>2026-05-28T23:27:06.000Z</time></trkpt>
        <trkpt lat="29.574065" lon="103.393062"><ele>716.1713</ele><time>2026-05-28T23:27:14.000Z</time></trkpt>
        <trkpt lat="29.57405" lon="103.393115"><ele>717.95294</ele><time>2026-05-28T23:27:27.000Z</time></trkpt>
        <trkpt lat="29.574029" lon="103.393163"><ele>724.17426</ele><time>2026-05-28T23:27:39.000Z</time></trkpt>
        <trkpt lat="29.574013" lon="103.393213"><ele>723.44916</ele><time>2026-05-28T23:27:45.000Z</time></trkpt>
        <trkpt lat="29.57399" lon="103.393259"><ele>723.8361</ele><time>2026-05-28T23:27:54.000Z</time></trkpt>
        <trkpt lat="29.573952" lon="103.393306"><ele>723.4251</ele><time>2026-05-28T23:28:01.000Z</time></trkpt>
        <trkpt lat="29.573925" lon="103.39336"><ele>723.6406</ele><time>2026-05-28T23:28:05.000Z</time></trkpt>
        <trkpt lat="29.573889" lon="103.393399"><ele>723.3223</ele><time>2026-05-28T23:28:11.000Z</time></trkpt>
        <trkpt lat="29.573845" lon="103.393423"><ele>722.2042</ele><time>2026-05-28T23:28:16.000Z</time></trkpt>
        <trkpt lat="29.573793" lon="103.393444"><ele>720.20844</ele><time>2026-05-28T23:28:22.000Z</time></trkpt>
        <trkpt lat="29.573747" lon="103.393473"><ele>719.4285</ele><time>2026-05-28T23:28:27.000Z</time></trkpt>
        <trkpt lat="29.573704" lon="103.393502"><ele>723.05316</ele><time>2026-05-28T23:28:33.000Z</time></trkpt>
        <trkpt lat="29.573661" lon="103.393523"><ele>725.9969</ele><time>2026-05-28T23:28:46.000Z</time></trkpt>
        <trkpt lat="29.573624" lon="103.393556"><ele>722.6061</ele><time>2026-05-28T23:29:47.000Z</time></trkpt>
        <trkpt lat="29.573608" lon="103.393607"><ele>723.37714</ele><time>2026-05-28T23:29:55.000Z</time></trkpt>
        <trkpt lat="29.573556" lon="103.393634"><ele>721.26294</ele><time>2026-05-28T23:30:06.000Z</time></trkpt>
        <trkpt lat="29.573508" lon="103.393645"><ele>721.62756</ele><time>2026-05-28T23:30:10.000Z</time></trkpt>
        <trkpt lat="29.573467" lon="103.393673"><ele>722.2543</ele><time>2026-05-28T23:30:14.000Z</time></trkpt>
        <trkpt lat="29.573425" lon="103.393704"><ele>722.365</ele><time>2026-05-28T23:30:19.000Z</time></trkpt>
        <trkpt lat="29.573382" lon="103.393729"><ele>722.99243</ele><time>2026-05-28T23:30:24.000Z</time></trkpt>
        <trkpt lat="29.573336" lon="103.393734"><ele>722.4692</ele><time>2026-05-28T23:30:29.000Z</time></trkpt>
        <trkpt lat="29.573293" lon="103.393768"><ele>723.29486</ele><time>2026-05-28T23:30:35.000Z</time></trkpt>
        <trkpt lat="29.573237" lon="103.393757"><ele>720.8572</ele><time>2026-05-28T23:30:41.000Z</time></trkpt>
        <trkpt lat="29.573184" lon="103.393753"><ele>721.6705</ele><time>2026-05-28T23:30:46.000Z</time></trkpt>
        <trkpt lat="29.573137" lon="103.39376"><ele>722.0008</ele><time>2026-05-28T23:30:50.000Z</time></trkpt>
        <trkpt lat="29.573078" lon="103.393786"><ele>722.89557</ele><time>2026-05-28T23:30:54.000Z</time></trkpt>
        <trkpt lat="29.573046" lon="103.39383"><ele>724.306</ele><time>2026-05-28T23:30:58.000Z</time></trkpt>
        <trkpt lat="29.573017" lon="103.393871"><ele>725.7691</ele><time>2026-05-28T23:31:02.000Z</time></trkpt>
        <trkpt lat="29.573013" lon="103.393923"><ele>724.1537</ele><time>2026-05-28T23:31:06.000Z</time></trkpt>
        <trkpt lat="29.573001" lon="103.393977"><ele>721.7816</ele><time>2026-05-28T23:31:10.000Z</time></trkpt>
        <trkpt lat="29.572989" lon="103.394032"><ele>721.66754</ele><time>2026-05-28T23:31:14.000Z</time></trkpt>
        <trkpt lat="29.572969" lon="103.394093"><ele>720.3736</ele><time>2026-05-28T23:31:19.000Z</time></trkpt>
        <trkpt lat="29.572944" lon="103.394142"><ele>720.38446</ele><time>2026-05-28T23:31:24.000Z</time></trkpt>
        <trkpt lat="29.572913" lon="103.394181"><ele>718.18317</ele><time>2026-05-28T23:31:28.000Z</time></trkpt>
        <trkpt lat="29.572882" lon="103.394226"><ele>719.1286</ele><time>2026-05-28T23:31:38.000Z</time></trkpt>
        <trkpt lat="29.572869" lon="103.394283"><ele>721.21564</ele><time>2026-05-28T23:31:42.000Z</time></trkpt>
        <trkpt lat="29.57286" lon="103.394334"><ele>722.23486</ele><time>2026-05-28T23:31:53.000Z</time></trkpt>
        <trkpt lat="29.572839" lon="103.394388"><ele>724.26685</ele><time>2026-05-28T23:32:00.000Z</time></trkpt>
        <trkpt lat="29.572814" lon="103.394433"><ele>725.2798</ele><time>2026-05-28T23:32:05.000Z</time></trkpt>
        <trkpt lat="29.572794" lon="103.394499"><ele>724.7973</ele><time>2026-05-28T23:32:14.000Z</time></trkpt>
        <trkpt lat="29.572771" lon="103.394555"><ele>724.90326</ele><time>2026-05-28T23:32:20.000Z</time></trkpt>
        <trkpt lat="29.572773" lon="103.39461"><ele>731.4375</ele><time>2026-05-28T23:32:29.000Z</time></trkpt>
        <trkpt lat="29.572778" lon="103.394674"><ele>729.58716</ele><time>2026-05-28T23:32:33.000Z</time></trkpt>
        <trkpt lat="29.572798" lon="103.394727"><ele>730.7381</ele><time>2026-05-28T23:32:39.000Z</time></trkpt>
        <trkpt lat="29.572836" lon="103.394761"><ele>734.8229</ele><time>2026-05-28T23:32:46.000Z</time></trkpt>
        <trkpt lat="29.572876" lon="103.394791"><ele>735.47</ele><time>2026-05-28T23:32:53.000Z</time></trkpt>
        <trkpt lat="29.572884" lon="103.394841"><ele>735.6661</ele><time>2026-05-28T23:33:01.000Z</time></trkpt>
        <trkpt lat="29.572924" lon="103.394883"><ele>737.8208</ele><time>2026-05-28T23:33:07.000Z</time></trkpt>
        <trkpt lat="29.572932" lon="103.394934"><ele>740.91614</ele><time>2026-05-28T23:33:16.000Z</time></trkpt>
        <trkpt lat="29.572921" lon="103.394995"><ele>743.30084</ele><time>2026-05-28T23:33:30.000Z</time></trkpt>
        <trkpt lat="29.572935" lon="103.395049"><ele>743.4164</ele><time>2026-05-28T23:33:36.000Z</time></trkpt>
        <trkpt lat="29.57295" lon="103.3951"><ele>742.1917</ele><time>2026-05-28T23:33:40.000Z</time></trkpt>
        <trkpt lat="29.572939" lon="103.395162"><ele>740.9532</ele><time>2026-05-28T23:33:46.000Z</time></trkpt>
        <trkpt lat="29.572951" lon="103.395213"><ele>744.22437</ele><time>2026-05-28T23:33:56.000Z</time></trkpt>
        <trkpt lat="29.57296" lon="103.39527"><ele>744.1363</ele><time>2026-05-28T23:34:04.000Z</time></trkpt>
        <trkpt lat="29.572982" lon="103.395323"><ele>745.4548</ele><time>2026-05-28T23:34:11.000Z</time></trkpt>
        <trkpt lat="29.572976" lon="103.395377"><ele>747.5786</ele><time>2026-05-28T23:34:18.000Z</time></trkpt>
        <trkpt lat="29.573023" lon="103.395349"><ele>756.5616</ele><time>2026-05-28T23:37:45.000Z</time></trkpt>
        <trkpt lat="29.572989" lon="103.395389"><ele>752.02155</ele><time>2026-05-28T23:38:13.000Z</time></trkpt>
        <trkpt lat="29.572943" lon="103.39539"><ele>748.54333</ele><time>2026-05-28T23:42:49.000Z</time></trkpt>
        <trkpt lat="29.572981" lon="103.395358"><ele>749.4826</ele><time>2026-05-28T23:43:52.000Z</time></trkpt>
        <trkpt lat="29.572948" lon="103.395401"><ele>751.72504</ele><time>2026-05-28T23:50:18.000Z</time></trkpt>
        <trkpt lat="29.572933" lon="103.395454"><ele>754.0406</ele><time>2026-05-28T23:50:23.000Z</time></trkpt>
        <trkpt lat="29.572932" lon="103.395507"><ele>753.84406</ele><time>2026-05-28T23:50:30.000Z</time></trkpt>
        <trkpt lat="29.572933" lon="103.395564"><ele>753.13983</ele><time>2026-05-28T23:50:37.000Z</time></trkpt>
        <trkpt lat="29.572913" lon="103.395612"><ele>753.92615</ele><time>2026-05-28T23:50:44.000Z</time></trkpt>
        <trkpt lat="29.57289" lon="103.395659"><ele>755.319</ele><time>2026-05-28T23:50:50.000Z</time></trkpt>
        <trkpt lat="29.572855" lon="103.395704"><ele>755.0621</ele><time>2026-05-28T23:50:57.000Z</time></trkpt>
        <trkpt lat="29.572833" lon="103.395761"><ele>756.3747</ele><time>2026-05-28T23:51:03.000Z</time></trkpt>
        <trkpt lat="29.57281" lon="103.395808"><ele>755.37854</ele><time>2026-05-28T23:51:11.000Z</time></trkpt>
        <trkpt lat="29.572769" lon="103.395829"><ele>754.3226</ele><time>2026-05-28T23:51:20.000Z</time></trkpt>
        <trkpt lat="29.572743" lon="103.395881"><ele>756.1034</ele><time>2026-05-28T23:51:30.000Z</time></trkpt>
        <trkpt lat="29.572694" lon="103.395892"><ele>758.09625</ele><time>2026-05-28T23:51:42.000Z</time></trkpt>
        <trkpt lat="29.572649" lon="103.395915"><ele>758.33673</ele><time>2026-05-28T23:51:49.000Z</time></trkpt>
        <trkpt lat="29.572612" lon="103.395949"><ele>759.63727</ele><time>2026-05-28T23:51:56.000Z</time></trkpt>
        <trkpt lat="29.572575" lon="103.395979"><ele>758.78406</ele><time>2026-05-28T23:52:05.000Z</time></trkpt>
        <trkpt lat="29.572539" lon="103.396012"><ele>760.3755</ele><time>2026-05-28T23:52:15.000Z</time></trkpt>
        <trkpt lat="29.572498" lon="103.396037"><ele>762.6409</ele><time>2026-05-28T23:52:25.000Z</time></trkpt>
        <trkpt lat="29.57245" lon="103.396067"><ele>763.833</ele><time>2026-05-28T23:52:30.000Z</time></trkpt>
        <trkpt lat="29.572434" lon="103.396116"><ele>764.3782</ele><time>2026-05-28T23:52:36.000Z</time></trkpt>
        <trkpt lat="29.572415" lon="103.396172"><ele>765.0254</ele><time>2026-05-28T23:52:40.000Z</time></trkpt>
        <trkpt lat="29.572396" lon="103.396224"><ele>766.90454</ele><time>2026-05-28T23:52:46.000Z</time></trkpt>
        <trkpt lat="29.572391" lon="103.39628"><ele>764.1096</ele><time>2026-05-28T23:52:52.000Z</time></trkpt>
        <trkpt lat="29.572384" lon="103.396334"><ele>765.3605</ele><time>2026-05-28T23:52:57.000Z</time></trkpt>
        <trkpt lat="29.572353" lon="103.39638"><ele>765.4689</ele><time>2026-05-28T23:53:04.000Z</time></trkpt>
        <trkpt lat="29.572335" lon="103.396432"><ele>766.3549</ele><time>2026-05-28T23:53:09.000Z</time></trkpt>
        <trkpt lat="29.572329" lon="103.396488"><ele>765.27185</ele><time>2026-05-28T23:53:14.000Z</time></trkpt>
        <trkpt lat="29.572341" lon="103.396545"><ele>765.8687</ele><time>2026-05-28T23:53:20.000Z</time></trkpt>
        <trkpt lat="29.572349" lon="103.396602"><ele>768.3256</ele><time>2026-05-28T23:53:31.000Z</time></trkpt>
        <trkpt lat="29.572321" lon="103.396645"><ele>769.2022</ele><time>2026-05-28T23:53:40.000Z</time></trkpt>
        <trkpt lat="29.572304" lon="103.396697"><ele>768.7337</ele><time>2026-05-28T23:53:48.000Z</time></trkpt>
        <trkpt lat="29.572264" lon="103.396726"><ele>767.9683</ele><time>2026-05-28T23:53:55.000Z</time></trkpt>
        <trkpt lat="29.572222" lon="103.396753"><ele>778.0661</ele><time>2026-05-28T23:54:17.000Z</time></trkpt>
        <trkpt lat="29.572174" lon="103.396748"><ele>777.5533</ele><time>2026-05-28T23:54:36.000Z</time></trkpt>
        <trkpt lat="29.572119" lon="103.396753"><ele>777.3076</ele><time>2026-05-28T23:54:43.000Z</time></trkpt>
        <trkpt lat="29.572074" lon="103.396754"><ele>779.61444</ele><time>2026-05-28T23:54:53.000Z</time></trkpt>
        <trkpt lat="29.572029" lon="103.396767"><ele>780.46747</ele><time>2026-05-28T23:55:01.000Z</time></trkpt>
        <trkpt lat="29.571983" lon="103.396791"><ele>779.866</ele><time>2026-05-28T23:55:08.000Z</time></trkpt>
        <trkpt lat="29.571936" lon="103.396808"><ele>781.2396</ele><time>2026-05-28T23:55:18.000Z</time></trkpt>
        <trkpt lat="29.57189" lon="103.396821"><ele>783.9131</ele><time>2026-05-28T23:55:28.000Z</time></trkpt>
        <trkpt lat="29.571845" lon="103.396827"><ele>785.5086</ele><time>2026-05-28T23:55:36.000Z</time></trkpt>
        <trkpt lat="29.571797" lon="103.396836"><ele>790.31256</ele><time>2026-05-28T23:55:48.000Z</time></trkpt>
        <trkpt lat="29.571771" lon="103.39688"><ele>791.6218</ele><time>2026-05-28T23:55:55.000Z</time></trkpt>
        <trkpt lat="29.571739" lon="103.39692"><ele>792.5683</ele><time>2026-05-28T23:56:02.000Z</time></trkpt>
        <trkpt lat="29.571705" lon="103.396967"><ele>792.37695</ele><time>2026-05-28T23:56:09.000Z</time></trkpt>
        <trkpt lat="29.571683" lon="103.39702"><ele>793.61993</ele><time>2026-05-28T23:56:16.000Z</time></trkpt>
        <trkpt lat="29.571643" lon="103.397058"><ele>796.0794</ele><time>2026-05-28T23:56:26.000Z</time></trkpt>
        <trkpt lat="29.571616" lon="103.397104"><ele>796.26996</ele><time>2026-05-28T23:56:32.000Z</time></trkpt>
        <trkpt lat="29.571583" lon="103.397152"><ele>797.1458</ele><time>2026-05-28T23:56:40.000Z</time></trkpt>
        <trkpt lat="29.571562" lon="103.397202"><ele>800.8789</ele><time>2026-05-28T23:56:48.000Z</time></trkpt>
        <trkpt lat="29.571543" lon="103.397262"><ele>803.3348</ele><time>2026-05-28T23:56:57.000Z</time></trkpt>
        <trkpt lat="29.571521" lon="103.397313"><ele>803.1034</ele><time>2026-05-28T23:57:04.000Z</time></trkpt>
        <trkpt lat="29.571493" lon="103.397362"><ele>804.18427</ele><time>2026-05-28T23:57:16.000Z</time></trkpt>
        <trkpt lat="29.571474" lon="103.397411"><ele>806.5161</ele><time>2026-05-28T23:57:25.000Z</time></trkpt>
        <trkpt lat="29.571465" lon="103.397465"><ele>805.8229</ele><time>2026-05-28T23:57:31.000Z</time></trkpt>
        <trkpt lat="29.571452" lon="103.397517"><ele>808.0086</ele><time>2026-05-28T23:57:39.000Z</time></trkpt>
        <trkpt lat="29.571441" lon="103.39757"><ele>808.1275</ele><time>2026-05-28T23:57:47.000Z</time></trkpt>
        <trkpt lat="29.571448" lon="103.397622"><ele>808.571</ele><time>2026-05-28T23:57:51.000Z</time></trkpt>
        <trkpt lat="29.571452" lon="103.397675"><ele>807.9717</ele><time>2026-05-28T23:57:56.000Z</time></trkpt>
        <trkpt lat="29.571463" lon="103.397733"><ele>809.6442</ele><time>2026-05-28T23:58:01.000Z</time></trkpt>
        <trkpt lat="29.571487" lon="103.39778"><ele>812.25757</ele><time>2026-05-28T23:58:09.000Z</time></trkpt>
        <trkpt lat="29.571494" lon="103.397838"><ele>814.78436</ele><time>2026-05-28T23:58:19.000Z</time></trkpt>
        <trkpt lat="29.571492" lon="103.397892"><ele>816.8355</ele><time>2026-05-28T23:58:25.000Z</time></trkpt>
        <trkpt lat="29.571512" lon="103.397939"><ele>816.76337</ele><time>2026-05-28T23:58:33.000Z</time></trkpt>
        <trkpt lat="29.571532" lon="103.397993"><ele>825.01935</ele><time>2026-05-28T23:58:50.000Z</time></trkpt>
        <trkpt lat="29.571549" lon="103.398051"><ele>824.0183</ele><time>2026-05-28T23:58:58.000Z</time></trkpt>
        <trkpt lat="29.571553" lon="103.398104"><ele>823.26227</ele><time>2026-05-28T23:59:07.000Z</time></trkpt>
        <trkpt lat="29.571558" lon="103.398158"><ele>825.4662</ele><time>2026-05-28T23:59:17.000Z</time></trkpt>
        <trkpt lat="29.571567" lon="103.398214"><ele>827.57306</ele><time>2026-05-28T23:59:26.000Z</time></trkpt>
        <trkpt lat="29.571578" lon="103.398272"><ele>832.1654</ele><time>2026-05-28T23:59:34.000Z</time></trkpt>
        <trkpt lat="29.57157" lon="103.398329"><ele>834.05835</ele><time>2026-05-28T23:59:42.000Z</time></trkpt>
        <trkpt lat="29.571565" lon="103.398384"><ele>835.06744</ele><time>2026-05-28T23:59:47.000Z</time></trkpt>
        <trkpt lat="29.571567" lon="103.398442"><ele>834.65894</ele><time>2026-05-28T23:59:53.000Z</time></trkpt>
        <trkpt lat="29.571581" lon="103.398496"><ele>838.5457</ele><time>2026-05-29T00:00:02.000Z</time></trkpt>
        <trkpt lat="29.571582" lon="103.398549"><ele>838.5589</ele><time>2026-05-29T00:00:11.000Z</time></trkpt>
        <trkpt lat="29.571596" lon="103.398603"><ele>840.1083</ele><time>2026-05-29T00:00:22.000Z</time></trkpt>
        <trkpt lat="29.57159" lon="103.398658"><ele>841.06287</ele><time>2026-05-29T00:00:27.000Z</time></trkpt>
        <trkpt lat="29.571602" lon="103.398721"><ele>841.8924</ele><time>2026-05-29T00:00:36.000Z</time></trkpt>
        <trkpt lat="29.571614" lon="103.398777"><ele>841.2035</ele><time>2026-05-29T00:00:42.000Z</time></trkpt>
        <trkpt lat="29.571627" lon="103.398836"><ele>841.5528</ele><time>2026-05-29T00:00:47.000Z</time></trkpt>
        <trkpt lat="29.57163" lon="103.398892"><ele>841.8326</ele><time>2026-05-29T00:00:53.000Z</time></trkpt>
        <trkpt lat="29.571635" lon="103.398949"><ele>842.0766</ele><time>2026-05-29T00:00:57.000Z</time></trkpt>
        <trkpt lat="29.571645" lon="103.399011"><ele>840.0582</ele><time>2026-05-29T00:01:02.000Z</time></trkpt>
        <trkpt lat="29.571665" lon="103.399065"><ele>838.88776</ele><time>2026-05-29T00:01:07.000Z</time></trkpt>
        <trkpt lat="29.571693" lon="103.399117"><ele>835.6784</ele><time>2026-05-29T00:01:16.000Z</time></trkpt>
        <trkpt lat="29.571708" lon="103.399169"><ele>834.9492</ele><time>2026-05-29T00:01:24.000Z</time></trkpt>
        <trkpt lat="29.57172" lon="103.399222"><ele>831.6662</ele><time>2026-05-29T00:01:32.000Z</time></trkpt>
        <trkpt lat="29.571742" lon="103.399269"><ele>832.17737</ele><time>2026-05-29T00:01:38.000Z</time></trkpt>
        <trkpt lat="29.571776" lon="103.399305"><ele>829.36774</ele><time>2026-05-29T00:01:47.000Z</time></trkpt>
        <trkpt lat="29.571806" lon="103.399345"><ele>829.69226</ele><time>2026-05-29T00:01:55.000Z</time></trkpt>
        <trkpt lat="29.571833" lon="103.399392"><ele>826.84174</ele><time>2026-05-29T00:02:01.000Z</time></trkpt>
        <trkpt lat="29.571838" lon="103.399446"><ele>826.9382</ele><time>2026-05-29T00:02:07.000Z</time></trkpt>
        <trkpt lat="29.571851" lon="103.399511"><ele>826.30273</ele><time>2026-05-29T00:02:12.000Z</time></trkpt>
        <trkpt lat="29.571852" lon="103.399573"><ele>826.2643</ele><time>2026-05-29T00:02:21.000Z</time></trkpt>
        <trkpt lat="29.57185" lon="103.399634"><ele>826.7661</ele><time>2026-05-29T00:02:28.000Z</time></trkpt>
        <trkpt lat="29.571881" lon="103.399677"><ele>828.7957</ele><time>2026-05-29T00:02:43.000Z</time></trkpt>
        <trkpt lat="29.571884" lon="103.399731"><ele>828.7801</ele><time>2026-05-29T00:02:55.000Z</time></trkpt>
        <trkpt lat="29.571882" lon="103.399788"><ele>824.29553</ele><time>2026-05-29T00:03:01.000Z</time></trkpt>
        <trkpt lat="29.571887" lon="103.399841"><ele>820.2067</ele><time>2026-05-29T00:03:10.000Z</time></trkpt>
        <trkpt lat="29.571864" lon="103.399887"><ele>819.85895</ele><time>2026-05-29T00:03:18.000Z</time></trkpt>
        <trkpt lat="29.571849" lon="103.399936"><ele>821.42755</ele><time>2026-05-29T00:03:36.000Z</time></trkpt>
        <trkpt lat="29.57184" lon="103.399992"><ele>821.7301</ele><time>2026-05-29T00:03:44.000Z</time></trkpt>
        <trkpt lat="29.571844" lon="103.400046"><ele>818.4545</ele><time>2026-05-29T00:03:52.000Z</time></trkpt>
        <trkpt lat="29.571827" lon="103.400098"><ele>815.8029</ele><time>2026-05-29T00:04:01.000Z</time></trkpt>
        <trkpt lat="29.571857" lon="103.400142"><ele>814.03564</ele><time>2026-05-29T00:04:18.000Z</time></trkpt>
        <trkpt lat="29.571859" lon="103.400194"><ele>815.56384</ele><time>2026-05-29T00:04:28.000Z</time></trkpt>
        <trkpt lat="29.571875" lon="103.400251"><ele>815.5235</ele><time>2026-05-29T00:04:39.000Z</time></trkpt>
        <trkpt lat="29.571886" lon="103.400303"><ele>812.49524</ele><time>2026-05-29T00:04:47.000Z</time></trkpt>
        <trkpt lat="29.571892" lon="103.40036"><ele>809.95605</ele><time>2026-05-29T00:04:56.000Z</time></trkpt>
        <trkpt lat="29.571897" lon="103.400414"><ele>804.5257</ele><time>2026-05-29T00:05:09.000Z</time></trkpt>
        <trkpt lat="29.571942" lon="103.400426"><ele>803.6364</ele><time>2026-05-29T00:05:41.000Z</time></trkpt>
        <trkpt lat="29.57191" lon="103.400464"><ele>795.7303</ele><time>2026-05-29T00:06:18.000Z</time></trkpt>
        <trkpt lat="29.571894" lon="103.400514"><ele>797.6058</ele><time>2026-05-29T00:06:31.000Z</time></trkpt>
        <trkpt lat="29.571892" lon="103.400566"><ele>796.76483</ele><time>2026-05-29T00:06:41.000Z</time></trkpt>
        <trkpt lat="29.571884" lon="103.400626"><ele>797.925</ele><time>2026-05-29T00:06:54.000Z</time></trkpt>
        <trkpt lat="29.571912" lon="103.400669"><ele>796.32874</ele><time>2026-05-29T00:07:02.000Z</time></trkpt>
        <trkpt lat="29.571932" lon="103.400719"><ele>794.2041</ele><time>2026-05-29T00:07:11.000Z</time></trkpt>
        <trkpt lat="29.57194" lon="103.400771"><ele>790.9575</ele><time>2026-05-29T00:07:26.000Z</time></trkpt>
        <trkpt lat="29.57197" lon="103.400819"><ele>788.3948</ele><time>2026-05-29T00:07:35.000Z</time></trkpt>
        <trkpt lat="29.571974" lon="103.400877"><ele>787.16095</ele><time>2026-05-29T00:07:43.000Z</time></trkpt>
        <trkpt lat="29.571966" lon="103.40093"><ele>786.06555</ele><time>2026-05-29T00:07:52.000Z</time></trkpt>
        <trkpt lat="29.571989" lon="103.400989"><ele>785.6391</ele><time>2026-05-29T00:07:58.000Z</time></trkpt>
        <trkpt lat="29.571974" lon="103.401039"><ele>785.1182</ele><time>2026-05-29T00:08:18.000Z</time></trkpt>
        <trkpt lat="29.571946" lon="103.401105"><ele>784.3503</ele><time>2026-05-29T00:08:23.000Z</time></trkpt>
        <trkpt lat="29.571986" lon="103.401174"><ele>784.1215</ele><time>2026-05-29T00:08:25.000Z</time></trkpt>
        <trkpt lat="29.571989" lon="103.401229"><ele>788.84973</ele><time>2026-05-29T00:08:28.000Z</time></trkpt>
        <trkpt lat="29.572036" lon="103.401254"><ele>785.4293</ele><time>2026-05-29T00:08:41.000Z</time></trkpt>
        <trkpt lat="29.572047" lon="103.401305"><ele>774.1888</ele><time>2026-05-29T00:09:52.000Z</time></trkpt>
        <trkpt lat="29.572061" lon="103.401362"><ele>770.30255</ele><time>2026-05-29T00:10:04.000Z</time></trkpt>
        <trkpt lat="29.572022" lon="103.401394"><ele>767.3057</ele><time>2026-05-29T00:10:13.000Z</time></trkpt>
        <trkpt lat="29.57204" lon="103.401455"><ele>766.8321</ele><time>2026-05-29T00:10:34.000Z</time></trkpt>
        <trkpt lat="29.572034" lon="103.401556"><ele>766.90924</ele><time>2026-05-29T00:11:04.000Z</time></trkpt>
        <trkpt lat="29.571991" lon="103.401586"><ele>768.88043</ele><time>2026-05-29T00:11:10.000Z</time></trkpt>
        <trkpt lat="29.571947" lon="103.401614"><ele>767.9798</ele><time>2026-05-29T00:11:15.000Z</time></trkpt>
        <trkpt lat="29.571904" lon="103.401651"><ele>767.4572</ele><time>2026-05-29T00:11:20.000Z</time></trkpt>
        <trkpt lat="29.571864" lon="103.40168"><ele>765.7723</ele><time>2026-05-29T00:11:27.000Z</time></trkpt>
        <trkpt lat="29.57184" lon="103.401725"><ele>765.6572</ele><time>2026-05-29T00:11:31.000Z</time></trkpt>
        <trkpt lat="29.571821" lon="103.401773"><ele>764.03705</ele><time>2026-05-29T00:11:39.000Z</time></trkpt>
        <trkpt lat="29.571789" lon="103.401819"><ele>762.17474</ele><time>2026-05-29T00:11:46.000Z</time></trkpt>
        <trkpt lat="29.57177" lon="103.40187"><ele>763.7376</ele><time>2026-05-29T00:11:53.000Z</time></trkpt>
        <trkpt lat="29.571719" lon="103.40187"><ele>762.85803</ele><time>2026-05-29T00:12:08.000Z</time></trkpt>
        <trkpt lat="29.571673" lon="103.401881"><ele>762.6112</ele><time>2026-05-29T00:12:13.000Z</time></trkpt>
        <trkpt lat="29.571635" lon="103.401916"><ele>762.6431</ele><time>2026-05-29T00:12:18.000Z</time></trkpt>
        <trkpt lat="29.57158" lon="103.401918"><ele>764.2078</ele><time>2026-05-29T00:12:23.000Z</time></trkpt>
        <trkpt lat="29.571537" lon="103.401951"><ele>765.6738</ele><time>2026-05-29T00:12:28.000Z</time></trkpt>
        <trkpt lat="29.571507" lon="103.402003"><ele>766.0682</ele><time>2026-05-29T00:12:31.000Z</time></trkpt>
        <trkpt lat="29.571463" lon="103.402031"><ele>763.8561</ele><time>2026-05-29T00:12:35.000Z</time></trkpt>
        <trkpt lat="29.571419" lon="103.402072"><ele>764.5761</ele><time>2026-05-29T00:12:39.000Z</time></trkpt>
        <trkpt lat="29.571386" lon="103.402119"><ele>764.1641</ele><time>2026-05-29T00:12:42.000Z</time></trkpt>
        <trkpt lat="29.571348" lon="103.402164"><ele>762.9317</ele><time>2026-05-29T00:12:47.000Z</time></trkpt>
        <trkpt lat="29.571327" lon="103.402216"><ele>763.79297</ele><time>2026-05-29T00:12:52.000Z</time></trkpt>
        <trkpt lat="29.571301" lon="103.402259"><ele>763.7982</ele><time>2026-05-29T00:12:56.000Z</time></trkpt>
        <trkpt lat="29.571258" lon="103.402304"><ele>762.9405</ele><time>2026-05-29T00:13:01.000Z</time></trkpt>
        <trkpt lat="29.571232" lon="103.402359"><ele>763.7146</ele><time>2026-05-29T00:13:05.000Z</time></trkpt>
        <trkpt lat="29.571209" lon="103.402412"><ele>764.9533</ele><time>2026-05-29T00:13:11.000Z</time></trkpt>
        <trkpt lat="29.571183" lon="103.402457"><ele>767.9591</ele><time>2026-05-29T00:13:22.000Z</time></trkpt>
        <trkpt lat="29.571146" lon="103.402493"><ele>771.4222</ele><time>2026-05-29T00:13:38.000Z</time></trkpt>
        <trkpt lat="29.571128" lon="103.402543"><ele>771.79016</ele><time>2026-05-29T00:13:44.000Z</time></trkpt>
        <trkpt lat="29.571074" lon="103.402559"><ele>770.91974</ele><time>2026-05-29T00:13:59.000Z</time></trkpt>
        <trkpt lat="29.571029" lon="103.402573"><ele>769.23755</ele><time>2026-05-29T00:14:04.000Z</time></trkpt>
        <trkpt lat="29.570995" lon="103.402618"><ele>768.7102</ele><time>2026-05-29T00:14:08.000Z</time></trkpt>
        <trkpt lat="29.570939" lon="103.402638"><ele>769.7136</ele><time>2026-05-29T00:14:13.000Z</time></trkpt>
        <trkpt lat="29.570893" lon="103.402663"><ele>771.21295</ele><time>2026-05-29T00:14:19.000Z</time></trkpt>
        <trkpt lat="29.570847" lon="103.402673"><ele>772.1504</ele><time>2026-05-29T00:14:29.000Z</time></trkpt>
        <trkpt lat="29.5708" lon="103.4027"><ele>774.27606</ele><time>2026-05-29T00:14:40.000Z</time></trkpt>
        <trkpt lat="29.570755" lon="103.402706"><ele>774.4429</ele><time>2026-05-29T00:14:44.000Z</time></trkpt>
        <trkpt lat="29.570706" lon="103.402717"><ele>774.8178</ele><time>2026-05-29T00:14:49.000Z</time></trkpt>
        <trkpt lat="29.57067" lon="103.402752"><ele>774.2995</ele><time>2026-05-29T00:14:54.000Z</time></trkpt>
        <trkpt lat="29.57063" lon="103.402778"><ele>773.26245</ele><time>2026-05-29T00:14:59.000Z</time></trkpt>
        <trkpt lat="29.570574" lon="103.402785"><ele>776.10693</ele><time>2026-05-29T00:15:04.000Z</time></trkpt>
        <trkpt lat="29.570519" lon="103.402799"><ele>775.8851</ele><time>2026-05-29T00:15:09.000Z</time></trkpt>
        <trkpt lat="29.570463" lon="103.4028"><ele>777.7112</ele><time>2026-05-29T00:15:14.000Z</time></trkpt>
        <trkpt lat="29.57042" lon="103.402825"><ele>781.27844</ele><time>2026-05-29T00:15:17.000Z</time></trkpt>
        <trkpt lat="29.570367" lon="103.402816"><ele>781.24994</ele><time>2026-05-29T00:15:26.000Z</time></trkpt>
        <trkpt lat="29.570307" lon="103.402816"><ele>783.08844</ele><time>2026-05-29T00:15:33.000Z</time></trkpt>
        <trkpt lat="29.570262" lon="103.402835"><ele>783.3479</ele><time>2026-05-29T00:15:37.000Z</time></trkpt>
        <trkpt lat="29.570205" lon="103.40286"><ele>783.95026</ele><time>2026-05-29T00:15:43.000Z</time></trkpt>
        <trkpt lat="29.570171" lon="103.402905"><ele>784.00336</ele><time>2026-05-29T00:15:48.000Z</time></trkpt>
        <trkpt lat="29.570116" lon="103.402918"><ele>783.1055</ele><time>2026-05-29T00:15:53.000Z</time></trkpt>
        <trkpt lat="29.570088" lon="103.402961"><ele>785.2952</ele><time>2026-05-29T00:15:57.000Z</time></trkpt>
        <trkpt lat="29.570049" lon="103.403011"><ele>784.8796</ele><time>2026-05-29T00:16:01.000Z</time></trkpt>
        <trkpt lat="29.570041" lon="103.403083"><ele>786.2392</ele><time>2026-05-29T00:16:04.000Z</time></trkpt>
        <trkpt lat="29.570022" lon="103.403145"><ele>783.00287</ele><time>2026-05-29T00:16:09.000Z</time></trkpt>
        <trkpt lat="29.570006" lon="103.403196"><ele>780.27216</ele><time>2026-05-29T00:16:15.000Z</time></trkpt>
        <trkpt lat="29.569988" lon="103.403254"><ele>780.717</ele><time>2026-05-29T00:16:21.000Z</time></trkpt>
        <trkpt lat="29.569968" lon="103.403312"><ele>780.47003</ele><time>2026-05-29T00:16:26.000Z</time></trkpt>
        <trkpt lat="29.569941" lon="103.403359"><ele>780.499</ele><time>2026-05-29T00:16:31.000Z</time></trkpt>
        <trkpt lat="29.569897" lon="103.403388"><ele>781.2694</ele><time>2026-05-29T00:16:36.000Z</time></trkpt>
        <trkpt lat="29.569858" lon="103.40343"><ele>782.0733</ele><time>2026-05-29T00:16:42.000Z</time></trkpt>
        <trkpt lat="29.569822" lon="103.403466"><ele>781.65674</ele><time>2026-05-29T00:16:47.000Z</time></trkpt>
        <trkpt lat="29.569799" lon="103.403516"><ele>781.87335</ele><time>2026-05-29T00:16:52.000Z</time></trkpt>
        <trkpt lat="29.56977" lon="103.403563"><ele>781.9188</ele><time>2026-05-29T00:16:57.000Z</time></trkpt>
        <trkpt lat="29.569739" lon="103.403607"><ele>782.02124</ele><time>2026-05-29T00:17:04.000Z</time></trkpt>
        <trkpt lat="29.569702" lon="103.403644"><ele>782.3912</ele><time>2026-05-29T00:17:10.000Z</time></trkpt>
        <trkpt lat="29.569653" lon="103.403669"><ele>781.3972</ele><time>2026-05-29T00:17:15.000Z</time></trkpt>
        <trkpt lat="29.569617" lon="103.403703"><ele>781.3683</ele><time>2026-05-29T00:17:21.000Z</time></trkpt>
        <trkpt lat="29.569579" lon="103.403737"><ele>780.42834</ele><time>2026-05-29T00:17:26.000Z</time></trkpt>
        <trkpt lat="29.56954" lon="103.403776"><ele>782.5057</ele><time>2026-05-29T00:17:31.000Z</time></trkpt>
        <trkpt lat="29.569487" lon="103.403797"><ele>783.12354</ele><time>2026-05-29T00:17:37.000Z</time></trkpt>
        <trkpt lat="29.569438" lon="103.403803"><ele>783.5412</ele><time>2026-05-29T00:17:41.000Z</time></trkpt>
        <trkpt lat="29.56939" lon="103.403816"><ele>786.0807</ele><time>2026-05-29T00:17:46.000Z</time></trkpt>
        <trkpt lat="29.569347" lon="103.403837"><ele>784.1791</ele><time>2026-05-29T00:17:51.000Z</time></trkpt>
        <trkpt lat="29.569308" lon="103.403872"><ele>784.815</ele><time>2026-05-29T00:17:55.000Z</time></trkpt>
        <trkpt lat="29.569261" lon="103.403897"><ele>785.5643</ele><time>2026-05-29T00:18:00.000Z</time></trkpt>
        <trkpt lat="29.569213" lon="103.403913"><ele>785.77045</ele><time>2026-05-29T00:18:05.000Z</time></trkpt>
        <trkpt lat="29.569168" lon="103.40394"><ele>786.1534</ele><time>2026-05-29T00:18:11.000Z</time></trkpt>
        <trkpt lat="29.569127" lon="103.403966"><ele>787.9505</ele><time>2026-05-29T00:18:18.000Z</time></trkpt>
        <trkpt lat="29.569079" lon="103.403971"><ele>789.46375</ele><time>2026-05-29T00:18:26.000Z</time></trkpt>
        <trkpt lat="29.569032" lon="103.403962"><ele>789.68823</ele><time>2026-05-29T00:18:31.000Z</time></trkpt>
        <trkpt lat="29.568986" lon="103.403943"><ele>791.7242</ele><time>2026-05-29T00:18:35.000Z</time></trkpt>
        <trkpt lat="29.568936" lon="103.403928"><ele>789.7109</ele><time>2026-05-29T00:18:39.000Z</time></trkpt>
        <trkpt lat="29.568887" lon="103.403939"><ele>791.54785</ele><time>2026-05-29T00:18:43.000Z</time></trkpt>
        <trkpt lat="29.568842" lon="103.403975"><ele>794.0049</ele><time>2026-05-29T00:18:48.000Z</time></trkpt>
        <trkpt lat="29.5688" lon="103.404011"><ele>795.67163</ele><time>2026-05-29T00:18:53.000Z</time></trkpt>
        <trkpt lat="29.568758" lon="103.404053"><ele>796.1094</ele><time>2026-05-29T00:18:59.000Z</time></trkpt>
        <trkpt lat="29.568724" lon="103.404099"><ele>795.45996</ele><time>2026-05-29T00:19:07.000Z</time></trkpt>
        <trkpt lat="29.568702" lon="103.404149"><ele>792.2075</ele><time>2026-05-29T00:19:12.000Z</time></trkpt>
        <trkpt lat="29.568663" lon="103.404178"><ele>788.3546</ele><time>2026-05-29T00:19:20.000Z</time></trkpt>
        <trkpt lat="29.568639" lon="103.40423"><ele>788.47546</ele><time>2026-05-29T00:19:26.000Z</time></trkpt>
        <trkpt lat="29.568626" lon="103.404282"><ele>791.1968</ele><time>2026-05-29T00:19:29.000Z</time></trkpt>
        <trkpt lat="29.568585" lon="103.40434"><ele>790.2117</ele><time>2026-05-29T00:19:35.000Z</time></trkpt>
        <trkpt lat="29.568568" lon="103.404391"><ele>792.1181</ele><time>2026-05-29T00:19:40.000Z</time></trkpt>
        <trkpt lat="29.56855" lon="103.404444"><ele>789.0188</ele><time>2026-05-29T00:19:48.000Z</time></trkpt>
        <trkpt lat="29.568514" lon="103.404476"><ele>789.1017</ele><time>2026-05-29T00:19:52.000Z</time></trkpt>
        <trkpt lat="29.568504" lon="103.404526"><ele>790.0823</ele><time>2026-05-29T00:19:56.000Z</time></trkpt>
        <trkpt lat="29.568483" lon="103.404573"><ele>791.66187</ele><time>2026-05-29T00:20:01.000Z</time></trkpt>
        <trkpt lat="29.568466" lon="103.404624"><ele>790.89276</ele><time>2026-05-29T00:20:06.000Z</time></trkpt>
        <trkpt lat="29.568426" lon="103.404674"><ele>791.482</ele><time>2026-05-29T00:20:10.000Z</time></trkpt>
        <trkpt lat="29.568394" lon="103.404721"><ele>792.4046</ele><time>2026-05-29T00:20:14.000Z</time></trkpt>
        <trkpt lat="29.568359" lon="103.404766"><ele>795.1763</ele><time>2026-05-29T00:20:19.000Z</time></trkpt>
        <trkpt lat="29.568323" lon="103.404808"><ele>796.7126</ele><time>2026-05-29T00:20:24.000Z</time></trkpt>
        <trkpt lat="29.56828" lon="103.404832"><ele>795.1137</ele><time>2026-05-29T00:20:30.000Z</time></trkpt>
        <trkpt lat="29.568236" lon="103.404849"><ele>794.67645</ele><time>2026-05-29T00:20:35.000Z</time></trkpt>
        <trkpt lat="29.568186" lon="103.40486"><ele>794.7563</ele><time>2026-05-29T00:20:40.000Z</time></trkpt>
        <trkpt lat="29.568145" lon="103.404884"><ele>794.9478</ele><time>2026-05-29T00:20:45.000Z</time></trkpt>
        <trkpt lat="29.568101" lon="103.404919"><ele>796.63196</ele><time>2026-05-29T00:20:50.000Z</time></trkpt>
        <trkpt lat="29.568051" lon="103.404954"><ele>795.99817</ele><time>2026-05-29T00:20:56.000Z</time></trkpt>
        <trkpt lat="29.568012" lon="103.404992"><ele>796.18475</ele><time>2026-05-29T00:21:01.000Z</time></trkpt>
        <trkpt lat="29.567962" lon="103.405013"><ele>796.6319</ele><time>2026-05-29T00:21:06.000Z</time></trkpt>
        <trkpt lat="29.567917" lon="103.405046"><ele>797.26904</ele><time>2026-05-29T00:21:11.000Z</time></trkpt>
        <trkpt lat="29.567873" lon="103.405074"><ele>796.05084</ele><time>2026-05-29T00:21:17.000Z</time></trkpt>
        <trkpt lat="29.567825" lon="103.405092"><ele>797.93445</ele><time>2026-05-29T00:21:22.000Z</time></trkpt>
        <trkpt lat="29.567773" lon="103.405084"><ele>798.42426</ele><time>2026-05-29T00:21:27.000Z</time></trkpt>
        <trkpt lat="29.567721" lon="103.405088"><ele>799.16156</ele><time>2026-05-29T00:21:32.000Z</time></trkpt>
        <trkpt lat="29.567673" lon="103.405086"><ele>801.001</ele><time>2026-05-29T00:21:37.000Z</time></trkpt>
        <trkpt lat="29.567617" lon="103.405087"><ele>801.4669</ele><time>2026-05-29T00:21:44.000Z</time></trkpt>
        <trkpt lat="29.567579" lon="103.405059"><ele>801.13934</ele><time>2026-05-29T00:21:48.000Z</time></trkpt>
        <trkpt lat="29.567527" lon="103.405057"><ele>802.93634</ele><time>2026-05-29T00:21:53.000Z</time></trkpt>
        <trkpt lat="29.567478" lon="103.405055"><ele>803.0247</ele><time>2026-05-29T00:21:57.000Z</time></trkpt>
        <trkpt lat="29.567428" lon="103.405075"><ele>803.5887</ele><time>2026-05-29T00:22:02.000Z</time></trkpt>
        <trkpt lat="29.567367" lon="103.405074"><ele>805.3763</ele><time>2026-05-29T00:22:07.000Z</time></trkpt>
        <trkpt lat="29.567317" lon="103.405065"><ele>804.8805</ele><time>2026-05-29T00:22:11.000Z</time></trkpt>
        <trkpt lat="29.567285" lon="103.405107"><ele>806.7382</ele><time>2026-05-29T00:22:17.000Z</time></trkpt>
        <trkpt lat="29.567235" lon="103.405142"><ele>807.7347</ele><time>2026-05-29T00:22:23.000Z</time></trkpt>
        <trkpt lat="29.567188" lon="103.405155"><ele>808.00476</ele><time>2026-05-29T00:22:29.000Z</time></trkpt>
        <trkpt lat="29.567139" lon="103.405178"><ele>808.3858</ele><time>2026-05-29T00:22:34.000Z</time></trkpt>
        <trkpt lat="29.567084" lon="103.405181"><ele>808.4133</ele><time>2026-05-29T00:22:38.000Z</time></trkpt>
        <trkpt lat="29.567038" lon="103.405181"><ele>806.5542</ele><time>2026-05-29T00:22:42.000Z</time></trkpt>
        <trkpt lat="29.566987" lon="103.405181"><ele>806.6232</ele><time>2026-05-29T00:22:48.000Z</time></trkpt>
        <trkpt lat="29.566945" lon="103.405163"><ele>805.9769</ele><time>2026-05-29T00:22:51.000Z</time></trkpt>
        <trkpt lat="29.566895" lon="103.405147"><ele>804.7829</ele><time>2026-05-29T00:22:55.000Z</time></trkpt>
        <trkpt lat="29.566843" lon="103.405146"><ele>805.29926</ele><time>2026-05-29T00:23:00.000Z</time></trkpt>
        <trkpt lat="29.566819" lon="103.405198"><ele>807.17474</ele><time>2026-05-29T00:23:04.000Z</time></trkpt>
        <trkpt lat="29.56679" lon="103.405271"><ele>806.41766</ele><time>2026-05-29T00:23:08.000Z</time></trkpt>
        <trkpt lat="29.566789" lon="103.405327"><ele>804.2652</ele><time>2026-05-29T00:23:14.000Z</time></trkpt>
        <trkpt lat="29.566803" lon="103.405384"><ele>807.581</ele><time>2026-05-29T00:23:22.000Z</time></trkpt>
        <trkpt lat="29.566825" lon="103.405432"><ele>809.30304</ele><time>2026-05-29T00:23:25.000Z</time></trkpt>
        <trkpt lat="29.566847" lon="103.405481"><ele>809.06714</ele><time>2026-05-29T00:23:29.000Z</time></trkpt>
        <trkpt lat="29.566889" lon="103.405511"><ele>807.6516</ele><time>2026-05-29T00:23:33.000Z</time></trkpt>
        <trkpt lat="29.566934" lon="103.405552"><ele>807.941</ele><time>2026-05-29T00:23:38.000Z</time></trkpt>
        <trkpt lat="29.566963" lon="103.405592"><ele>808.1028</ele><time>2026-05-29T00:23:42.000Z</time></trkpt>
        <trkpt lat="29.566989" lon="103.40564"><ele>804.9301</ele><time>2026-05-29T00:23:46.000Z</time></trkpt>
        <trkpt lat="29.567014" lon="103.405692"><ele>801.0945</ele><time>2026-05-29T00:23:51.000Z</time></trkpt>
        <trkpt lat="29.567042" lon="103.405742"><ele>799.96967</ele><time>2026-05-29T00:23:56.000Z</time></trkpt>
        <trkpt lat="29.56709" lon="103.405768"><ele>801.27515</ele><time>2026-05-29T00:24:01.000Z</time></trkpt>
        <trkpt lat="29.567121" lon="103.405813"><ele>802.55884</ele><time>2026-05-29T00:24:06.000Z</time></trkpt>
        <trkpt lat="29.567145" lon="103.405858"><ele>802.89307</ele><time>2026-05-29T00:24:11.000Z</time></trkpt>
        <trkpt lat="29.567161" lon="103.405914"><ele>802.656</ele><time>2026-05-29T00:24:17.000Z</time></trkpt>
        <trkpt lat="29.567185" lon="103.40596"><ele>804.3859</ele><time>2026-05-29T00:24:25.000Z</time></trkpt>
        <trkpt lat="29.567164" lon="103.406012"><ele>803.80475</ele><time>2026-05-29T00:24:31.000Z</time></trkpt>
        <trkpt lat="29.567131" lon="103.406059"><ele>804.0007</ele><time>2026-05-29T00:24:38.000Z</time></trkpt>
        <trkpt lat="29.567105" lon="103.406105"><ele>806.50446</ele><time>2026-05-29T00:24:44.000Z</time></trkpt>
        <trkpt lat="29.567075" lon="103.40615"><ele>807.0911</ele><time>2026-05-29T00:24:50.000Z</time></trkpt>
        <trkpt lat="29.567037" lon="103.406185"><ele>809.2098</ele><time>2026-05-29T00:24:55.000Z</time></trkpt>
        <trkpt lat="29.567005" lon="103.406226"><ele>809.76276</ele><time>2026-05-29T00:25:01.000Z</time></trkpt>
        <trkpt lat="29.566973" lon="103.40627"><ele>809.9532</ele><time>2026-05-29T00:25:06.000Z</time></trkpt>
        <trkpt lat="29.566939" lon="103.406306"><ele>808.9301</ele><time>2026-05-29T00:25:11.000Z</time></trkpt>
        <trkpt lat="29.566917" lon="103.406357"><ele>810.38385</ele><time>2026-05-29T00:25:15.000Z</time></trkpt>
        <trkpt lat="29.566891" lon="103.406406"><ele>810.6854</ele><time>2026-05-29T00:25:20.000Z</time></trkpt>
        <trkpt lat="29.566854" lon="103.406451"><ele>810.4431</ele><time>2026-05-29T00:25:25.000Z</time></trkpt>
        <trkpt lat="29.566817" lon="103.406493"><ele>810.41174</ele><time>2026-05-29T00:25:31.000Z</time></trkpt>
        <trkpt lat="29.566774" lon="103.406514"><ele>812.6391</ele><time>2026-05-29T00:25:37.000Z</time></trkpt>
        <trkpt lat="29.566719" lon="103.40653"><ele>813.48737</ele><time>2026-05-29T00:25:44.000Z</time></trkpt>
        <trkpt lat="29.56669" lon="103.40659"><ele>812.1384</ele><time>2026-05-29T00:25:51.000Z</time></trkpt>
        <trkpt lat="29.566664" lon="103.406634"><ele>812.9974</ele><time>2026-05-29T00:25:56.000Z</time></trkpt>
        <trkpt lat="29.56665" lon="103.406686"><ele>811.7296</ele><time>2026-05-29T00:26:01.000Z</time></trkpt>
        <trkpt lat="29.566612" lon="103.406717"><ele>812.7778</ele><time>2026-05-29T00:26:07.000Z</time></trkpt>
        <trkpt lat="29.566582" lon="103.406763"><ele>815.01434</ele><time>2026-05-29T00:26:12.000Z</time></trkpt>
        <trkpt lat="29.566546" lon="103.406801"><ele>815.06305</ele><time>2026-05-29T00:26:16.000Z</time></trkpt>
        <trkpt lat="29.566516" lon="103.406847"><ele>814.625</ele><time>2026-05-29T00:26:21.000Z</time></trkpt>
        <trkpt lat="29.566497" lon="103.406902"><ele>815.13513</ele><time>2026-05-29T00:26:25.000Z</time></trkpt>
        <trkpt lat="29.566465" lon="103.406941"><ele>814.3836</ele><time>2026-05-29T00:26:30.000Z</time></trkpt>
        <trkpt lat="29.566453" lon="103.406992"><ele>814.4221</ele><time>2026-05-29T00:26:37.000Z</time></trkpt>
        <trkpt lat="29.566459" lon="103.407049"><ele>813.63934</ele><time>2026-05-29T00:26:41.000Z</time></trkpt>
        <trkpt lat="29.566464" lon="103.407103"><ele>813.8713</ele><time>2026-05-29T00:26:45.000Z</time></trkpt>
        <trkpt lat="29.56648" lon="103.407161"><ele>815.15924</ele><time>2026-05-29T00:26:50.000Z</time></trkpt>
        <trkpt lat="29.566491" lon="103.407213"><ele>815.0839</ele><time>2026-05-29T00:26:55.000Z</time></trkpt>
        <trkpt lat="29.566502" lon="103.407273"><ele>815.9269</ele><time>2026-05-29T00:27:01.000Z</time></trkpt>
        <trkpt lat="29.566508" lon="103.407326"><ele>815.6399</ele><time>2026-05-29T00:27:09.000Z</time></trkpt>
        <trkpt lat="29.566517" lon="103.407378"><ele>814.507</ele><time>2026-05-29T00:27:16.000Z</time></trkpt>
        <trkpt lat="29.566526" lon="103.407434"><ele>813.88275</ele><time>2026-05-29T00:27:21.000Z</time></trkpt>
        <trkpt lat="29.566542" lon="103.4075"><ele>813.2262</ele><time>2026-05-29T00:27:25.000Z</time></trkpt>
        <trkpt lat="29.566563" lon="103.40756"><ele>813.16724</ele><time>2026-05-29T00:27:30.000Z</time></trkpt>
        <trkpt lat="29.566581" lon="103.407612"><ele>811.2028</ele><time>2026-05-29T00:27:35.000Z</time></trkpt>
        <trkpt lat="29.566597" lon="103.407669"><ele>812.76215</ele><time>2026-05-29T00:27:40.000Z</time></trkpt>
        <trkpt lat="29.566616" lon="103.407718"><ele>812.2197</ele><time>2026-05-29T00:27:44.000Z</time></trkpt>
        <trkpt lat="29.566635" lon="103.407771"><ele>812.10657</ele><time>2026-05-29T00:27:49.000Z</time></trkpt>
        <trkpt lat="29.566641" lon="103.407828"><ele>811.9315</ele><time>2026-05-29T00:27:56.000Z</time></trkpt>
        <trkpt lat="29.566611" lon="103.407874"><ele>815.0046</ele><time>2026-05-29T00:28:06.000Z</time></trkpt>
        <trkpt lat="29.566665" lon="103.407907"><ele>815.824</ele><time>2026-05-29T00:28:33.000Z</time></trkpt>
        <trkpt lat="29.566685" lon="103.407964"><ele>815.58777</ele><time>2026-05-29T00:28:37.000Z</time></trkpt>
        <trkpt lat="29.566707" lon="103.408017"><ele>815.7838</ele><time>2026-05-29T00:28:41.000Z</time></trkpt>
        <trkpt lat="29.56674" lon="103.408072"><ele>815.09894</ele><time>2026-05-29T00:28:45.000Z</time></trkpt>
        <trkpt lat="29.566747" lon="103.408134"><ele>814.0063</ele><time>2026-05-29T00:28:51.000Z</time></trkpt>
        <trkpt lat="29.566739" lon="103.408194"><ele>812.696</ele><time>2026-05-29T00:28:56.000Z</time></trkpt>
        <trkpt lat="29.56673" lon="103.408249"><ele>813.5441</ele><time>2026-05-29T00:29:00.000Z</time></trkpt>
        <trkpt lat="29.566722" lon="103.408316"><ele>813.9997</ele><time>2026-05-29T00:29:04.000Z</time></trkpt>
        <trkpt lat="29.566724" lon="103.408379"><ele>814.17896</ele><time>2026-05-29T00:29:08.000Z</time></trkpt>
        <trkpt lat="29.566738" lon="103.408439"><ele>813.5833</ele><time>2026-05-29T00:29:12.000Z</time></trkpt>
        <trkpt lat="29.56676" lon="103.408487"><ele>814.6133</ele><time>2026-05-29T00:29:16.000Z</time></trkpt>
        <trkpt lat="29.566807" lon="103.40851"><ele>814.7967</ele><time>2026-05-29T00:29:20.000Z</time></trkpt>
        <trkpt lat="29.566867" lon="103.408511"><ele>816.0593</ele><time>2026-05-29T00:29:26.000Z</time></trkpt>
        <trkpt lat="29.56692" lon="103.408503"><ele>816.7654</ele><time>2026-05-29T00:29:33.000Z</time></trkpt>
        <trkpt lat="29.566972" lon="103.408512"><ele>818.80524</ele><time>2026-05-29T00:29:38.000Z</time></trkpt>
        <trkpt lat="29.567027" lon="103.408532"><ele>818.44147</ele><time>2026-05-29T00:29:43.000Z</time></trkpt>
        <trkpt lat="29.567081" lon="103.408528"><ele>817.6478</ele><time>2026-05-29T00:29:47.000Z</time></trkpt>
        <trkpt lat="29.567138" lon="103.408532"><ele>819.5192</ele><time>2026-05-29T00:29:52.000Z</time></trkpt>
        <trkpt lat="29.567187" lon="103.408533"><ele>819.40576</ele><time>2026-05-29T00:29:56.000Z</time></trkpt>
        <trkpt lat="29.567229" lon="103.408557"><ele>815.68365</ele><time>2026-05-29T00:30:13.000Z</time></trkpt>
        <trkpt lat="29.567277" lon="103.408571"><ele>816.46063</ele><time>2026-05-29T00:30:18.000Z</time></trkpt>
        <trkpt lat="29.567318" lon="103.408597"><ele>817.18134</ele><time>2026-05-29T00:30:22.000Z</time></trkpt>
        <trkpt lat="29.56736" lon="103.408634"><ele>818.64923</ele><time>2026-05-29T00:30:26.000Z</time></trkpt>
        <trkpt lat="29.56741" lon="103.408656"><ele>818.8546</ele><time>2026-05-29T00:30:30.000Z</time></trkpt>
        <trkpt lat="29.567453" lon="103.40869"><ele>819.1666</ele><time>2026-05-29T00:30:35.000Z</time></trkpt>
        <trkpt lat="29.567498" lon="103.408698"><ele>819.8455</ele><time>2026-05-29T00:30:39.000Z</time></trkpt>
        <trkpt lat="29.567547" lon="103.408705"><ele>820.818</ele><time>2026-05-29T00:30:43.000Z</time></trkpt>
        <trkpt lat="29.567591" lon="103.408723"><ele>822.68304</ele><time>2026-05-29T00:30:48.000Z</time></trkpt>
        <trkpt lat="29.567627" lon="103.408681"><ele>823.75555</ele><time>2026-05-29T00:30:53.000Z</time></trkpt>
        <trkpt lat="29.567639" lon="103.408624"><ele>823.4778</ele><time>2026-05-29T00:30:59.000Z</time></trkpt>
        <trkpt lat="29.567663" lon="103.408576"><ele>822.2435</ele><time>2026-05-29T00:31:04.000Z</time></trkpt>
        <trkpt lat="29.567682" lon="103.408522"><ele>822.63947</ele><time>2026-05-29T00:31:09.000Z</time></trkpt>
        <trkpt lat="29.56769" lon="103.40847"><ele>821.4317</ele><time>2026-05-29T00:31:14.000Z</time></trkpt>
        <trkpt lat="29.567718" lon="103.408511"><ele>822.40564</ele><time>2026-05-29T00:31:27.000Z</time></trkpt>
        <trkpt lat="29.567763" lon="103.40853"><ele>825.31226</ele><time>2026-05-29T00:31:37.000Z</time></trkpt>
        <trkpt lat="29.567803" lon="103.408559"><ele>826.0637</ele><time>2026-05-29T00:31:45.000Z</time></trkpt>
        <trkpt lat="29.567828" lon="103.408604"><ele>829.2222</ele><time>2026-05-29T00:31:54.000Z</time></trkpt>
        <trkpt lat="29.567865" lon="103.408648"><ele>829.7673</ele><time>2026-05-29T00:32:04.000Z</time></trkpt>
        <trkpt lat="29.56789" lon="103.408692"><ele>829.4567</ele><time>2026-05-29T00:32:08.000Z</time></trkpt>
        <trkpt lat="29.567922" lon="103.408736"><ele>828.28754</ele><time>2026-05-29T00:32:14.000Z</time></trkpt>
        <trkpt lat="29.567915" lon="103.408797"><ele>828.54706</ele><time>2026-05-29T00:32:25.000Z</time></trkpt>
        <trkpt lat="29.567939" lon="103.408842"><ele>830.3633</ele><time>2026-05-29T00:32:30.000Z</time></trkpt>
        <trkpt lat="29.56795" lon="103.408898"><ele>831.37744</ele><time>2026-05-29T00:32:39.000Z</time></trkpt>
        <trkpt lat="29.567971" lon="103.408958"><ele>832.5893</ele><time>2026-05-29T00:32:51.000Z</time></trkpt>
        <trkpt lat="29.567991" lon="103.409011"><ele>835.0136</ele><time>2026-05-29T00:32:58.000Z</time></trkpt>
        <trkpt lat="29.568014" lon="103.40906"><ele>843.3362</ele><time>2026-05-29T00:33:14.000Z</time></trkpt>
        <trkpt lat="29.56805" lon="103.409109"><ele>847.7449</ele><time>2026-05-29T00:33:35.000Z</time></trkpt>
        <trkpt lat="29.568048" lon="103.409161"><ele>846.58167</ele><time>2026-05-29T00:33:44.000Z</time></trkpt>
        <trkpt lat="29.56807" lon="103.409209"><ele>847.6249</ele><time>2026-05-29T00:33:57.000Z</time></trkpt>
        <trkpt lat="29.568092" lon="103.409256"><ele>850.2366</ele><time>2026-05-29T00:34:11.000Z</time></trkpt>
        <trkpt lat="29.568115" lon="103.409306"><ele>851.4971</ele><time>2026-05-29T00:34:22.000Z</time></trkpt>
        <trkpt lat="29.568142" lon="103.409353"><ele>852.5676</ele><time>2026-05-29T00:34:34.000Z</time></trkpt>
        <trkpt lat="29.568172" lon="103.409397"><ele>851.0207</ele><time>2026-05-29T00:34:43.000Z</time></trkpt>
        <trkpt lat="29.5682" lon="103.409441"><ele>853.56757</ele><time>2026-05-29T00:34:57.000Z</time></trkpt>
        <trkpt lat="29.568224" lon="103.409496"><ele>854.2377</ele><time>2026-05-29T00:35:12.000Z</time></trkpt>
        <trkpt lat="29.568222" lon="103.409552"><ele>860.43243</ele><time>2026-05-29T00:35:31.000Z</time></trkpt>
        <trkpt lat="29.568257" lon="103.409593"><ele>859.76355</ele><time>2026-05-29T00:35:41.000Z</time></trkpt>
        <trkpt lat="29.568282" lon="103.409645"><ele>861.39215</ele><time>2026-05-29T00:35:50.000Z</time></trkpt>
        <trkpt lat="29.568298" lon="103.409711"><ele>867.6587</ele><time>2026-05-29T00:36:07.000Z</time></trkpt>
        <trkpt lat="29.568328" lon="103.40976"><ele>865.21375</ele><time>2026-05-29T00:36:16.000Z</time></trkpt>
        <trkpt lat="29.568338" lon="103.409819"><ele>869.3761</ele><time>2026-05-29T00:36:22.000Z</time></trkpt>
        <trkpt lat="29.568362" lon="103.409866"><ele>871.8287</ele><time>2026-05-29T00:36:29.000Z</time></trkpt>
        <trkpt lat="29.568371" lon="103.409925"><ele>868.59564</ele><time>2026-05-29T00:36:37.000Z</time></trkpt>
        <trkpt lat="29.568357" lon="103.409988"><ele>864.60876</ele><time>2026-05-29T00:36:47.000Z</time></trkpt>
        <trkpt lat="29.568328" lon="103.410039"><ele>869.24414</ele><time>2026-05-29T00:37:10.000Z</time></trkpt>
        <trkpt lat="29.568285" lon="103.410076"><ele>869.33997</ele><time>2026-05-29T00:37:13.000Z</time></trkpt>
        <trkpt lat="29.568336" lon="103.41008"><ele>867.99896</ele><time>2026-05-29T00:37:34.000Z</time></trkpt>
        <trkpt lat="29.568344" lon="103.410022"><ele>867.9321</ele><time>2026-05-29T00:37:38.000Z</time></trkpt>
        <trkpt lat="29.568552" lon="103.410032"><ele>872.24634</ele><time>2026-05-29T00:44:08.000Z</time></trkpt>
        <trkpt lat="29.568591" lon="103.410069"><ele>873.86755</ele><time>2026-05-29T00:44:14.000Z</time></trkpt>
        <trkpt lat="29.568632" lon="103.410098"><ele>871.84766</ele><time>2026-05-29T00:44:18.000Z</time></trkpt>
        <trkpt lat="29.56867" lon="103.410133"><ele>869.17554</ele><time>2026-05-29T00:44:38.000Z</time></trkpt>
        <trkpt lat="29.568683" lon="103.410193"><ele>870.2134</ele><time>2026-05-29T00:44:42.000Z</time></trkpt>
        <trkpt lat="29.568675" lon="103.410252"><ele>871.518</ele><time>2026-05-29T00:44:47.000Z</time></trkpt>
        <trkpt lat="29.568673" lon="103.410306"><ele>871.74713</ele><time>2026-05-29T00:44:53.000Z</time></trkpt>
        <trkpt lat="29.568685" lon="103.410364"><ele>871.9783</ele><time>2026-05-29T00:44:58.000Z</time></trkpt>
        <trkpt lat="29.568694" lon="103.410421"><ele>871.28766</ele><time>2026-05-29T00:45:02.000Z</time></trkpt>
        <trkpt lat="29.568696" lon="103.410481"><ele>871.1888</ele><time>2026-05-29T00:45:07.000Z</time></trkpt>
        <trkpt lat="29.568697" lon="103.410541"><ele>871.13165</ele><time>2026-05-29T00:45:11.000Z</time></trkpt>
        <trkpt lat="29.568686" lon="103.410594"><ele>871.4192</ele><time>2026-05-29T00:45:16.000Z</time></trkpt>
        <trkpt lat="29.568659" lon="103.410644"><ele>873.351</ele><time>2026-05-29T00:45:21.000Z</time></trkpt>
        <trkpt lat="29.568632" lon="103.410686"><ele>873.8039</ele><time>2026-05-29T00:45:26.000Z</time></trkpt>
        <trkpt lat="29.568609" lon="103.410737"><ele>876.644</ele><time>2026-05-29T00:45:30.000Z</time></trkpt>
        <trkpt lat="29.568603" lon="103.410791"><ele>877.8188</ele><time>2026-05-29T00:45:35.000Z</time></trkpt>
        <trkpt lat="29.568574" lon="103.410845"><ele>875.54224</ele><time>2026-05-29T00:45:39.000Z</time></trkpt>
        <trkpt lat="29.56858" lon="103.410897"><ele>876.2881</ele><time>2026-05-29T00:45:44.000Z</time></trkpt>
        <trkpt lat="29.568553" lon="103.410956"><ele>875.6252</ele><time>2026-05-29T00:45:50.000Z</time></trkpt>
        <trkpt lat="29.568537" lon="103.411011"><ele>875.8409</ele><time>2026-05-29T00:45:56.000Z</time></trkpt>
        <trkpt lat="29.568525" lon="103.411062"><ele>876.9652</ele><time>2026-05-29T00:46:01.000Z</time></trkpt>
        <trkpt lat="29.568516" lon="103.411118"><ele>877.66504</ele><time>2026-05-29T00:46:06.000Z</time></trkpt>
        <trkpt lat="29.568509" lon="103.411177"><ele>876.1426</ele><time>2026-05-29T00:46:10.000Z</time></trkpt>
        <trkpt lat="29.568499" lon="103.411237"><ele>876.0998</ele><time>2026-05-29T00:46:15.000Z</time></trkpt>
        <trkpt lat="29.568492" lon="103.411297"><ele>876.8835</ele><time>2026-05-29T00:46:21.000Z</time></trkpt>
        <trkpt lat="29.568458" lon="103.41135"><ele>877.5561</ele><time>2026-05-29T00:46:27.000Z</time></trkpt>
        <trkpt lat="29.568443" lon="103.411405"><ele>877.76294</ele><time>2026-05-29T00:46:33.000Z</time></trkpt>
        <trkpt lat="29.568423" lon="103.411466"><ele>878.87604</ele><time>2026-05-29T00:46:37.000Z</time></trkpt>
        <trkpt lat="29.568402" lon="103.411513"><ele>884.68616</ele><time>2026-05-29T00:46:42.000Z</time></trkpt>
        <trkpt lat="29.568414" lon="103.411577"><ele>883.11523</ele><time>2026-05-29T00:46:50.000Z</time></trkpt>
        <trkpt lat="29.568452" lon="103.411608"><ele>883.59393</ele><time>2026-05-29T00:46:55.000Z</time></trkpt>
        <trkpt lat="29.568491" lon="103.41164"><ele>883.943</ele><time>2026-05-29T00:47:00.000Z</time></trkpt>
        <trkpt lat="29.568516" lon="103.411683"><ele>884.5152</ele><time>2026-05-29T00:47:04.000Z</time></trkpt>
        <trkpt lat="29.568529" lon="103.411734"><ele>881.1977</ele><time>2026-05-29T00:47:08.000Z</time></trkpt>
        <trkpt lat="29.568543" lon="103.411786"><ele>883.53406</ele><time>2026-05-29T00:47:11.000Z</time></trkpt>
        <trkpt lat="29.568582" lon="103.411813"><ele>893.4666</ele><time>2026-05-29T00:47:20.000Z</time></trkpt>
        <trkpt lat="29.568618" lon="103.411851"><ele>891.99225</ele><time>2026-05-29T00:47:25.000Z</time></trkpt>
        <trkpt lat="29.568671" lon="103.411855"><ele>896.74524</ele><time>2026-05-29T00:47:34.000Z</time></trkpt>
        <trkpt lat="29.568718" lon="103.411864"><ele>893.5073</ele><time>2026-05-29T00:47:38.000Z</time></trkpt>
        <trkpt lat="29.568755" lon="103.411899"><ele>890.9171</ele><time>2026-05-29T00:47:43.000Z</time></trkpt>
        <trkpt lat="29.568801" lon="103.411901"><ele>892.86066</ele><time>2026-05-29T00:47:52.000Z</time></trkpt>
        <trkpt lat="29.568851" lon="103.411909"><ele>891.0712</ele><time>2026-05-29T00:47:56.000Z</time></trkpt>
        <trkpt lat="29.568892" lon="103.411944"><ele>890.75183</ele><time>2026-05-29T00:48:03.000Z</time></trkpt>
        <trkpt lat="29.56892" lon="103.411997"><ele>890.45746</ele><time>2026-05-29T00:48:07.000Z</time></trkpt>
        <trkpt lat="29.568965" lon="103.412035"><ele>890.09955</ele><time>2026-05-29T00:48:13.000Z</time></trkpt>
        <trkpt lat="29.568988" lon="103.412088"><ele>892.18036</ele><time>2026-05-29T00:48:24.000Z</time></trkpt>
        <trkpt lat="29.569029" lon="103.412121"><ele>900.0403</ele><time>2026-05-29T00:48:31.000Z</time></trkpt>
        <trkpt lat="29.569069" lon="103.412148"><ele>898.14435</ele><time>2026-05-29T00:48:35.000Z</time></trkpt>
        <trkpt lat="29.569099" lon="103.412191"><ele>890.7654</ele><time>2026-05-29T00:48:40.000Z</time></trkpt>
        <trkpt lat="29.569143" lon="103.412209"><ele>895.99</ele><time>2026-05-29T00:48:48.000Z</time></trkpt>
        <trkpt lat="29.569187" lon="103.412227"><ele>896.03674</ele><time>2026-05-29T00:48:52.000Z</time></trkpt>
        <trkpt lat="29.569234" lon="103.412231"><ele>901.4504</ele><time>2026-05-29T00:49:08.000Z</time></trkpt>
        <trkpt lat="29.569283" lon="103.412222"><ele>905.6552</ele><time>2026-05-29T00:49:19.000Z</time></trkpt>
        <trkpt lat="29.569325" lon="103.412243"><ele>901.2418</ele><time>2026-05-29T00:49:28.000Z</time></trkpt>
        <trkpt lat="29.569364" lon="103.412274"><ele>907.70465</ele><time>2026-05-29T00:49:55.000Z</time></trkpt>
        <trkpt lat="29.569372" lon="103.412337"><ele>908.53125</ele><time>2026-05-29T00:50:04.000Z</time></trkpt>
        <trkpt lat="29.569385" lon="103.412388"><ele>913.03577</ele><time>2026-05-29T00:50:15.000Z</time></trkpt>
        <trkpt lat="29.569392" lon="103.412441"><ele>908.5942</ele><time>2026-05-29T00:50:19.000Z</time></trkpt>
        <trkpt lat="29.569392" lon="103.412498"><ele>908.3176</ele><time>2026-05-29T00:50:26.000Z</time></trkpt>
        <trkpt lat="29.569375" lon="103.412552"><ele>910.0826</ele><time>2026-05-29T00:50:32.000Z</time></trkpt>
        <trkpt lat="29.569384" lon="103.412607"><ele>911.7544</ele><time>2026-05-29T00:50:36.000Z</time></trkpt>
        <trkpt lat="29.569402" lon="103.412668"><ele>913.0682</ele><time>2026-05-29T00:50:41.000Z</time></trkpt>
        <trkpt lat="29.569434" lon="103.412711"><ele>911.7144</ele><time>2026-05-29T00:50:47.000Z</time></trkpt>
        <trkpt lat="29.569409" lon="103.41276"><ele>911.6659</ele><time>2026-05-29T00:50:53.000Z</time></trkpt>
        <trkpt lat="29.56937" lon="103.412787"><ele>912.1458</ele><time>2026-05-29T00:50:57.000Z</time></trkpt>
        <trkpt lat="29.569322" lon="103.412812"><ele>911.1645</ele><time>2026-05-29T00:51:03.000Z</time></trkpt>
        <trkpt lat="29.569281" lon="103.412836"><ele>911.6191</ele><time>2026-05-29T00:51:08.000Z</time></trkpt>
        <trkpt lat="29.569233" lon="103.41287"><ele>911.2634</ele><time>2026-05-29T00:51:13.000Z</time></trkpt>
        <trkpt lat="29.569197" lon="103.412901"><ele>910.65826</ele><time>2026-05-29T00:51:20.000Z</time></trkpt>
        <trkpt lat="29.569172" lon="103.412954"><ele>910.4367</ele><time>2026-05-29T00:51:26.000Z</time></trkpt>
        <trkpt lat="29.569146" lon="103.412997"><ele>909.7422</ele><time>2026-05-29T00:51:33.000Z</time></trkpt>
        <trkpt lat="29.569106" lon="103.413022"><ele>908.0959</ele><time>2026-05-29T00:51:38.000Z</time></trkpt>
        <trkpt lat="29.569068" lon="103.413063"><ele>910.8914</ele><time>2026-05-29T00:51:43.000Z</time></trkpt>
        <trkpt lat="29.569052" lon="103.413116"><ele>914.1947</ele><time>2026-05-29T00:51:49.000Z</time></trkpt>
        <trkpt lat="29.569076" lon="103.413163"><ele>916.0405</ele><time>2026-05-29T00:51:55.000Z</time></trkpt>
        <trkpt lat="29.569063" lon="103.413222"><ele>917.49884</ele><time>2026-05-29T00:52:02.000Z</time></trkpt>
        <trkpt lat="29.569085" lon="103.413273"><ele>917.3922</ele><time>2026-05-29T00:52:08.000Z</time></trkpt>
        <trkpt lat="29.569052" lon="103.41332"><ele>916.19116</ele><time>2026-05-29T00:52:13.000Z</time></trkpt>
        <trkpt lat="29.569058" lon="103.413373"><ele>917.4344</ele><time>2026-05-29T00:52:19.000Z</time></trkpt>
        <trkpt lat="29.569052" lon="103.41343"><ele>918.4718</ele><time>2026-05-29T00:52:28.000Z</time></trkpt>
        <trkpt lat="29.569029" lon="103.413475"><ele>915.28296</ele><time>2026-05-29T00:52:36.000Z</time></trkpt>
        <trkpt lat="29.569036" lon="103.413529"><ele>920.66895</ele><time>2026-05-29T00:52:42.000Z</time></trkpt>
        <trkpt lat="29.569055" lon="103.413585"><ele>921.8916</ele><time>2026-05-29T00:52:51.000Z</time></trkpt>
        <trkpt lat="29.56908" lon="103.413631"><ele>922.9948</ele><time>2026-05-29T00:52:59.000Z</time></trkpt>
        <trkpt lat="29.56908" lon="103.413685"><ele>923.4941</ele><time>2026-05-29T00:53:08.000Z</time></trkpt>
        <trkpt lat="29.569097" lon="103.413738"><ele>922.4033</ele><time>2026-05-29T00:53:12.000Z</time></trkpt>
        <trkpt lat="29.569131" lon="103.413776"><ele>922.31616</ele><time>2026-05-29T00:53:17.000Z</time></trkpt>
        <trkpt lat="29.569155" lon="103.413821"><ele>921.1492</ele><time>2026-05-29T00:53:22.000Z</time></trkpt>
        <trkpt lat="29.569167" lon="103.413876"><ele>921.4122</ele><time>2026-05-29T00:53:29.000Z</time></trkpt>
        <trkpt lat="29.569166" lon="103.413928"><ele>920.74274</ele><time>2026-05-29T00:53:35.000Z</time></trkpt>
        <trkpt lat="29.569163" lon="103.413984"><ele>922.1796</ele><time>2026-05-29T00:53:41.000Z</time></trkpt>
        <trkpt lat="29.56914" lon="103.414033"><ele>922.0029</ele><time>2026-05-29T00:53:46.000Z</time></trkpt>
        <trkpt lat="29.569121" lon="103.414081"><ele>922.9556</ele><time>2026-05-29T00:53:51.000Z</time></trkpt>
        <trkpt lat="29.569137" lon="103.414132"><ele>922.6309</ele><time>2026-05-29T00:53:55.000Z</time></trkpt>
        <trkpt lat="29.56913" lon="103.414192"><ele>921.84924</ele><time>2026-05-29T00:54:01.000Z</time></trkpt>
        <trkpt lat="29.569135" lon="103.414252"><ele>922.63116</ele><time>2026-05-29T00:54:06.000Z</time></trkpt>
        <trkpt lat="29.569126" lon="103.414304"><ele>922.909</ele><time>2026-05-29T00:54:11.000Z</time></trkpt>
        <trkpt lat="29.569125" lon="103.414364"><ele>922.9158</ele><time>2026-05-29T00:54:15.000Z</time></trkpt>
        <trkpt lat="29.569116" lon="103.414416"><ele>923.0319</ele><time>2026-05-29T00:54:19.000Z</time></trkpt>
        <trkpt lat="29.569096" lon="103.414466"><ele>922.7581</ele><time>2026-05-29T00:54:23.000Z</time></trkpt>
        <trkpt lat="29.569092" lon="103.41452"><ele>923.3224</ele><time>2026-05-29T00:54:27.000Z</time></trkpt>
        <trkpt lat="29.569102" lon="103.414579"><ele>924.47</ele><time>2026-05-29T00:54:31.000Z</time></trkpt>
        <trkpt lat="29.569111" lon="103.414638"><ele>927.0964</ele><time>2026-05-29T00:54:35.000Z</time></trkpt>
        <trkpt lat="29.569153" lon="103.414677"><ele>927.7097</ele><time>2026-05-29T00:54:39.000Z</time></trkpt>
        <trkpt lat="29.569186" lon="103.41473"><ele>927.9868</ele><time>2026-05-29T00:54:44.000Z</time></trkpt>
        <trkpt lat="29.569225" lon="103.414765"><ele>926.9315</ele><time>2026-05-29T00:54:51.000Z</time></trkpt>
        <trkpt lat="29.569255" lon="103.414817"><ele>927.7045</ele><time>2026-05-29T00:55:10.000Z</time></trkpt>
        <trkpt lat="29.569296" lon="103.414854"><ele>927.0235</ele><time>2026-05-29T00:55:16.000Z</time></trkpt>
        <trkpt lat="29.569356" lon="103.414846"><ele>925.1032</ele><time>2026-05-29T00:55:22.000Z</time></trkpt>
        <trkpt lat="29.569407" lon="103.414834"><ele>926.07495</ele><time>2026-05-29T00:55:28.000Z</time></trkpt>
        <trkpt lat="29.569451" lon="103.414815"><ele>926.67786</ele><time>2026-05-29T00:55:33.000Z</time></trkpt>
        <trkpt lat="29.569496" lon="103.414783"><ele>925.53467</ele><time>2026-05-29T00:55:41.000Z</time></trkpt>
        <trkpt lat="29.569546" lon="103.414773"><ele>929.66205</ele><time>2026-05-29T00:55:46.000Z</time></trkpt>
        <trkpt lat="29.569594" lon="103.414767"><ele>928.2986</ele><time>2026-05-29T00:55:52.000Z</time></trkpt>
        <trkpt lat="29.56964" lon="103.414758"><ele>928.65735</ele><time>2026-05-29T00:55:57.000Z</time></trkpt>
        <trkpt lat="29.569686" lon="103.414767"><ele>928.3016</ele><time>2026-05-29T00:56:02.000Z</time></trkpt>
        <trkpt lat="29.569721" lon="103.4148"><ele>930.36694</ele><time>2026-05-29T00:56:07.000Z</time></trkpt>
        <trkpt lat="29.569748" lon="103.414849"><ele>927.3346</ele><time>2026-05-29T00:56:13.000Z</time></trkpt>
        <trkpt lat="29.569796" lon="103.414875"><ele>926.1282</ele><time>2026-05-29T00:56:18.000Z</time></trkpt>
        <trkpt lat="29.569848" lon="103.414903"><ele>923.9768</ele><time>2026-05-29T00:56:23.000Z</time></trkpt>
        <trkpt lat="29.569881" lon="103.414954"><ele>923.4564</ele><time>2026-05-29T00:56:28.000Z</time></trkpt>
        <trkpt lat="29.569898" lon="103.415003"><ele>923.913</ele><time>2026-05-29T00:56:33.000Z</time></trkpt>
        <trkpt lat="29.569922" lon="103.415055"><ele>926.76904</ele><time>2026-05-29T00:56:39.000Z</time></trkpt>
        <trkpt lat="29.569918" lon="103.415112"><ele>927.7162</ele><time>2026-05-29T00:56:44.000Z</time></trkpt>
        <trkpt lat="29.569904" lon="103.415168"><ele>929.2095</ele><time>2026-05-29T00:56:50.000Z</time></trkpt>
        <trkpt lat="29.569908" lon="103.415222"><ele>929.611</ele><time>2026-05-29T00:56:54.000Z</time></trkpt>
        <trkpt lat="29.569916" lon="103.415279"><ele>929.69037</ele><time>2026-05-29T00:56:59.000Z</time></trkpt>
        <trkpt lat="29.569928" lon="103.415334"><ele>929.8043</ele><time>2026-05-29T00:57:04.000Z</time></trkpt>
        <trkpt lat="29.569966" lon="103.415382"><ele>930.55096</ele><time>2026-05-29T00:57:08.000Z</time></trkpt>
        <trkpt lat="29.57" lon="103.415427"><ele>930.9881</ele><time>2026-05-29T00:57:11.000Z</time></trkpt>
        <trkpt lat="29.570036" lon="103.41547"><ele>930.4598</ele><time>2026-05-29T00:57:15.000Z</time></trkpt>
        <trkpt lat="29.570071" lon="103.415503"><ele>929.27563</ele><time>2026-05-29T00:57:19.000Z</time></trkpt>
        <trkpt lat="29.570107" lon="103.415536"><ele>927.7325</ele><time>2026-05-29T00:57:29.000Z</time></trkpt>
        <trkpt lat="29.570149" lon="103.415563"><ele>927.9674</ele><time>2026-05-29T00:57:37.000Z</time></trkpt>
        <trkpt lat="29.570194" lon="103.415568"><ele>924.21783</ele><time>2026-05-29T00:58:19.000Z</time></trkpt>
        <trkpt lat="29.570243" lon="103.415564"><ele>924.03864</ele><time>2026-05-29T00:58:25.000Z</time></trkpt>
        <trkpt lat="29.570291" lon="103.415577"><ele>924.07983</ele><time>2026-05-29T00:58:29.000Z</time></trkpt>
        <trkpt lat="29.570337" lon="103.415591"><ele>923.5367</ele><time>2026-05-29T00:58:34.000Z</time></trkpt>
        <trkpt lat="29.570375" lon="103.41563"><ele>923.1122</ele><time>2026-05-29T00:58:39.000Z</time></trkpt>
        <trkpt lat="29.570412" lon="103.415661"><ele>921.97864</ele><time>2026-05-29T00:58:45.000Z</time></trkpt>
        <trkpt lat="29.570423" lon="103.415712"><ele>923.7644</ele><time>2026-05-29T00:58:53.000Z</time></trkpt>
        <trkpt lat="29.570438" lon="103.415765"><ele>922.3394</ele><time>2026-05-29T00:59:00.000Z</time></trkpt>
        <trkpt lat="29.570468" lon="103.415811"><ele>922.6105</ele><time>2026-05-29T00:59:08.000Z</time></trkpt>
        <trkpt lat="29.570519" lon="103.415812"><ele>922.80005</ele><time>2026-05-29T00:59:16.000Z</time></trkpt>
        <trkpt lat="29.570564" lon="103.415803"><ele>923.76886</ele><time>2026-05-29T00:59:21.000Z</time></trkpt>
        <trkpt lat="29.570593" lon="103.415843"><ele>922.5694</ele><time>2026-05-29T00:59:26.000Z</time></trkpt>
        <trkpt lat="29.570627" lon="103.415889"><ele>921.82666</ele><time>2026-05-29T00:59:31.000Z</time></trkpt>
        <trkpt lat="29.570654" lon="103.415931"><ele>922.8855</ele><time>2026-05-29T00:59:37.000Z</time></trkpt>
        <trkpt lat="29.570699" lon="103.415956"><ele>921.92255</ele><time>2026-05-29T00:59:51.000Z</time></trkpt>
        <trkpt lat="29.570699" lon="103.41601"><ele>922.73553</ele><time>2026-05-29T00:59:58.000Z</time></trkpt>
        <trkpt lat="29.570675" lon="103.416057"><ele>921.1712</ele><time>2026-05-29T01:00:06.000Z</time></trkpt>
        <trkpt lat="29.570632" lon="103.416084"><ele>919.58405</ele><time>2026-05-29T01:00:19.000Z</time></trkpt>
        <trkpt lat="29.570587" lon="103.416098"><ele>916.49786</ele><time>2026-05-29T01:00:26.000Z</time></trkpt>
        <trkpt lat="29.570545" lon="103.416117"><ele>918.33875</ele><time>2026-05-29T01:00:34.000Z</time></trkpt>
        <trkpt lat="29.570504" lon="103.416154"><ele>918.0284</ele><time>2026-05-29T01:00:41.000Z</time></trkpt>
        <trkpt lat="29.570455" lon="103.416167"><ele>918.57416</ele><time>2026-05-29T01:00:49.000Z</time></trkpt>
        <trkpt lat="29.570418" lon="103.416218"><ele>919.2106</ele><time>2026-05-29T01:00:57.000Z</time></trkpt>
        <trkpt lat="29.570391" lon="103.416262"><ele>919.1951</ele><time>2026-05-29T01:01:05.000Z</time></trkpt>
        <trkpt lat="29.570415" lon="103.416307"><ele>920.1774</ele><time>2026-05-29T01:01:09.000Z</time></trkpt>
        <trkpt lat="29.570386" lon="103.416351"><ele>920.0884</ele><time>2026-05-29T01:01:15.000Z</time></trkpt>
        <trkpt lat="29.570377" lon="103.416414"><ele>919.8081</ele><time>2026-05-29T01:01:25.000Z</time></trkpt>
        <trkpt lat="29.570352" lon="103.416459"><ele>920.58215</ele><time>2026-05-29T01:01:31.000Z</time></trkpt>
        <trkpt lat="29.570335" lon="103.41651"><ele>921.19855</ele><time>2026-05-29T01:01:36.000Z</time></trkpt>
        <trkpt lat="29.570339" lon="103.416568"><ele>920.7392</ele><time>2026-05-29T01:01:41.000Z</time></trkpt>
        <trkpt lat="29.570332" lon="103.416624"><ele>919.36896</ele><time>2026-05-29T01:01:46.000Z</time></trkpt>
        <trkpt lat="29.570331" lon="103.416682"><ele>922.1644</ele><time>2026-05-29T01:01:52.000Z</time></trkpt>
        <trkpt lat="29.57032" lon="103.416733"><ele>921.2634</ele><time>2026-05-29T01:01:57.000Z</time></trkpt>
        <trkpt lat="29.570334" lon="103.416785"><ele>920.41547</ele><time>2026-05-29T01:02:01.000Z</time></trkpt>
        <trkpt lat="29.570328" lon="103.416837"><ele>920.41376</ele><time>2026-05-29T01:02:05.000Z</time></trkpt>
        <trkpt lat="29.57033" lon="103.416897"><ele>920.52686</ele><time>2026-05-29T01:02:10.000Z</time></trkpt>
        <trkpt lat="29.57031" lon="103.416949"><ele>917.3404</ele><time>2026-05-29T01:02:15.000Z</time></trkpt>
        <trkpt lat="29.5703" lon="103.417003"><ele>916.5855</ele><time>2026-05-29T01:02:20.000Z</time></trkpt>
        <trkpt lat="29.570268" lon="103.417048"><ele>918.1426</ele><time>2026-05-29T01:02:29.000Z</time></trkpt>
        <trkpt lat="29.570217" lon="103.41705"><ele>918.12274</ele><time>2026-05-29T01:02:34.000Z</time></trkpt>
        <trkpt lat="29.570162" lon="103.417053"><ele>919.90546</ele><time>2026-05-29T01:02:40.000Z</time></trkpt>
        <trkpt lat="29.570109" lon="103.41709"><ele>923.06976</ele><time>2026-05-29T01:02:50.000Z</time></trkpt>
        <trkpt lat="29.570075" lon="103.41713"><ele>923.3783</ele><time>2026-05-29T01:02:53.000Z</time></trkpt>
        <trkpt lat="29.570075" lon="103.417188"><ele>925.3674</ele><time>2026-05-29T01:02:59.000Z</time></trkpt>
        <trkpt lat="29.570103" lon="103.417233"><ele>925.89374</ele><time>2026-05-29T01:03:03.000Z</time></trkpt>
        <trkpt lat="29.570089" lon="103.417288"><ele>927.7759</ele><time>2026-05-29T01:03:10.000Z</time></trkpt>
        <trkpt lat="29.570054" lon="103.417334"><ele>926.69025</ele><time>2026-05-29T01:03:15.000Z</time></trkpt>
        <trkpt lat="29.570033" lon="103.41738"><ele>925.6442</ele><time>2026-05-29T01:03:20.000Z</time></trkpt>
        <trkpt lat="29.570019" lon="103.417432"><ele>925.28656</ele><time>2026-05-29T01:03:25.000Z</time></trkpt>
        <trkpt lat="29.570009" lon="103.417485"><ele>925.78436</ele><time>2026-05-29T01:03:30.000Z</time></trkpt>
        <trkpt lat="29.570022" lon="103.417546"><ele>925.2789</ele><time>2026-05-29T01:03:35.000Z</time></trkpt>
        <trkpt lat="29.570007" lon="103.417602"><ele>922.642</ele><time>2026-05-29T01:03:41.000Z</time></trkpt>
        <trkpt lat="29.569985" lon="103.41765"><ele>921.2739</ele><time>2026-05-29T01:03:46.000Z</time></trkpt>
        <trkpt lat="29.569976" lon="103.4177"><ele>922.71606</ele><time>2026-05-29T01:03:52.000Z</time></trkpt>
        <trkpt lat="29.569998" lon="103.417749"><ele>925.34845</ele><time>2026-05-29T01:03:59.000Z</time></trkpt>
        <trkpt lat="29.569975" lon="103.417797"><ele>923.34546</ele><time>2026-05-29T01:04:07.000Z</time></trkpt>
        <trkpt lat="29.569943" lon="103.417843"><ele>924.6301</ele><time>2026-05-29T01:04:11.000Z</time></trkpt>
        <trkpt lat="29.569917" lon="103.417888"><ele>924.4754</ele><time>2026-05-29T01:04:17.000Z</time></trkpt>
        <trkpt lat="29.569888" lon="103.417938"><ele>923.0519</ele><time>2026-05-29T01:04:23.000Z</time></trkpt>
        <trkpt lat="29.569867" lon="103.417987"><ele>924.9757</ele><time>2026-05-29T01:04:28.000Z</time></trkpt>
        <trkpt lat="29.56985" lon="103.41804"><ele>927.48395</ele><time>2026-05-29T01:04:34.000Z</time></trkpt>
        <trkpt lat="29.569846" lon="103.418101"><ele>930.31555</ele><time>2026-05-29T01:04:43.000Z</time></trkpt>
        <trkpt lat="29.569833" lon="103.418157"><ele>930.8496</ele><time>2026-05-29T01:04:49.000Z</time></trkpt>
        <trkpt lat="29.569812" lon="103.418224"><ele>928.06366</ele><time>2026-05-29T01:04:54.000Z</time></trkpt>
        <trkpt lat="29.569807" lon="103.418277"><ele>928.5665</ele><time>2026-05-29T01:04:58.000Z</time></trkpt>
        <trkpt lat="29.569823" lon="103.418333"><ele>930.4023</ele><time>2026-05-29T01:05:06.000Z</time></trkpt>
        <trkpt lat="29.569815" lon="103.418384"><ele>929.6791</ele><time>2026-05-29T01:05:11.000Z</time></trkpt>
        <trkpt lat="29.569799" lon="103.418434"><ele>927.3698</ele><time>2026-05-29T01:05:15.000Z</time></trkpt>
        <trkpt lat="29.569781" lon="103.418493"><ele>927.3317</ele><time>2026-05-29T01:05:19.000Z</time></trkpt>
        <trkpt lat="29.569772" lon="103.418546"><ele>930.2537</ele><time>2026-05-29T01:05:25.000Z</time></trkpt>
        <trkpt lat="29.569774" lon="103.418606"><ele>929.8141</ele><time>2026-05-29T01:05:30.000Z</time></trkpt>
        <trkpt lat="29.569753" lon="103.418653"><ele>929.27295</ele><time>2026-05-29T01:05:36.000Z</time></trkpt>
        <trkpt lat="29.569737" lon="103.418706"><ele>928.74994</ele><time>2026-05-29T01:05:42.000Z</time></trkpt>
        <trkpt lat="29.569736" lon="103.418766"><ele>929.3202</ele><time>2026-05-29T01:05:47.000Z</time></trkpt>
        <trkpt lat="29.569721" lon="103.418823"><ele>928.31445</ele><time>2026-05-29T01:05:52.000Z</time></trkpt>
        <trkpt lat="29.569715" lon="103.418878"><ele>927.58795</ele><time>2026-05-29T01:05:58.000Z</time></trkpt>
        <trkpt lat="29.569713" lon="103.418942"><ele>929.163</ele><time>2026-05-29T01:06:04.000Z</time></trkpt>
        <trkpt lat="29.569706" lon="103.419004"><ele>929.6977</ele><time>2026-05-29T01:06:09.000Z</time></trkpt>
        <trkpt lat="29.569713" lon="103.419056"><ele>931.28973</ele><time>2026-05-29T01:06:15.000Z</time></trkpt>
        <trkpt lat="29.569718" lon="103.419108"><ele>930.2899</ele><time>2026-05-29T01:06:19.000Z</time></trkpt>
        <trkpt lat="29.569731" lon="103.419158"><ele>930.4079</ele><time>2026-05-29T01:06:23.000Z</time></trkpt>
        <trkpt lat="29.569714" lon="103.419221"><ele>929.42535</ele><time>2026-05-29T01:06:30.000Z</time></trkpt>
        <trkpt lat="29.569678" lon="103.41927"><ele>929.66565</ele><time>2026-05-29T01:06:35.000Z</time></trkpt>
        <trkpt lat="29.569663" lon="103.419322"><ele>928.6929</ele><time>2026-05-29T01:06:41.000Z</time></trkpt>
        <trkpt lat="29.569636" lon="103.419377"><ele>929.8067</ele><time>2026-05-29T01:06:48.000Z</time></trkpt>
        <trkpt lat="29.569619" lon="103.419431"><ele>929.6725</ele><time>2026-05-29T01:06:54.000Z</time></trkpt>
        <trkpt lat="29.569654" lon="103.419478"><ele>930.4391</ele><time>2026-05-29T01:07:02.000Z</time></trkpt>
        <trkpt lat="29.569697" lon="103.419495"><ele>931.34717</ele><time>2026-05-29T01:07:18.000Z</time></trkpt>
        <trkpt lat="29.569746" lon="103.41951"><ele>931.7093</ele><time>2026-05-29T01:07:24.000Z</time></trkpt>
        <trkpt lat="29.569857" lon="103.419522"><ele>937.77094</ele><time>2026-05-29T01:08:04.000Z</time></trkpt>
        <trkpt lat="29.56986" lon="103.419524"><ele>937.24475</ele><time>2026-05-29T01:08:05.000Z</time></trkpt>
        <trkpt lat="29.569861" lon="103.419525"><ele>936.9982</ele><time>2026-05-29T01:08:07.000Z</time></trkpt>
        <trkpt lat="29.569828" lon="103.419488"><ele>934.5276</ele><time>2026-05-29T01:08:45.000Z</time></trkpt>
        <trkpt lat="29.569783" lon="103.419505"><ele>933.52954</ele><time>2026-05-29T01:08:51.000Z</time></trkpt>
        <trkpt lat="29.569837" lon="103.419483"><ele>933.893</ele><time>2026-05-29T01:08:59.000Z</time></trkpt>
        <trkpt lat="29.569747" lon="103.419465"><ele>933.4886</ele><time>2026-05-29T01:09:25.000Z</time></trkpt>
        <trkpt lat="29.569829" lon="103.419461"><ele>933.3047</ele><time>2026-05-29T01:09:29.000Z</time></trkpt>
        <trkpt lat="29.569883" lon="103.419392"><ele>934.5417</ele><time>2026-05-29T01:09:53.000Z</time></trkpt>
        <trkpt lat="29.56975" lon="103.419477"><ele>933.9166</ele><time>2026-05-29T01:10:12.000Z</time></trkpt>
        <trkpt lat="29.569677" lon="103.419599"><ele>509.4833</ele><time>2026-05-29T01:11:28.000Z</time></trkpt>
        <trkpt lat="29.569488" lon="103.419579"><ele>933.9934</ele><time>2026-05-29T01:12:06.000Z</time></trkpt>
        <trkpt lat="29.56965" lon="103.419556"><ele>934.90344</ele><time>2026-05-29T01:12:14.000Z</time></trkpt>
        <trkpt lat="29.56951" lon="103.419615"><ele>933.86285</ele><time>2026-05-29T01:13:21.000Z</time></trkpt>
        <trkpt lat="29.569468" lon="103.419654"><ele>934.10474</ele><time>2026-05-29T01:13:27.000Z</time></trkpt>
        <trkpt lat="29.56966" lon="103.419479"><ele>938.4661</ele><time>2026-05-29T01:13:45.000Z</time></trkpt>
        <trkpt lat="29.56973" lon="103.419343"><ele>937.85187</ele><time>2026-05-29T01:13:52.000Z</time></trkpt>
        <trkpt lat="29.569781" lon="103.41934"><ele>935.0822</ele><time>2026-05-29T01:13:56.000Z</time></trkpt>
        <trkpt lat="29.569655" lon="103.419411"><ele>932.3955</ele><time>2026-05-29T01:14:40.000Z</time></trkpt>
        <trkpt lat="29.569626" lon="103.419458"><ele>933.5497</ele><time>2026-05-29T01:14:44.000Z</time></trkpt>
        <trkpt lat="29.569584" lon="103.419499"><ele>932.8426</ele><time>2026-05-29T01:14:48.000Z</time></trkpt>
        <trkpt lat="29.569552" lon="103.41954"><ele>933.55505</ele><time>2026-05-29T01:14:54.000Z</time></trkpt>
        <trkpt lat="29.569517" lon="103.419582"><ele>935.0484</ele><time>2026-05-29T01:15:01.000Z</time></trkpt>
        <trkpt lat="29.569471" lon="103.419595"><ele>933.7725</ele><time>2026-05-29T01:15:10.000Z</time></trkpt>
        <trkpt lat="29.569435" lon="103.419631"><ele>932.16815</ele><time>2026-05-29T01:15:14.000Z</time></trkpt>
        <trkpt lat="29.569397" lon="103.419661"><ele>930.4375</ele><time>2026-05-29T01:15:23.000Z</time></trkpt>
        <trkpt lat="29.569355" lon="103.419682"><ele>932.25275</ele><time>2026-05-29T01:15:29.000Z</time></trkpt>
        <trkpt lat="29.56931" lon="103.419706"><ele>933.07074</ele><time>2026-05-29T01:15:47.000Z</time></trkpt>
        <trkpt lat="29.569275" lon="103.419743"><ele>934.0529</ele><time>2026-05-29T01:16:12.000Z</time></trkpt>
        <trkpt lat="29.569225" lon="103.419755"><ele>936.67645</ele><time>2026-05-29T01:16:22.000Z</time></trkpt>
        <trkpt lat="29.569203" lon="103.419814"><ele>936.56903</ele><time>2026-05-29T01:16:29.000Z</time></trkpt>
        <trkpt lat="29.569159" lon="103.419831"><ele>937.18945</ele><time>2026-05-29T01:16:33.000Z</time></trkpt>
        <trkpt lat="29.569111" lon="103.419826"><ele>936.65533</ele><time>2026-05-29T01:16:38.000Z</time></trkpt>
        <trkpt lat="29.569065" lon="103.41984"><ele>935.6654</ele><time>2026-05-29T01:16:43.000Z</time></trkpt>
        <trkpt lat="29.569019" lon="103.419857"><ele>934.9043</ele><time>2026-05-29T01:16:49.000Z</time></trkpt>
        <trkpt lat="29.56898" lon="103.419885"><ele>934.8125</ele><time>2026-05-29T01:16:52.000Z</time></trkpt>
        <trkpt lat="29.568934" lon="103.419908"><ele>934.74365</ele><time>2026-05-29T01:16:57.000Z</time></trkpt>
        <trkpt lat="29.568877" lon="103.419916"><ele>933.6534</ele><time>2026-05-29T01:17:10.000Z</time></trkpt>
        <trkpt lat="29.568837" lon="103.419951"><ele>930.3088</ele><time>2026-05-29T01:17:17.000Z</time></trkpt>
        <trkpt lat="29.568795" lon="103.419974"><ele>932.24023</ele><time>2026-05-29T01:17:27.000Z</time></trkpt>
        <trkpt lat="29.56875" lon="103.419988"><ele>930.9685</ele><time>2026-05-29T01:17:31.000Z</time></trkpt>
        <trkpt lat="29.568703" lon="103.420001"><ele>929.64825</ele><time>2026-05-29T01:17:37.000Z</time></trkpt>
        <trkpt lat="29.568662" lon="103.420028"><ele>930.2202</ele><time>2026-05-29T01:17:43.000Z</time></trkpt>
        <trkpt lat="29.568618" lon="103.420048"><ele>927.4164</ele><time>2026-05-29T01:17:51.000Z</time></trkpt>
        <trkpt lat="29.568572" lon="103.420064"><ele>924.7405</ele><time>2026-05-29T01:17:58.000Z</time></trkpt>
        <trkpt lat="29.568527" lon="103.420055"><ele>924.3047</ele><time>2026-05-29T01:18:11.000Z</time></trkpt>
        <trkpt lat="29.568481" lon="103.420052"><ele>921.94604</ele><time>2026-05-29T01:18:28.000Z</time></trkpt>
        <trkpt lat="29.568435" lon="103.420059"><ele>919.91486</ele><time>2026-05-29T01:18:38.000Z</time></trkpt>
        <trkpt lat="29.568387" lon="103.420045"><ele>917.3037</ele><time>2026-05-29T01:18:49.000Z</time></trkpt>
        <trkpt lat="29.568337" lon="103.420049"><ele>918.44214</ele><time>2026-05-29T01:18:59.000Z</time></trkpt>
        <trkpt lat="29.568287" lon="103.420064"><ele>915.1147</ele><time>2026-05-29T01:19:13.000Z</time></trkpt>
        <trkpt lat="29.568238" lon="103.420071"><ele>912.507</ele><time>2026-05-29T01:19:23.000Z</time></trkpt>
        <trkpt lat="29.568192" lon="103.420069"><ele>909.67206</ele><time>2026-05-29T01:19:32.000Z</time></trkpt>
        <trkpt lat="29.568146" lon="103.420073"><ele>906.50854</ele><time>2026-05-29T01:19:46.000Z</time></trkpt>
        <trkpt lat="29.568098" lon="103.420081"><ele>906.2533</ele><time>2026-05-29T01:19:54.000Z</time></trkpt>
        <trkpt lat="29.568047" lon="103.420094"><ele>906.44244</ele><time>2026-05-29T01:20:06.000Z</time></trkpt>
        <trkpt lat="29.567998" lon="103.420101"><ele>904.72437</ele><time>2026-05-29T01:20:17.000Z</time></trkpt>
        <trkpt lat="29.567951" lon="103.420122"><ele>901.82794</ele><time>2026-05-29T01:20:30.000Z</time></trkpt>
        <trkpt lat="29.567909" lon="103.420146"><ele>899.5657</ele><time>2026-05-29T01:20:40.000Z</time></trkpt>
        <trkpt lat="29.567866" lon="103.420172"><ele>895.51434</ele><time>2026-05-29T01:20:53.000Z</time></trkpt>
        <trkpt lat="29.567817" lon="103.42019"><ele>893.5774</ele><time>2026-05-29T01:21:01.000Z</time></trkpt>
        <trkpt lat="29.567783" lon="103.420225"><ele>893.90796</ele><time>2026-05-29T01:21:09.000Z</time></trkpt>
        <trkpt lat="29.567735" lon="103.420253"><ele>891.9071</ele><time>2026-05-29T01:21:19.000Z</time></trkpt>
        <trkpt lat="29.567696" lon="103.420279"><ele>892.2318</ele><time>2026-05-29T01:21:26.000Z</time></trkpt>
        <trkpt lat="29.567655" lon="103.420305"><ele>888.26013</ele><time>2026-05-29T01:21:45.000Z</time></trkpt>
        <trkpt lat="29.567608" lon="103.420326"><ele>886.69147</ele><time>2026-05-29T01:21:54.000Z</time></trkpt>
        <trkpt lat="29.567568" lon="103.420352"><ele>886.49396</ele><time>2026-05-29T01:22:03.000Z</time></trkpt>
        <trkpt lat="29.56752" lon="103.420362"><ele>884.5413</ele><time>2026-05-29T01:22:11.000Z</time></trkpt>
        <trkpt lat="29.567475" lon="103.420376"><ele>883.5334</ele><time>2026-05-29T01:22:20.000Z</time></trkpt>
        <trkpt lat="29.567433" lon="103.420409"><ele>881.4057</ele><time>2026-05-29T01:22:29.000Z</time></trkpt>
        <trkpt lat="29.567387" lon="103.420428"><ele>879.4568</ele><time>2026-05-29T01:22:40.000Z</time></trkpt>
        <trkpt lat="29.567342" lon="103.420439"><ele>876.7504</ele><time>2026-05-29T01:22:47.000Z</time></trkpt>
        <trkpt lat="29.567295" lon="103.420447"><ele>873.11945</ele><time>2026-05-29T01:22:58.000Z</time></trkpt>
        <trkpt lat="29.567244" lon="103.420445"><ele>873.06195</ele><time>2026-05-29T01:23:06.000Z</time></trkpt>
        <trkpt lat="29.567199" lon="103.420461"><ele>868.41907</ele><time>2026-05-29T01:23:18.000Z</time></trkpt>
        <trkpt lat="29.567156" lon="103.420442"><ele>869.21027</ele><time>2026-05-29T01:23:26.000Z</time></trkpt>
        <trkpt lat="29.567112" lon="103.420421"><ele>867.58936</ele><time>2026-05-29T01:23:38.000Z</time></trkpt>
        <trkpt lat="29.567072" lon="103.420384"><ele>864.4234</ele><time>2026-05-29T01:23:49.000Z</time></trkpt>
        <trkpt lat="29.567042" lon="103.420345"><ele>861.7676</ele><time>2026-05-29T01:23:59.000Z</time></trkpt>
        <trkpt lat="29.566999" lon="103.420319"><ele>860.6733</ele><time>2026-05-29T01:24:37.000Z</time></trkpt>
        <trkpt lat="29.566995" lon="103.420263"><ele>861.17834</ele><time>2026-05-29T01:24:42.000Z</time></trkpt>
        <trkpt lat="29.566998" lon="103.420208"><ele>859.9633</ele><time>2026-05-29T01:24:47.000Z</time></trkpt>
        <trkpt lat="29.566994" lon="103.420154"><ele>858.90826</ele><time>2026-05-29T01:24:52.000Z</time></trkpt>
        <trkpt lat="29.56697" lon="103.420105"><ele>857.5902</ele><time>2026-05-29T01:25:01.000Z</time></trkpt>
        <trkpt lat="29.566987" lon="103.420052"><ele>857.5307</ele><time>2026-05-29T01:25:26.000Z</time></trkpt>
        <trkpt lat="29.566958" lon="103.420012"><ele>855.0142</ele><time>2026-05-29T01:25:35.000Z</time></trkpt>
        <trkpt lat="29.566923" lon="103.419972"><ele>854.2882</ele><time>2026-05-29T01:25:44.000Z</time></trkpt>
        <trkpt lat="29.566885" lon="103.41994"><ele>851.53436</ele><time>2026-05-29T01:25:51.000Z</time></trkpt>
        <trkpt lat="29.566841" lon="103.41991"><ele>849.37897</ele><time>2026-05-29T01:26:00.000Z</time></trkpt>
        <trkpt lat="29.566801" lon="103.419876"><ele>846.9114</ele><time>2026-05-29T01:26:12.000Z</time></trkpt>
        <trkpt lat="29.566745" lon="103.419854"><ele>846.05774</ele><time>2026-05-29T01:26:20.000Z</time></trkpt>
        <trkpt lat="29.566693" lon="103.419863"><ele>849.4595</ele><time>2026-05-29T01:26:35.000Z</time></trkpt>
        <trkpt lat="29.566663" lon="103.419903"><ele>850.21344</ele><time>2026-05-29T01:26:41.000Z</time></trkpt>
        <trkpt lat="29.566637" lon="103.419963"><ele>846.3636</ele><time>2026-05-29T01:26:46.000Z</time></trkpt>
        <trkpt lat="29.566631" lon="103.420017"><ele>846.36285</ele><time>2026-05-29T01:26:48.000Z</time></trkpt>
        <trkpt lat="29.566605" lon="103.420071"><ele>844.08075</ele><time>2026-05-29T01:26:51.000Z</time></trkpt>
        <trkpt lat="29.566595" lon="103.420126"><ele>842.5241</ele><time>2026-05-29T01:26:54.000Z</time></trkpt>
        <trkpt lat="29.566553" lon="103.42017"><ele>841.4777</ele><time>2026-05-29T01:26:59.000Z</time></trkpt>
        <trkpt lat="29.566517" lon="103.420207"><ele>841.60284</ele><time>2026-05-29T01:27:03.000Z</time></trkpt>
        <trkpt lat="29.566479" lon="103.420254"><ele>842.4374</ele><time>2026-05-29T01:27:08.000Z</time></trkpt>
        <trkpt lat="29.566445" lon="103.420302"><ele>845.28625</ele><time>2026-05-29T01:27:12.000Z</time></trkpt>
        <trkpt lat="29.56643" lon="103.420355"><ele>846.783</ele><time>2026-05-29T01:27:15.000Z</time></trkpt>
        <trkpt lat="29.566393" lon="103.420407"><ele>848.1694</ele><time>2026-05-29T01:27:19.000Z</time></trkpt>
        <trkpt lat="29.566353" lon="103.420451"><ele>849.4428</ele><time>2026-05-29T01:27:23.000Z</time></trkpt>
        <trkpt lat="29.566309" lon="103.420489"><ele>849.568</ele><time>2026-05-29T01:27:28.000Z</time></trkpt>
        <trkpt lat="29.566292" lon="103.420537"><ele>853.26605</ele><time>2026-05-29T01:27:34.000Z</time></trkpt>
        <trkpt lat="29.566325" lon="103.420574"><ele>855.24414</ele><time>2026-05-29T01:27:46.000Z</time></trkpt>
        <trkpt lat="29.566303" lon="103.420629"><ele>853.52386</ele><time>2026-05-29T01:27:51.000Z</time></trkpt>
        <trkpt lat="29.566265" lon="103.420669"><ele>851.5587</ele><time>2026-05-29T01:27:55.000Z</time></trkpt>
        <trkpt lat="29.566261" lon="103.420723"><ele>847.94763</ele><time>2026-05-29T01:27:58.000Z</time></trkpt>
        <trkpt lat="29.566239" lon="103.420773"><ele>846.225</ele><time>2026-05-29T01:28:01.000Z</time></trkpt>
        <trkpt lat="29.566216" lon="103.420835"><ele>845.59784</ele><time>2026-05-29T01:28:05.000Z</time></trkpt>
        <trkpt lat="29.566184" lon="103.420888"><ele>844.57904</ele><time>2026-05-29T01:28:09.000Z</time></trkpt>
        <trkpt lat="29.566185" lon="103.420951"><ele>844.29156</ele><time>2026-05-29T01:28:14.000Z</time></trkpt>
        <trkpt lat="29.566172" lon="103.42101"><ele>845.9368</ele><time>2026-05-29T01:28:19.000Z</time></trkpt>
        <trkpt lat="29.56615" lon="103.421057"><ele>846.6605</ele><time>2026-05-29T01:28:23.000Z</time></trkpt>
        <trkpt lat="29.566109" lon="103.421094"><ele>845.7782</ele><time>2026-05-29T01:28:30.000Z</time></trkpt>
        <trkpt lat="29.566067" lon="103.421118"><ele>844.0629</ele><time>2026-05-29T01:28:35.000Z</time></trkpt>
        <trkpt lat="29.566022" lon="103.421116"><ele>843.58405</ele><time>2026-05-29T01:28:51.000Z</time></trkpt>
        <trkpt lat="29.565975" lon="103.42113"><ele>843.4727</ele><time>2026-05-29T01:28:58.000Z</time></trkpt>
        <trkpt lat="29.56593" lon="103.421111"><ele>841.28265</ele><time>2026-05-29T01:29:05.000Z</time></trkpt>
        <trkpt lat="29.565882" lon="103.421112"><ele>840.68616</ele><time>2026-05-29T01:29:10.000Z</time></trkpt>
        <trkpt lat="29.565825" lon="103.421116"><ele>841.4851</ele><time>2026-05-29T01:29:15.000Z</time></trkpt>
        <trkpt lat="29.565779" lon="103.421121"><ele>840.6468</ele><time>2026-05-29T01:29:20.000Z</time></trkpt>
        <trkpt lat="29.565733" lon="103.421111"><ele>841.01416</ele><time>2026-05-29T01:29:25.000Z</time></trkpt>
        <trkpt lat="29.565682" lon="103.421099"><ele>839.1605</ele><time>2026-05-29T01:29:28.000Z</time></trkpt>
        <trkpt lat="29.565636" lon="103.421092"><ele>837.904</ele><time>2026-05-29T01:29:33.000Z</time></trkpt>
        <trkpt lat="29.565583" lon="103.421107"><ele>837.85236</ele><time>2026-05-29T01:29:37.000Z</time></trkpt>
        <trkpt lat="29.565537" lon="103.421124"><ele>837.3855</ele><time>2026-05-29T01:29:42.000Z</time></trkpt>
        <trkpt lat="29.565487" lon="103.421133"><ele>835.7616</ele><time>2026-05-29T01:29:45.000Z</time></trkpt>
        <trkpt lat="29.56544" lon="103.42114"><ele>835.45557</ele><time>2026-05-29T01:29:48.000Z</time></trkpt>
        <trkpt lat="29.56539" lon="103.421162"><ele>834.83307</ele><time>2026-05-29T01:29:53.000Z</time></trkpt>
        <trkpt lat="29.56535" lon="103.421186"><ele>833.77515</ele><time>2026-05-29T01:30:02.000Z</time></trkpt>
        <trkpt lat="29.565315" lon="103.421221"><ele>831.8574</ele><time>2026-05-29T01:30:10.000Z</time></trkpt>
        <trkpt lat="29.56527" lon="103.421242"><ele>831.2172</ele><time>2026-05-29T01:30:38.000Z</time></trkpt>
        <trkpt lat="29.565223" lon="103.42126"><ele>830.6881</ele><time>2026-05-29T01:30:46.000Z</time></trkpt>
        <trkpt lat="29.56517" lon="103.421266"><ele>827.9041</ele><time>2026-05-29T01:30:54.000Z</time></trkpt>
        <trkpt lat="29.565124" lon="103.421279"><ele>825.75244</ele><time>2026-05-29T01:31:01.000Z</time></trkpt>
        <trkpt lat="29.565083" lon="103.421305"><ele>824.46</ele><time>2026-05-29T01:31:09.000Z</time></trkpt>
        <trkpt lat="29.56504" lon="103.421331"><ele>822.0228</ele><time>2026-05-29T01:31:18.000Z</time></trkpt>
        <trkpt lat="29.564995" lon="103.421348"><ele>822.001</ele><time>2026-05-29T01:31:27.000Z</time></trkpt>
        <trkpt lat="29.564948" lon="103.421352"><ele>821.2681</ele><time>2026-05-29T01:31:48.000Z</time></trkpt>
        <trkpt lat="29.564903" lon="103.421373"><ele>819.3455</ele><time>2026-05-29T01:32:00.000Z</time></trkpt>
        <trkpt lat="29.564868" lon="103.421331"><ele>817.8537</ele><time>2026-05-29T01:32:11.000Z</time></trkpt>
        <trkpt lat="29.56483" lon="103.4213"><ele>814.4715</ele><time>2026-05-29T01:32:20.000Z</time></trkpt>
        <trkpt lat="29.564803" lon="103.421252"><ele>813.95264</ele><time>2026-05-29T01:32:27.000Z</time></trkpt>
        <trkpt lat="29.564778" lon="103.421206"><ele>813.89777</ele><time>2026-05-29T01:32:39.000Z</time></trkpt>
        <trkpt lat="29.564739" lon="103.421167"><ele>809.1682</ele><time>2026-05-29T01:32:47.000Z</time></trkpt>
        <trkpt lat="29.564705" lon="103.42113"><ele>807.9692</ele><time>2026-05-29T01:32:51.000Z</time></trkpt>
        <trkpt lat="29.564673" lon="103.421089"><ele>806.2238</ele><time>2026-05-29T01:32:56.000Z</time></trkpt>
        <trkpt lat="29.564626" lon="103.421092"><ele>806.8933</ele><time>2026-05-29T01:33:02.000Z</time></trkpt>
        <trkpt lat="29.564592" lon="103.421129"><ele>806.61633</ele><time>2026-05-29T01:33:07.000Z</time></trkpt>
        <trkpt lat="29.564542" lon="103.421148"><ele>806.992</ele><time>2026-05-29T01:33:13.000Z</time></trkpt>
        <trkpt lat="29.564506" lon="103.421201"><ele>805.58057</ele><time>2026-05-29T01:33:20.000Z</time></trkpt>
        <trkpt lat="29.564468" lon="103.421237"><ele>805.33264</ele><time>2026-05-29T01:33:25.000Z</time></trkpt>
        <trkpt lat="29.564445" lon="103.421282"><ele>804.22144</ele><time>2026-05-29T01:33:29.000Z</time></trkpt>
        <trkpt lat="29.564389" lon="103.421295"><ele>805.20404</ele><time>2026-05-29T01:33:34.000Z</time></trkpt>
        <trkpt lat="29.564346" lon="103.421318"><ele>804.4473</ele><time>2026-05-29T01:33:40.000Z</time></trkpt>
        <trkpt lat="29.564298" lon="103.421329"><ele>803.4414</ele><time>2026-05-29T01:33:47.000Z</time></trkpt>
        <trkpt lat="29.564255" lon="103.421347"><ele>804.40015</ele><time>2026-05-29T01:33:53.000Z</time></trkpt>
        <trkpt lat="29.56424" lon="103.421401"><ele>805.6817</ele><time>2026-05-29T01:33:58.000Z</time></trkpt>
        <trkpt lat="29.564256" lon="103.421458"><ele>802.8708</ele><time>2026-05-29T01:34:08.000Z</time></trkpt>
        <trkpt lat="29.564269" lon="103.421508"><ele>799.96576</ele><time>2026-05-29T01:34:19.000Z</time></trkpt>
        <trkpt lat="29.564288" lon="103.421566"><ele>799.44543</ele><time>2026-05-29T01:34:32.000Z</time></trkpt>
        <trkpt lat="29.564315" lon="103.421608"><ele>800.5228</ele><time>2026-05-29T01:34:39.000Z</time></trkpt>
        <trkpt lat="29.564333" lon="103.421662"><ele>799.39343</ele><time>2026-05-29T01:34:44.000Z</time></trkpt>
        <trkpt lat="29.564335" lon="103.421726"><ele>794.4</ele><time>2026-05-29T01:35:16.000Z</time></trkpt>
        <trkpt lat="29.564337" lon="103.421783"><ele>791.11316</ele><time>2026-05-29T01:35:28.000Z</time></trkpt>
        <trkpt lat="29.564338" lon="103.421849"><ele>789.3712</ele><time>2026-05-29T01:35:39.000Z</time></trkpt>
        <trkpt lat="29.564311" lon="103.421892"><ele>788.40656</ele><time>2026-05-29T01:35:47.000Z</time></trkpt>
        <trkpt lat="29.564325" lon="103.421954"><ele>788.49725</ele><time>2026-05-29T01:35:53.000Z</time></trkpt>
        <trkpt lat="29.564329" lon="103.422009"><ele>788.1918</ele><time>2026-05-29T01:35:59.000Z</time></trkpt>
        <trkpt lat="29.564297" lon="103.422056"><ele>779.6102</ele><time>2026-05-29T01:36:13.000Z</time></trkpt>
        <trkpt lat="29.564332" lon="103.422104"><ele>778.59906</ele><time>2026-05-29T01:36:23.000Z</time></trkpt>
        <trkpt lat="29.564358" lon="103.422156"><ele>773.9995</ele><time>2026-05-29T01:36:34.000Z</time></trkpt>
        <trkpt lat="29.564377" lon="103.422203"><ele>774.7687</ele><time>2026-05-29T01:36:39.000Z</time></trkpt>
        <trkpt lat="29.564356" lon="103.422268"><ele>771.79333</ele><time>2026-05-29T01:36:46.000Z</time></trkpt>
        <trkpt lat="29.564335" lon="103.422316"><ele>771.5493</ele><time>2026-05-29T01:36:53.000Z</time></trkpt>
        <trkpt lat="29.564363" lon="103.42237"><ele>774.17957</ele><time>2026-05-29T01:37:02.000Z</time></trkpt>
        <trkpt lat="29.564377" lon="103.422433"><ele>771.5589</ele><time>2026-05-29T01:37:10.000Z</time></trkpt>
        <trkpt lat="29.564376" lon="103.422491"><ele>768.45074</ele><time>2026-05-29T01:37:24.000Z</time></trkpt>
        <trkpt lat="29.564404" lon="103.422537"><ele>761.04224</ele><time>2026-05-29T01:37:41.000Z</time></trkpt>
        <trkpt lat="29.564378" lon="103.42259"><ele>762.2912</ele><time>2026-05-29T01:37:52.000Z</time></trkpt>
        <trkpt lat="29.564387" lon="103.422645"><ele>763.7582</ele><time>2026-05-29T01:37:59.000Z</time></trkpt>
        <trkpt lat="29.564407" lon="103.42271"><ele>765.236</ele><time>2026-05-29T01:38:03.000Z</time></trkpt>
        <trkpt lat="29.564439" lon="103.422771"><ele>763.8774</ele><time>2026-05-29T01:38:06.000Z</time></trkpt>
        <trkpt lat="29.564396" lon="103.422792"><ele>765.4586</ele><time>2026-05-29T01:38:21.000Z</time></trkpt>
        <trkpt lat="29.56436" lon="103.42284"><ele>760.8846</ele><time>2026-05-29T01:38:30.000Z</time></trkpt>
        <trkpt lat="29.564352" lon="103.422892"><ele>763.35114</ele><time>2026-05-29T01:38:41.000Z</time></trkpt>
        <trkpt lat="29.564327" lon="103.422937"><ele>764.03796</ele><time>2026-05-29T01:38:48.000Z</time></trkpt>
        <trkpt lat="29.564293" lon="103.422979"><ele>764.5091</ele><time>2026-05-29T01:38:53.000Z</time></trkpt>
        <trkpt lat="29.564282" lon="103.423031"><ele>768.9326</ele><time>2026-05-29T01:39:01.000Z</time></trkpt>
        <trkpt lat="29.564304" lon="103.423085"><ele>770.06256</ele><time>2026-05-29T01:39:09.000Z</time></trkpt>
        <trkpt lat="29.564278" lon="103.42313"><ele>769.5068</ele><time>2026-05-29T01:39:14.000Z</time></trkpt>
        <trkpt lat="29.564241" lon="103.42317"><ele>770.3017</ele><time>2026-05-29T01:39:30.000Z</time></trkpt>
        <trkpt lat="29.564197" lon="103.423208"><ele>769.3232</ele><time>2026-05-29T01:39:37.000Z</time></trkpt>
        <trkpt lat="29.564232" lon="103.423254"><ele>769.6625</ele><time>2026-05-29T01:39:41.000Z</time></trkpt>
        <trkpt lat="29.564279" lon="103.423258"><ele>765.7045</ele><time>2026-05-29T01:39:45.000Z</time></trkpt>
        <trkpt lat="29.564303" lon="103.423314"><ele>760.0267</ele><time>2026-05-29T01:39:50.000Z</time></trkpt>
        <trkpt lat="29.564321" lon="103.423365"><ele>746.19196</ele><time>2026-05-29T01:40:07.000Z</time></trkpt>
        <trkpt lat="29.564342" lon="103.423421"><ele>745.9613</ele><time>2026-05-29T01:40:11.000Z</time></trkpt>
        <trkpt lat="29.56438" lon="103.423453"><ele>744.75867</ele><time>2026-05-29T01:40:13.000Z</time></trkpt>
        <trkpt lat="29.564375" lon="103.423511"><ele>743.84314</ele><time>2026-05-29T01:40:21.000Z</time></trkpt>
        <trkpt lat="29.564364" lon="103.423563"><ele>742.91815</ele><time>2026-05-29T01:40:27.000Z</time></trkpt>
        <trkpt lat="29.564358" lon="103.423618"><ele>743.6479</ele><time>2026-05-29T01:40:32.000Z</time></trkpt>
        <trkpt lat="29.564358" lon="103.423679"><ele>745.25024</ele><time>2026-05-29T01:40:39.000Z</time></trkpt>
        <trkpt lat="29.564319" lon="103.42371"><ele>743.5896</ele><time>2026-05-29T01:40:44.000Z</time></trkpt>
        <trkpt lat="29.564356" lon="103.423744"><ele>744.07104</ele><time>2026-05-29T01:40:49.000Z</time></trkpt>
        <trkpt lat="29.56436" lon="103.423802"><ele>739.2762</ele><time>2026-05-29T01:40:58.000Z</time></trkpt>
        <trkpt lat="29.564358" lon="103.423855"><ele>737.04364</ele><time>2026-05-29T01:41:07.000Z</time></trkpt>
        <trkpt lat="29.564377" lon="103.423903"><ele>736.4206</ele><time>2026-05-29T01:41:13.000Z</time></trkpt>
        <trkpt lat="29.564388" lon="103.423962"><ele>734.12695</ele><time>2026-05-29T01:41:20.000Z</time></trkpt>
        <trkpt lat="29.564409" lon="103.424013"><ele>733.0722</ele><time>2026-05-29T01:41:25.000Z</time></trkpt>
        <trkpt lat="29.564418" lon="103.424077"><ele>733.99945</ele><time>2026-05-29T01:41:31.000Z</time></trkpt>
        <trkpt lat="29.564463" lon="103.424109"><ele>730.57385</ele><time>2026-05-29T01:41:42.000Z</time></trkpt>
        <trkpt lat="29.56449" lon="103.424157"><ele>727.9943</ele><time>2026-05-29T01:41:52.000Z</time></trkpt>
        <trkpt lat="29.564517" lon="103.424204"><ele>727.8598</ele><time>2026-05-29T01:42:03.000Z</time></trkpt>
        <trkpt lat="29.564532" lon="103.424255"><ele>728.98566</ele><time>2026-05-29T01:42:09.000Z</time></trkpt>
        <trkpt lat="29.564565" lon="103.424291"><ele>730.5745</ele><time>2026-05-29T01:42:15.000Z</time></trkpt>
        <trkpt lat="29.564581" lon="103.424339"><ele>726.04126</ele><time>2026-05-29T01:42:37.000Z</time></trkpt>
        <trkpt lat="29.564608" lon="103.424403"><ele>722.7771</ele><time>2026-05-29T01:42:48.000Z</time></trkpt>
        <trkpt lat="29.564602" lon="103.424461"><ele>718.9823</ele><time>2026-05-29T01:42:56.000Z</time></trkpt>
        <trkpt lat="29.564572" lon="103.424506"><ele>716.46844</ele><time>2026-05-29T01:43:01.000Z</time></trkpt>
        <trkpt lat="29.564574" lon="103.424566"><ele>715.50305</ele><time>2026-05-29T01:43:05.000Z</time></trkpt>
        <trkpt lat="29.564575" lon="103.42462"><ele>713.8576</ele><time>2026-05-29T01:43:14.000Z</time></trkpt>
        <trkpt lat="29.564554" lon="103.424676"><ele>713.20526</ele><time>2026-05-29T01:43:18.000Z</time></trkpt>
        <trkpt lat="29.564568" lon="103.424731"><ele>712.3443</ele><time>2026-05-29T01:43:26.000Z</time></trkpt>
        <trkpt lat="29.564552" lon="103.42478"><ele>712.23157</ele><time>2026-05-29T01:43:30.000Z</time></trkpt>
        <trkpt lat="29.564579" lon="103.424832"><ele>712.3157</ele><time>2026-05-29T01:43:36.000Z</time></trkpt>
        <trkpt lat="29.564609" lon="103.424872"><ele>711.92523</ele><time>2026-05-29T01:43:41.000Z</time></trkpt>
        <trkpt lat="29.564622" lon="103.424927"><ele>709.6232</ele><time>2026-05-29T01:43:48.000Z</time></trkpt>
        <trkpt lat="29.564651" lon="103.42497"><ele>704.4158</ele><time>2026-05-29T01:43:56.000Z</time></trkpt>
        <trkpt lat="29.564662" lon="103.425023"><ele>701.0901</ele><time>2026-05-29T01:44:07.000Z</time></trkpt>
        <trkpt lat="29.564716" lon="103.425034"><ele>701.054</ele><time>2026-05-29T01:44:13.000Z</time></trkpt>
        <trkpt lat="29.564726" lon="103.425087"><ele>699.4431</ele><time>2026-05-29T01:44:23.000Z</time></trkpt>
        <trkpt lat="29.564712" lon="103.425142"><ele>699.78235</ele><time>2026-05-29T01:44:30.000Z</time></trkpt>
        <trkpt lat="29.564741" lon="103.42519"><ele>700.1193</ele><time>2026-05-29T01:44:35.000Z</time></trkpt>
        <trkpt lat="29.56478" lon="103.425224"><ele>700.1277</ele><time>2026-05-29T01:44:40.000Z</time></trkpt>
        <trkpt lat="29.564826" lon="103.425252"><ele>701.4449</ele><time>2026-05-29T01:44:44.000Z</time></trkpt>
        <trkpt lat="29.564863" lon="103.42529"><ele>701.33234</ele><time>2026-05-29T01:44:48.000Z</time></trkpt>
        <trkpt lat="29.564891" lon="103.425338"><ele>700.83185</ele><time>2026-05-29T01:44:53.000Z</time></trkpt>
        <trkpt lat="29.564919" lon="103.425384"><ele>701.78864</ele><time>2026-05-29T01:44:58.000Z</time></trkpt>
        <trkpt lat="29.564964" lon="103.425426"><ele>702.2988</ele><time>2026-05-29T01:45:06.000Z</time></trkpt>
        <trkpt lat="29.564975" lon="103.425484"><ele>703.33527</ele><time>2026-05-29T01:45:11.000Z</time></trkpt>
        <trkpt lat="29.565008" lon="103.425525"><ele>703.9707</ele><time>2026-05-29T01:45:15.000Z</time></trkpt>
        <trkpt lat="29.565045" lon="103.425562"><ele>704.70795</ele><time>2026-05-29T01:45:19.000Z</time></trkpt>
        <trkpt lat="29.565072" lon="103.425609"><ele>704.5202</ele><time>2026-05-29T01:45:24.000Z</time></trkpt>
        <trkpt lat="29.565112" lon="103.425648"><ele>703.9015</ele><time>2026-05-29T01:45:28.000Z</time></trkpt>
        <trkpt lat="29.565149" lon="103.425678"><ele>703.176</ele><time>2026-05-29T01:45:31.000Z</time></trkpt>
        <trkpt lat="29.565193" lon="103.425706"><ele>700.24005</ele><time>2026-05-29T01:45:36.000Z</time></trkpt>
        <trkpt lat="29.56518" lon="103.42576"><ele>697.936</ele><time>2026-05-29T01:45:42.000Z</time></trkpt>
        <trkpt lat="29.565153" lon="103.425804"><ele>698.00287</ele><time>2026-05-29T01:45:52.000Z</time></trkpt>
        <trkpt lat="29.565103" lon="103.425818"><ele>697.2053</ele><time>2026-05-29T01:46:01.000Z</time></trkpt>
        <trkpt lat="29.565059" lon="103.425828"><ele>700.78766</ele><time>2026-05-29T01:46:10.000Z</time></trkpt>
        <trkpt lat="29.56505" lon="103.425879"><ele>701.4172</ele><time>2026-05-29T01:46:29.000Z</time></trkpt>
        <trkpt lat="29.56508" lon="103.425838"><ele>699.1924</ele><time>2026-05-29T01:48:59.000Z</time></trkpt>
        <trkpt lat="29.565121" lon="103.425806"><ele>696.7811</ele><time>2026-05-29T01:49:38.000Z</time></trkpt>
        <trkpt lat="29.56515" lon="103.425822"><ele>695.0293</ele><time>2026-05-29T01:49:52.000Z</time></trkpt>
        <trkpt lat="29.565136" lon="103.425871"><ele>692.35016</ele><time>2026-05-29T01:50:01.000Z</time></trkpt>
        <trkpt lat="29.565112" lon="103.425917"><ele>691.2853</ele><time>2026-05-29T01:50:11.000Z</time></trkpt>
        <trkpt lat="29.565106" lon="103.425972"><ele>688.1447</ele><time>2026-05-29T01:50:20.000Z</time></trkpt>
        <trkpt lat="29.565083" lon="103.426024"><ele>684.4943</ele><time>2026-05-29T01:50:36.000Z</time></trkpt>
        <trkpt lat="29.565082" lon="103.426078"><ele>682.3754</ele><time>2026-05-29T01:50:45.000Z</time></trkpt>
        <trkpt lat="29.565064" lon="103.426127"><ele>680.0213</ele><time>2026-05-29T01:50:56.000Z</time></trkpt>
        <trkpt lat="29.565053" lon="103.42618"><ele>678.3982</ele><time>2026-05-29T01:51:07.000Z</time></trkpt>
        <trkpt lat="29.565053" lon="103.426235"><ele>676.70056</ele><time>2026-05-29T01:51:19.000Z</time></trkpt>
        <trkpt lat="29.56504" lon="103.426287"><ele>676.3001</ele><time>2026-05-29T01:51:27.000Z</time></trkpt>
        <trkpt lat="29.565028" lon="103.42634"><ele>674.1989</ele><time>2026-05-29T01:51:39.000Z</time></trkpt>
        <trkpt lat="29.564989" lon="103.426384"><ele>670.82635</ele><time>2026-05-29T01:51:50.000Z</time></trkpt>
        <trkpt lat="29.564999" lon="103.426446"><ele>670.2647</ele><time>2026-05-29T01:51:57.000Z</time></trkpt>
        <trkpt lat="29.564991" lon="103.4265"><ele>671.19556</ele><time>2026-05-29T01:52:09.000Z</time></trkpt>
        <trkpt lat="29.564986" lon="103.426556"><ele>668.76196</ele><time>2026-05-29T01:52:21.000Z</time></trkpt>
        <trkpt lat="29.564974" lon="103.426606"><ele>664.88074</ele><time>2026-05-29T01:52:30.000Z</time></trkpt>
        <trkpt lat="29.564952" lon="103.426652"><ele>663.23047</ele><time>2026-05-29T01:52:44.000Z</time></trkpt>
        <trkpt lat="29.564928" lon="103.426706"><ele>658.7809</ele><time>2026-05-29T01:52:57.000Z</time></trkpt>
        <trkpt lat="29.564892" lon="103.426742"><ele>657.43787</ele><time>2026-05-29T01:53:04.000Z</time></trkpt>
        <trkpt lat="29.564906" lon="103.4268"><ele>658.34015</ele><time>2026-05-29T01:53:16.000Z</time></trkpt>
        <trkpt lat="29.564893" lon="103.426851"><ele>658.25885</ele><time>2026-05-29T01:53:21.000Z</time></trkpt>
        <trkpt lat="29.564921" lon="103.426892"><ele>658.2141</ele><time>2026-05-29T01:53:25.000Z</time></trkpt>
        <trkpt lat="29.564945" lon="103.426941"><ele>658.2673</ele><time>2026-05-29T01:53:28.000Z</time></trkpt>
        <trkpt lat="29.564985" lon="103.426976"><ele>658.0615</ele><time>2026-05-29T01:53:32.000Z</time></trkpt>
        <trkpt lat="29.565036" lon="103.426992"><ele>658.0006</ele><time>2026-05-29T01:53:35.000Z</time></trkpt>
        <trkpt lat="29.565075" lon="103.427027"><ele>657.8655</ele><time>2026-05-29T01:53:37.000Z</time></trkpt>
        <trkpt lat="29.565119" lon="103.427041"><ele>658.86237</ele><time>2026-05-29T01:53:39.000Z</time></trkpt>
        <trkpt lat="29.565159" lon="103.427066"><ele>660.0596</ele><time>2026-05-29T01:53:43.000Z</time></trkpt>
        <trkpt lat="29.565203" lon="103.427102"><ele>661.85486</ele><time>2026-05-29T01:53:48.000Z</time></trkpt>
        <trkpt lat="29.565238" lon="103.427134"><ele>662.1378</ele><time>2026-05-29T01:53:52.000Z</time></trkpt>
        <trkpt lat="29.565266" lon="103.427187"><ele>662.2937</ele><time>2026-05-29T01:53:56.000Z</time></trkpt>
        <trkpt lat="29.565275" lon="103.427246"><ele>662.5509</ele><time>2026-05-29T01:53:59.000Z</time></trkpt>
        <trkpt lat="29.565289" lon="103.4273"><ele>660.7536</ele><time>2026-05-29T01:54:02.000Z</time></trkpt>
        <trkpt lat="29.565302" lon="103.427376"><ele>659.5375</ele><time>2026-05-29T01:54:05.000Z</time></trkpt>
        <trkpt lat="29.565314" lon="103.427442"><ele>659.0193</ele><time>2026-05-29T01:54:08.000Z</time></trkpt>
        <trkpt lat="29.565303" lon="103.427493"><ele>659.2121</ele><time>2026-05-29T01:54:10.000Z</time></trkpt>
        <trkpt lat="29.565336" lon="103.427547"><ele>657.9179</ele><time>2026-05-29T01:54:13.000Z</time></trkpt>
        <trkpt lat="29.56535" lon="103.4276"><ele>657.42725</ele><time>2026-05-29T01:54:17.000Z</time></trkpt>
        <trkpt lat="29.565359" lon="103.427654"><ele>657.73364</ele><time>2026-05-29T01:54:19.000Z</time></trkpt>
        <trkpt lat="29.565375" lon="103.427715"><ele>658.88855</ele><time>2026-05-29T01:54:22.000Z</time></trkpt>
        <trkpt lat="29.565388" lon="103.427777"><ele>660.5277</ele><time>2026-05-29T01:54:25.000Z</time></trkpt>
        <trkpt lat="29.565403" lon="103.42784"><ele>662.40094</ele><time>2026-05-29T01:54:28.000Z</time></trkpt>
        <trkpt lat="29.565398" lon="103.427895"><ele>663.3811</ele><time>2026-05-29T01:54:31.000Z</time></trkpt>
        <trkpt lat="29.565426" lon="103.427955"><ele>663.84827</ele><time>2026-05-29T01:54:34.000Z</time></trkpt>
        <trkpt lat="29.565445" lon="103.428002"><ele>664.2393</ele><time>2026-05-29T01:54:37.000Z</time></trkpt>
        <trkpt lat="29.565442" lon="103.42807"><ele>664.61316</ele><time>2026-05-29T01:54:41.000Z</time></trkpt>
        <trkpt lat="29.565423" lon="103.428122"><ele>666.1169</ele><time>2026-05-29T01:54:45.000Z</time></trkpt>
        <trkpt lat="29.565373" lon="103.428128"><ele>665.50885</ele><time>2026-05-29T01:54:48.000Z</time></trkpt>
        <trkpt lat="29.565322" lon="103.428137"><ele>664.49585</ele><time>2026-05-29T01:54:52.000Z</time></trkpt>
        <trkpt lat="29.565267" lon="103.428156"><ele>663.625</ele><time>2026-05-29T01:54:57.000Z</time></trkpt>
        <trkpt lat="29.565226" lon="103.42818"><ele>660.82947</ele><time>2026-05-29T01:55:01.000Z</time></trkpt>
        <trkpt lat="29.565185" lon="103.42822"><ele>659.6632</ele><time>2026-05-29T01:55:05.000Z</time></trkpt>
        <trkpt lat="29.565148" lon="103.428259"><ele>659.77594</ele><time>2026-05-29T01:55:09.000Z</time></trkpt>
        <trkpt lat="29.565106" lon="103.428299"><ele>658.4537</ele><time>2026-05-29T01:55:13.000Z</time></trkpt>
        <trkpt lat="29.565056" lon="103.42833"><ele>657.9195</ele><time>2026-05-29T01:55:17.000Z</time></trkpt>
        <trkpt lat="29.565025" lon="103.428397"><ele>657.66174</ele><time>2026-05-29T01:55:21.000Z</time></trkpt>
        <trkpt lat="29.564976" lon="103.428427"><ele>655.8485</ele><time>2026-05-29T01:55:25.000Z</time></trkpt>
        <trkpt lat="29.564929" lon="103.428436"><ele>655.30676</ele><time>2026-05-29T01:55:28.000Z</time></trkpt>
        <trkpt lat="29.564899" lon="103.428488"><ele>654.72595</ele><time>2026-05-29T01:55:31.000Z</time></trkpt>
        <trkpt lat="29.564856" lon="103.428515"><ele>651.2852</ele><time>2026-05-29T01:55:34.000Z</time></trkpt>
        <trkpt lat="29.564814" lon="103.42854"><ele>649.76483</ele><time>2026-05-29T01:55:37.000Z</time></trkpt>
        <trkpt lat="29.564804" lon="103.428593"><ele>647.8414</ele><time>2026-05-29T01:55:40.000Z</time></trkpt>
        <trkpt lat="29.56482" lon="103.428646"><ele>647.23004</ele><time>2026-05-29T01:55:43.000Z</time></trkpt>
        <trkpt lat="29.564813" lon="103.428699"><ele>643.9574</ele><time>2026-05-29T01:55:47.000Z</time></trkpt>
        <trkpt lat="29.564823" lon="103.428754"><ele>640.1292</ele><time>2026-05-29T01:55:51.000Z</time></trkpt>
        <trkpt lat="29.564838" lon="103.428817"><ele>638.105</ele><time>2026-05-29T01:55:55.000Z</time></trkpt>
        <trkpt lat="29.564846" lon="103.428885"><ele>637.72546</ele><time>2026-05-29T01:55:59.000Z</time></trkpt>
        <trkpt lat="29.56485" lon="103.428953"><ele>636.60065</ele><time>2026-05-29T01:56:03.000Z</time></trkpt>
        <trkpt lat="29.564855" lon="103.429016"><ele>636.7979</ele><time>2026-05-29T01:56:07.000Z</time></trkpt>
        <trkpt lat="29.564855" lon="103.429078"><ele>634.9658</ele><time>2026-05-29T01:56:11.000Z</time></trkpt>
        <trkpt lat="29.564858" lon="103.429148"><ele>636.19635</ele><time>2026-05-29T01:56:15.000Z</time></trkpt>
        <trkpt lat="29.564868" lon="103.429199"><ele>635.09753</ele><time>2026-05-29T01:56:18.000Z</time></trkpt>
        <trkpt lat="29.564889" lon="103.429245"><ele>632.2911</ele><time>2026-05-29T01:56:22.000Z</time></trkpt>
        <trkpt lat="29.564905" lon="103.429311"><ele>632.0278</ele><time>2026-05-29T01:56:26.000Z</time></trkpt>
        <trkpt lat="29.564909" lon="103.429364"><ele>632.9555</ele><time>2026-05-29T01:56:29.000Z</time></trkpt>
        <trkpt lat="29.564927" lon="103.429422"><ele>631.3687</ele><time>2026-05-29T01:56:33.000Z</time></trkpt>
        <trkpt lat="29.564973" lon="103.429463"><ele>629.1696</ele><time>2026-05-29T01:56:37.000Z</time></trkpt>
        <trkpt lat="29.564993" lon="103.42951"><ele>628.8515</ele><time>2026-05-29T01:56:40.000Z</time></trkpt>
        <trkpt lat="29.565032" lon="103.429538"><ele>628.099</ele><time>2026-05-29T01:56:43.000Z</time></trkpt>
        <trkpt lat="29.565058" lon="103.429592"><ele>626.9778</ele><time>2026-05-29T01:56:47.000Z</time></trkpt>
        <trkpt lat="29.565075" lon="103.429649"><ele>627.0665</ele><time>2026-05-29T01:56:51.000Z</time></trkpt>
        <trkpt lat="29.565102" lon="103.429703"><ele>626.2799</ele><time>2026-05-29T01:56:55.000Z</time></trkpt>
        <trkpt lat="29.565133" lon="103.429744"><ele>625.06854</ele><time>2026-05-29T01:56:59.000Z</time></trkpt>
        <trkpt lat="29.565155" lon="103.429794"><ele>625.0514</ele><time>2026-05-29T01:57:03.000Z</time></trkpt>
        <trkpt lat="29.565154" lon="103.429859"><ele>625.89276</ele><time>2026-05-29T01:57:07.000Z</time></trkpt>
        <trkpt lat="29.565188" lon="103.429913"><ele>626.7179</ele><time>2026-05-29T01:57:12.000Z</time></trkpt>
        <trkpt lat="29.565212" lon="103.429963"><ele>625.1463</ele><time>2026-05-29T01:57:16.000Z</time></trkpt>
        <trkpt lat="29.565228" lon="103.430016"><ele>625.48224</ele><time>2026-05-29T01:57:20.000Z</time></trkpt>
        <trkpt lat="29.565213" lon="103.43007"><ele>626.10284</ele><time>2026-05-29T01:57:24.000Z</time></trkpt>
        <trkpt lat="29.565228" lon="103.430128"><ele>623.71924</ele><time>2026-05-29T01:57:28.000Z</time></trkpt>
        <trkpt lat="29.56524" lon="103.430188"><ele>622.40485</ele><time>2026-05-29T01:57:35.000Z</time></trkpt>
        <trkpt lat="29.56525" lon="103.430239"><ele>621.6077</ele><time>2026-05-29T01:57:39.000Z</time></trkpt>
        <trkpt lat="29.565253" lon="103.430299"><ele>621.6062</ele><time>2026-05-29T01:57:44.000Z</time></trkpt>
        <trkpt lat="29.565258" lon="103.430363"><ele>620.9857</ele><time>2026-05-29T01:57:48.000Z</time></trkpt>
        <trkpt lat="29.565254" lon="103.430415"><ele>620.7477</ele><time>2026-05-29T01:57:52.000Z</time></trkpt>
        <trkpt lat="29.565262" lon="103.430472"><ele>621.4413</ele><time>2026-05-29T01:57:57.000Z</time></trkpt>
        <trkpt lat="29.565276" lon="103.430536"><ele>621.855</ele><time>2026-05-29T01:58:01.000Z</time></trkpt>
        <trkpt lat="29.565301" lon="103.430594"><ele>623.19293</ele><time>2026-05-29T01:58:05.000Z</time></trkpt>
        <trkpt lat="29.565325" lon="103.430647"><ele>623.2156</ele><time>2026-05-29T01:58:09.000Z</time></trkpt>
        <trkpt lat="29.565325" lon="103.430701"><ele>623.80664</ele><time>2026-05-29T01:58:13.000Z</time></trkpt>
        <trkpt lat="29.56532" lon="103.430755"><ele>626.4501</ele><time>2026-05-29T01:58:17.000Z</time></trkpt>
        <trkpt lat="29.56532" lon="103.43081"><ele>628.80414</ele><time>2026-05-29T01:58:21.000Z</time></trkpt>
        <trkpt lat="29.565323" lon="103.430873"><ele>630.8152</ele><time>2026-05-29T01:58:25.000Z</time></trkpt>
        <trkpt lat="29.565348" lon="103.430923"><ele>631.7325</ele><time>2026-05-29T01:58:29.000Z</time></trkpt>
        <trkpt lat="29.565388" lon="103.430947"><ele>628.94366</ele><time>2026-05-29T01:58:36.000Z</time></trkpt>
        <trkpt lat="29.565431" lon="103.430977"><ele>625.3196</ele><time>2026-05-29T01:58:42.000Z</time></trkpt>
        <trkpt lat="29.565462" lon="103.431018"><ele>624.03143</ele><time>2026-05-29T01:58:45.000Z</time></trkpt>
        <trkpt lat="29.565483" lon="103.431076"><ele>625.43933</ele><time>2026-05-29T01:58:49.000Z</time></trkpt>
        <trkpt lat="29.565485" lon="103.431142"><ele>628.61084</ele><time>2026-05-29T01:58:53.000Z</time></trkpt>
        <trkpt lat="29.565471" lon="103.431209"><ele>628.39294</ele><time>2026-05-29T01:58:57.000Z</time></trkpt>
        <trkpt lat="29.565472" lon="103.431269"><ele>627.0882</ele><time>2026-05-29T01:59:01.000Z</time></trkpt>
        <trkpt lat="29.565482" lon="103.431323"><ele>624.23114</ele><time>2026-05-29T01:59:05.000Z</time></trkpt>
        <trkpt lat="29.565477" lon="103.431386"><ele>623.895</ele><time>2026-05-29T01:59:09.000Z</time></trkpt>
        <trkpt lat="29.565427" lon="103.431375"><ele>624.42487</ele><time>2026-05-29T01:59:14.000Z</time></trkpt>
        <trkpt lat="29.56542" lon="103.431426"><ele>624.80457</ele><time>2026-05-29T01:59:18.000Z</time></trkpt>
        <trkpt lat="29.565423" lon="103.431485"><ele>623.61084</ele><time>2026-05-29T01:59:23.000Z</time></trkpt>
        <trkpt lat="29.565422" lon="103.431538"><ele>622.1913</ele><time>2026-05-29T01:59:28.000Z</time></trkpt>
        <trkpt lat="29.56539" lon="103.431579"><ele>621.3674</ele><time>2026-05-29T01:59:32.000Z</time></trkpt>
        <trkpt lat="29.565375" lon="103.431632"><ele>621.73114</ele><time>2026-05-29T01:59:37.000Z</time></trkpt>
        <trkpt lat="29.565367" lon="103.431695"><ele>621.5501</ele><time>2026-05-29T01:59:42.000Z</time></trkpt>
        <trkpt lat="29.565325" lon="103.431722"><ele>615.80975</ele><time>2026-05-29T01:59:56.000Z</time></trkpt>
        <trkpt lat="29.565298" lon="103.431777"><ele>613.82117</ele><time>2026-05-29T02:00:02.000Z</time></trkpt>
        <trkpt lat="29.565272" lon="103.431827"><ele>613.2947</ele><time>2026-05-29T02:00:06.000Z</time></trkpt>
        <trkpt lat="29.565247" lon="103.431877"><ele>612.4785</ele><time>2026-05-29T02:00:10.000Z</time></trkpt>
        <trkpt lat="29.565246" lon="103.43194"><ele>610.7759</ele><time>2026-05-29T02:00:14.000Z</time></trkpt>
        <trkpt lat="29.565261" lon="103.431992"><ele>609.76227</ele><time>2026-05-29T02:00:23.000Z</time></trkpt>
        <trkpt lat="29.565298" lon="103.432044"><ele>608.82263</ele><time>2026-05-29T02:00:28.000Z</time></trkpt>
        <trkpt lat="29.565322" lon="103.432097"><ele>605.68634</ele><time>2026-05-29T02:00:33.000Z</time></trkpt>
        <trkpt lat="29.565337" lon="103.432162"><ele>604.8963</ele><time>2026-05-29T02:00:37.000Z</time></trkpt>
        <trkpt lat="29.565364" lon="103.432223"><ele>604.5557</ele><time>2026-05-29T02:00:40.000Z</time></trkpt>
        <trkpt lat="29.565388" lon="103.432282"><ele>603.2578</ele><time>2026-05-29T02:00:44.000Z</time></trkpt>
        <trkpt lat="29.565383" lon="103.43234"><ele>602.73755</ele><time>2026-05-29T02:00:48.000Z</time></trkpt>
        <trkpt lat="29.565399" lon="103.43239"><ele>602.29486</ele><time>2026-05-29T02:00:52.000Z</time></trkpt>
        <trkpt lat="29.565433" lon="103.432437"><ele>601.40765</ele><time>2026-05-29T02:00:56.000Z</time></trkpt>
        <trkpt lat="29.565475" lon="103.432484"><ele>597.88715</ele><time>2026-05-29T02:01:01.000Z</time></trkpt>
        <trkpt lat="29.565524" lon="103.432482"><ele>600.2404</ele><time>2026-05-29T02:01:04.000Z</time></trkpt>
        <trkpt lat="29.565575" lon="103.432491"><ele>601.87994</ele><time>2026-05-29T02:01:08.000Z</time></trkpt>
        <trkpt lat="29.56563" lon="103.432507"><ele>601.4187</ele><time>2026-05-29T02:01:13.000Z</time></trkpt>
        <trkpt lat="29.565675" lon="103.432538"><ele>601.74304</ele><time>2026-05-29T02:01:17.000Z</time></trkpt>
        <trkpt lat="29.565711" lon="103.432587"><ele>601.22784</ele><time>2026-05-29T02:01:21.000Z</time></trkpt>
        <trkpt lat="29.565687" lon="103.432659"><ele>600.64026</ele><time>2026-05-29T02:01:24.000Z</time></trkpt>
        <trkpt lat="29.565629" lon="103.432713"><ele>600.3521</ele><time>2026-05-29T02:01:26.000Z</time></trkpt>
        <trkpt lat="29.565575" lon="103.432745"><ele>600.34485</ele><time>2026-05-29T02:01:28.000Z</time></trkpt>
        <trkpt lat="29.565539" lon="103.432789"><ele>599.9374</ele><time>2026-05-29T02:01:30.000Z</time></trkpt>
        <trkpt lat="29.565535" lon="103.432851"><ele>599.0304</ele><time>2026-05-29T02:01:34.000Z</time></trkpt>
        <trkpt lat="29.565548" lon="103.432914"><ele>598.63727</ele><time>2026-05-29T02:01:40.000Z</time></trkpt>
        <trkpt lat="29.565563" lon="103.43297"><ele>598.68146</ele><time>2026-05-29T02:01:45.000Z</time></trkpt>
        <trkpt lat="29.565596" lon="103.433018"><ele>597.90295</ele><time>2026-05-29T02:01:49.000Z</time></trkpt>
        <trkpt lat="29.565646" lon="103.433045"><ele>597.52795</ele><time>2026-05-29T02:01:53.000Z</time></trkpt>
        <trkpt lat="29.565678" lon="103.433082"><ele>598.33344</ele><time>2026-05-29T02:01:57.000Z</time></trkpt>
        <trkpt lat="29.565682" lon="103.433142"><ele>598.71594</ele><time>2026-05-29T02:02:02.000Z</time></trkpt>
        <trkpt lat="29.565687" lon="103.433201"><ele>597.9232</ele><time>2026-05-29T02:02:06.000Z</time></trkpt>
        <trkpt lat="29.565702" lon="103.433259"><ele>596.7731</ele><time>2026-05-29T02:02:13.000Z</time></trkpt>
        <trkpt lat="29.565695" lon="103.433316"><ele>597.6639</ele><time>2026-05-29T02:02:20.000Z</time></trkpt>
        <trkpt lat="29.565696" lon="103.433371"><ele>598.38116</ele><time>2026-05-29T02:02:23.000Z</time></trkpt>
        <trkpt lat="29.565704" lon="103.433432"><ele>599.7724</ele><time>2026-05-29T02:02:26.000Z</time></trkpt>
        <trkpt lat="29.56572" lon="103.433491"><ele>599.1251</ele><time>2026-05-29T02:02:30.000Z</time></trkpt>
        <trkpt lat="29.565714" lon="103.433545"><ele>597.66534</ele><time>2026-05-29T02:02:35.000Z</time></trkpt>
        <trkpt lat="29.565711" lon="103.433608"><ele>597.5868</ele><time>2026-05-29T02:02:40.000Z</time></trkpt>
        <trkpt lat="29.565708" lon="103.433669"><ele>597.2579</ele><time>2026-05-29T02:02:44.000Z</time></trkpt>
        <trkpt lat="29.565706" lon="103.433731"><ele>596.4661</ele><time>2026-05-29T02:02:48.000Z</time></trkpt>
        <trkpt lat="29.565693" lon="103.433787"><ele>595.3298</ele><time>2026-05-29T02:02:54.000Z</time></trkpt>
        <trkpt lat="29.565686" lon="103.433841"><ele>594.5933</ele><time>2026-05-29T02:02:59.000Z</time></trkpt>
        <trkpt lat="29.565689" lon="103.4339"><ele>593.3745</ele><time>2026-05-29T02:03:04.000Z</time></trkpt>
        <trkpt lat="29.565694" lon="103.433951"><ele>593.99274</ele><time>2026-05-29T02:03:09.000Z</time></trkpt>
        <trkpt lat="29.565707" lon="103.434007"><ele>594.5756</ele><time>2026-05-29T02:03:13.000Z</time></trkpt>
        <trkpt lat="29.565731" lon="103.434055"><ele>592.902</ele><time>2026-05-29T02:03:20.000Z</time></trkpt>
        <trkpt lat="29.565731" lon="103.434118"><ele>592.51184</ele><time>2026-05-29T02:03:24.000Z</time></trkpt>
        <trkpt lat="29.565749" lon="103.434173"><ele>590.0136</ele><time>2026-05-29T02:03:29.000Z</time></trkpt>
        <trkpt lat="29.565734" lon="103.434223"><ele>587.1335</ele><time>2026-05-29T02:03:36.000Z</time></trkpt>
        <trkpt lat="29.565708" lon="103.43427"><ele>586.0919</ele><time>2026-05-29T02:03:43.000Z</time></trkpt>
        <trkpt lat="29.565678" lon="103.434317"><ele>583.9745</ele><time>2026-05-29T02:03:47.000Z</time></trkpt>
        <trkpt lat="29.565641" lon="103.434355"><ele>585.5885</ele><time>2026-05-29T02:03:50.000Z</time></trkpt>
        <trkpt lat="29.565595" lon="103.434383"><ele>586.70154</ele><time>2026-05-29T02:03:54.000Z</time></trkpt>
        <trkpt lat="29.565551" lon="103.434416"><ele>587.8241</ele><time>2026-05-29T02:03:57.000Z</time></trkpt>
        <trkpt lat="29.565526" lon="103.434463"><ele>588.69116</ele><time>2026-05-29T02:04:01.000Z</time></trkpt>
        <trkpt lat="29.565503" lon="103.434522"><ele>589.11316</ele><time>2026-05-29T02:04:05.000Z</time></trkpt>
        <trkpt lat="29.565496" lon="103.434576"><ele>588.3162</ele><time>2026-05-29T02:04:10.000Z</time></trkpt>
        <trkpt lat="29.565498" lon="103.434643"><ele>589.0287</ele><time>2026-05-29T02:04:14.000Z</time></trkpt>
        <trkpt lat="29.565504" lon="103.434711"><ele>590.3366</ele><time>2026-05-29T02:04:18.000Z</time></trkpt>
        <trkpt lat="29.565523" lon="103.434759"><ele>590.521</ele><time>2026-05-29T02:04:21.000Z</time></trkpt>
        <trkpt lat="29.565546" lon="103.434805"><ele>590.33936</ele><time>2026-05-29T02:04:25.000Z</time></trkpt>
        <trkpt lat="29.565577" lon="103.434851"><ele>589.79565</ele><time>2026-05-29T02:04:30.000Z</time></trkpt>
        <trkpt lat="29.56563" lon="103.434879"><ele>581.838</ele><time>2026-05-29T02:04:40.000Z</time></trkpt>
        <trkpt lat="29.565665" lon="103.434921"><ele>583.381</ele><time>2026-05-29T02:04:45.000Z</time></trkpt>
        <trkpt lat="29.5657" lon="103.434958"><ele>583.6028</ele><time>2026-05-29T02:04:51.000Z</time></trkpt>
        <trkpt lat="29.565733" lon="103.435009"><ele>584.2163</ele><time>2026-05-29T02:04:58.000Z</time></trkpt>
        <trkpt lat="29.565765" lon="103.43505"><ele>585.8002</ele><time>2026-05-29T02:05:00.000Z</time></trkpt>
        <trkpt lat="29.565814" lon="103.435095"><ele>587.5043</ele><time>2026-05-29T02:05:06.000Z</time></trkpt>
        <trkpt lat="29.565832" lon="103.435142"><ele>587.34827</ele><time>2026-05-29T02:05:12.000Z</time></trkpt>
        <trkpt lat="29.565877" lon="103.435154"><ele>585.7626</ele><time>2026-05-29T02:05:21.000Z</time></trkpt>
        <trkpt lat="29.56589" lon="103.43521"><ele>584.3027</ele><time>2026-05-29T02:05:28.000Z</time></trkpt>
        <trkpt lat="29.565919" lon="103.435255"><ele>584.5214</ele><time>2026-05-29T02:05:32.000Z</time></trkpt>
        <trkpt lat="29.56596" lon="103.435285"><ele>585.52954</ele><time>2026-05-29T02:05:40.000Z</time></trkpt>
        <trkpt lat="29.565997" lon="103.435336"><ele>585.89276</ele><time>2026-05-29T02:05:47.000Z</time></trkpt>
        <trkpt lat="29.565991" lon="103.435432"><ele>582.1195</ele><time>2026-05-29T02:07:03.000Z</time></trkpt>
        <trkpt lat="29.565996" lon="103.435487"><ele>583.3002</ele><time>2026-05-29T02:07:07.000Z</time></trkpt>
        <trkpt lat="29.565998" lon="103.435541"><ele>581.686</ele><time>2026-05-29T02:07:12.000Z</time></trkpt>
        <trkpt lat="29.565993" lon="103.435596"><ele>580.40283</ele><time>2026-05-29T02:07:17.000Z</time></trkpt>
        <trkpt lat="29.566016" lon="103.435646"><ele>578.4434</ele><time>2026-05-29T02:07:25.000Z</time></trkpt>
        <trkpt lat="29.565984" lon="103.435604"><ele>577.2088</ele><time>2026-05-29T02:07:38.000Z</time></trkpt>
        <trkpt lat="29.565964" lon="103.435556"><ele>576.4596</ele><time>2026-05-29T02:07:42.000Z</time></trkpt>
        <trkpt lat="29.565937" lon="103.435499"><ele>576.05725</ele><time>2026-05-29T02:07:47.000Z</time></trkpt>
        <trkpt lat="29.565894" lon="103.435463"><ele>577.22675</ele><time>2026-05-29T02:07:54.000Z</time></trkpt>
        <trkpt lat="29.565861" lon="103.435421"><ele>578.3866</ele><time>2026-05-29T02:07:58.000Z</time></trkpt>
        <trkpt lat="29.565837" lon="103.435368"><ele>576.90204</ele><time>2026-05-29T02:08:02.000Z</time></trkpt>
        <trkpt lat="29.565812" lon="103.435319"><ele>577.1047</ele><time>2026-05-29T02:08:07.000Z</time></trkpt>
        <trkpt lat="29.565791" lon="103.435268"><ele>575.2155</ele><time>2026-05-29T02:08:13.000Z</time></trkpt>
        <trkpt lat="29.565746" lon="103.435252"><ele>581.3899</ele><time>2026-05-29T02:08:25.000Z</time></trkpt>
        <trkpt lat="29.565717" lon="103.435211"><ele>585.38995</ele><time>2026-05-29T02:08:44.000Z</time></trkpt>
        <trkpt lat="29.565715" lon="103.435273"><ele>584.7659</ele><time>2026-05-29T02:09:07.000Z</time></trkpt>
        <trkpt lat="29.565751" lon="103.435306"><ele>583.72235</ele><time>2026-05-29T02:09:14.000Z</time></trkpt>
        <trkpt lat="29.565779" lon="103.43535"><ele>582.36084</ele><time>2026-05-29T02:09:19.000Z</time></trkpt>
        <trkpt lat="29.565797" lon="103.435409"><ele>582.2139</ele><time>2026-05-29T02:09:24.000Z</time></trkpt>
        <trkpt lat="29.565819" lon="103.435459"><ele>580.3022</ele><time>2026-05-29T02:09:30.000Z</time></trkpt>
        <trkpt lat="29.565861" lon="103.435487"><ele>578.9868</ele><time>2026-05-29T02:09:38.000Z</time></trkpt>
        <trkpt lat="29.565866" lon="103.435539"><ele>578.86084</ele><time>2026-05-29T02:09:46.000Z</time></trkpt>
        <trkpt lat="29.565905" lon="103.435579"><ele>577.8267</ele><time>2026-05-29T02:10:11.000Z</time></trkpt>
        <trkpt lat="29.565928" lon="103.435629"><ele>576.8606</ele><time>2026-05-29T02:10:18.000Z</time></trkpt>
        <trkpt lat="29.565965" lon="103.435661"><ele>579.6277</ele><time>2026-05-29T02:10:31.000Z</time></trkpt>
        <trkpt lat="29.566013" lon="103.435666"><ele>581.42126</ele><time>2026-05-29T02:11:03.000Z</time></trkpt>
        <trkpt lat="29.566049" lon="103.435706"><ele>581.05786</ele><time>2026-05-29T02:11:09.000Z</time></trkpt>
        <trkpt lat="29.56605" lon="103.435764"><ele>579.8111</ele><time>2026-05-29T02:11:17.000Z</time></trkpt>
        <trkpt lat="29.566073" lon="103.435818"><ele>580.53345</ele><time>2026-05-29T02:11:24.000Z</time></trkpt>
        <trkpt lat="29.566087" lon="103.435871"><ele>578.6168</ele><time>2026-05-29T02:11:31.000Z</time></trkpt>
        <trkpt lat="29.566098" lon="103.435929"><ele>576.58514</ele><time>2026-05-29T02:11:40.000Z</time></trkpt>
        <trkpt lat="29.566118" lon="103.435977"><ele>575.0347</ele><time>2026-05-29T02:11:45.000Z</time></trkpt>
        <trkpt lat="29.566144" lon="103.436037"><ele>573.06384</ele><time>2026-05-29T02:11:52.000Z</time></trkpt>
        <trkpt lat="29.56616" lon="103.436087"><ele>574.893</ele><time>2026-05-29T02:11:58.000Z</time></trkpt>
        <trkpt lat="29.566188" lon="103.436135"><ele>573.34186</ele><time>2026-05-29T02:12:03.000Z</time></trkpt>
        <trkpt lat="29.56623" lon="103.436176"><ele>573.09265</ele><time>2026-05-29T02:12:08.000Z</time></trkpt>
        <trkpt lat="29.566228" lon="103.43623"><ele>572.57745</ele><time>2026-05-29T02:12:12.000Z</time></trkpt>
        <trkpt lat="29.566242" lon="103.436293"><ele>572.466</ele><time>2026-05-29T02:12:17.000Z</time></trkpt>
        <trkpt lat="29.566254" lon="103.436348"><ele>570.8612</ele><time>2026-05-29T02:12:21.000Z</time></trkpt>
        <trkpt lat="29.56628" lon="103.436396"><ele>569.36096</ele><time>2026-05-29T02:12:26.000Z</time></trkpt>
        <trkpt lat="29.566305" lon="103.436445"><ele>569.1263</ele><time>2026-05-29T02:12:30.000Z</time></trkpt>
        <trkpt lat="29.56632" lon="103.436503"><ele>568.8546</ele><time>2026-05-29T02:12:34.000Z</time></trkpt>
        <trkpt lat="29.566343" lon="103.436564"><ele>566.5384</ele><time>2026-05-29T02:12:38.000Z</time></trkpt>
        <trkpt lat="29.566369" lon="103.436611"><ele>566.9869</ele><time>2026-05-29T02:12:43.000Z</time></trkpt>
        <trkpt lat="29.566402" lon="103.436651"><ele>566.178</ele><time>2026-05-29T02:12:47.000Z</time></trkpt>
        <trkpt lat="29.566435" lon="103.436702"><ele>566.68353</ele><time>2026-05-29T02:12:51.000Z</time></trkpt>
        <trkpt lat="29.566464" lon="103.436765"><ele>567.2877</ele><time>2026-05-29T02:12:56.000Z</time></trkpt>
        <trkpt lat="29.566495" lon="103.436811"><ele>568.0299</ele><time>2026-05-29T02:13:00.000Z</time></trkpt>
        <trkpt lat="29.566519" lon="103.436857"><ele>567.971</ele><time>2026-05-29T02:13:04.000Z</time></trkpt>
        <trkpt lat="29.566547" lon="103.4369"><ele>567.7762</ele><time>2026-05-29T02:13:07.000Z</time></trkpt>
        <trkpt lat="29.566574" lon="103.436946"><ele>567.5893</ele><time>2026-05-29T02:13:11.000Z</time></trkpt>
        <trkpt lat="29.566604" lon="103.436998"><ele>566.39484</ele><time>2026-05-29T02:13:16.000Z</time></trkpt>
        <trkpt lat="29.566633" lon="103.437055"><ele>567.03705</ele><time>2026-05-29T02:13:19.000Z</time></trkpt>
        <trkpt lat="29.566654" lon="103.437105"><ele>566.4441</ele><time>2026-05-29T02:13:22.000Z</time></trkpt>
        <trkpt lat="29.566672" lon="103.437154"><ele>567.62946</ele><time>2026-05-29T02:13:25.000Z</time></trkpt>
        <trkpt lat="29.566707" lon="103.437189"><ele>568.27325</ele><time>2026-05-29T02:13:29.000Z</time></trkpt>
        <trkpt lat="29.566734" lon="103.437246"><ele>568.83905</ele><time>2026-05-29T02:13:34.000Z</time></trkpt>
        <trkpt lat="29.566774" lon="103.437286"><ele>568.74316</ele><time>2026-05-29T02:13:38.000Z</time></trkpt>
        <trkpt lat="29.566811" lon="103.437339"><ele>567.9201</ele><time>2026-05-29T02:13:42.000Z</time></trkpt>
        <trkpt lat="29.566841" lon="103.437387"><ele>567.4397</ele><time>2026-05-29T02:13:46.000Z</time></trkpt>
        <trkpt lat="29.566871" lon="103.437437"><ele>568.0946</ele><time>2026-05-29T02:13:50.000Z</time></trkpt>
        <trkpt lat="29.566909" lon="103.437486"><ele>567.3261</ele><time>2026-05-29T02:13:54.000Z</time></trkpt>
        <trkpt lat="29.566935" lon="103.43753"><ele>567.68787</ele><time>2026-05-29T02:13:58.000Z</time></trkpt>
        <trkpt lat="29.566969" lon="103.437581"><ele>567.74615</ele><time>2026-05-29T02:14:03.000Z</time></trkpt>
        <trkpt lat="29.566991" lon="103.43763"><ele>568.33215</ele><time>2026-05-29T02:14:07.000Z</time></trkpt>
        <trkpt lat="29.567006" lon="103.437679"><ele>567.662</ele><time>2026-05-29T02:14:10.000Z</time></trkpt>
        <trkpt lat="29.567029" lon="103.437737"><ele>568.4793</ele><time>2026-05-29T02:14:14.000Z</time></trkpt>
        <trkpt lat="29.567051" lon="103.437794"><ele>568.86707</ele><time>2026-05-29T02:14:18.000Z</time></trkpt>
        <trkpt lat="29.567081" lon="103.43784"><ele>570.23785</ele><time>2026-05-29T02:14:21.000Z</time></trkpt>
        <trkpt lat="29.567093" lon="103.43789"><ele>571.7765</ele><time>2026-05-29T02:14:25.000Z</time></trkpt>
        <trkpt lat="29.567135" lon="103.437925"><ele>570.0175</ele><time>2026-05-29T02:14:29.000Z</time></trkpt>
        <trkpt lat="29.567159" lon="103.437971"><ele>568.14166</ele><time>2026-05-29T02:14:33.000Z</time></trkpt>
        <trkpt lat="29.567189" lon="103.438014"><ele>566.79224</ele><time>2026-05-29T02:14:38.000Z</time></trkpt>
        <trkpt lat="29.56721" lon="103.438062"><ele>567.8862</ele><time>2026-05-29T02:14:44.000Z</time></trkpt>
        <trkpt lat="29.567238" lon="103.438103"><ele>566.66766</ele><time>2026-05-29T02:14:50.000Z</time></trkpt>
        <trkpt lat="29.567268" lon="103.438147"><ele>562.69653</ele><time>2026-05-29T02:14:56.000Z</time></trkpt>
        <trkpt lat="29.567303" lon="103.438192"><ele>561.93854</ele><time>2026-05-29T02:15:02.000Z</time></trkpt>
        <trkpt lat="29.567322" lon="103.438243"><ele>560.9938</ele><time>2026-05-29T02:15:06.000Z</time></trkpt>
        <trkpt lat="29.567349" lon="103.438303"><ele>560.1395</ele><time>2026-05-29T02:15:10.000Z</time></trkpt>
        <trkpt lat="29.56738" lon="103.438349"><ele>559.21735</ele><time>2026-05-29T02:15:15.000Z</time></trkpt>
        <trkpt lat="29.56741" lon="103.438394"><ele>559.27704</ele><time>2026-05-29T02:15:20.000Z</time></trkpt>
        <trkpt lat="29.567445" lon="103.438442"><ele>559.70667</ele><time>2026-05-29T02:15:24.000Z</time></trkpt>
        <trkpt lat="29.567475" lon="103.438492"><ele>558.2413</ele><time>2026-05-29T02:15:31.000Z</time></trkpt>
        <trkpt lat="29.567519" lon="103.438515"><ele>551.5431</ele><time>2026-05-29T02:15:40.000Z</time></trkpt>
        <trkpt lat="29.567549" lon="103.43856"><ele>551.4826</ele><time>2026-05-29T02:15:48.000Z</time></trkpt>
        <trkpt lat="29.567589" lon="103.438588"><ele>552.7666</ele><time>2026-05-29T02:17:17.000Z</time></trkpt>
        <trkpt lat="29.56763" lon="103.438614"><ele>547.98444</ele><time>2026-05-29T02:18:02.000Z</time></trkpt>
        <trkpt lat="29.567681" lon="103.438712"><ele>545.7428</ele><time>2026-05-29T02:18:14.000Z</time></trkpt>
        <trkpt lat="29.567714" lon="103.438755"><ele>546.5255</ele><time>2026-05-29T02:18:18.000Z</time></trkpt>
        <trkpt lat="29.567752" lon="103.438794"><ele>547.4603</ele><time>2026-05-29T02:18:21.000Z</time></trkpt>
        <trkpt lat="29.567784" lon="103.438845"><ele>547.9974</ele><time>2026-05-29T02:18:22.000Z</time></trkpt>
        <trkpt lat="29.567828" lon="103.438877"><ele>547.4473</ele><time>2026-05-29T02:18:24.000Z</time></trkpt>
        <trkpt lat="29.567855" lon="103.438919"><ele>546.19586</ele><time>2026-05-29T02:18:26.000Z</time></trkpt>
        <trkpt lat="29.567899" lon="103.43897"><ele>547.7652</ele><time>2026-05-29T02:18:29.000Z</time></trkpt>
        <trkpt lat="29.567953" lon="103.439035"><ele>548.74426</ele><time>2026-05-29T02:18:32.000Z</time></trkpt>
        <trkpt lat="29.567987" lon="103.439074"><ele>549.70917</ele><time>2026-05-29T02:18:34.000Z</time></trkpt>
        <trkpt lat="29.568023" lon="103.439116"><ele>548.2787</ele><time>2026-05-29T02:18:36.000Z</time></trkpt>
        <trkpt lat="29.568061" lon="103.439166"><ele>547.9428</ele><time>2026-05-29T02:18:38.000Z</time></trkpt>
        <trkpt lat="29.568094" lon="103.439205"><ele>547.74585</ele><time>2026-05-29T02:18:40.000Z</time></trkpt>
        <trkpt lat="29.56814" lon="103.439253"><ele>549.32733</ele><time>2026-05-29T02:18:43.000Z</time></trkpt>
        <trkpt lat="29.568176" lon="103.439291"><ele>549.9917</ele><time>2026-05-29T02:18:45.000Z</time></trkpt>
        <trkpt lat="29.568208" lon="103.439328"><ele>550.7081</ele><time>2026-05-29T02:18:47.000Z</time></trkpt>
        <trkpt lat="29.568251" lon="103.439358"><ele>550.60205</ele><time>2026-05-29T02:18:49.000Z</time></trkpt>
        <trkpt lat="29.568296" lon="103.439412"><ele>547.54443</ele><time>2026-05-29T02:18:52.000Z</time></trkpt>
        <trkpt lat="29.568338" lon="103.439445"><ele>548.9075</ele><time>2026-05-29T02:18:54.000Z</time></trkpt>
        <trkpt lat="29.568377" lon="103.439488"><ele>549.7482</ele><time>2026-05-29T02:18:56.000Z</time></trkpt>
        <trkpt lat="29.568411" lon="103.439528"><ele>550.9331</ele><time>2026-05-29T02:18:58.000Z</time></trkpt>
        <trkpt lat="29.568446" lon="103.439566"><ele>550.6097</ele><time>2026-05-29T02:19:01.000Z</time></trkpt>
        <trkpt lat="29.568496" lon="103.439612"><ele>551.78516</ele><time>2026-05-29T02:19:04.000Z</time></trkpt>
        <trkpt lat="29.568521" lon="103.43968"><ele>550.68396</ele><time>2026-05-29T02:19:06.000Z</time></trkpt>
        <trkpt lat="29.56855" lon="103.439738"><ele>550.0653</ele><time>2026-05-29T02:19:09.000Z</time></trkpt>
        <trkpt lat="29.568596" lon="103.439795"><ele>549.26373</ele><time>2026-05-29T02:19:12.000Z</time></trkpt>
        <trkpt lat="29.568628" lon="103.439831"><ele>549.42914</ele><time>2026-05-29T02:19:14.000Z</time></trkpt>
        <trkpt lat="29.568669" lon="103.439868"><ele>548.872</ele><time>2026-05-29T02:19:16.000Z</time></trkpt>
        <trkpt lat="29.568686" lon="103.439927"><ele>550.30145</ele><time>2026-05-29T02:19:20.000Z</time></trkpt>
        <trkpt lat="29.568714" lon="103.439967"><ele>549.53503</ele><time>2026-05-29T02:19:23.000Z</time></trkpt>
        <trkpt lat="29.568734" lon="103.440017"><ele>547.4886</ele><time>2026-05-29T02:19:27.000Z</time></trkpt>
        <trkpt lat="29.568772" lon="103.440066"><ele>547.15894</ele><time>2026-05-29T02:19:31.000Z</time></trkpt>
        <trkpt lat="29.568812" lon="103.440106"><ele>546.89874</ele><time>2026-05-29T02:19:35.000Z</time></trkpt>
        <trkpt lat="29.568852" lon="103.440146"><ele>546.47876</ele><time>2026-05-29T02:19:39.000Z</time></trkpt>
        <trkpt lat="29.568869" lon="103.440207"><ele>545.3569</ele><time>2026-05-29T02:19:43.000Z</time></trkpt>
        <trkpt lat="29.568898" lon="103.440258"><ele>544.9734</ele><time>2026-05-29T02:19:48.000Z</time></trkpt>
        <trkpt lat="29.568911" lon="103.440322"><ele>545.1725</ele><time>2026-05-29T02:19:52.000Z</time></trkpt>
        <trkpt lat="29.568941" lon="103.440368"><ele>546.65643</ele><time>2026-05-29T02:19:56.000Z</time></trkpt>
        <trkpt lat="29.568944" lon="103.440427"><ele>549.4122</ele><time>2026-05-29T02:20:01.000Z</time></trkpt>
        <trkpt lat="29.568958" lon="103.440482"><ele>545.1234</ele><time>2026-05-29T02:20:06.000Z</time></trkpt>
        <trkpt lat="29.568967" lon="103.440536"><ele>544.03906</ele><time>2026-05-29T02:20:12.000Z</time></trkpt>
        <trkpt lat="29.568984" lon="103.440592"><ele>541.01447</ele><time>2026-05-29T02:20:19.000Z</time></trkpt>
        <trkpt lat="29.568985" lon="103.440649"><ele>538.4905</ele><time>2026-05-29T02:20:23.000Z</time></trkpt>
        <trkpt lat="29.568981" lon="103.440712"><ele>537.8888</ele><time>2026-05-29T02:20:27.000Z</time></trkpt>
        <trkpt lat="29.568984" lon="103.440773"><ele>537.3662</ele><time>2026-05-29T02:20:31.000Z</time></trkpt>
        <trkpt lat="29.568988" lon="103.440825"><ele>539.0955</ele><time>2026-05-29T02:20:34.000Z</time></trkpt>
        <trkpt lat="29.568996" lon="103.44088"><ele>537.58887</ele><time>2026-05-29T02:20:38.000Z</time></trkpt>
        <trkpt lat="29.569015" lon="103.440933"><ele>536.4199</ele><time>2026-05-29T02:20:43.000Z</time></trkpt>
        <trkpt lat="29.569046" lon="103.440975"><ele>538.98395</ele><time>2026-05-29T02:21:30.000Z</time></trkpt>
        <trkpt lat="29.569072" lon="103.441019"><ele>537.9827</ele><time>2026-05-29T02:21:44.000Z</time></trkpt>
        <trkpt lat="29.569069" lon="103.440967"><ele>535.00134</ele><time>2026-05-29T02:23:39.000Z</time></trkpt>
        <trkpt lat="29.569115" lon="103.440968"><ele>537.0623</ele><time>2026-05-29T02:26:15.000Z</time></trkpt>
        <trkpt lat="29.56913" lon="103.440958"><ele>535.8575</ele><time>2026-05-29T02:26:34.000Z</time></trkpt>
        <trkpt lat="29.569169" lon="103.440923"><ele>536.602</ele><time>2026-05-29T02:26:40.000Z</time></trkpt>
        <trkpt lat="29.569219" lon="103.440915"><ele>536.5381</ele><time>2026-05-29T02:26:48.000Z</time></trkpt>
        <trkpt lat="29.56927" lon="103.440914"><ele>537.35864</ele><time>2026-05-29T02:26:54.000Z</time></trkpt>
        <trkpt lat="29.569319" lon="103.440921"><ele>538.3121</ele><time>2026-05-29T02:26:58.000Z</time></trkpt>
        <trkpt lat="29.569372" lon="103.440913"><ele>536.482</ele><time>2026-05-29T02:27:03.000Z</time></trkpt>
        <trkpt lat="29.569431" lon="103.440919"><ele>535.3941</ele><time>2026-05-29T02:27:09.000Z</time></trkpt>
        <trkpt lat="29.56948" lon="103.440957"><ele>536.8271</ele><time>2026-05-29T02:27:15.000Z</time></trkpt>
        <trkpt lat="29.56953" lon="103.440931"><ele>537.8891</ele><time>2026-05-29T02:27:19.000Z</time></trkpt>
        <trkpt lat="29.569582" lon="103.440937"><ele>539.4799</ele><time>2026-05-29T02:27:24.000Z</time></trkpt>
        <trkpt lat="29.569634" lon="103.44095"><ele>541.5204</ele><time>2026-05-29T02:27:28.000Z</time></trkpt>
        <trkpt lat="29.569685" lon="103.44096"><ele>543.6602</ele><time>2026-05-29T02:27:32.000Z</time></trkpt>
        <trkpt lat="29.569726" lon="103.440992"><ele>547.65814</ele><time>2026-05-29T02:27:42.000Z</time></trkpt>
        <trkpt lat="29.569764" lon="103.44102"><ele>549.66296</ele><time>2026-05-29T02:27:46.000Z</time></trkpt>
        <trkpt lat="29.569809" lon="103.441049"><ele>550.71643</ele><time>2026-05-29T02:27:51.000Z</time></trkpt>
        <trkpt lat="29.569864" lon="103.441058"><ele>549.10126</ele><time>2026-05-29T02:27:55.000Z</time></trkpt>
        <trkpt lat="29.569909" lon="103.441083"><ele>548.6646</ele><time>2026-05-29T02:27:59.000Z</time></trkpt>
        <trkpt lat="29.569955" lon="103.441087"><ele>549.55396</ele><time>2026-05-29T02:28:04.000Z</time></trkpt>
        <trkpt lat="29.570001" lon="103.441104"><ele>549.43915</ele><time>2026-05-29T02:28:08.000Z</time></trkpt>
        <trkpt lat="29.570044" lon="103.441131"><ele>547.90643</ele><time>2026-05-29T02:28:14.000Z</time></trkpt>
        <trkpt lat="29.570087" lon="103.441177"><ele>547.68896</ele><time>2026-05-29T02:28:18.000Z</time></trkpt>
        <trkpt lat="29.570142" lon="103.44118"><ele>546.5443</ele><time>2026-05-29T02:28:22.000Z</time></trkpt>
        <trkpt lat="29.570179" lon="103.44123"><ele>544.85925</ele><time>2026-05-29T02:28:27.000Z</time></trkpt>
        <trkpt lat="29.570215" lon="103.441263"><ele>544.54626</ele><time>2026-05-29T02:28:31.000Z</time></trkpt>
        <trkpt lat="29.570254" lon="103.441294"><ele>542.0933</ele><time>2026-05-29T02:28:35.000Z</time></trkpt>
        <trkpt lat="29.570298" lon="103.441324"><ele>540.9284</ele><time>2026-05-29T02:28:39.000Z</time></trkpt>
        <trkpt lat="29.570341" lon="103.441342"><ele>540.22156</ele><time>2026-05-29T02:28:43.000Z</time></trkpt>
        <trkpt lat="29.570383" lon="103.441371"><ele>540.5912</ele><time>2026-05-29T02:28:49.000Z</time></trkpt>
        <trkpt lat="29.570428" lon="103.441392"><ele>540.4209</ele><time>2026-05-29T02:28:53.000Z</time></trkpt>
        <trkpt lat="29.570474" lon="103.4414"><ele>538.4308</ele><time>2026-05-29T02:28:57.000Z</time></trkpt>
        <trkpt lat="29.570526" lon="103.441422"><ele>538.3138</ele><time>2026-05-29T02:29:02.000Z</time></trkpt>
        <trkpt lat="29.570581" lon="103.441409"><ele>539.7644</ele><time>2026-05-29T02:29:09.000Z</time></trkpt>
        <trkpt lat="29.570626" lon="103.441388"><ele>539.59326</ele><time>2026-05-29T02:29:17.000Z</time></trkpt>
        <trkpt lat="29.570651" lon="103.441341"><ele>541.195</ele><time>2026-05-29T02:30:43.000Z</time></trkpt>
        <trkpt lat="29.570629" lon="103.441387"><ele>540.1569</ele><time>2026-05-29T02:30:55.000Z</time></trkpt>
        <trkpt lat="29.570615" lon="103.441326"><ele>539.21985</ele><time>2026-05-29T02:31:47.000Z</time></trkpt>
        <trkpt lat="29.570609" lon="103.441273"><ele>538.9213</ele><time>2026-05-29T02:32:13.000Z</time></trkpt>
        <trkpt lat="29.570653" lon="103.441255"><ele>539.9165</ele><time>2026-05-29T02:32:19.000Z</time></trkpt>
        <trkpt lat="29.570705" lon="103.441252"><ele>538.764</ele><time>2026-05-29T02:32:28.000Z</time></trkpt>
        <trkpt lat="29.570731" lon="103.441307"><ele>540.1528</ele><time>2026-05-29T02:32:39.000Z</time></trkpt>
        <trkpt lat="29.570695" lon="103.441349"><ele>538.2862</ele><time>2026-05-29T02:33:01.000Z</time></trkpt>
        <trkpt lat="29.570651" lon="103.441382"><ele>537.9486</ele><time>2026-05-29T02:33:07.000Z</time></trkpt>
        <trkpt lat="29.570632" lon="103.441328"><ele>538.359</ele><time>2026-05-29T02:33:22.000Z</time></trkpt>
        <trkpt lat="29.570643" lon="103.441269"><ele>538.9053</ele><time>2026-05-29T02:33:28.000Z</time></trkpt>
        <trkpt lat="29.570618" lon="103.441365"><ele>545.0739</ele><time>2026-05-29T02:34:35.000Z</time></trkpt>
        <trkpt lat="29.570573" lon="103.441391"><ele>543.75616</ele><time>2026-05-29T02:34:49.000Z</time></trkpt>
        <trkpt lat="29.570526" lon="103.441416"><ele>544.3497</ele><time>2026-05-29T02:34:55.000Z</time></trkpt>
        <trkpt lat="29.570476" lon="103.441413"><ele>544.3172</ele><time>2026-05-29T02:35:02.000Z</time></trkpt>
        <trkpt lat="29.57043" lon="103.441402"><ele>544.8764</ele><time>2026-05-29T02:35:07.000Z</time></trkpt>
        <trkpt lat="29.570386" lon="103.441369"><ele>543.65576</ele><time>2026-05-29T02:35:13.000Z</time></trkpt>
        <trkpt lat="29.570338" lon="103.441358"><ele>544.01843</ele><time>2026-05-29T02:35:21.000Z</time></trkpt>
        <trkpt lat="29.570291" lon="103.441366"><ele>540.7382</ele><time>2026-05-29T02:35:38.000Z</time></trkpt>
        <trkpt lat="29.570284" lon="103.441308"><ele>540.1719</ele><time>2026-05-29T02:37:18.000Z</time></trkpt>
        <trkpt lat="29.570246" lon="103.441277"><ele>540.2472</ele><time>2026-05-29T02:37:23.000Z</time></trkpt>
        <trkpt lat="29.570196" lon="103.441264"><ele>539.45215</ele><time>2026-05-29T02:37:28.000Z</time></trkpt>
        <trkpt lat="29.570156" lon="103.441241"><ele>539.9932</ele><time>2026-05-29T02:37:32.000Z</time></trkpt>
        <trkpt lat="29.570114" lon="103.441211"><ele>540.85205</ele><time>2026-05-29T02:37:37.000Z</time></trkpt>
        <trkpt lat="29.570065" lon="103.441185"><ele>543.80884</ele><time>2026-05-29T02:37:43.000Z</time></trkpt>
        <trkpt lat="29.570021" lon="103.44115"><ele>543.331</ele><time>2026-05-29T02:37:49.000Z</time></trkpt>
        <trkpt lat="29.56999" lon="103.441109"><ele>543.384</ele><time>2026-05-29T02:37:55.000Z</time></trkpt>
        <trkpt lat="29.569955" lon="103.441073"><ele>541.4687</ele><time>2026-05-29T02:38:00.000Z</time></trkpt>
        <trkpt lat="29.569915" lon="103.441045"><ele>542.64996</ele><time>2026-05-29T02:38:07.000Z</time></trkpt>
        <trkpt lat="29.569863" lon="103.441024"><ele>545.7679</ele><time>2026-05-29T02:38:13.000Z</time></trkpt>
        <trkpt lat="29.569817" lon="103.44101"><ele>548.53723</ele><time>2026-05-29T02:38:19.000Z</time></trkpt>
        <trkpt lat="29.569769" lon="103.441016"><ele>549.50214</ele><time>2026-05-29T02:38:24.000Z</time></trkpt>
        <trkpt lat="29.569722" lon="103.441001"><ele>551.3367</ele><time>2026-05-29T02:38:29.000Z</time></trkpt>
        <trkpt lat="29.56968" lon="103.440972"><ele>550.60095</ele><time>2026-05-29T02:38:34.000Z</time></trkpt>
        <trkpt lat="29.569624" lon="103.440965"><ele>552.95483</ele><time>2026-05-29T02:38:39.000Z</time></trkpt>
        <trkpt lat="29.569578" lon="103.440964"><ele>552.8531</ele><time>2026-05-29T02:38:44.000Z</time></trkpt>
        <trkpt lat="29.569522" lon="103.440953"><ele>553.81287</ele><time>2026-05-29T02:38:49.000Z</time></trkpt>
        <trkpt lat="29.569476" lon="103.440948"><ele>554.0134</ele><time>2026-05-29T02:38:54.000Z</time></trkpt>
        <trkpt lat="29.569429" lon="103.440939"><ele>553.55286</ele><time>2026-05-29T02:38:59.000Z</time></trkpt>
        <trkpt lat="29.569384" lon="103.440956"><ele>552.64844</ele><time>2026-05-29T02:39:04.000Z</time></trkpt>
        <trkpt lat="29.569338" lon="103.440934"><ele>548.7404</ele><time>2026-05-29T02:39:11.000Z</time></trkpt>
        <trkpt lat="29.56929" lon="103.440951"><ele>548.88525</ele><time>2026-05-29T02:39:18.000Z</time></trkpt>
        <trkpt lat="29.569242" lon="103.44096"><ele>548.73413</ele><time>2026-05-29T02:39:24.000Z</time></trkpt>
        <trkpt lat="29.569193" lon="103.440968"><ele>547.4579</ele><time>2026-05-29T02:39:32.000Z</time></trkpt>
        <trkpt lat="29.569182" lon="103.441024"><ele>545.8225</ele><time>2026-05-29T02:39:37.000Z</time></trkpt>
        <trkpt lat="29.569141" lon="103.441049"><ele>541.3794</ele><time>2026-05-29T02:39:45.000Z</time></trkpt>
        <trkpt lat="29.569095" lon="103.441048"><ele>540.35266</ele><time>2026-05-29T02:39:55.000Z</time></trkpt>
        <trkpt lat="29.569079" lon="103.441097"><ele>536.05035</ele><time>2026-05-29T02:40:04.000Z</time></trkpt>
        <trkpt lat="29.569062" lon="103.44115"><ele>535.1415</ele><time>2026-05-29T02:40:10.000Z</time></trkpt>
        <trkpt lat="29.569038" lon="103.441203"><ele>532.66797</ele><time>2026-05-29T02:40:14.000Z</time></trkpt>
        <trkpt lat="29.569023" lon="103.441254"><ele>532.8235</ele><time>2026-05-29T02:40:18.000Z</time></trkpt>
        <trkpt lat="29.569009" lon="103.441307"><ele>532.44836</ele><time>2026-05-29T02:40:22.000Z</time></trkpt>
        <trkpt lat="29.56899" lon="103.441362"><ele>532.4158</ele><time>2026-05-29T02:40:27.000Z</time></trkpt>
        <trkpt lat="29.568984" lon="103.441416"><ele>533.151</ele><time>2026-05-29T02:40:32.000Z</time></trkpt>
        <trkpt lat="29.568973" lon="103.44147"><ele>533.60077</ele><time>2026-05-29T02:40:37.000Z</time></trkpt>
        <trkpt lat="29.568963" lon="103.441528"><ele>531.8606</ele><time>2026-05-29T02:40:44.000Z</time></trkpt>
        <trkpt lat="29.568957" lon="103.441584"><ele>531.6782</ele><time>2026-05-29T02:40:50.000Z</time></trkpt>
        <trkpt lat="29.568939" lon="103.441641"><ele>529.9903</ele><time>2026-05-29T02:40:56.000Z</time></trkpt>
        <trkpt lat="29.568931" lon="103.441714"><ele>527.3055</ele><time>2026-05-29T02:41:03.000Z</time></trkpt>
        <trkpt lat="29.568925" lon="103.441768"><ele>527.2571</ele><time>2026-05-29T02:41:09.000Z</time></trkpt>
        <trkpt lat="29.568917" lon="103.441826"><ele>527.453</ele><time>2026-05-29T02:41:14.000Z</time></trkpt>
        <trkpt lat="29.56891" lon="103.441884"><ele>528.0675</ele><time>2026-05-29T02:41:20.000Z</time></trkpt>
        <trkpt lat="29.568904" lon="103.441947"><ele>527.5089</ele><time>2026-05-29T02:41:26.000Z</time></trkpt>
        <trkpt lat="29.568901" lon="103.442009"><ele>526.17163</ele><time>2026-05-29T02:41:31.000Z</time></trkpt>
        <trkpt lat="29.568894" lon="103.442075"><ele>527.42456</ele><time>2026-05-29T02:41:37.000Z</time></trkpt>
        <trkpt lat="29.568872" lon="103.442128"><ele>527.50525</ele><time>2026-05-29T02:41:43.000Z</time></trkpt>
        <trkpt lat="29.56886" lon="103.442179"><ele>527.9322</ele><time>2026-05-29T02:41:49.000Z</time></trkpt>
        <trkpt lat="29.568851" lon="103.442233"><ele>528.3321</ele><time>2026-05-29T02:41:54.000Z</time></trkpt>
        <trkpt lat="29.568841" lon="103.442285"><ele>526.92175</ele><time>2026-05-29T02:41:59.000Z</time></trkpt>
        <trkpt lat="29.568828" lon="103.442342"><ele>525.4857</ele><time>2026-05-29T02:42:05.000Z</time></trkpt>
        <trkpt lat="29.568818" lon="103.442396"><ele>523.96783</ele><time>2026-05-29T02:42:11.000Z</time></trkpt>
        <trkpt lat="29.568817" lon="103.442451"><ele>523.2678</ele><time>2026-05-29T02:42:17.000Z</time></trkpt>
        <trkpt lat="29.568813" lon="103.44251"><ele>524.828</ele><time>2026-05-29T02:42:24.000Z</time></trkpt>
        <trkpt lat="29.568811" lon="103.442563"><ele>524.6188</ele><time>2026-05-29T02:42:29.000Z</time></trkpt>
        <trkpt lat="29.568789" lon="103.442612"><ele>523.9418</ele><time>2026-05-29T02:42:35.000Z</time></trkpt>
        <trkpt lat="29.568785" lon="103.442668"><ele>522.6291</ele><time>2026-05-29T02:42:42.000Z</time></trkpt>
        <trkpt lat="29.56877" lon="103.442727"><ele>523.1903</ele><time>2026-05-29T02:42:48.000Z</time></trkpt>
        <trkpt lat="29.568757" lon="103.442779"><ele>522.3244</ele><time>2026-05-29T02:42:55.000Z</time></trkpt>
        <trkpt lat="29.568744" lon="103.442834"><ele>522.0329</ele><time>2026-05-29T02:43:01.000Z</time></trkpt>
        <trkpt lat="29.568731" lon="103.44289"><ele>520.2538</ele><time>2026-05-29T02:43:09.000Z</time></trkpt>
        <trkpt lat="29.56871" lon="103.44294"><ele>520.2769</ele><time>2026-05-29T02:43:13.000Z</time></trkpt>
        <trkpt lat="29.568688" lon="103.442992"><ele>519.83655</ele><time>2026-05-29T02:43:18.000Z</time></trkpt>
        <trkpt lat="29.568658" lon="103.443046"><ele>520.27216</ele><time>2026-05-29T02:43:23.000Z</time></trkpt>
        <trkpt lat="29.568658" lon="103.443103"><ele>521.2945</ele><time>2026-05-29T02:43:27.000Z</time></trkpt>
        <trkpt lat="29.568666" lon="103.443169"><ele>521.07806</ele><time>2026-05-29T02:43:31.000Z</time></trkpt>
        <trkpt lat="29.568681" lon="103.443228"><ele>522.24036</ele><time>2026-05-29T02:43:35.000Z</time></trkpt>
        <trkpt lat="29.568706" lon="103.443275"><ele>522.0307</ele><time>2026-05-29T02:43:38.000Z</time></trkpt>
        <trkpt lat="29.568728" lon="103.443326"><ele>522.9931</ele><time>2026-05-29T02:43:42.000Z</time></trkpt>
        <trkpt lat="29.568752" lon="103.443376"><ele>522.15784</ele><time>2026-05-29T02:43:46.000Z</time></trkpt>
        <trkpt lat="29.568785" lon="103.443418"><ele>522.0475</ele><time>2026-05-29T02:43:51.000Z</time></trkpt>
        <trkpt lat="29.568817" lon="103.443456"><ele>523.2939</ele><time>2026-05-29T02:43:55.000Z</time></trkpt>
        <trkpt lat="29.568857" lon="103.4435"><ele>522.36786</ele><time>2026-05-29T02:43:58.000Z</time></trkpt>
        <trkpt lat="29.568882" lon="103.443547"><ele>522.0719</ele><time>2026-05-29T02:44:02.000Z</time></trkpt>
        <trkpt lat="29.568907" lon="103.443597"><ele>521.7351</ele><time>2026-05-29T02:44:06.000Z</time></trkpt>
        <trkpt lat="29.568939" lon="103.443645"><ele>521.6745</ele><time>2026-05-29T02:44:10.000Z</time></trkpt>
        <trkpt lat="29.568966" lon="103.443701"><ele>521.14294</ele><time>2026-05-29T02:44:15.000Z</time></trkpt>
        <trkpt lat="29.568997" lon="103.443754"><ele>521.9528</ele><time>2026-05-29T02:44:19.000Z</time></trkpt>
        <trkpt lat="29.569026" lon="103.443798"><ele>523.3343</ele><time>2026-05-29T02:44:23.000Z</time></trkpt>
        <trkpt lat="29.569058" lon="103.443848"><ele>523.6698</ele><time>2026-05-29T02:44:28.000Z</time></trkpt>
        <trkpt lat="29.569085" lon="103.443899"><ele>524.56256</ele><time>2026-05-29T02:44:32.000Z</time></trkpt>
        <trkpt lat="29.56908" lon="103.443953"><ele>522.9382</ele><time>2026-05-29T02:44:38.000Z</time></trkpt>
        <trkpt lat="29.569035" lon="103.443989"><ele>521.4562</ele><time>2026-05-29T02:44:43.000Z</time></trkpt>
        <trkpt lat="29.568998" lon="103.44403"><ele>519.7846</ele><time>2026-05-29T02:44:48.000Z</time></trkpt>
        <trkpt lat="29.568956" lon="103.444058"><ele>516.8628</ele><time>2026-05-29T02:44:53.000Z</time></trkpt>
        <trkpt lat="29.568911" lon="103.44408"><ele>516.71625</ele><time>2026-05-29T02:45:03.000Z</time></trkpt>
        <trkpt lat="29.568863" lon="103.444106"><ele>516.84235</ele><time>2026-05-29T02:45:09.000Z</time></trkpt>
        <trkpt lat="29.568816" lon="103.444119"><ele>515.3739</ele><time>2026-05-29T02:45:13.000Z</time></trkpt>
        <trkpt lat="29.568776" lon="103.444148"><ele>516.5809</ele><time>2026-05-29T02:45:17.000Z</time></trkpt>
        <trkpt lat="29.568737" lon="103.444176"><ele>516.8715</ele><time>2026-05-29T02:45:21.000Z</time></trkpt>
        <trkpt lat="29.568692" lon="103.444205"><ele>516.0209</ele><time>2026-05-29T02:45:25.000Z</time></trkpt>
        <trkpt lat="29.568635" lon="103.444226"><ele>517.19904</ele><time>2026-05-29T02:45:30.000Z</time></trkpt>
        <trkpt lat="29.568594" lon="103.444256"><ele>517.0105</ele><time>2026-05-29T02:45:34.000Z</time></trkpt>
        <trkpt lat="29.568562" lon="103.444294"><ele>517.3085</ele><time>2026-05-29T02:45:38.000Z</time></trkpt>
        <trkpt lat="29.56853" lon="103.444332"><ele>516.4605</ele><time>2026-05-29T02:45:42.000Z</time></trkpt>
        <trkpt lat="29.568483" lon="103.444367"><ele>518.1966</ele><time>2026-05-29T02:45:46.000Z</time></trkpt>
        <trkpt lat="29.568455" lon="103.44441"><ele>517.9417</ele><time>2026-05-29T02:45:50.000Z</time></trkpt>
        <trkpt lat="29.56845" lon="103.444473"><ele>517.5429</ele><time>2026-05-29T02:45:55.000Z</time></trkpt>
        <trkpt lat="29.568443" lon="103.444538"><ele>515.6645</ele><time>2026-05-29T02:46:00.000Z</time></trkpt>
        <trkpt lat="29.568435" lon="103.4446"><ele>516.1369</ele><time>2026-05-29T02:46:04.000Z</time></trkpt>
        <trkpt lat="29.568457" lon="103.444659"><ele>515.3418</ele><time>2026-05-29T02:46:09.000Z</time></trkpt>
        <trkpt lat="29.568462" lon="103.444711"><ele>513.9461</ele><time>2026-05-29T02:46:13.000Z</time></trkpt>
        <trkpt lat="29.568476" lon="103.444771"><ele>512.611</ele><time>2026-05-29T02:46:18.000Z</time></trkpt>
        <trkpt lat="29.568481" lon="103.444832"><ele>512.4621</ele><time>2026-05-29T02:46:22.000Z</time></trkpt>
        <trkpt lat="29.568493" lon="103.444889"><ele>513.3719</ele><time>2026-05-29T02:46:27.000Z</time></trkpt>
        <trkpt lat="29.568496" lon="103.444953"><ele>514.89404</ele><time>2026-05-29T02:46:32.000Z</time></trkpt>
        <trkpt lat="29.568516" lon="103.445003"><ele>514.86523</ele><time>2026-05-29T02:46:36.000Z</time></trkpt>
        <trkpt lat="29.568516" lon="103.445065"><ele>514.2591</ele><time>2026-05-29T02:46:41.000Z</time></trkpt>
        <trkpt lat="29.568533" lon="103.445116"><ele>514.31903</ele><time>2026-05-29T02:46:46.000Z</time></trkpt>
        <trkpt lat="29.568556" lon="103.445168"><ele>513.7635</ele><time>2026-05-29T02:46:50.000Z</time></trkpt>
        <trkpt lat="29.568544" lon="103.445228"><ele>513.6006</ele><time>2026-05-29T02:46:56.000Z</time></trkpt>
        <trkpt lat="29.568513" lon="103.445279"><ele>511.2633</ele><time>2026-05-29T02:47:02.000Z</time></trkpt>
        <trkpt lat="29.568532" lon="103.445334"><ele>512.49963</ele><time>2026-05-29T02:47:06.000Z</time></trkpt>
        <trkpt lat="29.568546" lon="103.445384"><ele>512.30414</ele><time>2026-05-29T02:47:09.000Z</time></trkpt>
        <trkpt lat="29.568542" lon="103.44544"><ele>513.2844</ele><time>2026-05-29T02:47:13.000Z</time></trkpt>
        <trkpt lat="29.568549" lon="103.445501"><ele>512.89105</ele><time>2026-05-29T02:47:18.000Z</time></trkpt>
        <trkpt lat="29.568563" lon="103.445552"><ele>513.69104</ele><time>2026-05-29T02:47:22.000Z</time></trkpt>
        <trkpt lat="29.568592" lon="103.445603"><ele>512.4086</ele><time>2026-05-29T02:47:27.000Z</time></trkpt>
        <trkpt lat="29.568592" lon="103.445665"><ele>511.31882</ele><time>2026-05-29T02:47:33.000Z</time></trkpt>
        <trkpt lat="29.568624" lon="103.445714"><ele>512.45825</ele><time>2026-05-29T02:47:39.000Z</time></trkpt>
        <trkpt lat="29.568638" lon="103.445765"><ele>512.74567</ele><time>2026-05-29T02:47:43.000Z</time></trkpt>
        <trkpt lat="29.568645" lon="103.44583"><ele>512.07104</ele><time>2026-05-29T02:47:47.000Z</time></trkpt>
        <trkpt lat="29.568673" lon="103.445873"><ele>513.06396</ele><time>2026-05-29T02:47:50.000Z</time></trkpt>
        <trkpt lat="29.568704" lon="103.445929"><ele>512.9447</ele><time>2026-05-29T02:47:54.000Z</time></trkpt>
        <trkpt lat="29.568714" lon="103.445981"><ele>512.5922</ele><time>2026-05-29T02:47:59.000Z</time></trkpt>
        <trkpt lat="29.568719" lon="103.446038"><ele>512.8489</ele><time>2026-05-29T02:48:04.000Z</time></trkpt>
        <trkpt lat="29.568718" lon="103.446098"><ele>512.1912</ele><time>2026-05-29T02:48:08.000Z</time></trkpt>
        <trkpt lat="29.568728" lon="103.44615"><ele>511.8154</ele><time>2026-05-29T02:48:12.000Z</time></trkpt>
        <trkpt lat="29.568737" lon="103.446206"><ele>510.90698</ele><time>2026-05-29T02:48:16.000Z</time></trkpt>
        <trkpt lat="29.568741" lon="103.44626"><ele>510.48175</ele><time>2026-05-29T02:48:20.000Z</time></trkpt>
        <trkpt lat="29.568753" lon="103.446315"><ele>508.72595</ele><time>2026-05-29T02:48:24.000Z</time></trkpt>
        <trkpt lat="29.568767" lon="103.446368"><ele>509.02634</ele><time>2026-05-29T02:48:29.000Z</time></trkpt>
        <trkpt lat="29.568784" lon="103.446418"><ele>508.93353</ele><time>2026-05-29T02:48:33.000Z</time></trkpt>
        <trkpt lat="29.568795" lon="103.446477"><ele>509.06573</ele><time>2026-05-29T02:48:38.000Z</time></trkpt>
        <trkpt lat="29.568804" lon="103.446528"><ele>508.55963</ele><time>2026-05-29T02:48:44.000Z</time></trkpt>
        <trkpt lat="29.568833" lon="103.446571"><ele>509.7515</ele><time>2026-05-29T02:48:49.000Z</time></trkpt>
        <trkpt lat="29.568867" lon="103.446613"><ele>509.90353</ele><time>2026-05-29T02:48:53.000Z</time></trkpt>
        <trkpt lat="29.568895" lon="103.446672"><ele>511.12714</ele><time>2026-05-29T02:48:57.000Z</time></trkpt>
        <trkpt lat="29.568887" lon="103.446725"><ele>511.99112</ele><time>2026-05-29T02:49:01.000Z</time></trkpt>
        <trkpt lat="29.568878" lon="103.446779"><ele>512.04816</ele><time>2026-05-29T02:49:04.000Z</time></trkpt>
        <trkpt lat="29.568905" lon="103.446824"><ele>511.4922</ele><time>2026-05-29T02:49:07.000Z</time></trkpt>
        <trkpt lat="29.568911" lon="103.446876"><ele>512.309</ele><time>2026-05-29T02:49:10.000Z</time></trkpt>
        <trkpt lat="29.568921" lon="103.446933"><ele>511.93723</ele><time>2026-05-29T02:49:14.000Z</time></trkpt>
        <trkpt lat="29.568943" lon="103.446989"><ele>510.79364</ele><time>2026-05-29T02:49:19.000Z</time></trkpt>
        <trkpt lat="29.568952" lon="103.447049"><ele>510.34787</ele><time>2026-05-29T02:49:24.000Z</time></trkpt>
        <trkpt lat="29.568974" lon="103.447104"><ele>512.11005</ele><time>2026-05-29T02:49:29.000Z</time></trkpt>
        <trkpt lat="29.569001" lon="103.447149"><ele>513.53986</ele><time>2026-05-29T02:49:33.000Z</time></trkpt>
        <trkpt lat="29.569006" lon="103.447208"><ele>511.7288</ele><time>2026-05-29T02:49:37.000Z</time></trkpt>
        <trkpt lat="29.568993" lon="103.447275"><ele>509.1144</ele><time>2026-05-29T02:49:41.000Z</time></trkpt>
        <trkpt lat="29.568989" lon="103.44733"><ele>506.29547</ele><time>2026-05-29T02:49:45.000Z</time></trkpt>
        <trkpt lat="29.569014" lon="103.447385"><ele>506.29916</ele><time>2026-05-29T02:49:49.000Z</time></trkpt>
        <trkpt lat="29.56905" lon="103.44743"><ele>506.83282</ele><time>2026-05-29T02:49:53.000Z</time></trkpt>
        <trkpt lat="29.569077" lon="103.447473"><ele>506.81116</ele><time>2026-05-29T02:49:56.000Z</time></trkpt>
        <trkpt lat="29.569107" lon="103.447525"><ele>504.70215</ele><time>2026-05-29T02:50:00.000Z</time></trkpt>
        <trkpt lat="29.569106" lon="103.447584"><ele>504.51523</ele><time>2026-05-29T02:50:04.000Z</time></trkpt>
        <trkpt lat="29.569146" lon="103.447622"><ele>505.08963</ele><time>2026-05-29T02:50:09.000Z</time></trkpt>
        <trkpt lat="29.569154" lon="103.447675"><ele>505.38388</ele><time>2026-05-29T02:50:13.000Z</time></trkpt>
        <trkpt lat="29.569173" lon="103.447731"><ele>505.03198</ele><time>2026-05-29T02:50:18.000Z</time></trkpt>
        <trkpt lat="29.569194" lon="103.447779"><ele>505.18307</ele><time>2026-05-29T02:50:22.000Z</time></trkpt>
        <trkpt lat="29.569227" lon="103.447823"><ele>503.4382</ele><time>2026-05-29T02:50:26.000Z</time></trkpt>
        <trkpt lat="29.56923" lon="103.447885"><ele>502.7695</ele><time>2026-05-29T02:50:31.000Z</time></trkpt>
        <trkpt lat="29.569236" lon="103.447945"><ele>502.393</ele><time>2026-05-29T02:50:36.000Z</time></trkpt>
        <trkpt lat="29.569233" lon="103.447996"><ele>502.44214</ele><time>2026-05-29T02:50:40.000Z</time></trkpt>
        <trkpt lat="29.569238" lon="103.44806"><ele>503.11697</ele><time>2026-05-29T02:50:45.000Z</time></trkpt>
        <trkpt lat="29.569261" lon="103.448107"><ele>503.15933</ele><time>2026-05-29T02:50:50.000Z</time></trkpt>
        <trkpt lat="29.569268" lon="103.44816"><ele>503.3454</ele><time>2026-05-29T02:50:55.000Z</time></trkpt>
        <trkpt lat="29.569286" lon="103.448208"><ele>504.0065</ele><time>2026-05-29T02:51:00.000Z</time></trkpt>
        <trkpt lat="29.569295" lon="103.448263"><ele>505.03094</ele><time>2026-05-29T02:51:05.000Z</time></trkpt>
        <trkpt lat="29.569302" lon="103.44832"><ele>505.07236</ele><time>2026-05-29T02:51:12.000Z</time></trkpt>
        <trkpt lat="29.569313" lon="103.448375"><ele>504.9126</ele><time>2026-05-29T02:51:18.000Z</time></trkpt>
        <trkpt lat="29.569333" lon="103.448431"><ele>505.27585</ele><time>2026-05-29T02:51:25.000Z</time></trkpt>
        <trkpt lat="29.569349" lon="103.448486"><ele>504.5267</ele><time>2026-05-29T02:51:32.000Z</time></trkpt>
        <trkpt lat="29.56936" lon="103.44854"><ele>503.89374</ele><time>2026-05-29T02:51:38.000Z</time></trkpt>
        <trkpt lat="29.569378" lon="103.448596"><ele>503.9703</ele><time>2026-05-29T02:51:45.000Z</time></trkpt>
        <trkpt lat="29.56941" lon="103.448644"><ele>503.9668</ele><time>2026-05-29T02:51:51.000Z</time></trkpt>
        <trkpt lat="29.569415" lon="103.448703"><ele>503.19113</ele><time>2026-05-29T02:51:57.000Z</time></trkpt>
        <trkpt lat="29.569429" lon="103.448762"><ele>503.76053</ele><time>2026-05-29T02:52:03.000Z</time></trkpt>
        <trkpt lat="29.569443" lon="103.448814"><ele>503.68936</ele><time>2026-05-29T02:52:09.000Z</time></trkpt>
        <trkpt lat="29.569455" lon="103.448866"><ele>502.69427</ele><time>2026-05-29T02:52:15.000Z</time></trkpt>
        <trkpt lat="29.56946" lon="103.44892"><ele>501.8082</ele><time>2026-05-29T02:52:22.000Z</time></trkpt>
        <trkpt lat="29.569476" lon="103.448978"><ele>501.87885</ele><time>2026-05-29T02:52:29.000Z</time></trkpt>
        <trkpt lat="29.569484" lon="103.449033"><ele>501.48654</ele><time>2026-05-29T02:52:36.000Z</time></trkpt>
        <trkpt lat="29.569498" lon="103.449088"><ele>502.12262</ele><time>2026-05-29T02:52:42.000Z</time></trkpt>
        <trkpt lat="29.569508" lon="103.449144"><ele>500.79144</ele><time>2026-05-29T02:52:48.000Z</time></trkpt>
        <trkpt lat="29.569538" lon="103.449192"><ele>500.42203</ele><time>2026-05-29T02:52:54.000Z</time></trkpt>
        <trkpt lat="29.569568" lon="103.449237"><ele>499.9135</ele><time>2026-05-29T02:53:00.000Z</time></trkpt>
        <trkpt lat="29.569568" lon="103.449293"><ele>499.78302</ele><time>2026-05-29T02:53:06.000Z</time></trkpt>
        <trkpt lat="29.569537" lon="103.449336"><ele>500.59805</ele><time>2026-05-29T02:53:10.000Z</time></trkpt>
        <trkpt lat="29.569537" lon="103.449403"><ele>500.89435</ele><time>2026-05-29T02:53:17.000Z</time></trkpt>
        <trkpt lat="29.569559" lon="103.449449"><ele>499.67258</ele><time>2026-05-29T02:53:21.000Z</time></trkpt>
        <trkpt lat="29.569568" lon="103.449502"><ele>498.81027</ele><time>2026-05-29T02:53:26.000Z</time></trkpt>
        <trkpt lat="29.569593" lon="103.449548"><ele>498.6082</ele><time>2026-05-29T02:53:30.000Z</time></trkpt>
        <trkpt lat="29.569618" lon="103.449595"><ele>499.781</ele><time>2026-05-29T02:53:35.000Z</time></trkpt>
        <trkpt lat="29.569614" lon="103.449651"><ele>501.1342</ele><time>2026-05-29T02:53:41.000Z</time></trkpt>
        <trkpt lat="29.569607" lon="103.449703"><ele>502.10046</ele><time>2026-05-29T02:53:46.000Z</time></trkpt>
        <trkpt lat="29.569602" lon="103.449759"><ele>501.99216</ele><time>2026-05-29T02:53:51.000Z</time></trkpt>
        <trkpt lat="29.569661" lon="103.44976"><ele>502.557</ele><time>2026-05-29T02:53:54.000Z</time></trkpt>
        <trkpt lat="29.569713" lon="103.449756"><ele>501.06238</ele><time>2026-05-29T02:54:01.000Z</time></trkpt>
        <trkpt lat="29.569763" lon="103.449782"><ele>498.5637</ele><time>2026-05-29T02:54:08.000Z</time></trkpt>
        <trkpt lat="29.569784" lon="103.449831"><ele>496.4561</ele><time>2026-05-29T02:54:12.000Z</time></trkpt>
        <trkpt lat="29.569775" lon="103.449895"><ele>494.30673</ele><time>2026-05-29T02:54:16.000Z</time></trkpt>
        <trkpt lat="29.569744" lon="103.449933"><ele>493.43356</ele><time>2026-05-29T02:54:30.000Z</time></trkpt>
        <trkpt lat="29.569802" lon="103.449938"><ele>494.11508</ele><time>2026-05-29T02:55:00.000Z</time></trkpt>
        <trkpt lat="29.569855" lon="103.449946"><ele>495.1029</ele><time>2026-05-29T02:55:06.000Z</time></trkpt>
        <trkpt lat="29.569904" lon="103.449926"><ele>497.63022</ele><time>2026-05-29T02:55:12.000Z</time></trkpt>
        <trkpt lat="29.569949" lon="103.44991"><ele>497.6338</ele><time>2026-05-29T02:55:22.000Z</time></trkpt>
        <trkpt lat="29.569986" lon="103.44994"><ele>498.163</ele><time>2026-05-29T02:57:08.000Z</time></trkpt>
        <trkpt lat="29.570028" lon="103.44996"><ele>499.7675</ele><time>2026-05-29T03:00:16.000Z</time></trkpt>
        <trkpt lat="29.570042" lon="103.45002"><ele>501.83777</ele><time>2026-05-29T03:03:19.000Z</time></trkpt>
        <trkpt lat="29.570063" lon="103.45013"><ele>499.68817</ele><time>2026-05-29T03:03:50.000Z</time></trkpt>
        <trkpt lat="29.570016" lon="103.450136"><ele>498.32806</ele><time>2026-05-29T03:04:14.000Z</time></trkpt>
        <trkpt lat="29.569989" lon="103.450179"><ele>499.7514</ele><time>2026-05-29T03:04:25.000Z</time></trkpt>
        <trkpt lat="29.56997" lon="103.450235"><ele>500.31592</ele><time>2026-05-29T03:04:30.000Z</time></trkpt>
        <trkpt lat="29.569964" lon="103.450287"><ele>499.77554</ele><time>2026-05-29T03:04:35.000Z</time></trkpt>
        <trkpt lat="29.569946" lon="103.450337"><ele>499.1385</ele><time>2026-05-29T03:04:38.000Z</time></trkpt>
        <trkpt lat="29.569948" lon="103.450399"><ele>500.91223</ele><time>2026-05-29T03:04:43.000Z</time></trkpt>
        <trkpt lat="29.569924" lon="103.450443"><ele>501.31607</ele><time>2026-05-29T03:04:47.000Z</time></trkpt>
        <trkpt lat="29.569937" lon="103.450503"><ele>499.72223</ele><time>2026-05-29T03:04:53.000Z</time></trkpt>
        <trkpt lat="29.569947" lon="103.45056"><ele>500.02368</ele><time>2026-05-29T03:04:56.000Z</time></trkpt>
        <trkpt lat="29.569944" lon="103.450622"><ele>499.0569</ele><time>2026-05-29T03:05:00.000Z</time></trkpt>
        <trkpt lat="29.569941" lon="103.450688"><ele>498.7843</ele><time>2026-05-29T03:05:05.000Z</time></trkpt>
        <trkpt lat="29.569964" lon="103.450747"><ele>499.8789</ele><time>2026-05-29T03:05:09.000Z</time></trkpt>
        <trkpt lat="29.569992" lon="103.450796"><ele>500.29028</ele><time>2026-05-29T03:05:14.000Z</time></trkpt>
        <trkpt lat="29.570009" lon="103.450851"><ele>500.97073</ele><time>2026-05-29T03:05:18.000Z</time></trkpt>
        <trkpt lat="29.570036" lon="103.450898"><ele>500.8189</ele><time>2026-05-29T03:05:21.000Z</time></trkpt>
        <trkpt lat="29.570068" lon="103.450947"><ele>497.98392</ele><time>2026-05-29T03:05:29.000Z</time></trkpt>
        <trkpt lat="29.57007" lon="103.450999"><ele>495.94052</ele><time>2026-05-29T03:05:36.000Z</time></trkpt>
        <trkpt lat="29.570065" lon="103.451057"><ele>495.87036</ele><time>2026-05-29T03:05:42.000Z</time></trkpt>
        <trkpt lat="29.570051" lon="103.451107"><ele>493.49103</ele><time>2026-05-29T03:05:55.000Z</time></trkpt>
        <trkpt lat="29.570038" lon="103.451165"><ele>493.33875</ele><time>2026-05-29T03:06:23.000Z</time></trkpt>
        <trkpt lat="29.570009" lon="103.451206"><ele>493.48987</ele><time>2026-05-29T03:06:27.000Z</time></trkpt>
        <trkpt lat="29.569983" lon="103.451249"><ele>494.0984</ele><time>2026-05-29T03:06:31.000Z</time></trkpt>
        <trkpt lat="29.569945" lon="103.451288"><ele>494.2766</ele><time>2026-05-29T03:06:36.000Z</time></trkpt>
        <trkpt lat="29.569917" lon="103.451337"><ele>494.90463</ele><time>2026-05-29T03:06:41.000Z</time></trkpt>
        <trkpt lat="29.569919" lon="103.451389"><ele>494.09305</ele><time>2026-05-29T03:06:48.000Z</time></trkpt>
        <trkpt lat="29.569952" lon="103.451427"><ele>493.92288</ele><time>2026-05-29T03:06:55.000Z</time></trkpt>
        <trkpt lat="29.569974" lon="103.451481"><ele>493.18457</ele><time>2026-05-29T03:07:00.000Z</time></trkpt>
        <trkpt lat="29.570004" lon="103.451526"><ele>493.47263</ele><time>2026-05-29T03:07:05.000Z</time></trkpt>
        <trkpt lat="29.570059" lon="103.451532"><ele>493.57526</ele><time>2026-05-29T03:07:10.000Z</time></trkpt>
        <trkpt lat="29.570108" lon="103.451527"><ele>492.4425</ele><time>2026-05-29T03:07:15.000Z</time></trkpt>
        <trkpt lat="29.570156" lon="103.451519"><ele>492.25784</ele><time>2026-05-29T03:07:19.000Z</time></trkpt>
        <trkpt lat="29.570203" lon="103.451501"><ele>492.23727</ele><time>2026-05-29T03:07:32.000Z</time></trkpt>
        <trkpt lat="29.570254" lon="103.451483"><ele>492.22772</ele><time>2026-05-29T03:07:43.000Z</time></trkpt>
        <trkpt lat="29.570298" lon="103.45146"><ele>492.60565</ele><time>2026-05-29T03:07:53.000Z</time></trkpt>
        <trkpt lat="29.570343" lon="103.451443"><ele>492.3512</ele><time>2026-05-29T03:07:58.000Z</time></trkpt>
        <trkpt lat="29.57039" lon="103.451466"><ele>492.36276</ele><time>2026-05-29T03:08:04.000Z</time></trkpt>
        <trkpt lat="29.570427" lon="103.4515"><ele>492.92178</ele><time>2026-05-29T03:08:08.000Z</time></trkpt>
        <trkpt lat="29.570461" lon="103.45154"><ele>492.9939</ele><time>2026-05-29T03:08:12.000Z</time></trkpt>
        <trkpt lat="29.5705" lon="103.451579"><ele>492.6944</ele><time>2026-05-29T03:08:16.000Z</time></trkpt>
        <trkpt lat="29.570542" lon="103.451616"><ele>493.26724</ele><time>2026-05-29T03:08:21.000Z</time></trkpt>
        <trkpt lat="29.570592" lon="103.451644"><ele>494.08054</ele><time>2026-05-29T03:08:26.000Z</time></trkpt>
        <trkpt lat="29.570635" lon="103.451669"><ele>494.46188</ele><time>2026-05-29T03:08:30.000Z</time></trkpt>
        <trkpt lat="29.570676" lon="103.451695"><ele>494.30383</ele><time>2026-05-29T03:08:34.000Z</time></trkpt>
        <trkpt lat="29.570706" lon="103.451747"><ele>493.91302</ele><time>2026-05-29T03:08:39.000Z</time></trkpt>
        <trkpt lat="29.570733" lon="103.451801"><ele>493.6479</ele><time>2026-05-29T03:08:44.000Z</time></trkpt>
        <trkpt lat="29.570752" lon="103.451858"><ele>493.30377</ele><time>2026-05-29T03:08:49.000Z</time></trkpt>
        <trkpt lat="29.570766" lon="103.451919"><ele>493.0505</ele><time>2026-05-29T03:08:54.000Z</time></trkpt>
        <trkpt lat="29.570779" lon="103.451974"><ele>492.44492</ele><time>2026-05-29T03:08:58.000Z</time></trkpt>
        <trkpt lat="29.570786" lon="103.452028"><ele>492.88715</ele><time>2026-05-29T03:09:03.000Z</time></trkpt>
        <trkpt lat="29.570783" lon="103.452093"><ele>492.95804</ele><time>2026-05-29T03:09:08.000Z</time></trkpt>
        <trkpt lat="29.570783" lon="103.452147"><ele>494.32455</ele><time>2026-05-29T03:10:26.000Z</time></trkpt>
        <trkpt lat="29.570772" lon="103.452205"><ele>494.6205</ele><time>2026-05-29T03:10:53.000Z</time></trkpt>
        <trkpt lat="29.570772" lon="103.452265"><ele>495.82025</ele><time>2026-05-29T03:10:58.000Z</time></trkpt>
        <trkpt lat="29.570775" lon="103.452321"><ele>495.58188</ele><time>2026-05-29T03:11:04.000Z</time></trkpt>
        <trkpt lat="29.570792" lon="103.452373"><ele>496.98193</ele><time>2026-05-29T03:11:09.000Z</time></trkpt>
        <trkpt lat="29.570811" lon="103.45243"><ele>496.04413</ele><time>2026-05-29T03:11:14.000Z</time></trkpt>
        <trkpt lat="29.570826" lon="103.452483"><ele>494.27258</ele><time>2026-05-29T03:11:19.000Z</time></trkpt>
        <trkpt lat="29.570838" lon="103.452537"><ele>494.19012</ele><time>2026-05-29T03:11:23.000Z</time></trkpt>
        <trkpt lat="29.570854" lon="103.452594"><ele>494.34134</ele><time>2026-05-29T03:11:28.000Z</time></trkpt>
        <trkpt lat="29.570871" lon="103.452654"><ele>493.60864</ele><time>2026-05-29T03:11:32.000Z</time></trkpt>
        <trkpt lat="29.570883" lon="103.452712"><ele>493.84457</ele><time>2026-05-29T03:11:36.000Z</time></trkpt>
        <trkpt lat="29.570898" lon="103.452764"><ele>492.81323</ele><time>2026-05-29T03:11:40.000Z</time></trkpt>
        <trkpt lat="29.570907" lon="103.452826"><ele>492.20966</ele><time>2026-05-29T03:11:45.000Z</time></trkpt>
        <trkpt lat="29.570918" lon="103.452884"><ele>492.091</ele><time>2026-05-29T03:11:50.000Z</time></trkpt>
        <trkpt lat="29.570942" lon="103.452931"><ele>492.60953</ele><time>2026-05-29T03:11:54.000Z</time></trkpt>
        <trkpt lat="29.570974" lon="103.452979"><ele>492.7343</ele><time>2026-05-29T03:11:59.000Z</time></trkpt>
        <trkpt lat="29.571025" lon="103.452983"><ele>492.0167</ele><time>2026-05-29T03:12:04.000Z</time></trkpt>
        <trkpt lat="29.571013" lon="103.453038"><ele>491.52875</ele><time>2026-05-29T03:12:17.000Z</time></trkpt>
        <trkpt lat="29.57103" lon="103.45309"><ele>492.16904</ele><time>2026-05-29T03:12:21.000Z</time></trkpt>
        <trkpt lat="29.571059" lon="103.453139"><ele>492.10077</ele><time>2026-05-29T03:12:25.000Z</time></trkpt>
        <trkpt lat="29.57107" lon="103.453199"><ele>492.95743</ele><time>2026-05-29T03:12:30.000Z</time></trkpt>
        <trkpt lat="29.571089" lon="103.453247"><ele>492.41345</ele><time>2026-05-29T03:12:34.000Z</time></trkpt>
        <trkpt lat="29.571104" lon="103.453301"><ele>492.25534</ele><time>2026-05-29T03:12:38.000Z</time></trkpt>
        <trkpt lat="29.571111" lon="103.453352"><ele>491.42224</ele><time>2026-05-29T03:12:42.000Z</time></trkpt>
        <trkpt lat="29.571121" lon="103.453412"><ele>491.0455</ele><time>2026-05-29T03:12:47.000Z</time></trkpt>
        <trkpt lat="29.571122" lon="103.453469"><ele>490.58368</ele><time>2026-05-29T03:12:52.000Z</time></trkpt>
        <trkpt lat="29.571118" lon="103.453521"><ele>491.26978</ele><time>2026-05-29T03:12:56.000Z</time></trkpt>
        <trkpt lat="29.571117" lon="103.453574"><ele>491.9171</ele><time>2026-05-29T03:13:00.000Z</time></trkpt>
        <trkpt lat="29.571114" lon="103.45363"><ele>491.9154</ele><time>2026-05-29T03:13:05.000Z</time></trkpt>
        <trkpt lat="29.571131" lon="103.453687"><ele>491.63544</ele><time>2026-05-29T03:13:10.000Z</time></trkpt>
        <trkpt lat="29.57115" lon="103.453742"><ele>491.8307</ele><time>2026-05-29T03:13:15.000Z</time></trkpt>
        <trkpt lat="29.571161" lon="103.453796"><ele>491.45984</ele><time>2026-05-29T03:13:20.000Z</time></trkpt>
        <trkpt lat="29.571191" lon="103.453845"><ele>492.1402</ele><time>2026-05-29T03:13:26.000Z</time></trkpt>
        <trkpt lat="29.57121" lon="103.453895"><ele>491.08206</ele><time>2026-05-29T03:13:32.000Z</time></trkpt>
        <trkpt lat="29.571231" lon="103.453946"><ele>490.23325</ele><time>2026-05-29T03:13:38.000Z</time></trkpt>
        <trkpt lat="29.57124" lon="103.454002"><ele>490.1733</ele><time>2026-05-29T03:13:42.000Z</time></trkpt>
        <trkpt lat="29.571256" lon="103.454051"><ele>489.90042</ele><time>2026-05-29T03:13:46.000Z</time></trkpt>
        <trkpt lat="29.571261" lon="103.45411"><ele>489.17932</ele><time>2026-05-29T03:13:51.000Z</time></trkpt>
        <trkpt lat="29.571276" lon="103.454163"><ele>488.27188</ele><time>2026-05-29T03:13:55.000Z</time></trkpt>
        <trkpt lat="29.571292" lon="103.454213"><ele>487.9501</ele><time>2026-05-29T03:13:59.000Z</time></trkpt>
        <trkpt lat="29.571327" lon="103.454261"><ele>487.32382</ele><time>2026-05-29T03:14:04.000Z</time></trkpt>
        <trkpt lat="29.571384" lon="103.454279"><ele>488.902</ele><time>2026-05-29T03:14:09.000Z</time></trkpt>
        <trkpt lat="29.571435" lon="103.45428"><ele>489.20993</ele><time>2026-05-29T03:14:13.000Z</time></trkpt>
        <trkpt lat="29.571482" lon="103.454297"><ele>489.52173</ele><time>2026-05-29T03:14:17.000Z</time></trkpt>
        <trkpt lat="29.571531" lon="103.454315"><ele>489.08978</ele><time>2026-05-29T03:14:22.000Z</time></trkpt>
        <trkpt lat="29.571581" lon="103.45433"><ele>488.80054</ele><time>2026-05-29T03:14:27.000Z</time></trkpt>
        <trkpt lat="29.571619" lon="103.454361"><ele>488.57446</ele><time>2026-05-29T03:14:32.000Z</time></trkpt>
        <trkpt lat="29.57166" lon="103.4544"><ele>489.15878</ele><time>2026-05-29T03:14:37.000Z</time></trkpt>
        <trkpt lat="29.571695" lon="103.454433"><ele>489.1311</ele><time>2026-05-29T03:14:41.000Z</time></trkpt>
        <trkpt lat="29.571737" lon="103.454476"><ele>488.56485</ele><time>2026-05-29T03:14:46.000Z</time></trkpt>
        <trkpt lat="29.571773" lon="103.454513"><ele>487.7721</ele><time>2026-05-29T03:14:50.000Z</time></trkpt>
        <trkpt lat="29.571804" lon="103.454557"><ele>486.71252</ele><time>2026-05-29T03:14:55.000Z</time></trkpt>
        <trkpt lat="29.571848" lon="103.454597"><ele>485.96045</ele><time>2026-05-29T03:15:00.000Z</time></trkpt>
        <trkpt lat="29.571889" lon="103.454633"><ele>485.8511</ele><time>2026-05-29T03:15:05.000Z</time></trkpt>
        <trkpt lat="29.571908" lon="103.45469"><ele>484.90982</ele><time>2026-05-29T03:15:10.000Z</time></trkpt>
        <trkpt lat="29.57195" lon="103.454724"><ele>484.91702</ele><time>2026-05-29T03:15:15.000Z</time></trkpt>
        <trkpt lat="29.571982" lon="103.454764"><ele>484.55865</ele><time>2026-05-29T03:15:19.000Z</time></trkpt>
        <trkpt lat="29.57202" lon="103.4548"><ele>484.77542</ele><time>2026-05-29T03:15:23.000Z</time></trkpt>
        <trkpt lat="29.572056" lon="103.454833"><ele>484.95154</ele><time>2026-05-29T03:15:27.000Z</time></trkpt>
        <trkpt lat="29.572096" lon="103.454878"><ele>485.0125</ele><time>2026-05-29T03:15:32.000Z</time></trkpt>
        <trkpt lat="29.572143" lon="103.454912"><ele>485.1541</ele><time>2026-05-29T03:15:37.000Z</time></trkpt>
        <trkpt lat="29.57218" lon="103.454951"><ele>484.24475</ele><time>2026-05-29T03:15:42.000Z</time></trkpt>
        <trkpt lat="29.572209" lon="103.454993"><ele>484.21115</ele><time>2026-05-29T03:15:46.000Z</time></trkpt>
        <trkpt lat="29.572235" lon="103.455046"><ele>482.9967</ele><time>2026-05-29T03:15:51.000Z</time></trkpt>
        <trkpt lat="29.572277" lon="103.455077"><ele>483.02106</ele><time>2026-05-29T03:15:55.000Z</time></trkpt>
        <trkpt lat="29.57231" lon="103.455118"><ele>482.66977</ele><time>2026-05-29T03:15:59.000Z</time></trkpt>
        <trkpt lat="29.57235" lon="103.455162"><ele>482.6551</ele><time>2026-05-29T03:16:04.000Z</time></trkpt>
        <trkpt lat="29.572383" lon="103.455198"><ele>483.53177</ele><time>2026-05-29T03:16:08.000Z</time></trkpt>
        <trkpt lat="29.572426" lon="103.455238"><ele>484.6434</ele><time>2026-05-29T03:16:14.000Z</time></trkpt>
        <trkpt lat="29.572463" lon="103.455275"><ele>484.2857</ele><time>2026-05-29T03:16:19.000Z</time></trkpt>
        <trkpt lat="29.5725" lon="103.455312"><ele>484.28204</ele><time>2026-05-29T03:16:24.000Z</time></trkpt>
        <trkpt lat="29.572526" lon="103.455362"><ele>483.37762</ele><time>2026-05-29T03:16:29.000Z</time></trkpt>
        <trkpt lat="29.572554" lon="103.455414"><ele>481.7863</ele><time>2026-05-29T03:16:35.000Z</time></trkpt>
        <trkpt lat="29.572601" lon="103.455424"><ele>479.68384</ele><time>2026-05-29T03:16:42.000Z</time></trkpt>
        <trkpt lat="29.572634" lon="103.455468"><ele>479.569</ele><time>2026-05-29T03:16:53.000Z</time></trkpt>
        <trkpt lat="29.572674" lon="103.455507"><ele>479.9166</ele><time>2026-05-29T03:16:59.000Z</time></trkpt>
        <trkpt lat="29.572714" lon="103.455543"><ele>479.9587</ele><time>2026-05-29T03:17:05.000Z</time></trkpt>
        <trkpt lat="29.572755" lon="103.45558"><ele>480.1036</ele><time>2026-05-29T03:17:10.000Z</time></trkpt>
        <trkpt lat="29.572802" lon="103.455611"><ele>481.0838</ele><time>2026-05-29T03:17:14.000Z</time></trkpt>
        <trkpt lat="29.572831" lon="103.455654"><ele>481.31583</ele><time>2026-05-29T03:17:19.000Z</time></trkpt>
        <trkpt lat="29.572863" lon="103.455697"><ele>481.4167</ele><time>2026-05-29T03:17:24.000Z</time></trkpt>
        <trkpt lat="29.572906" lon="103.455734"><ele>482.23737</ele><time>2026-05-29T03:17:30.000Z</time></trkpt>
        <trkpt lat="29.572943" lon="103.455775"><ele>482.77313</ele><time>2026-05-29T03:17:36.000Z</time></trkpt>
        <trkpt lat="29.57298" lon="103.455816"><ele>482.67508</ele><time>2026-05-29T03:17:41.000Z</time></trkpt>
        <trkpt lat="29.57302" lon="103.455859"><ele>482.71686</ele><time>2026-05-29T03:17:47.000Z</time></trkpt>
        <trkpt lat="29.573064" lon="103.455897"><ele>484.79556</ele><time>2026-05-29T03:17:53.000Z</time></trkpt>
        <trkpt lat="29.573093" lon="103.455938"><ele>484.21133</ele><time>2026-05-29T03:17:59.000Z</time></trkpt>
        <trkpt lat="29.573136" lon="103.455982"><ele>482.23572</ele><time>2026-05-29T03:18:04.000Z</time></trkpt>
        <trkpt lat="29.57317" lon="103.456024"><ele>480.82217</ele><time>2026-05-29T03:18:09.000Z</time></trkpt>
        <trkpt lat="29.573206" lon="103.456064"><ele>481.09906</ele><time>2026-05-29T03:18:14.000Z</time></trkpt>
        <trkpt lat="29.573252" lon="103.456098"><ele>480.93256</ele><time>2026-05-29T03:18:19.000Z</time></trkpt>
        <trkpt lat="29.573282" lon="103.456147"><ele>481.3226</ele><time>2026-05-29T03:18:25.000Z</time></trkpt>
        <trkpt lat="29.573324" lon="103.456184"><ele>482.35205</ele><time>2026-05-29T03:18:31.000Z</time></trkpt>
        <trkpt lat="29.573372" lon="103.4562"><ele>482.69522</ele><time>2026-05-29T03:18:36.000Z</time></trkpt>
        <trkpt lat="29.573416" lon="103.456228"><ele>484.01376</ele><time>2026-05-29T03:18:41.000Z</time></trkpt>
        <trkpt lat="29.573455" lon="103.456265"><ele>482.2842</ele><time>2026-05-29T03:18:45.000Z</time></trkpt>
        <trkpt lat="29.573497" lon="103.456302"><ele>483.20496</ele><time>2026-05-29T03:18:50.000Z</time></trkpt>
        <trkpt lat="29.573532" lon="103.45634"><ele>483.93222</ele><time>2026-05-29T03:18:56.000Z</time></trkpt>
        <trkpt lat="29.573544" lon="103.456392"><ele>482.59088</ele><time>2026-05-29T03:19:01.000Z</time></trkpt>
        <trkpt lat="29.573574" lon="103.456439"><ele>482.5246</ele><time>2026-05-29T03:19:07.000Z</time></trkpt>
        <trkpt lat="29.573614" lon="103.456467"><ele>480.69537</ele><time>2026-05-29T03:19:13.000Z</time></trkpt>
        <trkpt lat="29.573651" lon="103.456499"><ele>480.27783</ele><time>2026-05-29T03:19:17.000Z</time></trkpt>
        <trkpt lat="29.573696" lon="103.456535"><ele>479.6159</ele><time>2026-05-29T03:19:22.000Z</time></trkpt>
        <trkpt lat="29.573734" lon="103.456573"><ele>479.70538</ele><time>2026-05-29T03:19:27.000Z</time></trkpt>
        <trkpt lat="29.573767" lon="103.456621"><ele>479.15652</ele><time>2026-05-29T03:19:33.000Z</time></trkpt>
        <trkpt lat="29.573804" lon="103.456656"><ele>478.3444</ele><time>2026-05-29T03:19:39.000Z</time></trkpt>
        <trkpt lat="29.573842" lon="103.456698"><ele>478.67902</ele><time>2026-05-29T03:19:45.000Z</time></trkpt>
        <trkpt lat="29.573878" lon="103.456736"><ele>478.99222</ele><time>2026-05-29T03:19:53.000Z</time></trkpt>
        <trkpt lat="29.573921" lon="103.456764"><ele>480.14032</ele><time>2026-05-29T03:19:58.000Z</time></trkpt>
        <trkpt lat="29.573961" lon="103.456797"><ele>479.715</ele><time>2026-05-29T03:20:04.000Z</time></trkpt>
        <trkpt lat="29.573995" lon="103.456834"><ele>478.86484</ele><time>2026-05-29T03:20:09.000Z</time></trkpt>
        <trkpt lat="29.57403" lon="103.456873"><ele>479.3508</ele><time>2026-05-29T03:20:14.000Z</time></trkpt>
        <trkpt lat="29.574064" lon="103.456908"><ele>478.58517</ele><time>2026-05-29T03:20:18.000Z</time></trkpt>
        <trkpt lat="29.574101" lon="103.456946"><ele>478.17715</ele><time>2026-05-29T03:20:24.000Z</time></trkpt>
        <trkpt lat="29.574136" lon="103.456988"><ele>476.76312</ele><time>2026-05-29T03:20:30.000Z</time></trkpt>
        <trkpt lat="29.574172" lon="103.457029"><ele>477.317</ele><time>2026-05-29T03:20:35.000Z</time></trkpt>
        <trkpt lat="29.574205" lon="103.457068"><ele>477.92242</ele><time>2026-05-29T03:20:40.000Z</time></trkpt>
        <trkpt lat="29.574238" lon="103.457105"><ele>476.83167</ele><time>2026-05-29T03:20:45.000Z</time></trkpt>
        <trkpt lat="29.57428" lon="103.457146"><ele>475.74802</ele><time>2026-05-29T03:20:50.000Z</time></trkpt>
        <trkpt lat="29.574315" lon="103.457182"><ele>475.1475</ele><time>2026-05-29T03:20:54.000Z</time></trkpt>
        <trkpt lat="29.574339" lon="103.457227"><ele>475.7998</ele><time>2026-05-29T03:21:08.000Z</time></trkpt>
        <trkpt lat="29.574359" lon="103.457277"><ele>476.656</ele><time>2026-05-29T03:21:23.000Z</time></trkpt>
        <trkpt lat="29.574385" lon="103.457322"><ele>475.5595</ele><time>2026-05-29T03:21:27.000Z</time></trkpt>
        <trkpt lat="29.574425" lon="103.457357"><ele>476.49182</ele><time>2026-05-29T03:21:32.000Z</time></trkpt>
        <trkpt lat="29.574464" lon="103.457386"><ele>477.43594</ele><time>2026-05-29T03:21:35.000Z</time></trkpt>
        <trkpt lat="29.574503" lon="103.457432"><ele>477.51736</ele><time>2026-05-29T03:21:40.000Z</time></trkpt>
        <trkpt lat="29.574521" lon="103.457484"><ele>476.19675</ele><time>2026-05-29T03:21:44.000Z</time></trkpt>
        <trkpt lat="29.57455" lon="103.457523"><ele>475.38297</ele><time>2026-05-29T03:21:49.000Z</time></trkpt>
        <trkpt lat="29.574594" lon="103.457556"><ele>474.36664</ele><time>2026-05-29T03:21:54.000Z</time></trkpt>
        <trkpt lat="29.574635" lon="103.457587"><ele>474.05844</ele><time>2026-05-29T03:21:58.000Z</time></trkpt>
        <trkpt lat="29.574673" lon="103.457625"><ele>474.717</ele><time>2026-05-29T03:22:02.000Z</time></trkpt>
        <trkpt lat="29.574719" lon="103.457656"><ele>475.12643</ele><time>2026-05-29T03:22:07.000Z</time></trkpt>
        <trkpt lat="29.574769" lon="103.457681"><ele>475.7517</ele><time>2026-05-29T03:22:12.000Z</time></trkpt>
        <trkpt lat="29.574811" lon="103.457716"><ele>475.45105</ele><time>2026-05-29T03:22:17.000Z</time></trkpt>
        <trkpt lat="29.574852" lon="103.457754"><ele>474.4738</ele><time>2026-05-29T03:22:22.000Z</time></trkpt>
        <trkpt lat="29.574887" lon="103.457799"><ele>473.91333</ele><time>2026-05-29T03:22:27.000Z</time></trkpt>
        <trkpt lat="29.574916" lon="103.457848"><ele>472.97238</ele><time>2026-05-29T03:22:32.000Z</time></trkpt>
        <trkpt lat="29.57496" lon="103.457883"><ele>473.86526</ele><time>2026-05-29T03:22:38.000Z</time></trkpt>
        <trkpt lat="29.574995" lon="103.45793"><ele>473.31238</ele><time>2026-05-29T03:22:43.000Z</time></trkpt>
        <trkpt lat="29.575036" lon="103.457961"><ele>472.45667</ele><time>2026-05-29T03:22:47.000Z</time></trkpt>
        <trkpt lat="29.575075" lon="103.457997"><ele>472.71954</ele><time>2026-05-29T03:22:52.000Z</time></trkpt>
        <trkpt lat="29.5751" lon="103.45804"><ele>472.36465</ele><time>2026-05-29T03:22:57.000Z</time></trkpt>
        <trkpt lat="29.57514" lon="103.458076"><ele>472.54385</ele><time>2026-05-29T03:23:01.000Z</time></trkpt>
        <trkpt lat="29.575189" lon="103.458097"><ele>472.74188</ele><time>2026-05-29T03:23:05.000Z</time></trkpt>
        <trkpt lat="29.575227" lon="103.458132"><ele>472.39774</ele><time>2026-05-29T03:23:09.000Z</time></trkpt>
        <trkpt lat="29.57526" lon="103.458167"><ele>473.4231</ele><time>2026-05-29T03:23:14.000Z</time></trkpt>
        <trkpt lat="29.575285" lon="103.458224"><ele>473.10083</ele><time>2026-05-29T03:28:33.000Z</time></trkpt>
        <trkpt lat="29.575322" lon="103.458262"><ele>473.41837</ele><time>2026-05-29T03:28:38.000Z</time></trkpt>
        <trkpt lat="29.575366" lon="103.458301"><ele>473.05658</ele><time>2026-05-29T03:28:44.000Z</time></trkpt>
        <trkpt lat="29.575407" lon="103.458343"><ele>474.3343</ele><time>2026-05-29T03:28:50.000Z</time></trkpt>
        <trkpt lat="29.57545" lon="103.458367"><ele>473.04776</ele><time>2026-05-29T03:28:55.000Z</time></trkpt>
        <trkpt lat="29.575489" lon="103.458397"><ele>471.72873</ele><time>2026-05-29T03:29:00.000Z</time></trkpt>
        <trkpt lat="29.575534" lon="103.458428"><ele>471.2009</ele><time>2026-05-29T03:29:06.000Z</time></trkpt>
        <trkpt lat="29.575581" lon="103.458459"><ele>471.68512</ele><time>2026-05-29T03:29:12.000Z</time></trkpt>
        <trkpt lat="29.575625" lon="103.458483"><ele>472.54248</ele><time>2026-05-29T03:29:17.000Z</time></trkpt>
        <trkpt lat="29.575674" lon="103.458512"><ele>471.56308</ele><time>2026-05-29T03:29:24.000Z</time></trkpt>
        <trkpt lat="29.575715" lon="103.458541"><ele>472.72546</ele><time>2026-05-29T03:29:30.000Z</time></trkpt>
        <trkpt lat="29.575762" lon="103.458558"><ele>472.6088</ele><time>2026-05-29T03:29:36.000Z</time></trkpt>
        <trkpt lat="29.575814" lon="103.458564"><ele>470.61356</ele><time>2026-05-29T03:29:42.000Z</time></trkpt>
        <trkpt lat="29.575858" lon="103.458585"><ele>470.50433</ele><time>2026-05-29T03:29:46.000Z</time></trkpt>
        <trkpt lat="29.575898" lon="103.458614"><ele>469.31525</ele><time>2026-05-29T03:29:52.000Z</time></trkpt>
        <trkpt lat="29.575943" lon="103.458633"><ele>469.5202</ele><time>2026-05-29T03:29:57.000Z</time></trkpt>
        <trkpt lat="29.575991" lon="103.458655"><ele>468.8098</ele><time>2026-05-29T03:30:02.000Z</time></trkpt>
        <trkpt lat="29.576043" lon="103.45867"><ele>468.59106</ele><time>2026-05-29T03:30:06.000Z</time></trkpt>
        <trkpt lat="29.576086" lon="103.458687"><ele>468.15973</ele><time>2026-05-29T03:30:10.000Z</time></trkpt>
        <trkpt lat="29.576127" lon="103.458709"><ele>468.21628</ele><time>2026-05-29T03:30:14.000Z</time></trkpt>
        <trkpt lat="29.576169" lon="103.458729"><ele>468.08368</ele><time>2026-05-29T03:30:18.000Z</time></trkpt>
        <trkpt lat="29.576215" lon="103.458766"><ele>468.12512</ele><time>2026-05-29T03:30:23.000Z</time></trkpt>
        <trkpt lat="29.576262" lon="103.458782"><ele>468.3992</ele><time>2026-05-29T03:30:28.000Z</time></trkpt>
        <trkpt lat="29.576301" lon="103.45881"><ele>469.81345</ele><time>2026-05-29T03:30:34.000Z</time></trkpt>
        <trkpt lat="29.576336" lon="103.458848"><ele>469.69534</ele><time>2026-05-29T03:30:39.000Z</time></trkpt>
        <trkpt lat="29.576387" lon="103.458866"><ele>465.99197</ele><time>2026-05-29T03:30:46.000Z</time></trkpt>
        <trkpt lat="29.576434" lon="103.458894"><ele>464.87634</ele><time>2026-05-29T03:30:51.000Z</time></trkpt>
        <trkpt lat="29.57648" lon="103.458917"><ele>462.43417</ele><time>2026-05-29T03:30:58.000Z</time></trkpt>
        <trkpt lat="29.576521" lon="103.458952"><ele>463.22992</ele><time>2026-05-29T03:31:03.000Z</time></trkpt>
        <trkpt lat="29.576556" lon="103.458985"><ele>463.32947</ele><time>2026-05-29T03:31:08.000Z</time></trkpt>
        <trkpt lat="29.5766" lon="103.459014"><ele>463.81558</ele><time>2026-05-29T03:31:12.000Z</time></trkpt>
        <trkpt lat="29.576613" lon="103.459064"><ele>465.29926</ele><time>2026-05-29T03:31:16.000Z</time></trkpt>
        <trkpt lat="29.576618" lon="103.45912"><ele>465.12527</ele><time>2026-05-29T03:31:21.000Z</time></trkpt>
        <trkpt lat="29.576616" lon="103.459182"><ele>465.741</ele><time>2026-05-29T03:31:26.000Z</time></trkpt>
        <trkpt lat="29.576615" lon="103.45924"><ele>465.12537</ele><time>2026-05-29T03:31:32.000Z</time></trkpt>
        <trkpt lat="29.576609" lon="103.459295"><ele>466.6189</ele><time>2026-05-29T03:31:37.000Z</time></trkpt>
        <trkpt lat="29.576622" lon="103.459347"><ele>465.99158</ele><time>2026-05-29T03:31:42.000Z</time></trkpt>
        <trkpt lat="29.576625" lon="103.459405"><ele>465.95276</ele><time>2026-05-29T03:31:46.000Z</time></trkpt>
        <trkpt lat="29.576628" lon="103.459465"><ele>467.3283</ele><time>2026-05-29T03:31:51.000Z</time></trkpt>
        <trkpt lat="29.576629" lon="103.459525"><ele>467.87726</ele><time>2026-05-29T03:31:56.000Z</time></trkpt>
        <trkpt lat="29.576642" lon="103.459586"><ele>468.64148</ele><time>2026-05-29T03:32:01.000Z</time></trkpt>
        <trkpt lat="29.576672" lon="103.459633"><ele>466.94464</ele><time>2026-05-29T03:32:07.000Z</time></trkpt>
        <trkpt lat="29.576685" lon="103.459694"><ele>467.31525</ele><time>2026-05-29T03:32:12.000Z</time></trkpt>
        <trkpt lat="29.576702" lon="103.45976"><ele>469.60373</ele><time>2026-05-29T03:32:18.000Z</time></trkpt>
        <trkpt lat="29.576709" lon="103.459818"><ele>471.21194</ele><time>2026-05-29T03:32:24.000Z</time></trkpt>
        <trkpt lat="29.576684" lon="103.459872"><ele>470.83853</ele><time>2026-05-29T03:32:28.000Z</time></trkpt>
        <trkpt lat="29.576695" lon="103.459937"><ele>471.44095</ele><time>2026-05-29T03:32:33.000Z</time></trkpt>
        <trkpt lat="29.576718" lon="103.459992"><ele>471.23822</ele><time>2026-05-29T03:32:37.000Z</time></trkpt>
        <trkpt lat="29.57674" lon="103.460047"><ele>470.3388</ele><time>2026-05-29T03:32:42.000Z</time></trkpt>
        <trkpt lat="29.576751" lon="103.460111"><ele>468.81125</ele><time>2026-05-29T03:32:47.000Z</time></trkpt>
        <trkpt lat="29.576742" lon="103.460162"><ele>468.22516</ele><time>2026-05-29T03:32:51.000Z</time></trkpt>
        <trkpt lat="29.576745" lon="103.460222"><ele>465.877</ele><time>2026-05-29T03:32:57.000Z</time></trkpt>
        <trkpt lat="29.576754" lon="103.460278"><ele>466.62564</ele><time>2026-05-29T03:33:01.000Z</time></trkpt>
        <trkpt lat="29.576768" lon="103.460335"><ele>466.98865</ele><time>2026-05-29T03:33:06.000Z</time></trkpt>
        <trkpt lat="29.576784" lon="103.460396"><ele>466.935</ele><time>2026-05-29T03:33:11.000Z</time></trkpt>
        <trkpt lat="29.576799" lon="103.460453"><ele>468.88547</ele><time>2026-05-29T03:33:15.000Z</time></trkpt>
        <trkpt lat="29.576825" lon="103.460507"><ele>468.97397</ele><time>2026-05-29T03:33:20.000Z</time></trkpt>
        <trkpt lat="29.576844" lon="103.460568"><ele>468.9918</ele><time>2026-05-29T03:33:25.000Z</time></trkpt>
        <trkpt lat="29.576848" lon="103.46063"><ele>468.25433</ele><time>2026-05-29T03:33:30.000Z</time></trkpt>
        <trkpt lat="29.576855" lon="103.460683"><ele>467.88177</ele><time>2026-05-29T03:33:34.000Z</time></trkpt>
        <trkpt lat="29.576855" lon="103.460738"><ele>467.47168</ele><time>2026-05-29T03:33:38.000Z</time></trkpt>
        <trkpt lat="29.576854" lon="103.460803"><ele>467.2716</ele><time>2026-05-29T03:33:43.000Z</time></trkpt>
        <trkpt lat="29.576859" lon="103.460855"><ele>466.71063</ele><time>2026-05-29T03:33:47.000Z</time></trkpt>
        <trkpt lat="29.57687" lon="103.460914"><ele>466.5057</ele><time>2026-05-29T03:33:52.000Z</time></trkpt>
        <trkpt lat="29.576883" lon="103.460969"><ele>466.47513</ele><time>2026-05-29T03:33:57.000Z</time></trkpt>
        <trkpt lat="29.576911" lon="103.46101"><ele>465.98975</ele><time>2026-05-29T03:34:02.000Z</time></trkpt>
        <trkpt lat="29.576944" lon="103.461063"><ele>465.60464</ele><time>2026-05-29T03:34:08.000Z</time></trkpt>
        <trkpt lat="29.576966" lon="103.461111"><ele>465.83673</ele><time>2026-05-29T03:34:13.000Z</time></trkpt>
        <trkpt lat="29.576983" lon="103.461164"><ele>466.05075</ele><time>2026-05-29T03:34:18.000Z</time></trkpt>
        <trkpt lat="29.577024" lon="103.461201"><ele>466.12515</ele><time>2026-05-29T03:34:22.000Z</time></trkpt>
        <trkpt lat="29.577076" lon="103.46121"><ele>466.15182</ele><time>2026-05-29T03:34:27.000Z</time></trkpt>
        <trkpt lat="29.577088" lon="103.461261"><ele>466.55554</ele><time>2026-05-29T03:34:34.000Z</time></trkpt>
        <trkpt lat="29.577128" lon="103.461293"><ele>466.07602</ele><time>2026-05-29T03:34:38.000Z</time></trkpt>
        <trkpt lat="29.577153" lon="103.461348"><ele>465.67142</ele><time>2026-05-29T03:34:44.000Z</time></trkpt>
        <trkpt lat="29.577166" lon="103.461398"><ele>465.1992</ele><time>2026-05-29T03:34:48.000Z</time></trkpt>
        <trkpt lat="29.577167" lon="103.461457"><ele>465.21362</ele><time>2026-05-29T03:34:56.000Z</time></trkpt>
        <trkpt lat="29.577159" lon="103.461521"><ele>464.7578</ele><time>2026-05-29T03:35:01.000Z</time></trkpt>
        <trkpt lat="29.577145" lon="103.461576"><ele>465.1979</ele><time>2026-05-29T03:35:06.000Z</time></trkpt>
        <trkpt lat="29.57712" lon="103.461632"><ele>465.9513</ele><time>2026-05-29T03:35:11.000Z</time></trkpt>
        <trkpt lat="29.577092" lon="103.461683"><ele>463.70773</ele><time>2026-05-29T03:35:16.000Z</time></trkpt>
        <trkpt lat="29.577135" lon="103.461717"><ele>463.2032</ele><time>2026-05-29T03:35:28.000Z</time></trkpt>
        <trkpt lat="29.577192" lon="103.46173"><ele>463.53946</ele><time>2026-05-29T03:35:33.000Z</time></trkpt>
        <trkpt lat="29.577238" lon="103.461748"><ele>463.14777</ele><time>2026-05-29T03:35:37.000Z</time></trkpt>
        <trkpt lat="29.577289" lon="103.461755"><ele>463.0464</ele><time>2026-05-29T03:35:42.000Z</time></trkpt>
        <trkpt lat="29.577338" lon="103.461769"><ele>462.21072</ele><time>2026-05-29T03:35:47.000Z</time></trkpt>
        <trkpt lat="29.577386" lon="103.461775"><ele>460.81522</ele><time>2026-05-29T03:35:52.000Z</time></trkpt>
        <trkpt lat="29.57744" lon="103.461781"><ele>461.23697</ele><time>2026-05-29T03:35:57.000Z</time></trkpt>
        <trkpt lat="29.577496" lon="103.46178"><ele>462.11606</ele><time>2026-05-29T03:36:02.000Z</time></trkpt>
        <trkpt lat="29.57755" lon="103.461785"><ele>461.3069</ele><time>2026-05-29T03:36:07.000Z</time></trkpt>
        <trkpt lat="29.577603" lon="103.461782"><ele>460.7757</ele><time>2026-05-29T03:36:11.000Z</time></trkpt>
        <trkpt lat="29.577649" lon="103.461787"><ele>460.20593</ele><time>2026-05-29T03:36:15.000Z</time></trkpt>
        <trkpt lat="29.577702" lon="103.461797"><ele>460.95435</ele><time>2026-05-29T03:36:20.000Z</time></trkpt>
        <trkpt lat="29.57776" lon="103.461808"><ele>460.42694</ele><time>2026-05-29T03:36:25.000Z</time></trkpt>
        <trkpt lat="29.577804" lon="103.461823"><ele>460.32407</ele><time>2026-05-29T03:36:29.000Z</time></trkpt>
        <trkpt lat="29.57785" lon="103.461842"><ele>459.8337</ele><time>2026-05-29T03:36:33.000Z</time></trkpt>
        <trkpt lat="29.577899" lon="103.461843"><ele>458.95764</ele><time>2026-05-29T03:36:37.000Z</time></trkpt>
        <trkpt lat="29.577944" lon="103.461853"><ele>459.8862</ele><time>2026-05-29T03:36:41.000Z</time></trkpt>
        <trkpt lat="29.577991" lon="103.461868"><ele>460.88266</ele><time>2026-05-29T03:36:45.000Z</time></trkpt>
        <trkpt lat="29.578043" lon="103.461875"><ele>461.91623</ele><time>2026-05-29T03:36:49.000Z</time></trkpt>
        <trkpt lat="29.578099" lon="103.46188"><ele>463.51105</ele><time>2026-05-29T03:36:54.000Z</time></trkpt>
        <trkpt lat="29.578142" lon="103.461895"><ele>463.63623</ele><time>2026-05-29T03:36:58.000Z</time></trkpt>
        <trkpt lat="29.578185" lon="103.46191"><ele>464.295</ele><time>2026-05-29T03:37:02.000Z</time></trkpt>
        <trkpt lat="29.578229" lon="103.461924"><ele>464.1906</ele><time>2026-05-29T03:37:06.000Z</time></trkpt>
        <trkpt lat="29.578274" lon="103.461945"><ele>465.35132</ele><time>2026-05-29T03:37:10.000Z</time></trkpt>
        <trkpt lat="29.578322" lon="103.46197"><ele>464.85043</ele><time>2026-05-29T03:37:15.000Z</time></trkpt>
        <trkpt lat="29.57837" lon="103.461997"><ele>464.91098</ele><time>2026-05-29T03:37:20.000Z</time></trkpt>
        <trkpt lat="29.578412" lon="103.462021"><ele>464.76245</ele><time>2026-05-29T03:37:24.000Z</time></trkpt>
        <trkpt lat="29.578459" lon="103.462056"><ele>464.5122</ele><time>2026-05-29T03:37:29.000Z</time></trkpt>
        <trkpt lat="29.578503" lon="103.462091"><ele>464.36417</ele><time>2026-05-29T03:37:34.000Z</time></trkpt>
        <trkpt lat="29.578546" lon="103.462123"><ele>464.0035</ele><time>2026-05-29T03:37:38.000Z</time></trkpt>
        <trkpt lat="29.578583" lon="103.462152"><ele>463.62994</ele><time>2026-05-29T03:37:42.000Z</time></trkpt>
        <trkpt lat="29.578622" lon="103.462181"><ele>462.59592</ele><time>2026-05-29T03:37:46.000Z</time></trkpt>
        <trkpt lat="29.578661" lon="103.462207"><ele>462.45825</ele><time>2026-05-29T03:37:50.000Z</time></trkpt>
        <trkpt lat="29.578709" lon="103.462237"><ele>461.582</ele><time>2026-05-29T03:37:55.000Z</time></trkpt>
        <trkpt lat="29.578754" lon="103.462271"><ele>461.00116</ele><time>2026-05-29T03:38:00.000Z</time></trkpt>
        <trkpt lat="29.578798" lon="103.462307"><ele>460.6831</ele><time>2026-05-29T03:38:05.000Z</time></trkpt>
        <trkpt lat="29.578844" lon="103.462345"><ele>459.73843</ele><time>2026-05-29T03:38:10.000Z</time></trkpt>
        <trkpt lat="29.57889" lon="103.462381"><ele>459.1689</ele><time>2026-05-29T03:38:15.000Z</time></trkpt>
        <trkpt lat="29.578935" lon="103.462407"><ele>459.48526</ele><time>2026-05-29T03:38:20.000Z</time></trkpt>
        <trkpt lat="29.578981" lon="103.462439"><ele>459.21704</ele><time>2026-05-29T03:38:25.000Z</time></trkpt>
        <trkpt lat="29.579025" lon="103.462475"><ele>459.62082</ele><time>2026-05-29T03:38:30.000Z</time></trkpt>
        <trkpt lat="29.579071" lon="103.462504"><ele>460.08752</ele><time>2026-05-29T03:38:35.000Z</time></trkpt>
        <trkpt lat="29.579111" lon="103.462533"><ele>460.26044</ele><time>2026-05-29T03:38:39.000Z</time></trkpt>
        <trkpt lat="29.579155" lon="103.462567"><ele>461.17984</ele><time>2026-05-29T03:38:45.000Z</time></trkpt>
        <trkpt lat="29.579199" lon="103.462593"><ele>461.8276</ele><time>2026-05-29T03:38:50.000Z</time></trkpt>
        <trkpt lat="29.579242" lon="103.462628"><ele>461.8001</ele><time>2026-05-29T03:38:55.000Z</time></trkpt>
        <trkpt lat="29.579288" lon="103.462656"><ele>461.24924</ele><time>2026-05-29T03:39:00.000Z</time></trkpt>
        <trkpt lat="29.579326" lon="103.462685"><ele>460.873</ele><time>2026-05-29T03:39:04.000Z</time></trkpt>
        <trkpt lat="29.579367" lon="103.462709"><ele>459.84128</ele><time>2026-05-29T03:39:09.000Z</time></trkpt>
        <trkpt lat="29.579405" lon="103.462741"><ele>459.8137</ele><time>2026-05-29T03:39:14.000Z</time></trkpt>
        <trkpt lat="29.579443" lon="103.462774"><ele>457.0964</ele><time>2026-05-29T03:39:27.000Z</time></trkpt>
        <trkpt lat="29.579478" lon="103.462815"><ele>456.06854</ele><time>2026-05-29T03:39:35.000Z</time></trkpt>
        <trkpt lat="29.579502" lon="103.462863"><ele>455.5264</ele><time>2026-05-29T03:39:40.000Z</time></trkpt>
        <trkpt lat="29.579539" lon="103.462907"><ele>456.29657</ele><time>2026-05-29T03:39:45.000Z</time></trkpt>
        <trkpt lat="29.579575" lon="103.46294"><ele>455.9434</ele><time>2026-05-29T03:39:49.000Z</time></trkpt>
        <trkpt lat="29.579615" lon="103.462981"><ele>456.43335</ele><time>2026-05-29T03:39:54.000Z</time></trkpt>
        <trkpt lat="29.579625" lon="103.463041"><ele>456.566</ele><time>2026-05-29T03:39:59.000Z</time></trkpt>
        <trkpt lat="29.579654" lon="103.463094"><ele>457.56323</ele><time>2026-05-29T03:40:04.000Z</time></trkpt>
        <trkpt lat="29.579664" lon="103.463158"><ele>457.60394</ele><time>2026-05-29T03:40:09.000Z</time></trkpt>
        <trkpt lat="29.579664" lon="103.46322"><ele>457.43622</ele><time>2026-05-29T03:40:14.000Z</time></trkpt>
        <trkpt lat="29.579665" lon="103.46328"><ele>457.0235</ele><time>2026-05-29T03:40:19.000Z</time></trkpt>
        <trkpt lat="29.579661" lon="103.46334"><ele>457.28973</ele><time>2026-05-29T03:40:24.000Z</time></trkpt>
        <trkpt lat="29.579655" lon="103.4634"><ele>457.52945</ele><time>2026-05-29T03:40:29.000Z</time></trkpt>
        <trkpt lat="29.579635" lon="103.46346"><ele>457.4728</ele><time>2026-05-29T03:40:34.000Z</time></trkpt>
        <trkpt lat="29.579605" lon="103.463514"><ele>457.00424</ele><time>2026-05-29T03:40:39.000Z</time></trkpt>
        <trkpt lat="29.579579" lon="103.463569"><ele>456.6681</ele><time>2026-05-29T03:40:44.000Z</time></trkpt>
        <trkpt lat="29.579553" lon="103.463621"><ele>457.35077</ele><time>2026-05-29T03:40:51.000Z</time></trkpt>
        <trkpt lat="29.57953" lon="103.463669"><ele>457.03052</ele><time>2026-05-29T03:41:27.000Z</time></trkpt>
        <trkpt lat="29.579504" lon="103.463713"><ele>457.08038</ele><time>2026-05-29T03:41:31.000Z</time></trkpt>
        <trkpt lat="29.579476" lon="103.463765"><ele>458.1087</ele><time>2026-05-29T03:41:36.000Z</time></trkpt>
        <trkpt lat="29.579444" lon="103.463806"><ele>460.07977</ele><time>2026-05-29T03:42:25.000Z</time></trkpt>
        <trkpt lat="29.579416" lon="103.463852"><ele>459.84595</ele><time>2026-05-29T03:42:29.000Z</time></trkpt>
        <trkpt lat="29.579374" lon="103.463899"><ele>459.29733</ele><time>2026-05-29T03:42:43.000Z</time></trkpt>
        <trkpt lat="29.579347" lon="103.463951"><ele>458.96066</ele><time>2026-05-29T03:44:31.000Z</time></trkpt>
        <trkpt lat="29.579312" lon="103.463987"><ele>458.8825</ele><time>2026-05-29T03:44:37.000Z</time></trkpt>
        <trkpt lat="29.579278" lon="103.464028"><ele>457.23386</ele><time>2026-05-29T03:44:54.000Z</time></trkpt>
        <trkpt lat="29.579252" lon="103.464074"><ele>457.2582</ele><time>2026-05-29T03:45:06.000Z</time></trkpt>
        <trkpt lat="29.57921" lon="103.464101"><ele>459.1255</ele><time>2026-05-29T03:45:24.000Z</time></trkpt>
        <trkpt lat="29.579161" lon="103.464108"><ele>460.7558</ele><time>2026-05-29T03:45:39.000Z</time></trkpt>
        <trkpt lat="29.579125" lon="103.464077"><ele>460.4335</ele><time>2026-05-29T03:45:45.000Z</time></trkpt>
        <trkpt lat="29.579088" lon="103.46404"><ele>460.08594</ele><time>2026-05-29T03:45:49.000Z</time></trkpt>
        <trkpt lat="29.579051" lon="103.464008"><ele>459.83206</ele><time>2026-05-29T03:45:57.000Z</time></trkpt>
        <trkpt lat="29.579097" lon="103.463933"><ele>461.68082</ele><time>2026-05-29T03:46:17.000Z</time></trkpt>
        <trkpt lat="29.579215" lon="103.464014"><ele>461.59637</ele><time>2026-05-29T03:46:29.000Z</time></trkpt>
        <trkpt lat="29.579311" lon="103.464104"><ele>461.73154</ele><time>2026-05-29T03:46:41.000Z</time></trkpt>
        <trkpt lat="29.579228" lon="103.464154"><ele>461.59067</ele><time>2026-05-29T03:47:08.000Z</time></trkpt>
        <trkpt lat="29.57925" lon="103.464082"><ele>461.5942</ele><time>2026-05-29T03:47:14.000Z</time></trkpt>
        <trkpt lat="29.579231" lon="103.464031"><ele>462.22333</ele><time>2026-05-29T03:47:19.000Z</time></trkpt>
        <trkpt lat="29.579259" lon="103.464126"><ele>461.5726</ele><time>2026-05-29T03:47:41.000Z</time></trkpt>
        <trkpt lat="29.579256" lon="103.464061"><ele>461.55212</ele><time>2026-05-29T03:48:14.000Z</time></trkpt>
        <trkpt lat="29.579269" lon="103.464092"><ele>461.56085</ele><time>2026-05-29T03:48:34.000Z</time></trkpt>
        <trkpt lat="29.579222" lon="103.464126"><ele>461.56708</ele><time>2026-05-29T03:49:02.000Z</time></trkpt>
        <trkpt lat="29.579298" lon="103.464031"><ele>461.5588</ele><time>2026-05-29T03:49:19.000Z</time></trkpt>
        <trkpt lat="29.579264" lon="103.463924"><ele>461.67484</ele><time>2026-05-29T03:49:32.000Z</time></trkpt>
        <trkpt lat="29.579244" lon="103.463988"><ele>461.74838</ele><time>2026-05-29T03:49:45.000Z</time></trkpt>
        <trkpt lat="29.579241" lon="103.463974"><ele>461.69342</ele><time>2026-05-29T03:49:56.000Z</time></trkpt>
        <trkpt lat="29.579238" lon="103.464046"><ele>461.5562</ele><time>2026-05-29T03:50:20.000Z</time></trkpt>
        <trkpt lat="29.579248" lon="103.464014"><ele>461.75266</ele><time>2026-05-29T03:51:35.000Z</time></trkpt>
        <trkpt lat="29.579264" lon="103.463934"><ele>461.75912</ele><time>2026-05-29T03:52:01.000Z</time></trkpt>
        <trkpt lat="29.579254" lon="103.464074"><ele>461.84488</ele><time>2026-05-29T03:52:40.000Z</time></trkpt>
        <trkpt lat="29.579283" lon="103.463984"><ele>461.733</ele><time>2026-05-29T03:52:57.000Z</time></trkpt>
        <trkpt lat="29.579263" lon="103.464137"><ele>461.70374</ele><time>2026-05-29T03:53:26.000Z</time></trkpt>
        <trkpt lat="29.579264" lon="103.464237"><ele>461.58072</ele><time>2026-05-29T03:54:06.000Z</time></trkpt>
        <trkpt lat="29.578569" lon="103.463976"><ele>475.04193</ele><time>2026-05-29T03:54:15.000Z</time></trkpt>
        <trkpt lat="29.57856" lon="103.463974"><ele>474.1614</ele><time>2026-05-29T03:54:16.000Z</time></trkpt>
        <trkpt lat="29.578618" lon="103.463985"><ele>473.53668</ele><time>2026-05-29T03:54:18.000Z</time></trkpt>
        <trkpt lat="29.578671" lon="103.464007"><ele>474.51413</ele><time>2026-05-29T03:54:21.000Z</time></trkpt>
        <trkpt lat="29.578696" lon="103.46406"><ele>473.99646</ele><time>2026-05-29T03:54:25.000Z</time></trkpt>
        <trkpt lat="29.578714" lon="103.464116"><ele>474.16602</ele><time>2026-05-29T03:54:30.000Z</time></trkpt>
        <trkpt lat="29.57873" lon="103.464168"><ele>474.5699</ele><time>2026-05-29T03:54:34.000Z</time></trkpt>
        <trkpt lat="29.578741" lon="103.464223"><ele>473.6077</ele><time>2026-05-29T03:54:38.000Z</time></trkpt>
        <trkpt lat="29.578763" lon="103.464272"><ele>473.03076</ele><time>2026-05-29T03:54:43.000Z</time></trkpt>
        <trkpt lat="29.57875" lon="103.464338"><ele>472.6053</ele><time>2026-05-29T03:54:47.000Z</time></trkpt>
        <trkpt lat="29.578803" lon="103.464291"><ele>472.10562</ele><time>2026-05-29T03:54:50.000Z</time></trkpt>
        <trkpt lat="29.578845" lon="103.464267"><ele>470.29895</ele><time>2026-05-29T03:54:53.000Z</time></trkpt>
        <trkpt lat="29.578889" lon="103.46425"><ele>469.955</ele><time>2026-05-29T03:55:02.000Z</time></trkpt>
      </trkseg>
  </trk>
</gpx>